<?xml version="1.0" encoding="utf-8"?>
<gpx xmlns:xsi="http://www.w3.org/2001/XMLSchema-instance" xmlns:xsd="http://www.w3.org/2001/XMLSchema" version="1.1" creator="Shapelink.com" xmlns="http://www.topografix.com/GPX/1/1" xmlns:gpxtpx="http://www.garmin.com/xmlschemas/TrackPointExtension/v1">
  <metadata>
    <name>Ciclismo 35.37 km, 2015-07-19</name>
    <desc></desc>
    <author><name>Henrik Amren</name></author> 
    <time>2015-07-19T19:58:53Z</time>
  </metadata>
  <trk>
    <name>Ciclismo 35.37 km, 2015-07-19</name>
    <trkseg>
      <trkpt lat="37.390176" lon="-122.123493">
        <ele>42.7</ele>
        <time>2015-07-19T19:58:53Z</time>
      </trkpt>
      <trkpt lat="37.390139" lon="-122.123474">
        <ele>42.7</ele>
        <time>2015-07-19T19:58:58Z</time>
      </trkpt>
      <trkpt lat="37.390103" lon="-122.123464">
        <ele>42.8</ele>
        <time>2015-07-19T19:59:00Z</time>
      </trkpt>
      <trkpt lat="37.390066" lon="-122.123458">
        <ele>42.6</ele>
        <time>2015-07-19T19:59:03Z</time>
      </trkpt>
      <trkpt lat="37.390028" lon="-122.123443">
        <ele>42.4</ele>
        <time>2015-07-19T19:59:05Z</time>
      </trkpt>
      <trkpt lat="37.389993" lon="-122.123434">
        <ele>42.4</ele>
        <time>2015-07-19T19:59:07Z</time>
      </trkpt>
      <trkpt lat="37.38996" lon="-122.123444">
        <ele>42.5</ele>
        <time>2015-07-19T19:59:10Z</time>
      </trkpt>
      <trkpt lat="37.389953" lon="-122.123477">
        <ele>42.5</ele>
        <time>2015-07-19T19:59:12Z</time>
      </trkpt>
      <trkpt lat="37.389978" lon="-122.123508">
        <ele>42.5</ele>
        <time>2015-07-19T19:59:14Z</time>
      </trkpt>
      <trkpt lat="37.390014" lon="-122.123507">
        <ele>42.6</ele>
        <time>2015-07-19T19:59:16Z</time>
      </trkpt>
      <trkpt lat="37.390046" lon="-122.123495">
        <ele>42.7</ele>
        <time>2015-07-19T19:59:18Z</time>
      </trkpt>
      <trkpt lat="37.390074" lon="-122.12348">
        <ele>42.7</ele>
        <time>2015-07-19T19:59:22Z</time>
      </trkpt>
      <trkpt lat="37.390061" lon="-122.123439">
        <ele>42.6</ele>
        <time>2015-07-19T19:59:28Z</time>
      </trkpt>
      <trkpt lat="37.390052" lon="-122.123403">
        <ele>42.5</ele>
        <time>2015-07-19T19:59:30Z</time>
      </trkpt>
      <trkpt lat="37.390052" lon="-122.123347">
        <ele>42.4</ele>
        <time>2015-07-19T19:59:32Z</time>
      </trkpt>
      <trkpt lat="37.390065" lon="-122.123312">
        <ele>42.4</ele>
        <time>2015-07-19T19:59:33Z</time>
      </trkpt>
      <trkpt lat="37.390078" lon="-122.123275">
        <ele>42.4</ele>
        <time>2015-07-19T19:59:34Z</time>
      </trkpt>
      <trkpt lat="37.390092" lon="-122.123235">
        <ele>42.3</ele>
        <time>2015-07-19T19:59:35Z</time>
      </trkpt>
      <trkpt lat="37.390105" lon="-122.123195">
        <ele>42.3</ele>
        <time>2015-07-19T19:59:36Z</time>
      </trkpt>
      <trkpt lat="37.390115" lon="-122.123155">
        <ele>42.2</ele>
        <time>2015-07-19T19:59:37Z</time>
      </trkpt>
      <trkpt lat="37.390122" lon="-122.123115">
        <ele>42.2</ele>
        <time>2015-07-19T19:59:38Z</time>
      </trkpt>
      <trkpt lat="37.390128" lon="-122.123077">
        <ele>42.2</ele>
        <time>2015-07-19T19:59:39Z</time>
      </trkpt>
      <trkpt lat="37.390128" lon="-122.123037">
        <ele>42.1</ele>
        <time>2015-07-19T19:59:40Z</time>
      </trkpt>
      <trkpt lat="37.390129" lon="-122.122996">
        <ele>42</ele>
        <time>2015-07-19T19:59:41Z</time>
      </trkpt>
      <trkpt lat="37.390132" lon="-122.122955">
        <ele>41.9</ele>
        <time>2015-07-19T19:59:42Z</time>
      </trkpt>
      <trkpt lat="37.390139" lon="-122.122919">
        <ele>41.9</ele>
        <time>2015-07-19T19:59:43Z</time>
      </trkpt>
      <trkpt lat="37.390147" lon="-122.122883">
        <ele>41.8</ele>
        <time>2015-07-19T19:59:44Z</time>
      </trkpt>
      <trkpt lat="37.390159" lon="-122.122845">
        <ele>41.8</ele>
        <time>2015-07-19T19:59:45Z</time>
      </trkpt>
      <trkpt lat="37.390174" lon="-122.122807">
        <ele>41.8</ele>
        <time>2015-07-19T19:59:46Z</time>
      </trkpt>
      <trkpt lat="37.390188" lon="-122.122775">
        <ele>41.9</ele>
        <time>2015-07-19T19:59:47Z</time>
      </trkpt>
      <trkpt lat="37.390205" lon="-122.122737">
        <ele>41.9</ele>
        <time>2015-07-19T19:59:48Z</time>
      </trkpt>
      <trkpt lat="37.390221" lon="-122.122702">
        <ele>41.6</ele>
        <time>2015-07-19T19:59:49Z</time>
      </trkpt>
      <trkpt lat="37.390238" lon="-122.122667">
        <ele>41.5</ele>
        <time>2015-07-19T19:59:50Z</time>
      </trkpt>
      <trkpt lat="37.390255" lon="-122.122637">
        <ele>41.5</ele>
        <time>2015-07-19T19:59:51Z</time>
      </trkpt>
      <trkpt lat="37.390282" lon="-122.12259">
        <ele>41.4</ele>
        <time>2015-07-19T19:59:52Z</time>
      </trkpt>
      <trkpt lat="37.390308" lon="-122.122541">
        <ele>41.2</ele>
        <time>2015-07-19T19:59:53Z</time>
      </trkpt>
      <trkpt lat="37.390334" lon="-122.122484">
        <ele>41.1</ele>
        <time>2015-07-19T19:59:54Z</time>
      </trkpt>
      <trkpt lat="37.390361" lon="-122.122423">
        <ele>41</ele>
        <time>2015-07-19T19:59:55Z</time>
      </trkpt>
      <trkpt lat="37.390386" lon="-122.122369">
        <ele>40.8</ele>
        <time>2015-07-19T19:59:56Z</time>
      </trkpt>
      <trkpt lat="37.390401" lon="-122.122315">
        <ele>40.8</ele>
        <time>2015-07-19T19:59:57Z</time>
      </trkpt>
      <trkpt lat="37.390425" lon="-122.122253">
        <ele>40.7</ele>
        <time>2015-07-19T19:59:58Z</time>
      </trkpt>
      <trkpt lat="37.39044" lon="-122.122198">
        <ele>40.6</ele>
        <time>2015-07-19T19:59:59Z</time>
      </trkpt>
      <trkpt lat="37.390448" lon="-122.12214">
        <ele>40.5</ele>
        <time>2015-07-19T20:00:00Z</time>
      </trkpt>
      <trkpt lat="37.390458" lon="-122.122077">
        <ele>40.4</ele>
        <time>2015-07-19T20:00:01Z</time>
      </trkpt>
      <trkpt lat="37.390469" lon="-122.122015">
        <ele>40.3</ele>
        <time>2015-07-19T20:00:02Z</time>
      </trkpt>
      <trkpt lat="37.39048" lon="-122.121961">
        <ele>40.2</ele>
        <time>2015-07-19T20:00:03Z</time>
      </trkpt>
      <trkpt lat="37.390482" lon="-122.12191">
        <ele>40.1</ele>
        <time>2015-07-19T20:00:04Z</time>
      </trkpt>
      <trkpt lat="37.390485" lon="-122.121854">
        <ele>40.1</ele>
        <time>2015-07-19T20:00:05Z</time>
      </trkpt>
      <trkpt lat="37.390497" lon="-122.121793">
        <ele>40.1</ele>
        <time>2015-07-19T20:00:06Z</time>
      </trkpt>
      <trkpt lat="37.390505" lon="-122.121728">
        <ele>40.1</ele>
        <time>2015-07-19T20:00:07Z</time>
      </trkpt>
      <trkpt lat="37.390499" lon="-122.121661">
        <ele>40.1</ele>
        <time>2015-07-19T20:00:08Z</time>
      </trkpt>
      <trkpt lat="37.390498" lon="-122.121609">
        <ele>40.1</ele>
        <time>2015-07-19T20:00:09Z</time>
      </trkpt>
      <trkpt lat="37.390509" lon="-122.121559">
        <ele>40.1</ele>
        <time>2015-07-19T20:00:10Z</time>
      </trkpt>
      <trkpt lat="37.390513" lon="-122.121508">
        <ele>40.1</ele>
        <time>2015-07-19T20:00:11Z</time>
      </trkpt>
      <trkpt lat="37.390509" lon="-122.121459">
        <ele>40.1</ele>
        <time>2015-07-19T20:00:12Z</time>
      </trkpt>
      <trkpt lat="37.390506" lon="-122.121412">
        <ele>40.1</ele>
        <time>2015-07-19T20:00:13Z</time>
      </trkpt>
      <trkpt lat="37.390507" lon="-122.121365">
        <ele>40.1</ele>
        <time>2015-07-19T20:00:14Z</time>
      </trkpt>
      <trkpt lat="37.390504" lon="-122.121323">
        <ele>40.2</ele>
        <time>2015-07-19T20:00:15Z</time>
      </trkpt>
      <trkpt lat="37.390497" lon="-122.121283">
        <ele>40.2</ele>
        <time>2015-07-19T20:00:16Z</time>
      </trkpt>
      <trkpt lat="37.390503" lon="-122.121249">
        <ele>40.2</ele>
        <time>2015-07-19T20:00:17Z</time>
      </trkpt>
      <trkpt lat="37.3905" lon="-122.121211">
        <ele>40.2</ele>
        <time>2015-07-19T20:00:18Z</time>
      </trkpt>
      <trkpt lat="37.390517" lon="-122.121182">
        <ele>40.2</ele>
        <time>2015-07-19T20:00:19Z</time>
      </trkpt>
      <trkpt lat="37.390564" lon="-122.121181">
        <ele>40.4</ele>
        <time>2015-07-19T20:00:21Z</time>
      </trkpt>
      <trkpt lat="37.390575" lon="-122.12124">
        <ele>40.4</ele>
        <time>2015-07-19T20:00:23Z</time>
      </trkpt>
      <trkpt lat="37.390579" lon="-122.121275">
        <ele>40.4</ele>
        <time>2015-07-19T20:00:24Z</time>
      </trkpt>
      <trkpt lat="37.390584" lon="-122.12131">
        <ele>40.4</ele>
        <time>2015-07-19T20:00:25Z</time>
      </trkpt>
      <trkpt lat="37.390584" lon="-122.121345">
        <ele>40.4</ele>
        <time>2015-07-19T20:00:26Z</time>
      </trkpt>
      <trkpt lat="37.390579" lon="-122.121416">
        <ele>40.4</ele>
        <time>2015-07-19T20:00:28Z</time>
      </trkpt>
      <trkpt lat="37.39057" lon="-122.121451">
        <ele>40.4</ele>
        <time>2015-07-19T20:00:29Z</time>
      </trkpt>
      <trkpt lat="37.390546" lon="-122.121471">
        <ele>40.3</ele>
        <time>2015-07-19T20:00:30Z</time>
      </trkpt>
      <trkpt lat="37.390509" lon="-122.121437">
        <ele>40.1</ele>
        <time>2015-07-19T20:00:32Z</time>
      </trkpt>
      <trkpt lat="37.390509" lon="-122.121398">
        <ele>40.1</ele>
        <time>2015-07-19T20:00:33Z</time>
      </trkpt>
      <trkpt lat="37.39051" lon="-122.121359">
        <ele>40.1</ele>
        <time>2015-07-19T20:00:34Z</time>
      </trkpt>
      <trkpt lat="37.390509" lon="-122.121322">
        <ele>40.1</ele>
        <time>2015-07-19T20:00:35Z</time>
      </trkpt>
      <trkpt lat="37.390505" lon="-122.121284">
        <ele>40.1</ele>
        <time>2015-07-19T20:00:36Z</time>
      </trkpt>
      <trkpt lat="37.390509" lon="-122.12124">
        <ele>40.2</ele>
        <time>2015-07-19T20:00:37Z</time>
      </trkpt>
      <trkpt lat="37.390507" lon="-122.121196">
        <ele>40.2</ele>
        <time>2015-07-19T20:00:38Z</time>
      </trkpt>
      <trkpt lat="37.390506" lon="-122.121153">
        <ele>40.2</ele>
        <time>2015-07-19T20:00:39Z</time>
      </trkpt>
      <trkpt lat="37.390502" lon="-122.121108">
        <ele>40.2</ele>
        <time>2015-07-19T20:00:40Z</time>
      </trkpt>
      <trkpt lat="37.390502" lon="-122.121063">
        <ele>40.1</ele>
        <time>2015-07-19T20:00:41Z</time>
      </trkpt>
      <trkpt lat="37.390505" lon="-122.121021">
        <ele>40.1</ele>
        <time>2015-07-19T20:00:42Z</time>
      </trkpt>
      <trkpt lat="37.390508" lon="-122.12098">
        <ele>40.1</ele>
        <time>2015-07-19T20:00:43Z</time>
      </trkpt>
      <trkpt lat="37.390504" lon="-122.120942">
        <ele>40.1</ele>
        <time>2015-07-19T20:00:44Z</time>
      </trkpt>
      <trkpt lat="37.390508" lon="-122.120898">
        <ele>40</ele>
        <time>2015-07-19T20:00:45Z</time>
      </trkpt>
      <trkpt lat="37.39048" lon="-122.120873">
        <ele>40.1</ele>
        <time>2015-07-19T20:00:46Z</time>
      </trkpt>
      <trkpt lat="37.390432" lon="-122.120857">
        <ele>40.2</ele>
        <time>2015-07-19T20:00:48Z</time>
      </trkpt>
      <trkpt lat="37.39038" lon="-122.120861">
        <ele>40.2</ele>
        <time>2015-07-19T20:00:50Z</time>
      </trkpt>
      <trkpt lat="37.390349" lon="-122.120856">
        <ele>40.2</ele>
        <time>2015-07-19T20:00:51Z</time>
      </trkpt>
      <trkpt lat="37.390321" lon="-122.120856">
        <ele>40.2</ele>
        <time>2015-07-19T20:00:52Z</time>
      </trkpt>
      <trkpt lat="37.390255" lon="-122.120857">
        <ele>40.3</ele>
        <time>2015-07-19T20:00:54Z</time>
      </trkpt>
      <trkpt lat="37.390202" lon="-122.120856">
        <ele>40.4</ele>
        <time>2015-07-19T20:00:55Z</time>
      </trkpt>
      <trkpt lat="37.390172" lon="-122.120857">
        <ele>40.4</ele>
        <time>2015-07-19T20:00:56Z</time>
      </trkpt>
      <trkpt lat="37.390119" lon="-122.120854">
        <ele>40.5</ele>
        <time>2015-07-19T20:00:58Z</time>
      </trkpt>
      <trkpt lat="37.390084" lon="-122.120853">
        <ele>40.6</ele>
        <time>2015-07-19T20:00:59Z</time>
      </trkpt>
      <trkpt lat="37.390048" lon="-122.120862">
        <ele>40.6</ele>
        <time>2015-07-19T20:01:00Z</time>
      </trkpt>
      <trkpt lat="37.390011" lon="-122.120869">
        <ele>40.7</ele>
        <time>2015-07-19T20:01:01Z</time>
      </trkpt>
      <trkpt lat="37.389976" lon="-122.120874">
        <ele>40.7</ele>
        <time>2015-07-19T20:01:02Z</time>
      </trkpt>
      <trkpt lat="37.389942" lon="-122.120861">
        <ele>40.7</ele>
        <time>2015-07-19T20:01:03Z</time>
      </trkpt>
      <trkpt lat="37.389907" lon="-122.120857">
        <ele>40.8</ele>
        <time>2015-07-19T20:01:04Z</time>
      </trkpt>
      <trkpt lat="37.389871" lon="-122.120868">
        <ele>40.8</ele>
        <time>2015-07-19T20:01:05Z</time>
      </trkpt>
      <trkpt lat="37.38984" lon="-122.120876">
        <ele>40.9</ele>
        <time>2015-07-19T20:01:06Z</time>
      </trkpt>
      <trkpt lat="37.389806" lon="-122.120879">
        <ele>40.9</ele>
        <time>2015-07-19T20:01:07Z</time>
      </trkpt>
      <trkpt lat="37.389775" lon="-122.120881">
        <ele>40.9</ele>
        <time>2015-07-19T20:01:08Z</time>
      </trkpt>
      <trkpt lat="37.389747" lon="-122.120881">
        <ele>41</ele>
        <time>2015-07-19T20:01:09Z</time>
      </trkpt>
      <trkpt lat="37.389717" lon="-122.120885">
        <ele>41</ele>
        <time>2015-07-19T20:01:10Z</time>
      </trkpt>
      <trkpt lat="37.389687" lon="-122.120885">
        <ele>41.1</ele>
        <time>2015-07-19T20:01:11Z</time>
      </trkpt>
      <trkpt lat="37.389655" lon="-122.120882">
        <ele>41.1</ele>
        <time>2015-07-19T20:01:12Z</time>
      </trkpt>
      <trkpt lat="37.389623" lon="-122.120878">
        <ele>41.1</ele>
        <time>2015-07-19T20:01:13Z</time>
      </trkpt>
      <trkpt lat="37.38959" lon="-122.120875">
        <ele>41.1</ele>
        <time>2015-07-19T20:01:14Z</time>
      </trkpt>
      <trkpt lat="37.389558" lon="-122.120873">
        <ele>41.1</ele>
        <time>2015-07-19T20:01:15Z</time>
      </trkpt>
      <trkpt lat="37.389527" lon="-122.120871">
        <ele>41.2</ele>
        <time>2015-07-19T20:01:16Z</time>
      </trkpt>
      <trkpt lat="37.389496" lon="-122.120869">
        <ele>41.2</ele>
        <time>2015-07-19T20:01:17Z</time>
      </trkpt>
      <trkpt lat="37.389468" lon="-122.120864">
        <ele>41.2</ele>
        <time>2015-07-19T20:01:18Z</time>
      </trkpt>
      <trkpt lat="37.389436" lon="-122.120866">
        <ele>41.3</ele>
        <time>2015-07-19T20:01:19Z</time>
      </trkpt>
      <trkpt lat="37.389405" lon="-122.120868">
        <ele>41.3</ele>
        <time>2015-07-19T20:01:20Z</time>
      </trkpt>
      <trkpt lat="37.38937" lon="-122.120865">
        <ele>41.3</ele>
        <time>2015-07-19T20:01:21Z</time>
      </trkpt>
      <trkpt lat="37.389338" lon="-122.120859">
        <ele>41.3</ele>
        <time>2015-07-19T20:01:22Z</time>
      </trkpt>
      <trkpt lat="37.389308" lon="-122.120854">
        <ele>41.3</ele>
        <time>2015-07-19T20:01:23Z</time>
      </trkpt>
      <trkpt lat="37.389275" lon="-122.120852">
        <ele>41.3</ele>
        <time>2015-07-19T20:01:24Z</time>
      </trkpt>
      <trkpt lat="37.389239" lon="-122.120849">
        <ele>41.4</ele>
        <time>2015-07-19T20:01:25Z</time>
      </trkpt>
      <trkpt lat="37.389201" lon="-122.120844">
        <ele>41.4</ele>
        <time>2015-07-19T20:01:26Z</time>
      </trkpt>
      <trkpt lat="37.389166" lon="-122.120839">
        <ele>41.5</ele>
        <time>2015-07-19T20:01:27Z</time>
      </trkpt>
      <trkpt lat="37.389131" lon="-122.120839">
        <ele>41.6</ele>
        <time>2015-07-19T20:01:28Z</time>
      </trkpt>
      <trkpt lat="37.389099" lon="-122.120835">
        <ele>41.6</ele>
        <time>2015-07-19T20:01:29Z</time>
      </trkpt>
      <trkpt lat="37.389062" lon="-122.120835">
        <ele>41.7</ele>
        <time>2015-07-19T20:01:30Z</time>
      </trkpt>
      <trkpt lat="37.389027" lon="-122.120836">
        <ele>41.7</ele>
        <time>2015-07-19T20:01:31Z</time>
      </trkpt>
      <trkpt lat="37.388993" lon="-122.120836">
        <ele>41.7</ele>
        <time>2015-07-19T20:01:32Z</time>
      </trkpt>
      <trkpt lat="37.388957" lon="-122.120842">
        <ele>41.7</ele>
        <time>2015-07-19T20:01:33Z</time>
      </trkpt>
      <trkpt lat="37.388916" lon="-122.120852">
        <ele>41.8</ele>
        <time>2015-07-19T20:01:34Z</time>
      </trkpt>
      <trkpt lat="37.388877" lon="-122.120861">
        <ele>41.8</ele>
        <time>2015-07-19T20:01:35Z</time>
      </trkpt>
      <trkpt lat="37.388841" lon="-122.120868">
        <ele>41.9</ele>
        <time>2015-07-19T20:01:36Z</time>
      </trkpt>
      <trkpt lat="37.388804" lon="-122.120878">
        <ele>42</ele>
        <time>2015-07-19T20:01:37Z</time>
      </trkpt>
      <trkpt lat="37.388768" lon="-122.120881">
        <ele>42.1</ele>
        <time>2015-07-19T20:01:38Z</time>
      </trkpt>
      <trkpt lat="37.388733" lon="-122.120889">
        <ele>42.1</ele>
        <time>2015-07-19T20:01:39Z</time>
      </trkpt>
      <trkpt lat="37.388696" lon="-122.120887">
        <ele>42.1</ele>
        <time>2015-07-19T20:01:40Z</time>
      </trkpt>
      <trkpt lat="37.388651" lon="-122.120881">
        <ele>42.2</ele>
        <time>2015-07-19T20:01:41Z</time>
      </trkpt>
      <trkpt lat="37.388614" lon="-122.120877">
        <ele>42.1</ele>
        <time>2015-07-19T20:01:42Z</time>
      </trkpt>
      <trkpt lat="37.388583" lon="-122.120875">
        <ele>42.1</ele>
        <time>2015-07-19T20:01:43Z</time>
      </trkpt>
      <trkpt lat="37.388546" lon="-122.120873">
        <ele>42.1</ele>
        <time>2015-07-19T20:01:44Z</time>
      </trkpt>
      <trkpt lat="37.388514" lon="-122.120868">
        <ele>42.2</ele>
        <time>2015-07-19T20:01:45Z</time>
      </trkpt>
      <trkpt lat="37.388477" lon="-122.120866">
        <ele>42.3</ele>
        <time>2015-07-19T20:01:46Z</time>
      </trkpt>
      <trkpt lat="37.388434" lon="-122.120865">
        <ele>42.2</ele>
        <time>2015-07-19T20:01:47Z</time>
      </trkpt>
      <trkpt lat="37.388393" lon="-122.120865">
        <ele>42.4</ele>
        <time>2015-07-19T20:01:48Z</time>
      </trkpt>
      <trkpt lat="37.388344" lon="-122.12086">
        <ele>42.4</ele>
        <time>2015-07-19T20:01:49Z</time>
      </trkpt>
      <trkpt lat="37.388305" lon="-122.120854">
        <ele>42.4</ele>
        <time>2015-07-19T20:01:50Z</time>
      </trkpt>
      <trkpt lat="37.38827" lon="-122.120846">
        <ele>42.4</ele>
        <time>2015-07-19T20:01:51Z</time>
      </trkpt>
      <trkpt lat="37.388233" lon="-122.120843">
        <ele>42.5</ele>
        <time>2015-07-19T20:01:52Z</time>
      </trkpt>
      <trkpt lat="37.388192" lon="-122.120838">
        <ele>42.5</ele>
        <time>2015-07-19T20:01:53Z</time>
      </trkpt>
      <trkpt lat="37.388145" lon="-122.120829">
        <ele>42.6</ele>
        <time>2015-07-19T20:01:54Z</time>
      </trkpt>
      <trkpt lat="37.388107" lon="-122.120826">
        <ele>42.7</ele>
        <time>2015-07-19T20:01:55Z</time>
      </trkpt>
      <trkpt lat="37.388068" lon="-122.120821">
        <ele>42.8</ele>
        <time>2015-07-19T20:01:56Z</time>
      </trkpt>
      <trkpt lat="37.388027" lon="-122.120822">
        <ele>42.8</ele>
        <time>2015-07-19T20:01:57Z</time>
      </trkpt>
      <trkpt lat="37.387981" lon="-122.120828">
        <ele>42.8</ele>
        <time>2015-07-19T20:01:58Z</time>
      </trkpt>
      <trkpt lat="37.387937" lon="-122.120829">
        <ele>42.9</ele>
        <time>2015-07-19T20:01:59Z</time>
      </trkpt>
      <trkpt lat="37.38789" lon="-122.120826">
        <ele>43</ele>
        <time>2015-07-19T20:02:00Z</time>
      </trkpt>
      <trkpt lat="37.387847" lon="-122.120824">
        <ele>43</ele>
        <time>2015-07-19T20:02:01Z</time>
      </trkpt>
      <trkpt lat="37.387806" lon="-122.120825">
        <ele>43.1</ele>
        <time>2015-07-19T20:02:02Z</time>
      </trkpt>
      <trkpt lat="37.387767" lon="-122.12082">
        <ele>43.1</ele>
        <time>2015-07-19T20:02:03Z</time>
      </trkpt>
      <trkpt lat="37.387731" lon="-122.120817">
        <ele>43.3</ele>
        <time>2015-07-19T20:02:04Z</time>
      </trkpt>
      <trkpt lat="37.387687" lon="-122.120823">
        <ele>43.3</ele>
        <time>2015-07-19T20:02:05Z</time>
      </trkpt>
      <trkpt lat="37.387647" lon="-122.120822">
        <ele>43.3</ele>
        <time>2015-07-19T20:02:06Z</time>
      </trkpt>
      <trkpt lat="37.387607" lon="-122.120821">
        <ele>43.3</ele>
        <time>2015-07-19T20:02:07Z</time>
      </trkpt>
      <trkpt lat="37.387542" lon="-122.120833">
        <ele>43.3</ele>
        <time>2015-07-19T20:02:09Z</time>
      </trkpt>
      <trkpt lat="37.387501" lon="-122.120834">
        <ele>43.4</ele>
        <time>2015-07-19T20:02:10Z</time>
      </trkpt>
      <trkpt lat="37.38746" lon="-122.120834">
        <ele>43.4</ele>
        <time>2015-07-19T20:02:11Z</time>
      </trkpt>
      <trkpt lat="37.387409" lon="-122.120827">
        <ele>43.5</ele>
        <time>2015-07-19T20:02:12Z</time>
      </trkpt>
      <trkpt lat="37.387365" lon="-122.120826">
        <ele>43.6</ele>
        <time>2015-07-19T20:02:13Z</time>
      </trkpt>
      <trkpt lat="37.387325" lon="-122.120832">
        <ele>43.6</ele>
        <time>2015-07-19T20:02:14Z</time>
      </trkpt>
      <trkpt lat="37.387282" lon="-122.120833">
        <ele>43.6</ele>
        <time>2015-07-19T20:02:15Z</time>
      </trkpt>
      <trkpt lat="37.38724" lon="-122.120832">
        <ele>43.7</ele>
        <time>2015-07-19T20:02:16Z</time>
      </trkpt>
      <trkpt lat="37.387205" lon="-122.120816">
        <ele>43.8</ele>
        <time>2015-07-19T20:02:17Z</time>
      </trkpt>
      <trkpt lat="37.387173" lon="-122.12081">
        <ele>43.9</ele>
        <time>2015-07-19T20:02:18Z</time>
      </trkpt>
      <trkpt lat="37.387136" lon="-122.12081">
        <ele>43.9</ele>
        <time>2015-07-19T20:02:19Z</time>
      </trkpt>
      <trkpt lat="37.387094" lon="-122.120813">
        <ele>43.9</ele>
        <time>2015-07-19T20:02:20Z</time>
      </trkpt>
      <trkpt lat="37.387051" lon="-122.120813">
        <ele>43.9</ele>
        <time>2015-07-19T20:02:21Z</time>
      </trkpt>
      <trkpt lat="37.387015" lon="-122.120825">
        <ele>43.9</ele>
        <time>2015-07-19T20:02:22Z</time>
      </trkpt>
      <trkpt lat="37.386968" lon="-122.12083">
        <ele>43.9</ele>
        <time>2015-07-19T20:02:23Z</time>
      </trkpt>
      <trkpt lat="37.386917" lon="-122.120833">
        <ele>43.9</ele>
        <time>2015-07-19T20:02:24Z</time>
      </trkpt>
      <trkpt lat="37.38687" lon="-122.120836">
        <ele>43.9</ele>
        <time>2015-07-19T20:02:25Z</time>
      </trkpt>
      <trkpt lat="37.386823" lon="-122.120839">
        <ele>44</ele>
        <time>2015-07-19T20:02:26Z</time>
      </trkpt>
      <trkpt lat="37.386778" lon="-122.12084">
        <ele>44</ele>
        <time>2015-07-19T20:02:27Z</time>
      </trkpt>
      <trkpt lat="37.386732" lon="-122.120842">
        <ele>44.1</ele>
        <time>2015-07-19T20:02:28Z</time>
      </trkpt>
      <trkpt lat="37.386687" lon="-122.120845">
        <ele>44.1</ele>
        <time>2015-07-19T20:02:29Z</time>
      </trkpt>
      <trkpt lat="37.386631" lon="-122.120866">
        <ele>44.3</ele>
        <time>2015-07-19T20:02:30Z</time>
      </trkpt>
      <trkpt lat="37.386585" lon="-122.120866">
        <ele>44.3</ele>
        <time>2015-07-19T20:02:31Z</time>
      </trkpt>
      <trkpt lat="37.386545" lon="-122.120878">
        <ele>44.4</ele>
        <time>2015-07-19T20:02:32Z</time>
      </trkpt>
      <trkpt lat="37.386509" lon="-122.120872">
        <ele>44.5</ele>
        <time>2015-07-19T20:02:33Z</time>
      </trkpt>
      <trkpt lat="37.386471" lon="-122.12087">
        <ele>44.5</ele>
        <time>2015-07-19T20:02:34Z</time>
      </trkpt>
      <trkpt lat="37.386427" lon="-122.120868">
        <ele>44.6</ele>
        <time>2015-07-19T20:02:35Z</time>
      </trkpt>
      <trkpt lat="37.386373" lon="-122.120864">
        <ele>44.7</ele>
        <time>2015-07-19T20:02:36Z</time>
      </trkpt>
      <trkpt lat="37.386333" lon="-122.12088">
        <ele>44.9</ele>
        <time>2015-07-19T20:02:37Z</time>
      </trkpt>
      <trkpt lat="37.386294" lon="-122.120886">
        <ele>45</ele>
        <time>2015-07-19T20:02:38Z</time>
      </trkpt>
      <trkpt lat="37.386256" lon="-122.120892">
        <ele>45</ele>
        <time>2015-07-19T20:02:39Z</time>
      </trkpt>
      <trkpt lat="37.38622" lon="-122.120898">
        <ele>45.1</ele>
        <time>2015-07-19T20:02:40Z</time>
      </trkpt>
      <trkpt lat="37.386177" lon="-122.120909">
        <ele>45.1</ele>
        <time>2015-07-19T20:02:41Z</time>
      </trkpt>
      <trkpt lat="37.386137" lon="-122.120913">
        <ele>45</ele>
        <time>2015-07-19T20:02:42Z</time>
      </trkpt>
      <trkpt lat="37.386098" lon="-122.120905">
        <ele>45.3</ele>
        <time>2015-07-19T20:02:43Z</time>
      </trkpt>
      <trkpt lat="37.386062" lon="-122.1209">
        <ele>45.4</ele>
        <time>2015-07-19T20:02:44Z</time>
      </trkpt>
      <trkpt lat="37.386039" lon="-122.12087">
        <ele>45.4</ele>
        <time>2015-07-19T20:02:45Z</time>
      </trkpt>
      <trkpt lat="37.386006" lon="-122.120861">
        <ele>45.4</ele>
        <time>2015-07-19T20:02:46Z</time>
      </trkpt>
      <trkpt lat="37.385972" lon="-122.120853">
        <ele>45.4</ele>
        <time>2015-07-19T20:02:47Z</time>
      </trkpt>
      <trkpt lat="37.385951" lon="-122.120825">
        <ele>45.4</ele>
        <time>2015-07-19T20:02:48Z</time>
      </trkpt>
      <trkpt lat="37.385921" lon="-122.120831">
        <ele>45.5</ele>
        <time>2015-07-19T20:02:49Z</time>
      </trkpt>
      <trkpt lat="37.385882" lon="-122.120847">
        <ele>45.5</ele>
        <time>2015-07-19T20:02:50Z</time>
      </trkpt>
      <trkpt lat="37.385845" lon="-122.120846">
        <ele>45.5</ele>
        <time>2015-07-19T20:02:51Z</time>
      </trkpt>
      <trkpt lat="37.385799" lon="-122.120855">
        <ele>45.8</ele>
        <time>2015-07-19T20:02:52Z</time>
      </trkpt>
      <trkpt lat="37.385761" lon="-122.120856">
        <ele>45.9</ele>
        <time>2015-07-19T20:02:53Z</time>
      </trkpt>
      <trkpt lat="37.38572" lon="-122.120863">
        <ele>46</ele>
        <time>2015-07-19T20:02:54Z</time>
      </trkpt>
      <trkpt lat="37.38569" lon="-122.120864">
        <ele>46.1</ele>
        <time>2015-07-19T20:02:55Z</time>
      </trkpt>
      <trkpt lat="37.385657" lon="-122.120857">
        <ele>46.2</ele>
        <time>2015-07-19T20:02:56Z</time>
      </trkpt>
      <trkpt lat="37.385628" lon="-122.120853">
        <ele>46.1</ele>
        <time>2015-07-19T20:02:57Z</time>
      </trkpt>
      <trkpt lat="37.385593" lon="-122.120855">
        <ele>46.2</ele>
        <time>2015-07-19T20:02:58Z</time>
      </trkpt>
      <trkpt lat="37.385553" lon="-122.12086">
        <ele>46.3</ele>
        <time>2015-07-19T20:02:59Z</time>
      </trkpt>
      <trkpt lat="37.385512" lon="-122.120867">
        <ele>46.4</ele>
        <time>2015-07-19T20:03:00Z</time>
      </trkpt>
      <trkpt lat="37.385466" lon="-122.120871">
        <ele>46.5</ele>
        <time>2015-07-19T20:03:01Z</time>
      </trkpt>
      <trkpt lat="37.385429" lon="-122.120873">
        <ele>46.6</ele>
        <time>2015-07-19T20:03:02Z</time>
      </trkpt>
      <trkpt lat="37.385393" lon="-122.120867">
        <ele>46.7</ele>
        <time>2015-07-19T20:03:03Z</time>
      </trkpt>
      <trkpt lat="37.385353" lon="-122.120873">
        <ele>46.8</ele>
        <time>2015-07-19T20:03:04Z</time>
      </trkpt>
      <trkpt lat="37.385317" lon="-122.120874">
        <ele>46.9</ele>
        <time>2015-07-19T20:03:05Z</time>
      </trkpt>
      <trkpt lat="37.385286" lon="-122.120871">
        <ele>47.1</ele>
        <time>2015-07-19T20:03:06Z</time>
      </trkpt>
      <trkpt lat="37.385255" lon="-122.12087">
        <ele>47.2</ele>
        <time>2015-07-19T20:03:07Z</time>
      </trkpt>
      <trkpt lat="37.38522" lon="-122.120869">
        <ele>47.2</ele>
        <time>2015-07-19T20:03:08Z</time>
      </trkpt>
      <trkpt lat="37.38517" lon="-122.120861">
        <ele>47.3</ele>
        <time>2015-07-19T20:03:10Z</time>
      </trkpt>
      <trkpt lat="37.385119" lon="-122.120853">
        <ele>47.3</ele>
        <time>2015-07-19T20:03:12Z</time>
      </trkpt>
      <trkpt lat="37.385091" lon="-122.120837">
        <ele>47.4</ele>
        <time>2015-07-19T20:03:13Z</time>
      </trkpt>
      <trkpt lat="37.385063" lon="-122.120833">
        <ele>47.5</ele>
        <time>2015-07-19T20:03:14Z</time>
      </trkpt>
      <trkpt lat="37.385011" lon="-122.120836">
        <ele>47.7</ele>
        <time>2015-07-19T20:03:16Z</time>
      </trkpt>
      <trkpt lat="37.384982" lon="-122.120846">
        <ele>47.8</ele>
        <time>2015-07-19T20:03:17Z</time>
      </trkpt>
      <trkpt lat="37.384954" lon="-122.120845">
        <ele>48</ele>
        <time>2015-07-19T20:03:18Z</time>
      </trkpt>
      <trkpt lat="37.384898" lon="-122.120836">
        <ele>48.1</ele>
        <time>2015-07-19T20:03:20Z</time>
      </trkpt>
      <trkpt lat="37.38487" lon="-122.120834">
        <ele>48.1</ele>
        <time>2015-07-19T20:03:21Z</time>
      </trkpt>
      <trkpt lat="37.384847" lon="-122.120816">
        <ele>48.2</ele>
        <time>2015-07-19T20:03:22Z</time>
      </trkpt>
      <trkpt lat="37.384815" lon="-122.120817">
        <ele>48.3</ele>
        <time>2015-07-19T20:03:23Z</time>
      </trkpt>
      <trkpt lat="37.384771" lon="-122.120823">
        <ele>48.4</ele>
        <time>2015-07-19T20:03:24Z</time>
      </trkpt>
      <trkpt lat="37.38473" lon="-122.120829">
        <ele>48.5</ele>
        <time>2015-07-19T20:03:25Z</time>
      </trkpt>
      <trkpt lat="37.384695" lon="-122.120831">
        <ele>48.6</ele>
        <time>2015-07-19T20:03:26Z</time>
      </trkpt>
      <trkpt lat="37.38466" lon="-122.12083">
        <ele>48.7</ele>
        <time>2015-07-19T20:03:27Z</time>
      </trkpt>
      <trkpt lat="37.384628" lon="-122.120823">
        <ele>48.8</ele>
        <time>2015-07-19T20:03:28Z</time>
      </trkpt>
      <trkpt lat="37.384599" lon="-122.120825">
        <ele>48.9</ele>
        <time>2015-07-19T20:03:29Z</time>
      </trkpt>
      <trkpt lat="37.384545" lon="-122.120826">
        <ele>49</ele>
        <time>2015-07-19T20:03:31Z</time>
      </trkpt>
      <trkpt lat="37.384495" lon="-122.120846">
        <ele>49.3</ele>
        <time>2015-07-19T20:03:33Z</time>
      </trkpt>
      <trkpt lat="37.38446" lon="-122.120854">
        <ele>49.4</ele>
        <time>2015-07-19T20:03:34Z</time>
      </trkpt>
      <trkpt lat="37.384423" lon="-122.120851">
        <ele>49.5</ele>
        <time>2015-07-19T20:03:36Z</time>
      </trkpt>
      <trkpt lat="37.384367" lon="-122.120851">
        <ele>49.7</ele>
        <time>2015-07-19T20:03:38Z</time>
      </trkpt>
      <trkpt lat="37.38432" lon="-122.120841">
        <ele>49.8</ele>
        <time>2015-07-19T20:03:41Z</time>
      </trkpt>
      <trkpt lat="37.384289" lon="-122.120838">
        <ele>49.9</ele>
        <time>2015-07-19T20:03:42Z</time>
      </trkpt>
      <trkpt lat="37.38426" lon="-122.120836">
        <ele>50</ele>
        <time>2015-07-19T20:03:43Z</time>
      </trkpt>
      <trkpt lat="37.384228" lon="-122.120833">
        <ele>50.1</ele>
        <time>2015-07-19T20:03:44Z</time>
      </trkpt>
      <trkpt lat="37.38419" lon="-122.120834">
        <ele>50.1</ele>
        <time>2015-07-19T20:03:45Z</time>
      </trkpt>
      <trkpt lat="37.384161" lon="-122.120831">
        <ele>50.2</ele>
        <time>2015-07-19T20:03:46Z</time>
      </trkpt>
      <trkpt lat="37.384133" lon="-122.120821">
        <ele>50.2</ele>
        <time>2015-07-19T20:03:47Z</time>
      </trkpt>
      <trkpt lat="37.3841" lon="-122.120825">
        <ele>50.3</ele>
        <time>2015-07-19T20:03:48Z</time>
      </trkpt>
      <trkpt lat="37.384069" lon="-122.120825">
        <ele>50.4</ele>
        <time>2015-07-19T20:03:49Z</time>
      </trkpt>
      <trkpt lat="37.384032" lon="-122.120831">
        <ele>50.5</ele>
        <time>2015-07-19T20:03:50Z</time>
      </trkpt>
      <trkpt lat="37.383995" lon="-122.120836">
        <ele>50.5</ele>
        <time>2015-07-19T20:03:51Z</time>
      </trkpt>
      <trkpt lat="37.383944" lon="-122.120865">
        <ele>50.7</ele>
        <time>2015-07-19T20:03:52Z</time>
      </trkpt>
      <trkpt lat="37.383901" lon="-122.120859">
        <ele>50.9</ele>
        <time>2015-07-19T20:03:54Z</time>
      </trkpt>
      <trkpt lat="37.383872" lon="-122.120862">
        <ele>51</ele>
        <time>2015-07-19T20:03:55Z</time>
      </trkpt>
      <trkpt lat="37.383837" lon="-122.120867">
        <ele>51.1</ele>
        <time>2015-07-19T20:03:56Z</time>
      </trkpt>
      <trkpt lat="37.383794" lon="-122.120859">
        <ele>51.1</ele>
        <time>2015-07-19T20:03:58Z</time>
      </trkpt>
      <trkpt lat="37.383765" lon="-122.120857">
        <ele>51.1</ele>
        <time>2015-07-19T20:03:59Z</time>
      </trkpt>
      <trkpt lat="37.383735" lon="-122.120845">
        <ele>51.2</ele>
        <time>2015-07-19T20:04:00Z</time>
      </trkpt>
      <trkpt lat="37.383705" lon="-122.120845">
        <ele>51.3</ele>
        <time>2015-07-19T20:04:01Z</time>
      </trkpt>
      <trkpt lat="37.383661" lon="-122.120844">
        <ele>51.4</ele>
        <time>2015-07-19T20:04:02Z</time>
      </trkpt>
      <trkpt lat="37.383628" lon="-122.120846">
        <ele>51.5</ele>
        <time>2015-07-19T20:04:03Z</time>
      </trkpt>
      <trkpt lat="37.383586" lon="-122.120854">
        <ele>51.6</ele>
        <time>2015-07-19T20:04:04Z</time>
      </trkpt>
      <trkpt lat="37.383533" lon="-122.120856">
        <ele>51.8</ele>
        <time>2015-07-19T20:04:06Z</time>
      </trkpt>
      <trkpt lat="37.383479" lon="-122.120856">
        <ele>51.9</ele>
        <time>2015-07-19T20:04:08Z</time>
      </trkpt>
      <trkpt lat="37.38345" lon="-122.120857">
        <ele>52</ele>
        <time>2015-07-19T20:04:09Z</time>
      </trkpt>
      <trkpt lat="37.383411" lon="-122.120854">
        <ele>52</ele>
        <time>2015-07-19T20:04:11Z</time>
      </trkpt>
      <trkpt lat="37.383382" lon="-122.120873">
        <ele>52.1</ele>
        <time>2015-07-19T20:04:13Z</time>
      </trkpt>
      <trkpt lat="37.383338" lon="-122.120894">
        <ele>52.2</ele>
        <time>2015-07-19T20:04:15Z</time>
      </trkpt>
      <trkpt lat="37.383303" lon="-122.120899">
        <ele>52.3</ele>
        <time>2015-07-19T20:04:16Z</time>
      </trkpt>
      <trkpt lat="37.383238" lon="-122.120906">
        <ele>52.6</ele>
        <time>2015-07-19T20:04:17Z</time>
      </trkpt>
      <trkpt lat="37.383203" lon="-122.120908">
        <ele>52.7</ele>
        <time>2015-07-19T20:04:18Z</time>
      </trkpt>
      <trkpt lat="37.383171" lon="-122.120888">
        <ele>52.8</ele>
        <time>2015-07-19T20:04:19Z</time>
      </trkpt>
      <trkpt lat="37.383142" lon="-122.120891">
        <ele>52.8</ele>
        <time>2015-07-19T20:04:20Z</time>
      </trkpt>
      <trkpt lat="37.383098" lon="-122.120885">
        <ele>52.9</ele>
        <time>2015-07-19T20:04:21Z</time>
      </trkpt>
      <trkpt lat="37.383058" lon="-122.12088">
        <ele>53</ele>
        <time>2015-07-19T20:04:22Z</time>
      </trkpt>
      <trkpt lat="37.383005" lon="-122.120861">
        <ele>53.2</ele>
        <time>2015-07-19T20:04:23Z</time>
      </trkpt>
      <trkpt lat="37.382972" lon="-122.120865">
        <ele>53.3</ele>
        <time>2015-07-19T20:04:24Z</time>
      </trkpt>
      <trkpt lat="37.382939" lon="-122.120864">
        <ele>53.3</ele>
        <time>2015-07-19T20:04:25Z</time>
      </trkpt>
      <trkpt lat="37.382877" lon="-122.120864">
        <ele>53.4</ele>
        <time>2015-07-19T20:04:27Z</time>
      </trkpt>
      <trkpt lat="37.382838" lon="-122.120861">
        <ele>53.5</ele>
        <time>2015-07-19T20:04:28Z</time>
      </trkpt>
      <trkpt lat="37.382811" lon="-122.120857">
        <ele>53.5</ele>
        <time>2015-07-19T20:04:29Z</time>
      </trkpt>
      <trkpt lat="37.38278" lon="-122.120854">
        <ele>53.6</ele>
        <time>2015-07-19T20:04:30Z</time>
      </trkpt>
      <trkpt lat="37.382744" lon="-122.120856">
        <ele>53.6</ele>
        <time>2015-07-19T20:04:31Z</time>
      </trkpt>
      <trkpt lat="37.382712" lon="-122.120859">
        <ele>53.7</ele>
        <time>2015-07-19T20:04:32Z</time>
      </trkpt>
      <trkpt lat="37.382658" lon="-122.12086">
        <ele>53.8</ele>
        <time>2015-07-19T20:04:34Z</time>
      </trkpt>
      <trkpt lat="37.382608" lon="-122.12085">
        <ele>53.9</ele>
        <time>2015-07-19T20:04:36Z</time>
      </trkpt>
      <trkpt lat="37.382581" lon="-122.120845">
        <ele>53.9</ele>
        <time>2015-07-19T20:04:37Z</time>
      </trkpt>
      <trkpt lat="37.382549" lon="-122.120818">
        <ele>53.8</ele>
        <time>2015-07-19T20:04:39Z</time>
      </trkpt>
      <trkpt lat="37.382515" lon="-122.120816">
        <ele>54</ele>
        <time>2015-07-19T20:04:40Z</time>
      </trkpt>
      <trkpt lat="37.382485" lon="-122.120815">
        <ele>54</ele>
        <time>2015-07-19T20:04:41Z</time>
      </trkpt>
      <trkpt lat="37.382451" lon="-122.120811">
        <ele>54.1</ele>
        <time>2015-07-19T20:04:42Z</time>
      </trkpt>
      <trkpt lat="37.382418" lon="-122.120814">
        <ele>54.1</ele>
        <time>2015-07-19T20:04:43Z</time>
      </trkpt>
      <trkpt lat="37.382388" lon="-122.120815">
        <ele>54.2</ele>
        <time>2015-07-19T20:04:44Z</time>
      </trkpt>
      <trkpt lat="37.382347" lon="-122.120824">
        <ele>54.3</ele>
        <time>2015-07-19T20:04:45Z</time>
      </trkpt>
      <trkpt lat="37.382314" lon="-122.120828">
        <ele>54.4</ele>
        <time>2015-07-19T20:04:46Z</time>
      </trkpt>
      <trkpt lat="37.382284" lon="-122.120833">
        <ele>54.5</ele>
        <time>2015-07-19T20:04:47Z</time>
      </trkpt>
      <trkpt lat="37.382254" lon="-122.120838">
        <ele>54.6</ele>
        <time>2015-07-19T20:04:48Z</time>
      </trkpt>
      <trkpt lat="37.382222" lon="-122.120839">
        <ele>54.7</ele>
        <time>2015-07-19T20:04:49Z</time>
      </trkpt>
      <trkpt lat="37.38219" lon="-122.12084">
        <ele>54.8</ele>
        <time>2015-07-19T20:04:50Z</time>
      </trkpt>
      <trkpt lat="37.382132" lon="-122.120839">
        <ele>55</ele>
        <time>2015-07-19T20:04:52Z</time>
      </trkpt>
      <trkpt lat="37.382092" lon="-122.120848">
        <ele>55.1</ele>
        <time>2015-07-19T20:04:54Z</time>
      </trkpt>
      <trkpt lat="37.382065" lon="-122.120857">
        <ele>55.2</ele>
        <time>2015-07-19T20:04:56Z</time>
      </trkpt>
      <trkpt lat="37.382031" lon="-122.120847">
        <ele>55.3</ele>
        <time>2015-07-19T20:04:57Z</time>
      </trkpt>
      <trkpt lat="37.381988" lon="-122.120833">
        <ele>55.5</ele>
        <time>2015-07-19T20:04:59Z</time>
      </trkpt>
      <trkpt lat="37.381922" lon="-122.120816">
        <ele>55.4</ele>
        <time>2015-07-19T20:05:01Z</time>
      </trkpt>
      <trkpt lat="37.381894" lon="-122.120816">
        <ele>55.4</ele>
        <time>2015-07-19T20:05:02Z</time>
      </trkpt>
      <trkpt lat="37.381846" lon="-122.120813">
        <ele>55.5</ele>
        <time>2015-07-19T20:05:04Z</time>
      </trkpt>
      <trkpt lat="37.381809" lon="-122.120796">
        <ele>55.7</ele>
        <time>2015-07-19T20:05:05Z</time>
      </trkpt>
      <trkpt lat="37.381777" lon="-122.120785">
        <ele>55.7</ele>
        <time>2015-07-19T20:05:07Z</time>
      </trkpt>
      <trkpt lat="37.381749" lon="-122.120784">
        <ele>55.8</ele>
        <time>2015-07-19T20:05:08Z</time>
      </trkpt>
      <trkpt lat="37.381718" lon="-122.120773">
        <ele>55.9</ele>
        <time>2015-07-19T20:05:09Z</time>
      </trkpt>
      <trkpt lat="37.381657" lon="-122.120746">
        <ele>56</ele>
        <time>2015-07-19T20:05:11Z</time>
      </trkpt>
      <trkpt lat="37.38161" lon="-122.120729">
        <ele>56.2</ele>
        <time>2015-07-19T20:05:13Z</time>
      </trkpt>
      <trkpt lat="37.381557" lon="-122.120723">
        <ele>56.4</ele>
        <time>2015-07-19T20:05:15Z</time>
      </trkpt>
      <trkpt lat="37.38153" lon="-122.120734">
        <ele>56.5</ele>
        <time>2015-07-19T20:05:16Z</time>
      </trkpt>
      <trkpt lat="37.381506" lon="-122.120755">
        <ele>56.6</ele>
        <time>2015-07-19T20:05:17Z</time>
      </trkpt>
      <trkpt lat="37.381478" lon="-122.120797">
        <ele>56.7</ele>
        <time>2015-07-19T20:05:18Z</time>
      </trkpt>
      <trkpt lat="37.381456" lon="-122.120831">
        <ele>56.7</ele>
        <time>2015-07-19T20:05:19Z</time>
      </trkpt>
      <trkpt lat="37.381446" lon="-122.120864">
        <ele>56.8</ele>
        <time>2015-07-19T20:05:20Z</time>
      </trkpt>
      <trkpt lat="37.381444" lon="-122.120899">
        <ele>56.9</ele>
        <time>2015-07-19T20:05:21Z</time>
      </trkpt>
      <trkpt lat="37.381443" lon="-122.120933">
        <ele>57</ele>
        <time>2015-07-19T20:05:22Z</time>
      </trkpt>
      <trkpt lat="37.381451" lon="-122.120972">
        <ele>57.2</ele>
        <time>2015-07-19T20:05:23Z</time>
      </trkpt>
      <trkpt lat="37.381461" lon="-122.12101">
        <ele>57.2</ele>
        <time>2015-07-19T20:05:24Z</time>
      </trkpt>
      <trkpt lat="37.381475" lon="-122.12105">
        <ele>57.1</ele>
        <time>2015-07-19T20:05:25Z</time>
      </trkpt>
      <trkpt lat="37.381485" lon="-122.121094">
        <ele>57.1</ele>
        <time>2015-07-19T20:05:26Z</time>
      </trkpt>
      <trkpt lat="37.381503" lon="-122.121132">
        <ele>57</ele>
        <time>2015-07-19T20:05:27Z</time>
      </trkpt>
      <trkpt lat="37.381523" lon="-122.121169">
        <ele>57</ele>
        <time>2015-07-19T20:05:28Z</time>
      </trkpt>
      <trkpt lat="37.381547" lon="-122.121202">
        <ele>57</ele>
        <time>2015-07-19T20:05:29Z</time>
      </trkpt>
      <trkpt lat="37.381565" lon="-122.121232">
        <ele>57</ele>
        <time>2015-07-19T20:05:30Z</time>
      </trkpt>
      <trkpt lat="37.381588" lon="-122.12126">
        <ele>57.1</ele>
        <time>2015-07-19T20:05:31Z</time>
      </trkpt>
      <trkpt lat="37.381608" lon="-122.121284">
        <ele>57</ele>
        <time>2015-07-19T20:05:32Z</time>
      </trkpt>
      <trkpt lat="37.381628" lon="-122.121308">
        <ele>56.9</ele>
        <time>2015-07-19T20:05:33Z</time>
      </trkpt>
      <trkpt lat="37.381654" lon="-122.121338">
        <ele>57</ele>
        <time>2015-07-19T20:05:34Z</time>
      </trkpt>
      <trkpt lat="37.381688" lon="-122.121366">
        <ele>57</ele>
        <time>2015-07-19T20:05:35Z</time>
      </trkpt>
      <trkpt lat="37.381724" lon="-122.121395">
        <ele>56.9</ele>
        <time>2015-07-19T20:05:36Z</time>
      </trkpt>
      <trkpt lat="37.381759" lon="-122.12142">
        <ele>56.8</ele>
        <time>2015-07-19T20:05:37Z</time>
      </trkpt>
      <trkpt lat="37.381796" lon="-122.121443">
        <ele>56.8</ele>
        <time>2015-07-19T20:05:38Z</time>
      </trkpt>
      <trkpt lat="37.38183" lon="-122.121467">
        <ele>56.8</ele>
        <time>2015-07-19T20:05:39Z</time>
      </trkpt>
      <trkpt lat="37.381868" lon="-122.121488">
        <ele>56.7</ele>
        <time>2015-07-19T20:05:40Z</time>
      </trkpt>
      <trkpt lat="37.381898" lon="-122.121519">
        <ele>56.7</ele>
        <time>2015-07-19T20:05:41Z</time>
      </trkpt>
      <trkpt lat="37.381925" lon="-122.121552">
        <ele>56.8</ele>
        <time>2015-07-19T20:05:42Z</time>
      </trkpt>
      <trkpt lat="37.381958" lon="-122.121576">
        <ele>56.7</ele>
        <time>2015-07-19T20:05:43Z</time>
      </trkpt>
      <trkpt lat="37.381998" lon="-122.1216">
        <ele>56.6</ele>
        <time>2015-07-19T20:05:44Z</time>
      </trkpt>
      <trkpt lat="37.382038" lon="-122.121623">
        <ele>56.4</ele>
        <time>2015-07-19T20:05:45Z</time>
      </trkpt>
      <trkpt lat="37.38208" lon="-122.121652">
        <ele>56.4</ele>
        <time>2015-07-19T20:05:46Z</time>
      </trkpt>
      <trkpt lat="37.382117" lon="-122.121669">
        <ele>56.4</ele>
        <time>2015-07-19T20:05:47Z</time>
      </trkpt>
      <trkpt lat="37.382159" lon="-122.121679">
        <ele>56.1</ele>
        <time>2015-07-19T20:05:49Z</time>
      </trkpt>
      <trkpt lat="37.382186" lon="-122.121695">
        <ele>56</ele>
        <time>2015-07-19T20:05:50Z</time>
      </trkpt>
      <trkpt lat="37.382228" lon="-122.121735">
        <ele>56.1</ele>
        <time>2015-07-19T20:05:52Z</time>
      </trkpt>
      <trkpt lat="37.382252" lon="-122.121774">
        <ele>56.2</ele>
        <time>2015-07-19T20:05:53Z</time>
      </trkpt>
      <trkpt lat="37.382283" lon="-122.1218">
        <ele>56</ele>
        <time>2015-07-19T20:05:54Z</time>
      </trkpt>
      <trkpt lat="37.38231" lon="-122.121823">
        <ele>56.1</ele>
        <time>2015-07-19T20:05:55Z</time>
      </trkpt>
      <trkpt lat="37.382337" lon="-122.121843">
        <ele>56</ele>
        <time>2015-07-19T20:05:56Z</time>
      </trkpt>
      <trkpt lat="37.382366" lon="-122.121858">
        <ele>55.9</ele>
        <time>2015-07-19T20:05:59Z</time>
      </trkpt>
      <trkpt lat="37.382338" lon="-122.121883">
        <ele>56.4</ele>
        <time>2015-07-19T20:06:03Z</time>
      </trkpt>
      <trkpt lat="37.382345" lon="-122.121927">
        <ele>56.6</ele>
        <time>2015-07-19T20:06:09Z</time>
      </trkpt>
      <trkpt lat="37.38238" lon="-122.121961">
        <ele>56.7</ele>
        <time>2015-07-19T20:06:11Z</time>
      </trkpt>
      <trkpt lat="37.382423" lon="-122.121994">
        <ele>56.5</ele>
        <time>2015-07-19T20:06:13Z</time>
      </trkpt>
      <trkpt lat="37.382471" lon="-122.122026">
        <ele>56.5</ele>
        <time>2015-07-19T20:06:15Z</time>
      </trkpt>
      <trkpt lat="37.3825" lon="-122.122044">
        <ele>56.5</ele>
        <time>2015-07-19T20:06:16Z</time>
      </trkpt>
      <trkpt lat="37.382534" lon="-122.122059">
        <ele>56.4</ele>
        <time>2015-07-19T20:06:17Z</time>
      </trkpt>
      <trkpt lat="37.382567" lon="-122.122074">
        <ele>56.3</ele>
        <time>2015-07-19T20:06:18Z</time>
      </trkpt>
      <trkpt lat="37.3826" lon="-122.12209">
        <ele>56.2</ele>
        <time>2015-07-19T20:06:19Z</time>
      </trkpt>
      <trkpt lat="37.382631" lon="-122.122111">
        <ele>56.2</ele>
        <time>2015-07-19T20:06:20Z</time>
      </trkpt>
      <trkpt lat="37.382665" lon="-122.122137">
        <ele>56.2</ele>
        <time>2015-07-19T20:06:21Z</time>
      </trkpt>
      <trkpt lat="37.382694" lon="-122.122167">
        <ele>56.3</ele>
        <time>2015-07-19T20:06:22Z</time>
      </trkpt>
      <trkpt lat="37.382721" lon="-122.122196">
        <ele>56.3</ele>
        <time>2015-07-19T20:06:23Z</time>
      </trkpt>
      <trkpt lat="37.382751" lon="-122.12222">
        <ele>56.3</ele>
        <time>2015-07-19T20:06:24Z</time>
      </trkpt>
      <trkpt lat="37.382776" lon="-122.122243">
        <ele>56.2</ele>
        <time>2015-07-19T20:06:25Z</time>
      </trkpt>
      <trkpt lat="37.382801" lon="-122.122269">
        <ele>56.2</ele>
        <time>2015-07-19T20:06:26Z</time>
      </trkpt>
      <trkpt lat="37.382834" lon="-122.122316">
        <ele>56.3</ele>
        <time>2015-07-19T20:06:28Z</time>
      </trkpt>
      <trkpt lat="37.382837" lon="-122.12235">
        <ele>56.3</ele>
        <time>2015-07-19T20:06:31Z</time>
      </trkpt>
      <trkpt lat="37.382858" lon="-122.122312">
        <ele>56.2</ele>
        <time>2015-07-19T20:06:35Z</time>
      </trkpt>
      <trkpt lat="37.382859" lon="-122.122278">
        <ele>56</ele>
        <time>2015-07-19T20:06:44Z</time>
      </trkpt>
      <trkpt lat="37.382836" lon="-122.122302">
        <ele>56.2</ele>
        <time>2015-07-19T20:06:53Z</time>
      </trkpt>
      <trkpt lat="37.382857" lon="-122.12234">
        <ele>56.2</ele>
        <time>2015-07-19T20:06:56Z</time>
      </trkpt>
      <trkpt lat="37.382879" lon="-122.12237">
        <ele>56.2</ele>
        <time>2015-07-19T20:06:58Z</time>
      </trkpt>
      <trkpt lat="37.382909" lon="-122.122392">
        <ele>56.2</ele>
        <time>2015-07-19T20:07:01Z</time>
      </trkpt>
      <trkpt lat="37.382926" lon="-122.122426">
        <ele>56.3</ele>
        <time>2015-07-19T20:07:03Z</time>
      </trkpt>
      <trkpt lat="37.382928" lon="-122.122476">
        <ele>56.4</ele>
        <time>2015-07-19T20:07:05Z</time>
      </trkpt>
      <trkpt lat="37.382963" lon="-122.122499">
        <ele>56.3</ele>
        <time>2015-07-19T20:07:07Z</time>
      </trkpt>
      <trkpt lat="37.383029" lon="-122.122523">
        <ele>56.2</ele>
        <time>2015-07-19T20:07:09Z</time>
      </trkpt>
      <trkpt lat="37.38305" lon="-122.122545">
        <ele>56.3</ele>
        <time>2015-07-19T20:07:10Z</time>
      </trkpt>
      <trkpt lat="37.383073" lon="-122.122574">
        <ele>56.3</ele>
        <time>2015-07-19T20:07:11Z</time>
      </trkpt>
      <trkpt lat="37.383101" lon="-122.122594">
        <ele>56.2</ele>
        <time>2015-07-19T20:07:12Z</time>
      </trkpt>
      <trkpt lat="37.383145" lon="-122.122622">
        <ele>56.1</ele>
        <time>2015-07-19T20:07:13Z</time>
      </trkpt>
      <trkpt lat="37.383177" lon="-122.122646">
        <ele>56.1</ele>
        <time>2015-07-19T20:07:14Z</time>
      </trkpt>
      <trkpt lat="37.383212" lon="-122.122677">
        <ele>56.1</ele>
        <time>2015-07-19T20:07:15Z</time>
      </trkpt>
      <trkpt lat="37.383234" lon="-122.1227">
        <ele>56</ele>
        <time>2015-07-19T20:07:16Z</time>
      </trkpt>
      <trkpt lat="37.383262" lon="-122.122725">
        <ele>56</ele>
        <time>2015-07-19T20:07:17Z</time>
      </trkpt>
      <trkpt lat="37.383294" lon="-122.122753">
        <ele>55.9</ele>
        <time>2015-07-19T20:07:18Z</time>
      </trkpt>
      <trkpt lat="37.383355" lon="-122.12278">
        <ele>55.8</ele>
        <time>2015-07-19T20:07:19Z</time>
      </trkpt>
      <trkpt lat="37.383427" lon="-122.122817">
        <ele>55.6</ele>
        <time>2015-07-19T20:07:20Z</time>
      </trkpt>
      <trkpt lat="37.383476" lon="-122.122843">
        <ele>55.5</ele>
        <time>2015-07-19T20:07:21Z</time>
      </trkpt>
      <trkpt lat="37.38351" lon="-122.122859">
        <ele>55.5</ele>
        <time>2015-07-19T20:07:23Z</time>
      </trkpt>
      <trkpt lat="37.383546" lon="-122.12289">
        <ele>55.4</ele>
        <time>2015-07-19T20:07:25Z</time>
      </trkpt>
      <trkpt lat="37.383574" lon="-122.122897">
        <ele>55.4</ele>
        <time>2015-07-19T20:07:26Z</time>
      </trkpt>
      <trkpt lat="37.383595" lon="-122.122925">
        <ele>55.3</ele>
        <time>2015-07-19T20:07:27Z</time>
      </trkpt>
      <trkpt lat="37.383626" lon="-122.122938">
        <ele>55.2</ele>
        <time>2015-07-19T20:07:28Z</time>
      </trkpt>
      <trkpt lat="37.383656" lon="-122.12295">
        <ele>55.2</ele>
        <time>2015-07-19T20:07:29Z</time>
      </trkpt>
      <trkpt lat="37.383702" lon="-122.122967">
        <ele>55.2</ele>
        <time>2015-07-19T20:07:30Z</time>
      </trkpt>
      <trkpt lat="37.383738" lon="-122.123001">
        <ele>55</ele>
        <time>2015-07-19T20:07:31Z</time>
      </trkpt>
      <trkpt lat="37.383776" lon="-122.123015">
        <ele>55</ele>
        <time>2015-07-19T20:07:32Z</time>
      </trkpt>
      <trkpt lat="37.38381" lon="-122.12303">
        <ele>54.9</ele>
        <time>2015-07-19T20:07:33Z</time>
      </trkpt>
      <trkpt lat="37.383837" lon="-122.123067">
        <ele>54.8</ele>
        <time>2015-07-19T20:07:35Z</time>
      </trkpt>
      <trkpt lat="37.38386" lon="-122.123094">
        <ele>54.7</ele>
        <time>2015-07-19T20:07:36Z</time>
      </trkpt>
      <trkpt lat="37.383877" lon="-122.123122">
        <ele>54.5</ele>
        <time>2015-07-19T20:07:37Z</time>
      </trkpt>
      <trkpt lat="37.383902" lon="-122.123139">
        <ele>54.5</ele>
        <time>2015-07-19T20:07:38Z</time>
      </trkpt>
      <trkpt lat="37.383934" lon="-122.123166">
        <ele>54.4</ele>
        <time>2015-07-19T20:07:39Z</time>
      </trkpt>
      <trkpt lat="37.383979" lon="-122.123209">
        <ele>54.4</ele>
        <time>2015-07-19T20:07:40Z</time>
      </trkpt>
      <trkpt lat="37.384005" lon="-122.123245">
        <ele>54.3</ele>
        <time>2015-07-19T20:07:41Z</time>
      </trkpt>
      <trkpt lat="37.384029" lon="-122.123296">
        <ele>54.2</ele>
        <time>2015-07-19T20:07:42Z</time>
      </trkpt>
      <trkpt lat="37.384059" lon="-122.123321">
        <ele>54</ele>
        <time>2015-07-19T20:07:43Z</time>
      </trkpt>
      <trkpt lat="37.384084" lon="-122.123338">
        <ele>54</ele>
        <time>2015-07-19T20:07:44Z</time>
      </trkpt>
      <trkpt lat="37.384127" lon="-122.123373">
        <ele>53.9</ele>
        <time>2015-07-19T20:07:46Z</time>
      </trkpt>
      <trkpt lat="37.384167" lon="-122.123402">
        <ele>53.8</ele>
        <time>2015-07-19T20:07:47Z</time>
      </trkpt>
      <trkpt lat="37.384198" lon="-122.123427">
        <ele>53.7</ele>
        <time>2015-07-19T20:07:48Z</time>
      </trkpt>
      <trkpt lat="37.384244" lon="-122.123456">
        <ele>53.5</ele>
        <time>2015-07-19T20:07:49Z</time>
      </trkpt>
      <trkpt lat="37.384281" lon="-122.123475">
        <ele>53.5</ele>
        <time>2015-07-19T20:07:50Z</time>
      </trkpt>
      <trkpt lat="37.384331" lon="-122.123509">
        <ele>53.3</ele>
        <time>2015-07-19T20:07:51Z</time>
      </trkpt>
      <trkpt lat="37.384354" lon="-122.123538">
        <ele>53.3</ele>
        <time>2015-07-19T20:07:52Z</time>
      </trkpt>
      <trkpt lat="37.384377" lon="-122.123564">
        <ele>53.2</ele>
        <time>2015-07-19T20:07:53Z</time>
      </trkpt>
      <trkpt lat="37.384406" lon="-122.123592">
        <ele>53.1</ele>
        <time>2015-07-19T20:07:54Z</time>
      </trkpt>
      <trkpt lat="37.384435" lon="-122.123631">
        <ele>53.1</ele>
        <time>2015-07-19T20:07:55Z</time>
      </trkpt>
      <trkpt lat="37.384468" lon="-122.123663">
        <ele>53</ele>
        <time>2015-07-19T20:07:56Z</time>
      </trkpt>
      <trkpt lat="37.384504" lon="-122.1237">
        <ele>52.8</ele>
        <time>2015-07-19T20:07:57Z</time>
      </trkpt>
      <trkpt lat="37.384569" lon="-122.123762">
        <ele>52.7</ele>
        <time>2015-07-19T20:07:58Z</time>
      </trkpt>
      <trkpt lat="37.384636" lon="-122.123824">
        <ele>52.6</ele>
        <time>2015-07-19T20:08:00Z</time>
      </trkpt>
      <trkpt lat="37.384667" lon="-122.12384">
        <ele>52.5</ele>
        <time>2015-07-19T20:08:01Z</time>
      </trkpt>
      <trkpt lat="37.384683" lon="-122.123871">
        <ele>52.4</ele>
        <time>2015-07-19T20:08:02Z</time>
      </trkpt>
      <trkpt lat="37.384736" lon="-122.123898">
        <ele>52.3</ele>
        <time>2015-07-19T20:08:03Z</time>
      </trkpt>
      <trkpt lat="37.384794" lon="-122.123954">
        <ele>52.1</ele>
        <time>2015-07-19T20:08:04Z</time>
      </trkpt>
      <trkpt lat="37.38483" lon="-122.124006">
        <ele>52.1</ele>
        <time>2015-07-19T20:08:05Z</time>
      </trkpt>
      <trkpt lat="37.384882" lon="-122.12407">
        <ele>52</ele>
        <time>2015-07-19T20:08:06Z</time>
      </trkpt>
      <trkpt lat="37.384959" lon="-122.124047">
        <ele>51.7</ele>
        <time>2015-07-19T20:08:07Z</time>
      </trkpt>
      <trkpt lat="37.385045" lon="-122.124117">
        <ele>51.5</ele>
        <time>2015-07-19T20:08:08Z</time>
      </trkpt>
      <trkpt lat="37.385117" lon="-122.124213">
        <ele>51.5</ele>
        <time>2015-07-19T20:08:09Z</time>
      </trkpt>
      <trkpt lat="37.385188" lon="-122.124254">
        <ele>51.3</ele>
        <time>2015-07-19T20:08:10Z</time>
      </trkpt>
      <trkpt lat="37.385232" lon="-122.124296">
        <ele>51.3</ele>
        <time>2015-07-19T20:08:11Z</time>
      </trkpt>
      <trkpt lat="37.385294" lon="-122.124332">
        <ele>51.1</ele>
        <time>2015-07-19T20:08:12Z</time>
      </trkpt>
      <trkpt lat="37.385352" lon="-122.124375">
        <ele>51</ele>
        <time>2015-07-19T20:08:13Z</time>
      </trkpt>
      <trkpt lat="37.385405" lon="-122.124422">
        <ele>51</ele>
        <time>2015-07-19T20:08:14Z</time>
      </trkpt>
      <trkpt lat="37.385488" lon="-122.124471">
        <ele>51</ele>
        <time>2015-07-19T20:08:15Z</time>
      </trkpt>
      <trkpt lat="37.385558" lon="-122.124518">
        <ele>50.9</ele>
        <time>2015-07-19T20:08:16Z</time>
      </trkpt>
      <trkpt lat="37.385594" lon="-122.12455">
        <ele>50.8</ele>
        <time>2015-07-19T20:08:17Z</time>
      </trkpt>
      <trkpt lat="37.385647" lon="-122.124589">
        <ele>50.8</ele>
        <time>2015-07-19T20:08:18Z</time>
      </trkpt>
      <trkpt lat="37.385673" lon="-122.124608">
        <ele>50.8</ele>
        <time>2015-07-19T20:08:19Z</time>
      </trkpt>
      <trkpt lat="37.385721" lon="-122.124645">
        <ele>50.7</ele>
        <time>2015-07-19T20:08:20Z</time>
      </trkpt>
      <trkpt lat="37.385778" lon="-122.124698">
        <ele>50.8</ele>
        <time>2015-07-19T20:08:21Z</time>
      </trkpt>
      <trkpt lat="37.385806" lon="-122.124721">
        <ele>50.7</ele>
        <time>2015-07-19T20:08:22Z</time>
      </trkpt>
      <trkpt lat="37.385868" lon="-122.124762">
        <ele>50.7</ele>
        <time>2015-07-19T20:08:23Z</time>
      </trkpt>
      <trkpt lat="37.385908" lon="-122.124798">
        <ele>50.6</ele>
        <time>2015-07-19T20:08:24Z</time>
      </trkpt>
      <trkpt lat="37.385955" lon="-122.124838">
        <ele>50.7</ele>
        <time>2015-07-19T20:08:25Z</time>
      </trkpt>
      <trkpt lat="37.386018" lon="-122.124884">
        <ele>50.7</ele>
        <time>2015-07-19T20:08:26Z</time>
      </trkpt>
      <trkpt lat="37.38606" lon="-122.124914">
        <ele>50.5</ele>
        <time>2015-07-19T20:08:27Z</time>
      </trkpt>
      <trkpt lat="37.386106" lon="-122.124951">
        <ele>50.6</ele>
        <time>2015-07-19T20:08:28Z</time>
      </trkpt>
      <trkpt lat="37.386136" lon="-122.124971">
        <ele>50.5</ele>
        <time>2015-07-19T20:08:29Z</time>
      </trkpt>
      <trkpt lat="37.386183" lon="-122.125013">
        <ele>50.5</ele>
        <time>2015-07-19T20:08:30Z</time>
      </trkpt>
      <trkpt lat="37.386217" lon="-122.125041">
        <ele>50.5</ele>
        <time>2015-07-19T20:08:31Z</time>
      </trkpt>
      <trkpt lat="37.386262" lon="-122.125079">
        <ele>50.5</ele>
        <time>2015-07-19T20:08:32Z</time>
      </trkpt>
      <trkpt lat="37.386293" lon="-122.125103">
        <ele>50.5</ele>
        <time>2015-07-19T20:08:33Z</time>
      </trkpt>
      <trkpt lat="37.386352" lon="-122.125154">
        <ele>50.5</ele>
        <time>2015-07-19T20:08:34Z</time>
      </trkpt>
      <trkpt lat="37.386401" lon="-122.125198">
        <ele>50.5</ele>
        <time>2015-07-19T20:08:35Z</time>
      </trkpt>
      <trkpt lat="37.386442" lon="-122.125226">
        <ele>50.4</ele>
        <time>2015-07-19T20:08:36Z</time>
      </trkpt>
      <trkpt lat="37.386525" lon="-122.125292">
        <ele>50.4</ele>
        <time>2015-07-19T20:08:39Z</time>
      </trkpt>
      <trkpt lat="37.386583" lon="-122.125341">
        <ele>50.3</ele>
        <time>2015-07-19T20:08:40Z</time>
      </trkpt>
      <trkpt lat="37.386642" lon="-122.125393">
        <ele>50.3</ele>
        <time>2015-07-19T20:08:41Z</time>
      </trkpt>
      <trkpt lat="37.386677" lon="-122.125412">
        <ele>50.1</ele>
        <time>2015-07-19T20:08:42Z</time>
      </trkpt>
      <trkpt lat="37.386734" lon="-122.125461">
        <ele>50.1</ele>
        <time>2015-07-19T20:08:43Z</time>
      </trkpt>
      <trkpt lat="37.386789" lon="-122.125512">
        <ele>50</ele>
        <time>2015-07-19T20:08:44Z</time>
      </trkpt>
      <trkpt lat="37.386829" lon="-122.125531">
        <ele>49.9</ele>
        <time>2015-07-19T20:08:45Z</time>
      </trkpt>
      <trkpt lat="37.386885" lon="-122.125573">
        <ele>49.8</ele>
        <time>2015-07-19T20:08:46Z</time>
      </trkpt>
      <trkpt lat="37.386949" lon="-122.125631">
        <ele>49.6</ele>
        <time>2015-07-19T20:08:47Z</time>
      </trkpt>
      <trkpt lat="37.38698" lon="-122.125649">
        <ele>49.5</ele>
        <time>2015-07-19T20:08:48Z</time>
      </trkpt>
      <trkpt lat="37.387031" lon="-122.125687">
        <ele>49.3</ele>
        <time>2015-07-19T20:08:49Z</time>
      </trkpt>
      <trkpt lat="37.387083" lon="-122.125731">
        <ele>49.1</ele>
        <time>2015-07-19T20:08:50Z</time>
      </trkpt>
      <trkpt lat="37.387181" lon="-122.125795">
        <ele>48.8</ele>
        <time>2015-07-19T20:08:51Z</time>
      </trkpt>
      <trkpt lat="37.387247" lon="-122.125852">
        <ele>48.6</ele>
        <time>2015-07-19T20:08:52Z</time>
      </trkpt>
      <trkpt lat="37.387309" lon="-122.125903">
        <ele>48.3</ele>
        <time>2015-07-19T20:08:53Z</time>
      </trkpt>
      <trkpt lat="37.387346" lon="-122.125931">
        <ele>48.2</ele>
        <time>2015-07-19T20:08:54Z</time>
      </trkpt>
      <trkpt lat="37.387408" lon="-122.125985">
        <ele>48.1</ele>
        <time>2015-07-19T20:08:55Z</time>
      </trkpt>
      <trkpt lat="37.387458" lon="-122.12603">
        <ele>47.8</ele>
        <time>2015-07-19T20:08:56Z</time>
      </trkpt>
      <trkpt lat="37.387528" lon="-122.126071">
        <ele>47.6</ele>
        <time>2015-07-19T20:08:57Z</time>
      </trkpt>
      <trkpt lat="37.387581" lon="-122.126111">
        <ele>47.3</ele>
        <time>2015-07-19T20:08:58Z</time>
      </trkpt>
      <trkpt lat="37.387642" lon="-122.126167">
        <ele>47.1</ele>
        <time>2015-07-19T20:08:59Z</time>
      </trkpt>
      <trkpt lat="37.3877" lon="-122.126205">
        <ele>46.9</ele>
        <time>2015-07-19T20:09:00Z</time>
      </trkpt>
      <trkpt lat="37.38775" lon="-122.12625">
        <ele>46.8</ele>
        <time>2015-07-19T20:09:01Z</time>
      </trkpt>
      <trkpt lat="37.387815" lon="-122.126319">
        <ele>46.7</ele>
        <time>2015-07-19T20:09:02Z</time>
      </trkpt>
      <trkpt lat="37.38786" lon="-122.126337">
        <ele>46.5</ele>
        <time>2015-07-19T20:09:03Z</time>
      </trkpt>
      <trkpt lat="37.387977" lon="-122.126427">
        <ele>46.2</ele>
        <time>2015-07-19T20:09:04Z</time>
      </trkpt>
      <trkpt lat="37.388075" lon="-122.126498">
        <ele>46</ele>
        <time>2015-07-19T20:09:05Z</time>
      </trkpt>
      <trkpt lat="37.38815" lon="-122.126553">
        <ele>45.9</ele>
        <time>2015-07-19T20:09:06Z</time>
      </trkpt>
      <trkpt lat="37.388198" lon="-122.126589">
        <ele>45.8</ele>
        <time>2015-07-19T20:09:07Z</time>
      </trkpt>
      <trkpt lat="37.388248" lon="-122.126622">
        <ele>45.7</ele>
        <time>2015-07-19T20:09:08Z</time>
      </trkpt>
      <trkpt lat="37.388317" lon="-122.126653">
        <ele>45.7</ele>
        <time>2015-07-19T20:09:09Z</time>
      </trkpt>
      <trkpt lat="37.388376" lon="-122.126696">
        <ele>45.6</ele>
        <time>2015-07-19T20:09:10Z</time>
      </trkpt>
      <trkpt lat="37.388442" lon="-122.126746">
        <ele>45.6</ele>
        <time>2015-07-19T20:09:11Z</time>
      </trkpt>
      <trkpt lat="37.388533" lon="-122.126791">
        <ele>45.6</ele>
        <time>2015-07-19T20:09:12Z</time>
      </trkpt>
      <trkpt lat="37.38858" lon="-122.126826">
        <ele>45.5</ele>
        <time>2015-07-19T20:09:13Z</time>
      </trkpt>
      <trkpt lat="37.388632" lon="-122.126868">
        <ele>45.5</ele>
        <time>2015-07-19T20:09:14Z</time>
      </trkpt>
      <trkpt lat="37.388715" lon="-122.126926">
        <ele>45.4</ele>
        <time>2015-07-19T20:09:15Z</time>
      </trkpt>
      <trkpt lat="37.388789" lon="-122.126978">
        <ele>45.5</ele>
        <time>2015-07-19T20:09:16Z</time>
      </trkpt>
      <trkpt lat="37.388871" lon="-122.127035">
        <ele>45.6</ele>
        <time>2015-07-19T20:09:17Z</time>
      </trkpt>
      <trkpt lat="37.38893" lon="-122.127075">
        <ele>45.4</ele>
        <time>2015-07-19T20:09:18Z</time>
      </trkpt>
      <trkpt lat="37.389004" lon="-122.127124">
        <ele>45.4</ele>
        <time>2015-07-19T20:09:19Z</time>
      </trkpt>
      <trkpt lat="37.389035" lon="-122.127122">
        <ele>45.3</ele>
        <time>2015-07-19T20:09:20Z</time>
      </trkpt>
      <trkpt lat="37.389094" lon="-122.127171">
        <ele>45.3</ele>
        <time>2015-07-19T20:09:21Z</time>
      </trkpt>
      <trkpt lat="37.389154" lon="-122.127201">
        <ele>45.3</ele>
        <time>2015-07-19T20:09:22Z</time>
      </trkpt>
      <trkpt lat="37.38924" lon="-122.127254">
        <ele>45.3</ele>
        <time>2015-07-19T20:09:23Z</time>
      </trkpt>
      <trkpt lat="37.389322" lon="-122.127307">
        <ele>45.3</ele>
        <time>2015-07-19T20:09:24Z</time>
      </trkpt>
      <trkpt lat="37.389369" lon="-122.12734">
        <ele>45.3</ele>
        <time>2015-07-19T20:09:25Z</time>
      </trkpt>
      <trkpt lat="37.389457" lon="-122.127392">
        <ele>45.2</ele>
        <time>2015-07-19T20:09:26Z</time>
      </trkpt>
      <trkpt lat="37.389506" lon="-122.127423">
        <ele>45.3</ele>
        <time>2015-07-19T20:09:27Z</time>
      </trkpt>
      <trkpt lat="37.389584" lon="-122.127472">
        <ele>45.2</ele>
        <time>2015-07-19T20:09:28Z</time>
      </trkpt>
      <trkpt lat="37.389641" lon="-122.127508">
        <ele>45.2</ele>
        <time>2015-07-19T20:09:29Z</time>
      </trkpt>
      <trkpt lat="37.389691" lon="-122.127548">
        <ele>45.2</ele>
        <time>2015-07-19T20:09:30Z</time>
      </trkpt>
      <trkpt lat="37.389737" lon="-122.127582">
        <ele>45.3</ele>
        <time>2015-07-19T20:09:31Z</time>
      </trkpt>
      <trkpt lat="37.389789" lon="-122.127624">
        <ele>45.2</ele>
        <time>2015-07-19T20:09:32Z</time>
      </trkpt>
      <trkpt lat="37.389827" lon="-122.127648">
        <ele>45.2</ele>
        <time>2015-07-19T20:09:33Z</time>
      </trkpt>
      <trkpt lat="37.38988" lon="-122.127694">
        <ele>45.2</ele>
        <time>2015-07-19T20:09:34Z</time>
      </trkpt>
      <trkpt lat="37.389953" lon="-122.127732">
        <ele>45.2</ele>
        <time>2015-07-19T20:09:35Z</time>
      </trkpt>
      <trkpt lat="37.390012" lon="-122.127771">
        <ele>45.2</ele>
        <time>2015-07-19T20:09:36Z</time>
      </trkpt>
      <trkpt lat="37.390094" lon="-122.127803">
        <ele>45.1</ele>
        <time>2015-07-19T20:09:37Z</time>
      </trkpt>
      <trkpt lat="37.390152" lon="-122.127849">
        <ele>45.1</ele>
        <time>2015-07-19T20:09:38Z</time>
      </trkpt>
      <trkpt lat="37.39023" lon="-122.127894">
        <ele>45</ele>
        <time>2015-07-19T20:09:39Z</time>
      </trkpt>
      <trkpt lat="37.39029" lon="-122.127923">
        <ele>45</ele>
        <time>2015-07-19T20:09:40Z</time>
      </trkpt>
      <trkpt lat="37.390342" lon="-122.127982">
        <ele>45</ele>
        <time>2015-07-19T20:09:41Z</time>
      </trkpt>
      <trkpt lat="37.390389" lon="-122.128027">
        <ele>45</ele>
        <time>2015-07-19T20:09:42Z</time>
      </trkpt>
      <trkpt lat="37.390455" lon="-122.128055">
        <ele>44.9</ele>
        <time>2015-07-19T20:09:43Z</time>
      </trkpt>
      <trkpt lat="37.390495" lon="-122.128106">
        <ele>44.9</ele>
        <time>2015-07-19T20:09:44Z</time>
      </trkpt>
      <trkpt lat="37.390547" lon="-122.128145">
        <ele>44.8</ele>
        <time>2015-07-19T20:09:45Z</time>
      </trkpt>
      <trkpt lat="37.390622" lon="-122.128205">
        <ele>44.7</ele>
        <time>2015-07-19T20:09:46Z</time>
      </trkpt>
      <trkpt lat="37.390716" lon="-122.128241">
        <ele>44.5</ele>
        <time>2015-07-19T20:09:47Z</time>
      </trkpt>
      <trkpt lat="37.390767" lon="-122.128273">
        <ele>44.3</ele>
        <time>2015-07-19T20:09:48Z</time>
      </trkpt>
      <trkpt lat="37.390835" lon="-122.128273">
        <ele>44.2</ele>
        <time>2015-07-19T20:09:49Z</time>
      </trkpt>
      <trkpt lat="37.390892" lon="-122.128331">
        <ele>44</ele>
        <time>2015-07-19T20:09:50Z</time>
      </trkpt>
      <trkpt lat="37.390986" lon="-122.128367">
        <ele>43.7</ele>
        <time>2015-07-19T20:09:51Z</time>
      </trkpt>
      <trkpt lat="37.391049" lon="-122.1284">
        <ele>43.5</ele>
        <time>2015-07-19T20:09:52Z</time>
      </trkpt>
      <trkpt lat="37.39114" lon="-122.12846">
        <ele>43.2</ele>
        <time>2015-07-19T20:09:53Z</time>
      </trkpt>
      <trkpt lat="37.39124" lon="-122.128525">
        <ele>42.8</ele>
        <time>2015-07-19T20:09:54Z</time>
      </trkpt>
      <trkpt lat="37.391308" lon="-122.12857">
        <ele>42.6</ele>
        <time>2015-07-19T20:09:55Z</time>
      </trkpt>
      <trkpt lat="37.391375" lon="-122.128613">
        <ele>42.4</ele>
        <time>2015-07-19T20:09:56Z</time>
      </trkpt>
      <trkpt lat="37.391439" lon="-122.128654">
        <ele>42.1</ele>
        <time>2015-07-19T20:09:57Z</time>
      </trkpt>
      <trkpt lat="37.391517" lon="-122.128705">
        <ele>42</ele>
        <time>2015-07-19T20:09:58Z</time>
      </trkpt>
      <trkpt lat="37.391566" lon="-122.128737">
        <ele>42</ele>
        <time>2015-07-19T20:09:59Z</time>
      </trkpt>
      <trkpt lat="37.391634" lon="-122.128781">
        <ele>41.8</ele>
        <time>2015-07-19T20:10:00Z</time>
      </trkpt>
      <trkpt lat="37.391711" lon="-122.128831">
        <ele>41.7</ele>
        <time>2015-07-19T20:10:01Z</time>
      </trkpt>
      <trkpt lat="37.391784" lon="-122.128878">
        <ele>41.5</ele>
        <time>2015-07-19T20:10:02Z</time>
      </trkpt>
      <trkpt lat="37.391885" lon="-122.128944">
        <ele>41.4</ele>
        <time>2015-07-19T20:10:03Z</time>
      </trkpt>
      <trkpt lat="37.391935" lon="-122.128976">
        <ele>41.3</ele>
        <time>2015-07-19T20:10:04Z</time>
      </trkpt>
      <trkpt lat="37.391996" lon="-122.129016">
        <ele>41.2</ele>
        <time>2015-07-19T20:10:05Z</time>
      </trkpt>
      <trkpt lat="37.39205" lon="-122.129051">
        <ele>41.1</ele>
        <time>2015-07-19T20:10:06Z</time>
      </trkpt>
      <trkpt lat="37.392115" lon="-122.129094">
        <ele>41.2</ele>
        <time>2015-07-19T20:10:07Z</time>
      </trkpt>
      <trkpt lat="37.392195" lon="-122.129146">
        <ele>41</ele>
        <time>2015-07-19T20:10:08Z</time>
      </trkpt>
      <trkpt lat="37.392271" lon="-122.129196">
        <ele>41</ele>
        <time>2015-07-19T20:10:09Z</time>
      </trkpt>
      <trkpt lat="37.39233" lon="-122.129235">
        <ele>41</ele>
        <time>2015-07-19T20:10:10Z</time>
      </trkpt>
      <trkpt lat="37.392383" lon="-122.12927">
        <ele>41.1</ele>
        <time>2015-07-19T20:10:11Z</time>
      </trkpt>
      <trkpt lat="37.392411" lon="-122.129322">
        <ele>41.2</ele>
        <time>2015-07-19T20:10:13Z</time>
      </trkpt>
      <trkpt lat="37.392469" lon="-122.129385">
        <ele>41.3</ele>
        <time>2015-07-19T20:10:14Z</time>
      </trkpt>
      <trkpt lat="37.392541" lon="-122.129391">
        <ele>41.1</ele>
        <time>2015-07-19T20:10:15Z</time>
      </trkpt>
      <trkpt lat="37.392606" lon="-122.129434">
        <ele>41.1</ele>
        <time>2015-07-19T20:10:16Z</time>
      </trkpt>
      <trkpt lat="37.392666" lon="-122.129474">
        <ele>41.1</ele>
        <time>2015-07-19T20:10:17Z</time>
      </trkpt>
      <trkpt lat="37.392747" lon="-122.129522">
        <ele>41.1</ele>
        <time>2015-07-19T20:10:18Z</time>
      </trkpt>
      <trkpt lat="37.392834" lon="-122.129565">
        <ele>41</ele>
        <time>2015-07-19T20:10:19Z</time>
      </trkpt>
      <trkpt lat="37.392898" lon="-122.129612">
        <ele>41</ele>
        <time>2015-07-19T20:10:20Z</time>
      </trkpt>
      <trkpt lat="37.392982" lon="-122.129693">
        <ele>41</ele>
        <time>2015-07-19T20:10:21Z</time>
      </trkpt>
      <trkpt lat="37.393027" lon="-122.129748">
        <ele>41.1</ele>
        <time>2015-07-19T20:10:22Z</time>
      </trkpt>
      <trkpt lat="37.393091" lon="-122.129792">
        <ele>41.1</ele>
        <time>2015-07-19T20:10:23Z</time>
      </trkpt>
      <trkpt lat="37.393159" lon="-122.129812">
        <ele>41</ele>
        <time>2015-07-19T20:10:24Z</time>
      </trkpt>
      <trkpt lat="37.393247" lon="-122.129852">
        <ele>41.1</ele>
        <time>2015-07-19T20:10:25Z</time>
      </trkpt>
      <trkpt lat="37.39331" lon="-122.129894">
        <ele>41</ele>
        <time>2015-07-19T20:10:26Z</time>
      </trkpt>
      <trkpt lat="37.393356" lon="-122.129929">
        <ele>41</ele>
        <time>2015-07-19T20:10:27Z</time>
      </trkpt>
      <trkpt lat="37.393414" lon="-122.129964">
        <ele>40.9</ele>
        <time>2015-07-19T20:10:28Z</time>
      </trkpt>
      <trkpt lat="37.393504" lon="-122.13001">
        <ele>41</ele>
        <time>2015-07-19T20:10:29Z</time>
      </trkpt>
      <trkpt lat="37.393543" lon="-122.130043">
        <ele>41</ele>
        <time>2015-07-19T20:10:30Z</time>
      </trkpt>
      <trkpt lat="37.393603" lon="-122.130078">
        <ele>40.9</ele>
        <time>2015-07-19T20:10:31Z</time>
      </trkpt>
      <trkpt lat="37.393651" lon="-122.130101">
        <ele>40.9</ele>
        <time>2015-07-19T20:10:32Z</time>
      </trkpt>
      <trkpt lat="37.393671" lon="-122.130139">
        <ele>40.9</ele>
        <time>2015-07-19T20:10:33Z</time>
      </trkpt>
      <trkpt lat="37.393735" lon="-122.130182">
        <ele>40.8</ele>
        <time>2015-07-19T20:10:34Z</time>
      </trkpt>
      <trkpt lat="37.393795" lon="-122.130237">
        <ele>40.9</ele>
        <time>2015-07-19T20:10:35Z</time>
      </trkpt>
      <trkpt lat="37.393871" lon="-122.13028">
        <ele>40.8</ele>
        <time>2015-07-19T20:10:36Z</time>
      </trkpt>
      <trkpt lat="37.39396" lon="-122.130313">
        <ele>40.6</ele>
        <time>2015-07-19T20:10:37Z</time>
      </trkpt>
      <trkpt lat="37.394019" lon="-122.130341">
        <ele>40.5</ele>
        <time>2015-07-19T20:10:38Z</time>
      </trkpt>
      <trkpt lat="37.394066" lon="-122.130389">
        <ele>40.4</ele>
        <time>2015-07-19T20:10:39Z</time>
      </trkpt>
      <trkpt lat="37.394128" lon="-122.13045">
        <ele>40.4</ele>
        <time>2015-07-19T20:10:40Z</time>
      </trkpt>
      <trkpt lat="37.394223" lon="-122.130487">
        <ele>40.3</ele>
        <time>2015-07-19T20:10:41Z</time>
      </trkpt>
      <trkpt lat="37.394279" lon="-122.130512">
        <ele>40.1</ele>
        <time>2015-07-19T20:10:42Z</time>
      </trkpt>
      <trkpt lat="37.394322" lon="-122.13054">
        <ele>40</ele>
        <time>2015-07-19T20:10:43Z</time>
      </trkpt>
      <trkpt lat="37.394367" lon="-122.13057">
        <ele>40</ele>
        <time>2015-07-19T20:10:44Z</time>
      </trkpt>
      <trkpt lat="37.394463" lon="-122.130633">
        <ele>39.8</ele>
        <time>2015-07-19T20:10:45Z</time>
      </trkpt>
      <trkpt lat="37.394496" lon="-122.13069">
        <ele>39.8</ele>
        <time>2015-07-19T20:10:47Z</time>
      </trkpt>
      <trkpt lat="37.394569" lon="-122.130734">
        <ele>39.7</ele>
        <time>2015-07-19T20:10:48Z</time>
      </trkpt>
      <trkpt lat="37.394648" lon="-122.130774">
        <ele>39.5</ele>
        <time>2015-07-19T20:10:49Z</time>
      </trkpt>
      <trkpt lat="37.394728" lon="-122.130808">
        <ele>39.4</ele>
        <time>2015-07-19T20:10:50Z</time>
      </trkpt>
      <trkpt lat="37.394772" lon="-122.130846">
        <ele>39.3</ele>
        <time>2015-07-19T20:10:51Z</time>
      </trkpt>
      <trkpt lat="37.394831" lon="-122.13088">
        <ele>39.1</ele>
        <time>2015-07-19T20:10:52Z</time>
      </trkpt>
      <trkpt lat="37.394891" lon="-122.130916">
        <ele>39.1</ele>
        <time>2015-07-19T20:10:53Z</time>
      </trkpt>
      <trkpt lat="37.394947" lon="-122.130958">
        <ele>39</ele>
        <time>2015-07-19T20:10:54Z</time>
      </trkpt>
      <trkpt lat="37.395031" lon="-122.131008">
        <ele>38.9</ele>
        <time>2015-07-19T20:10:55Z</time>
      </trkpt>
      <trkpt lat="37.395066" lon="-122.131031">
        <ele>38.9</ele>
        <time>2015-07-19T20:10:56Z</time>
      </trkpt>
      <trkpt lat="37.395115" lon="-122.131064">
        <ele>38.8</ele>
        <time>2015-07-19T20:10:57Z</time>
      </trkpt>
      <trkpt lat="37.395176" lon="-122.131105">
        <ele>38.7</ele>
        <time>2015-07-19T20:10:58Z</time>
      </trkpt>
      <trkpt lat="37.395225" lon="-122.131138">
        <ele>38.6</ele>
        <time>2015-07-19T20:10:59Z</time>
      </trkpt>
      <trkpt lat="37.39528" lon="-122.131174">
        <ele>38.5</ele>
        <time>2015-07-19T20:11:00Z</time>
      </trkpt>
      <trkpt lat="37.395336" lon="-122.131211">
        <ele>38.4</ele>
        <time>2015-07-19T20:11:01Z</time>
      </trkpt>
      <trkpt lat="37.395392" lon="-122.131249">
        <ele>38.4</ele>
        <time>2015-07-19T20:11:02Z</time>
      </trkpt>
      <trkpt lat="37.395475" lon="-122.131307">
        <ele>38.1</ele>
        <time>2015-07-19T20:11:03Z</time>
      </trkpt>
      <trkpt lat="37.395543" lon="-122.131354">
        <ele>38.1</ele>
        <time>2015-07-19T20:11:04Z</time>
      </trkpt>
      <trkpt lat="37.395608" lon="-122.1314">
        <ele>38.1</ele>
        <time>2015-07-19T20:11:05Z</time>
      </trkpt>
      <trkpt lat="37.395659" lon="-122.131436">
        <ele>37.9</ele>
        <time>2015-07-19T20:11:06Z</time>
      </trkpt>
      <trkpt lat="37.395687" lon="-122.131457">
        <ele>37.9</ele>
        <time>2015-07-19T20:11:07Z</time>
      </trkpt>
      <trkpt lat="37.395753" lon="-122.131504">
        <ele>37.7</ele>
        <time>2015-07-19T20:11:08Z</time>
      </trkpt>
      <trkpt lat="37.395806" lon="-122.131541">
        <ele>37.7</ele>
        <time>2015-07-19T20:11:09Z</time>
      </trkpt>
      <trkpt lat="37.395868" lon="-122.131586">
        <ele>37.5</ele>
        <time>2015-07-19T20:11:10Z</time>
      </trkpt>
      <trkpt lat="37.395925" lon="-122.131627">
        <ele>37.4</ele>
        <time>2015-07-19T20:11:11Z</time>
      </trkpt>
      <trkpt lat="37.39598" lon="-122.131667">
        <ele>37.3</ele>
        <time>2015-07-19T20:11:12Z</time>
      </trkpt>
      <trkpt lat="37.396042" lon="-122.131727">
        <ele>37.3</ele>
        <time>2015-07-19T20:11:13Z</time>
      </trkpt>
      <trkpt lat="37.396095" lon="-122.131767">
        <ele>37.3</ele>
        <time>2015-07-19T20:11:14Z</time>
      </trkpt>
      <trkpt lat="37.396151" lon="-122.13182">
        <ele>37.2</ele>
        <time>2015-07-19T20:11:15Z</time>
      </trkpt>
      <trkpt lat="37.3962" lon="-122.131859">
        <ele>37</ele>
        <time>2015-07-19T20:11:16Z</time>
      </trkpt>
      <trkpt lat="37.396273" lon="-122.131887">
        <ele>36.8</ele>
        <time>2015-07-19T20:11:17Z</time>
      </trkpt>
      <trkpt lat="37.396353" lon="-122.131939">
        <ele>36.7</ele>
        <time>2015-07-19T20:11:18Z</time>
      </trkpt>
      <trkpt lat="37.396405" lon="-122.132001">
        <ele>36.7</ele>
        <time>2015-07-19T20:11:19Z</time>
      </trkpt>
      <trkpt lat="37.396478" lon="-122.132054">
        <ele>36.6</ele>
        <time>2015-07-19T20:11:20Z</time>
      </trkpt>
      <trkpt lat="37.39653" lon="-122.132092">
        <ele>36.5</ele>
        <time>2015-07-19T20:11:21Z</time>
      </trkpt>
      <trkpt lat="37.396601" lon="-122.132129">
        <ele>36.4</ele>
        <time>2015-07-19T20:11:22Z</time>
      </trkpt>
      <trkpt lat="37.396666" lon="-122.132169">
        <ele>36.2</ele>
        <time>2015-07-19T20:11:23Z</time>
      </trkpt>
      <trkpt lat="37.396718" lon="-122.132221">
        <ele>36.1</ele>
        <time>2015-07-19T20:11:24Z</time>
      </trkpt>
      <trkpt lat="37.396765" lon="-122.132281">
        <ele>36.1</ele>
        <time>2015-07-19T20:11:25Z</time>
      </trkpt>
      <trkpt lat="37.396809" lon="-122.132335">
        <ele>36.1</ele>
        <time>2015-07-19T20:11:26Z</time>
      </trkpt>
      <trkpt lat="37.396869" lon="-122.132379">
        <ele>36</ele>
        <time>2015-07-19T20:11:27Z</time>
      </trkpt>
      <trkpt lat="37.396933" lon="-122.132426">
        <ele>35.9</ele>
        <time>2015-07-19T20:11:28Z</time>
      </trkpt>
      <trkpt lat="37.397022" lon="-122.132493">
        <ele>35.8</ele>
        <time>2015-07-19T20:11:29Z</time>
      </trkpt>
      <trkpt lat="37.397116" lon="-122.132512">
        <ele>35.5</ele>
        <time>2015-07-19T20:11:30Z</time>
      </trkpt>
      <trkpt lat="37.397165" lon="-122.132574">
        <ele>35.5</ele>
        <time>2015-07-19T20:11:31Z</time>
      </trkpt>
      <trkpt lat="37.39725" lon="-122.132612">
        <ele>35.4</ele>
        <time>2015-07-19T20:11:32Z</time>
      </trkpt>
      <trkpt lat="37.397302" lon="-122.132644">
        <ele>35.4</ele>
        <time>2015-07-19T20:11:33Z</time>
      </trkpt>
      <trkpt lat="37.397356" lon="-122.132694">
        <ele>35.3</ele>
        <time>2015-07-19T20:11:34Z</time>
      </trkpt>
      <trkpt lat="37.397414" lon="-122.13276">
        <ele>35.2</ele>
        <time>2015-07-19T20:11:35Z</time>
      </trkpt>
      <trkpt lat="37.397449" lon="-122.132798">
        <ele>35.1</ele>
        <time>2015-07-19T20:11:36Z</time>
      </trkpt>
      <trkpt lat="37.397512" lon="-122.132849">
        <ele>35</ele>
        <time>2015-07-19T20:11:37Z</time>
      </trkpt>
      <trkpt lat="37.39755" lon="-122.132896">
        <ele>34.9</ele>
        <time>2015-07-19T20:11:38Z</time>
      </trkpt>
      <trkpt lat="37.397596" lon="-122.132917">
        <ele>34.9</ele>
        <time>2015-07-19T20:11:39Z</time>
      </trkpt>
      <trkpt lat="37.397651" lon="-122.132946">
        <ele>34.8</ele>
        <time>2015-07-19T20:11:40Z</time>
      </trkpt>
      <trkpt lat="37.397699" lon="-122.132958">
        <ele>34.9</ele>
        <time>2015-07-19T20:11:41Z</time>
      </trkpt>
      <trkpt lat="37.397766" lon="-122.133004">
        <ele>34.8</ele>
        <time>2015-07-19T20:11:42Z</time>
      </trkpt>
      <trkpt lat="37.397835" lon="-122.133066">
        <ele>34.7</ele>
        <time>2015-07-19T20:11:43Z</time>
      </trkpt>
      <trkpt lat="37.397887" lon="-122.133098">
        <ele>34.6</ele>
        <time>2015-07-19T20:11:44Z</time>
      </trkpt>
      <trkpt lat="37.398118" lon="-122.133344">
        <ele>34.1</ele>
        <time>2015-07-19T20:11:48Z</time>
      </trkpt>
      <trkpt lat="37.398172" lon="-122.13341">
        <ele>34.1</ele>
        <time>2015-07-19T20:11:49Z</time>
      </trkpt>
      <trkpt lat="37.398234" lon="-122.133485">
        <ele>33.9</ele>
        <time>2015-07-19T20:11:50Z</time>
      </trkpt>
      <trkpt lat="37.398263" lon="-122.133524">
        <ele>33.9</ele>
        <time>2015-07-19T20:11:51Z</time>
      </trkpt>
      <trkpt lat="37.398305" lon="-122.13358">
        <ele>33.8</ele>
        <time>2015-07-19T20:11:52Z</time>
      </trkpt>
      <trkpt lat="37.39836" lon="-122.133666">
        <ele>33.6</ele>
        <time>2015-07-19T20:11:53Z</time>
      </trkpt>
      <trkpt lat="37.398376" lon="-122.13372">
        <ele>33.6</ele>
        <time>2015-07-19T20:11:54Z</time>
      </trkpt>
      <trkpt lat="37.398428" lon="-122.133781">
        <ele>33.5</ele>
        <time>2015-07-19T20:11:55Z</time>
      </trkpt>
      <trkpt lat="37.39846" lon="-122.133845">
        <ele>33.5</ele>
        <time>2015-07-19T20:11:56Z</time>
      </trkpt>
      <trkpt lat="37.398472" lon="-122.133877">
        <ele>33.5</ele>
        <time>2015-07-19T20:11:57Z</time>
      </trkpt>
      <trkpt lat="37.3985" lon="-122.133946">
        <ele>33.3</ele>
        <time>2015-07-19T20:11:58Z</time>
      </trkpt>
      <trkpt lat="37.398512" lon="-122.134002">
        <ele>33.2</ele>
        <time>2015-07-19T20:11:59Z</time>
      </trkpt>
      <trkpt lat="37.398535" lon="-122.134077">
        <ele>33</ele>
        <time>2015-07-19T20:12:00Z</time>
      </trkpt>
      <trkpt lat="37.398552" lon="-122.134116">
        <ele>33</ele>
        <time>2015-07-19T20:12:01Z</time>
      </trkpt>
      <trkpt lat="37.398582" lon="-122.134167">
        <ele>32.9</ele>
        <time>2015-07-19T20:12:02Z</time>
      </trkpt>
      <trkpt lat="37.39862" lon="-122.134228">
        <ele>32.9</ele>
        <time>2015-07-19T20:12:03Z</time>
      </trkpt>
      <trkpt lat="37.398649" lon="-122.134276">
        <ele>32.8</ele>
        <time>2015-07-19T20:12:04Z</time>
      </trkpt>
      <trkpt lat="37.398682" lon="-122.13433">
        <ele>32.8</ele>
        <time>2015-07-19T20:12:05Z</time>
      </trkpt>
      <trkpt lat="37.398718" lon="-122.134398">
        <ele>32.7</ele>
        <time>2015-07-19T20:12:07Z</time>
      </trkpt>
      <trkpt lat="37.398736" lon="-122.134433">
        <ele>32.8</ele>
        <time>2015-07-19T20:12:09Z</time>
      </trkpt>
      <trkpt lat="37.398764" lon="-122.134481">
        <ele>32.7</ele>
        <time>2015-07-19T20:12:15Z</time>
      </trkpt>
      <trkpt lat="37.39878" lon="-122.134447">
        <ele>32.8</ele>
        <time>2015-07-19T20:12:37Z</time>
      </trkpt>
      <trkpt lat="37.398803" lon="-122.134468">
        <ele>32.7</ele>
        <time>2015-07-19T20:12:43Z</time>
      </trkpt>
      <trkpt lat="37.39876" lon="-122.134481">
        <ele>32.7</ele>
        <time>2015-07-19T20:13:55Z</time>
      </trkpt>
      <trkpt lat="37.398785" lon="-122.13453">
        <ele>32.7</ele>
        <time>2015-07-19T20:13:57Z</time>
      </trkpt>
      <trkpt lat="37.398831" lon="-122.13464">
        <ele>32.5</ele>
        <time>2015-07-19T20:13:59Z</time>
      </trkpt>
      <trkpt lat="37.398849" lon="-122.134687">
        <ele>32.4</ele>
        <time>2015-07-19T20:14:00Z</time>
      </trkpt>
      <trkpt lat="37.398889" lon="-122.134787">
        <ele>32.4</ele>
        <time>2015-07-19T20:14:02Z</time>
      </trkpt>
      <trkpt lat="37.398916" lon="-122.134856">
        <ele>32.3</ele>
        <time>2015-07-19T20:14:03Z</time>
      </trkpt>
      <trkpt lat="37.398936" lon="-122.134906">
        <ele>32.3</ele>
        <time>2015-07-19T20:14:04Z</time>
      </trkpt>
      <trkpt lat="37.398819" lon="-122.135023">
        <ele>31.7</ele>
        <time>2015-07-19T20:14:05Z</time>
      </trkpt>
      <trkpt lat="37.398792" lon="-122.1351">
        <ele>31.7</ele>
        <time>2015-07-19T20:14:06Z</time>
      </trkpt>
      <trkpt lat="37.398772" lon="-122.135154">
        <ele>31.7</ele>
        <time>2015-07-19T20:14:07Z</time>
      </trkpt>
      <trkpt lat="37.398749" lon="-122.135207">
        <ele>31.6</ele>
        <time>2015-07-19T20:14:08Z</time>
      </trkpt>
      <trkpt lat="37.398726" lon="-122.135258">
        <ele>31.5</ele>
        <time>2015-07-19T20:14:09Z</time>
      </trkpt>
      <trkpt lat="37.398701" lon="-122.13532">
        <ele>31.5</ele>
        <time>2015-07-19T20:14:10Z</time>
      </trkpt>
      <trkpt lat="37.398566" lon="-122.135589">
        <ele>31.3</ele>
        <time>2015-07-19T20:14:15Z</time>
      </trkpt>
      <trkpt lat="37.39853" lon="-122.135649">
        <ele>31.3</ele>
        <time>2015-07-19T20:14:16Z</time>
      </trkpt>
      <trkpt lat="37.398495" lon="-122.135707">
        <ele>31.3</ele>
        <time>2015-07-19T20:14:17Z</time>
      </trkpt>
      <trkpt lat="37.398465" lon="-122.135758">
        <ele>31.3</ele>
        <time>2015-07-19T20:14:18Z</time>
      </trkpt>
      <trkpt lat="37.398436" lon="-122.135806">
        <ele>31.2</ele>
        <time>2015-07-19T20:14:19Z</time>
      </trkpt>
      <trkpt lat="37.398408" lon="-122.135854">
        <ele>31.2</ele>
        <time>2015-07-19T20:14:20Z</time>
      </trkpt>
      <trkpt lat="37.39838" lon="-122.135903">
        <ele>31.1</ele>
        <time>2015-07-19T20:14:21Z</time>
      </trkpt>
      <trkpt lat="37.398354" lon="-122.135947">
        <ele>31.2</ele>
        <time>2015-07-19T20:14:22Z</time>
      </trkpt>
      <trkpt lat="37.398331" lon="-122.135986">
        <ele>31.3</ele>
        <time>2015-07-19T20:14:23Z</time>
      </trkpt>
      <trkpt lat="37.398295" lon="-122.136049">
        <ele>31.3</ele>
        <time>2015-07-19T20:14:25Z</time>
      </trkpt>
      <trkpt lat="37.398268" lon="-122.136097">
        <ele>31.3</ele>
        <time>2015-07-19T20:14:26Z</time>
      </trkpt>
      <trkpt lat="37.398243" lon="-122.136141">
        <ele>31.3</ele>
        <time>2015-07-19T20:14:27Z</time>
      </trkpt>
      <trkpt lat="37.398223" lon="-122.136176">
        <ele>31.3</ele>
        <time>2015-07-19T20:14:28Z</time>
      </trkpt>
      <trkpt lat="37.398188" lon="-122.136237">
        <ele>31.4</ele>
        <time>2015-07-19T20:14:29Z</time>
      </trkpt>
      <trkpt lat="37.398147" lon="-122.136309">
        <ele>31.4</ele>
        <time>2015-07-19T20:14:30Z</time>
      </trkpt>
      <trkpt lat="37.398115" lon="-122.136369">
        <ele>31.5</ele>
        <time>2015-07-19T20:14:32Z</time>
      </trkpt>
      <trkpt lat="37.398086" lon="-122.136425">
        <ele>31.6</ele>
        <time>2015-07-19T20:14:33Z</time>
      </trkpt>
      <trkpt lat="37.398069" lon="-122.136457">
        <ele>31.7</ele>
        <time>2015-07-19T20:14:34Z</time>
      </trkpt>
      <trkpt lat="37.398044" lon="-122.136504">
        <ele>31.8</ele>
        <time>2015-07-19T20:14:35Z</time>
      </trkpt>
      <trkpt lat="37.398023" lon="-122.136544">
        <ele>31.8</ele>
        <time>2015-07-19T20:14:36Z</time>
      </trkpt>
      <trkpt lat="37.398003" lon="-122.136581">
        <ele>31.9</ele>
        <time>2015-07-19T20:14:37Z</time>
      </trkpt>
      <trkpt lat="37.397987" lon="-122.136611">
        <ele>31.8</ele>
        <time>2015-07-19T20:14:38Z</time>
      </trkpt>
      <trkpt lat="37.397968" lon="-122.136648">
        <ele>31.9</ele>
        <time>2015-07-19T20:14:39Z</time>
      </trkpt>
      <trkpt lat="37.397949" lon="-122.136683">
        <ele>32</ele>
        <time>2015-07-19T20:14:40Z</time>
      </trkpt>
      <trkpt lat="37.39793" lon="-122.136719">
        <ele>32</ele>
        <time>2015-07-19T20:14:41Z</time>
      </trkpt>
      <trkpt lat="37.397913" lon="-122.136751">
        <ele>32</ele>
        <time>2015-07-19T20:14:42Z</time>
      </trkpt>
      <trkpt lat="37.397888" lon="-122.136798">
        <ele>32.1</ele>
        <time>2015-07-19T20:14:43Z</time>
      </trkpt>
      <trkpt lat="37.397865" lon="-122.136842">
        <ele>32.2</ele>
        <time>2015-07-19T20:14:44Z</time>
      </trkpt>
      <trkpt lat="37.397839" lon="-122.13689">
        <ele>32.3</ele>
        <time>2015-07-19T20:14:45Z</time>
      </trkpt>
      <trkpt lat="37.397807" lon="-122.136951">
        <ele>32.4</ele>
        <time>2015-07-19T20:14:47Z</time>
      </trkpt>
      <trkpt lat="37.397787" lon="-122.136988">
        <ele>32.4</ele>
        <time>2015-07-19T20:14:48Z</time>
      </trkpt>
      <trkpt lat="37.397756" lon="-122.137047">
        <ele>32.5</ele>
        <time>2015-07-19T20:14:50Z</time>
      </trkpt>
      <trkpt lat="37.397734" lon="-122.137088">
        <ele>32.3</ele>
        <time>2015-07-19T20:14:51Z</time>
      </trkpt>
      <trkpt lat="37.39771" lon="-122.137131">
        <ele>32.4</ele>
        <time>2015-07-19T20:14:52Z</time>
      </trkpt>
      <trkpt lat="37.397685" lon="-122.137178">
        <ele>32.4</ele>
        <time>2015-07-19T20:14:53Z</time>
      </trkpt>
      <trkpt lat="37.39766" lon="-122.137223">
        <ele>32.4</ele>
        <time>2015-07-19T20:14:54Z</time>
      </trkpt>
      <trkpt lat="37.397634" lon="-122.137265">
        <ele>32.5</ele>
        <time>2015-07-19T20:14:55Z</time>
      </trkpt>
      <trkpt lat="37.397602" lon="-122.137317">
        <ele>32.5</ele>
        <time>2015-07-19T20:14:56Z</time>
      </trkpt>
      <trkpt lat="37.397577" lon="-122.137364">
        <ele>32.5</ele>
        <time>2015-07-19T20:14:57Z</time>
      </trkpt>
      <trkpt lat="37.397554" lon="-122.137405">
        <ele>32.5</ele>
        <time>2015-07-19T20:14:58Z</time>
      </trkpt>
      <trkpt lat="37.397538" lon="-122.13744">
        <ele>32.6</ele>
        <time>2015-07-19T20:14:59Z</time>
      </trkpt>
      <trkpt lat="37.397517" lon="-122.137483">
        <ele>32.6</ele>
        <time>2015-07-19T20:15:00Z</time>
      </trkpt>
      <trkpt lat="37.397495" lon="-122.13753">
        <ele>32.7</ele>
        <time>2015-07-19T20:15:01Z</time>
      </trkpt>
      <trkpt lat="37.397472" lon="-122.137573">
        <ele>32.7</ele>
        <time>2015-07-19T20:15:02Z</time>
      </trkpt>
      <trkpt lat="37.397441" lon="-122.137629">
        <ele>32.8</ele>
        <time>2015-07-19T20:15:03Z</time>
      </trkpt>
      <trkpt lat="37.397416" lon="-122.137675">
        <ele>32.9</ele>
        <time>2015-07-19T20:15:04Z</time>
      </trkpt>
      <trkpt lat="37.397394" lon="-122.137716">
        <ele>32.9</ele>
        <time>2015-07-19T20:15:05Z</time>
      </trkpt>
      <trkpt lat="37.397358" lon="-122.137782">
        <ele>32.9</ele>
        <time>2015-07-19T20:15:06Z</time>
      </trkpt>
      <trkpt lat="37.397327" lon="-122.137838">
        <ele>33</ele>
        <time>2015-07-19T20:15:07Z</time>
      </trkpt>
      <trkpt lat="37.397308" lon="-122.137873">
        <ele>33.1</ele>
        <time>2015-07-19T20:15:08Z</time>
      </trkpt>
      <trkpt lat="37.397292" lon="-122.137903">
        <ele>33.2</ele>
        <time>2015-07-19T20:15:09Z</time>
      </trkpt>
      <trkpt lat="37.397191" lon="-122.138107">
        <ele>33.6</ele>
        <time>2015-07-19T20:15:15Z</time>
      </trkpt>
      <trkpt lat="37.397173" lon="-122.138142">
        <ele>33.6</ele>
        <time>2015-07-19T20:15:16Z</time>
      </trkpt>
      <trkpt lat="37.397154" lon="-122.138181">
        <ele>33.6</ele>
        <time>2015-07-19T20:15:17Z</time>
      </trkpt>
      <trkpt lat="37.397136" lon="-122.13822">
        <ele>33.6</ele>
        <time>2015-07-19T20:15:18Z</time>
      </trkpt>
      <trkpt lat="37.397114" lon="-122.138263">
        <ele>33.7</ele>
        <time>2015-07-19T20:15:19Z</time>
      </trkpt>
      <trkpt lat="37.397088" lon="-122.138316">
        <ele>33.8</ele>
        <time>2015-07-19T20:15:21Z</time>
      </trkpt>
      <trkpt lat="37.397068" lon="-122.138357">
        <ele>33.8</ele>
        <time>2015-07-19T20:15:22Z</time>
      </trkpt>
      <trkpt lat="37.397051" lon="-122.138393">
        <ele>33.8</ele>
        <time>2015-07-19T20:15:23Z</time>
      </trkpt>
      <trkpt lat="37.397023" lon="-122.138451">
        <ele>33.9</ele>
        <time>2015-07-19T20:15:24Z</time>
      </trkpt>
      <trkpt lat="37.396996" lon="-122.138508">
        <ele>34.1</ele>
        <time>2015-07-19T20:15:25Z</time>
      </trkpt>
      <trkpt lat="37.396973" lon="-122.138558">
        <ele>34.1</ele>
        <time>2015-07-19T20:15:26Z</time>
      </trkpt>
      <trkpt lat="37.39695" lon="-122.138607">
        <ele>34.1</ele>
        <time>2015-07-19T20:15:27Z</time>
      </trkpt>
      <trkpt lat="37.396915" lon="-122.138679">
        <ele>34.2</ele>
        <time>2015-07-19T20:15:28Z</time>
      </trkpt>
      <trkpt lat="37.396892" lon="-122.138718">
        <ele>34.3</ele>
        <time>2015-07-19T20:15:29Z</time>
      </trkpt>
      <trkpt lat="37.396872" lon="-122.138759">
        <ele>34.3</ele>
        <time>2015-07-19T20:15:30Z</time>
      </trkpt>
      <trkpt lat="37.396847" lon="-122.138799">
        <ele>34.4</ele>
        <time>2015-07-19T20:15:31Z</time>
      </trkpt>
      <trkpt lat="37.396825" lon="-122.138842">
        <ele>34.5</ele>
        <time>2015-07-19T20:15:32Z</time>
      </trkpt>
      <trkpt lat="37.396804" lon="-122.138886">
        <ele>34.5</ele>
        <time>2015-07-19T20:15:33Z</time>
      </trkpt>
      <trkpt lat="37.396786" lon="-122.138924">
        <ele>34.6</ele>
        <time>2015-07-19T20:15:34Z</time>
      </trkpt>
      <trkpt lat="37.396766" lon="-122.138964">
        <ele>34.7</ele>
        <time>2015-07-19T20:15:35Z</time>
      </trkpt>
      <trkpt lat="37.396746" lon="-122.139006">
        <ele>34.6</ele>
        <time>2015-07-19T20:15:36Z</time>
      </trkpt>
      <trkpt lat="37.396728" lon="-122.139046">
        <ele>34.7</ele>
        <time>2015-07-19T20:15:37Z</time>
      </trkpt>
      <trkpt lat="37.396707" lon="-122.139094">
        <ele>34.8</ele>
        <time>2015-07-19T20:15:38Z</time>
      </trkpt>
      <trkpt lat="37.396684" lon="-122.139145">
        <ele>34.9</ele>
        <time>2015-07-19T20:15:39Z</time>
      </trkpt>
      <trkpt lat="37.396663" lon="-122.13919">
        <ele>34.9</ele>
        <time>2015-07-19T20:15:40Z</time>
      </trkpt>
      <trkpt lat="37.396635" lon="-122.139238">
        <ele>35</ele>
        <time>2015-07-19T20:15:41Z</time>
      </trkpt>
      <trkpt lat="37.396614" lon="-122.139279">
        <ele>35</ele>
        <time>2015-07-19T20:15:42Z</time>
      </trkpt>
      <trkpt lat="37.39658" lon="-122.139363">
        <ele>35.1</ele>
        <time>2015-07-19T20:15:43Z</time>
      </trkpt>
      <trkpt lat="37.396549" lon="-122.13942">
        <ele>35.1</ele>
        <time>2015-07-19T20:15:45Z</time>
      </trkpt>
      <trkpt lat="37.396531" lon="-122.139462">
        <ele>35.2</ele>
        <time>2015-07-19T20:15:46Z</time>
      </trkpt>
      <trkpt lat="37.396512" lon="-122.139489">
        <ele>35.3</ele>
        <time>2015-07-19T20:15:48Z</time>
      </trkpt>
      <trkpt lat="37.396497" lon="-122.139524">
        <ele>35.4</ele>
        <time>2015-07-19T20:15:49Z</time>
      </trkpt>
      <trkpt lat="37.396475" lon="-122.139572">
        <ele>35.4</ele>
        <time>2015-07-19T20:15:50Z</time>
      </trkpt>
      <trkpt lat="37.396457" lon="-122.139611">
        <ele>35.5</ele>
        <time>2015-07-19T20:15:51Z</time>
      </trkpt>
      <trkpt lat="37.396437" lon="-122.139658">
        <ele>35.6</ele>
        <time>2015-07-19T20:15:52Z</time>
      </trkpt>
      <trkpt lat="37.396419" lon="-122.139706">
        <ele>35.7</ele>
        <time>2015-07-19T20:15:53Z</time>
      </trkpt>
      <trkpt lat="37.396397" lon="-122.139753">
        <ele>35.8</ele>
        <time>2015-07-19T20:15:54Z</time>
      </trkpt>
      <trkpt lat="37.396375" lon="-122.139804">
        <ele>35.9</ele>
        <time>2015-07-19T20:15:55Z</time>
      </trkpt>
      <trkpt lat="37.396343" lon="-122.139874">
        <ele>36.1</ele>
        <time>2015-07-19T20:15:56Z</time>
      </trkpt>
      <trkpt lat="37.396324" lon="-122.139915">
        <ele>36</ele>
        <time>2015-07-19T20:15:57Z</time>
      </trkpt>
      <trkpt lat="37.396305" lon="-122.139953">
        <ele>36.2</ele>
        <time>2015-07-19T20:15:58Z</time>
      </trkpt>
      <trkpt lat="37.396284" lon="-122.139997">
        <ele>36.3</ele>
        <time>2015-07-19T20:15:59Z</time>
      </trkpt>
      <trkpt lat="37.396264" lon="-122.140039">
        <ele>36.4</ele>
        <time>2015-07-19T20:16:00Z</time>
      </trkpt>
      <trkpt lat="37.396243" lon="-122.140085">
        <ele>36.5</ele>
        <time>2015-07-19T20:16:01Z</time>
      </trkpt>
      <trkpt lat="37.396205" lon="-122.140172">
        <ele>36.5</ele>
        <time>2015-07-19T20:16:02Z</time>
      </trkpt>
      <trkpt lat="37.396177" lon="-122.14022">
        <ele>36.7</ele>
        <time>2015-07-19T20:16:04Z</time>
      </trkpt>
      <trkpt lat="37.396158" lon="-122.140265">
        <ele>36.8</ele>
        <time>2015-07-19T20:16:05Z</time>
      </trkpt>
      <trkpt lat="37.396119" lon="-122.140343">
        <ele>36.8</ele>
        <time>2015-07-19T20:16:07Z</time>
      </trkpt>
      <trkpt lat="37.396087" lon="-122.140404">
        <ele>36.9</ele>
        <time>2015-07-19T20:16:09Z</time>
      </trkpt>
      <trkpt lat="37.39607" lon="-122.140438">
        <ele>37</ele>
        <time>2015-07-19T20:16:10Z</time>
      </trkpt>
      <trkpt lat="37.39605" lon="-122.140476">
        <ele>37</ele>
        <time>2015-07-19T20:16:11Z</time>
      </trkpt>
      <trkpt lat="37.396033" lon="-122.140509">
        <ele>37.1</ele>
        <time>2015-07-19T20:16:12Z</time>
      </trkpt>
      <trkpt lat="37.396016" lon="-122.140542">
        <ele>37</ele>
        <time>2015-07-19T20:16:13Z</time>
      </trkpt>
      <trkpt lat="37.396" lon="-122.140574">
        <ele>37.2</ele>
        <time>2015-07-19T20:16:14Z</time>
      </trkpt>
      <trkpt lat="37.39598" lon="-122.140612">
        <ele>37.4</ele>
        <time>2015-07-19T20:16:15Z</time>
      </trkpt>
      <trkpt lat="37.395961" lon="-122.140647">
        <ele>37.6</ele>
        <time>2015-07-19T20:16:16Z</time>
      </trkpt>
      <trkpt lat="37.395944" lon="-122.14068">
        <ele>37.6</ele>
        <time>2015-07-19T20:16:17Z</time>
      </trkpt>
      <trkpt lat="37.395924" lon="-122.140716">
        <ele>37.7</ele>
        <time>2015-07-19T20:16:18Z</time>
      </trkpt>
      <trkpt lat="37.395895" lon="-122.140772">
        <ele>37.6</ele>
        <time>2015-07-19T20:16:19Z</time>
      </trkpt>
      <trkpt lat="37.395876" lon="-122.140806">
        <ele>37.5</ele>
        <time>2015-07-19T20:16:20Z</time>
      </trkpt>
      <trkpt lat="37.395849" lon="-122.140857">
        <ele>37.6</ele>
        <time>2015-07-19T20:16:22Z</time>
      </trkpt>
      <trkpt lat="37.395828" lon="-122.140896">
        <ele>37.7</ele>
        <time>2015-07-19T20:16:23Z</time>
      </trkpt>
      <trkpt lat="37.395799" lon="-122.140952">
        <ele>37.9</ele>
        <time>2015-07-19T20:16:24Z</time>
      </trkpt>
      <trkpt lat="37.395671" lon="-122.141188">
        <ele>38.1</ele>
        <time>2015-07-19T20:16:29Z</time>
      </trkpt>
      <trkpt lat="37.395655" lon="-122.141218">
        <ele>38.1</ele>
        <time>2015-07-19T20:16:30Z</time>
      </trkpt>
      <trkpt lat="37.395635" lon="-122.141255">
        <ele>38.3</ele>
        <time>2015-07-19T20:16:31Z</time>
      </trkpt>
      <trkpt lat="37.395616" lon="-122.141291">
        <ele>38.5</ele>
        <time>2015-07-19T20:16:32Z</time>
      </trkpt>
      <trkpt lat="37.395581" lon="-122.141353">
        <ele>38.7</ele>
        <time>2015-07-19T20:16:34Z</time>
      </trkpt>
      <trkpt lat="37.395561" lon="-122.141388">
        <ele>38.8</ele>
        <time>2015-07-19T20:16:35Z</time>
      </trkpt>
      <trkpt lat="37.395541" lon="-122.141425">
        <ele>38.9</ele>
        <time>2015-07-19T20:16:36Z</time>
      </trkpt>
      <trkpt lat="37.395522" lon="-122.141458">
        <ele>39.1</ele>
        <time>2015-07-19T20:16:37Z</time>
      </trkpt>
      <trkpt lat="37.395491" lon="-122.141515">
        <ele>39.2</ele>
        <time>2015-07-19T20:16:39Z</time>
      </trkpt>
      <trkpt lat="37.395473" lon="-122.141547">
        <ele>39.4</ele>
        <time>2015-07-19T20:16:40Z</time>
      </trkpt>
      <trkpt lat="37.395457" lon="-122.141576">
        <ele>39.4</ele>
        <time>2015-07-19T20:16:41Z</time>
      </trkpt>
      <trkpt lat="37.395438" lon="-122.141611">
        <ele>39.5</ele>
        <time>2015-07-19T20:16:42Z</time>
      </trkpt>
      <trkpt lat="37.39541" lon="-122.141665">
        <ele>39.8</ele>
        <time>2015-07-19T20:16:44Z</time>
      </trkpt>
      <trkpt lat="37.395393" lon="-122.141697">
        <ele>39.8</ele>
        <time>2015-07-19T20:16:45Z</time>
      </trkpt>
      <trkpt lat="37.395377" lon="-122.141729">
        <ele>40</ele>
        <time>2015-07-19T20:16:46Z</time>
      </trkpt>
      <trkpt lat="37.395359" lon="-122.141764">
        <ele>40.1</ele>
        <time>2015-07-19T20:16:47Z</time>
      </trkpt>
      <trkpt lat="37.395341" lon="-122.141798">
        <ele>40.2</ele>
        <time>2015-07-19T20:16:48Z</time>
      </trkpt>
      <trkpt lat="37.395325" lon="-122.14183">
        <ele>40.3</ele>
        <time>2015-07-19T20:16:49Z</time>
      </trkpt>
      <trkpt lat="37.395306" lon="-122.141867">
        <ele>40.3</ele>
        <time>2015-07-19T20:16:50Z</time>
      </trkpt>
      <trkpt lat="37.39529" lon="-122.141897">
        <ele>40.5</ele>
        <time>2015-07-19T20:16:51Z</time>
      </trkpt>
      <trkpt lat="37.39527" lon="-122.141936">
        <ele>40.6</ele>
        <time>2015-07-19T20:16:52Z</time>
      </trkpt>
      <trkpt lat="37.395251" lon="-122.141972">
        <ele>40.9</ele>
        <time>2015-07-19T20:16:53Z</time>
      </trkpt>
      <trkpt lat="37.395233" lon="-122.142008">
        <ele>40.9</ele>
        <time>2015-07-19T20:16:54Z</time>
      </trkpt>
      <trkpt lat="37.395214" lon="-122.142044">
        <ele>41.1</ele>
        <time>2015-07-19T20:16:55Z</time>
      </trkpt>
      <trkpt lat="37.395197" lon="-122.142078">
        <ele>41.2</ele>
        <time>2015-07-19T20:16:56Z</time>
      </trkpt>
      <trkpt lat="37.395181" lon="-122.142109">
        <ele>41.2</ele>
        <time>2015-07-19T20:16:57Z</time>
      </trkpt>
      <trkpt lat="37.395166" lon="-122.142138">
        <ele>41.3</ele>
        <time>2015-07-19T20:16:58Z</time>
      </trkpt>
      <trkpt lat="37.395149" lon="-122.142172">
        <ele>41.3</ele>
        <time>2015-07-19T20:16:59Z</time>
      </trkpt>
      <trkpt lat="37.395132" lon="-122.142205">
        <ele>41.4</ele>
        <time>2015-07-19T20:17:00Z</time>
      </trkpt>
      <trkpt lat="37.395102" lon="-122.142264">
        <ele>41.6</ele>
        <time>2015-07-19T20:17:02Z</time>
      </trkpt>
      <trkpt lat="37.395085" lon="-122.142297">
        <ele>41.6</ele>
        <time>2015-07-19T20:17:03Z</time>
      </trkpt>
      <trkpt lat="37.395064" lon="-122.142337">
        <ele>41.7</ele>
        <time>2015-07-19T20:17:04Z</time>
      </trkpt>
      <trkpt lat="37.395045" lon="-122.142374">
        <ele>41.8</ele>
        <time>2015-07-19T20:17:05Z</time>
      </trkpt>
      <trkpt lat="37.395027" lon="-122.142411">
        <ele>41.8</ele>
        <time>2015-07-19T20:17:06Z</time>
      </trkpt>
      <trkpt lat="37.39501" lon="-122.142444">
        <ele>41.9</ele>
        <time>2015-07-19T20:17:07Z</time>
      </trkpt>
      <trkpt lat="37.394981" lon="-122.142501">
        <ele>42</ele>
        <time>2015-07-19T20:17:08Z</time>
      </trkpt>
      <trkpt lat="37.394958" lon="-122.142545">
        <ele>41.9</ele>
        <time>2015-07-19T20:17:09Z</time>
      </trkpt>
      <trkpt lat="37.394915" lon="-122.142629">
        <ele>41.9</ele>
        <time>2015-07-19T20:17:11Z</time>
      </trkpt>
      <trkpt lat="37.394898" lon="-122.142662">
        <ele>42</ele>
        <time>2015-07-19T20:17:12Z</time>
      </trkpt>
      <trkpt lat="37.394882" lon="-122.142692">
        <ele>42</ele>
        <time>2015-07-19T20:17:13Z</time>
      </trkpt>
      <trkpt lat="37.394859" lon="-122.142736">
        <ele>42.1</ele>
        <time>2015-07-19T20:17:14Z</time>
      </trkpt>
      <trkpt lat="37.394838" lon="-122.142775">
        <ele>42.1</ele>
        <time>2015-07-19T20:17:15Z</time>
      </trkpt>
      <trkpt lat="37.394815" lon="-122.142818">
        <ele>42.1</ele>
        <time>2015-07-19T20:17:16Z</time>
      </trkpt>
      <trkpt lat="37.394795" lon="-122.142857">
        <ele>42.2</ele>
        <time>2015-07-19T20:17:17Z</time>
      </trkpt>
      <trkpt lat="37.394863" lon="-122.14296">
        <ele>42.8</ele>
        <time>2015-07-19T20:17:18Z</time>
      </trkpt>
      <trkpt lat="37.394845" lon="-122.142995">
        <ele>42.9</ele>
        <time>2015-07-19T20:17:19Z</time>
      </trkpt>
      <trkpt lat="37.394812" lon="-122.143041">
        <ele>42.8</ele>
        <time>2015-07-19T20:17:21Z</time>
      </trkpt>
      <trkpt lat="37.394793" lon="-122.143068">
        <ele>42.8</ele>
        <time>2015-07-19T20:17:22Z</time>
      </trkpt>
      <trkpt lat="37.39471" lon="-122.143135">
        <ele>42.6</ele>
        <time>2015-07-19T20:17:23Z</time>
      </trkpt>
      <trkpt lat="37.394734" lon="-122.143096">
        <ele>42.5</ele>
        <time>2015-07-19T20:17:24Z</time>
      </trkpt>
      <trkpt lat="37.394668" lon="-122.143147">
        <ele>42.6</ele>
        <time>2015-07-19T20:17:25Z</time>
      </trkpt>
      <trkpt lat="37.394631" lon="-122.143179">
        <ele>42.6</ele>
        <time>2015-07-19T20:17:26Z</time>
      </trkpt>
      <trkpt lat="37.394743" lon="-122.143284">
        <ele>42.9</ele>
        <time>2015-07-19T20:17:28Z</time>
      </trkpt>
      <trkpt lat="37.394571" lon="-122.143268">
        <ele>42.6</ele>
        <time>2015-07-19T20:17:30Z</time>
      </trkpt>
      <trkpt lat="37.394548" lon="-122.143308">
        <ele>42.6</ele>
        <time>2015-07-19T20:17:33Z</time>
      </trkpt>
      <trkpt lat="37.394525" lon="-122.143348">
        <ele>42.6</ele>
        <time>2015-07-19T20:17:34Z</time>
      </trkpt>
      <trkpt lat="37.394504" lon="-122.143387">
        <ele>42.8</ele>
        <time>2015-07-19T20:17:35Z</time>
      </trkpt>
      <trkpt lat="37.394482" lon="-122.143426">
        <ele>42.9</ele>
        <time>2015-07-19T20:17:36Z</time>
      </trkpt>
      <trkpt lat="37.394447" lon="-122.143492">
        <ele>43.1</ele>
        <time>2015-07-19T20:17:37Z</time>
      </trkpt>
      <trkpt lat="37.394424" lon="-122.143539">
        <ele>43.2</ele>
        <time>2015-07-19T20:17:39Z</time>
      </trkpt>
      <trkpt lat="37.394399" lon="-122.143593">
        <ele>43.5</ele>
        <time>2015-07-19T20:17:40Z</time>
      </trkpt>
      <trkpt lat="37.394379" lon="-122.14364">
        <ele>43.8</ele>
        <time>2015-07-19T20:17:42Z</time>
      </trkpt>
      <trkpt lat="37.394366" lon="-122.143671">
        <ele>44</ele>
        <time>2015-07-19T20:17:43Z</time>
      </trkpt>
      <trkpt lat="37.394344" lon="-122.143725">
        <ele>44.3</ele>
        <time>2015-07-19T20:17:44Z</time>
      </trkpt>
      <trkpt lat="37.394322" lon="-122.143781">
        <ele>44.6</ele>
        <time>2015-07-19T20:17:47Z</time>
      </trkpt>
      <trkpt lat="37.394301" lon="-122.143837">
        <ele>44.9</ele>
        <time>2015-07-19T20:17:49Z</time>
      </trkpt>
      <trkpt lat="37.394289" lon="-122.143871">
        <ele>45.1</ele>
        <time>2015-07-19T20:17:50Z</time>
      </trkpt>
      <trkpt lat="37.394277" lon="-122.143904">
        <ele>45.2</ele>
        <time>2015-07-19T20:17:51Z</time>
      </trkpt>
      <trkpt lat="37.394256" lon="-122.143964">
        <ele>45.4</ele>
        <time>2015-07-19T20:17:53Z</time>
      </trkpt>
      <trkpt lat="37.394245" lon="-122.143996">
        <ele>45.6</ele>
        <time>2015-07-19T20:17:54Z</time>
      </trkpt>
      <trkpt lat="37.394234" lon="-122.14403">
        <ele>45.6</ele>
        <time>2015-07-19T20:17:55Z</time>
      </trkpt>
      <trkpt lat="37.394219" lon="-122.144066">
        <ele>45.8</ele>
        <time>2015-07-19T20:17:56Z</time>
      </trkpt>
      <trkpt lat="37.394203" lon="-122.144104">
        <ele>45.9</ele>
        <time>2015-07-19T20:17:57Z</time>
      </trkpt>
      <trkpt lat="37.394175" lon="-122.14417">
        <ele>46</ele>
        <time>2015-07-19T20:17:59Z</time>
      </trkpt>
      <trkpt lat="37.394158" lon="-122.144213">
        <ele>46.1</ele>
        <time>2015-07-19T20:18:00Z</time>
      </trkpt>
      <trkpt lat="37.394146" lon="-122.144243">
        <ele>46.1</ele>
        <time>2015-07-19T20:18:01Z</time>
      </trkpt>
      <trkpt lat="37.394125" lon="-122.144307">
        <ele>46.2</ele>
        <time>2015-07-19T20:18:03Z</time>
      </trkpt>
      <trkpt lat="37.394109" lon="-122.144362">
        <ele>46.4</ele>
        <time>2015-07-19T20:18:05Z</time>
      </trkpt>
      <trkpt lat="37.394088" lon="-122.144428">
        <ele>46.6</ele>
        <time>2015-07-19T20:18:07Z</time>
      </trkpt>
      <trkpt lat="37.394072" lon="-122.144477">
        <ele>46.7</ele>
        <time>2015-07-19T20:18:09Z</time>
      </trkpt>
      <trkpt lat="37.394049" lon="-122.144538">
        <ele>46.8</ele>
        <time>2015-07-19T20:18:11Z</time>
      </trkpt>
      <trkpt lat="37.394034" lon="-122.144572">
        <ele>46.7</ele>
        <time>2015-07-19T20:18:12Z</time>
      </trkpt>
      <trkpt lat="37.394018" lon="-122.144606">
        <ele>46.6</ele>
        <time>2015-07-19T20:18:13Z</time>
      </trkpt>
      <trkpt lat="37.394002" lon="-122.14464">
        <ele>46.5</ele>
        <time>2015-07-19T20:18:14Z</time>
      </trkpt>
      <trkpt lat="37.393985" lon="-122.144684">
        <ele>46.5</ele>
        <time>2015-07-19T20:18:15Z</time>
      </trkpt>
      <trkpt lat="37.393967" lon="-122.144727">
        <ele>46.4</ele>
        <time>2015-07-19T20:18:16Z</time>
      </trkpt>
      <trkpt lat="37.393951" lon="-122.144775">
        <ele>46.4</ele>
        <time>2015-07-19T20:18:17Z</time>
      </trkpt>
      <trkpt lat="37.393937" lon="-122.144824">
        <ele>46.3</ele>
        <time>2015-07-19T20:18:18Z</time>
      </trkpt>
      <trkpt lat="37.393905" lon="-122.144913">
        <ele>46.3</ele>
        <time>2015-07-19T20:18:19Z</time>
      </trkpt>
      <trkpt lat="37.393896" lon="-122.144957">
        <ele>46.3</ele>
        <time>2015-07-19T20:18:20Z</time>
      </trkpt>
      <trkpt lat="37.393877" lon="-122.145024">
        <ele>46.5</ele>
        <time>2015-07-19T20:18:21Z</time>
      </trkpt>
      <trkpt lat="37.393859" lon="-122.145092">
        <ele>46.6</ele>
        <time>2015-07-19T20:18:22Z</time>
      </trkpt>
      <trkpt lat="37.39384" lon="-122.14517">
        <ele>46.7</ele>
        <time>2015-07-19T20:18:23Z</time>
      </trkpt>
      <trkpt lat="37.393827" lon="-122.145208">
        <ele>46.7</ele>
        <time>2015-07-19T20:18:24Z</time>
      </trkpt>
      <trkpt lat="37.393811" lon="-122.145253">
        <ele>46.7</ele>
        <time>2015-07-19T20:18:25Z</time>
      </trkpt>
      <trkpt lat="37.393797" lon="-122.145293">
        <ele>46.8</ele>
        <time>2015-07-19T20:18:26Z</time>
      </trkpt>
      <trkpt lat="37.393785" lon="-122.145327">
        <ele>46.7</ele>
        <time>2015-07-19T20:18:27Z</time>
      </trkpt>
      <trkpt lat="37.393773" lon="-122.145362">
        <ele>46.8</ele>
        <time>2015-07-19T20:18:28Z</time>
      </trkpt>
      <trkpt lat="37.393762" lon="-122.145397">
        <ele>46.9</ele>
        <time>2015-07-19T20:18:29Z</time>
      </trkpt>
      <trkpt lat="37.393739" lon="-122.145462">
        <ele>47.2</ele>
        <time>2015-07-19T20:18:31Z</time>
      </trkpt>
      <trkpt lat="37.393726" lon="-122.1455">
        <ele>47.3</ele>
        <time>2015-07-19T20:18:32Z</time>
      </trkpt>
      <trkpt lat="37.3937" lon="-122.145575">
        <ele>47.6</ele>
        <time>2015-07-19T20:18:34Z</time>
      </trkpt>
      <trkpt lat="37.393667" lon="-122.145666">
        <ele>48</ele>
        <time>2015-07-19T20:18:36Z</time>
      </trkpt>
      <trkpt lat="37.39365" lon="-122.145713">
        <ele>48.1</ele>
        <time>2015-07-19T20:18:37Z</time>
      </trkpt>
      <trkpt lat="37.393637" lon="-122.145754">
        <ele>48.2</ele>
        <time>2015-07-19T20:18:38Z</time>
      </trkpt>
      <trkpt lat="37.393625" lon="-122.145788">
        <ele>48.4</ele>
        <time>2015-07-19T20:18:39Z</time>
      </trkpt>
      <trkpt lat="37.393614" lon="-122.145822">
        <ele>48.6</ele>
        <time>2015-07-19T20:18:40Z</time>
      </trkpt>
      <trkpt lat="37.393603" lon="-122.145855">
        <ele>48.9</ele>
        <time>2015-07-19T20:18:41Z</time>
      </trkpt>
      <trkpt lat="37.393588" lon="-122.1459">
        <ele>49.1</ele>
        <time>2015-07-19T20:18:42Z</time>
      </trkpt>
      <trkpt lat="37.393575" lon="-122.145936">
        <ele>49.2</ele>
        <time>2015-07-19T20:18:43Z</time>
      </trkpt>
      <trkpt lat="37.393562" lon="-122.145976">
        <ele>49.3</ele>
        <time>2015-07-19T20:18:44Z</time>
      </trkpt>
      <trkpt lat="37.393549" lon="-122.146016">
        <ele>49.6</ele>
        <time>2015-07-19T20:18:45Z</time>
      </trkpt>
      <trkpt lat="37.393532" lon="-122.146063">
        <ele>49.8</ele>
        <time>2015-07-19T20:18:46Z</time>
      </trkpt>
      <trkpt lat="37.393517" lon="-122.146108">
        <ele>50</ele>
        <time>2015-07-19T20:18:47Z</time>
      </trkpt>
      <trkpt lat="37.3935" lon="-122.146156">
        <ele>50.2</ele>
        <time>2015-07-19T20:18:48Z</time>
      </trkpt>
      <trkpt lat="37.393487" lon="-122.146194">
        <ele>50.4</ele>
        <time>2015-07-19T20:18:49Z</time>
      </trkpt>
      <trkpt lat="37.393475" lon="-122.146226">
        <ele>50.5</ele>
        <time>2015-07-19T20:18:50Z</time>
      </trkpt>
      <trkpt lat="37.393462" lon="-122.146264">
        <ele>50.7</ele>
        <time>2015-07-19T20:18:51Z</time>
      </trkpt>
      <trkpt lat="37.393395" lon="-122.146416">
        <ele>51.6</ele>
        <time>2015-07-19T20:18:58Z</time>
      </trkpt>
      <trkpt lat="37.393358" lon="-122.146459">
        <ele>51.8</ele>
        <time>2015-07-19T20:18:59Z</time>
      </trkpt>
      <trkpt lat="37.393323" lon="-122.146667">
        <ele>53.2</ele>
        <time>2015-07-19T20:19:03Z</time>
      </trkpt>
      <trkpt lat="37.39333" lon="-122.146705">
        <ele>53.6</ele>
        <time>2015-07-19T20:19:04Z</time>
      </trkpt>
      <trkpt lat="37.393316" lon="-122.146757">
        <ele>53.9</ele>
        <time>2015-07-19T20:19:06Z</time>
      </trkpt>
      <trkpt lat="37.393293" lon="-122.146822">
        <ele>54.4</ele>
        <time>2015-07-19T20:19:08Z</time>
      </trkpt>
      <trkpt lat="37.393279" lon="-122.146862">
        <ele>54.6</ele>
        <time>2015-07-19T20:19:09Z</time>
      </trkpt>
      <trkpt lat="37.393266" lon="-122.1469">
        <ele>55</ele>
        <time>2015-07-19T20:19:10Z</time>
      </trkpt>
      <trkpt lat="37.393254" lon="-122.146934">
        <ele>55.2</ele>
        <time>2015-07-19T20:19:11Z</time>
      </trkpt>
      <trkpt lat="37.393232" lon="-122.146997">
        <ele>55.5</ele>
        <time>2015-07-19T20:19:13Z</time>
      </trkpt>
      <trkpt lat="37.393209" lon="-122.147063">
        <ele>55.8</ele>
        <time>2015-07-19T20:19:15Z</time>
      </trkpt>
      <trkpt lat="37.393195" lon="-122.147103">
        <ele>56.1</ele>
        <time>2015-07-19T20:19:16Z</time>
      </trkpt>
      <trkpt lat="37.393176" lon="-122.147159">
        <ele>56.2</ele>
        <time>2015-07-19T20:19:18Z</time>
      </trkpt>
      <trkpt lat="37.39316" lon="-122.147204">
        <ele>56.2</ele>
        <time>2015-07-19T20:19:20Z</time>
      </trkpt>
      <trkpt lat="37.393143" lon="-122.147254">
        <ele>56.2</ele>
        <time>2015-07-19T20:19:22Z</time>
      </trkpt>
      <trkpt lat="37.393118" lon="-122.147326">
        <ele>55.9</ele>
        <time>2015-07-19T20:19:24Z</time>
      </trkpt>
      <trkpt lat="37.393101" lon="-122.147375">
        <ele>55.8</ele>
        <time>2015-07-19T20:19:25Z</time>
      </trkpt>
      <trkpt lat="37.393083" lon="-122.147425">
        <ele>55.6</ele>
        <time>2015-07-19T20:19:26Z</time>
      </trkpt>
      <trkpt lat="37.393061" lon="-122.147481">
        <ele>55.3</ele>
        <time>2015-07-19T20:19:27Z</time>
      </trkpt>
      <trkpt lat="37.39304" lon="-122.147535">
        <ele>55</ele>
        <time>2015-07-19T20:19:28Z</time>
      </trkpt>
      <trkpt lat="37.393018" lon="-122.147586">
        <ele>54.8</ele>
        <time>2015-07-19T20:19:29Z</time>
      </trkpt>
      <trkpt lat="37.393" lon="-122.147635">
        <ele>54.7</ele>
        <time>2015-07-19T20:19:30Z</time>
      </trkpt>
      <trkpt lat="37.392974" lon="-122.147695">
        <ele>54.5</ele>
        <time>2015-07-19T20:19:31Z</time>
      </trkpt>
      <trkpt lat="37.392952" lon="-122.147744">
        <ele>54.5</ele>
        <time>2015-07-19T20:19:32Z</time>
      </trkpt>
      <trkpt lat="37.392932" lon="-122.147785">
        <ele>54.5</ele>
        <time>2015-07-19T20:19:33Z</time>
      </trkpt>
      <trkpt lat="37.392919" lon="-122.147828">
        <ele>54.5</ele>
        <time>2015-07-19T20:19:34Z</time>
      </trkpt>
      <trkpt lat="37.392897" lon="-122.147871">
        <ele>54.4</ele>
        <time>2015-07-19T20:19:35Z</time>
      </trkpt>
      <trkpt lat="37.392879" lon="-122.147912">
        <ele>54.4</ele>
        <time>2015-07-19T20:19:36Z</time>
      </trkpt>
      <trkpt lat="37.392865" lon="-122.147959">
        <ele>54.5</ele>
        <time>2015-07-19T20:19:37Z</time>
      </trkpt>
      <trkpt lat="37.39285" lon="-122.147999">
        <ele>54.7</ele>
        <time>2015-07-19T20:19:38Z</time>
      </trkpt>
      <trkpt lat="37.39283" lon="-122.148068">
        <ele>55</ele>
        <time>2015-07-19T20:19:40Z</time>
      </trkpt>
      <trkpt lat="37.392763" lon="-122.148302">
        <ele>56.8</ele>
        <time>2015-07-19T20:19:46Z</time>
      </trkpt>
      <trkpt lat="37.392757" lon="-122.148339">
        <ele>57.1</ele>
        <time>2015-07-19T20:19:47Z</time>
      </trkpt>
      <trkpt lat="37.392749" lon="-122.148375">
        <ele>57.3</ele>
        <time>2015-07-19T20:19:48Z</time>
      </trkpt>
      <trkpt lat="37.39274" lon="-122.148409">
        <ele>57.5</ele>
        <time>2015-07-19T20:19:49Z</time>
      </trkpt>
      <trkpt lat="37.392719" lon="-122.148471">
        <ele>57.9</ele>
        <time>2015-07-19T20:19:51Z</time>
      </trkpt>
      <trkpt lat="37.392705" lon="-122.148511">
        <ele>58</ele>
        <time>2015-07-19T20:19:52Z</time>
      </trkpt>
      <trkpt lat="37.392682" lon="-122.148576">
        <ele>58.4</ele>
        <time>2015-07-19T20:19:54Z</time>
      </trkpt>
      <trkpt lat="37.392671" lon="-122.148609">
        <ele>58.5</ele>
        <time>2015-07-19T20:19:55Z</time>
      </trkpt>
      <trkpt lat="37.392601" lon="-122.148813">
        <ele>59.6</ele>
        <time>2015-07-19T20:20:02Z</time>
      </trkpt>
      <trkpt lat="37.392582" lon="-122.148869">
        <ele>60</ele>
        <time>2015-07-19T20:20:04Z</time>
      </trkpt>
      <trkpt lat="37.392566" lon="-122.148915">
        <ele>60.1</ele>
        <time>2015-07-19T20:20:06Z</time>
      </trkpt>
      <trkpt lat="37.392554" lon="-122.148952">
        <ele>60.3</ele>
        <time>2015-07-19T20:20:07Z</time>
      </trkpt>
      <trkpt lat="37.392526" lon="-122.149035">
        <ele>60.9</ele>
        <time>2015-07-19T20:20:08Z</time>
      </trkpt>
      <trkpt lat="37.392515" lon="-122.149067">
        <ele>61.1</ele>
        <time>2015-07-19T20:20:09Z</time>
      </trkpt>
      <trkpt lat="37.392502" lon="-122.149104">
        <ele>61.3</ele>
        <time>2015-07-19T20:20:10Z</time>
      </trkpt>
      <trkpt lat="37.392491" lon="-122.149136">
        <ele>61.7</ele>
        <time>2015-07-19T20:20:11Z</time>
      </trkpt>
      <trkpt lat="37.392469" lon="-122.149202">
        <ele>62.1</ele>
        <time>2015-07-19T20:20:13Z</time>
      </trkpt>
      <trkpt lat="37.392456" lon="-122.149238">
        <ele>62.5</ele>
        <time>2015-07-19T20:20:14Z</time>
      </trkpt>
      <trkpt lat="37.392432" lon="-122.149309">
        <ele>62.9</ele>
        <time>2015-07-19T20:20:16Z</time>
      </trkpt>
      <trkpt lat="37.392409" lon="-122.149377">
        <ele>63.3</ele>
        <time>2015-07-19T20:20:17Z</time>
      </trkpt>
      <trkpt lat="37.392396" lon="-122.149413">
        <ele>63.5</ele>
        <time>2015-07-19T20:20:18Z</time>
      </trkpt>
      <trkpt lat="37.392383" lon="-122.149451">
        <ele>63.6</ele>
        <time>2015-07-19T20:20:19Z</time>
      </trkpt>
      <trkpt lat="37.392372" lon="-122.149486">
        <ele>63.7</ele>
        <time>2015-07-19T20:20:20Z</time>
      </trkpt>
      <trkpt lat="37.392346" lon="-122.149557">
        <ele>64</ele>
        <time>2015-07-19T20:20:22Z</time>
      </trkpt>
      <trkpt lat="37.392332" lon="-122.149594">
        <ele>64.2</ele>
        <time>2015-07-19T20:20:23Z</time>
      </trkpt>
      <trkpt lat="37.392313" lon="-122.149641">
        <ele>64.1</ele>
        <time>2015-07-19T20:20:24Z</time>
      </trkpt>
      <trkpt lat="37.392296" lon="-122.149687">
        <ele>64.3</ele>
        <time>2015-07-19T20:20:25Z</time>
      </trkpt>
      <trkpt lat="37.39228" lon="-122.149721">
        <ele>64.4</ele>
        <time>2015-07-19T20:20:26Z</time>
      </trkpt>
      <trkpt lat="37.392255" lon="-122.149778">
        <ele>64.7</ele>
        <time>2015-07-19T20:20:27Z</time>
      </trkpt>
      <trkpt lat="37.392231" lon="-122.149829">
        <ele>64.7</ele>
        <time>2015-07-19T20:20:28Z</time>
      </trkpt>
      <trkpt lat="37.39219" lon="-122.149905">
        <ele>64.6</ele>
        <time>2015-07-19T20:20:31Z</time>
      </trkpt>
      <trkpt lat="37.392149" lon="-122.149972">
        <ele>63.8</ele>
        <time>2015-07-19T20:20:32Z</time>
      </trkpt>
      <trkpt lat="37.39211" lon="-122.150033">
        <ele>63.1</ele>
        <time>2015-07-19T20:20:33Z</time>
      </trkpt>
      <trkpt lat="37.392084" lon="-122.150072">
        <ele>62.6</ele>
        <time>2015-07-19T20:20:34Z</time>
      </trkpt>
      <trkpt lat="37.392062" lon="-122.150103">
        <ele>62.3</ele>
        <time>2015-07-19T20:20:35Z</time>
      </trkpt>
      <trkpt lat="37.392041" lon="-122.150133">
        <ele>62</ele>
        <time>2015-07-19T20:20:36Z</time>
      </trkpt>
      <trkpt lat="37.392006" lon="-122.150182">
        <ele>61.5</ele>
        <time>2015-07-19T20:20:37Z</time>
      </trkpt>
      <trkpt lat="37.391968" lon="-122.150231">
        <ele>61</ele>
        <time>2015-07-19T20:20:38Z</time>
      </trkpt>
      <trkpt lat="37.391923" lon="-122.15029">
        <ele>60.9</ele>
        <time>2015-07-19T20:20:39Z</time>
      </trkpt>
      <trkpt lat="37.391877" lon="-122.150348">
        <ele>59.8</ele>
        <time>2015-07-19T20:20:40Z</time>
      </trkpt>
      <trkpt lat="37.391827" lon="-122.150413">
        <ele>59</ele>
        <time>2015-07-19T20:20:41Z</time>
      </trkpt>
      <trkpt lat="37.391756" lon="-122.150502">
        <ele>58.4</ele>
        <time>2015-07-19T20:20:42Z</time>
      </trkpt>
      <trkpt lat="37.391706" lon="-122.150564">
        <ele>58.3</ele>
        <time>2015-07-19T20:20:43Z</time>
      </trkpt>
      <trkpt lat="37.391665" lon="-122.150616">
        <ele>58.5</ele>
        <time>2015-07-19T20:20:44Z</time>
      </trkpt>
      <trkpt lat="37.391622" lon="-122.15067">
        <ele>58.6</ele>
        <time>2015-07-19T20:20:45Z</time>
      </trkpt>
      <trkpt lat="37.391569" lon="-122.150725">
        <ele>58.2</ele>
        <time>2015-07-19T20:20:46Z</time>
      </trkpt>
      <trkpt lat="37.391522" lon="-122.150771">
        <ele>58.2</ele>
        <time>2015-07-19T20:20:47Z</time>
      </trkpt>
      <trkpt lat="37.39148" lon="-122.150807">
        <ele>58</ele>
        <time>2015-07-19T20:20:48Z</time>
      </trkpt>
      <trkpt lat="37.391408" lon="-122.150861">
        <ele>57.3</ele>
        <time>2015-07-19T20:20:49Z</time>
      </trkpt>
      <trkpt lat="37.391351" lon="-122.150897">
        <ele>57</ele>
        <time>2015-07-19T20:20:50Z</time>
      </trkpt>
      <trkpt lat="37.391296" lon="-122.150931">
        <ele>57.1</ele>
        <time>2015-07-19T20:20:51Z</time>
      </trkpt>
      <trkpt lat="37.391267" lon="-122.15095">
        <ele>57</ele>
        <time>2015-07-19T20:20:52Z</time>
      </trkpt>
      <trkpt lat="37.391231" lon="-122.151158">
        <ele>56.9</ele>
        <time>2015-07-19T20:20:56Z</time>
      </trkpt>
      <trkpt lat="37.391223" lon="-122.1512">
        <ele>57.1</ele>
        <time>2015-07-19T20:20:57Z</time>
      </trkpt>
      <trkpt lat="37.391192" lon="-122.151282">
        <ele>58</ele>
        <time>2015-07-19T20:20:58Z</time>
      </trkpt>
      <trkpt lat="37.391172" lon="-122.151336">
        <ele>58.5</ele>
        <time>2015-07-19T20:21:00Z</time>
      </trkpt>
      <trkpt lat="37.391126" lon="-122.151395">
        <ele>58.8</ele>
        <time>2015-07-19T20:21:01Z</time>
      </trkpt>
      <trkpt lat="37.391105" lon="-122.151425">
        <ele>59</ele>
        <time>2015-07-19T20:21:02Z</time>
      </trkpt>
      <trkpt lat="37.391082" lon="-122.151458">
        <ele>59.3</ele>
        <time>2015-07-19T20:21:03Z</time>
      </trkpt>
      <trkpt lat="37.391056" lon="-122.151482">
        <ele>59.6</ele>
        <time>2015-07-19T20:21:04Z</time>
      </trkpt>
      <trkpt lat="37.39103" lon="-122.151506">
        <ele>59.8</ele>
        <time>2015-07-19T20:21:05Z</time>
      </trkpt>
      <trkpt lat="37.390984" lon="-122.151533">
        <ele>59.9</ele>
        <time>2015-07-19T20:21:07Z</time>
      </trkpt>
      <trkpt lat="37.390957" lon="-122.151552">
        <ele>60.1</ele>
        <time>2015-07-19T20:21:08Z</time>
      </trkpt>
      <trkpt lat="37.39093" lon="-122.151575">
        <ele>60.4</ele>
        <time>2015-07-19T20:21:09Z</time>
      </trkpt>
      <trkpt lat="37.390903" lon="-122.151599">
        <ele>60.7</ele>
        <time>2015-07-19T20:21:10Z</time>
      </trkpt>
      <trkpt lat="37.390875" lon="-122.151619">
        <ele>60.9</ele>
        <time>2015-07-19T20:21:11Z</time>
      </trkpt>
      <trkpt lat="37.390845" lon="-122.151636">
        <ele>61</ele>
        <time>2015-07-19T20:21:12Z</time>
      </trkpt>
      <trkpt lat="37.390816" lon="-122.151655">
        <ele>61.2</ele>
        <time>2015-07-19T20:21:13Z</time>
      </trkpt>
      <trkpt lat="37.39079" lon="-122.151672">
        <ele>61.3</ele>
        <time>2015-07-19T20:21:14Z</time>
      </trkpt>
      <trkpt lat="37.390759" lon="-122.15169">
        <ele>61.3</ele>
        <time>2015-07-19T20:21:15Z</time>
      </trkpt>
      <trkpt lat="37.39073" lon="-122.151707">
        <ele>61.4</ele>
        <time>2015-07-19T20:21:16Z</time>
      </trkpt>
      <trkpt lat="37.390706" lon="-122.151723">
        <ele>61.5</ele>
        <time>2015-07-19T20:21:17Z</time>
      </trkpt>
      <trkpt lat="37.39068" lon="-122.151737">
        <ele>61.6</ele>
        <time>2015-07-19T20:21:18Z</time>
      </trkpt>
      <trkpt lat="37.39065" lon="-122.151753">
        <ele>61.5</ele>
        <time>2015-07-19T20:21:19Z</time>
      </trkpt>
      <trkpt lat="37.39062" lon="-122.15177">
        <ele>61.7</ele>
        <time>2015-07-19T20:21:20Z</time>
      </trkpt>
      <trkpt lat="37.39059" lon="-122.151784">
        <ele>61.7</ele>
        <time>2015-07-19T20:21:21Z</time>
      </trkpt>
      <trkpt lat="37.390561" lon="-122.151796">
        <ele>61.6</ele>
        <time>2015-07-19T20:21:22Z</time>
      </trkpt>
      <trkpt lat="37.39053" lon="-122.151806">
        <ele>61.4</ele>
        <time>2015-07-19T20:21:23Z</time>
      </trkpt>
      <trkpt lat="37.390498" lon="-122.151817">
        <ele>61.2</ele>
        <time>2015-07-19T20:21:24Z</time>
      </trkpt>
      <trkpt lat="37.390463" lon="-122.151827">
        <ele>61.1</ele>
        <time>2015-07-19T20:21:25Z</time>
      </trkpt>
      <trkpt lat="37.390426" lon="-122.15184">
        <ele>61.1</ele>
        <time>2015-07-19T20:21:26Z</time>
      </trkpt>
      <trkpt lat="37.390398" lon="-122.151845">
        <ele>61.1</ele>
        <time>2015-07-19T20:21:27Z</time>
      </trkpt>
      <trkpt lat="37.390348" lon="-122.151855">
        <ele>61</ele>
        <time>2015-07-19T20:21:29Z</time>
      </trkpt>
      <trkpt lat="37.390299" lon="-122.151867">
        <ele>61</ele>
        <time>2015-07-19T20:21:31Z</time>
      </trkpt>
      <trkpt lat="37.390273" lon="-122.151879">
        <ele>61.2</ele>
        <time>2015-07-19T20:21:32Z</time>
      </trkpt>
      <trkpt lat="37.390246" lon="-122.151891">
        <ele>61.3</ele>
        <time>2015-07-19T20:21:33Z</time>
      </trkpt>
      <trkpt lat="37.390206" lon="-122.151914">
        <ele>61.6</ele>
        <time>2015-07-19T20:21:35Z</time>
      </trkpt>
      <trkpt lat="37.390162" lon="-122.151936">
        <ele>61.7</ele>
        <time>2015-07-19T20:21:37Z</time>
      </trkpt>
      <trkpt lat="37.390113" lon="-122.151947">
        <ele>61.4</ele>
        <time>2015-07-19T20:21:39Z</time>
      </trkpt>
      <trkpt lat="37.390061" lon="-122.151951">
        <ele>61.5</ele>
        <time>2015-07-19T20:21:41Z</time>
      </trkpt>
      <trkpt lat="37.390012" lon="-122.151962">
        <ele>61.8</ele>
        <time>2015-07-19T20:21:43Z</time>
      </trkpt>
      <trkpt lat="37.389985" lon="-122.151969">
        <ele>62</ele>
        <time>2015-07-19T20:21:44Z</time>
      </trkpt>
      <trkpt lat="37.389948" lon="-122.151976">
        <ele>62.1</ele>
        <time>2015-07-19T20:21:45Z</time>
      </trkpt>
      <trkpt lat="37.389912" lon="-122.151981">
        <ele>62.4</ele>
        <time>2015-07-19T20:21:46Z</time>
      </trkpt>
      <trkpt lat="37.38988" lon="-122.151984">
        <ele>62.6</ele>
        <time>2015-07-19T20:21:47Z</time>
      </trkpt>
      <trkpt lat="37.389847" lon="-122.151984">
        <ele>62.8</ele>
        <time>2015-07-19T20:21:48Z</time>
      </trkpt>
      <trkpt lat="37.389816" lon="-122.151984">
        <ele>63</ele>
        <time>2015-07-19T20:21:49Z</time>
      </trkpt>
      <trkpt lat="37.389787" lon="-122.151986">
        <ele>63.2</ele>
        <time>2015-07-19T20:21:50Z</time>
      </trkpt>
      <trkpt lat="37.389759" lon="-122.15199">
        <ele>63.5</ele>
        <time>2015-07-19T20:21:51Z</time>
      </trkpt>
      <trkpt lat="37.38973" lon="-122.151994">
        <ele>63.7</ele>
        <time>2015-07-19T20:21:52Z</time>
      </trkpt>
      <trkpt lat="37.3897" lon="-122.152001">
        <ele>64</ele>
        <time>2015-07-19T20:21:53Z</time>
      </trkpt>
      <trkpt lat="37.389671" lon="-122.152005">
        <ele>64.2</ele>
        <time>2015-07-19T20:21:54Z</time>
      </trkpt>
      <trkpt lat="37.389641" lon="-122.152011">
        <ele>64.4</ele>
        <time>2015-07-19T20:21:55Z</time>
      </trkpt>
      <trkpt lat="37.389608" lon="-122.152018">
        <ele>64.7</ele>
        <time>2015-07-19T20:21:56Z</time>
      </trkpt>
      <trkpt lat="37.389572" lon="-122.152026">
        <ele>65</ele>
        <time>2015-07-19T20:21:57Z</time>
      </trkpt>
      <trkpt lat="37.389539" lon="-122.152034">
        <ele>65.2</ele>
        <time>2015-07-19T20:21:58Z</time>
      </trkpt>
      <trkpt lat="37.389507" lon="-122.152044">
        <ele>65.3</ele>
        <time>2015-07-19T20:21:59Z</time>
      </trkpt>
      <trkpt lat="37.389476" lon="-122.152055">
        <ele>65.5</ele>
        <time>2015-07-19T20:22:00Z</time>
      </trkpt>
      <trkpt lat="37.389448" lon="-122.152068">
        <ele>65.7</ele>
        <time>2015-07-19T20:22:01Z</time>
      </trkpt>
      <trkpt lat="37.389405" lon="-122.15209">
        <ele>66.1</ele>
        <time>2015-07-19T20:22:03Z</time>
      </trkpt>
      <trkpt lat="37.389379" lon="-122.152111">
        <ele>66.6</ele>
        <time>2015-07-19T20:22:05Z</time>
      </trkpt>
      <trkpt lat="37.389348" lon="-122.152124">
        <ele>66.9</ele>
        <time>2015-07-19T20:22:07Z</time>
      </trkpt>
      <trkpt lat="37.389305" lon="-122.15213">
        <ele>66.9</ele>
        <time>2015-07-19T20:22:09Z</time>
      </trkpt>
      <trkpt lat="37.389248" lon="-122.152133">
        <ele>66.6</ele>
        <time>2015-07-19T20:22:11Z</time>
      </trkpt>
      <trkpt lat="37.389208" lon="-122.152132">
        <ele>66.5</ele>
        <time>2015-07-19T20:22:12Z</time>
      </trkpt>
      <trkpt lat="37.389169" lon="-122.152133">
        <ele>66.5</ele>
        <time>2015-07-19T20:22:13Z</time>
      </trkpt>
      <trkpt lat="37.389139" lon="-122.152139">
        <ele>66.5</ele>
        <time>2015-07-19T20:22:14Z</time>
      </trkpt>
      <trkpt lat="37.389099" lon="-122.152125">
        <ele>66.5</ele>
        <time>2015-07-19T20:22:15Z</time>
      </trkpt>
      <trkpt lat="37.389069" lon="-122.152131">
        <ele>66.5</ele>
        <time>2015-07-19T20:22:16Z</time>
      </trkpt>
      <trkpt lat="37.389042" lon="-122.152136">
        <ele>66.5</ele>
        <time>2015-07-19T20:22:17Z</time>
      </trkpt>
      <trkpt lat="37.389013" lon="-122.152145">
        <ele>66.6</ele>
        <time>2015-07-19T20:22:18Z</time>
      </trkpt>
      <trkpt lat="37.388985" lon="-122.152153">
        <ele>66.7</ele>
        <time>2015-07-19T20:22:19Z</time>
      </trkpt>
      <trkpt lat="37.388957" lon="-122.152166">
        <ele>66.8</ele>
        <time>2015-07-19T20:22:20Z</time>
      </trkpt>
      <trkpt lat="37.388928" lon="-122.152171">
        <ele>66.9</ele>
        <time>2015-07-19T20:22:21Z</time>
      </trkpt>
      <trkpt lat="37.388873" lon="-122.152183">
        <ele>67.3</ele>
        <time>2015-07-19T20:22:23Z</time>
      </trkpt>
      <trkpt lat="37.388834" lon="-122.152183">
        <ele>67.4</ele>
        <time>2015-07-19T20:22:24Z</time>
      </trkpt>
      <trkpt lat="37.388797" lon="-122.152182">
        <ele>67.6</ele>
        <time>2015-07-19T20:22:25Z</time>
      </trkpt>
      <trkpt lat="37.388739" lon="-122.152148">
        <ele>67</ele>
        <time>2015-07-19T20:22:26Z</time>
      </trkpt>
      <trkpt lat="37.388704" lon="-122.152149">
        <ele>67</ele>
        <time>2015-07-19T20:22:27Z</time>
      </trkpt>
      <trkpt lat="37.388645" lon="-122.152125">
        <ele>66.9</ele>
        <time>2015-07-19T20:22:28Z</time>
      </trkpt>
      <trkpt lat="37.388609" lon="-122.152123">
        <ele>66.9</ele>
        <time>2015-07-19T20:22:29Z</time>
      </trkpt>
      <trkpt lat="37.388564" lon="-122.152105">
        <ele>66.8</ele>
        <time>2015-07-19T20:22:30Z</time>
      </trkpt>
      <trkpt lat="37.388537" lon="-122.152104">
        <ele>66.8</ele>
        <time>2015-07-19T20:22:31Z</time>
      </trkpt>
      <trkpt lat="37.38851" lon="-122.152109">
        <ele>67</ele>
        <time>2015-07-19T20:22:32Z</time>
      </trkpt>
      <trkpt lat="37.388477" lon="-122.152111">
        <ele>67</ele>
        <time>2015-07-19T20:22:33Z</time>
      </trkpt>
      <trkpt lat="37.38845" lon="-122.152119">
        <ele>67.2</ele>
        <time>2015-07-19T20:22:34Z</time>
      </trkpt>
      <trkpt lat="37.388422" lon="-122.152127">
        <ele>67.3</ele>
        <time>2015-07-19T20:22:35Z</time>
      </trkpt>
      <trkpt lat="37.388375" lon="-122.152145">
        <ele>67.6</ele>
        <time>2015-07-19T20:22:37Z</time>
      </trkpt>
      <trkpt lat="37.388322" lon="-122.152156">
        <ele>67.8</ele>
        <time>2015-07-19T20:22:39Z</time>
      </trkpt>
      <trkpt lat="37.388296" lon="-122.15214">
        <ele>67.6</ele>
        <time>2015-07-19T20:22:40Z</time>
      </trkpt>
      <trkpt lat="37.388258" lon="-122.152151">
        <ele>67.7</ele>
        <time>2015-07-19T20:22:42Z</time>
      </trkpt>
      <trkpt lat="37.388211" lon="-122.152179">
        <ele>67.9</ele>
        <time>2015-07-19T20:22:44Z</time>
      </trkpt>
      <trkpt lat="37.388179" lon="-122.152176">
        <ele>67.8</ele>
        <time>2015-07-19T20:22:45Z</time>
      </trkpt>
      <trkpt lat="37.388136" lon="-122.152203">
        <ele>67.9</ele>
        <time>2015-07-19T20:22:47Z</time>
      </trkpt>
      <trkpt lat="37.388095" lon="-122.152246">
        <ele>68.3</ele>
        <time>2015-07-19T20:22:49Z</time>
      </trkpt>
      <trkpt lat="37.388073" lon="-122.152266">
        <ele>68.5</ele>
        <time>2015-07-19T20:22:50Z</time>
      </trkpt>
      <trkpt lat="37.388045" lon="-122.152287">
        <ele>68.8</ele>
        <time>2015-07-19T20:22:51Z</time>
      </trkpt>
      <trkpt lat="37.388017" lon="-122.152301">
        <ele>68.6</ele>
        <time>2015-07-19T20:22:52Z</time>
      </trkpt>
      <trkpt lat="37.387979" lon="-122.152313">
        <ele>68.5</ele>
        <time>2015-07-19T20:22:53Z</time>
      </trkpt>
      <trkpt lat="37.387945" lon="-122.152328">
        <ele>68.3</ele>
        <time>2015-07-19T20:22:54Z</time>
      </trkpt>
      <trkpt lat="37.387901" lon="-122.152351">
        <ele>68.5</ele>
        <time>2015-07-19T20:22:55Z</time>
      </trkpt>
      <trkpt lat="37.387867" lon="-122.152362">
        <ele>68.1</ele>
        <time>2015-07-19T20:22:56Z</time>
      </trkpt>
      <trkpt lat="37.387829" lon="-122.152367">
        <ele>67.9</ele>
        <time>2015-07-19T20:22:57Z</time>
      </trkpt>
      <trkpt lat="37.387798" lon="-122.152372">
        <ele>67.7</ele>
        <time>2015-07-19T20:22:58Z</time>
      </trkpt>
      <trkpt lat="37.387755" lon="-122.152381">
        <ele>67.4</ele>
        <time>2015-07-19T20:22:59Z</time>
      </trkpt>
      <trkpt lat="37.387704" lon="-122.15238">
        <ele>67.1</ele>
        <time>2015-07-19T20:23:00Z</time>
      </trkpt>
      <trkpt lat="37.387657" lon="-122.152373">
        <ele>66.8</ele>
        <time>2015-07-19T20:23:01Z</time>
      </trkpt>
      <trkpt lat="37.387594" lon="-122.15236">
        <ele>66.5</ele>
        <time>2015-07-19T20:23:02Z</time>
      </trkpt>
      <trkpt lat="37.387533" lon="-122.152344">
        <ele>66.4</ele>
        <time>2015-07-19T20:23:03Z</time>
      </trkpt>
      <trkpt lat="37.38748" lon="-122.152335">
        <ele>66.3</ele>
        <time>2015-07-19T20:23:04Z</time>
      </trkpt>
      <trkpt lat="37.38744" lon="-122.152331">
        <ele>66.4</ele>
        <time>2015-07-19T20:23:05Z</time>
      </trkpt>
      <trkpt lat="37.387411" lon="-122.15236">
        <ele>65.9</ele>
        <time>2015-07-19T20:23:06Z</time>
      </trkpt>
      <trkpt lat="37.387358" lon="-122.152363">
        <ele>66.3</ele>
        <time>2015-07-19T20:23:07Z</time>
      </trkpt>
      <trkpt lat="37.387315" lon="-122.152367">
        <ele>66.6</ele>
        <time>2015-07-19T20:23:08Z</time>
      </trkpt>
      <trkpt lat="37.387241" lon="-122.152288">
        <ele>66.9</ele>
        <time>2015-07-19T20:23:09Z</time>
      </trkpt>
      <trkpt lat="37.387195" lon="-122.152341">
        <ele>67.1</ele>
        <time>2015-07-19T20:23:10Z</time>
      </trkpt>
      <trkpt lat="37.387171" lon="-122.152371">
        <ele>67.2</ele>
        <time>2015-07-19T20:23:11Z</time>
      </trkpt>
      <trkpt lat="37.387142" lon="-122.15241">
        <ele>67.2</ele>
        <time>2015-07-19T20:23:12Z</time>
      </trkpt>
      <trkpt lat="37.387118" lon="-122.152444">
        <ele>67.4</ele>
        <time>2015-07-19T20:23:13Z</time>
      </trkpt>
      <trkpt lat="37.387095" lon="-122.152474">
        <ele>67.5</ele>
        <time>2015-07-19T20:23:14Z</time>
      </trkpt>
      <trkpt lat="37.387038" lon="-122.152531">
        <ele>67.9</ele>
        <time>2015-07-19T20:23:17Z</time>
      </trkpt>
      <trkpt lat="37.387011" lon="-122.152419">
        <ele>68.1</ele>
        <time>2015-07-19T20:23:18Z</time>
      </trkpt>
      <trkpt lat="37.387069" lon="-122.152476">
        <ele>67.6</ele>
        <time>2015-07-19T20:23:21Z</time>
      </trkpt>
      <trkpt lat="37.386925" lon="-122.152682">
        <ele>68.8</ele>
        <time>2015-07-19T20:23:24Z</time>
      </trkpt>
      <trkpt lat="37.386909" lon="-122.152711">
        <ele>68.9</ele>
        <time>2015-07-19T20:23:25Z</time>
      </trkpt>
      <trkpt lat="37.386887" lon="-122.152753">
        <ele>69.1</ele>
        <time>2015-07-19T20:23:27Z</time>
      </trkpt>
      <trkpt lat="37.386855" lon="-122.152803">
        <ele>69.4</ele>
        <time>2015-07-19T20:23:29Z</time>
      </trkpt>
      <trkpt lat="37.386837" lon="-122.152829">
        <ele>69.6</ele>
        <time>2015-07-19T20:23:30Z</time>
      </trkpt>
      <trkpt lat="37.386802" lon="-122.152892">
        <ele>69.9</ele>
        <time>2015-07-19T20:23:32Z</time>
      </trkpt>
      <trkpt lat="37.386782" lon="-122.152929">
        <ele>70.1</ele>
        <time>2015-07-19T20:23:33Z</time>
      </trkpt>
      <trkpt lat="37.386764" lon="-122.152964">
        <ele>70.3</ele>
        <time>2015-07-19T20:23:34Z</time>
      </trkpt>
      <trkpt lat="37.386748" lon="-122.152994">
        <ele>70.6</ele>
        <time>2015-07-19T20:23:35Z</time>
      </trkpt>
      <trkpt lat="37.386733" lon="-122.153029">
        <ele>70.8</ele>
        <time>2015-07-19T20:23:36Z</time>
      </trkpt>
      <trkpt lat="37.386723" lon="-122.15307">
        <ele>70.9</ele>
        <time>2015-07-19T20:23:37Z</time>
      </trkpt>
      <trkpt lat="37.386699" lon="-122.15313">
        <ele>71.2</ele>
        <time>2015-07-19T20:23:39Z</time>
      </trkpt>
      <trkpt lat="37.386669" lon="-122.153191">
        <ele>71.6</ele>
        <time>2015-07-19T20:23:41Z</time>
      </trkpt>
      <trkpt lat="37.38665" lon="-122.153223">
        <ele>71.8</ele>
        <time>2015-07-19T20:23:42Z</time>
      </trkpt>
      <trkpt lat="37.386618" lon="-122.153268">
        <ele>72.1</ele>
        <time>2015-07-19T20:23:44Z</time>
      </trkpt>
      <trkpt lat="37.386592" lon="-122.153305">
        <ele>72.4</ele>
        <time>2015-07-19T20:23:46Z</time>
      </trkpt>
      <trkpt lat="37.386567" lon="-122.153353">
        <ele>73.1</ele>
        <time>2015-07-19T20:23:48Z</time>
      </trkpt>
      <trkpt lat="37.386546" lon="-122.153411">
        <ele>74.7</ele>
        <time>2015-07-19T20:23:50Z</time>
      </trkpt>
      <trkpt lat="37.386527" lon="-122.153486">
        <ele>75.1</ele>
        <time>2015-07-19T20:23:52Z</time>
      </trkpt>
      <trkpt lat="37.386512" lon="-122.153527">
        <ele>74.1</ele>
        <time>2015-07-19T20:23:53Z</time>
      </trkpt>
      <trkpt lat="37.3865" lon="-122.153564">
        <ele>73.7</ele>
        <time>2015-07-19T20:23:54Z</time>
      </trkpt>
      <trkpt lat="37.386494" lon="-122.153617">
        <ele>73.8</ele>
        <time>2015-07-19T20:23:55Z</time>
      </trkpt>
      <trkpt lat="37.386498" lon="-122.153656">
        <ele>74.6</ele>
        <time>2015-07-19T20:23:56Z</time>
      </trkpt>
      <trkpt lat="37.386495" lon="-122.153702">
        <ele>76.4</ele>
        <time>2015-07-19T20:23:57Z</time>
      </trkpt>
      <trkpt lat="37.386458" lon="-122.153748">
        <ele>76.5</ele>
        <time>2015-07-19T20:23:59Z</time>
      </trkpt>
      <trkpt lat="37.386439" lon="-122.153797">
        <ele>76.5</ele>
        <time>2015-07-19T20:24:01Z</time>
      </trkpt>
      <trkpt lat="37.386411" lon="-122.153818">
        <ele>76.1</ele>
        <time>2015-07-19T20:24:03Z</time>
      </trkpt>
      <trkpt lat="37.386395" lon="-122.153855">
        <ele>76.2</ele>
        <time>2015-07-19T20:24:04Z</time>
      </trkpt>
      <trkpt lat="37.386396" lon="-122.15389">
        <ele>76.4</ele>
        <time>2015-07-19T20:24:06Z</time>
      </trkpt>
      <trkpt lat="37.386397" lon="-122.153926">
        <ele>76.7</ele>
        <time>2015-07-19T20:24:07Z</time>
      </trkpt>
      <trkpt lat="37.386401" lon="-122.154006">
        <ele>77.2</ele>
        <time>2015-07-19T20:24:09Z</time>
      </trkpt>
      <trkpt lat="37.386409" lon="-122.154059">
        <ele>77.6</ele>
        <time>2015-07-19T20:24:10Z</time>
      </trkpt>
      <trkpt lat="37.386422" lon="-122.154126">
        <ele>78.1</ele>
        <time>2015-07-19T20:24:12Z</time>
      </trkpt>
      <trkpt lat="37.386429" lon="-122.154162">
        <ele>78.4</ele>
        <time>2015-07-19T20:24:13Z</time>
      </trkpt>
      <trkpt lat="37.386441" lon="-122.154207">
        <ele>78.8</ele>
        <time>2015-07-19T20:24:14Z</time>
      </trkpt>
      <trkpt lat="37.386455" lon="-122.15425">
        <ele>79.1</ele>
        <time>2015-07-19T20:24:15Z</time>
      </trkpt>
      <trkpt lat="37.386477" lon="-122.154298">
        <ele>79.5</ele>
        <time>2015-07-19T20:24:16Z</time>
      </trkpt>
      <trkpt lat="37.386496" lon="-122.15434">
        <ele>79.9</ele>
        <time>2015-07-19T20:24:17Z</time>
      </trkpt>
      <trkpt lat="37.386513" lon="-122.154375">
        <ele>80.2</ele>
        <time>2015-07-19T20:24:18Z</time>
      </trkpt>
      <trkpt lat="37.386535" lon="-122.154417">
        <ele>80.6</ele>
        <time>2015-07-19T20:24:19Z</time>
      </trkpt>
      <trkpt lat="37.386578" lon="-122.154486">
        <ele>81.4</ele>
        <time>2015-07-19T20:24:21Z</time>
      </trkpt>
      <trkpt lat="37.386601" lon="-122.154521">
        <ele>81.8</ele>
        <time>2015-07-19T20:24:22Z</time>
      </trkpt>
      <trkpt lat="37.386611" lon="-122.154562">
        <ele>82.2</ele>
        <time>2015-07-19T20:24:23Z</time>
      </trkpt>
      <trkpt lat="37.386629" lon="-122.154593">
        <ele>82.5</ele>
        <time>2015-07-19T20:24:24Z</time>
      </trkpt>
      <trkpt lat="37.386659" lon="-122.154651">
        <ele>83.2</ele>
        <time>2015-07-19T20:24:26Z</time>
      </trkpt>
      <trkpt lat="37.386691" lon="-122.154695">
        <ele>83.7</ele>
        <time>2015-07-19T20:24:28Z</time>
      </trkpt>
      <trkpt lat="37.386721" lon="-122.154705">
        <ele>83.9</ele>
        <time>2015-07-19T20:24:29Z</time>
      </trkpt>
      <trkpt lat="37.386747" lon="-122.15475">
        <ele>84.4</ele>
        <time>2015-07-19T20:24:31Z</time>
      </trkpt>
      <trkpt lat="37.38677" lon="-122.154786">
        <ele>84.8</ele>
        <time>2015-07-19T20:24:33Z</time>
      </trkpt>
      <trkpt lat="37.386875" lon="-122.154925">
        <ele>86.5</ele>
        <time>2015-07-19T20:24:39Z</time>
      </trkpt>
      <trkpt lat="37.386905" lon="-122.154969">
        <ele>87.1</ele>
        <time>2015-07-19T20:24:41Z</time>
      </trkpt>
      <trkpt lat="37.386931" lon="-122.155013">
        <ele>87.5</ele>
        <time>2015-07-19T20:24:43Z</time>
      </trkpt>
      <trkpt lat="37.386966" lon="-122.155056">
        <ele>88.1</ele>
        <time>2015-07-19T20:24:45Z</time>
      </trkpt>
      <trkpt lat="37.386999" lon="-122.155101">
        <ele>88.6</ele>
        <time>2015-07-19T20:24:47Z</time>
      </trkpt>
      <trkpt lat="37.387023" lon="-122.155149">
        <ele>89.1</ele>
        <time>2015-07-19T20:24:49Z</time>
      </trkpt>
      <trkpt lat="37.387047" lon="-122.155196">
        <ele>89.6</ele>
        <time>2015-07-19T20:24:51Z</time>
      </trkpt>
      <trkpt lat="37.387083" lon="-122.155247">
        <ele>90.2</ele>
        <time>2015-07-19T20:24:53Z</time>
      </trkpt>
      <trkpt lat="37.387105" lon="-122.155271">
        <ele>90.5</ele>
        <time>2015-07-19T20:24:54Z</time>
      </trkpt>
      <trkpt lat="37.387136" lon="-122.155315">
        <ele>91</ele>
        <time>2015-07-19T20:24:56Z</time>
      </trkpt>
      <trkpt lat="37.387163" lon="-122.155357">
        <ele>91.5</ele>
        <time>2015-07-19T20:24:58Z</time>
      </trkpt>
      <trkpt lat="37.387182" lon="-122.155404">
        <ele>91.8</ele>
        <time>2015-07-19T20:25:00Z</time>
      </trkpt>
      <trkpt lat="37.387209" lon="-122.155461">
        <ele>92.3</ele>
        <time>2015-07-19T20:25:02Z</time>
      </trkpt>
      <trkpt lat="37.387225" lon="-122.155491">
        <ele>92.6</ele>
        <time>2015-07-19T20:25:03Z</time>
      </trkpt>
      <trkpt lat="37.387253" lon="-122.155544">
        <ele>93.1</ele>
        <time>2015-07-19T20:25:05Z</time>
      </trkpt>
      <trkpt lat="37.387288" lon="-122.155593">
        <ele>93.5</ele>
        <time>2015-07-19T20:25:07Z</time>
      </trkpt>
      <trkpt lat="37.387321" lon="-122.155643">
        <ele>94</ele>
        <time>2015-07-19T20:25:09Z</time>
      </trkpt>
      <trkpt lat="37.387338" lon="-122.15567">
        <ele>94.2</ele>
        <time>2015-07-19T20:25:10Z</time>
      </trkpt>
      <trkpt lat="37.387373" lon="-122.155722">
        <ele>94.7</ele>
        <time>2015-07-19T20:25:12Z</time>
      </trkpt>
      <trkpt lat="37.387393" lon="-122.155749">
        <ele>94.9</ele>
        <time>2015-07-19T20:25:13Z</time>
      </trkpt>
      <trkpt lat="37.387413" lon="-122.155776">
        <ele>95.2</ele>
        <time>2015-07-19T20:25:14Z</time>
      </trkpt>
      <trkpt lat="37.387433" lon="-122.155804">
        <ele>95.4</ele>
        <time>2015-07-19T20:25:15Z</time>
      </trkpt>
      <trkpt lat="37.387453" lon="-122.155833">
        <ele>95.7</ele>
        <time>2015-07-19T20:25:16Z</time>
      </trkpt>
      <trkpt lat="37.387469" lon="-122.155862">
        <ele>95.9</ele>
        <time>2015-07-19T20:25:17Z</time>
      </trkpt>
      <trkpt lat="37.387484" lon="-122.155892">
        <ele>96.1</ele>
        <time>2015-07-19T20:25:18Z</time>
      </trkpt>
      <trkpt lat="37.387495" lon="-122.155924">
        <ele>96.2</ele>
        <time>2015-07-19T20:25:19Z</time>
      </trkpt>
      <trkpt lat="37.387519" lon="-122.155983">
        <ele>96.6</ele>
        <time>2015-07-19T20:25:21Z</time>
      </trkpt>
      <trkpt lat="37.38753" lon="-122.156015">
        <ele>96.8</ele>
        <time>2015-07-19T20:25:22Z</time>
      </trkpt>
      <trkpt lat="37.387555" lon="-122.156073">
        <ele>97.1</ele>
        <time>2015-07-19T20:25:24Z</time>
      </trkpt>
      <trkpt lat="37.387588" lon="-122.156129">
        <ele>97.5</ele>
        <time>2015-07-19T20:25:26Z</time>
      </trkpt>
      <trkpt lat="37.387604" lon="-122.156164">
        <ele>97.7</ele>
        <time>2015-07-19T20:25:27Z</time>
      </trkpt>
      <trkpt lat="37.387628" lon="-122.156219">
        <ele>98</ele>
        <time>2015-07-19T20:25:29Z</time>
      </trkpt>
      <trkpt lat="37.387646" lon="-122.156274">
        <ele>98.2</ele>
        <time>2015-07-19T20:25:31Z</time>
      </trkpt>
      <trkpt lat="37.387661" lon="-122.156324">
        <ele>98.4</ele>
        <time>2015-07-19T20:25:33Z</time>
      </trkpt>
      <trkpt lat="37.387676" lon="-122.156353">
        <ele>98.6</ele>
        <time>2015-07-19T20:25:35Z</time>
      </trkpt>
      <trkpt lat="37.387691" lon="-122.156387">
        <ele>98.7</ele>
        <time>2015-07-19T20:25:38Z</time>
      </trkpt>
      <trkpt lat="37.387705" lon="-122.156424">
        <ele>98.8</ele>
        <time>2015-07-19T20:25:46Z</time>
      </trkpt>
      <trkpt lat="37.387713" lon="-122.156467">
        <ele>98.9</ele>
        <time>2015-07-19T20:25:48Z</time>
      </trkpt>
      <trkpt lat="37.387721" lon="-122.156521">
        <ele>99</ele>
        <time>2015-07-19T20:25:50Z</time>
      </trkpt>
      <trkpt lat="37.387736" lon="-122.156574">
        <ele>99.2</ele>
        <time>2015-07-19T20:25:52Z</time>
      </trkpt>
      <trkpt lat="37.387753" lon="-122.156629">
        <ele>99.3</ele>
        <time>2015-07-19T20:25:54Z</time>
      </trkpt>
      <trkpt lat="37.38777" lon="-122.156683">
        <ele>99.5</ele>
        <time>2015-07-19T20:25:56Z</time>
      </trkpt>
      <trkpt lat="37.387789" lon="-122.156747">
        <ele>99.6</ele>
        <time>2015-07-19T20:25:58Z</time>
      </trkpt>
      <trkpt lat="37.3878" lon="-122.156779">
        <ele>99.7</ele>
        <time>2015-07-19T20:25:59Z</time>
      </trkpt>
      <trkpt lat="37.387814" lon="-122.156835">
        <ele>99.7</ele>
        <time>2015-07-19T20:26:01Z</time>
      </trkpt>
      <trkpt lat="37.387828" lon="-122.156882">
        <ele>99.8</ele>
        <time>2015-07-19T20:26:03Z</time>
      </trkpt>
      <trkpt lat="37.387843" lon="-122.156914">
        <ele>99.9</ele>
        <time>2015-07-19T20:26:04Z</time>
      </trkpt>
      <trkpt lat="37.387863" lon="-122.15697">
        <ele>99.9</ele>
        <time>2015-07-19T20:26:06Z</time>
      </trkpt>
      <trkpt lat="37.387887" lon="-122.15702">
        <ele>100</ele>
        <time>2015-07-19T20:26:08Z</time>
      </trkpt>
      <trkpt lat="37.387899" lon="-122.157051">
        <ele>100</ele>
        <time>2015-07-19T20:26:09Z</time>
      </trkpt>
      <trkpt lat="37.387921" lon="-122.157079">
        <ele>99.9</ele>
        <time>2015-07-19T20:26:11Z</time>
      </trkpt>
      <trkpt lat="37.387959" lon="-122.157296">
        <ele>99.7</ele>
        <time>2015-07-19T20:26:18Z</time>
      </trkpt>
      <trkpt lat="37.387964" lon="-122.157337">
        <ele>99.7</ele>
        <time>2015-07-19T20:26:20Z</time>
      </trkpt>
      <trkpt lat="37.387929" lon="-122.157349">
        <ele>99.7</ele>
        <time>2015-07-19T20:26:23Z</time>
      </trkpt>
      <trkpt lat="37.387936" lon="-122.157403">
        <ele>99.6</ele>
        <time>2015-07-19T20:26:28Z</time>
      </trkpt>
      <trkpt lat="37.387946" lon="-122.157445">
        <ele>99.5</ele>
        <time>2015-07-19T20:26:29Z</time>
      </trkpt>
      <trkpt lat="37.387963" lon="-122.157496">
        <ele>99.5</ele>
        <time>2015-07-19T20:26:30Z</time>
      </trkpt>
      <trkpt lat="37.387974" lon="-122.157535">
        <ele>99.4</ele>
        <time>2015-07-19T20:26:31Z</time>
      </trkpt>
      <trkpt lat="37.387987" lon="-122.157573">
        <ele>99.3</ele>
        <time>2015-07-19T20:26:32Z</time>
      </trkpt>
      <trkpt lat="37.387996" lon="-122.15762">
        <ele>99.2</ele>
        <time>2015-07-19T20:26:33Z</time>
      </trkpt>
      <trkpt lat="37.388" lon="-122.157663">
        <ele>99.2</ele>
        <time>2015-07-19T20:26:34Z</time>
      </trkpt>
      <trkpt lat="37.388005" lon="-122.157709">
        <ele>99</ele>
        <time>2015-07-19T20:26:35Z</time>
      </trkpt>
      <trkpt lat="37.388015" lon="-122.157763">
        <ele>98.9</ele>
        <time>2015-07-19T20:26:36Z</time>
      </trkpt>
      <trkpt lat="37.388021" lon="-122.15782">
        <ele>98.8</ele>
        <time>2015-07-19T20:26:37Z</time>
      </trkpt>
      <trkpt lat="37.38805" lon="-122.157868">
        <ele>98.6</ele>
        <time>2015-07-19T20:26:38Z</time>
      </trkpt>
      <trkpt lat="37.38807" lon="-122.157927">
        <ele>98.4</ele>
        <time>2015-07-19T20:26:39Z</time>
      </trkpt>
      <trkpt lat="37.388074" lon="-122.157987">
        <ele>98.2</ele>
        <time>2015-07-19T20:26:40Z</time>
      </trkpt>
      <trkpt lat="37.388082" lon="-122.158046">
        <ele>98</ele>
        <time>2015-07-19T20:26:41Z</time>
      </trkpt>
      <trkpt lat="37.388097" lon="-122.158121">
        <ele>97.8</ele>
        <time>2015-07-19T20:26:42Z</time>
      </trkpt>
      <trkpt lat="37.388106" lon="-122.158192">
        <ele>97.5</ele>
        <time>2015-07-19T20:26:43Z</time>
      </trkpt>
      <trkpt lat="37.388137" lon="-122.158263">
        <ele>97.1</ele>
        <time>2015-07-19T20:26:44Z</time>
      </trkpt>
      <trkpt lat="37.388158" lon="-122.158352">
        <ele>96.6</ele>
        <time>2015-07-19T20:26:45Z</time>
      </trkpt>
      <trkpt lat="37.388171" lon="-122.158433">
        <ele>96.2</ele>
        <time>2015-07-19T20:26:46Z</time>
      </trkpt>
      <trkpt lat="37.388192" lon="-122.15852">
        <ele>95.8</ele>
        <time>2015-07-19T20:26:47Z</time>
      </trkpt>
      <trkpt lat="37.388215" lon="-122.1586">
        <ele>95.3</ele>
        <time>2015-07-19T20:26:48Z</time>
      </trkpt>
      <trkpt lat="37.388237" lon="-122.158698">
        <ele>94.8</ele>
        <time>2015-07-19T20:26:49Z</time>
      </trkpt>
      <trkpt lat="37.388261" lon="-122.158792">
        <ele>94.3</ele>
        <time>2015-07-19T20:26:50Z</time>
      </trkpt>
      <trkpt lat="37.388285" lon="-122.158885">
        <ele>93.8</ele>
        <time>2015-07-19T20:26:51Z</time>
      </trkpt>
      <trkpt lat="37.388302" lon="-122.158976">
        <ele>93.2</ele>
        <time>2015-07-19T20:26:52Z</time>
      </trkpt>
      <trkpt lat="37.388323" lon="-122.159079">
        <ele>92.7</ele>
        <time>2015-07-19T20:26:53Z</time>
      </trkpt>
      <trkpt lat="37.388337" lon="-122.159187">
        <ele>92.2</ele>
        <time>2015-07-19T20:26:54Z</time>
      </trkpt>
      <trkpt lat="37.388364" lon="-122.159239">
        <ele>91.8</ele>
        <time>2015-07-19T20:26:55Z</time>
      </trkpt>
      <trkpt lat="37.388402" lon="-122.159411">
        <ele>90.6</ele>
        <time>2015-07-19T20:26:56Z</time>
      </trkpt>
      <trkpt lat="37.388418" lon="-122.159531">
        <ele>89.9</ele>
        <time>2015-07-19T20:26:57Z</time>
      </trkpt>
      <trkpt lat="37.388431" lon="-122.159651">
        <ele>89.3</ele>
        <time>2015-07-19T20:26:58Z</time>
      </trkpt>
      <trkpt lat="37.388444" lon="-122.159779">
        <ele>88.8</ele>
        <time>2015-07-19T20:26:59Z</time>
      </trkpt>
      <trkpt lat="37.388457" lon="-122.159906">
        <ele>88.1</ele>
        <time>2015-07-19T20:27:00Z</time>
      </trkpt>
      <trkpt lat="37.388469" lon="-122.160022">
        <ele>87.6</ele>
        <time>2015-07-19T20:27:01Z</time>
      </trkpt>
      <trkpt lat="37.388484" lon="-122.160168">
        <ele>87.2</ele>
        <time>2015-07-19T20:27:02Z</time>
      </trkpt>
      <trkpt lat="37.388496" lon="-122.160294">
        <ele>86.8</ele>
        <time>2015-07-19T20:27:03Z</time>
      </trkpt>
      <trkpt lat="37.388505" lon="-122.16041">
        <ele>86.7</ele>
        <time>2015-07-19T20:27:04Z</time>
      </trkpt>
      <trkpt lat="37.388515" lon="-122.160531">
        <ele>85.9</ele>
        <time>2015-07-19T20:27:05Z</time>
      </trkpt>
      <trkpt lat="37.388524" lon="-122.160644">
        <ele>86</ele>
        <time>2015-07-19T20:27:06Z</time>
      </trkpt>
      <trkpt lat="37.388535" lon="-122.160776">
        <ele>85.4</ele>
        <time>2015-07-19T20:27:07Z</time>
      </trkpt>
      <trkpt lat="37.388545" lon="-122.160903">
        <ele>85.2</ele>
        <time>2015-07-19T20:27:08Z</time>
      </trkpt>
      <trkpt lat="37.388553" lon="-122.161011">
        <ele>84.9</ele>
        <time>2015-07-19T20:27:09Z</time>
      </trkpt>
      <trkpt lat="37.388563" lon="-122.16115">
        <ele>84.5</ele>
        <time>2015-07-19T20:27:10Z</time>
      </trkpt>
      <trkpt lat="37.388575" lon="-122.161315">
        <ele>83.8</ele>
        <time>2015-07-19T20:27:11Z</time>
      </trkpt>
      <trkpt lat="37.388584" lon="-122.161465">
        <ele>83.1</ele>
        <time>2015-07-19T20:27:12Z</time>
      </trkpt>
      <trkpt lat="37.388591" lon="-122.161603">
        <ele>82.2</ele>
        <time>2015-07-19T20:27:13Z</time>
      </trkpt>
      <trkpt lat="37.388595" lon="-122.161728">
        <ele>80.9</ele>
        <time>2015-07-19T20:27:14Z</time>
      </trkpt>
      <trkpt lat="37.388592" lon="-122.161834">
        <ele>80.8</ele>
        <time>2015-07-19T20:27:15Z</time>
      </trkpt>
      <trkpt lat="37.388589" lon="-122.161902">
        <ele>81.2</ele>
        <time>2015-07-19T20:27:16Z</time>
      </trkpt>
      <trkpt lat="37.388579" lon="-122.162026">
        <ele>81.8</ele>
        <time>2015-07-19T20:27:17Z</time>
      </trkpt>
      <trkpt lat="37.38856" lon="-122.162165">
        <ele>82.1</ele>
        <time>2015-07-19T20:27:18Z</time>
      </trkpt>
      <trkpt lat="37.388539" lon="-122.162299">
        <ele>82.5</ele>
        <time>2015-07-19T20:27:19Z</time>
      </trkpt>
      <trkpt lat="37.388502" lon="-122.162461">
        <ele>82.8</ele>
        <time>2015-07-19T20:27:20Z</time>
      </trkpt>
      <trkpt lat="37.388477" lon="-122.16255">
        <ele>82.5</ele>
        <time>2015-07-19T20:27:21Z</time>
      </trkpt>
      <trkpt lat="37.388456" lon="-122.162618">
        <ele>82</ele>
        <time>2015-07-19T20:27:22Z</time>
      </trkpt>
      <trkpt lat="37.388434" lon="-122.162683">
        <ele>81.4</ele>
        <time>2015-07-19T20:27:23Z</time>
      </trkpt>
      <trkpt lat="37.38839" lon="-122.162777">
        <ele>80.3</ele>
        <time>2015-07-19T20:27:24Z</time>
      </trkpt>
      <trkpt lat="37.38836" lon="-122.162838">
        <ele>79.6</ele>
        <time>2015-07-19T20:27:25Z</time>
      </trkpt>
      <trkpt lat="37.38833" lon="-122.162911">
        <ele>78.6</ele>
        <time>2015-07-19T20:27:26Z</time>
      </trkpt>
      <trkpt lat="37.388297" lon="-122.162992">
        <ele>77.6</ele>
        <time>2015-07-19T20:27:27Z</time>
      </trkpt>
      <trkpt lat="37.38827" lon="-122.163063">
        <ele>76.9</ele>
        <time>2015-07-19T20:27:28Z</time>
      </trkpt>
      <trkpt lat="37.388258" lon="-122.163114">
        <ele>76.3</ele>
        <time>2015-07-19T20:27:30Z</time>
      </trkpt>
      <trkpt lat="37.388225" lon="-122.16324">
        <ele>75.2</ele>
        <time>2015-07-19T20:27:31Z</time>
      </trkpt>
      <trkpt lat="37.38822" lon="-122.163274">
        <ele>74.9</ele>
        <time>2015-07-19T20:27:32Z</time>
      </trkpt>
      <trkpt lat="37.388216" lon="-122.163341">
        <ele>74.3</ele>
        <time>2015-07-19T20:27:33Z</time>
      </trkpt>
      <trkpt lat="37.388219" lon="-122.163422">
        <ele>73.6</ele>
        <time>2015-07-19T20:27:34Z</time>
      </trkpt>
      <trkpt lat="37.388221" lon="-122.16347">
        <ele>73.2</ele>
        <time>2015-07-19T20:27:35Z</time>
      </trkpt>
      <trkpt lat="37.388243" lon="-122.16349">
        <ele>73.1</ele>
        <time>2015-07-19T20:27:36Z</time>
      </trkpt>
      <trkpt lat="37.388222" lon="-122.163512">
        <ele>73.1</ele>
        <time>2015-07-19T20:27:38Z</time>
      </trkpt>
      <trkpt lat="37.388226" lon="-122.16358">
        <ele>73.1</ele>
        <time>2015-07-19T20:27:40Z</time>
      </trkpt>
      <trkpt lat="37.388229" lon="-122.16362">
        <ele>73.1</ele>
        <time>2015-07-19T20:27:41Z</time>
      </trkpt>
      <trkpt lat="37.388232" lon="-122.163656">
        <ele>73.2</ele>
        <time>2015-07-19T20:27:42Z</time>
      </trkpt>
      <trkpt lat="37.388235" lon="-122.163694">
        <ele>73.3</ele>
        <time>2015-07-19T20:27:44Z</time>
      </trkpt>
      <trkpt lat="37.388201" lon="-122.163714">
        <ele>73.3</ele>
        <time>2015-07-19T20:27:46Z</time>
      </trkpt>
      <trkpt lat="37.387957" lon="-122.163917">
        <ele>73.4</ele>
        <time>2015-07-19T20:27:49Z</time>
      </trkpt>
      <trkpt lat="37.387919" lon="-122.163911">
        <ele>73.6</ele>
        <time>2015-07-19T20:27:50Z</time>
      </trkpt>
      <trkpt lat="37.387867" lon="-122.163927">
        <ele>73.6</ele>
        <time>2015-07-19T20:27:51Z</time>
      </trkpt>
      <trkpt lat="37.387821" lon="-122.163928">
        <ele>73.6</ele>
        <time>2015-07-19T20:27:52Z</time>
      </trkpt>
      <trkpt lat="37.387766" lon="-122.163945">
        <ele>73.6</ele>
        <time>2015-07-19T20:27:53Z</time>
      </trkpt>
      <trkpt lat="37.387729" lon="-122.163965">
        <ele>73.6</ele>
        <time>2015-07-19T20:27:54Z</time>
      </trkpt>
      <trkpt lat="37.387665" lon="-122.163976">
        <ele>73.6</ele>
        <time>2015-07-19T20:27:55Z</time>
      </trkpt>
      <trkpt lat="37.387601" lon="-122.163983">
        <ele>73.6</ele>
        <time>2015-07-19T20:27:56Z</time>
      </trkpt>
      <trkpt lat="37.387535" lon="-122.164">
        <ele>73.6</ele>
        <time>2015-07-19T20:27:57Z</time>
      </trkpt>
      <trkpt lat="37.3875" lon="-122.163997">
        <ele>73.7</ele>
        <time>2015-07-19T20:27:58Z</time>
      </trkpt>
      <trkpt lat="37.387459" lon="-122.163985">
        <ele>73.7</ele>
        <time>2015-07-19T20:27:59Z</time>
      </trkpt>
      <trkpt lat="37.387421" lon="-122.164004">
        <ele>73.7</ele>
        <time>2015-07-19T20:28:00Z</time>
      </trkpt>
      <trkpt lat="37.387374" lon="-122.164005">
        <ele>73.8</ele>
        <time>2015-07-19T20:28:01Z</time>
      </trkpt>
      <trkpt lat="37.387314" lon="-122.163997">
        <ele>74</ele>
        <time>2015-07-19T20:28:02Z</time>
      </trkpt>
      <trkpt lat="37.38727" lon="-122.164013">
        <ele>74</ele>
        <time>2015-07-19T20:28:03Z</time>
      </trkpt>
      <trkpt lat="37.387229" lon="-122.164031">
        <ele>74</ele>
        <time>2015-07-19T20:28:04Z</time>
      </trkpt>
      <trkpt lat="37.387196" lon="-122.164049">
        <ele>74</ele>
        <time>2015-07-19T20:28:05Z</time>
      </trkpt>
      <trkpt lat="37.387157" lon="-122.164063">
        <ele>74.1</ele>
        <time>2015-07-19T20:28:06Z</time>
      </trkpt>
      <trkpt lat="37.387117" lon="-122.164091">
        <ele>74.1</ele>
        <time>2015-07-19T20:28:07Z</time>
      </trkpt>
      <trkpt lat="37.387076" lon="-122.164113">
        <ele>74.1</ele>
        <time>2015-07-19T20:28:08Z</time>
      </trkpt>
      <trkpt lat="37.387023" lon="-122.164142">
        <ele>74.2</ele>
        <time>2015-07-19T20:28:09Z</time>
      </trkpt>
      <trkpt lat="37.386982" lon="-122.164175">
        <ele>74.1</ele>
        <time>2015-07-19T20:28:10Z</time>
      </trkpt>
      <trkpt lat="37.386938" lon="-122.164196">
        <ele>74.2</ele>
        <time>2015-07-19T20:28:11Z</time>
      </trkpt>
      <trkpt lat="37.38688" lon="-122.164218">
        <ele>74.3</ele>
        <time>2015-07-19T20:28:12Z</time>
      </trkpt>
      <trkpt lat="37.386834" lon="-122.164246">
        <ele>74.4</ele>
        <time>2015-07-19T20:28:13Z</time>
      </trkpt>
      <trkpt lat="37.386791" lon="-122.164267">
        <ele>74.5</ele>
        <time>2015-07-19T20:28:14Z</time>
      </trkpt>
      <trkpt lat="37.386758" lon="-122.164289">
        <ele>74.5</ele>
        <time>2015-07-19T20:28:15Z</time>
      </trkpt>
      <trkpt lat="37.386725" lon="-122.164316">
        <ele>74.6</ele>
        <time>2015-07-19T20:28:16Z</time>
      </trkpt>
      <trkpt lat="37.386687" lon="-122.164345">
        <ele>74.6</ele>
        <time>2015-07-19T20:28:17Z</time>
      </trkpt>
      <trkpt lat="37.386662" lon="-122.164367">
        <ele>74.7</ele>
        <time>2015-07-19T20:28:18Z</time>
      </trkpt>
      <trkpt lat="37.38663" lon="-122.164394">
        <ele>74.7</ele>
        <time>2015-07-19T20:28:19Z</time>
      </trkpt>
      <trkpt lat="37.386599" lon="-122.164419">
        <ele>74.7</ele>
        <time>2015-07-19T20:28:20Z</time>
      </trkpt>
      <trkpt lat="37.386567" lon="-122.164453">
        <ele>74.7</ele>
        <time>2015-07-19T20:28:21Z</time>
      </trkpt>
      <trkpt lat="37.386533" lon="-122.164489">
        <ele>74.8</ele>
        <time>2015-07-19T20:28:22Z</time>
      </trkpt>
      <trkpt lat="37.386501" lon="-122.16452">
        <ele>74.8</ele>
        <time>2015-07-19T20:28:23Z</time>
      </trkpt>
      <trkpt lat="37.386472" lon="-122.16455">
        <ele>74.8</ele>
        <time>2015-07-19T20:28:24Z</time>
      </trkpt>
      <trkpt lat="37.386289" lon="-122.164725">
        <ele>74.9</ele>
        <time>2015-07-19T20:28:29Z</time>
      </trkpt>
      <trkpt lat="37.386257" lon="-122.164759">
        <ele>74.9</ele>
        <time>2015-07-19T20:28:30Z</time>
      </trkpt>
      <trkpt lat="37.386209" lon="-122.164795">
        <ele>75</ele>
        <time>2015-07-19T20:28:31Z</time>
      </trkpt>
      <trkpt lat="37.386165" lon="-122.164865">
        <ele>75</ele>
        <time>2015-07-19T20:28:32Z</time>
      </trkpt>
      <trkpt lat="37.38613" lon="-122.164897">
        <ele>75</ele>
        <time>2015-07-19T20:28:33Z</time>
      </trkpt>
      <trkpt lat="37.386092" lon="-122.164932">
        <ele>74.9</ele>
        <time>2015-07-19T20:28:34Z</time>
      </trkpt>
      <trkpt lat="37.386059" lon="-122.164973">
        <ele>74.9</ele>
        <time>2015-07-19T20:28:35Z</time>
      </trkpt>
      <trkpt lat="37.386021" lon="-122.165009">
        <ele>75.1</ele>
        <time>2015-07-19T20:28:36Z</time>
      </trkpt>
      <trkpt lat="37.385978" lon="-122.16504">
        <ele>75.1</ele>
        <time>2015-07-19T20:28:37Z</time>
      </trkpt>
      <trkpt lat="37.385938" lon="-122.165078">
        <ele>75.2</ele>
        <time>2015-07-19T20:28:38Z</time>
      </trkpt>
      <trkpt lat="37.385902" lon="-122.165109">
        <ele>75.2</ele>
        <time>2015-07-19T20:28:39Z</time>
      </trkpt>
      <trkpt lat="37.385875" lon="-122.165134">
        <ele>75.3</ele>
        <time>2015-07-19T20:28:40Z</time>
      </trkpt>
      <trkpt lat="37.385842" lon="-122.165161">
        <ele>75.4</ele>
        <time>2015-07-19T20:28:41Z</time>
      </trkpt>
      <trkpt lat="37.38577" lon="-122.165224">
        <ele>75.3</ele>
        <time>2015-07-19T20:28:43Z</time>
      </trkpt>
      <trkpt lat="37.385737" lon="-122.165246">
        <ele>75.6</ele>
        <time>2015-07-19T20:28:44Z</time>
      </trkpt>
      <trkpt lat="37.385702" lon="-122.16527">
        <ele>75.7</ele>
        <time>2015-07-19T20:28:45Z</time>
      </trkpt>
      <trkpt lat="37.385634" lon="-122.165326">
        <ele>75.9</ele>
        <time>2015-07-19T20:28:47Z</time>
      </trkpt>
      <trkpt lat="37.385592" lon="-122.165362">
        <ele>76</ele>
        <time>2015-07-19T20:28:48Z</time>
      </trkpt>
      <trkpt lat="37.385552" lon="-122.165386">
        <ele>76.1</ele>
        <time>2015-07-19T20:28:49Z</time>
      </trkpt>
      <trkpt lat="37.385508" lon="-122.165418">
        <ele>76.2</ele>
        <time>2015-07-19T20:28:50Z</time>
      </trkpt>
      <trkpt lat="37.385472" lon="-122.165433">
        <ele>76.4</ele>
        <time>2015-07-19T20:28:51Z</time>
      </trkpt>
      <trkpt lat="37.38544" lon="-122.165446">
        <ele>76.5</ele>
        <time>2015-07-19T20:28:52Z</time>
      </trkpt>
      <trkpt lat="37.385409" lon="-122.165459">
        <ele>76.5</ele>
        <time>2015-07-19T20:28:53Z</time>
      </trkpt>
      <trkpt lat="37.385381" lon="-122.16547">
        <ele>76.5</ele>
        <time>2015-07-19T20:28:54Z</time>
      </trkpt>
      <trkpt lat="37.385353" lon="-122.165483">
        <ele>76.6</ele>
        <time>2015-07-19T20:28:55Z</time>
      </trkpt>
      <trkpt lat="37.385312" lon="-122.165506">
        <ele>76.8</ele>
        <time>2015-07-19T20:28:56Z</time>
      </trkpt>
      <trkpt lat="37.385273" lon="-122.165529">
        <ele>76.8</ele>
        <time>2015-07-19T20:28:57Z</time>
      </trkpt>
      <trkpt lat="37.385226" lon="-122.165555">
        <ele>77</ele>
        <time>2015-07-19T20:28:58Z</time>
      </trkpt>
      <trkpt lat="37.385186" lon="-122.16557">
        <ele>77</ele>
        <time>2015-07-19T20:28:59Z</time>
      </trkpt>
      <trkpt lat="37.385147" lon="-122.165585">
        <ele>77.1</ele>
        <time>2015-07-19T20:29:00Z</time>
      </trkpt>
      <trkpt lat="37.385108" lon="-122.1656">
        <ele>77.2</ele>
        <time>2015-07-19T20:29:01Z</time>
      </trkpt>
      <trkpt lat="37.385073" lon="-122.165609">
        <ele>77.3</ele>
        <time>2015-07-19T20:29:02Z</time>
      </trkpt>
      <trkpt lat="37.385034" lon="-122.165628">
        <ele>77.4</ele>
        <time>2015-07-19T20:29:03Z</time>
      </trkpt>
      <trkpt lat="37.384998" lon="-122.165647">
        <ele>77.5</ele>
        <time>2015-07-19T20:29:04Z</time>
      </trkpt>
      <trkpt lat="37.384905" lon="-122.1657">
        <ele>77.9</ele>
        <time>2015-07-19T20:29:06Z</time>
      </trkpt>
      <trkpt lat="37.384907" lon="-122.16575">
        <ele>78.1</ele>
        <time>2015-07-19T20:29:08Z</time>
      </trkpt>
      <trkpt lat="37.384908" lon="-122.165788">
        <ele>78.2</ele>
        <time>2015-07-19T20:29:09Z</time>
      </trkpt>
      <trkpt lat="37.38491" lon="-122.165845">
        <ele>78.4</ele>
        <time>2015-07-19T20:29:11Z</time>
      </trkpt>
      <trkpt lat="37.384912" lon="-122.16591">
        <ele>78.7</ele>
        <time>2015-07-19T20:29:13Z</time>
      </trkpt>
      <trkpt lat="37.384913" lon="-122.165952">
        <ele>78.9</ele>
        <time>2015-07-19T20:29:14Z</time>
      </trkpt>
      <trkpt lat="37.384915" lon="-122.166005">
        <ele>79.3</ele>
        <time>2015-07-19T20:29:15Z</time>
      </trkpt>
      <trkpt lat="37.384916" lon="-122.166053">
        <ele>79.6</ele>
        <time>2015-07-19T20:29:16Z</time>
      </trkpt>
      <trkpt lat="37.384918" lon="-122.166103">
        <ele>80.1</ele>
        <time>2015-07-19T20:29:17Z</time>
      </trkpt>
      <trkpt lat="37.384919" lon="-122.166142">
        <ele>80.3</ele>
        <time>2015-07-19T20:29:18Z</time>
      </trkpt>
      <trkpt lat="37.38492" lon="-122.166177">
        <ele>80.6</ele>
        <time>2015-07-19T20:29:20Z</time>
      </trkpt>
      <trkpt lat="37.384922" lon="-122.166251">
        <ele>81</ele>
        <time>2015-07-19T20:29:23Z</time>
      </trkpt>
      <trkpt lat="37.384924" lon="-122.166306">
        <ele>81.2</ele>
        <time>2015-07-19T20:29:24Z</time>
      </trkpt>
      <trkpt lat="37.384925" lon="-122.16635">
        <ele>81.3</ele>
        <time>2015-07-19T20:29:25Z</time>
      </trkpt>
      <trkpt lat="37.384927" lon="-122.166405">
        <ele>81.5</ele>
        <time>2015-07-19T20:29:26Z</time>
      </trkpt>
      <trkpt lat="37.384928" lon="-122.166451">
        <ele>81.6</ele>
        <time>2015-07-19T20:29:28Z</time>
      </trkpt>
      <trkpt lat="37.38493" lon="-122.166493">
        <ele>81.6</ele>
        <time>2015-07-19T20:29:29Z</time>
      </trkpt>
      <trkpt lat="37.384931" lon="-122.166544">
        <ele>81.6</ele>
        <time>2015-07-19T20:29:31Z</time>
      </trkpt>
      <trkpt lat="37.384933" lon="-122.166608">
        <ele>81.7</ele>
        <time>2015-07-19T20:29:32Z</time>
      </trkpt>
      <trkpt lat="37.384935" lon="-122.16666">
        <ele>81.7</ele>
        <time>2015-07-19T20:29:33Z</time>
      </trkpt>
      <trkpt lat="37.384936" lon="-122.166704">
        <ele>81.8</ele>
        <time>2015-07-19T20:29:34Z</time>
      </trkpt>
      <trkpt lat="37.384938" lon="-122.166764">
        <ele>81.8</ele>
        <time>2015-07-19T20:29:36Z</time>
      </trkpt>
      <trkpt lat="37.38494" lon="-122.166837">
        <ele>81.8</ele>
        <time>2015-07-19T20:29:39Z</time>
      </trkpt>
      <trkpt lat="37.384943" lon="-122.166897">
        <ele>81.9</ele>
        <time>2015-07-19T20:29:40Z</time>
      </trkpt>
      <trkpt lat="37.384944" lon="-122.166944">
        <ele>81.9</ele>
        <time>2015-07-19T20:29:41Z</time>
      </trkpt>
      <trkpt lat="37.384948" lon="-122.167044">
        <ele>82</ele>
        <time>2015-07-19T20:29:42Z</time>
      </trkpt>
      <trkpt lat="37.38495" lon="-122.1671">
        <ele>82</ele>
        <time>2015-07-19T20:29:45Z</time>
      </trkpt>
      <trkpt lat="37.384951" lon="-122.167142">
        <ele>82</ele>
        <time>2015-07-19T20:29:46Z</time>
      </trkpt>
      <trkpt lat="37.384953" lon="-122.1672">
        <ele>82.2</ele>
        <time>2015-07-19T20:29:47Z</time>
      </trkpt>
      <trkpt lat="37.384955" lon="-122.167269">
        <ele>82.3</ele>
        <time>2015-07-19T20:29:48Z</time>
      </trkpt>
      <trkpt lat="37.384957" lon="-122.167319">
        <ele>82.4</ele>
        <time>2015-07-19T20:29:49Z</time>
      </trkpt>
      <trkpt lat="37.384958" lon="-122.16736">
        <ele>82.5</ele>
        <time>2015-07-19T20:29:53Z</time>
      </trkpt>
      <trkpt lat="37.384941" lon="-122.167599">
        <ele>82.9</ele>
        <time>2015-07-19T20:29:58Z</time>
      </trkpt>
      <trkpt lat="37.384937" lon="-122.167647">
        <ele>83</ele>
        <time>2015-07-19T20:29:59Z</time>
      </trkpt>
      <trkpt lat="37.384933" lon="-122.167703">
        <ele>83</ele>
        <time>2015-07-19T20:30:00Z</time>
      </trkpt>
      <trkpt lat="37.38493" lon="-122.167766">
        <ele>83.1</ele>
        <time>2015-07-19T20:30:02Z</time>
      </trkpt>
      <trkpt lat="37.384927" lon="-122.167811">
        <ele>83.1</ele>
        <time>2015-07-19T20:30:03Z</time>
      </trkpt>
      <trkpt lat="37.384926" lon="-122.167866">
        <ele>83.1</ele>
        <time>2015-07-19T20:30:05Z</time>
      </trkpt>
      <trkpt lat="37.384928" lon="-122.167912">
        <ele>83.1</ele>
        <time>2015-07-19T20:30:06Z</time>
      </trkpt>
      <trkpt lat="37.384932" lon="-122.167956">
        <ele>83</ele>
        <time>2015-07-19T20:30:07Z</time>
      </trkpt>
      <trkpt lat="37.384936" lon="-122.168002">
        <ele>83</ele>
        <time>2015-07-19T20:30:08Z</time>
      </trkpt>
      <trkpt lat="37.384941" lon="-122.16804">
        <ele>83.1</ele>
        <time>2015-07-19T20:30:10Z</time>
      </trkpt>
      <trkpt lat="37.384947" lon="-122.168084">
        <ele>83.1</ele>
        <time>2015-07-19T20:30:12Z</time>
      </trkpt>
      <trkpt lat="37.384954" lon="-122.16813">
        <ele>83.1</ele>
        <time>2015-07-19T20:30:14Z</time>
      </trkpt>
      <trkpt lat="37.38496" lon="-122.168166">
        <ele>83.1</ele>
        <time>2015-07-19T20:30:15Z</time>
      </trkpt>
      <trkpt lat="37.384969" lon="-122.16823">
        <ele>83.1</ele>
        <time>2015-07-19T20:30:16Z</time>
      </trkpt>
      <trkpt lat="37.384977" lon="-122.168278">
        <ele>83.1</ele>
        <time>2015-07-19T20:30:17Z</time>
      </trkpt>
      <trkpt lat="37.385" lon="-122.168374">
        <ele>83.1</ele>
        <time>2015-07-19T20:30:19Z</time>
      </trkpt>
      <trkpt lat="37.385014" lon="-122.168431">
        <ele>83</ele>
        <time>2015-07-19T20:30:20Z</time>
      </trkpt>
      <trkpt lat="37.385028" lon="-122.168481">
        <ele>83.1</ele>
        <time>2015-07-19T20:30:21Z</time>
      </trkpt>
      <trkpt lat="37.385045" lon="-122.168542">
        <ele>83.2</ele>
        <time>2015-07-19T20:30:22Z</time>
      </trkpt>
      <trkpt lat="37.385056" lon="-122.168582">
        <ele>83.1</ele>
        <time>2015-07-19T20:30:23Z</time>
      </trkpt>
      <trkpt lat="37.385066" lon="-122.16862">
        <ele>83.2</ele>
        <time>2015-07-19T20:30:24Z</time>
      </trkpt>
      <trkpt lat="37.385087" lon="-122.168696">
        <ele>83.2</ele>
        <time>2015-07-19T20:30:26Z</time>
      </trkpt>
      <trkpt lat="37.385102" lon="-122.168749">
        <ele>83.3</ele>
        <time>2015-07-19T20:30:27Z</time>
      </trkpt>
      <trkpt lat="37.385117" lon="-122.168803">
        <ele>83.4</ele>
        <time>2015-07-19T20:30:28Z</time>
      </trkpt>
      <trkpt lat="37.385133" lon="-122.168861">
        <ele>83.5</ele>
        <time>2015-07-19T20:30:29Z</time>
      </trkpt>
      <trkpt lat="37.385145" lon="-122.168907">
        <ele>83.6</ele>
        <time>2015-07-19T20:30:30Z</time>
      </trkpt>
      <trkpt lat="37.385168" lon="-122.168989">
        <ele>83.8</ele>
        <time>2015-07-19T20:30:31Z</time>
      </trkpt>
      <trkpt lat="37.38519" lon="-122.16907">
        <ele>83.9</ele>
        <time>2015-07-19T20:30:32Z</time>
      </trkpt>
      <trkpt lat="37.385218" lon="-122.169171">
        <ele>84</ele>
        <time>2015-07-19T20:30:38Z</time>
      </trkpt>
      <trkpt lat="37.385242" lon="-122.169256">
        <ele>84.1</ele>
        <time>2015-07-19T20:30:40Z</time>
      </trkpt>
      <trkpt lat="37.385256" lon="-122.169306">
        <ele>84.1</ele>
        <time>2015-07-19T20:30:41Z</time>
      </trkpt>
      <trkpt lat="37.385271" lon="-122.169363">
        <ele>84.2</ele>
        <time>2015-07-19T20:30:42Z</time>
      </trkpt>
      <trkpt lat="37.385288" lon="-122.169424">
        <ele>84.3</ele>
        <time>2015-07-19T20:30:43Z</time>
      </trkpt>
      <trkpt lat="37.3853" lon="-122.169464">
        <ele>84.3</ele>
        <time>2015-07-19T20:30:45Z</time>
      </trkpt>
      <trkpt lat="37.385311" lon="-122.169499">
        <ele>84.3</ele>
        <time>2015-07-19T20:30:46Z</time>
      </trkpt>
      <trkpt lat="37.385324" lon="-122.16954">
        <ele>84.4</ele>
        <time>2015-07-19T20:30:47Z</time>
      </trkpt>
      <trkpt lat="37.385336" lon="-122.169575">
        <ele>84.4</ele>
        <time>2015-07-19T20:30:48Z</time>
      </trkpt>
      <trkpt lat="37.385361" lon="-122.169652">
        <ele>84.5</ele>
        <time>2015-07-19T20:30:50Z</time>
      </trkpt>
      <trkpt lat="37.385378" lon="-122.169701">
        <ele>84.5</ele>
        <time>2015-07-19T20:30:51Z</time>
      </trkpt>
      <trkpt lat="37.385392" lon="-122.169743">
        <ele>84.6</ele>
        <time>2015-07-19T20:30:52Z</time>
      </trkpt>
      <trkpt lat="37.385406" lon="-122.169783">
        <ele>84.6</ele>
        <time>2015-07-19T20:30:53Z</time>
      </trkpt>
      <trkpt lat="37.385494" lon="-122.170012">
        <ele>84.8</ele>
        <time>2015-07-19T20:30:59Z</time>
      </trkpt>
      <trkpt lat="37.385509" lon="-122.17005">
        <ele>84.9</ele>
        <time>2015-07-19T20:31:00Z</time>
      </trkpt>
      <trkpt lat="37.385527" lon="-122.170097">
        <ele>84.9</ele>
        <time>2015-07-19T20:31:01Z</time>
      </trkpt>
      <trkpt lat="37.385544" lon="-122.170141">
        <ele>85</ele>
        <time>2015-07-19T20:31:02Z</time>
      </trkpt>
      <trkpt lat="37.38556" lon="-122.170182">
        <ele>85.1</ele>
        <time>2015-07-19T20:31:03Z</time>
      </trkpt>
      <trkpt lat="37.385574" lon="-122.170219">
        <ele>85.2</ele>
        <time>2015-07-19T20:31:04Z</time>
      </trkpt>
      <trkpt lat="37.385588" lon="-122.170257">
        <ele>85.2</ele>
        <time>2015-07-19T20:31:05Z</time>
      </trkpt>
      <trkpt lat="37.385603" lon="-122.170296">
        <ele>85.3</ele>
        <time>2015-07-19T20:31:06Z</time>
      </trkpt>
      <trkpt lat="37.385618" lon="-122.170331">
        <ele>85.5</ele>
        <time>2015-07-19T20:31:07Z</time>
      </trkpt>
      <trkpt lat="37.385647" lon="-122.170396">
        <ele>85.7</ele>
        <time>2015-07-19T20:31:09Z</time>
      </trkpt>
      <trkpt lat="37.385664" lon="-122.170434">
        <ele>85.8</ele>
        <time>2015-07-19T20:31:10Z</time>
      </trkpt>
      <trkpt lat="37.385683" lon="-122.170475">
        <ele>85.9</ele>
        <time>2015-07-19T20:31:11Z</time>
      </trkpt>
      <trkpt lat="37.385697" lon="-122.170507">
        <ele>86</ele>
        <time>2015-07-19T20:31:12Z</time>
      </trkpt>
      <trkpt lat="37.385717" lon="-122.170551">
        <ele>86.1</ele>
        <time>2015-07-19T20:31:13Z</time>
      </trkpt>
      <trkpt lat="37.385733" lon="-122.170585">
        <ele>86.2</ele>
        <time>2015-07-19T20:31:14Z</time>
      </trkpt>
      <trkpt lat="37.38575" lon="-122.170623">
        <ele>86.3</ele>
        <time>2015-07-19T20:31:15Z</time>
      </trkpt>
      <trkpt lat="37.385765" lon="-122.170656">
        <ele>86.4</ele>
        <time>2015-07-19T20:31:16Z</time>
      </trkpt>
      <trkpt lat="37.38578" lon="-122.170689">
        <ele>86.4</ele>
        <time>2015-07-19T20:31:17Z</time>
      </trkpt>
      <trkpt lat="37.385797" lon="-122.170728">
        <ele>86.5</ele>
        <time>2015-07-19T20:31:18Z</time>
      </trkpt>
      <trkpt lat="37.38583" lon="-122.170801">
        <ele>86.6</ele>
        <time>2015-07-19T20:31:19Z</time>
      </trkpt>
      <trkpt lat="37.385847" lon="-122.170837">
        <ele>86.7</ele>
        <time>2015-07-19T20:31:20Z</time>
      </trkpt>
      <trkpt lat="37.385873" lon="-122.170894">
        <ele>86.8</ele>
        <time>2015-07-19T20:31:22Z</time>
      </trkpt>
      <trkpt lat="37.385888" lon="-122.170927">
        <ele>86.8</ele>
        <time>2015-07-19T20:31:23Z</time>
      </trkpt>
      <trkpt lat="37.38591" lon="-122.170977">
        <ele>86.9</ele>
        <time>2015-07-19T20:31:25Z</time>
      </trkpt>
      <trkpt lat="37.385924" lon="-122.171006">
        <ele>86.9</ele>
        <time>2015-07-19T20:31:26Z</time>
      </trkpt>
      <trkpt lat="37.385953" lon="-122.171072">
        <ele>87</ele>
        <time>2015-07-19T20:31:28Z</time>
      </trkpt>
      <trkpt lat="37.385971" lon="-122.171112">
        <ele>87</ele>
        <time>2015-07-19T20:31:29Z</time>
      </trkpt>
      <trkpt lat="37.385993" lon="-122.171163">
        <ele>87.1</ele>
        <time>2015-07-19T20:31:30Z</time>
      </trkpt>
      <trkpt lat="37.386014" lon="-122.171212">
        <ele>87.1</ele>
        <time>2015-07-19T20:31:31Z</time>
      </trkpt>
      <trkpt lat="37.386032" lon="-122.171258">
        <ele>87.2</ele>
        <time>2015-07-19T20:31:32Z</time>
      </trkpt>
      <trkpt lat="37.386047" lon="-122.171296">
        <ele>87.2</ele>
        <time>2015-07-19T20:31:33Z</time>
      </trkpt>
      <trkpt lat="37.386063" lon="-122.17134">
        <ele>87.3</ele>
        <time>2015-07-19T20:31:34Z</time>
      </trkpt>
      <trkpt lat="37.386075" lon="-122.171374">
        <ele>87.4</ele>
        <time>2015-07-19T20:31:35Z</time>
      </trkpt>
      <trkpt lat="37.386092" lon="-122.171423">
        <ele>87.5</ele>
        <time>2015-07-19T20:31:37Z</time>
      </trkpt>
      <trkpt lat="37.386102" lon="-122.171455">
        <ele>87.5</ele>
        <time>2015-07-19T20:31:41Z</time>
      </trkpt>
      <trkpt lat="37.386113" lon="-122.171489">
        <ele>87.5</ele>
        <time>2015-07-19T20:31:46Z</time>
      </trkpt>
      <trkpt lat="37.3861" lon="-122.171448">
        <ele>87.5</ele>
        <time>2015-07-19T20:31:49Z</time>
      </trkpt>
      <trkpt lat="37.386085" lon="-122.171401">
        <ele>87.4</ele>
        <time>2015-07-19T20:31:54Z</time>
      </trkpt>
      <trkpt lat="37.386069" lon="-122.171357">
        <ele>87.4</ele>
        <time>2015-07-19T20:31:58Z</time>
      </trkpt>
      <trkpt lat="37.386055" lon="-122.17132">
        <ele>87.3</ele>
        <time>2015-07-19T20:31:59Z</time>
      </trkpt>
      <trkpt lat="37.386073" lon="-122.171367">
        <ele>87.4</ele>
        <time>2015-07-19T20:32:04Z</time>
      </trkpt>
      <trkpt lat="37.386086" lon="-122.171405">
        <ele>87.4</ele>
        <time>2015-07-19T20:32:05Z</time>
      </trkpt>
      <trkpt lat="37.386099" lon="-122.171445">
        <ele>87.5</ele>
        <time>2015-07-19T20:32:06Z</time>
      </trkpt>
      <trkpt lat="37.386093" lon="-122.171428">
        <ele>87.5</ele>
        <time>2015-07-19T20:32:09Z</time>
      </trkpt>
      <trkpt lat="37.386099" lon="-122.171445">
        <ele>87.5</ele>
        <time>2015-07-19T20:32:11Z</time>
      </trkpt>
      <trkpt lat="37.386104" lon="-122.171462">
        <ele>87.5</ele>
        <time>2015-07-19T20:32:32Z</time>
      </trkpt>
      <trkpt lat="37.386109" lon="-122.171478">
        <ele>87.5</ele>
        <time>2015-07-19T20:32:41Z</time>
      </trkpt>
      <trkpt lat="37.386115" lon="-122.171495">
        <ele>87.5</ele>
        <time>2015-07-19T20:32:43Z</time>
      </trkpt>
      <trkpt lat="37.38612" lon="-122.171512">
        <ele>87.6</ele>
        <time>2015-07-19T20:32:49Z</time>
      </trkpt>
      <trkpt lat="37.386125" lon="-122.171529">
        <ele>87.6</ele>
        <time>2015-07-19T20:32:55Z</time>
      </trkpt>
      <trkpt lat="37.386131" lon="-122.171546">
        <ele>87.6</ele>
        <time>2015-07-19T20:32:59Z</time>
      </trkpt>
      <trkpt lat="37.386136" lon="-122.171563">
        <ele>87.6</ele>
        <time>2015-07-19T20:33:00Z</time>
      </trkpt>
      <trkpt lat="37.386124" lon="-122.171524">
        <ele>87.6</ele>
        <time>2015-07-19T20:33:05Z</time>
      </trkpt>
      <trkpt lat="37.386106" lon="-122.171467">
        <ele>87.5</ele>
        <time>2015-07-19T20:33:07Z</time>
      </trkpt>
      <trkpt lat="37.386094" lon="-122.171431">
        <ele>87.5</ele>
        <time>2015-07-19T20:33:08Z</time>
      </trkpt>
      <trkpt lat="37.386069" lon="-122.171358">
        <ele>87.4</ele>
        <time>2015-07-19T20:33:10Z</time>
      </trkpt>
      <trkpt lat="37.386056" lon="-122.17132">
        <ele>87.3</ele>
        <time>2015-07-19T20:33:11Z</time>
      </trkpt>
      <trkpt lat="37.386035" lon="-122.171265">
        <ele>87.2</ele>
        <time>2015-07-19T20:33:13Z</time>
      </trkpt>
      <trkpt lat="37.386022" lon="-122.171232">
        <ele>87.2</ele>
        <time>2015-07-19T20:33:14Z</time>
      </trkpt>
      <trkpt lat="37.386043" lon="-122.171286">
        <ele>87.2</ele>
        <time>2015-07-19T20:33:16Z</time>
      </trkpt>
      <trkpt lat="37.386065" lon="-122.171346">
        <ele>87.4</ele>
        <time>2015-07-19T20:33:17Z</time>
      </trkpt>
      <trkpt lat="37.386077" lon="-122.171378">
        <ele>87.4</ele>
        <time>2015-07-19T20:33:18Z</time>
      </trkpt>
      <trkpt lat="37.386089" lon="-122.171413">
        <ele>87.5</ele>
        <time>2015-07-19T20:33:19Z</time>
      </trkpt>
      <trkpt lat="37.386108" lon="-122.171473">
        <ele>87.5</ele>
        <time>2015-07-19T20:33:21Z</time>
      </trkpt>
      <trkpt lat="37.386092" lon="-122.171422">
        <ele>87.5</ele>
        <time>2015-07-19T20:33:25Z</time>
      </trkpt>
      <trkpt lat="37.38608" lon="-122.171386">
        <ele>87.4</ele>
        <time>2015-07-19T20:33:27Z</time>
      </trkpt>
      <trkpt lat="37.386069" lon="-122.171356">
        <ele>87.4</ele>
        <time>2015-07-19T20:33:29Z</time>
      </trkpt>
      <trkpt lat="37.386054" lon="-122.171315">
        <ele>87.3</ele>
        <time>2015-07-19T20:33:34Z</time>
      </trkpt>
      <trkpt lat="37.386042" lon="-122.171284">
        <ele>87.2</ele>
        <time>2015-07-19T20:33:39Z</time>
      </trkpt>
      <trkpt lat="37.38603" lon="-122.171252">
        <ele>87.2</ele>
        <time>2015-07-19T20:33:42Z</time>
      </trkpt>
      <trkpt lat="37.386043" lon="-122.171286">
        <ele>87.2</ele>
        <time>2015-07-19T20:33:58Z</time>
      </trkpt>
      <trkpt lat="37.386064" lon="-122.171342">
        <ele>87.4</ele>
        <time>2015-07-19T20:34:01Z</time>
      </trkpt>
      <trkpt lat="37.386083" lon="-122.171394">
        <ele>87.4</ele>
        <time>2015-07-19T20:34:03Z</time>
      </trkpt>
      <trkpt lat="37.386096" lon="-122.171435">
        <ele>87.5</ele>
        <time>2015-07-19T20:34:04Z</time>
      </trkpt>
      <trkpt lat="37.386116" lon="-122.171498">
        <ele>87.5</ele>
        <time>2015-07-19T20:34:06Z</time>
      </trkpt>
      <trkpt lat="37.386127" lon="-122.171533">
        <ele>87.6</ele>
        <time>2015-07-19T20:34:07Z</time>
      </trkpt>
      <trkpt lat="37.38614" lon="-122.171574">
        <ele>87.6</ele>
        <time>2015-07-19T20:34:08Z</time>
      </trkpt>
      <trkpt lat="37.386152" lon="-122.171615">
        <ele>87.6</ele>
        <time>2015-07-19T20:34:09Z</time>
      </trkpt>
      <trkpt lat="37.386164" lon="-122.171656">
        <ele>87.8</ele>
        <time>2015-07-19T20:34:10Z</time>
      </trkpt>
      <trkpt lat="37.386177" lon="-122.1717">
        <ele>87.8</ele>
        <time>2015-07-19T20:34:11Z</time>
      </trkpt>
      <trkpt lat="37.386188" lon="-122.171738">
        <ele>87.9</ele>
        <time>2015-07-19T20:34:12Z</time>
      </trkpt>
      <trkpt lat="37.386201" lon="-122.171782">
        <ele>88.1</ele>
        <time>2015-07-19T20:34:13Z</time>
      </trkpt>
      <trkpt lat="37.386212" lon="-122.171822">
        <ele>88.1</ele>
        <time>2015-07-19T20:34:14Z</time>
      </trkpt>
      <trkpt lat="37.386224" lon="-122.171869">
        <ele>88.2</ele>
        <time>2015-07-19T20:34:15Z</time>
      </trkpt>
      <trkpt lat="37.386235" lon="-122.171911">
        <ele>88.3</ele>
        <time>2015-07-19T20:34:16Z</time>
      </trkpt>
      <trkpt lat="37.386247" lon="-122.171954">
        <ele>88.1</ele>
        <time>2015-07-19T20:34:17Z</time>
      </trkpt>
      <trkpt lat="37.386257" lon="-122.171994">
        <ele>88.3</ele>
        <time>2015-07-19T20:34:18Z</time>
      </trkpt>
      <trkpt lat="37.386267" lon="-122.172032">
        <ele>88.3</ele>
        <time>2015-07-19T20:34:19Z</time>
      </trkpt>
      <trkpt lat="37.386278" lon="-122.172073">
        <ele>88.3</ele>
        <time>2015-07-19T20:34:20Z</time>
      </trkpt>
      <trkpt lat="37.386289" lon="-122.172113">
        <ele>88.4</ele>
        <time>2015-07-19T20:34:21Z</time>
      </trkpt>
      <trkpt lat="37.386299" lon="-122.17215">
        <ele>88.4</ele>
        <time>2015-07-19T20:34:22Z</time>
      </trkpt>
      <trkpt lat="37.386308" lon="-122.172185">
        <ele>88.4</ele>
        <time>2015-07-19T20:34:23Z</time>
      </trkpt>
      <trkpt lat="37.386317" lon="-122.172218">
        <ele>88.5</ele>
        <time>2015-07-19T20:34:24Z</time>
      </trkpt>
      <trkpt lat="37.386329" lon="-122.172263">
        <ele>88.5</ele>
        <time>2015-07-19T20:34:25Z</time>
      </trkpt>
      <trkpt lat="37.386339" lon="-122.172302">
        <ele>88.5</ele>
        <time>2015-07-19T20:34:26Z</time>
      </trkpt>
      <trkpt lat="37.386352" lon="-122.172351">
        <ele>88.6</ele>
        <time>2015-07-19T20:34:27Z</time>
      </trkpt>
      <trkpt lat="37.386363" lon="-122.172394">
        <ele>88.7</ele>
        <time>2015-07-19T20:34:28Z</time>
      </trkpt>
      <trkpt lat="37.386373" lon="-122.17243">
        <ele>88.7</ele>
        <time>2015-07-19T20:34:29Z</time>
      </trkpt>
      <trkpt lat="37.386383" lon="-122.172467">
        <ele>88.7</ele>
        <time>2015-07-19T20:34:30Z</time>
      </trkpt>
      <trkpt lat="37.386392" lon="-122.172501">
        <ele>88.8</ele>
        <time>2015-07-19T20:34:31Z</time>
      </trkpt>
      <trkpt lat="37.386403" lon="-122.172541">
        <ele>88.9</ele>
        <time>2015-07-19T20:34:32Z</time>
      </trkpt>
      <trkpt lat="37.386415" lon="-122.172582">
        <ele>89</ele>
        <time>2015-07-19T20:34:33Z</time>
      </trkpt>
      <trkpt lat="37.386424" lon="-122.172615">
        <ele>89.1</ele>
        <time>2015-07-19T20:34:34Z</time>
      </trkpt>
      <trkpt lat="37.386435" lon="-122.172652">
        <ele>89.2</ele>
        <time>2015-07-19T20:34:35Z</time>
      </trkpt>
      <trkpt lat="37.386446" lon="-122.17269">
        <ele>89.3</ele>
        <time>2015-07-19T20:34:36Z</time>
      </trkpt>
      <trkpt lat="37.386456" lon="-122.172725">
        <ele>89.5</ele>
        <time>2015-07-19T20:34:37Z</time>
      </trkpt>
      <trkpt lat="37.386468" lon="-122.172767">
        <ele>89.7</ele>
        <time>2015-07-19T20:34:38Z</time>
      </trkpt>
      <trkpt lat="37.386478" lon="-122.172804">
        <ele>89.8</ele>
        <time>2015-07-19T20:34:39Z</time>
      </trkpt>
      <trkpt lat="37.386489" lon="-122.172842">
        <ele>89.9</ele>
        <time>2015-07-19T20:34:40Z</time>
      </trkpt>
      <trkpt lat="37.386508" lon="-122.172908">
        <ele>90.2</ele>
        <time>2015-07-19T20:34:42Z</time>
      </trkpt>
      <trkpt lat="37.386517" lon="-122.172942">
        <ele>90.3</ele>
        <time>2015-07-19T20:34:43Z</time>
      </trkpt>
      <trkpt lat="37.386537" lon="-122.173011">
        <ele>90.6</ele>
        <time>2015-07-19T20:34:45Z</time>
      </trkpt>
      <trkpt lat="37.386547" lon="-122.173048">
        <ele>90.8</ele>
        <time>2015-07-19T20:34:46Z</time>
      </trkpt>
      <trkpt lat="37.386557" lon="-122.17308">
        <ele>91</ele>
        <time>2015-07-19T20:34:47Z</time>
      </trkpt>
      <trkpt lat="37.386567" lon="-122.173117">
        <ele>91.2</ele>
        <time>2015-07-19T20:34:48Z</time>
      </trkpt>
      <trkpt lat="37.386577" lon="-122.17315">
        <ele>91.3</ele>
        <time>2015-07-19T20:34:49Z</time>
      </trkpt>
      <trkpt lat="37.386586" lon="-122.173184">
        <ele>91.5</ele>
        <time>2015-07-19T20:34:50Z</time>
      </trkpt>
      <trkpt lat="37.386606" lon="-122.173255">
        <ele>91.9</ele>
        <time>2015-07-19T20:34:52Z</time>
      </trkpt>
      <trkpt lat="37.386618" lon="-122.173297">
        <ele>92</ele>
        <time>2015-07-19T20:34:53Z</time>
      </trkpt>
      <trkpt lat="37.38663" lon="-122.173339">
        <ele>92.1</ele>
        <time>2015-07-19T20:34:54Z</time>
      </trkpt>
      <trkpt lat="37.38664" lon="-122.173373">
        <ele>92.2</ele>
        <time>2015-07-19T20:34:55Z</time>
      </trkpt>
      <trkpt lat="37.386657" lon="-122.173433">
        <ele>92.2</ele>
        <time>2015-07-19T20:34:57Z</time>
      </trkpt>
      <trkpt lat="37.386667" lon="-122.173466">
        <ele>92.2</ele>
        <time>2015-07-19T20:34:58Z</time>
      </trkpt>
      <trkpt lat="37.386677" lon="-122.173501">
        <ele>92.2</ele>
        <time>2015-07-19T20:34:59Z</time>
      </trkpt>
      <trkpt lat="37.386688" lon="-122.17354">
        <ele>92.2</ele>
        <time>2015-07-19T20:35:00Z</time>
      </trkpt>
      <trkpt lat="37.386698" lon="-122.173575">
        <ele>92.1</ele>
        <time>2015-07-19T20:35:01Z</time>
      </trkpt>
      <trkpt lat="37.386707" lon="-122.173607">
        <ele>92.1</ele>
        <time>2015-07-19T20:35:02Z</time>
      </trkpt>
      <trkpt lat="37.386717" lon="-122.173643">
        <ele>92.1</ele>
        <time>2015-07-19T20:35:03Z</time>
      </trkpt>
      <trkpt lat="37.386728" lon="-122.173682">
        <ele>92.1</ele>
        <time>2015-07-19T20:35:04Z</time>
      </trkpt>
      <trkpt lat="37.386741" lon="-122.173732">
        <ele>92.1</ele>
        <time>2015-07-19T20:35:05Z</time>
      </trkpt>
      <trkpt lat="37.386756" lon="-122.173788">
        <ele>92</ele>
        <time>2015-07-19T20:35:06Z</time>
      </trkpt>
      <trkpt lat="37.386767" lon="-122.173826">
        <ele>91.9</ele>
        <time>2015-07-19T20:35:07Z</time>
      </trkpt>
      <trkpt lat="37.386776" lon="-122.173876">
        <ele>91.9</ele>
        <time>2015-07-19T20:35:08Z</time>
      </trkpt>
      <trkpt lat="37.386782" lon="-122.173923">
        <ele>91.8</ele>
        <time>2015-07-19T20:35:09Z</time>
      </trkpt>
      <trkpt lat="37.386787" lon="-122.173959">
        <ele>91.8</ele>
        <time>2015-07-19T20:35:10Z</time>
      </trkpt>
      <trkpt lat="37.386791" lon="-122.173998">
        <ele>91.9</ele>
        <time>2015-07-19T20:35:11Z</time>
      </trkpt>
      <trkpt lat="37.386796" lon="-122.17404">
        <ele>91.9</ele>
        <time>2015-07-19T20:35:12Z</time>
      </trkpt>
      <trkpt lat="37.386801" lon="-122.174086">
        <ele>91.9</ele>
        <time>2015-07-19T20:35:13Z</time>
      </trkpt>
      <trkpt lat="37.386807" lon="-122.174134">
        <ele>92</ele>
        <time>2015-07-19T20:35:14Z</time>
      </trkpt>
      <trkpt lat="37.386812" lon="-122.174178">
        <ele>92.1</ele>
        <time>2015-07-19T20:35:15Z</time>
      </trkpt>
      <trkpt lat="37.386816" lon="-122.174219">
        <ele>92.2</ele>
        <time>2015-07-19T20:35:16Z</time>
      </trkpt>
      <trkpt lat="37.386822" lon="-122.174264">
        <ele>92.2</ele>
        <time>2015-07-19T20:35:17Z</time>
      </trkpt>
      <trkpt lat="37.386827" lon="-122.174308">
        <ele>92.3</ele>
        <time>2015-07-19T20:35:18Z</time>
      </trkpt>
      <trkpt lat="37.386831" lon="-122.174348">
        <ele>92.4</ele>
        <time>2015-07-19T20:35:19Z</time>
      </trkpt>
      <trkpt lat="37.386836" lon="-122.174392">
        <ele>92.6</ele>
        <time>2015-07-19T20:35:20Z</time>
      </trkpt>
      <trkpt lat="37.386841" lon="-122.174438">
        <ele>92.6</ele>
        <time>2015-07-19T20:35:21Z</time>
      </trkpt>
      <trkpt lat="37.386849" lon="-122.174509">
        <ele>92.8</ele>
        <time>2015-07-19T20:35:23Z</time>
      </trkpt>
      <trkpt lat="37.386853" lon="-122.174546">
        <ele>92.9</ele>
        <time>2015-07-19T20:35:24Z</time>
      </trkpt>
      <trkpt lat="37.386858" lon="-122.174585">
        <ele>93</ele>
        <time>2015-07-19T20:35:25Z</time>
      </trkpt>
      <trkpt lat="37.386864" lon="-122.174642">
        <ele>93.2</ele>
        <time>2015-07-19T20:35:26Z</time>
      </trkpt>
      <trkpt lat="37.38687" lon="-122.174695">
        <ele>93.3</ele>
        <time>2015-07-19T20:35:27Z</time>
      </trkpt>
      <trkpt lat="37.386875" lon="-122.174736">
        <ele>93.4</ele>
        <time>2015-07-19T20:35:28Z</time>
      </trkpt>
      <trkpt lat="37.386881" lon="-122.174786">
        <ele>93.5</ele>
        <time>2015-07-19T20:35:29Z</time>
      </trkpt>
      <trkpt lat="37.386885" lon="-122.174827">
        <ele>93.6</ele>
        <time>2015-07-19T20:35:30Z</time>
      </trkpt>
      <trkpt lat="37.386893" lon="-122.174898">
        <ele>93.7</ele>
        <time>2015-07-19T20:35:32Z</time>
      </trkpt>
      <trkpt lat="37.386899" lon="-122.174947">
        <ele>93.8</ele>
        <time>2015-07-19T20:35:33Z</time>
      </trkpt>
      <trkpt lat="37.386905" lon="-122.175006">
        <ele>93.9</ele>
        <time>2015-07-19T20:35:34Z</time>
      </trkpt>
      <trkpt lat="37.386911" lon="-122.175056">
        <ele>94</ele>
        <time>2015-07-19T20:35:35Z</time>
      </trkpt>
      <trkpt lat="37.386915" lon="-122.175093">
        <ele>94</ele>
        <time>2015-07-19T20:35:36Z</time>
      </trkpt>
      <trkpt lat="37.38692" lon="-122.175136">
        <ele>94.1</ele>
        <time>2015-07-19T20:35:37Z</time>
      </trkpt>
      <trkpt lat="37.386925" lon="-122.175177">
        <ele>94.2</ele>
        <time>2015-07-19T20:35:38Z</time>
      </trkpt>
      <trkpt lat="37.38693" lon="-122.175219">
        <ele>94.2</ele>
        <time>2015-07-19T20:35:39Z</time>
      </trkpt>
      <trkpt lat="37.386934" lon="-122.175258">
        <ele>94.3</ele>
        <time>2015-07-19T20:35:40Z</time>
      </trkpt>
      <trkpt lat="37.38694" lon="-122.175314">
        <ele>94.4</ele>
        <time>2015-07-19T20:35:42Z</time>
      </trkpt>
      <trkpt lat="37.386945" lon="-122.175352">
        <ele>94.5</ele>
        <time>2015-07-19T20:35:43Z</time>
      </trkpt>
      <trkpt lat="37.386952" lon="-122.175414">
        <ele>94.7</ele>
        <time>2015-07-19T20:35:45Z</time>
      </trkpt>
      <trkpt lat="37.386957" lon="-122.175463">
        <ele>94.8</ele>
        <time>2015-07-19T20:35:47Z</time>
      </trkpt>
      <trkpt lat="37.386963" lon="-122.17551">
        <ele>94.9</ele>
        <time>2015-07-19T20:35:48Z</time>
      </trkpt>
      <trkpt lat="37.386968" lon="-122.17556">
        <ele>95</ele>
        <time>2015-07-19T20:35:49Z</time>
      </trkpt>
      <trkpt lat="37.386974" lon="-122.175612">
        <ele>95.2</ele>
        <time>2015-07-19T20:35:50Z</time>
      </trkpt>
      <trkpt lat="37.38698" lon="-122.175669">
        <ele>95.4</ele>
        <time>2015-07-19T20:35:51Z</time>
      </trkpt>
      <trkpt lat="37.386986" lon="-122.175721">
        <ele>95.6</ele>
        <time>2015-07-19T20:35:53Z</time>
      </trkpt>
      <trkpt lat="37.386997" lon="-122.175816">
        <ele>96.1</ele>
        <time>2015-07-19T20:35:54Z</time>
      </trkpt>
      <trkpt lat="37.387002" lon="-122.175864">
        <ele>96.4</ele>
        <time>2015-07-19T20:35:55Z</time>
      </trkpt>
      <trkpt lat="37.387007" lon="-122.175916">
        <ele>96.7</ele>
        <time>2015-07-19T20:35:57Z</time>
      </trkpt>
      <trkpt lat="37.387013" lon="-122.175968">
        <ele>97.1</ele>
        <time>2015-07-19T20:35:59Z</time>
      </trkpt>
      <trkpt lat="37.387017" lon="-122.176009">
        <ele>97.5</ele>
        <time>2015-07-19T20:36:00Z</time>
      </trkpt>
      <trkpt lat="37.387022" lon="-122.176048">
        <ele>97.7</ele>
        <time>2015-07-19T20:36:01Z</time>
      </trkpt>
      <trkpt lat="37.387028" lon="-122.176123">
        <ele>98.2</ele>
        <time>2015-07-19T20:36:03Z</time>
      </trkpt>
      <trkpt lat="37.387032" lon="-122.176183">
        <ele>98.6</ele>
        <time>2015-07-19T20:36:05Z</time>
      </trkpt>
      <trkpt lat="37.387037" lon="-122.176247">
        <ele>99.1</ele>
        <time>2015-07-19T20:36:07Z</time>
      </trkpt>
      <trkpt lat="37.387039" lon="-122.176288">
        <ele>99.5</ele>
        <time>2015-07-19T20:36:08Z</time>
      </trkpt>
      <trkpt lat="37.387041" lon="-122.176342">
        <ele>99.9</ele>
        <time>2015-07-19T20:36:09Z</time>
      </trkpt>
      <trkpt lat="37.387041" lon="-122.176401">
        <ele>100.5</ele>
        <time>2015-07-19T20:36:10Z</time>
      </trkpt>
      <trkpt lat="37.38704" lon="-122.176469">
        <ele>101</ele>
        <time>2015-07-19T20:36:11Z</time>
      </trkpt>
      <trkpt lat="37.38704" lon="-122.176529">
        <ele>101.4</ele>
        <time>2015-07-19T20:36:12Z</time>
      </trkpt>
      <trkpt lat="37.387034" lon="-122.176675">
        <ele>102.3</ele>
        <time>2015-07-19T20:36:13Z</time>
      </trkpt>
      <trkpt lat="37.387028" lon="-122.176763">
        <ele>102.5</ele>
        <time>2015-07-19T20:36:14Z</time>
      </trkpt>
      <trkpt lat="37.387067" lon="-122.176822">
        <ele>103</ele>
        <time>2015-07-19T20:36:17Z</time>
      </trkpt>
      <trkpt lat="37.387067" lon="-122.176865">
        <ele>103.2</ele>
        <time>2015-07-19T20:36:18Z</time>
      </trkpt>
      <trkpt lat="37.387064" lon="-122.1769">
        <ele>103.4</ele>
        <time>2015-07-19T20:36:19Z</time>
      </trkpt>
      <trkpt lat="37.387062" lon="-122.176937">
        <ele>103.5</ele>
        <time>2015-07-19T20:36:20Z</time>
      </trkpt>
      <trkpt lat="37.38706" lon="-122.176976">
        <ele>103.6</ele>
        <time>2015-07-19T20:36:21Z</time>
      </trkpt>
      <trkpt lat="37.387058" lon="-122.17701">
        <ele>103.7</ele>
        <time>2015-07-19T20:36:22Z</time>
      </trkpt>
      <trkpt lat="37.38705" lon="-122.177064">
        <ele>103.7</ele>
        <time>2015-07-19T20:36:24Z</time>
      </trkpt>
      <trkpt lat="37.387019" lon="-122.177093">
        <ele>102.5</ele>
        <time>2015-07-19T20:36:27Z</time>
      </trkpt>
      <trkpt lat="37.387011" lon="-122.17713">
        <ele>102.4</ele>
        <time>2015-07-19T20:36:28Z</time>
      </trkpt>
      <trkpt lat="37.387006" lon="-122.177164">
        <ele>102.3</ele>
        <time>2015-07-19T20:36:29Z</time>
      </trkpt>
      <trkpt lat="37.387006" lon="-122.177204">
        <ele>102.2</ele>
        <time>2015-07-19T20:36:30Z</time>
      </trkpt>
      <trkpt lat="37.386998" lon="-122.177244">
        <ele>102</ele>
        <time>2015-07-19T20:36:31Z</time>
      </trkpt>
      <trkpt lat="37.386986" lon="-122.177307">
        <ele>101.7</ele>
        <time>2015-07-19T20:36:33Z</time>
      </trkpt>
      <trkpt lat="37.387006" lon="-122.177356">
        <ele>102.3</ele>
        <time>2015-07-19T20:36:36Z</time>
      </trkpt>
      <trkpt lat="37.387006" lon="-122.177403">
        <ele>102.6</ele>
        <time>2015-07-19T20:36:37Z</time>
      </trkpt>
      <trkpt lat="37.387004" lon="-122.177497">
        <ele>103.2</ele>
        <time>2015-07-19T20:36:38Z</time>
      </trkpt>
      <trkpt lat="37.386993" lon="-122.177553">
        <ele>103.4</ele>
        <time>2015-07-19T20:36:39Z</time>
      </trkpt>
      <trkpt lat="37.386984" lon="-122.17761">
        <ele>103.3</ele>
        <time>2015-07-19T20:36:40Z</time>
      </trkpt>
      <trkpt lat="37.386971" lon="-122.177656">
        <ele>103.2</ele>
        <time>2015-07-19T20:36:41Z</time>
      </trkpt>
      <trkpt lat="37.386959" lon="-122.177701">
        <ele>103.2</ele>
        <time>2015-07-19T20:36:42Z</time>
      </trkpt>
      <trkpt lat="37.386935" lon="-122.177764">
        <ele>102.5</ele>
        <time>2015-07-19T20:36:43Z</time>
      </trkpt>
      <trkpt lat="37.386909" lon="-122.177898">
        <ele>101.7</ele>
        <time>2015-07-19T20:36:45Z</time>
      </trkpt>
      <trkpt lat="37.386909" lon="-122.177943">
        <ele>101.9</ele>
        <time>2015-07-19T20:36:46Z</time>
      </trkpt>
      <trkpt lat="37.386837" lon="-122.178">
        <ele>100.4</ele>
        <time>2015-07-19T20:36:47Z</time>
      </trkpt>
      <trkpt lat="37.38682" lon="-122.178095">
        <ele>100.5</ele>
        <time>2015-07-19T20:36:48Z</time>
      </trkpt>
      <trkpt lat="37.386807" lon="-122.178162">
        <ele>100.5</ele>
        <time>2015-07-19T20:36:49Z</time>
      </trkpt>
      <trkpt lat="37.386789" lon="-122.178241">
        <ele>100.5</ele>
        <time>2015-07-19T20:36:50Z</time>
      </trkpt>
      <trkpt lat="37.386768" lon="-122.178328">
        <ele>100.6</ele>
        <time>2015-07-19T20:36:52Z</time>
      </trkpt>
      <trkpt lat="37.386759" lon="-122.178364">
        <ele>100.6</ele>
        <time>2015-07-19T20:36:53Z</time>
      </trkpt>
      <trkpt lat="37.386745" lon="-122.178418">
        <ele>100.7</ele>
        <time>2015-07-19T20:36:54Z</time>
      </trkpt>
      <trkpt lat="37.386694" lon="-122.178577">
        <ele>101</ele>
        <time>2015-07-19T20:36:55Z</time>
      </trkpt>
      <trkpt lat="37.386675" lon="-122.178621">
        <ele>101.2</ele>
        <time>2015-07-19T20:36:57Z</time>
      </trkpt>
      <trkpt lat="37.386689" lon="-122.17859">
        <ele>101</ele>
        <time>2015-07-19T20:36:59Z</time>
      </trkpt>
      <trkpt lat="37.386671" lon="-122.178629">
        <ele>101.2</ele>
        <time>2015-07-19T20:37:00Z</time>
      </trkpt>
      <trkpt lat="37.386635" lon="-122.178698">
        <ele>101.4</ele>
        <time>2015-07-19T20:37:02Z</time>
      </trkpt>
      <trkpt lat="37.386589" lon="-122.178763">
        <ele>101.6</ele>
        <time>2015-07-19T20:37:04Z</time>
      </trkpt>
      <trkpt lat="37.386447" lon="-122.17894">
        <ele>102.7</ele>
        <time>2015-07-19T20:37:09Z</time>
      </trkpt>
      <trkpt lat="37.386408" lon="-122.178986">
        <ele>102.9</ele>
        <time>2015-07-19T20:37:11Z</time>
      </trkpt>
      <trkpt lat="37.386384" lon="-122.179015">
        <ele>103.1</ele>
        <time>2015-07-19T20:37:12Z</time>
      </trkpt>
      <trkpt lat="37.38636" lon="-122.179044">
        <ele>103.2</ele>
        <time>2015-07-19T20:37:13Z</time>
      </trkpt>
      <trkpt lat="37.386325" lon="-122.179085">
        <ele>103.5</ele>
        <time>2015-07-19T20:37:15Z</time>
      </trkpt>
      <trkpt lat="37.386297" lon="-122.179117">
        <ele>103.7</ele>
        <time>2015-07-19T20:37:17Z</time>
      </trkpt>
      <trkpt lat="37.386276" lon="-122.179143">
        <ele>103.8</ele>
        <time>2015-07-19T20:37:18Z</time>
      </trkpt>
      <trkpt lat="37.386237" lon="-122.179189">
        <ele>104.1</ele>
        <time>2015-07-19T20:37:20Z</time>
      </trkpt>
      <trkpt lat="37.386193" lon="-122.17924">
        <ele>104.4</ele>
        <time>2015-07-19T20:37:22Z</time>
      </trkpt>
      <trkpt lat="37.386169" lon="-122.179269">
        <ele>104.6</ele>
        <time>2015-07-19T20:37:23Z</time>
      </trkpt>
      <trkpt lat="37.38614" lon="-122.179304">
        <ele>104.8</ele>
        <time>2015-07-19T20:37:24Z</time>
      </trkpt>
      <trkpt lat="37.386114" lon="-122.179334">
        <ele>105</ele>
        <time>2015-07-19T20:37:25Z</time>
      </trkpt>
      <trkpt lat="37.38609" lon="-122.179363">
        <ele>105.2</ele>
        <time>2015-07-19T20:37:26Z</time>
      </trkpt>
      <trkpt lat="37.386065" lon="-122.179393">
        <ele>105.4</ele>
        <time>2015-07-19T20:37:27Z</time>
      </trkpt>
      <trkpt lat="37.386042" lon="-122.17942">
        <ele>105.6</ele>
        <time>2015-07-19T20:37:28Z</time>
      </trkpt>
      <trkpt lat="37.386019" lon="-122.179446">
        <ele>105.8</ele>
        <time>2015-07-19T20:37:29Z</time>
      </trkpt>
      <trkpt lat="37.385995" lon="-122.179475">
        <ele>106</ele>
        <time>2015-07-19T20:37:30Z</time>
      </trkpt>
      <trkpt lat="37.385961" lon="-122.179515">
        <ele>106.2</ele>
        <time>2015-07-19T20:37:31Z</time>
      </trkpt>
      <trkpt lat="37.385936" lon="-122.179545">
        <ele>106.2</ele>
        <time>2015-07-19T20:37:32Z</time>
      </trkpt>
      <trkpt lat="37.385913" lon="-122.179572">
        <ele>106.5</ele>
        <time>2015-07-19T20:37:33Z</time>
      </trkpt>
      <trkpt lat="37.385892" lon="-122.179597">
        <ele>106.6</ele>
        <time>2015-07-19T20:37:34Z</time>
      </trkpt>
      <trkpt lat="37.385852" lon="-122.179644">
        <ele>106.8</ele>
        <time>2015-07-19T20:37:36Z</time>
      </trkpt>
      <trkpt lat="37.385827" lon="-122.179675">
        <ele>107</ele>
        <time>2015-07-19T20:37:37Z</time>
      </trkpt>
      <trkpt lat="37.385806" lon="-122.1797">
        <ele>107.1</ele>
        <time>2015-07-19T20:37:38Z</time>
      </trkpt>
      <trkpt lat="37.385781" lon="-122.179729">
        <ele>107.1</ele>
        <time>2015-07-19T20:37:39Z</time>
      </trkpt>
      <trkpt lat="37.385761" lon="-122.179755">
        <ele>107.3</ele>
        <time>2015-07-19T20:37:40Z</time>
      </trkpt>
      <trkpt lat="37.385738" lon="-122.179785">
        <ele>107.4</ele>
        <time>2015-07-19T20:37:41Z</time>
      </trkpt>
      <trkpt lat="37.385719" lon="-122.179811">
        <ele>107.4</ele>
        <time>2015-07-19T20:37:42Z</time>
      </trkpt>
      <trkpt lat="37.38569" lon="-122.179852">
        <ele>107.5</ele>
        <time>2015-07-19T20:37:44Z</time>
      </trkpt>
      <trkpt lat="37.38567" lon="-122.179881">
        <ele>107.7</ele>
        <time>2015-07-19T20:37:45Z</time>
      </trkpt>
      <trkpt lat="37.385633" lon="-122.179943">
        <ele>108.2</ele>
        <time>2015-07-19T20:37:47Z</time>
      </trkpt>
      <trkpt lat="37.385618" lon="-122.179971">
        <ele>108.2</ele>
        <time>2015-07-19T20:37:48Z</time>
      </trkpt>
      <trkpt lat="37.3856" lon="-122.180003">
        <ele>108</ele>
        <time>2015-07-19T20:37:49Z</time>
      </trkpt>
      <trkpt lat="37.385583" lon="-122.180032">
        <ele>108.2</ele>
        <time>2015-07-19T20:37:50Z</time>
      </trkpt>
      <trkpt lat="37.385565" lon="-122.180063">
        <ele>108.3</ele>
        <time>2015-07-19T20:37:51Z</time>
      </trkpt>
      <trkpt lat="37.385548" lon="-122.180093">
        <ele>108.4</ele>
        <time>2015-07-19T20:37:52Z</time>
      </trkpt>
      <trkpt lat="37.385532" lon="-122.180121">
        <ele>108.4</ele>
        <time>2015-07-19T20:37:53Z</time>
      </trkpt>
      <trkpt lat="37.385499" lon="-122.180179">
        <ele>108.6</ele>
        <time>2015-07-19T20:37:55Z</time>
      </trkpt>
      <trkpt lat="37.385468" lon="-122.180234">
        <ele>108.9</ele>
        <time>2015-07-19T20:37:56Z</time>
      </trkpt>
      <trkpt lat="37.385449" lon="-122.180262">
        <ele>108.9</ele>
        <time>2015-07-19T20:37:57Z</time>
      </trkpt>
      <trkpt lat="37.385426" lon="-122.180287">
        <ele>109</ele>
        <time>2015-07-19T20:37:58Z</time>
      </trkpt>
      <trkpt lat="37.385397" lon="-122.180313">
        <ele>109</ele>
        <time>2015-07-19T20:37:59Z</time>
      </trkpt>
      <trkpt lat="37.385369" lon="-122.180338">
        <ele>109</ele>
        <time>2015-07-19T20:38:00Z</time>
      </trkpt>
      <trkpt lat="37.385312" lon="-122.18039">
        <ele>109.1</ele>
        <time>2015-07-19T20:38:02Z</time>
      </trkpt>
      <trkpt lat="37.385286" lon="-122.180414">
        <ele>109.2</ele>
        <time>2015-07-19T20:38:03Z</time>
      </trkpt>
      <trkpt lat="37.385257" lon="-122.180439">
        <ele>109.3</ele>
        <time>2015-07-19T20:38:04Z</time>
      </trkpt>
      <trkpt lat="37.385228" lon="-122.180465">
        <ele>109.4</ele>
        <time>2015-07-19T20:38:05Z</time>
      </trkpt>
      <trkpt lat="37.385195" lon="-122.180495">
        <ele>109.5</ele>
        <time>2015-07-19T20:38:06Z</time>
      </trkpt>
      <trkpt lat="37.38515" lon="-122.180532">
        <ele>109.7</ele>
        <time>2015-07-19T20:38:08Z</time>
      </trkpt>
      <trkpt lat="37.385107" lon="-122.180565">
        <ele>109.7</ele>
        <time>2015-07-19T20:38:10Z</time>
      </trkpt>
      <trkpt lat="37.38508" lon="-122.180587">
        <ele>109.8</ele>
        <time>2015-07-19T20:38:11Z</time>
      </trkpt>
      <trkpt lat="37.385032" lon="-122.180624">
        <ele>109.9</ele>
        <time>2015-07-19T20:38:13Z</time>
      </trkpt>
      <trkpt lat="37.385" lon="-122.180649">
        <ele>110</ele>
        <time>2015-07-19T20:38:14Z</time>
      </trkpt>
      <trkpt lat="37.384973" lon="-122.18067">
        <ele>110.1</ele>
        <time>2015-07-19T20:38:15Z</time>
      </trkpt>
      <trkpt lat="37.384944" lon="-122.180692">
        <ele>110.2</ele>
        <time>2015-07-19T20:38:16Z</time>
      </trkpt>
      <trkpt lat="37.384905" lon="-122.180723">
        <ele>110.3</ele>
        <time>2015-07-19T20:38:18Z</time>
      </trkpt>
      <trkpt lat="37.384878" lon="-122.180744">
        <ele>110.5</ele>
        <time>2015-07-19T20:38:19Z</time>
      </trkpt>
      <trkpt lat="37.384825" lon="-122.180785">
        <ele>110.5</ele>
        <time>2015-07-19T20:38:21Z</time>
      </trkpt>
      <trkpt lat="37.384801" lon="-122.180802">
        <ele>110.7</ele>
        <time>2015-07-19T20:38:22Z</time>
      </trkpt>
      <trkpt lat="37.384751" lon="-122.180836">
        <ele>110.8</ele>
        <time>2015-07-19T20:38:24Z</time>
      </trkpt>
      <trkpt lat="37.384727" lon="-122.180854">
        <ele>110.9</ele>
        <time>2015-07-19T20:38:25Z</time>
      </trkpt>
      <trkpt lat="37.384701" lon="-122.180872">
        <ele>111</ele>
        <time>2015-07-19T20:38:26Z</time>
      </trkpt>
      <trkpt lat="37.384677" lon="-122.180889">
        <ele>111.2</ele>
        <time>2015-07-19T20:38:27Z</time>
      </trkpt>
      <trkpt lat="37.38465" lon="-122.180908">
        <ele>111.2</ele>
        <time>2015-07-19T20:38:28Z</time>
      </trkpt>
      <trkpt lat="37.384617" lon="-122.18093">
        <ele>111.5</ele>
        <time>2015-07-19T20:38:29Z</time>
      </trkpt>
      <trkpt lat="37.384588" lon="-122.180948">
        <ele>111.6</ele>
        <time>2015-07-19T20:38:30Z</time>
      </trkpt>
      <trkpt lat="37.384558" lon="-122.180965">
        <ele>111.7</ele>
        <time>2015-07-19T20:38:31Z</time>
      </trkpt>
      <trkpt lat="37.384514" lon="-122.180988">
        <ele>112.1</ele>
        <time>2015-07-19T20:38:32Z</time>
      </trkpt>
      <trkpt lat="37.384484" lon="-122.181003">
        <ele>112.1</ele>
        <time>2015-07-19T20:38:34Z</time>
      </trkpt>
      <trkpt lat="37.384444" lon="-122.181016">
        <ele>112.4</ele>
        <time>2015-07-19T20:38:35Z</time>
      </trkpt>
      <trkpt lat="37.384416" lon="-122.181023">
        <ele>112.3</ele>
        <time>2015-07-19T20:38:36Z</time>
      </trkpt>
      <trkpt lat="37.384385" lon="-122.18103">
        <ele>112.4</ele>
        <time>2015-07-19T20:38:37Z</time>
      </trkpt>
      <trkpt lat="37.384355" lon="-122.181037">
        <ele>112.6</ele>
        <time>2015-07-19T20:38:38Z</time>
      </trkpt>
      <trkpt lat="37.384327" lon="-122.181044">
        <ele>112.7</ele>
        <time>2015-07-19T20:38:39Z</time>
      </trkpt>
      <trkpt lat="37.384276" lon="-122.181055">
        <ele>112.8</ele>
        <time>2015-07-19T20:38:41Z</time>
      </trkpt>
      <trkpt lat="37.384222" lon="-122.181063">
        <ele>113</ele>
        <time>2015-07-19T20:38:43Z</time>
      </trkpt>
      <trkpt lat="37.384187" lon="-122.181067">
        <ele>113.2</ele>
        <time>2015-07-19T20:38:44Z</time>
      </trkpt>
      <trkpt lat="37.384131" lon="-122.181074">
        <ele>113.4</ele>
        <time>2015-07-19T20:38:46Z</time>
      </trkpt>
      <trkpt lat="37.384079" lon="-122.18108">
        <ele>113.6</ele>
        <time>2015-07-19T20:38:48Z</time>
      </trkpt>
      <trkpt lat="37.384018" lon="-122.181088">
        <ele>113.9</ele>
        <time>2015-07-19T20:38:50Z</time>
      </trkpt>
      <trkpt lat="37.383989" lon="-122.181092">
        <ele>114.1</ele>
        <time>2015-07-19T20:38:51Z</time>
      </trkpt>
      <trkpt lat="37.383957" lon="-122.181097">
        <ele>114.3</ele>
        <time>2015-07-19T20:38:52Z</time>
      </trkpt>
      <trkpt lat="37.383929" lon="-122.181101">
        <ele>114.5</ele>
        <time>2015-07-19T20:38:53Z</time>
      </trkpt>
      <trkpt lat="37.383876" lon="-122.181109">
        <ele>114.8</ele>
        <time>2015-07-19T20:38:55Z</time>
      </trkpt>
      <trkpt lat="37.38382" lon="-122.181118">
        <ele>115.3</ele>
        <time>2015-07-19T20:38:57Z</time>
      </trkpt>
      <trkpt lat="37.383787" lon="-122.181122">
        <ele>115.6</ele>
        <time>2015-07-19T20:38:58Z</time>
      </trkpt>
      <trkpt lat="37.38376" lon="-122.181127">
        <ele>115.8</ele>
        <time>2015-07-19T20:38:59Z</time>
      </trkpt>
      <trkpt lat="37.383724" lon="-122.181133">
        <ele>116.3</ele>
        <time>2015-07-19T20:39:00Z</time>
      </trkpt>
      <trkpt lat="37.383692" lon="-122.18114">
        <ele>116.6</ele>
        <time>2015-07-19T20:39:01Z</time>
      </trkpt>
      <trkpt lat="37.383657" lon="-122.181147">
        <ele>116.9</ele>
        <time>2015-07-19T20:39:02Z</time>
      </trkpt>
      <trkpt lat="37.383621" lon="-122.181156">
        <ele>117.1</ele>
        <time>2015-07-19T20:39:03Z</time>
      </trkpt>
      <trkpt lat="37.383561" lon="-122.181172">
        <ele>117.7</ele>
        <time>2015-07-19T20:39:05Z</time>
      </trkpt>
      <trkpt lat="37.383526" lon="-122.181182">
        <ele>117.8</ele>
        <time>2015-07-19T20:39:06Z</time>
      </trkpt>
      <trkpt lat="37.383492" lon="-122.181191">
        <ele>118.1</ele>
        <time>2015-07-19T20:39:07Z</time>
      </trkpt>
      <trkpt lat="37.383448" lon="-122.181205">
        <ele>118.7</ele>
        <time>2015-07-19T20:39:09Z</time>
      </trkpt>
      <trkpt lat="37.383412" lon="-122.181216">
        <ele>118.7</ele>
        <time>2015-07-19T20:39:11Z</time>
      </trkpt>
      <trkpt lat="37.383371" lon="-122.181231">
        <ele>119.6</ele>
        <time>2015-07-19T20:39:13Z</time>
      </trkpt>
      <trkpt lat="37.383321" lon="-122.181249">
        <ele>119.5</ele>
        <time>2015-07-19T20:39:15Z</time>
      </trkpt>
      <trkpt lat="37.383295" lon="-122.181258">
        <ele>119.7</ele>
        <time>2015-07-19T20:39:16Z</time>
      </trkpt>
      <trkpt lat="37.383267" lon="-122.181268">
        <ele>119.9</ele>
        <time>2015-07-19T20:39:17Z</time>
      </trkpt>
      <trkpt lat="37.38324" lon="-122.181279">
        <ele>120</ele>
        <time>2015-07-19T20:39:18Z</time>
      </trkpt>
      <trkpt lat="37.383211" lon="-122.181291">
        <ele>120.1</ele>
        <time>2015-07-19T20:39:19Z</time>
      </trkpt>
      <trkpt lat="37.383182" lon="-122.181303">
        <ele>120.1</ele>
        <time>2015-07-19T20:39:20Z</time>
      </trkpt>
      <trkpt lat="37.383156" lon="-122.181314">
        <ele>120.2</ele>
        <time>2015-07-19T20:39:21Z</time>
      </trkpt>
      <trkpt lat="37.383097" lon="-122.18134">
        <ele>120.5</ele>
        <time>2015-07-19T20:39:23Z</time>
      </trkpt>
      <trkpt lat="37.383069" lon="-122.181352">
        <ele>120.8</ele>
        <time>2015-07-19T20:39:24Z</time>
      </trkpt>
      <trkpt lat="37.383039" lon="-122.181365">
        <ele>120.9</ele>
        <time>2015-07-19T20:39:25Z</time>
      </trkpt>
      <trkpt lat="37.383008" lon="-122.181379">
        <ele>121.2</ele>
        <time>2015-07-19T20:39:26Z</time>
      </trkpt>
      <trkpt lat="37.382967" lon="-122.181396">
        <ele>121.5</ele>
        <time>2015-07-19T20:39:28Z</time>
      </trkpt>
      <trkpt lat="37.382925" lon="-122.181414">
        <ele>121.9</ele>
        <time>2015-07-19T20:39:30Z</time>
      </trkpt>
      <trkpt lat="37.382895" lon="-122.181426">
        <ele>122.2</ele>
        <time>2015-07-19T20:39:32Z</time>
      </trkpt>
      <trkpt lat="37.382861" lon="-122.181439">
        <ele>122.5</ele>
        <time>2015-07-19T20:39:34Z</time>
      </trkpt>
      <trkpt lat="37.382834" lon="-122.18145">
        <ele>122.8</ele>
        <time>2015-07-19T20:39:36Z</time>
      </trkpt>
      <trkpt lat="37.382866" lon="-122.181437">
        <ele>122.5</ele>
        <time>2015-07-19T20:39:50Z</time>
      </trkpt>
      <trkpt lat="37.382836" lon="-122.181449">
        <ele>122.8</ele>
        <time>2015-07-19T20:40:00Z</time>
      </trkpt>
      <trkpt lat="37.382862" lon="-122.181439">
        <ele>122.5</ele>
        <time>2015-07-19T20:40:04Z</time>
      </trkpt>
      <trkpt lat="37.382881" lon="-122.181432">
        <ele>122.3</ele>
        <time>2015-07-19T20:41:01Z</time>
      </trkpt>
      <trkpt lat="37.382908" lon="-122.181422">
        <ele>122.1</ele>
        <time>2015-07-19T20:41:02Z</time>
      </trkpt>
      <trkpt lat="37.382982" lon="-122.181418">
        <ele>122</ele>
        <time>2015-07-19T20:41:03Z</time>
      </trkpt>
      <trkpt lat="37.383009" lon="-122.181411">
        <ele>121.8</ele>
        <time>2015-07-19T20:41:04Z</time>
      </trkpt>
      <trkpt lat="37.383033" lon="-122.181429">
        <ele>123.1</ele>
        <time>2015-07-19T20:41:07Z</time>
      </trkpt>
      <trkpt lat="37.382997" lon="-122.181454">
        <ele>123.5</ele>
        <time>2015-07-19T20:41:10Z</time>
      </trkpt>
      <trkpt lat="37.382961" lon="-122.181435">
        <ele>122.2</ele>
        <time>2015-07-19T20:41:14Z</time>
      </trkpt>
      <trkpt lat="37.382931" lon="-122.181447">
        <ele>122.5</ele>
        <time>2015-07-19T20:41:16Z</time>
      </trkpt>
      <trkpt lat="37.382912" lon="-122.181482">
        <ele>123.8</ele>
        <time>2015-07-19T20:41:20Z</time>
      </trkpt>
      <trkpt lat="37.382911" lon="-122.181518">
        <ele>125</ele>
        <time>2015-07-19T20:41:29Z</time>
      </trkpt>
      <trkpt lat="37.382884" lon="-122.181515">
        <ele>124.8</ele>
        <time>2015-07-19T20:41:35Z</time>
      </trkpt>
      <trkpt lat="37.382919" lon="-122.181482">
        <ele>123.9</ele>
        <time>2015-07-19T20:41:46Z</time>
      </trkpt>
      <trkpt lat="37.382945" lon="-122.181406">
        <ele>121.7</ele>
        <time>2015-07-19T20:41:48Z</time>
      </trkpt>
      <trkpt lat="37.382919" lon="-122.181417">
        <ele>121.9</ele>
        <time>2015-07-19T20:41:52Z</time>
      </trkpt>
      <trkpt lat="37.382889" lon="-122.181428">
        <ele>122.3</ele>
        <time>2015-07-19T20:41:54Z</time>
      </trkpt>
      <trkpt lat="37.38286" lon="-122.18144">
        <ele>122.5</ele>
        <time>2015-07-19T20:42:00Z</time>
      </trkpt>
      <trkpt lat="37.382762" lon="-122.181475">
        <ele>123.6</ele>
        <time>2015-07-19T20:43:07Z</time>
      </trkpt>
      <trkpt lat="37.382721" lon="-122.181467">
        <ele>124</ele>
        <time>2015-07-19T20:43:10Z</time>
      </trkpt>
      <trkpt lat="37.382677" lon="-122.181487">
        <ele>124.5</ele>
        <time>2015-07-19T20:43:12Z</time>
      </trkpt>
      <trkpt lat="37.382657" lon="-122.181514">
        <ele>124.9</ele>
        <time>2015-07-19T20:43:13Z</time>
      </trkpt>
      <trkpt lat="37.382628" lon="-122.181523">
        <ele>125.3</ele>
        <time>2015-07-19T20:43:14Z</time>
      </trkpt>
      <trkpt lat="37.382582" lon="-122.181537">
        <ele>125.9</ele>
        <time>2015-07-19T20:43:16Z</time>
      </trkpt>
      <trkpt lat="37.382553" lon="-122.181545">
        <ele>126.2</ele>
        <time>2015-07-19T20:43:17Z</time>
      </trkpt>
      <trkpt lat="37.382498" lon="-122.181562">
        <ele>126.8</ele>
        <time>2015-07-19T20:43:19Z</time>
      </trkpt>
      <trkpt lat="37.382453" lon="-122.181575">
        <ele>127</ele>
        <time>2015-07-19T20:43:21Z</time>
      </trkpt>
      <trkpt lat="37.382401" lon="-122.181589">
        <ele>127.3</ele>
        <time>2015-07-19T20:43:23Z</time>
      </trkpt>
      <trkpt lat="37.382377" lon="-122.181606">
        <ele>127.4</ele>
        <time>2015-07-19T20:43:24Z</time>
      </trkpt>
      <trkpt lat="37.382348" lon="-122.181617">
        <ele>127.5</ele>
        <time>2015-07-19T20:43:25Z</time>
      </trkpt>
      <trkpt lat="37.38232" lon="-122.181627">
        <ele>127.6</ele>
        <time>2015-07-19T20:43:26Z</time>
      </trkpt>
      <trkpt lat="37.382293" lon="-122.181638">
        <ele>127.7</ele>
        <time>2015-07-19T20:43:27Z</time>
      </trkpt>
      <trkpt lat="37.382268" lon="-122.181649">
        <ele>127.8</ele>
        <time>2015-07-19T20:43:28Z</time>
      </trkpt>
      <trkpt lat="37.382241" lon="-122.18166">
        <ele>127.9</ele>
        <time>2015-07-19T20:43:29Z</time>
      </trkpt>
      <trkpt lat="37.38219" lon="-122.181675">
        <ele>128.1</ele>
        <time>2015-07-19T20:43:31Z</time>
      </trkpt>
      <trkpt lat="37.382163" lon="-122.181681">
        <ele>128.1</ele>
        <time>2015-07-19T20:43:32Z</time>
      </trkpt>
      <trkpt lat="37.382116" lon="-122.181695">
        <ele>128.1</ele>
        <time>2015-07-19T20:43:34Z</time>
      </trkpt>
      <trkpt lat="37.382086" lon="-122.181702">
        <ele>128.2</ele>
        <time>2015-07-19T20:43:35Z</time>
      </trkpt>
      <trkpt lat="37.382053" lon="-122.181709">
        <ele>128.2</ele>
        <time>2015-07-19T20:43:36Z</time>
      </trkpt>
      <trkpt lat="37.382016" lon="-122.181713">
        <ele>128.4</ele>
        <time>2015-07-19T20:43:37Z</time>
      </trkpt>
      <trkpt lat="37.381982" lon="-122.181721">
        <ele>128.4</ele>
        <time>2015-07-19T20:43:38Z</time>
      </trkpt>
      <trkpt lat="37.381949" lon="-122.18173">
        <ele>128.5</ele>
        <time>2015-07-19T20:43:39Z</time>
      </trkpt>
      <trkpt lat="37.381916" lon="-122.181741">
        <ele>128.6</ele>
        <time>2015-07-19T20:43:40Z</time>
      </trkpt>
      <trkpt lat="37.381877" lon="-122.181747">
        <ele>128.7</ele>
        <time>2015-07-19T20:43:41Z</time>
      </trkpt>
      <trkpt lat="37.381841" lon="-122.181748">
        <ele>129</ele>
        <time>2015-07-19T20:43:42Z</time>
      </trkpt>
      <trkpt lat="37.381795" lon="-122.181765">
        <ele>129.3</ele>
        <time>2015-07-19T20:43:44Z</time>
      </trkpt>
      <trkpt lat="37.381774" lon="-122.181792">
        <ele>129.5</ele>
        <time>2015-07-19T20:43:45Z</time>
      </trkpt>
      <trkpt lat="37.38173" lon="-122.181808">
        <ele>129.8</ele>
        <time>2015-07-19T20:43:47Z</time>
      </trkpt>
      <trkpt lat="37.381697" lon="-122.181822">
        <ele>130.3</ele>
        <time>2015-07-19T20:43:48Z</time>
      </trkpt>
      <trkpt lat="37.38167" lon="-122.181834">
        <ele>130.7</ele>
        <time>2015-07-19T20:43:49Z</time>
      </trkpt>
      <trkpt lat="37.381641" lon="-122.181845">
        <ele>131.1</ele>
        <time>2015-07-19T20:43:50Z</time>
      </trkpt>
      <trkpt lat="37.381609" lon="-122.181852">
        <ele>131.4</ele>
        <time>2015-07-19T20:43:51Z</time>
      </trkpt>
      <trkpt lat="37.381578" lon="-122.18186">
        <ele>131.8</ele>
        <time>2015-07-19T20:43:52Z</time>
      </trkpt>
      <trkpt lat="37.381548" lon="-122.181869">
        <ele>132.2</ele>
        <time>2015-07-19T20:43:53Z</time>
      </trkpt>
      <trkpt lat="37.38152" lon="-122.18188">
        <ele>132.6</ele>
        <time>2015-07-19T20:43:54Z</time>
      </trkpt>
      <trkpt lat="37.381471" lon="-122.181901">
        <ele>133.3</ele>
        <time>2015-07-19T20:43:56Z</time>
      </trkpt>
      <trkpt lat="37.381419" lon="-122.181919">
        <ele>133.7</ele>
        <time>2015-07-19T20:43:58Z</time>
      </trkpt>
      <trkpt lat="37.381392" lon="-122.181929">
        <ele>133.8</ele>
        <time>2015-07-19T20:43:59Z</time>
      </trkpt>
      <trkpt lat="37.381365" lon="-122.181945">
        <ele>134.2</ele>
        <time>2015-07-19T20:44:00Z</time>
      </trkpt>
      <trkpt lat="37.381338" lon="-122.181963">
        <ele>134.5</ele>
        <time>2015-07-19T20:44:01Z</time>
      </trkpt>
      <trkpt lat="37.38131" lon="-122.18198">
        <ele>134.9</ele>
        <time>2015-07-19T20:44:02Z</time>
      </trkpt>
      <trkpt lat="37.381282" lon="-122.181994">
        <ele>135.1</ele>
        <time>2015-07-19T20:44:03Z</time>
      </trkpt>
      <trkpt lat="37.381255" lon="-122.182009">
        <ele>135.4</ele>
        <time>2015-07-19T20:44:04Z</time>
      </trkpt>
      <trkpt lat="37.381228" lon="-122.182029">
        <ele>135.8</ele>
        <time>2015-07-19T20:44:05Z</time>
      </trkpt>
      <trkpt lat="37.381208" lon="-122.182054">
        <ele>136</ele>
        <time>2015-07-19T20:44:06Z</time>
      </trkpt>
      <trkpt lat="37.381174" lon="-122.182099">
        <ele>136.6</ele>
        <time>2015-07-19T20:44:08Z</time>
      </trkpt>
      <trkpt lat="37.381147" lon="-122.182138">
        <ele>137.1</ele>
        <time>2015-07-19T20:44:10Z</time>
      </trkpt>
      <trkpt lat="37.381119" lon="-122.182178">
        <ele>137.6</ele>
        <time>2015-07-19T20:44:12Z</time>
      </trkpt>
      <trkpt lat="37.381091" lon="-122.182223">
        <ele>137.9</ele>
        <time>2015-07-19T20:44:14Z</time>
      </trkpt>
      <trkpt lat="37.381049" lon="-122.182292">
        <ele>138.4</ele>
        <time>2015-07-19T20:44:16Z</time>
      </trkpt>
      <trkpt lat="37.381027" lon="-122.182347">
        <ele>138.5</ele>
        <time>2015-07-19T20:44:19Z</time>
      </trkpt>
      <trkpt lat="37.381013" lon="-122.182386">
        <ele>138.5</ele>
        <time>2015-07-19T20:44:20Z</time>
      </trkpt>
      <trkpt lat="37.381019" lon="-122.182478">
        <ele>138.3</ele>
        <time>2015-07-19T20:44:24Z</time>
      </trkpt>
      <trkpt lat="37.380977" lon="-122.1825">
        <ele>138.6</ele>
        <time>2015-07-19T20:44:26Z</time>
      </trkpt>
      <trkpt lat="37.380947" lon="-122.182499">
        <ele>138.4</ele>
        <time>2015-07-19T20:44:28Z</time>
      </trkpt>
      <trkpt lat="37.38092" lon="-122.182511">
        <ele>138.1</ele>
        <time>2015-07-19T20:44:32Z</time>
      </trkpt>
      <trkpt lat="37.380962" lon="-122.182456">
        <ele>138.6</ele>
        <time>2015-07-19T20:44:56Z</time>
      </trkpt>
      <trkpt lat="37.380946" lon="-122.182613">
        <ele>138.5</ele>
        <time>2015-07-19T20:47:51Z</time>
      </trkpt>
      <trkpt lat="37.380969" lon="-122.182651">
        <ele>138.5</ele>
        <time>2015-07-19T20:47:53Z</time>
      </trkpt>
      <trkpt lat="37.38099" lon="-122.182703">
        <ele>138.3</ele>
        <time>2015-07-19T20:47:55Z</time>
      </trkpt>
      <trkpt lat="37.380981" lon="-122.182769">
        <ele>138.4</ele>
        <time>2015-07-19T20:47:57Z</time>
      </trkpt>
      <trkpt lat="37.380978" lon="-122.182803">
        <ele>138.4</ele>
        <time>2015-07-19T20:47:58Z</time>
      </trkpt>
      <trkpt lat="37.380976" lon="-122.182841">
        <ele>138.4</ele>
        <time>2015-07-19T20:47:59Z</time>
      </trkpt>
      <trkpt lat="37.380974" lon="-122.182879">
        <ele>138.4</ele>
        <time>2015-07-19T20:48:00Z</time>
      </trkpt>
      <trkpt lat="37.380973" lon="-122.182921">
        <ele>138.4</ele>
        <time>2015-07-19T20:48:01Z</time>
      </trkpt>
      <trkpt lat="37.380972" lon="-122.182963">
        <ele>138.4</ele>
        <time>2015-07-19T20:48:02Z</time>
      </trkpt>
      <trkpt lat="37.380971" lon="-122.182997">
        <ele>138.4</ele>
        <time>2015-07-19T20:48:03Z</time>
      </trkpt>
      <trkpt lat="37.380969" lon="-122.183049">
        <ele>138.4</ele>
        <time>2015-07-19T20:48:05Z</time>
      </trkpt>
      <trkpt lat="37.380969" lon="-122.183102">
        <ele>138.4</ele>
        <time>2015-07-19T20:48:07Z</time>
      </trkpt>
      <trkpt lat="37.380969" lon="-122.183159">
        <ele>138.3</ele>
        <time>2015-07-19T20:48:09Z</time>
      </trkpt>
      <trkpt lat="37.380973" lon="-122.183243">
        <ele>138.2</ele>
        <time>2015-07-19T20:48:11Z</time>
      </trkpt>
      <trkpt lat="37.380971" lon="-122.183306">
        <ele>138.1</ele>
        <time>2015-07-19T20:48:14Z</time>
      </trkpt>
      <trkpt lat="37.380969" lon="-122.183185">
        <ele>138.3</ele>
        <time>2015-07-19T20:48:20Z</time>
      </trkpt>
      <trkpt lat="37.380969" lon="-122.183138">
        <ele>138.3</ele>
        <time>2015-07-19T20:48:21Z</time>
      </trkpt>
      <trkpt lat="37.380969" lon="-122.183103">
        <ele>138.4</ele>
        <time>2015-07-19T20:48:22Z</time>
      </trkpt>
      <trkpt lat="37.380969" lon="-122.183065">
        <ele>138.4</ele>
        <time>2015-07-19T20:48:23Z</time>
      </trkpt>
      <trkpt lat="37.38097" lon="-122.183031">
        <ele>138.4</ele>
        <time>2015-07-19T20:48:24Z</time>
      </trkpt>
      <trkpt lat="37.380971" lon="-122.182994">
        <ele>138.4</ele>
        <time>2015-07-19T20:48:25Z</time>
      </trkpt>
      <trkpt lat="37.380972" lon="-122.182948">
        <ele>138.4</ele>
        <time>2015-07-19T20:48:26Z</time>
      </trkpt>
      <trkpt lat="37.380974" lon="-122.182905">
        <ele>138.4</ele>
        <time>2015-07-19T20:48:27Z</time>
      </trkpt>
      <trkpt lat="37.380975" lon="-122.182863">
        <ele>138.4</ele>
        <time>2015-07-19T20:48:28Z</time>
      </trkpt>
      <trkpt lat="37.380977" lon="-122.182819">
        <ele>138.4</ele>
        <time>2015-07-19T20:48:29Z</time>
      </trkpt>
      <trkpt lat="37.38098" lon="-122.182783">
        <ele>138.4</ele>
        <time>2015-07-19T20:48:30Z</time>
      </trkpt>
      <trkpt lat="37.380984" lon="-122.182724">
        <ele>138.3</ele>
        <time>2015-07-19T20:48:32Z</time>
      </trkpt>
      <trkpt lat="37.380981" lon="-122.182766">
        <ele>138.4</ele>
        <time>2015-07-19T20:48:36Z</time>
      </trkpt>
      <trkpt lat="37.380977" lon="-122.182819">
        <ele>138.4</ele>
        <time>2015-07-19T20:48:38Z</time>
      </trkpt>
      <trkpt lat="37.380975" lon="-122.182866">
        <ele>138.4</ele>
        <time>2015-07-19T20:48:39Z</time>
      </trkpt>
      <trkpt lat="37.380974" lon="-122.182942">
        <ele>138.4</ele>
        <time>2015-07-19T20:48:40Z</time>
      </trkpt>
      <trkpt lat="37.381035" lon="-122.183069">
        <ele>139.3</ele>
        <time>2015-07-19T20:48:41Z</time>
      </trkpt>
      <trkpt lat="37.381033" lon="-122.183136">
        <ele>139.5</ele>
        <time>2015-07-19T20:48:42Z</time>
      </trkpt>
      <trkpt lat="37.381034" lon="-122.183203">
        <ele>139.5</ele>
        <time>2015-07-19T20:48:43Z</time>
      </trkpt>
      <trkpt lat="37.381031" lon="-122.183306">
        <ele>139.4</ele>
        <time>2015-07-19T20:48:44Z</time>
      </trkpt>
      <trkpt lat="37.381031" lon="-122.183375">
        <ele>139.2</ele>
        <time>2015-07-19T20:48:45Z</time>
      </trkpt>
      <trkpt lat="37.381022" lon="-122.18347">
        <ele>138.3</ele>
        <time>2015-07-19T20:48:46Z</time>
      </trkpt>
      <trkpt lat="37.381009" lon="-122.183538">
        <ele>137.7</ele>
        <time>2015-07-19T20:48:47Z</time>
      </trkpt>
      <trkpt lat="37.381014" lon="-122.183613">
        <ele>137.8</ele>
        <time>2015-07-19T20:48:48Z</time>
      </trkpt>
      <trkpt lat="37.381014" lon="-122.183665">
        <ele>137.6</ele>
        <time>2015-07-19T20:48:49Z</time>
      </trkpt>
      <trkpt lat="37.381012" lon="-122.183726">
        <ele>137.4</ele>
        <time>2015-07-19T20:48:50Z</time>
      </trkpt>
      <trkpt lat="37.381016" lon="-122.183803">
        <ele>137.4</ele>
        <time>2015-07-19T20:48:51Z</time>
      </trkpt>
      <trkpt lat="37.381031" lon="-122.183871">
        <ele>137.3</ele>
        <time>2015-07-19T20:48:52Z</time>
      </trkpt>
      <trkpt lat="37.381039" lon="-122.183922">
        <ele>137.4</ele>
        <time>2015-07-19T20:48:53Z</time>
      </trkpt>
      <trkpt lat="37.381042" lon="-122.18399">
        <ele>137.3</ele>
        <time>2015-07-19T20:48:54Z</time>
      </trkpt>
      <trkpt lat="37.381041" lon="-122.184059">
        <ele>137.3</ele>
        <time>2015-07-19T20:48:55Z</time>
      </trkpt>
      <trkpt lat="37.381049" lon="-122.184114">
        <ele>137.5</ele>
        <time>2015-07-19T20:48:56Z</time>
      </trkpt>
      <trkpt lat="37.381074" lon="-122.184164">
        <ele>137.1</ele>
        <time>2015-07-19T20:48:57Z</time>
      </trkpt>
      <trkpt lat="37.381097" lon="-122.184233">
        <ele>137</ele>
        <time>2015-07-19T20:48:58Z</time>
      </trkpt>
      <trkpt lat="37.381142" lon="-122.184281">
        <ele>136.8</ele>
        <time>2015-07-19T20:48:59Z</time>
      </trkpt>
      <trkpt lat="37.381166" lon="-122.18432">
        <ele>136.7</ele>
        <time>2015-07-19T20:49:00Z</time>
      </trkpt>
      <trkpt lat="37.381223" lon="-122.184358">
        <ele>136.3</ele>
        <time>2015-07-19T20:49:01Z</time>
      </trkpt>
      <trkpt lat="37.381266" lon="-122.184402">
        <ele>136.1</ele>
        <time>2015-07-19T20:49:02Z</time>
      </trkpt>
      <trkpt lat="37.381335" lon="-122.184446">
        <ele>135.6</ele>
        <time>2015-07-19T20:49:03Z</time>
      </trkpt>
      <trkpt lat="37.381399" lon="-122.18447">
        <ele>135.1</ele>
        <time>2015-07-19T20:49:04Z</time>
      </trkpt>
      <trkpt lat="37.381453" lon="-122.184487">
        <ele>134.7</ele>
        <time>2015-07-19T20:49:05Z</time>
      </trkpt>
      <trkpt lat="37.381497" lon="-122.1845">
        <ele>134.4</ele>
        <time>2015-07-19T20:49:06Z</time>
      </trkpt>
      <trkpt lat="37.381547" lon="-122.184514">
        <ele>134.1</ele>
        <time>2015-07-19T20:49:07Z</time>
      </trkpt>
      <trkpt lat="37.381613" lon="-122.184532">
        <ele>133.8</ele>
        <time>2015-07-19T20:49:08Z</time>
      </trkpt>
      <trkpt lat="37.38171" lon="-122.184555">
        <ele>133.4</ele>
        <time>2015-07-19T20:49:09Z</time>
      </trkpt>
      <trkpt lat="37.38175" lon="-122.184563">
        <ele>133.2</ele>
        <time>2015-07-19T20:49:10Z</time>
      </trkpt>
      <trkpt lat="37.381827" lon="-122.18458">
        <ele>133</ele>
        <time>2015-07-19T20:49:11Z</time>
      </trkpt>
      <trkpt lat="37.381893" lon="-122.184593">
        <ele>132.7</ele>
        <time>2015-07-19T20:49:12Z</time>
      </trkpt>
      <trkpt lat="37.382029" lon="-122.184625">
        <ele>132</ele>
        <time>2015-07-19T20:49:13Z</time>
      </trkpt>
      <trkpt lat="37.382083" lon="-122.184647">
        <ele>131.7</ele>
        <time>2015-07-19T20:49:14Z</time>
      </trkpt>
      <trkpt lat="37.38219" lon="-122.184721">
        <ele>131.1</ele>
        <time>2015-07-19T20:49:15Z</time>
      </trkpt>
      <trkpt lat="37.382251" lon="-122.184796">
        <ele>130.5</ele>
        <time>2015-07-19T20:49:16Z</time>
      </trkpt>
      <trkpt lat="37.382294" lon="-122.184864">
        <ele>130.2</ele>
        <time>2015-07-19T20:49:17Z</time>
      </trkpt>
      <trkpt lat="37.382359" lon="-122.18498">
        <ele>129.7</ele>
        <time>2015-07-19T20:49:18Z</time>
      </trkpt>
      <trkpt lat="37.382411" lon="-122.185073">
        <ele>130</ele>
        <time>2015-07-19T20:49:19Z</time>
      </trkpt>
      <trkpt lat="37.382467" lon="-122.185174">
        <ele>129.6</ele>
        <time>2015-07-19T20:49:20Z</time>
      </trkpt>
      <trkpt lat="37.382557" lon="-122.185315">
        <ele>128.8</ele>
        <time>2015-07-19T20:49:21Z</time>
      </trkpt>
      <trkpt lat="37.382642" lon="-122.185414">
        <ele>128.3</ele>
        <time>2015-07-19T20:49:22Z</time>
      </trkpt>
      <trkpt lat="37.382705" lon="-122.185483">
        <ele>128.1</ele>
        <time>2015-07-19T20:49:23Z</time>
      </trkpt>
      <trkpt lat="37.3828" lon="-122.18558">
        <ele>127.6</ele>
        <time>2015-07-19T20:49:24Z</time>
      </trkpt>
      <trkpt lat="37.382863" lon="-122.185641">
        <ele>127.2</ele>
        <time>2015-07-19T20:49:25Z</time>
      </trkpt>
      <trkpt lat="37.382933" lon="-122.185708">
        <ele>126.8</ele>
        <time>2015-07-19T20:49:26Z</time>
      </trkpt>
      <trkpt lat="37.382992" lon="-122.185764">
        <ele>126.4</ele>
        <time>2015-07-19T20:49:27Z</time>
      </trkpt>
      <trkpt lat="37.383055" lon="-122.185825">
        <ele>125.9</ele>
        <time>2015-07-19T20:49:28Z</time>
      </trkpt>
      <trkpt lat="37.38313" lon="-122.185896">
        <ele>125.4</ele>
        <time>2015-07-19T20:49:29Z</time>
      </trkpt>
      <trkpt lat="37.383209" lon="-122.185972">
        <ele>124.9</ele>
        <time>2015-07-19T20:49:30Z</time>
      </trkpt>
      <trkpt lat="37.383285" lon="-122.186043">
        <ele>124.5</ele>
        <time>2015-07-19T20:49:31Z</time>
      </trkpt>
      <trkpt lat="37.383374" lon="-122.186128">
        <ele>124.1</ele>
        <time>2015-07-19T20:49:32Z</time>
      </trkpt>
      <trkpt lat="37.383465" lon="-122.186214">
        <ele>123.7</ele>
        <time>2015-07-19T20:49:33Z</time>
      </trkpt>
      <trkpt lat="37.383558" lon="-122.186302">
        <ele>123.3</ele>
        <time>2015-07-19T20:49:34Z</time>
      </trkpt>
      <trkpt lat="37.383653" lon="-122.18639">
        <ele>122.7</ele>
        <time>2015-07-19T20:49:35Z</time>
      </trkpt>
      <trkpt lat="37.383724" lon="-122.186454">
        <ele>122.3</ele>
        <time>2015-07-19T20:49:36Z</time>
      </trkpt>
      <trkpt lat="37.383804" lon="-122.186526">
        <ele>121.8</ele>
        <time>2015-07-19T20:49:37Z</time>
      </trkpt>
      <trkpt lat="37.383869" lon="-122.186583">
        <ele>121.7</ele>
        <time>2015-07-19T20:49:38Z</time>
      </trkpt>
      <trkpt lat="37.383946" lon="-122.186651">
        <ele>121.4</ele>
        <time>2015-07-19T20:49:39Z</time>
      </trkpt>
      <trkpt lat="37.384028" lon="-122.186727">
        <ele>121.8</ele>
        <time>2015-07-19T20:49:40Z</time>
      </trkpt>
      <trkpt lat="37.38411" lon="-122.186812">
        <ele>122.7</ele>
        <time>2015-07-19T20:49:41Z</time>
      </trkpt>
      <trkpt lat="37.38421" lon="-122.186919">
        <ele>123</ele>
        <time>2015-07-19T20:49:42Z</time>
      </trkpt>
      <trkpt lat="37.384274" lon="-122.186994">
        <ele>123</ele>
        <time>2015-07-19T20:49:43Z</time>
      </trkpt>
      <trkpt lat="37.384362" lon="-122.187105">
        <ele>122.4</ele>
        <time>2015-07-19T20:49:44Z</time>
      </trkpt>
      <trkpt lat="37.384444" lon="-122.187241">
        <ele>121.2</ele>
        <time>2015-07-19T20:49:45Z</time>
      </trkpt>
      <trkpt lat="37.38451" lon="-122.187387">
        <ele>119.9</ele>
        <time>2015-07-19T20:49:46Z</time>
      </trkpt>
      <trkpt lat="37.384538" lon="-122.187464">
        <ele>118.8</ele>
        <time>2015-07-19T20:49:47Z</time>
      </trkpt>
      <trkpt lat="37.384583" lon="-122.187619">
        <ele>116.5</ele>
        <time>2015-07-19T20:49:48Z</time>
      </trkpt>
      <trkpt lat="37.384609" lon="-122.187707">
        <ele>116</ele>
        <time>2015-07-19T20:49:49Z</time>
      </trkpt>
      <trkpt lat="37.38464" lon="-122.187835">
        <ele>115</ele>
        <time>2015-07-19T20:49:50Z</time>
      </trkpt>
      <trkpt lat="37.38467" lon="-122.187955">
        <ele>114.5</ele>
        <time>2015-07-19T20:49:51Z</time>
      </trkpt>
      <trkpt lat="37.384699" lon="-122.188073">
        <ele>114.1</ele>
        <time>2015-07-19T20:49:52Z</time>
      </trkpt>
      <trkpt lat="37.384724" lon="-122.188199">
        <ele>113.9</ele>
        <time>2015-07-19T20:49:53Z</time>
      </trkpt>
      <trkpt lat="37.384733" lon="-122.188329">
        <ele>113.7</ele>
        <time>2015-07-19T20:49:54Z</time>
      </trkpt>
      <trkpt lat="37.384739" lon="-122.188444">
        <ele>113.5</ele>
        <time>2015-07-19T20:49:55Z</time>
      </trkpt>
      <trkpt lat="37.384748" lon="-122.188599">
        <ele>113.6</ele>
        <time>2015-07-19T20:49:56Z</time>
      </trkpt>
      <trkpt lat="37.384753" lon="-122.188746">
        <ele>113.7</ele>
        <time>2015-07-19T20:49:57Z</time>
      </trkpt>
      <trkpt lat="37.384761" lon="-122.18895">
        <ele>114.2</ele>
        <time>2015-07-19T20:49:58Z</time>
      </trkpt>
      <trkpt lat="37.384764" lon="-122.189037">
        <ele>114.5</ele>
        <time>2015-07-19T20:49:59Z</time>
      </trkpt>
      <trkpt lat="37.384767" lon="-122.189143">
        <ele>114.8</ele>
        <time>2015-07-19T20:50:00Z</time>
      </trkpt>
      <trkpt lat="37.384765" lon="-122.189225">
        <ele>115.1</ele>
        <time>2015-07-19T20:50:01Z</time>
      </trkpt>
      <trkpt lat="37.384764" lon="-122.189267">
        <ele>115.2</ele>
        <time>2015-07-19T20:50:02Z</time>
      </trkpt>
      <trkpt lat="37.384753" lon="-122.189356">
        <ele>115.2</ele>
        <time>2015-07-19T20:50:03Z</time>
      </trkpt>
      <trkpt lat="37.384728" lon="-122.189489">
        <ele>115.6</ele>
        <time>2015-07-19T20:50:04Z</time>
      </trkpt>
      <trkpt lat="37.3847" lon="-122.189554">
        <ele>115.7</ele>
        <time>2015-07-19T20:50:05Z</time>
      </trkpt>
      <trkpt lat="37.384677" lon="-122.189596">
        <ele>115.7</ele>
        <time>2015-07-19T20:50:06Z</time>
      </trkpt>
      <trkpt lat="37.384653" lon="-122.189641">
        <ele>115.9</ele>
        <time>2015-07-19T20:50:07Z</time>
      </trkpt>
      <trkpt lat="37.384564" lon="-122.189806">
        <ele>116.3</ele>
        <time>2015-07-19T20:50:08Z</time>
      </trkpt>
      <trkpt lat="37.38453" lon="-122.189868">
        <ele>116.3</ele>
        <time>2015-07-19T20:50:10Z</time>
      </trkpt>
      <trkpt lat="37.384498" lon="-122.189928">
        <ele>116.3</ele>
        <time>2015-07-19T20:50:11Z</time>
      </trkpt>
      <trkpt lat="37.384472" lon="-122.189978">
        <ele>116.3</ele>
        <time>2015-07-19T20:50:12Z</time>
      </trkpt>
      <trkpt lat="37.384436" lon="-122.190047">
        <ele>116.2</ele>
        <time>2015-07-19T20:50:13Z</time>
      </trkpt>
      <trkpt lat="37.384415" lon="-122.190085">
        <ele>116.3</ele>
        <time>2015-07-19T20:50:14Z</time>
      </trkpt>
      <trkpt lat="37.384379" lon="-122.19015">
        <ele>116.3</ele>
        <time>2015-07-19T20:50:15Z</time>
      </trkpt>
      <trkpt lat="37.38434" lon="-122.190221">
        <ele>116.4</ele>
        <time>2015-07-19T20:50:16Z</time>
      </trkpt>
      <trkpt lat="37.384208" lon="-122.190459">
        <ele>116.1</ele>
        <time>2015-07-19T20:50:19Z</time>
      </trkpt>
      <trkpt lat="37.384168" lon="-122.190532">
        <ele>116.1</ele>
        <time>2015-07-19T20:50:20Z</time>
      </trkpt>
      <trkpt lat="37.38413" lon="-122.190599">
        <ele>116.1</ele>
        <time>2015-07-19T20:50:21Z</time>
      </trkpt>
      <trkpt lat="37.384101" lon="-122.190651">
        <ele>115.8</ele>
        <time>2015-07-19T20:50:22Z</time>
      </trkpt>
      <trkpt lat="37.384057" lon="-122.19073">
        <ele>115.5</ele>
        <time>2015-07-19T20:50:23Z</time>
      </trkpt>
      <trkpt lat="37.384013" lon="-122.190807">
        <ele>115.2</ele>
        <time>2015-07-19T20:50:24Z</time>
      </trkpt>
      <trkpt lat="37.383987" lon="-122.190854">
        <ele>114.9</ele>
        <time>2015-07-19T20:50:25Z</time>
      </trkpt>
      <trkpt lat="37.383937" lon="-122.190943">
        <ele>114.8</ele>
        <time>2015-07-19T20:50:26Z</time>
      </trkpt>
      <trkpt lat="37.38389" lon="-122.191025">
        <ele>114.7</ele>
        <time>2015-07-19T20:50:27Z</time>
      </trkpt>
      <trkpt lat="37.383846" lon="-122.191104">
        <ele>114.5</ele>
        <time>2015-07-19T20:50:28Z</time>
      </trkpt>
      <trkpt lat="37.383815" lon="-122.19116">
        <ele>114.4</ele>
        <time>2015-07-19T20:50:29Z</time>
      </trkpt>
      <trkpt lat="37.383759" lon="-122.191259">
        <ele>114.5</ele>
        <time>2015-07-19T20:50:30Z</time>
      </trkpt>
      <trkpt lat="37.383731" lon="-122.191309">
        <ele>114.5</ele>
        <time>2015-07-19T20:50:31Z</time>
      </trkpt>
      <trkpt lat="37.383691" lon="-122.19138">
        <ele>114.5</ele>
        <time>2015-07-19T20:50:32Z</time>
      </trkpt>
      <trkpt lat="37.383627" lon="-122.191494">
        <ele>114.7</ele>
        <time>2015-07-19T20:50:33Z</time>
      </trkpt>
      <trkpt lat="37.383578" lon="-122.191578">
        <ele>114.8</ele>
        <time>2015-07-19T20:50:34Z</time>
      </trkpt>
      <trkpt lat="37.383536" lon="-122.191646">
        <ele>115</ele>
        <time>2015-07-19T20:50:35Z</time>
      </trkpt>
      <trkpt lat="37.383484" lon="-122.191732">
        <ele>115</ele>
        <time>2015-07-19T20:50:36Z</time>
      </trkpt>
      <trkpt lat="37.383452" lon="-122.191785">
        <ele>115</ele>
        <time>2015-07-19T20:50:37Z</time>
      </trkpt>
      <trkpt lat="37.383432" lon="-122.191823">
        <ele>114.9</ele>
        <time>2015-07-19T20:50:38Z</time>
      </trkpt>
      <trkpt lat="37.383403" lon="-122.191887">
        <ele>114.9</ele>
        <time>2015-07-19T20:50:39Z</time>
      </trkpt>
      <trkpt lat="37.383377" lon="-122.191954">
        <ele>114.9</ele>
        <time>2015-07-19T20:50:40Z</time>
      </trkpt>
      <trkpt lat="37.38335" lon="-122.192024">
        <ele>114.7</ele>
        <time>2015-07-19T20:50:41Z</time>
      </trkpt>
      <trkpt lat="37.38331" lon="-122.192128">
        <ele>114.6</ele>
        <time>2015-07-19T20:50:42Z</time>
      </trkpt>
      <trkpt lat="37.383284" lon="-122.192198">
        <ele>114.8</ele>
        <time>2015-07-19T20:50:43Z</time>
      </trkpt>
      <trkpt lat="37.383263" lon="-122.192253">
        <ele>114.8</ele>
        <time>2015-07-19T20:50:44Z</time>
      </trkpt>
      <trkpt lat="37.383247" lon="-122.192296">
        <ele>114.7</ele>
        <time>2015-07-19T20:50:45Z</time>
      </trkpt>
      <trkpt lat="37.383225" lon="-122.192354">
        <ele>114.8</ele>
        <time>2015-07-19T20:50:46Z</time>
      </trkpt>
      <trkpt lat="37.383204" lon="-122.192409">
        <ele>114.9</ele>
        <time>2015-07-19T20:50:47Z</time>
      </trkpt>
      <trkpt lat="37.383176" lon="-122.192483">
        <ele>114.9</ele>
        <time>2015-07-19T20:50:48Z</time>
      </trkpt>
      <trkpt lat="37.383153" lon="-122.192554">
        <ele>114.9</ele>
        <time>2015-07-19T20:50:52Z</time>
      </trkpt>
      <trkpt lat="37.383136" lon="-122.192599">
        <ele>115</ele>
        <time>2015-07-19T20:50:53Z</time>
      </trkpt>
      <trkpt lat="37.383121" lon="-122.192639">
        <ele>115</ele>
        <time>2015-07-19T20:50:54Z</time>
      </trkpt>
      <trkpt lat="37.383083" lon="-122.192705">
        <ele>115.1</ele>
        <time>2015-07-19T20:50:56Z</time>
      </trkpt>
      <trkpt lat="37.383036" lon="-122.192778">
        <ele>115.2</ele>
        <time>2015-07-19T20:50:57Z</time>
      </trkpt>
      <trkpt lat="37.383005" lon="-122.192831">
        <ele>115.3</ele>
        <time>2015-07-19T20:50:58Z</time>
      </trkpt>
      <trkpt lat="37.382972" lon="-122.192889">
        <ele>115.3</ele>
        <time>2015-07-19T20:50:59Z</time>
      </trkpt>
      <trkpt lat="37.38294" lon="-122.192947">
        <ele>115.3</ele>
        <time>2015-07-19T20:51:00Z</time>
      </trkpt>
      <trkpt lat="37.382897" lon="-122.19305">
        <ele>115.7</ele>
        <time>2015-07-19T20:51:03Z</time>
      </trkpt>
      <trkpt lat="37.38287" lon="-122.193131">
        <ele>116.2</ele>
        <time>2015-07-19T20:51:04Z</time>
      </trkpt>
      <trkpt lat="37.382853" lon="-122.193225">
        <ele>117.1</ele>
        <time>2015-07-19T20:51:06Z</time>
      </trkpt>
      <trkpt lat="37.382848" lon="-122.193267">
        <ele>117.5</ele>
        <time>2015-07-19T20:51:08Z</time>
      </trkpt>
      <trkpt lat="37.38287" lon="-122.193381">
        <ele>118.5</ele>
        <time>2015-07-19T20:51:18Z</time>
      </trkpt>
      <trkpt lat="37.382883" lon="-122.193423">
        <ele>118.6</ele>
        <time>2015-07-19T20:51:25Z</time>
      </trkpt>
      <trkpt lat="37.382959" lon="-122.193428">
        <ele>118.7</ele>
        <time>2015-07-19T20:53:49Z</time>
      </trkpt>
      <trkpt lat="37.38291" lon="-122.193478">
        <ele>118.7</ele>
        <time>2015-07-19T20:54:48Z</time>
      </trkpt>
      <trkpt lat="37.38289" lon="-122.193443">
        <ele>118.7</ele>
        <time>2015-07-19T20:54:49Z</time>
      </trkpt>
      <trkpt lat="37.382886" lon="-122.193622">
        <ele>118.7</ele>
        <time>2015-07-19T20:54:54Z</time>
      </trkpt>
      <trkpt lat="37.382849" lon="-122.193683">
        <ele>118.7</ele>
        <time>2015-07-19T20:54:56Z</time>
      </trkpt>
      <trkpt lat="37.382834" lon="-122.193717">
        <ele>118.7</ele>
        <time>2015-07-19T20:55:33Z</time>
      </trkpt>
      <trkpt lat="37.382819" lon="-122.193752">
        <ele>118.8</ele>
        <time>2015-07-19T20:55:34Z</time>
      </trkpt>
      <trkpt lat="37.382779" lon="-122.193787">
        <ele>119</ele>
        <time>2015-07-19T20:55:36Z</time>
      </trkpt>
      <trkpt lat="37.382756" lon="-122.193805">
        <ele>119</ele>
        <time>2015-07-19T20:55:37Z</time>
      </trkpt>
      <trkpt lat="37.382733" lon="-122.193823">
        <ele>119</ele>
        <time>2015-07-19T20:55:38Z</time>
      </trkpt>
      <trkpt lat="37.382694" lon="-122.19387">
        <ele>119.2</ele>
        <time>2015-07-19T20:55:40Z</time>
      </trkpt>
      <trkpt lat="37.382674" lon="-122.193897">
        <ele>119.3</ele>
        <time>2015-07-19T20:55:41Z</time>
      </trkpt>
      <trkpt lat="37.382651" lon="-122.193927">
        <ele>119.5</ele>
        <time>2015-07-19T20:55:42Z</time>
      </trkpt>
      <trkpt lat="37.38263" lon="-122.193957">
        <ele>119.6</ele>
        <time>2015-07-19T20:55:43Z</time>
      </trkpt>
      <trkpt lat="37.382584" lon="-122.194013">
        <ele>119.8</ele>
        <time>2015-07-19T20:55:45Z</time>
      </trkpt>
      <trkpt lat="37.38256" lon="-122.194038">
        <ele>119.9</ele>
        <time>2015-07-19T20:55:46Z</time>
      </trkpt>
      <trkpt lat="37.382535" lon="-122.194064">
        <ele>120</ele>
        <time>2015-07-19T20:55:47Z</time>
      </trkpt>
      <trkpt lat="37.382511" lon="-122.194094">
        <ele>119.9</ele>
        <time>2015-07-19T20:55:48Z</time>
      </trkpt>
      <trkpt lat="37.382483" lon="-122.194123">
        <ele>120</ele>
        <time>2015-07-19T20:55:49Z</time>
      </trkpt>
      <trkpt lat="37.382458" lon="-122.194149">
        <ele>120.1</ele>
        <time>2015-07-19T20:55:50Z</time>
      </trkpt>
      <trkpt lat="37.382435" lon="-122.194176">
        <ele>120.1</ele>
        <time>2015-07-19T20:55:51Z</time>
      </trkpt>
      <trkpt lat="37.382412" lon="-122.194202">
        <ele>120.2</ele>
        <time>2015-07-19T20:55:52Z</time>
      </trkpt>
      <trkpt lat="37.382385" lon="-122.19423">
        <ele>120.4</ele>
        <time>2015-07-19T20:55:53Z</time>
      </trkpt>
      <trkpt lat="37.382361" lon="-122.194258">
        <ele>120.5</ele>
        <time>2015-07-19T20:55:54Z</time>
      </trkpt>
      <trkpt lat="37.382333" lon="-122.19428">
        <ele>120.7</ele>
        <time>2015-07-19T20:55:55Z</time>
      </trkpt>
      <trkpt lat="37.382312" lon="-122.194304">
        <ele>120.8</ele>
        <time>2015-07-19T20:55:56Z</time>
      </trkpt>
      <trkpt lat="37.382269" lon="-122.194348">
        <ele>121</ele>
        <time>2015-07-19T20:55:58Z</time>
      </trkpt>
      <trkpt lat="37.382236" lon="-122.194389">
        <ele>121.2</ele>
        <time>2015-07-19T20:56:00Z</time>
      </trkpt>
      <trkpt lat="37.382209" lon="-122.194457">
        <ele>121.4</ele>
        <time>2015-07-19T20:56:03Z</time>
      </trkpt>
      <trkpt lat="37.382192" lon="-122.194504">
        <ele>121.6</ele>
        <time>2015-07-19T20:56:05Z</time>
      </trkpt>
      <trkpt lat="37.382175" lon="-122.194477">
        <ele>121.6</ele>
        <time>2015-07-19T20:56:08Z</time>
      </trkpt>
      <trkpt lat="37.382049" lon="-122.194602">
        <ele>122.4</ele>
        <time>2015-07-19T20:56:11Z</time>
      </trkpt>
      <trkpt lat="37.382003" lon="-122.194632">
        <ele>122.7</ele>
        <time>2015-07-19T20:56:13Z</time>
      </trkpt>
      <trkpt lat="37.381956" lon="-122.194671">
        <ele>123</ele>
        <time>2015-07-19T20:56:15Z</time>
      </trkpt>
      <trkpt lat="37.381932" lon="-122.194693">
        <ele>123.2</ele>
        <time>2015-07-19T20:56:16Z</time>
      </trkpt>
      <trkpt lat="37.381901" lon="-122.194708">
        <ele>123.2</ele>
        <time>2015-07-19T20:56:17Z</time>
      </trkpt>
      <trkpt lat="37.381877" lon="-122.194737">
        <ele>123.4</ele>
        <time>2015-07-19T20:56:18Z</time>
      </trkpt>
      <trkpt lat="37.38186" lon="-122.194772">
        <ele>123.9</ele>
        <time>2015-07-19T20:56:19Z</time>
      </trkpt>
      <trkpt lat="37.381834" lon="-122.194797">
        <ele>123.9</ele>
        <time>2015-07-19T20:56:20Z</time>
      </trkpt>
      <trkpt lat="37.381814" lon="-122.194821">
        <ele>124.1</ele>
        <time>2015-07-19T20:56:21Z</time>
      </trkpt>
      <trkpt lat="37.381794" lon="-122.194848">
        <ele>124.2</ele>
        <time>2015-07-19T20:56:22Z</time>
      </trkpt>
      <trkpt lat="37.381773" lon="-122.19488">
        <ele>124.4</ele>
        <time>2015-07-19T20:56:23Z</time>
      </trkpt>
      <trkpt lat="37.381753" lon="-122.194912">
        <ele>124.7</ele>
        <time>2015-07-19T20:56:24Z</time>
      </trkpt>
      <trkpt lat="37.381727" lon="-122.194936">
        <ele>124.8</ele>
        <time>2015-07-19T20:56:25Z</time>
      </trkpt>
      <trkpt lat="37.381704" lon="-122.19496">
        <ele>124.9</ele>
        <time>2015-07-19T20:56:26Z</time>
      </trkpt>
      <trkpt lat="37.381679" lon="-122.194984">
        <ele>124.9</ele>
        <time>2015-07-19T20:56:27Z</time>
      </trkpt>
      <trkpt lat="37.381653" lon="-122.195007">
        <ele>125.1</ele>
        <time>2015-07-19T20:56:28Z</time>
      </trkpt>
      <trkpt lat="37.381628" lon="-122.195027">
        <ele>125.2</ele>
        <time>2015-07-19T20:56:29Z</time>
      </trkpt>
      <trkpt lat="37.381605" lon="-122.195048">
        <ele>125.3</ele>
        <time>2015-07-19T20:56:30Z</time>
      </trkpt>
      <trkpt lat="37.381584" lon="-122.195075">
        <ele>125.5</ele>
        <time>2015-07-19T20:56:31Z</time>
      </trkpt>
      <trkpt lat="37.381562" lon="-122.195101">
        <ele>125.6</ele>
        <time>2015-07-19T20:56:32Z</time>
      </trkpt>
      <trkpt lat="37.381537" lon="-122.195125">
        <ele>125.8</ele>
        <time>2015-07-19T20:56:33Z</time>
      </trkpt>
      <trkpt lat="37.381515" lon="-122.195148">
        <ele>126</ele>
        <time>2015-07-19T20:56:34Z</time>
      </trkpt>
      <trkpt lat="37.381494" lon="-122.195171">
        <ele>125.9</ele>
        <time>2015-07-19T20:56:35Z</time>
      </trkpt>
      <trkpt lat="37.381468" lon="-122.195197">
        <ele>126</ele>
        <time>2015-07-19T20:56:36Z</time>
      </trkpt>
      <trkpt lat="37.381444" lon="-122.195222">
        <ele>126.3</ele>
        <time>2015-07-19T20:56:37Z</time>
      </trkpt>
      <trkpt lat="37.381417" lon="-122.195244">
        <ele>126.4</ele>
        <time>2015-07-19T20:56:38Z</time>
      </trkpt>
      <trkpt lat="37.381394" lon="-122.195265">
        <ele>126.4</ele>
        <time>2015-07-19T20:56:39Z</time>
      </trkpt>
      <trkpt lat="37.381366" lon="-122.195283">
        <ele>126.4</ele>
        <time>2015-07-19T20:56:40Z</time>
      </trkpt>
      <trkpt lat="37.381339" lon="-122.195301">
        <ele>126.4</ele>
        <time>2015-07-19T20:56:41Z</time>
      </trkpt>
      <trkpt lat="37.381294" lon="-122.195323">
        <ele>126.6</ele>
        <time>2015-07-19T20:56:43Z</time>
      </trkpt>
      <trkpt lat="37.38126" lon="-122.195355">
        <ele>126.8</ele>
        <time>2015-07-19T20:56:45Z</time>
      </trkpt>
      <trkpt lat="37.381228" lon="-122.195413">
        <ele>127</ele>
        <time>2015-07-19T20:56:47Z</time>
      </trkpt>
      <trkpt lat="37.381209" lon="-122.195441">
        <ele>127.1</ele>
        <time>2015-07-19T20:56:48Z</time>
      </trkpt>
      <trkpt lat="37.38119" lon="-122.19547">
        <ele>127.6</ele>
        <time>2015-07-19T20:56:49Z</time>
      </trkpt>
      <trkpt lat="37.381167" lon="-122.195494">
        <ele>127.7</ele>
        <time>2015-07-19T20:56:50Z</time>
      </trkpt>
      <trkpt lat="37.381144" lon="-122.195519">
        <ele>127.8</ele>
        <time>2015-07-19T20:56:51Z</time>
      </trkpt>
      <trkpt lat="37.381118" lon="-122.195541">
        <ele>127.7</ele>
        <time>2015-07-19T20:56:52Z</time>
      </trkpt>
      <trkpt lat="37.381099" lon="-122.19557">
        <ele>127.8</ele>
        <time>2015-07-19T20:56:53Z</time>
      </trkpt>
      <trkpt lat="37.381061" lon="-122.195619">
        <ele>128.4</ele>
        <time>2015-07-19T20:56:55Z</time>
      </trkpt>
      <trkpt lat="37.381039" lon="-122.195643">
        <ele>128.6</ele>
        <time>2015-07-19T20:56:56Z</time>
      </trkpt>
      <trkpt lat="37.381018" lon="-122.195669">
        <ele>128.7</ele>
        <time>2015-07-19T20:56:57Z</time>
      </trkpt>
      <trkpt lat="37.380997" lon="-122.195696">
        <ele>129</ele>
        <time>2015-07-19T20:56:58Z</time>
      </trkpt>
      <trkpt lat="37.380975" lon="-122.195716">
        <ele>128.9</ele>
        <time>2015-07-19T20:56:59Z</time>
      </trkpt>
      <trkpt lat="37.380952" lon="-122.195738">
        <ele>128.9</ele>
        <time>2015-07-19T20:57:00Z</time>
      </trkpt>
      <trkpt lat="37.380924" lon="-122.195759">
        <ele>129</ele>
        <time>2015-07-19T20:57:01Z</time>
      </trkpt>
      <trkpt lat="37.3809" lon="-122.195777">
        <ele>129.2</ele>
        <time>2015-07-19T20:57:02Z</time>
      </trkpt>
      <trkpt lat="37.380869" lon="-122.195794">
        <ele>129.2</ele>
        <time>2015-07-19T20:57:03Z</time>
      </trkpt>
      <trkpt lat="37.380836" lon="-122.195825">
        <ele>129.5</ele>
        <time>2015-07-19T20:57:05Z</time>
      </trkpt>
      <trkpt lat="37.380795" lon="-122.195858">
        <ele>129.6</ele>
        <time>2015-07-19T20:57:07Z</time>
      </trkpt>
      <trkpt lat="37.380755" lon="-122.195889">
        <ele>129.7</ele>
        <time>2015-07-19T20:57:09Z</time>
      </trkpt>
      <trkpt lat="37.380719" lon="-122.195916">
        <ele>130</ele>
        <time>2015-07-19T20:57:11Z</time>
      </trkpt>
      <trkpt lat="37.380689" lon="-122.19594">
        <ele>130.2</ele>
        <time>2015-07-19T20:57:13Z</time>
      </trkpt>
      <trkpt lat="37.380666" lon="-122.195966">
        <ele>130.2</ele>
        <time>2015-07-19T20:57:15Z</time>
      </trkpt>
      <trkpt lat="37.380633" lon="-122.195996">
        <ele>130.6</ele>
        <time>2015-07-19T20:57:17Z</time>
      </trkpt>
      <trkpt lat="37.380599" lon="-122.196029">
        <ele>131</ele>
        <time>2015-07-19T20:57:19Z</time>
      </trkpt>
      <trkpt lat="37.38055" lon="-122.196049">
        <ele>130.7</ele>
        <time>2015-07-19T20:57:21Z</time>
      </trkpt>
      <trkpt lat="37.38051" lon="-122.196069">
        <ele>130.6</ele>
        <time>2015-07-19T20:57:23Z</time>
      </trkpt>
      <trkpt lat="37.380467" lon="-122.19609">
        <ele>130.8</ele>
        <time>2015-07-19T20:57:25Z</time>
      </trkpt>
      <trkpt lat="37.380421" lon="-122.196116">
        <ele>130.9</ele>
        <time>2015-07-19T20:57:27Z</time>
      </trkpt>
      <trkpt lat="37.380394" lon="-122.196132">
        <ele>131</ele>
        <time>2015-07-19T20:57:28Z</time>
      </trkpt>
      <trkpt lat="37.380367" lon="-122.196149">
        <ele>131.1</ele>
        <time>2015-07-19T20:57:29Z</time>
      </trkpt>
      <trkpt lat="37.380339" lon="-122.196168">
        <ele>131.2</ele>
        <time>2015-07-19T20:57:30Z</time>
      </trkpt>
      <trkpt lat="37.380309" lon="-122.196185">
        <ele>131.2</ele>
        <time>2015-07-19T20:57:31Z</time>
      </trkpt>
      <trkpt lat="37.38028" lon="-122.196202">
        <ele>131.2</ele>
        <time>2015-07-19T20:57:32Z</time>
      </trkpt>
      <trkpt lat="37.380249" lon="-122.196221">
        <ele>131.3</ele>
        <time>2015-07-19T20:57:33Z</time>
      </trkpt>
      <trkpt lat="37.380219" lon="-122.19624">
        <ele>131.4</ele>
        <time>2015-07-19T20:57:34Z</time>
      </trkpt>
      <trkpt lat="37.38019" lon="-122.19626">
        <ele>131.5</ele>
        <time>2015-07-19T20:57:35Z</time>
      </trkpt>
      <trkpt lat="37.380157" lon="-122.196283">
        <ele>131.6</ele>
        <time>2015-07-19T20:57:36Z</time>
      </trkpt>
      <trkpt lat="37.380123" lon="-122.196303">
        <ele>131.7</ele>
        <time>2015-07-19T20:57:37Z</time>
      </trkpt>
      <trkpt lat="37.380092" lon="-122.196329">
        <ele>131.8</ele>
        <time>2015-07-19T20:57:38Z</time>
      </trkpt>
      <trkpt lat="37.380063" lon="-122.196352">
        <ele>131.8</ele>
        <time>2015-07-19T20:57:39Z</time>
      </trkpt>
      <trkpt lat="37.380035" lon="-122.196374">
        <ele>131.9</ele>
        <time>2015-07-19T20:57:40Z</time>
      </trkpt>
      <trkpt lat="37.38001" lon="-122.196404">
        <ele>131.9</ele>
        <time>2015-07-19T20:57:41Z</time>
      </trkpt>
      <trkpt lat="37.379979" lon="-122.196422">
        <ele>132</ele>
        <time>2015-07-19T20:57:42Z</time>
      </trkpt>
      <trkpt lat="37.379951" lon="-122.196437">
        <ele>132.1</ele>
        <time>2015-07-19T20:57:43Z</time>
      </trkpt>
      <trkpt lat="37.379919" lon="-122.196453">
        <ele>132</ele>
        <time>2015-07-19T20:57:44Z</time>
      </trkpt>
      <trkpt lat="37.379892" lon="-122.196475">
        <ele>132</ele>
        <time>2015-07-19T20:57:45Z</time>
      </trkpt>
      <trkpt lat="37.379864" lon="-122.196498">
        <ele>132</ele>
        <time>2015-07-19T20:57:46Z</time>
      </trkpt>
      <trkpt lat="37.379831" lon="-122.196514">
        <ele>132.1</ele>
        <time>2015-07-19T20:57:47Z</time>
      </trkpt>
      <trkpt lat="37.3798" lon="-122.19653">
        <ele>131.7</ele>
        <time>2015-07-19T20:57:48Z</time>
      </trkpt>
      <trkpt lat="37.379769" lon="-122.196547">
        <ele>132</ele>
        <time>2015-07-19T20:57:49Z</time>
      </trkpt>
      <trkpt lat="37.379737" lon="-122.196565">
        <ele>132.1</ele>
        <time>2015-07-19T20:57:50Z</time>
      </trkpt>
      <trkpt lat="37.379702" lon="-122.196578">
        <ele>132.2</ele>
        <time>2015-07-19T20:57:51Z</time>
      </trkpt>
      <trkpt lat="37.379671" lon="-122.19659">
        <ele>132.3</ele>
        <time>2015-07-19T20:57:52Z</time>
      </trkpt>
      <trkpt lat="37.379642" lon="-122.196602">
        <ele>132.4</ele>
        <time>2015-07-19T20:57:53Z</time>
      </trkpt>
      <trkpt lat="37.379616" lon="-122.196615">
        <ele>132.4</ele>
        <time>2015-07-19T20:57:54Z</time>
      </trkpt>
      <trkpt lat="37.379578" lon="-122.196642">
        <ele>132.5</ele>
        <time>2015-07-19T20:57:56Z</time>
      </trkpt>
      <trkpt lat="37.379548" lon="-122.19666">
        <ele>132.5</ele>
        <time>2015-07-19T20:57:57Z</time>
      </trkpt>
      <trkpt lat="37.379517" lon="-122.196675">
        <ele>132.4</ele>
        <time>2015-07-19T20:57:58Z</time>
      </trkpt>
      <trkpt lat="37.379485" lon="-122.196688">
        <ele>132.5</ele>
        <time>2015-07-19T20:57:59Z</time>
      </trkpt>
      <trkpt lat="37.379457" lon="-122.196701">
        <ele>132.6</ele>
        <time>2015-07-19T20:58:00Z</time>
      </trkpt>
      <trkpt lat="37.379426" lon="-122.196716">
        <ele>132.8</ele>
        <time>2015-07-19T20:58:01Z</time>
      </trkpt>
      <trkpt lat="37.379396" lon="-122.196731">
        <ele>132.9</ele>
        <time>2015-07-19T20:58:02Z</time>
      </trkpt>
      <trkpt lat="37.379342" lon="-122.196759">
        <ele>132.9</ele>
        <time>2015-07-19T20:58:04Z</time>
      </trkpt>
      <trkpt lat="37.379305" lon="-122.19677">
        <ele>133</ele>
        <time>2015-07-19T20:58:05Z</time>
      </trkpt>
      <trkpt lat="37.379276" lon="-122.196783">
        <ele>133.1</ele>
        <time>2015-07-19T20:58:06Z</time>
      </trkpt>
      <trkpt lat="37.379236" lon="-122.196792">
        <ele>133.2</ele>
        <time>2015-07-19T20:58:07Z</time>
      </trkpt>
      <trkpt lat="37.379207" lon="-122.196807">
        <ele>133.3</ele>
        <time>2015-07-19T20:58:08Z</time>
      </trkpt>
      <trkpt lat="37.379182" lon="-122.196823">
        <ele>133.4</ele>
        <time>2015-07-19T20:58:09Z</time>
      </trkpt>
      <trkpt lat="37.379151" lon="-122.196837">
        <ele>133.5</ele>
        <time>2015-07-19T20:58:10Z</time>
      </trkpt>
      <trkpt lat="37.379122" lon="-122.196852">
        <ele>133.5</ele>
        <time>2015-07-19T20:58:11Z</time>
      </trkpt>
      <trkpt lat="37.379083" lon="-122.196864">
        <ele>133.7</ele>
        <time>2015-07-19T20:58:12Z</time>
      </trkpt>
      <trkpt lat="37.379047" lon="-122.196877">
        <ele>133.7</ele>
        <time>2015-07-19T20:58:13Z</time>
      </trkpt>
      <trkpt lat="37.379015" lon="-122.196888">
        <ele>133.8</ele>
        <time>2015-07-19T20:58:14Z</time>
      </trkpt>
      <trkpt lat="37.378978" lon="-122.196903">
        <ele>134</ele>
        <time>2015-07-19T20:58:15Z</time>
      </trkpt>
      <trkpt lat="37.378945" lon="-122.196919">
        <ele>134.1</ele>
        <time>2015-07-19T20:58:16Z</time>
      </trkpt>
      <trkpt lat="37.378917" lon="-122.196933">
        <ele>134.1</ele>
        <time>2015-07-19T20:58:17Z</time>
      </trkpt>
      <trkpt lat="37.378887" lon="-122.196949">
        <ele>134.2</ele>
        <time>2015-07-19T20:58:18Z</time>
      </trkpt>
      <trkpt lat="37.378858" lon="-122.196964">
        <ele>134.3</ele>
        <time>2015-07-19T20:58:19Z</time>
      </trkpt>
      <trkpt lat="37.378831" lon="-122.196979">
        <ele>134.4</ele>
        <time>2015-07-19T20:58:20Z</time>
      </trkpt>
      <trkpt lat="37.378789" lon="-122.197012">
        <ele>134.6</ele>
        <time>2015-07-19T20:58:22Z</time>
      </trkpt>
      <trkpt lat="37.37876" lon="-122.197029">
        <ele>134.7</ele>
        <time>2015-07-19T20:58:23Z</time>
      </trkpt>
      <trkpt lat="37.378735" lon="-122.197044">
        <ele>134.7</ele>
        <time>2015-07-19T20:58:24Z</time>
      </trkpt>
      <trkpt lat="37.378713" lon="-122.197067">
        <ele>135.2</ele>
        <time>2015-07-19T20:58:25Z</time>
      </trkpt>
      <trkpt lat="37.378678" lon="-122.197086">
        <ele>135.3</ele>
        <time>2015-07-19T20:58:26Z</time>
      </trkpt>
      <trkpt lat="37.378649" lon="-122.1971">
        <ele>135.3</ele>
        <time>2015-07-19T20:58:27Z</time>
      </trkpt>
      <trkpt lat="37.378613" lon="-122.197116">
        <ele>135.2</ele>
        <time>2015-07-19T20:58:28Z</time>
      </trkpt>
      <trkpt lat="37.378587" lon="-122.197129">
        <ele>135.2</ele>
        <time>2015-07-19T20:58:29Z</time>
      </trkpt>
      <trkpt lat="37.378545" lon="-122.197139">
        <ele>135.1</ele>
        <time>2015-07-19T20:58:30Z</time>
      </trkpt>
      <trkpt lat="37.378508" lon="-122.197151">
        <ele>134.9</ele>
        <time>2015-07-19T20:58:31Z</time>
      </trkpt>
      <trkpt lat="37.37847" lon="-122.197165">
        <ele>134.9</ele>
        <time>2015-07-19T20:58:32Z</time>
      </trkpt>
      <trkpt lat="37.378437" lon="-122.197178">
        <ele>134.9</ele>
        <time>2015-07-19T20:58:33Z</time>
      </trkpt>
      <trkpt lat="37.378392" lon="-122.197188">
        <ele>135.1</ele>
        <time>2015-07-19T20:58:34Z</time>
      </trkpt>
      <trkpt lat="37.37836" lon="-122.197203">
        <ele>135.1</ele>
        <time>2015-07-19T20:58:35Z</time>
      </trkpt>
      <trkpt lat="37.378326" lon="-122.19722">
        <ele>135.2</ele>
        <time>2015-07-19T20:58:36Z</time>
      </trkpt>
      <trkpt lat="37.378295" lon="-122.197243">
        <ele>135.2</ele>
        <time>2015-07-19T20:58:37Z</time>
      </trkpt>
      <trkpt lat="37.378262" lon="-122.197262">
        <ele>135.3</ele>
        <time>2015-07-19T20:58:38Z</time>
      </trkpt>
      <trkpt lat="37.37823" lon="-122.197279">
        <ele>135.3</ele>
        <time>2015-07-19T20:58:39Z</time>
      </trkpt>
      <trkpt lat="37.378192" lon="-122.197297">
        <ele>135.4</ele>
        <time>2015-07-19T20:58:40Z</time>
      </trkpt>
      <trkpt lat="37.378156" lon="-122.197314">
        <ele>135.6</ele>
        <time>2015-07-19T20:58:41Z</time>
      </trkpt>
      <trkpt lat="37.378123" lon="-122.197339">
        <ele>135.7</ele>
        <time>2015-07-19T20:58:42Z</time>
      </trkpt>
      <trkpt lat="37.378094" lon="-122.19736">
        <ele>135.7</ele>
        <time>2015-07-19T20:58:43Z</time>
      </trkpt>
      <trkpt lat="37.378062" lon="-122.197384">
        <ele>135.8</ele>
        <time>2015-07-19T20:58:44Z</time>
      </trkpt>
      <trkpt lat="37.378032" lon="-122.197416">
        <ele>135.9</ele>
        <time>2015-07-19T20:58:45Z</time>
      </trkpt>
      <trkpt lat="37.377986" lon="-122.197465">
        <ele>135.9</ele>
        <time>2015-07-19T20:58:47Z</time>
      </trkpt>
      <trkpt lat="37.37796" lon="-122.19749">
        <ele>135.9</ele>
        <time>2015-07-19T20:58:48Z</time>
      </trkpt>
      <trkpt lat="37.377933" lon="-122.197517">
        <ele>136</ele>
        <time>2015-07-19T20:58:49Z</time>
      </trkpt>
      <trkpt lat="37.377906" lon="-122.197539">
        <ele>136.1</ele>
        <time>2015-07-19T20:58:50Z</time>
      </trkpt>
      <trkpt lat="37.377883" lon="-122.197564">
        <ele>136.2</ele>
        <time>2015-07-19T20:58:51Z</time>
      </trkpt>
      <trkpt lat="37.377855" lon="-122.197586">
        <ele>136.4</ele>
        <time>2015-07-19T20:58:52Z</time>
      </trkpt>
      <trkpt lat="37.377833" lon="-122.197615">
        <ele>136.3</ele>
        <time>2015-07-19T20:58:53Z</time>
      </trkpt>
      <trkpt lat="37.377812" lon="-122.197646">
        <ele>136.4</ele>
        <time>2015-07-19T20:58:54Z</time>
      </trkpt>
      <trkpt lat="37.377795" lon="-122.197679">
        <ele>136.4</ele>
        <time>2015-07-19T20:58:55Z</time>
      </trkpt>
      <trkpt lat="37.377773" lon="-122.197713">
        <ele>136.4</ele>
        <time>2015-07-19T20:58:56Z</time>
      </trkpt>
      <trkpt lat="37.377749" lon="-122.197746">
        <ele>136.5</ele>
        <time>2015-07-19T20:58:57Z</time>
      </trkpt>
      <trkpt lat="37.377725" lon="-122.197779">
        <ele>136.6</ele>
        <time>2015-07-19T20:58:58Z</time>
      </trkpt>
      <trkpt lat="37.377702" lon="-122.197812">
        <ele>136.6</ele>
        <time>2015-07-19T20:58:59Z</time>
      </trkpt>
      <trkpt lat="37.377679" lon="-122.197843">
        <ele>136.7</ele>
        <time>2015-07-19T20:59:00Z</time>
      </trkpt>
      <trkpt lat="37.377656" lon="-122.197889">
        <ele>136.7</ele>
        <time>2015-07-19T20:59:01Z</time>
      </trkpt>
      <trkpt lat="37.377622" lon="-122.197946">
        <ele>136.9</ele>
        <time>2015-07-19T20:59:03Z</time>
      </trkpt>
      <trkpt lat="37.377604" lon="-122.197984">
        <ele>137</ele>
        <time>2015-07-19T20:59:04Z</time>
      </trkpt>
      <trkpt lat="37.377573" lon="-122.198043">
        <ele>137.1</ele>
        <time>2015-07-19T20:59:06Z</time>
      </trkpt>
      <trkpt lat="37.377541" lon="-122.198107">
        <ele>137.3</ele>
        <time>2015-07-19T20:59:08Z</time>
      </trkpt>
      <trkpt lat="37.377529" lon="-122.198139">
        <ele>137.4</ele>
        <time>2015-07-19T20:59:09Z</time>
      </trkpt>
      <trkpt lat="37.377514" lon="-122.198172">
        <ele>137.4</ele>
        <time>2015-07-19T20:59:10Z</time>
      </trkpt>
      <trkpt lat="37.377501" lon="-122.198228">
        <ele>137.4</ele>
        <time>2015-07-19T20:59:12Z</time>
      </trkpt>
      <trkpt lat="37.377489" lon="-122.19826">
        <ele>137.6</ele>
        <time>2015-07-19T20:59:13Z</time>
      </trkpt>
      <trkpt lat="37.377477" lon="-122.198297">
        <ele>137.7</ele>
        <time>2015-07-19T20:59:14Z</time>
      </trkpt>
      <trkpt lat="37.377468" lon="-122.198331">
        <ele>137.8</ele>
        <time>2015-07-19T20:59:15Z</time>
      </trkpt>
      <trkpt lat="37.377406" lon="-122.198551">
        <ele>138.4</ele>
        <time>2015-07-19T20:59:21Z</time>
      </trkpt>
      <trkpt lat="37.377399" lon="-122.198592">
        <ele>138.6</ele>
        <time>2015-07-19T20:59:22Z</time>
      </trkpt>
      <trkpt lat="37.377393" lon="-122.198633">
        <ele>138.6</ele>
        <time>2015-07-19T20:59:23Z</time>
      </trkpt>
      <trkpt lat="37.377386" lon="-122.198677">
        <ele>138.8</ele>
        <time>2015-07-19T20:59:24Z</time>
      </trkpt>
      <trkpt lat="37.377379" lon="-122.198722">
        <ele>139.1</ele>
        <time>2015-07-19T20:59:25Z</time>
      </trkpt>
      <trkpt lat="37.377374" lon="-122.198767">
        <ele>139.3</ele>
        <time>2015-07-19T20:59:26Z</time>
      </trkpt>
      <trkpt lat="37.377369" lon="-122.198806">
        <ele>139.4</ele>
        <time>2015-07-19T20:59:27Z</time>
      </trkpt>
      <trkpt lat="37.377362" lon="-122.198869">
        <ele>139.5</ele>
        <time>2015-07-19T20:59:29Z</time>
      </trkpt>
      <trkpt lat="37.377357" lon="-122.198907">
        <ele>139.6</ele>
        <time>2015-07-19T20:59:30Z</time>
      </trkpt>
      <trkpt lat="37.377354" lon="-122.198949">
        <ele>139.9</ele>
        <time>2015-07-19T20:59:31Z</time>
      </trkpt>
      <trkpt lat="37.377353" lon="-122.19899">
        <ele>140.2</ele>
        <time>2015-07-19T20:59:32Z</time>
      </trkpt>
      <trkpt lat="37.377351" lon="-122.199058">
        <ele>140.7</ele>
        <time>2015-07-19T20:59:34Z</time>
      </trkpt>
      <trkpt lat="37.377351" lon="-122.199099">
        <ele>141</ele>
        <time>2015-07-19T20:59:35Z</time>
      </trkpt>
      <trkpt lat="37.377337" lon="-122.199152">
        <ele>140.9</ele>
        <time>2015-07-19T20:59:37Z</time>
      </trkpt>
      <trkpt lat="37.377331" lon="-122.199207">
        <ele>141.1</ele>
        <time>2015-07-19T20:59:39Z</time>
      </trkpt>
      <trkpt lat="37.377322" lon="-122.199261">
        <ele>141.2</ele>
        <time>2015-07-19T20:59:41Z</time>
      </trkpt>
      <trkpt lat="37.377321" lon="-122.199316">
        <ele>141.5</ele>
        <time>2015-07-19T20:59:43Z</time>
      </trkpt>
      <trkpt lat="37.377314" lon="-122.199365">
        <ele>141.9</ele>
        <time>2015-07-19T20:59:45Z</time>
      </trkpt>
      <trkpt lat="37.377306" lon="-122.199424">
        <ele>142.2</ele>
        <time>2015-07-19T20:59:47Z</time>
      </trkpt>
      <trkpt lat="37.377261" lon="-122.19963">
        <ele>142.8</ele>
        <time>2015-07-19T20:59:54Z</time>
      </trkpt>
      <trkpt lat="37.377245" lon="-122.199676">
        <ele>143.2</ele>
        <time>2015-07-19T20:59:56Z</time>
      </trkpt>
      <trkpt lat="37.377225" lon="-122.199707">
        <ele>143.5</ele>
        <time>2015-07-19T20:59:58Z</time>
      </trkpt>
      <trkpt lat="37.377214" lon="-122.199768">
        <ele>143.9</ele>
        <time>2015-07-19T21:00:00Z</time>
      </trkpt>
      <trkpt lat="37.377202" lon="-122.19981">
        <ele>143.9</ele>
        <time>2015-07-19T21:00:02Z</time>
      </trkpt>
      <trkpt lat="37.377184" lon="-122.19985">
        <ele>144.1</ele>
        <time>2015-07-19T21:00:04Z</time>
      </trkpt>
      <trkpt lat="37.377153" lon="-122.199903">
        <ele>144.3</ele>
        <time>2015-07-19T21:00:06Z</time>
      </trkpt>
      <trkpt lat="37.377136" lon="-122.19994">
        <ele>144.5</ele>
        <time>2015-07-19T21:00:08Z</time>
      </trkpt>
      <trkpt lat="37.37712" lon="-122.199997">
        <ele>144.8</ele>
        <time>2015-07-19T21:00:10Z</time>
      </trkpt>
      <trkpt lat="37.377098" lon="-122.200045">
        <ele>144.8</ele>
        <time>2015-07-19T21:00:12Z</time>
      </trkpt>
      <trkpt lat="37.377071" lon="-122.20006">
        <ele>144.7</ele>
        <time>2015-07-19T21:00:13Z</time>
      </trkpt>
      <trkpt lat="37.377047" lon="-122.200083">
        <ele>144.8</ele>
        <time>2015-07-19T21:00:14Z</time>
      </trkpt>
      <trkpt lat="37.377031" lon="-122.200113">
        <ele>145</ele>
        <time>2015-07-19T21:00:15Z</time>
      </trkpt>
      <trkpt lat="37.376997" lon="-122.200149">
        <ele>144.9</ele>
        <time>2015-07-19T21:00:17Z</time>
      </trkpt>
      <trkpt lat="37.376981" lon="-122.200204">
        <ele>145.3</ele>
        <time>2015-07-19T21:00:19Z</time>
      </trkpt>
      <trkpt lat="37.376949" lon="-122.200258">
        <ele>145.4</ele>
        <time>2015-07-19T21:00:21Z</time>
      </trkpt>
      <trkpt lat="37.376938" lon="-122.200304">
        <ele>145.6</ele>
        <time>2015-07-19T21:00:23Z</time>
      </trkpt>
      <trkpt lat="37.376936" lon="-122.200346">
        <ele>145.9</ele>
        <time>2015-07-19T21:00:24Z</time>
      </trkpt>
      <trkpt lat="37.37689" lon="-122.200378">
        <ele>145.8</ele>
        <time>2015-07-19T21:00:26Z</time>
      </trkpt>
      <trkpt lat="37.37686" lon="-122.20039">
        <ele>145.8</ele>
        <time>2015-07-19T21:00:27Z</time>
      </trkpt>
      <trkpt lat="37.376815" lon="-122.200416">
        <ele>145.7</ele>
        <time>2015-07-19T21:00:29Z</time>
      </trkpt>
      <trkpt lat="37.376795" lon="-122.200457">
        <ele>145.9</ele>
        <time>2015-07-19T21:00:31Z</time>
      </trkpt>
      <trkpt lat="37.376783" lon="-122.200489">
        <ele>146</ele>
        <time>2015-07-19T21:00:32Z</time>
      </trkpt>
      <trkpt lat="37.376664" lon="-122.200672">
        <ele>146.4</ele>
        <time>2015-07-19T21:00:39Z</time>
      </trkpt>
      <trkpt lat="37.37664" lon="-122.200731">
        <ele>146.5</ele>
        <time>2015-07-19T21:00:41Z</time>
      </trkpt>
      <trkpt lat="37.376622" lon="-122.200759">
        <ele>146.5</ele>
        <time>2015-07-19T21:00:42Z</time>
      </trkpt>
      <trkpt lat="37.376606" lon="-122.200788">
        <ele>146.6</ele>
        <time>2015-07-19T21:00:43Z</time>
      </trkpt>
      <trkpt lat="37.376591" lon="-122.20082">
        <ele>146.6</ele>
        <time>2015-07-19T21:00:44Z</time>
      </trkpt>
      <trkpt lat="37.376554" lon="-122.200865">
        <ele>146.7</ele>
        <time>2015-07-19T21:00:46Z</time>
      </trkpt>
      <trkpt lat="37.376534" lon="-122.200891">
        <ele>146.8</ele>
        <time>2015-07-19T21:00:47Z</time>
      </trkpt>
      <trkpt lat="37.376506" lon="-122.200913">
        <ele>146.9</ele>
        <time>2015-07-19T21:00:48Z</time>
      </trkpt>
      <trkpt lat="37.376487" lon="-122.200941">
        <ele>146.9</ele>
        <time>2015-07-19T21:00:49Z</time>
      </trkpt>
      <trkpt lat="37.376464" lon="-122.200967">
        <ele>147</ele>
        <time>2015-07-19T21:00:50Z</time>
      </trkpt>
      <trkpt lat="37.376444" lon="-122.200993">
        <ele>147.1</ele>
        <time>2015-07-19T21:00:51Z</time>
      </trkpt>
      <trkpt lat="37.376425" lon="-122.201021">
        <ele>147.1</ele>
        <time>2015-07-19T21:00:52Z</time>
      </trkpt>
      <trkpt lat="37.376407" lon="-122.201049">
        <ele>147.2</ele>
        <time>2015-07-19T21:00:53Z</time>
      </trkpt>
      <trkpt lat="37.376391" lon="-122.201082">
        <ele>147.3</ele>
        <time>2015-07-19T21:00:54Z</time>
      </trkpt>
      <trkpt lat="37.376373" lon="-122.201113">
        <ele>147.3</ele>
        <time>2015-07-19T21:00:55Z</time>
      </trkpt>
      <trkpt lat="37.376361" lon="-122.20115">
        <ele>147.3</ele>
        <time>2015-07-19T21:00:56Z</time>
      </trkpt>
      <trkpt lat="37.376341" lon="-122.201179">
        <ele>147.3</ele>
        <time>2015-07-19T21:00:57Z</time>
      </trkpt>
      <trkpt lat="37.376328" lon="-122.20121">
        <ele>147.3</ele>
        <time>2015-07-19T21:00:58Z</time>
      </trkpt>
      <trkpt lat="37.376173" lon="-122.201431">
        <ele>147.8</ele>
        <time>2015-07-19T21:01:05Z</time>
      </trkpt>
      <trkpt lat="37.376151" lon="-122.20146">
        <ele>147.8</ele>
        <time>2015-07-19T21:01:06Z</time>
      </trkpt>
      <trkpt lat="37.376125" lon="-122.201484">
        <ele>147.8</ele>
        <time>2015-07-19T21:01:07Z</time>
      </trkpt>
      <trkpt lat="37.376105" lon="-122.201519">
        <ele>147.8</ele>
        <time>2015-07-19T21:01:08Z</time>
      </trkpt>
      <trkpt lat="37.376087" lon="-122.201549">
        <ele>147.8</ele>
        <time>2015-07-19T21:01:09Z</time>
      </trkpt>
      <trkpt lat="37.376067" lon="-122.201578">
        <ele>147.9</ele>
        <time>2015-07-19T21:01:10Z</time>
      </trkpt>
      <trkpt lat="37.376047" lon="-122.201608">
        <ele>148</ele>
        <time>2015-07-19T21:01:11Z</time>
      </trkpt>
      <trkpt lat="37.376025" lon="-122.201637">
        <ele>148.1</ele>
        <time>2015-07-19T21:01:12Z</time>
      </trkpt>
      <trkpt lat="37.376005" lon="-122.201664">
        <ele>148.1</ele>
        <time>2015-07-19T21:01:13Z</time>
      </trkpt>
      <trkpt lat="37.375984" lon="-122.201694">
        <ele>148.1</ele>
        <time>2015-07-19T21:01:14Z</time>
      </trkpt>
      <trkpt lat="37.375964" lon="-122.201719">
        <ele>148.2</ele>
        <time>2015-07-19T21:01:15Z</time>
      </trkpt>
      <trkpt lat="37.375944" lon="-122.201749">
        <ele>148.2</ele>
        <time>2015-07-19T21:01:16Z</time>
      </trkpt>
      <trkpt lat="37.375909" lon="-122.201807">
        <ele>148.3</ele>
        <time>2015-07-19T21:01:18Z</time>
      </trkpt>
      <trkpt lat="37.375889" lon="-122.201836">
        <ele>148.4</ele>
        <time>2015-07-19T21:01:19Z</time>
      </trkpt>
      <trkpt lat="37.37587" lon="-122.201868">
        <ele>148.4</ele>
        <time>2015-07-19T21:01:20Z</time>
      </trkpt>
      <trkpt lat="37.375852" lon="-122.201897">
        <ele>148.5</ele>
        <time>2015-07-19T21:01:21Z</time>
      </trkpt>
      <trkpt lat="37.375833" lon="-122.201929">
        <ele>148.5</ele>
        <time>2015-07-19T21:01:22Z</time>
      </trkpt>
      <trkpt lat="37.375813" lon="-122.201959">
        <ele>148.6</ele>
        <time>2015-07-19T21:01:23Z</time>
      </trkpt>
      <trkpt lat="37.375794" lon="-122.201985">
        <ele>148.6</ele>
        <time>2015-07-19T21:01:24Z</time>
      </trkpt>
      <trkpt lat="37.375771" lon="-122.202016">
        <ele>148.7</ele>
        <time>2015-07-19T21:01:25Z</time>
      </trkpt>
      <trkpt lat="37.375752" lon="-122.202046">
        <ele>148.8</ele>
        <time>2015-07-19T21:01:26Z</time>
      </trkpt>
      <trkpt lat="37.375733" lon="-122.202075">
        <ele>148.8</ele>
        <time>2015-07-19T21:01:27Z</time>
      </trkpt>
      <trkpt lat="37.375711" lon="-122.202105">
        <ele>148.8</ele>
        <time>2015-07-19T21:01:28Z</time>
      </trkpt>
      <trkpt lat="37.375674" lon="-122.20216">
        <ele>148.9</ele>
        <time>2015-07-19T21:01:30Z</time>
      </trkpt>
      <trkpt lat="37.37564" lon="-122.202219">
        <ele>149</ele>
        <time>2015-07-19T21:01:32Z</time>
      </trkpt>
      <trkpt lat="37.375623" lon="-122.202247">
        <ele>149</ele>
        <time>2015-07-19T21:01:33Z</time>
      </trkpt>
      <trkpt lat="37.375602" lon="-122.202277">
        <ele>149.2</ele>
        <time>2015-07-19T21:01:34Z</time>
      </trkpt>
      <trkpt lat="37.37558" lon="-122.202311">
        <ele>149.3</ele>
        <time>2015-07-19T21:01:35Z</time>
      </trkpt>
      <trkpt lat="37.375559" lon="-122.202348">
        <ele>149.3</ele>
        <time>2015-07-19T21:01:36Z</time>
      </trkpt>
      <trkpt lat="37.375541" lon="-122.202383">
        <ele>149.3</ele>
        <time>2015-07-19T21:01:37Z</time>
      </trkpt>
      <trkpt lat="37.375528" lon="-122.202414">
        <ele>149.4</ele>
        <time>2015-07-19T21:01:38Z</time>
      </trkpt>
      <trkpt lat="37.375497" lon="-122.202436">
        <ele>149.6</ele>
        <time>2015-07-19T21:01:39Z</time>
      </trkpt>
      <trkpt lat="37.37547" lon="-122.202463">
        <ele>149.7</ele>
        <time>2015-07-19T21:01:40Z</time>
      </trkpt>
      <trkpt lat="37.375444" lon="-122.202485">
        <ele>149.9</ele>
        <time>2015-07-19T21:01:41Z</time>
      </trkpt>
      <trkpt lat="37.375423" lon="-122.202512">
        <ele>149.9</ele>
        <time>2015-07-19T21:01:42Z</time>
      </trkpt>
      <trkpt lat="37.375392" lon="-122.202531">
        <ele>149.9</ele>
        <time>2015-07-19T21:01:43Z</time>
      </trkpt>
      <trkpt lat="37.375366" lon="-122.202559">
        <ele>150</ele>
        <time>2015-07-19T21:01:44Z</time>
      </trkpt>
      <trkpt lat="37.375348" lon="-122.202588">
        <ele>150.1</ele>
        <time>2015-07-19T21:01:45Z</time>
      </trkpt>
      <trkpt lat="37.375223" lon="-122.202756">
        <ele>150.7</ele>
        <time>2015-07-19T21:01:51Z</time>
      </trkpt>
      <trkpt lat="37.375184" lon="-122.202813">
        <ele>150.7</ele>
        <time>2015-07-19T21:01:53Z</time>
      </trkpt>
      <trkpt lat="37.37516" lon="-122.202843">
        <ele>151</ele>
        <time>2015-07-19T21:01:54Z</time>
      </trkpt>
      <trkpt lat="37.375123" lon="-122.202864">
        <ele>151.3</ele>
        <time>2015-07-19T21:01:55Z</time>
      </trkpt>
      <trkpt lat="37.375098" lon="-122.202892">
        <ele>151.4</ele>
        <time>2015-07-19T21:01:56Z</time>
      </trkpt>
      <trkpt lat="37.37507" lon="-122.202918">
        <ele>151.6</ele>
        <time>2015-07-19T21:01:57Z</time>
      </trkpt>
      <trkpt lat="37.375055" lon="-122.202953">
        <ele>151.7</ele>
        <time>2015-07-19T21:01:58Z</time>
      </trkpt>
      <trkpt lat="37.375042" lon="-122.202987">
        <ele>151.8</ele>
        <time>2015-07-19T21:01:59Z</time>
      </trkpt>
      <trkpt lat="37.375028" lon="-122.203022">
        <ele>151.9</ele>
        <time>2015-07-19T21:02:00Z</time>
      </trkpt>
      <trkpt lat="37.375014" lon="-122.203055">
        <ele>151.9</ele>
        <time>2015-07-19T21:02:01Z</time>
      </trkpt>
      <trkpt lat="37.374998" lon="-122.203083">
        <ele>152.1</ele>
        <time>2015-07-19T21:02:02Z</time>
      </trkpt>
      <trkpt lat="37.374984" lon="-122.203114">
        <ele>152.2</ele>
        <time>2015-07-19T21:02:03Z</time>
      </trkpt>
      <trkpt lat="37.374957" lon="-122.203172">
        <ele>152.4</ele>
        <time>2015-07-19T21:02:05Z</time>
      </trkpt>
      <trkpt lat="37.374942" lon="-122.203206">
        <ele>152.5</ele>
        <time>2015-07-19T21:02:06Z</time>
      </trkpt>
      <trkpt lat="37.374925" lon="-122.203235">
        <ele>152.7</ele>
        <time>2015-07-19T21:02:07Z</time>
      </trkpt>
      <trkpt lat="37.374908" lon="-122.203264">
        <ele>152.3</ele>
        <time>2015-07-19T21:02:08Z</time>
      </trkpt>
      <trkpt lat="37.37489" lon="-122.203295">
        <ele>152.5</ele>
        <time>2015-07-19T21:02:09Z</time>
      </trkpt>
      <trkpt lat="37.374871" lon="-122.203324">
        <ele>152.6</ele>
        <time>2015-07-19T21:02:10Z</time>
      </trkpt>
      <trkpt lat="37.374853" lon="-122.203351">
        <ele>152.7</ele>
        <time>2015-07-19T21:02:11Z</time>
      </trkpt>
      <trkpt lat="37.374833" lon="-122.20338">
        <ele>152.7</ele>
        <time>2015-07-19T21:02:12Z</time>
      </trkpt>
      <trkpt lat="37.374803" lon="-122.20342">
        <ele>152.4</ele>
        <time>2015-07-19T21:02:13Z</time>
      </trkpt>
      <trkpt lat="37.374785" lon="-122.20345">
        <ele>152.2</ele>
        <time>2015-07-19T21:02:14Z</time>
      </trkpt>
      <trkpt lat="37.374758" lon="-122.203499">
        <ele>151.8</ele>
        <time>2015-07-19T21:02:16Z</time>
      </trkpt>
      <trkpt lat="37.374739" lon="-122.203529">
        <ele>151.7</ele>
        <time>2015-07-19T21:02:17Z</time>
      </trkpt>
      <trkpt lat="37.374719" lon="-122.203561">
        <ele>151.5</ele>
        <time>2015-07-19T21:02:18Z</time>
      </trkpt>
      <trkpt lat="37.374695" lon="-122.203602">
        <ele>151.7</ele>
        <time>2015-07-19T21:02:19Z</time>
      </trkpt>
      <trkpt lat="37.374675" lon="-122.203634">
        <ele>151.7</ele>
        <time>2015-07-19T21:02:20Z</time>
      </trkpt>
      <trkpt lat="37.374652" lon="-122.20367">
        <ele>152.1</ele>
        <time>2015-07-19T21:02:21Z</time>
      </trkpt>
      <trkpt lat="37.374629" lon="-122.203706">
        <ele>152.5</ele>
        <time>2015-07-19T21:02:22Z</time>
      </trkpt>
      <trkpt lat="37.37461" lon="-122.203738">
        <ele>152.6</ele>
        <time>2015-07-19T21:02:23Z</time>
      </trkpt>
      <trkpt lat="37.37459" lon="-122.203772">
        <ele>152.6</ele>
        <time>2015-07-19T21:02:24Z</time>
      </trkpt>
      <trkpt lat="37.374569" lon="-122.203805">
        <ele>152.6</ele>
        <time>2015-07-19T21:02:25Z</time>
      </trkpt>
      <trkpt lat="37.374549" lon="-122.203839">
        <ele>152.4</ele>
        <time>2015-07-19T21:02:26Z</time>
      </trkpt>
      <trkpt lat="37.37453" lon="-122.203871">
        <ele>152.4</ele>
        <time>2015-07-19T21:02:27Z</time>
      </trkpt>
      <trkpt lat="37.374511" lon="-122.203901">
        <ele>152.3</ele>
        <time>2015-07-19T21:02:28Z</time>
      </trkpt>
      <trkpt lat="37.374493" lon="-122.20393">
        <ele>152.1</ele>
        <time>2015-07-19T21:02:29Z</time>
      </trkpt>
      <trkpt lat="37.374476" lon="-122.203958">
        <ele>152.2</ele>
        <time>2015-07-19T21:02:30Z</time>
      </trkpt>
      <trkpt lat="37.374457" lon="-122.203987">
        <ele>152.2</ele>
        <time>2015-07-19T21:02:31Z</time>
      </trkpt>
      <trkpt lat="37.374429" lon="-122.204034">
        <ele>152</ele>
        <time>2015-07-19T21:02:33Z</time>
      </trkpt>
      <trkpt lat="37.374411" lon="-122.204069">
        <ele>151.9</ele>
        <time>2015-07-19T21:02:35Z</time>
      </trkpt>
      <trkpt lat="37.374386" lon="-122.204116">
        <ele>151.6</ele>
        <time>2015-07-19T21:02:37Z</time>
      </trkpt>
      <trkpt lat="37.374371" lon="-122.204147">
        <ele>151.7</ele>
        <time>2015-07-19T21:02:38Z</time>
      </trkpt>
      <trkpt lat="37.37435" lon="-122.20418">
        <ele>151.8</ele>
        <time>2015-07-19T21:02:39Z</time>
      </trkpt>
      <trkpt lat="37.374329" lon="-122.204208">
        <ele>151.8</ele>
        <time>2015-07-19T21:02:40Z</time>
      </trkpt>
      <trkpt lat="37.37431" lon="-122.204239">
        <ele>152.1</ele>
        <time>2015-07-19T21:02:41Z</time>
      </trkpt>
      <trkpt lat="37.374289" lon="-122.20427">
        <ele>152.4</ele>
        <time>2015-07-19T21:02:42Z</time>
      </trkpt>
      <trkpt lat="37.374265" lon="-122.204302">
        <ele>152.5</ele>
        <time>2015-07-19T21:02:43Z</time>
      </trkpt>
      <trkpt lat="37.374241" lon="-122.204335">
        <ele>152.6</ele>
        <time>2015-07-19T21:02:44Z</time>
      </trkpt>
      <trkpt lat="37.374213" lon="-122.204368">
        <ele>152.8</ele>
        <time>2015-07-19T21:02:45Z</time>
      </trkpt>
      <trkpt lat="37.374186" lon="-122.204401">
        <ele>153</ele>
        <time>2015-07-19T21:02:46Z</time>
      </trkpt>
      <trkpt lat="37.374162" lon="-122.204438">
        <ele>153.6</ele>
        <time>2015-07-19T21:02:47Z</time>
      </trkpt>
      <trkpt lat="37.374128" lon="-122.204474">
        <ele>154</ele>
        <time>2015-07-19T21:02:48Z</time>
      </trkpt>
      <trkpt lat="37.374113" lon="-122.204512">
        <ele>154.7</ele>
        <time>2015-07-19T21:02:49Z</time>
      </trkpt>
      <trkpt lat="37.374096" lon="-122.204551">
        <ele>155.4</ele>
        <time>2015-07-19T21:02:50Z</time>
      </trkpt>
      <trkpt lat="37.374067" lon="-122.20458">
        <ele>155.6</ele>
        <time>2015-07-19T21:02:51Z</time>
      </trkpt>
      <trkpt lat="37.374042" lon="-122.204611">
        <ele>155.7</ele>
        <time>2015-07-19T21:02:52Z</time>
      </trkpt>
      <trkpt lat="37.374008" lon="-122.204631">
        <ele>155.7</ele>
        <time>2015-07-19T21:02:53Z</time>
      </trkpt>
      <trkpt lat="37.373987" lon="-122.204665">
        <ele>156.1</ele>
        <time>2015-07-19T21:02:54Z</time>
      </trkpt>
      <trkpt lat="37.374006" lon="-122.204697">
        <ele>156.8</ele>
        <time>2015-07-19T21:02:57Z</time>
      </trkpt>
      <trkpt lat="37.373867" lon="-122.204891">
        <ele>160.3</ele>
        <time>2015-07-19T21:03:00Z</time>
      </trkpt>
      <trkpt lat="37.373839" lon="-122.204924">
        <ele>160.9</ele>
        <time>2015-07-19T21:03:01Z</time>
      </trkpt>
      <trkpt lat="37.373812" lon="-122.204952">
        <ele>161.4</ele>
        <time>2015-07-19T21:03:02Z</time>
      </trkpt>
      <trkpt lat="37.373781" lon="-122.204982">
        <ele>161.7</ele>
        <time>2015-07-19T21:03:03Z</time>
      </trkpt>
      <trkpt lat="37.373753" lon="-122.205011">
        <ele>161.9</ele>
        <time>2015-07-19T21:03:04Z</time>
      </trkpt>
      <trkpt lat="37.373734" lon="-122.205045">
        <ele>162.3</ele>
        <time>2015-07-19T21:03:05Z</time>
      </trkpt>
      <trkpt lat="37.373724" lon="-122.20508">
        <ele>162.5</ele>
        <time>2015-07-19T21:03:06Z</time>
      </trkpt>
      <trkpt lat="37.373708" lon="-122.205112">
        <ele>162.7</ele>
        <time>2015-07-19T21:03:07Z</time>
      </trkpt>
      <trkpt lat="37.373685" lon="-122.205176">
        <ele>163.1</ele>
        <time>2015-07-19T21:03:09Z</time>
      </trkpt>
      <trkpt lat="37.373669" lon="-122.20521">
        <ele>163.3</ele>
        <time>2015-07-19T21:03:10Z</time>
      </trkpt>
      <trkpt lat="37.373659" lon="-122.20525">
        <ele>163.4</ele>
        <time>2015-07-19T21:03:11Z</time>
      </trkpt>
      <trkpt lat="37.37364" lon="-122.205284">
        <ele>163.4</ele>
        <time>2015-07-19T21:03:12Z</time>
      </trkpt>
      <trkpt lat="37.373618" lon="-122.205318">
        <ele>163.5</ele>
        <time>2015-07-19T21:03:13Z</time>
      </trkpt>
      <trkpt lat="37.373598" lon="-122.205347">
        <ele>163.6</ele>
        <time>2015-07-19T21:03:14Z</time>
      </trkpt>
      <trkpt lat="37.373576" lon="-122.20538">
        <ele>163.9</ele>
        <time>2015-07-19T21:03:15Z</time>
      </trkpt>
      <trkpt lat="37.373553" lon="-122.205411">
        <ele>164.5</ele>
        <time>2015-07-19T21:03:16Z</time>
      </trkpt>
      <trkpt lat="37.37353" lon="-122.205442">
        <ele>165.4</ele>
        <time>2015-07-19T21:03:17Z</time>
      </trkpt>
      <trkpt lat="37.37351" lon="-122.205474">
        <ele>166.1</ele>
        <time>2015-07-19T21:03:18Z</time>
      </trkpt>
      <trkpt lat="37.373489" lon="-122.205508">
        <ele>166.7</ele>
        <time>2015-07-19T21:03:19Z</time>
      </trkpt>
      <trkpt lat="37.37347" lon="-122.20554">
        <ele>167</ele>
        <time>2015-07-19T21:03:20Z</time>
      </trkpt>
      <trkpt lat="37.373449" lon="-122.205575">
        <ele>166.8</ele>
        <time>2015-07-19T21:03:21Z</time>
      </trkpt>
      <trkpt lat="37.373426" lon="-122.205609">
        <ele>166.8</ele>
        <time>2015-07-19T21:03:22Z</time>
      </trkpt>
      <trkpt lat="37.373405" lon="-122.20564">
        <ele>166.8</ele>
        <time>2015-07-19T21:03:23Z</time>
      </trkpt>
      <trkpt lat="37.373383" lon="-122.205674">
        <ele>166.8</ele>
        <time>2015-07-19T21:03:24Z</time>
      </trkpt>
      <trkpt lat="37.373359" lon="-122.20571">
        <ele>166.6</ele>
        <time>2015-07-19T21:03:25Z</time>
      </trkpt>
      <trkpt lat="37.373337" lon="-122.205744">
        <ele>166.5</ele>
        <time>2015-07-19T21:03:26Z</time>
      </trkpt>
      <trkpt lat="37.373308" lon="-122.205797">
        <ele>166.7</ele>
        <time>2015-07-19T21:03:28Z</time>
      </trkpt>
      <trkpt lat="37.37326" lon="-122.205875">
        <ele>167.2</ele>
        <time>2015-07-19T21:03:31Z</time>
      </trkpt>
      <trkpt lat="37.373241" lon="-122.205907">
        <ele>166.9</ele>
        <time>2015-07-19T21:03:32Z</time>
      </trkpt>
      <trkpt lat="37.373221" lon="-122.20594">
        <ele>166.6</ele>
        <time>2015-07-19T21:03:33Z</time>
      </trkpt>
      <trkpt lat="37.3732" lon="-122.205975">
        <ele>166.2</ele>
        <time>2015-07-19T21:03:34Z</time>
      </trkpt>
      <trkpt lat="37.37318" lon="-122.206009">
        <ele>166.2</ele>
        <time>2015-07-19T21:03:35Z</time>
      </trkpt>
      <trkpt lat="37.373162" lon="-122.206043">
        <ele>166.3</ele>
        <time>2015-07-19T21:03:36Z</time>
      </trkpt>
      <trkpt lat="37.373143" lon="-122.206074">
        <ele>166.3</ele>
        <time>2015-07-19T21:03:37Z</time>
      </trkpt>
      <trkpt lat="37.373126" lon="-122.206101">
        <ele>166.2</ele>
        <time>2015-07-19T21:03:38Z</time>
      </trkpt>
      <trkpt lat="37.373103" lon="-122.206133">
        <ele>166.2</ele>
        <time>2015-07-19T21:03:39Z</time>
      </trkpt>
      <trkpt lat="37.373084" lon="-122.206162">
        <ele>166.4</ele>
        <time>2015-07-19T21:03:40Z</time>
      </trkpt>
      <trkpt lat="37.373059" lon="-122.206199">
        <ele>166.9</ele>
        <time>2015-07-19T21:03:41Z</time>
      </trkpt>
      <trkpt lat="37.37304" lon="-122.206234">
        <ele>167.2</ele>
        <time>2015-07-19T21:03:42Z</time>
      </trkpt>
      <trkpt lat="37.373019" lon="-122.206271">
        <ele>167.4</ele>
        <time>2015-07-19T21:03:43Z</time>
      </trkpt>
      <trkpt lat="37.372998" lon="-122.206308">
        <ele>167.5</ele>
        <time>2015-07-19T21:03:44Z</time>
      </trkpt>
      <trkpt lat="37.372978" lon="-122.206342">
        <ele>167.7</ele>
        <time>2015-07-19T21:03:45Z</time>
      </trkpt>
      <trkpt lat="37.372959" lon="-122.206374">
        <ele>168.1</ele>
        <time>2015-07-19T21:03:46Z</time>
      </trkpt>
      <trkpt lat="37.372939" lon="-122.206405">
        <ele>168.5</ele>
        <time>2015-07-19T21:03:47Z</time>
      </trkpt>
      <trkpt lat="37.372919" lon="-122.206436">
        <ele>169.1</ele>
        <time>2015-07-19T21:03:48Z</time>
      </trkpt>
      <trkpt lat="37.372899" lon="-122.206469">
        <ele>169.2</ele>
        <time>2015-07-19T21:03:49Z</time>
      </trkpt>
      <trkpt lat="37.372879" lon="-122.206502">
        <ele>169.3</ele>
        <time>2015-07-19T21:03:50Z</time>
      </trkpt>
      <trkpt lat="37.37286" lon="-122.206535">
        <ele>169.4</ele>
        <time>2015-07-19T21:03:51Z</time>
      </trkpt>
      <trkpt lat="37.372839" lon="-122.206568">
        <ele>169.6</ele>
        <time>2015-07-19T21:03:52Z</time>
      </trkpt>
      <trkpt lat="37.372816" lon="-122.206603">
        <ele>169.9</ele>
        <time>2015-07-19T21:03:53Z</time>
      </trkpt>
      <trkpt lat="37.372792" lon="-122.206637">
        <ele>170.1</ele>
        <time>2015-07-19T21:03:54Z</time>
      </trkpt>
      <trkpt lat="37.37277" lon="-122.206669">
        <ele>170.3</ele>
        <time>2015-07-19T21:03:55Z</time>
      </trkpt>
      <trkpt lat="37.372759" lon="-122.206705">
        <ele>170.7</ele>
        <time>2015-07-19T21:03:56Z</time>
      </trkpt>
      <trkpt lat="37.372738" lon="-122.206738">
        <ele>171</ele>
        <time>2015-07-19T21:03:57Z</time>
      </trkpt>
      <trkpt lat="37.372717" lon="-122.206778">
        <ele>171.4</ele>
        <time>2015-07-19T21:03:58Z</time>
      </trkpt>
      <trkpt lat="37.372698" lon="-122.206825">
        <ele>171.6</ele>
        <time>2015-07-19T21:04:00Z</time>
      </trkpt>
      <trkpt lat="37.372671" lon="-122.206878">
        <ele>171.7</ele>
        <time>2015-07-19T21:04:02Z</time>
      </trkpt>
      <trkpt lat="37.372643" lon="-122.206933">
        <ele>172</ele>
        <time>2015-07-19T21:04:04Z</time>
      </trkpt>
      <trkpt lat="37.372618" lon="-122.206972">
        <ele>172.3</ele>
        <time>2015-07-19T21:04:06Z</time>
      </trkpt>
      <trkpt lat="37.37259" lon="-122.20702">
        <ele>172.8</ele>
        <time>2015-07-19T21:04:08Z</time>
      </trkpt>
      <trkpt lat="37.372557" lon="-122.20707">
        <ele>173.5</ele>
        <time>2015-07-19T21:04:10Z</time>
      </trkpt>
      <trkpt lat="37.372531" lon="-122.207111">
        <ele>173.9</ele>
        <time>2015-07-19T21:04:12Z</time>
      </trkpt>
      <trkpt lat="37.372502" lon="-122.207149">
        <ele>174.2</ele>
        <time>2015-07-19T21:04:14Z</time>
      </trkpt>
      <trkpt lat="37.372486" lon="-122.207179">
        <ele>174.4</ele>
        <time>2015-07-19T21:04:15Z</time>
      </trkpt>
      <trkpt lat="37.372458" lon="-122.207226">
        <ele>174.6</ele>
        <time>2015-07-19T21:04:17Z</time>
      </trkpt>
      <trkpt lat="37.372438" lon="-122.207249">
        <ele>174.8</ele>
        <time>2015-07-19T21:04:18Z</time>
      </trkpt>
      <trkpt lat="37.372402" lon="-122.207287">
        <ele>175.1</ele>
        <time>2015-07-19T21:04:20Z</time>
      </trkpt>
      <trkpt lat="37.372386" lon="-122.20733">
        <ele>175.1</ele>
        <time>2015-07-19T21:04:22Z</time>
      </trkpt>
      <trkpt lat="37.372362" lon="-122.20735">
        <ele>175.3</ele>
        <time>2015-07-19T21:04:24Z</time>
      </trkpt>
      <trkpt lat="37.372369" lon="-122.207421">
        <ele>175</ele>
        <time>2015-07-19T21:04:44Z</time>
      </trkpt>
      <trkpt lat="37.372352" lon="-122.207449">
        <ele>175.1</ele>
        <time>2015-07-19T21:04:49Z</time>
      </trkpt>
      <trkpt lat="37.37229" lon="-122.207545">
        <ele>175</ele>
        <time>2015-07-19T21:04:59Z</time>
      </trkpt>
      <trkpt lat="37.372263" lon="-122.207577">
        <ele>175</ele>
        <time>2015-07-19T21:05:00Z</time>
      </trkpt>
      <trkpt lat="37.372238" lon="-122.207599">
        <ele>175.1</ele>
        <time>2015-07-19T21:05:01Z</time>
      </trkpt>
      <trkpt lat="37.372211" lon="-122.207624">
        <ele>175.1</ele>
        <time>2015-07-19T21:05:02Z</time>
      </trkpt>
      <trkpt lat="37.37219" lon="-122.20765">
        <ele>175.2</ele>
        <time>2015-07-19T21:05:03Z</time>
      </trkpt>
      <trkpt lat="37.372166" lon="-122.207683">
        <ele>175.2</ele>
        <time>2015-07-19T21:05:04Z</time>
      </trkpt>
      <trkpt lat="37.372145" lon="-122.207712">
        <ele>175.3</ele>
        <time>2015-07-19T21:05:05Z</time>
      </trkpt>
      <trkpt lat="37.372126" lon="-122.207746">
        <ele>175.3</ele>
        <time>2015-07-19T21:05:06Z</time>
      </trkpt>
      <trkpt lat="37.372107" lon="-122.207778">
        <ele>175.4</ele>
        <time>2015-07-19T21:05:07Z</time>
      </trkpt>
      <trkpt lat="37.372082" lon="-122.207817">
        <ele>175.4</ele>
        <time>2015-07-19T21:05:08Z</time>
      </trkpt>
      <trkpt lat="37.37206" lon="-122.207854">
        <ele>175.5</ele>
        <time>2015-07-19T21:05:09Z</time>
      </trkpt>
      <trkpt lat="37.372037" lon="-122.207887">
        <ele>175.7</ele>
        <time>2015-07-19T21:05:10Z</time>
      </trkpt>
      <trkpt lat="37.372013" lon="-122.207924">
        <ele>175.8</ele>
        <time>2015-07-19T21:05:11Z</time>
      </trkpt>
      <trkpt lat="37.371986" lon="-122.207959">
        <ele>176</ele>
        <time>2015-07-19T21:05:12Z</time>
      </trkpt>
      <trkpt lat="37.371955" lon="-122.207991">
        <ele>176.3</ele>
        <time>2015-07-19T21:05:13Z</time>
      </trkpt>
      <trkpt lat="37.371935" lon="-122.208024">
        <ele>176.4</ele>
        <time>2015-07-19T21:05:14Z</time>
      </trkpt>
      <trkpt lat="37.371914" lon="-122.208048">
        <ele>176.6</ele>
        <time>2015-07-19T21:05:15Z</time>
      </trkpt>
      <trkpt lat="37.371891" lon="-122.20809">
        <ele>176.7</ele>
        <time>2015-07-19T21:05:17Z</time>
      </trkpt>
      <trkpt lat="37.371881" lon="-122.208126">
        <ele>176.8</ele>
        <time>2015-07-19T21:05:19Z</time>
      </trkpt>
      <trkpt lat="37.371876" lon="-122.208171">
        <ele>176.7</ele>
        <time>2015-07-19T21:05:23Z</time>
      </trkpt>
      <trkpt lat="37.371851" lon="-122.208207">
        <ele>177</ele>
        <time>2015-07-19T21:05:25Z</time>
      </trkpt>
      <trkpt lat="37.371858" lon="-122.208121">
        <ele>177.1</ele>
        <time>2015-07-19T21:05:26Z</time>
      </trkpt>
      <trkpt lat="37.37191" lon="-122.208317">
        <ele>175.9</ele>
        <time>2015-07-19T21:05:27Z</time>
      </trkpt>
      <trkpt lat="37.371924" lon="-122.208345">
        <ele>175.7</ele>
        <time>2015-07-19T21:05:28Z</time>
      </trkpt>
      <trkpt lat="37.371963" lon="-122.208391">
        <ele>175.2</ele>
        <time>2015-07-19T21:05:30Z</time>
      </trkpt>
      <trkpt lat="37.371977" lon="-122.208422">
        <ele>175</ele>
        <time>2015-07-19T21:05:31Z</time>
      </trkpt>
      <trkpt lat="37.371993" lon="-122.20846">
        <ele>174.8</ele>
        <time>2015-07-19T21:05:32Z</time>
      </trkpt>
      <trkpt lat="37.371999" lon="-122.208493">
        <ele>174.7</ele>
        <time>2015-07-19T21:05:33Z</time>
      </trkpt>
      <trkpt lat="37.372009" lon="-122.208541">
        <ele>174.5</ele>
        <time>2015-07-19T21:05:34Z</time>
      </trkpt>
      <trkpt lat="37.372004" lon="-122.208607">
        <ele>174.6</ele>
        <time>2015-07-19T21:05:36Z</time>
      </trkpt>
      <trkpt lat="37.372005" lon="-122.208656">
        <ele>174.6</ele>
        <time>2015-07-19T21:05:38Z</time>
      </trkpt>
      <trkpt lat="37.372034" lon="-122.208691">
        <ele>174.4</ele>
        <time>2015-07-19T21:05:40Z</time>
      </trkpt>
      <trkpt lat="37.372051" lon="-122.208725">
        <ele>174.3</ele>
        <time>2015-07-19T21:05:42Z</time>
      </trkpt>
      <trkpt lat="37.372077" lon="-122.20877">
        <ele>174.2</ele>
        <time>2015-07-19T21:05:44Z</time>
      </trkpt>
      <trkpt lat="37.372176" lon="-122.208904">
        <ele>173.4</ele>
        <time>2015-07-19T21:05:46Z</time>
      </trkpt>
      <trkpt lat="37.372163" lon="-122.208874">
        <ele>173.6</ele>
        <time>2015-07-19T21:05:48Z</time>
      </trkpt>
      <trkpt lat="37.372185" lon="-122.208927">
        <ele>173.3</ele>
        <time>2015-07-19T21:05:56Z</time>
      </trkpt>
      <trkpt lat="37.372205" lon="-122.208954">
        <ele>173.1</ele>
        <time>2015-07-19T21:05:57Z</time>
      </trkpt>
      <trkpt lat="37.372225" lon="-122.208978">
        <ele>173</ele>
        <time>2015-07-19T21:05:58Z</time>
      </trkpt>
      <trkpt lat="37.372247" lon="-122.209">
        <ele>172.8</ele>
        <time>2015-07-19T21:05:59Z</time>
      </trkpt>
      <trkpt lat="37.372277" lon="-122.209023">
        <ele>172.6</ele>
        <time>2015-07-19T21:06:00Z</time>
      </trkpt>
      <trkpt lat="37.372312" lon="-122.209039">
        <ele>172.2</ele>
        <time>2015-07-19T21:06:01Z</time>
      </trkpt>
      <trkpt lat="37.372347" lon="-122.209055">
        <ele>171.9</ele>
        <time>2015-07-19T21:06:02Z</time>
      </trkpt>
      <trkpt lat="37.372396" lon="-122.20909">
        <ele>171.4</ele>
        <time>2015-07-19T21:06:03Z</time>
      </trkpt>
      <trkpt lat="37.372441" lon="-122.209127">
        <ele>170.8</ele>
        <time>2015-07-19T21:06:04Z</time>
      </trkpt>
      <trkpt lat="37.372481" lon="-122.209187">
        <ele>170.2</ele>
        <time>2015-07-19T21:06:05Z</time>
      </trkpt>
      <trkpt lat="37.372515" lon="-122.209233">
        <ele>169.8</ele>
        <time>2015-07-19T21:06:06Z</time>
      </trkpt>
      <trkpt lat="37.372554" lon="-122.209281">
        <ele>169.4</ele>
        <time>2015-07-19T21:06:07Z</time>
      </trkpt>
      <trkpt lat="37.372585" lon="-122.209326">
        <ele>169.1</ele>
        <time>2015-07-19T21:06:08Z</time>
      </trkpt>
      <trkpt lat="37.37262" lon="-122.209373">
        <ele>168.8</ele>
        <time>2015-07-19T21:06:09Z</time>
      </trkpt>
      <trkpt lat="37.372652" lon="-122.20942">
        <ele>168.6</ele>
        <time>2015-07-19T21:06:10Z</time>
      </trkpt>
      <trkpt lat="37.372691" lon="-122.209481">
        <ele>168.2</ele>
        <time>2015-07-19T21:06:11Z</time>
      </trkpt>
      <trkpt lat="37.372727" lon="-122.20953">
        <ele>168</ele>
        <time>2015-07-19T21:06:12Z</time>
      </trkpt>
      <trkpt lat="37.372763" lon="-122.209572">
        <ele>167.9</ele>
        <time>2015-07-19T21:06:13Z</time>
      </trkpt>
      <trkpt lat="37.372801" lon="-122.209627">
        <ele>167.8</ele>
        <time>2015-07-19T21:06:14Z</time>
      </trkpt>
      <trkpt lat="37.372846" lon="-122.209685">
        <ele>167.5</ele>
        <time>2015-07-19T21:06:15Z</time>
      </trkpt>
      <trkpt lat="37.372883" lon="-122.209732">
        <ele>167.3</ele>
        <time>2015-07-19T21:06:16Z</time>
      </trkpt>
      <trkpt lat="37.373022" lon="-122.20994">
        <ele>166.1</ele>
        <time>2015-07-19T21:06:20Z</time>
      </trkpt>
      <trkpt lat="37.37306" lon="-122.209992">
        <ele>166</ele>
        <time>2015-07-19T21:06:21Z</time>
      </trkpt>
      <trkpt lat="37.373098" lon="-122.21004">
        <ele>165.8</ele>
        <time>2015-07-19T21:06:22Z</time>
      </trkpt>
      <trkpt lat="37.37313" lon="-122.210095">
        <ele>165.4</ele>
        <time>2015-07-19T21:06:23Z</time>
      </trkpt>
      <trkpt lat="37.373161" lon="-122.210147">
        <ele>165.1</ele>
        <time>2015-07-19T21:06:24Z</time>
      </trkpt>
      <trkpt lat="37.373179" lon="-122.210175">
        <ele>165</ele>
        <time>2015-07-19T21:06:25Z</time>
      </trkpt>
      <trkpt lat="37.37333" lon="-122.210398">
        <ele>163.6</ele>
        <time>2015-07-19T21:06:29Z</time>
      </trkpt>
      <trkpt lat="37.373354" lon="-122.210446">
        <ele>163.3</ele>
        <time>2015-07-19T21:06:30Z</time>
      </trkpt>
      <trkpt lat="37.373384" lon="-122.210505">
        <ele>162.9</ele>
        <time>2015-07-19T21:06:31Z</time>
      </trkpt>
      <trkpt lat="37.373419" lon="-122.210553">
        <ele>162.8</ele>
        <time>2015-07-19T21:06:32Z</time>
      </trkpt>
      <trkpt lat="37.373448" lon="-122.210609">
        <ele>162.8</ele>
        <time>2015-07-19T21:06:33Z</time>
      </trkpt>
      <trkpt lat="37.373475" lon="-122.210666">
        <ele>163</ele>
        <time>2015-07-19T21:06:34Z</time>
      </trkpt>
      <trkpt lat="37.373506" lon="-122.210729">
        <ele>163.3</ele>
        <time>2015-07-19T21:06:35Z</time>
      </trkpt>
      <trkpt lat="37.373533" lon="-122.210786">
        <ele>163.6</ele>
        <time>2015-07-19T21:06:36Z</time>
      </trkpt>
      <trkpt lat="37.373558" lon="-122.210847">
        <ele>163.8</ele>
        <time>2015-07-19T21:06:37Z</time>
      </trkpt>
      <trkpt lat="37.373586" lon="-122.210921">
        <ele>164</ele>
        <time>2015-07-19T21:06:38Z</time>
      </trkpt>
      <trkpt lat="37.373611" lon="-122.210989">
        <ele>164.2</ele>
        <time>2015-07-19T21:06:39Z</time>
      </trkpt>
      <trkpt lat="37.373635" lon="-122.211055">
        <ele>164.2</ele>
        <time>2015-07-19T21:06:40Z</time>
      </trkpt>
      <trkpt lat="37.373662" lon="-122.211121">
        <ele>164.3</ele>
        <time>2015-07-19T21:06:41Z</time>
      </trkpt>
      <trkpt lat="37.373687" lon="-122.211202">
        <ele>164.6</ele>
        <time>2015-07-19T21:06:42Z</time>
      </trkpt>
      <trkpt lat="37.373748" lon="-122.211528">
        <ele>164.9</ele>
        <time>2015-07-19T21:06:46Z</time>
      </trkpt>
      <trkpt lat="37.373775" lon="-122.211609">
        <ele>164.8</ele>
        <time>2015-07-19T21:06:47Z</time>
      </trkpt>
      <trkpt lat="37.373787" lon="-122.211695">
        <ele>164.5</ele>
        <time>2015-07-19T21:06:48Z</time>
      </trkpt>
      <trkpt lat="37.373803" lon="-122.211785">
        <ele>164</ele>
        <time>2015-07-19T21:06:49Z</time>
      </trkpt>
      <trkpt lat="37.373813" lon="-122.211884">
        <ele>163.6</ele>
        <time>2015-07-19T21:06:50Z</time>
      </trkpt>
      <trkpt lat="37.37382" lon="-122.211976">
        <ele>163.4</ele>
        <time>2015-07-19T21:06:51Z</time>
      </trkpt>
      <trkpt lat="37.37383" lon="-122.212078">
        <ele>163.2</ele>
        <time>2015-07-19T21:06:52Z</time>
      </trkpt>
      <trkpt lat="37.373835" lon="-122.212176">
        <ele>163.1</ele>
        <time>2015-07-19T21:06:53Z</time>
      </trkpt>
      <trkpt lat="37.373845" lon="-122.212273">
        <ele>162.7</ele>
        <time>2015-07-19T21:06:54Z</time>
      </trkpt>
      <trkpt lat="37.373853" lon="-122.212373">
        <ele>162.2</ele>
        <time>2015-07-19T21:06:55Z</time>
      </trkpt>
      <trkpt lat="37.373855" lon="-122.212467">
        <ele>161.9</ele>
        <time>2015-07-19T21:06:56Z</time>
      </trkpt>
      <trkpt lat="37.373862" lon="-122.212568">
        <ele>161.5</ele>
        <time>2015-07-19T21:06:57Z</time>
      </trkpt>
      <trkpt lat="37.373866" lon="-122.212667">
        <ele>161</ele>
        <time>2015-07-19T21:06:58Z</time>
      </trkpt>
      <trkpt lat="37.373877" lon="-122.212779">
        <ele>160.2</ele>
        <time>2015-07-19T21:06:59Z</time>
      </trkpt>
      <trkpt lat="37.373873" lon="-122.21287">
        <ele>159.7</ele>
        <time>2015-07-19T21:07:00Z</time>
      </trkpt>
      <trkpt lat="37.373883" lon="-122.21296">
        <ele>159.2</ele>
        <time>2015-07-19T21:07:01Z</time>
      </trkpt>
      <trkpt lat="37.37389" lon="-122.213048">
        <ele>158.9</ele>
        <time>2015-07-19T21:07:02Z</time>
      </trkpt>
      <trkpt lat="37.373896" lon="-122.213108">
        <ele>158.9</ele>
        <time>2015-07-19T21:07:03Z</time>
      </trkpt>
      <trkpt lat="37.373905" lon="-122.213185">
        <ele>159.3</ele>
        <time>2015-07-19T21:07:04Z</time>
      </trkpt>
      <trkpt lat="37.373917" lon="-122.21327">
        <ele>159.5</ele>
        <time>2015-07-19T21:07:05Z</time>
      </trkpt>
      <trkpt lat="37.373936" lon="-122.213353">
        <ele>159.6</ele>
        <time>2015-07-19T21:07:06Z</time>
      </trkpt>
      <trkpt lat="37.373947" lon="-122.213428">
        <ele>159.9</ele>
        <time>2015-07-19T21:07:07Z</time>
      </trkpt>
      <trkpt lat="37.373969" lon="-122.213453">
        <ele>159.8</ele>
        <time>2015-07-19T21:07:08Z</time>
      </trkpt>
      <trkpt lat="37.374057" lon="-122.213751">
        <ele>159.2</ele>
        <time>2015-07-19T21:07:10Z</time>
      </trkpt>
      <trkpt lat="37.374073" lon="-122.213824">
        <ele>159</ele>
        <time>2015-07-19T21:07:11Z</time>
      </trkpt>
      <trkpt lat="37.374091" lon="-122.213895">
        <ele>158.8</ele>
        <time>2015-07-19T21:07:12Z</time>
      </trkpt>
      <trkpt lat="37.3741" lon="-122.21399">
        <ele>158.9</ele>
        <time>2015-07-19T21:07:13Z</time>
      </trkpt>
      <trkpt lat="37.37411" lon="-122.214051">
        <ele>159.1</ele>
        <time>2015-07-19T21:07:14Z</time>
      </trkpt>
      <trkpt lat="37.374132" lon="-122.214119">
        <ele>159.1</ele>
        <time>2015-07-19T21:07:15Z</time>
      </trkpt>
      <trkpt lat="37.374152" lon="-122.214174">
        <ele>159.2</ele>
        <time>2015-07-19T21:07:16Z</time>
      </trkpt>
      <trkpt lat="37.374181" lon="-122.214262">
        <ele>159.5</ele>
        <time>2015-07-19T21:07:17Z</time>
      </trkpt>
      <trkpt lat="37.3742" lon="-122.214336">
        <ele>159.9</ele>
        <time>2015-07-19T21:07:18Z</time>
      </trkpt>
      <trkpt lat="37.374231" lon="-122.214404">
        <ele>160</ele>
        <time>2015-07-19T21:07:19Z</time>
      </trkpt>
      <trkpt lat="37.374263" lon="-122.214482">
        <ele>160.2</ele>
        <time>2015-07-19T21:07:20Z</time>
      </trkpt>
      <trkpt lat="37.374298" lon="-122.214555">
        <ele>160.2</ele>
        <time>2015-07-19T21:07:21Z</time>
      </trkpt>
      <trkpt lat="37.374346" lon="-122.214632">
        <ele>160.1</ele>
        <time>2015-07-19T21:07:22Z</time>
      </trkpt>
      <trkpt lat="37.374387" lon="-122.214688">
        <ele>159.9</ele>
        <time>2015-07-19T21:07:23Z</time>
      </trkpt>
      <trkpt lat="37.374425" lon="-122.214759">
        <ele>159.8</ele>
        <time>2015-07-19T21:07:24Z</time>
      </trkpt>
      <trkpt lat="37.374469" lon="-122.214825">
        <ele>159.8</ele>
        <time>2015-07-19T21:07:25Z</time>
      </trkpt>
      <trkpt lat="37.374502" lon="-122.214881">
        <ele>159.8</ele>
        <time>2015-07-19T21:07:26Z</time>
      </trkpt>
      <trkpt lat="37.374532" lon="-122.214939">
        <ele>159.9</ele>
        <time>2015-07-19T21:07:27Z</time>
      </trkpt>
      <trkpt lat="37.37457" lon="-122.215009">
        <ele>160</ele>
        <time>2015-07-19T21:07:28Z</time>
      </trkpt>
      <trkpt lat="37.374607" lon="-122.215058">
        <ele>159.9</ele>
        <time>2015-07-19T21:07:29Z</time>
      </trkpt>
      <trkpt lat="37.374646" lon="-122.215113">
        <ele>159.6</ele>
        <time>2015-07-19T21:07:30Z</time>
      </trkpt>
      <trkpt lat="37.374675" lon="-122.215171">
        <ele>159.3</ele>
        <time>2015-07-19T21:07:31Z</time>
      </trkpt>
      <trkpt lat="37.37472" lon="-122.215242">
        <ele>158.7</ele>
        <time>2015-07-19T21:07:32Z</time>
      </trkpt>
      <trkpt lat="37.374757" lon="-122.215297">
        <ele>158.1</ele>
        <time>2015-07-19T21:07:33Z</time>
      </trkpt>
      <trkpt lat="37.374898" lon="-122.215502">
        <ele>155.9</ele>
        <time>2015-07-19T21:07:36Z</time>
      </trkpt>
      <trkpt lat="37.374939" lon="-122.215548">
        <ele>155.7</ele>
        <time>2015-07-19T21:07:37Z</time>
      </trkpt>
      <trkpt lat="37.374961" lon="-122.215571">
        <ele>155.6</ele>
        <time>2015-07-19T21:07:38Z</time>
      </trkpt>
      <trkpt lat="37.375128" lon="-122.215839">
        <ele>154.5</ele>
        <time>2015-07-19T21:07:41Z</time>
      </trkpt>
      <trkpt lat="37.375186" lon="-122.215923">
        <ele>154.6</ele>
        <time>2015-07-19T21:07:42Z</time>
      </trkpt>
      <trkpt lat="37.375234" lon="-122.215994">
        <ele>154.5</ele>
        <time>2015-07-19T21:07:43Z</time>
      </trkpt>
      <trkpt lat="37.375393" lon="-122.216296">
        <ele>154.6</ele>
        <time>2015-07-19T21:07:47Z</time>
      </trkpt>
      <trkpt lat="37.375438" lon="-122.216364">
        <ele>154.8</ele>
        <time>2015-07-19T21:07:48Z</time>
      </trkpt>
      <trkpt lat="37.375473" lon="-122.216431">
        <ele>154.9</ele>
        <time>2015-07-19T21:07:49Z</time>
      </trkpt>
      <trkpt lat="37.37551" lon="-122.216505">
        <ele>154.9</ele>
        <time>2015-07-19T21:07:50Z</time>
      </trkpt>
      <trkpt lat="37.375544" lon="-122.216563">
        <ele>155</ele>
        <time>2015-07-19T21:07:51Z</time>
      </trkpt>
      <trkpt lat="37.375571" lon="-122.216661">
        <ele>155.3</ele>
        <time>2015-07-19T21:07:52Z</time>
      </trkpt>
      <trkpt lat="37.375607" lon="-122.216742">
        <ele>155.4</ele>
        <time>2015-07-19T21:07:53Z</time>
      </trkpt>
      <trkpt lat="37.375639" lon="-122.216815">
        <ele>155.4</ele>
        <time>2015-07-19T21:07:54Z</time>
      </trkpt>
      <trkpt lat="37.375672" lon="-122.216891">
        <ele>155.5</ele>
        <time>2015-07-19T21:07:55Z</time>
      </trkpt>
      <trkpt lat="37.375739" lon="-122.217203">
        <ele>156.1</ele>
        <time>2015-07-19T21:07:59Z</time>
      </trkpt>
      <trkpt lat="37.375754" lon="-122.21727">
        <ele>156.4</ele>
        <time>2015-07-19T21:08:00Z</time>
      </trkpt>
      <trkpt lat="37.375759" lon="-122.217347">
        <ele>156.5</ele>
        <time>2015-07-19T21:08:01Z</time>
      </trkpt>
      <trkpt lat="37.375754" lon="-122.217449">
        <ele>156.6</ele>
        <time>2015-07-19T21:08:02Z</time>
      </trkpt>
      <trkpt lat="37.375764" lon="-122.217538">
        <ele>156.7</ele>
        <time>2015-07-19T21:08:03Z</time>
      </trkpt>
      <trkpt lat="37.375755" lon="-122.217618">
        <ele>156.3</ele>
        <time>2015-07-19T21:08:04Z</time>
      </trkpt>
      <trkpt lat="37.375756" lon="-122.217704">
        <ele>155.9</ele>
        <time>2015-07-19T21:08:05Z</time>
      </trkpt>
      <trkpt lat="37.375748" lon="-122.217778">
        <ele>155.8</ele>
        <time>2015-07-19T21:08:06Z</time>
      </trkpt>
      <trkpt lat="37.375733" lon="-122.217861">
        <ele>156.2</ele>
        <time>2015-07-19T21:08:07Z</time>
      </trkpt>
      <trkpt lat="37.375723" lon="-122.217933">
        <ele>156.9</ele>
        <time>2015-07-19T21:08:08Z</time>
      </trkpt>
      <trkpt lat="37.375706" lon="-122.217995">
        <ele>157.6</ele>
        <time>2015-07-19T21:08:09Z</time>
      </trkpt>
      <trkpt lat="37.375682" lon="-122.218064">
        <ele>158.3</ele>
        <time>2015-07-19T21:08:10Z</time>
      </trkpt>
      <trkpt lat="37.375664" lon="-122.218138">
        <ele>159.1</ele>
        <time>2015-07-19T21:08:11Z</time>
      </trkpt>
      <trkpt lat="37.375652" lon="-122.218217">
        <ele>159.8</ele>
        <time>2015-07-19T21:08:12Z</time>
      </trkpt>
      <trkpt lat="37.375643" lon="-122.218278">
        <ele>160.2</ele>
        <time>2015-07-19T21:08:13Z</time>
      </trkpt>
      <trkpt lat="37.375632" lon="-122.218345">
        <ele>160.6</ele>
        <time>2015-07-19T21:08:14Z</time>
      </trkpt>
      <trkpt lat="37.375614" lon="-122.218414">
        <ele>161</ele>
        <time>2015-07-19T21:08:15Z</time>
      </trkpt>
      <trkpt lat="37.37561" lon="-122.21847">
        <ele>161.3</ele>
        <time>2015-07-19T21:08:16Z</time>
      </trkpt>
      <trkpt lat="37.375598" lon="-122.218518">
        <ele>161.4</ele>
        <time>2015-07-19T21:08:17Z</time>
      </trkpt>
      <trkpt lat="37.375596" lon="-122.218584">
        <ele>161.6</ele>
        <time>2015-07-19T21:08:18Z</time>
      </trkpt>
      <trkpt lat="37.375587" lon="-122.218646">
        <ele>161.7</ele>
        <time>2015-07-19T21:08:19Z</time>
      </trkpt>
      <trkpt lat="37.375575" lon="-122.218702">
        <ele>161.8</ele>
        <time>2015-07-19T21:08:20Z</time>
      </trkpt>
      <trkpt lat="37.375561" lon="-122.218756">
        <ele>161.9</ele>
        <time>2015-07-19T21:08:21Z</time>
      </trkpt>
      <trkpt lat="37.37555" lon="-122.218826">
        <ele>162.1</ele>
        <time>2015-07-19T21:08:22Z</time>
      </trkpt>
      <trkpt lat="37.375541" lon="-122.218909">
        <ele>162.5</ele>
        <time>2015-07-19T21:08:23Z</time>
      </trkpt>
      <trkpt lat="37.375535" lon="-122.218979">
        <ele>162.7</ele>
        <time>2015-07-19T21:08:24Z</time>
      </trkpt>
      <trkpt lat="37.375531" lon="-122.219044">
        <ele>162.8</ele>
        <time>2015-07-19T21:08:25Z</time>
      </trkpt>
      <trkpt lat="37.375522" lon="-122.219103">
        <ele>162.9</ele>
        <time>2015-07-19T21:08:26Z</time>
      </trkpt>
      <trkpt lat="37.375516" lon="-122.219148">
        <ele>163</ele>
        <time>2015-07-19T21:08:27Z</time>
      </trkpt>
      <trkpt lat="37.375503" lon="-122.219206">
        <ele>163.1</ele>
        <time>2015-07-19T21:08:28Z</time>
      </trkpt>
      <trkpt lat="37.375491" lon="-122.219261">
        <ele>163</ele>
        <time>2015-07-19T21:08:29Z</time>
      </trkpt>
      <trkpt lat="37.375487" lon="-122.219314">
        <ele>162.9</ele>
        <time>2015-07-19T21:08:30Z</time>
      </trkpt>
      <trkpt lat="37.375478" lon="-122.219391">
        <ele>162.8</ele>
        <time>2015-07-19T21:08:31Z</time>
      </trkpt>
      <trkpt lat="37.375468" lon="-122.219461">
        <ele>163.1</ele>
        <time>2015-07-19T21:08:32Z</time>
      </trkpt>
      <trkpt lat="37.375456" lon="-122.219514">
        <ele>163.3</ele>
        <time>2015-07-19T21:08:33Z</time>
      </trkpt>
      <trkpt lat="37.375427" lon="-122.219886">
        <ele>165</ele>
        <time>2015-07-19T21:08:37Z</time>
      </trkpt>
      <trkpt lat="37.375419" lon="-122.219983">
        <ele>165.5</ele>
        <time>2015-07-19T21:08:38Z</time>
      </trkpt>
      <trkpt lat="37.375414" lon="-122.220057">
        <ele>166</ele>
        <time>2015-07-19T21:08:39Z</time>
      </trkpt>
      <trkpt lat="37.3754" lon="-122.220131">
        <ele>166.3</ele>
        <time>2015-07-19T21:08:41Z</time>
      </trkpt>
      <trkpt lat="37.375392" lon="-122.220181">
        <ele>166.5</ele>
        <time>2015-07-19T21:08:42Z</time>
      </trkpt>
      <trkpt lat="37.375371" lon="-122.220243">
        <ele>166.6</ele>
        <time>2015-07-19T21:08:44Z</time>
      </trkpt>
      <trkpt lat="37.375363" lon="-122.22029">
        <ele>166.7</ele>
        <time>2015-07-19T21:08:46Z</time>
      </trkpt>
      <trkpt lat="37.375367" lon="-122.220336">
        <ele>166.9</ele>
        <time>2015-07-19T21:08:47Z</time>
      </trkpt>
      <trkpt lat="37.375361" lon="-122.22037">
        <ele>166.9</ele>
        <time>2015-07-19T21:08:48Z</time>
      </trkpt>
      <trkpt lat="37.375355" lon="-122.220417">
        <ele>166.9</ele>
        <time>2015-07-19T21:08:49Z</time>
      </trkpt>
      <trkpt lat="37.375348" lon="-122.220461">
        <ele>167</ele>
        <time>2015-07-19T21:08:51Z</time>
      </trkpt>
      <trkpt lat="37.375318" lon="-122.220753">
        <ele>167.1</ele>
        <time>2015-07-19T21:08:57Z</time>
      </trkpt>
      <trkpt lat="37.375315" lon="-122.220799">
        <ele>167</ele>
        <time>2015-07-19T21:08:58Z</time>
      </trkpt>
      <trkpt lat="37.375309" lon="-122.220835">
        <ele>166.9</ele>
        <time>2015-07-19T21:08:59Z</time>
      </trkpt>
      <trkpt lat="37.375308" lon="-122.220902">
        <ele>166.8</ele>
        <time>2015-07-19T21:09:01Z</time>
      </trkpt>
      <trkpt lat="37.375306" lon="-122.220981">
        <ele>166.7</ele>
        <time>2015-07-19T21:09:03Z</time>
      </trkpt>
      <trkpt lat="37.375306" lon="-122.221026">
        <ele>166.8</ele>
        <time>2015-07-19T21:09:05Z</time>
      </trkpt>
      <trkpt lat="37.37531" lon="-122.221096">
        <ele>166.9</ele>
        <time>2015-07-19T21:09:06Z</time>
      </trkpt>
      <trkpt lat="37.375312" lon="-122.22113">
        <ele>167.1</ele>
        <time>2015-07-19T21:09:07Z</time>
      </trkpt>
      <trkpt lat="37.375317" lon="-122.221181">
        <ele>167.2</ele>
        <time>2015-07-19T21:09:08Z</time>
      </trkpt>
      <trkpt lat="37.375322" lon="-122.221225">
        <ele>167.4</ele>
        <time>2015-07-19T21:09:09Z</time>
      </trkpt>
      <trkpt lat="37.375336" lon="-122.22131">
        <ele>167.5</ele>
        <time>2015-07-19T21:09:11Z</time>
      </trkpt>
      <trkpt lat="37.375344" lon="-122.221357">
        <ele>167.6</ele>
        <time>2015-07-19T21:09:12Z</time>
      </trkpt>
      <trkpt lat="37.375352" lon="-122.221397">
        <ele>167.6</ele>
        <time>2015-07-19T21:09:13Z</time>
      </trkpt>
      <trkpt lat="37.375367" lon="-122.221456">
        <ele>167.7</ele>
        <time>2015-07-19T21:09:15Z</time>
      </trkpt>
      <trkpt lat="37.375379" lon="-122.2215">
        <ele>167.7</ele>
        <time>2015-07-19T21:09:16Z</time>
      </trkpt>
      <trkpt lat="37.375394" lon="-122.221553">
        <ele>167.8</ele>
        <time>2015-07-19T21:09:17Z</time>
      </trkpt>
      <trkpt lat="37.375411" lon="-122.221608">
        <ele>167.8</ele>
        <time>2015-07-19T21:09:18Z</time>
      </trkpt>
      <trkpt lat="37.375428" lon="-122.221668">
        <ele>167.9</ele>
        <time>2015-07-19T21:09:19Z</time>
      </trkpt>
      <trkpt lat="37.375444" lon="-122.221733">
        <ele>168</ele>
        <time>2015-07-19T21:09:20Z</time>
      </trkpt>
      <trkpt lat="37.375459" lon="-122.221788">
        <ele>168.1</ele>
        <time>2015-07-19T21:09:21Z</time>
      </trkpt>
      <trkpt lat="37.375466" lon="-122.221856">
        <ele>168</ele>
        <time>2015-07-19T21:09:22Z</time>
      </trkpt>
      <trkpt lat="37.375483" lon="-122.221911">
        <ele>168.1</ele>
        <time>2015-07-19T21:09:23Z</time>
      </trkpt>
      <trkpt lat="37.37551" lon="-122.22196">
        <ele>168.2</ele>
        <time>2015-07-19T21:09:24Z</time>
      </trkpt>
      <trkpt lat="37.375528" lon="-122.22203">
        <ele>168.1</ele>
        <time>2015-07-19T21:09:25Z</time>
      </trkpt>
      <trkpt lat="37.37555" lon="-122.222108">
        <ele>168</ele>
        <time>2015-07-19T21:09:26Z</time>
      </trkpt>
      <trkpt lat="37.375573" lon="-122.222163">
        <ele>168</ele>
        <time>2015-07-19T21:09:27Z</time>
      </trkpt>
      <trkpt lat="37.375603" lon="-122.2222">
        <ele>168</ele>
        <time>2015-07-19T21:09:28Z</time>
      </trkpt>
      <trkpt lat="37.375632" lon="-122.222264">
        <ele>168</ele>
        <time>2015-07-19T21:09:29Z</time>
      </trkpt>
      <trkpt lat="37.375686" lon="-122.222302">
        <ele>168</ele>
        <time>2015-07-19T21:09:30Z</time>
      </trkpt>
      <trkpt lat="37.375734" lon="-122.222346">
        <ele>167.6</ele>
        <time>2015-07-19T21:09:31Z</time>
      </trkpt>
      <trkpt lat="37.375776" lon="-122.222383">
        <ele>167.2</ele>
        <time>2015-07-19T21:09:32Z</time>
      </trkpt>
      <trkpt lat="37.375814" lon="-122.222419">
        <ele>166.8</ele>
        <time>2015-07-19T21:09:33Z</time>
      </trkpt>
      <trkpt lat="37.37586" lon="-122.222454">
        <ele>166.3</ele>
        <time>2015-07-19T21:09:34Z</time>
      </trkpt>
      <trkpt lat="37.375901" lon="-122.22251">
        <ele>165.8</ele>
        <time>2015-07-19T21:09:35Z</time>
      </trkpt>
      <trkpt lat="37.375929" lon="-122.222513">
        <ele>165.7</ele>
        <time>2015-07-19T21:09:36Z</time>
      </trkpt>
      <trkpt lat="37.375963" lon="-122.222528">
        <ele>165.5</ele>
        <time>2015-07-19T21:09:37Z</time>
      </trkpt>
      <trkpt lat="37.375989" lon="-122.222541">
        <ele>165.4</ele>
        <time>2015-07-19T21:09:43Z</time>
      </trkpt>
      <trkpt lat="37.375962" lon="-122.222529">
        <ele>165.5</ele>
        <time>2015-07-19T21:09:54Z</time>
      </trkpt>
      <trkpt lat="37.375972" lon="-122.222575">
        <ele>165.3</ele>
        <time>2015-07-19T21:10:02Z</time>
      </trkpt>
      <trkpt lat="37.37599" lon="-122.222603">
        <ele>165.2</ele>
        <time>2015-07-19T21:10:03Z</time>
      </trkpt>
      <trkpt lat="37.376016" lon="-122.222632">
        <ele>165.1</ele>
        <time>2015-07-19T21:10:04Z</time>
      </trkpt>
      <trkpt lat="37.37605" lon="-122.222662">
        <ele>165</ele>
        <time>2015-07-19T21:10:05Z</time>
      </trkpt>
      <trkpt lat="37.376091" lon="-122.222693">
        <ele>164.8</ele>
        <time>2015-07-19T21:10:06Z</time>
      </trkpt>
      <trkpt lat="37.376137" lon="-122.222726">
        <ele>164.6</ele>
        <time>2015-07-19T21:10:07Z</time>
      </trkpt>
      <trkpt lat="37.376186" lon="-122.22276">
        <ele>164.5</ele>
        <time>2015-07-19T21:10:08Z</time>
      </trkpt>
      <trkpt lat="37.376228" lon="-122.222788">
        <ele>164.5</ele>
        <time>2015-07-19T21:10:09Z</time>
      </trkpt>
      <trkpt lat="37.376403" lon="-122.222902">
        <ele>164.4</ele>
        <time>2015-07-19T21:10:12Z</time>
      </trkpt>
      <trkpt lat="37.37646" lon="-122.222939">
        <ele>164.3</ele>
        <time>2015-07-19T21:10:13Z</time>
      </trkpt>
      <trkpt lat="37.376519" lon="-122.222977">
        <ele>164.3</ele>
        <time>2015-07-19T21:10:14Z</time>
      </trkpt>
      <trkpt lat="37.376583" lon="-122.223012">
        <ele>164.2</ele>
        <time>2015-07-19T21:10:15Z</time>
      </trkpt>
      <trkpt lat="37.376646" lon="-122.223048">
        <ele>164.2</ele>
        <time>2015-07-19T21:10:16Z</time>
      </trkpt>
      <trkpt lat="37.376701" lon="-122.223084">
        <ele>164.1</ele>
        <time>2015-07-19T21:10:17Z</time>
      </trkpt>
      <trkpt lat="37.376769" lon="-122.223128">
        <ele>164</ele>
        <time>2015-07-19T21:10:18Z</time>
      </trkpt>
      <trkpt lat="37.376832" lon="-122.223163">
        <ele>164.1</ele>
        <time>2015-07-19T21:10:19Z</time>
      </trkpt>
      <trkpt lat="37.376898" lon="-122.223202">
        <ele>164.1</ele>
        <time>2015-07-19T21:10:20Z</time>
      </trkpt>
      <trkpt lat="37.37696" lon="-122.223243">
        <ele>164</ele>
        <time>2015-07-19T21:10:21Z</time>
      </trkpt>
      <trkpt lat="37.377025" lon="-122.223284">
        <ele>163.9</ele>
        <time>2015-07-19T21:10:22Z</time>
      </trkpt>
      <trkpt lat="37.377091" lon="-122.223325">
        <ele>163.8</ele>
        <time>2015-07-19T21:10:23Z</time>
      </trkpt>
      <trkpt lat="37.377154" lon="-122.223372">
        <ele>163.7</ele>
        <time>2015-07-19T21:10:24Z</time>
      </trkpt>
      <trkpt lat="37.377228" lon="-122.223418">
        <ele>163.5</ele>
        <time>2015-07-19T21:10:25Z</time>
      </trkpt>
      <trkpt lat="37.377305" lon="-122.223467">
        <ele>163.3</ele>
        <time>2015-07-19T21:10:26Z</time>
      </trkpt>
      <trkpt lat="37.377373" lon="-122.223508">
        <ele>163.1</ele>
        <time>2015-07-19T21:10:27Z</time>
      </trkpt>
      <trkpt lat="37.377436" lon="-122.223549">
        <ele>162.6</ele>
        <time>2015-07-19T21:10:28Z</time>
      </trkpt>
      <trkpt lat="37.377507" lon="-122.22359">
        <ele>161.3</ele>
        <time>2015-07-19T21:10:29Z</time>
      </trkpt>
      <trkpt lat="37.377575" lon="-122.223639">
        <ele>159.7</ele>
        <time>2015-07-19T21:10:30Z</time>
      </trkpt>
      <trkpt lat="37.377648" lon="-122.223684">
        <ele>158.8</ele>
        <time>2015-07-19T21:10:31Z</time>
      </trkpt>
      <trkpt lat="37.37774" lon="-122.223733">
        <ele>158.5</ele>
        <time>2015-07-19T21:10:32Z</time>
      </trkpt>
      <trkpt lat="37.377798" lon="-122.223774">
        <ele>158.4</ele>
        <time>2015-07-19T21:10:33Z</time>
      </trkpt>
      <trkpt lat="37.37786" lon="-122.223838">
        <ele>158.1</ele>
        <time>2015-07-19T21:10:34Z</time>
      </trkpt>
      <trkpt lat="37.377928" lon="-122.223885">
        <ele>157.7</ele>
        <time>2015-07-19T21:10:35Z</time>
      </trkpt>
      <trkpt lat="37.377987" lon="-122.223921">
        <ele>157.3</ele>
        <time>2015-07-19T21:10:36Z</time>
      </trkpt>
      <trkpt lat="37.378056" lon="-122.223967">
        <ele>157</ele>
        <time>2015-07-19T21:10:37Z</time>
      </trkpt>
      <trkpt lat="37.378151" lon="-122.224014">
        <ele>156.5</ele>
        <time>2015-07-19T21:10:38Z</time>
      </trkpt>
      <trkpt lat="37.378236" lon="-122.224067">
        <ele>156.1</ele>
        <time>2015-07-19T21:10:39Z</time>
      </trkpt>
      <trkpt lat="37.378315" lon="-122.224115">
        <ele>155.6</ele>
        <time>2015-07-19T21:10:40Z</time>
      </trkpt>
      <trkpt lat="37.378389" lon="-122.224163">
        <ele>155.4</ele>
        <time>2015-07-19T21:10:41Z</time>
      </trkpt>
      <trkpt lat="37.378459" lon="-122.22421">
        <ele>155.1</ele>
        <time>2015-07-19T21:10:42Z</time>
      </trkpt>
      <trkpt lat="37.378548" lon="-122.224261">
        <ele>154.9</ele>
        <time>2015-07-19T21:10:43Z</time>
      </trkpt>
      <trkpt lat="37.378631" lon="-122.224302">
        <ele>154.7</ele>
        <time>2015-07-19T21:10:44Z</time>
      </trkpt>
      <trkpt lat="37.378707" lon="-122.224353">
        <ele>154.5</ele>
        <time>2015-07-19T21:10:45Z</time>
      </trkpt>
      <trkpt lat="37.378787" lon="-122.224406">
        <ele>154.2</ele>
        <time>2015-07-19T21:10:46Z</time>
      </trkpt>
      <trkpt lat="37.378862" lon="-122.224452">
        <ele>153.8</ele>
        <time>2015-07-19T21:10:47Z</time>
      </trkpt>
      <trkpt lat="37.378986" lon="-122.224522">
        <ele>153.1</ele>
        <time>2015-07-19T21:10:48Z</time>
      </trkpt>
      <trkpt lat="37.379038" lon="-122.224554">
        <ele>153</ele>
        <time>2015-07-19T21:10:49Z</time>
      </trkpt>
      <trkpt lat="37.379147" lon="-122.22462">
        <ele>152.9</ele>
        <time>2015-07-19T21:10:50Z</time>
      </trkpt>
      <trkpt lat="37.37922" lon="-122.224667">
        <ele>152.8</ele>
        <time>2015-07-19T21:10:51Z</time>
      </trkpt>
      <trkpt lat="37.379302" lon="-122.224707">
        <ele>153</ele>
        <time>2015-07-19T21:10:52Z</time>
      </trkpt>
      <trkpt lat="37.379383" lon="-122.224779">
        <ele>152.9</ele>
        <time>2015-07-19T21:10:53Z</time>
      </trkpt>
      <trkpt lat="37.379462" lon="-122.224837">
        <ele>152.9</ele>
        <time>2015-07-19T21:10:54Z</time>
      </trkpt>
      <trkpt lat="37.379542" lon="-122.224894">
        <ele>152.6</ele>
        <time>2015-07-19T21:10:55Z</time>
      </trkpt>
      <trkpt lat="37.37962" lon="-122.224954">
        <ele>152.1</ele>
        <time>2015-07-19T21:10:56Z</time>
      </trkpt>
      <trkpt lat="37.379693" lon="-122.225019">
        <ele>151.8</ele>
        <time>2015-07-19T21:10:57Z</time>
      </trkpt>
      <trkpt lat="37.379776" lon="-122.225084">
        <ele>151.5</ele>
        <time>2015-07-19T21:10:58Z</time>
      </trkpt>
      <trkpt lat="37.379866" lon="-122.225153">
        <ele>151.4</ele>
        <time>2015-07-19T21:10:59Z</time>
      </trkpt>
      <trkpt lat="37.37994" lon="-122.225226">
        <ele>151.2</ele>
        <time>2015-07-19T21:11:00Z</time>
      </trkpt>
      <trkpt lat="37.380009" lon="-122.225294">
        <ele>150.9</ele>
        <time>2015-07-19T21:11:01Z</time>
      </trkpt>
      <trkpt lat="37.380094" lon="-122.225393">
        <ele>150.2</ele>
        <time>2015-07-19T21:11:02Z</time>
      </trkpt>
      <trkpt lat="37.38016" lon="-122.225469">
        <ele>149.7</ele>
        <time>2015-07-19T21:11:03Z</time>
      </trkpt>
      <trkpt lat="37.380232" lon="-122.225544">
        <ele>149.4</ele>
        <time>2015-07-19T21:11:04Z</time>
      </trkpt>
      <trkpt lat="37.380309" lon="-122.225629">
        <ele>148.9</ele>
        <time>2015-07-19T21:11:05Z</time>
      </trkpt>
      <trkpt lat="37.38039" lon="-122.225707">
        <ele>148.2</ele>
        <time>2015-07-19T21:11:06Z</time>
      </trkpt>
      <trkpt lat="37.38046" lon="-122.225786">
        <ele>147.4</ele>
        <time>2015-07-19T21:11:07Z</time>
      </trkpt>
      <trkpt lat="37.380536" lon="-122.225871">
        <ele>146.7</ele>
        <time>2015-07-19T21:11:08Z</time>
      </trkpt>
      <trkpt lat="37.380602" lon="-122.225944">
        <ele>146.5</ele>
        <time>2015-07-19T21:11:09Z</time>
      </trkpt>
      <trkpt lat="37.380669" lon="-122.226033">
        <ele>146.5</ele>
        <time>2015-07-19T21:11:10Z</time>
      </trkpt>
      <trkpt lat="37.380729" lon="-122.226121">
        <ele>146.3</ele>
        <time>2015-07-19T21:11:11Z</time>
      </trkpt>
      <trkpt lat="37.380799" lon="-122.226211">
        <ele>146</ele>
        <time>2015-07-19T21:11:12Z</time>
      </trkpt>
      <trkpt lat="37.380844" lon="-122.226312">
        <ele>145.6</ele>
        <time>2015-07-19T21:11:13Z</time>
      </trkpt>
      <trkpt lat="37.380906" lon="-122.226403">
        <ele>145.5</ele>
        <time>2015-07-19T21:11:14Z</time>
      </trkpt>
      <trkpt lat="37.380978" lon="-122.226513">
        <ele>145.5</ele>
        <time>2015-07-19T21:11:15Z</time>
      </trkpt>
      <trkpt lat="37.38103" lon="-122.226601">
        <ele>145.4</ele>
        <time>2015-07-19T21:11:16Z</time>
      </trkpt>
      <trkpt lat="37.381092" lon="-122.226686">
        <ele>145.5</ele>
        <time>2015-07-19T21:11:17Z</time>
      </trkpt>
      <trkpt lat="37.381144" lon="-122.226778">
        <ele>145.3</ele>
        <time>2015-07-19T21:11:18Z</time>
      </trkpt>
      <trkpt lat="37.381201" lon="-122.226871">
        <ele>145.4</ele>
        <time>2015-07-19T21:11:19Z</time>
      </trkpt>
      <trkpt lat="37.381249" lon="-122.226966">
        <ele>145.1</ele>
        <time>2015-07-19T21:11:20Z</time>
      </trkpt>
      <trkpt lat="37.381306" lon="-122.227048">
        <ele>145.2</ele>
        <time>2015-07-19T21:11:21Z</time>
      </trkpt>
      <trkpt lat="37.381358" lon="-122.22713">
        <ele>145.2</ele>
        <time>2015-07-19T21:11:22Z</time>
      </trkpt>
      <trkpt lat="37.381407" lon="-122.227221">
        <ele>145.1</ele>
        <time>2015-07-19T21:11:23Z</time>
      </trkpt>
      <trkpt lat="37.381483" lon="-122.227298">
        <ele>145.4</ele>
        <time>2015-07-19T21:11:24Z</time>
      </trkpt>
      <trkpt lat="37.381551" lon="-122.227371">
        <ele>145.6</ele>
        <time>2015-07-19T21:11:25Z</time>
      </trkpt>
      <trkpt lat="37.381601" lon="-122.227453">
        <ele>145.4</ele>
        <time>2015-07-19T21:11:26Z</time>
      </trkpt>
      <trkpt lat="37.381656" lon="-122.227555">
        <ele>145</ele>
        <time>2015-07-19T21:11:27Z</time>
      </trkpt>
      <trkpt lat="37.381717" lon="-122.22763">
        <ele>144.3</ele>
        <time>2015-07-19T21:11:28Z</time>
      </trkpt>
      <trkpt lat="37.381777" lon="-122.227711">
        <ele>142.8</ele>
        <time>2015-07-19T21:11:29Z</time>
      </trkpt>
      <trkpt lat="37.381842" lon="-122.22781">
        <ele>141</ele>
        <time>2015-07-19T21:11:30Z</time>
      </trkpt>
      <trkpt lat="37.381897" lon="-122.22789">
        <ele>140.3</ele>
        <time>2015-07-19T21:11:31Z</time>
      </trkpt>
      <trkpt lat="37.381955" lon="-122.22797">
        <ele>140</ele>
        <time>2015-07-19T21:11:32Z</time>
      </trkpt>
      <trkpt lat="37.382009" lon="-122.228046">
        <ele>139.9</ele>
        <time>2015-07-19T21:11:33Z</time>
      </trkpt>
      <trkpt lat="37.382054" lon="-122.228126">
        <ele>139.8</ele>
        <time>2015-07-19T21:11:34Z</time>
      </trkpt>
      <trkpt lat="37.382115" lon="-122.228205">
        <ele>139.8</ele>
        <time>2015-07-19T21:11:35Z</time>
      </trkpt>
      <trkpt lat="37.38218" lon="-122.228277">
        <ele>139.9</ele>
        <time>2015-07-19T21:11:36Z</time>
      </trkpt>
      <trkpt lat="37.382236" lon="-122.228363">
        <ele>139.8</ele>
        <time>2015-07-19T21:11:37Z</time>
      </trkpt>
      <trkpt lat="37.382283" lon="-122.228438">
        <ele>139.7</ele>
        <time>2015-07-19T21:11:38Z</time>
      </trkpt>
      <trkpt lat="37.382334" lon="-122.228528">
        <ele>139.7</ele>
        <time>2015-07-19T21:11:39Z</time>
      </trkpt>
      <trkpt lat="37.382386" lon="-122.228613">
        <ele>139.7</ele>
        <time>2015-07-19T21:11:40Z</time>
      </trkpt>
      <trkpt lat="37.382431" lon="-122.228699">
        <ele>139.5</ele>
        <time>2015-07-19T21:11:41Z</time>
      </trkpt>
      <trkpt lat="37.382471" lon="-122.228789">
        <ele>139.1</ele>
        <time>2015-07-19T21:11:42Z</time>
      </trkpt>
      <trkpt lat="37.382512" lon="-122.228877">
        <ele>138.7</ele>
        <time>2015-07-19T21:11:43Z</time>
      </trkpt>
      <trkpt lat="37.382539" lon="-122.228945">
        <ele>138.5</ele>
        <time>2015-07-19T21:11:44Z</time>
      </trkpt>
      <trkpt lat="37.382569" lon="-122.229072">
        <ele>138</ele>
        <time>2015-07-19T21:11:45Z</time>
      </trkpt>
      <trkpt lat="37.382605" lon="-122.229164">
        <ele>137.7</ele>
        <time>2015-07-19T21:11:46Z</time>
      </trkpt>
      <trkpt lat="37.382628" lon="-122.229257">
        <ele>137.4</ele>
        <time>2015-07-19T21:11:47Z</time>
      </trkpt>
      <trkpt lat="37.382648" lon="-122.229354">
        <ele>137.2</ele>
        <time>2015-07-19T21:11:49Z</time>
      </trkpt>
      <trkpt lat="37.382683" lon="-122.229528">
        <ele>136.8</ele>
        <time>2015-07-19T21:11:50Z</time>
      </trkpt>
      <trkpt lat="37.382696" lon="-122.229633">
        <ele>136.6</ele>
        <time>2015-07-19T21:11:51Z</time>
      </trkpt>
      <trkpt lat="37.382701" lon="-122.229734">
        <ele>136.4</ele>
        <time>2015-07-19T21:11:52Z</time>
      </trkpt>
      <trkpt lat="37.382708" lon="-122.229857">
        <ele>136.1</ele>
        <time>2015-07-19T21:11:53Z</time>
      </trkpt>
      <trkpt lat="37.382715" lon="-122.229939">
        <ele>135.9</ele>
        <time>2015-07-19T21:11:54Z</time>
      </trkpt>
      <trkpt lat="37.38272" lon="-122.230049">
        <ele>135.6</ele>
        <time>2015-07-19T21:11:55Z</time>
      </trkpt>
      <trkpt lat="37.382744" lon="-122.230157">
        <ele>135.4</ele>
        <time>2015-07-19T21:11:56Z</time>
      </trkpt>
      <trkpt lat="37.382752" lon="-122.230267">
        <ele>135.2</ele>
        <time>2015-07-19T21:11:57Z</time>
      </trkpt>
      <trkpt lat="37.382774" lon="-122.230375">
        <ele>135.1</ele>
        <time>2015-07-19T21:11:58Z</time>
      </trkpt>
      <trkpt lat="37.382798" lon="-122.230457">
        <ele>135</ele>
        <time>2015-07-19T21:11:59Z</time>
      </trkpt>
      <trkpt lat="37.382824" lon="-122.230568">
        <ele>134.8</ele>
        <time>2015-07-19T21:12:00Z</time>
      </trkpt>
      <trkpt lat="37.382838" lon="-122.230668">
        <ele>134.5</ele>
        <time>2015-07-19T21:12:01Z</time>
      </trkpt>
      <trkpt lat="37.38285" lon="-122.230769">
        <ele>134.3</ele>
        <time>2015-07-19T21:12:02Z</time>
      </trkpt>
      <trkpt lat="37.382856" lon="-122.2309">
        <ele>134.3</ele>
        <time>2015-07-19T21:12:03Z</time>
      </trkpt>
      <trkpt lat="37.38286" lon="-122.231005">
        <ele>134.4</ele>
        <time>2015-07-19T21:12:04Z</time>
      </trkpt>
      <trkpt lat="37.382874" lon="-122.231129">
        <ele>134.4</ele>
        <time>2015-07-19T21:12:05Z</time>
      </trkpt>
      <trkpt lat="37.382893" lon="-122.23123">
        <ele>134.3</ele>
        <time>2015-07-19T21:12:06Z</time>
      </trkpt>
      <trkpt lat="37.382912" lon="-122.231307">
        <ele>134.3</ele>
        <time>2015-07-19T21:12:07Z</time>
      </trkpt>
      <trkpt lat="37.382925" lon="-122.231384">
        <ele>134.3</ele>
        <time>2015-07-19T21:12:08Z</time>
      </trkpt>
      <trkpt lat="37.38293" lon="-122.231483">
        <ele>134.5</ele>
        <time>2015-07-19T21:12:09Z</time>
      </trkpt>
      <trkpt lat="37.38295" lon="-122.231568">
        <ele>134.5</ele>
        <time>2015-07-19T21:12:10Z</time>
      </trkpt>
      <trkpt lat="37.382971" lon="-122.23167">
        <ele>134.4</ele>
        <time>2015-07-19T21:12:11Z</time>
      </trkpt>
      <trkpt lat="37.382992" lon="-122.231773">
        <ele>134.3</ele>
        <time>2015-07-19T21:12:12Z</time>
      </trkpt>
      <trkpt lat="37.38301" lon="-122.231894">
        <ele>134.2</ele>
        <time>2015-07-19T21:12:13Z</time>
      </trkpt>
      <trkpt lat="37.383036" lon="-122.231983">
        <ele>134</ele>
        <time>2015-07-19T21:12:14Z</time>
      </trkpt>
      <trkpt lat="37.383067" lon="-122.232063">
        <ele>133.8</ele>
        <time>2015-07-19T21:12:15Z</time>
      </trkpt>
      <trkpt lat="37.383085" lon="-122.232159">
        <ele>133.5</ele>
        <time>2015-07-19T21:12:16Z</time>
      </trkpt>
      <trkpt lat="37.383102" lon="-122.232248">
        <ele>133.4</ele>
        <time>2015-07-19T21:12:17Z</time>
      </trkpt>
      <trkpt lat="37.383122" lon="-122.23234">
        <ele>133.2</ele>
        <time>2015-07-19T21:12:18Z</time>
      </trkpt>
      <trkpt lat="37.383143" lon="-122.232446">
        <ele>133.1</ele>
        <time>2015-07-19T21:12:19Z</time>
      </trkpt>
      <trkpt lat="37.383172" lon="-122.232547">
        <ele>133.1</ele>
        <time>2015-07-19T21:12:20Z</time>
      </trkpt>
      <trkpt lat="37.383193" lon="-122.232632">
        <ele>133.1</ele>
        <time>2015-07-19T21:12:21Z</time>
      </trkpt>
      <trkpt lat="37.383211" lon="-122.232711">
        <ele>133.2</ele>
        <time>2015-07-19T21:12:22Z</time>
      </trkpt>
      <trkpt lat="37.383234" lon="-122.232811">
        <ele>133.3</ele>
        <time>2015-07-19T21:12:23Z</time>
      </trkpt>
      <trkpt lat="37.383268" lon="-122.232915">
        <ele>133.5</ele>
        <time>2015-07-19T21:12:24Z</time>
      </trkpt>
      <trkpt lat="37.383277" lon="-122.233013">
        <ele>133.8</ele>
        <time>2015-07-19T21:12:25Z</time>
      </trkpt>
      <trkpt lat="37.3833" lon="-122.233092">
        <ele>134</ele>
        <time>2015-07-19T21:12:26Z</time>
      </trkpt>
      <trkpt lat="37.383333" lon="-122.233184">
        <ele>134.1</ele>
        <time>2015-07-19T21:12:27Z</time>
      </trkpt>
      <trkpt lat="37.383343" lon="-122.233285">
        <ele>134.3</ele>
        <time>2015-07-19T21:12:28Z</time>
      </trkpt>
      <trkpt lat="37.383366" lon="-122.233382">
        <ele>134.5</ele>
        <time>2015-07-19T21:12:29Z</time>
      </trkpt>
      <trkpt lat="37.38339" lon="-122.233463">
        <ele>134.6</ele>
        <time>2015-07-19T21:12:30Z</time>
      </trkpt>
      <trkpt lat="37.383406" lon="-122.233532">
        <ele>134.6</ele>
        <time>2015-07-19T21:12:31Z</time>
      </trkpt>
      <trkpt lat="37.383438" lon="-122.23362">
        <ele>134.7</ele>
        <time>2015-07-19T21:12:32Z</time>
      </trkpt>
      <trkpt lat="37.383468" lon="-122.233683">
        <ele>134.9</ele>
        <time>2015-07-19T21:12:33Z</time>
      </trkpt>
      <trkpt lat="37.383497" lon="-122.233755">
        <ele>135.3</ele>
        <time>2015-07-19T21:12:34Z</time>
      </trkpt>
      <trkpt lat="37.383527" lon="-122.233815">
        <ele>135.7</ele>
        <time>2015-07-19T21:12:35Z</time>
      </trkpt>
      <trkpt lat="37.383582" lon="-122.233908">
        <ele>136.2</ele>
        <time>2015-07-19T21:12:36Z</time>
      </trkpt>
      <trkpt lat="37.38362" lon="-122.233981">
        <ele>136.5</ele>
        <time>2015-07-19T21:12:37Z</time>
      </trkpt>
      <trkpt lat="37.383665" lon="-122.234042">
        <ele>136.7</ele>
        <time>2015-07-19T21:12:38Z</time>
      </trkpt>
      <trkpt lat="37.383721" lon="-122.23409">
        <ele>136.8</ele>
        <time>2015-07-19T21:12:39Z</time>
      </trkpt>
      <trkpt lat="37.383787" lon="-122.234158">
        <ele>136.9</ele>
        <time>2015-07-19T21:12:40Z</time>
      </trkpt>
      <trkpt lat="37.38383" lon="-122.234215">
        <ele>137</ele>
        <time>2015-07-19T21:12:41Z</time>
      </trkpt>
      <trkpt lat="37.383882" lon="-122.234276">
        <ele>137.2</ele>
        <time>2015-07-19T21:12:42Z</time>
      </trkpt>
      <trkpt lat="37.383931" lon="-122.234324">
        <ele>137.3</ele>
        <time>2015-07-19T21:12:43Z</time>
      </trkpt>
      <trkpt lat="37.383972" lon="-122.234362">
        <ele>137.3</ele>
        <time>2015-07-19T21:12:44Z</time>
      </trkpt>
      <trkpt lat="37.384011" lon="-122.234418">
        <ele>137.4</ele>
        <time>2015-07-19T21:12:45Z</time>
      </trkpt>
      <trkpt lat="37.384056" lon="-122.234476">
        <ele>137.5</ele>
        <time>2015-07-19T21:12:46Z</time>
      </trkpt>
      <trkpt lat="37.384138" lon="-122.234593">
        <ele>137.6</ele>
        <time>2015-07-19T21:12:48Z</time>
      </trkpt>
      <trkpt lat="37.384207" lon="-122.234679">
        <ele>137.6</ele>
        <time>2015-07-19T21:12:50Z</time>
      </trkpt>
      <trkpt lat="37.384243" lon="-122.234732">
        <ele>137.7</ele>
        <time>2015-07-19T21:12:51Z</time>
      </trkpt>
      <trkpt lat="37.384282" lon="-122.234783">
        <ele>137.8</ele>
        <time>2015-07-19T21:12:52Z</time>
      </trkpt>
      <trkpt lat="37.384329" lon="-122.234827">
        <ele>137.6</ele>
        <time>2015-07-19T21:12:53Z</time>
      </trkpt>
      <trkpt lat="37.384386" lon="-122.234859">
        <ele>137.3</ele>
        <time>2015-07-19T21:12:54Z</time>
      </trkpt>
      <trkpt lat="37.384438" lon="-122.234901">
        <ele>137.2</ele>
        <time>2015-07-19T21:12:55Z</time>
      </trkpt>
      <trkpt lat="37.384502" lon="-122.23496">
        <ele>137.2</ele>
        <time>2015-07-19T21:12:56Z</time>
      </trkpt>
      <trkpt lat="37.384548" lon="-122.234995">
        <ele>137.1</ele>
        <time>2015-07-19T21:12:57Z</time>
      </trkpt>
      <trkpt lat="37.384598" lon="-122.23505">
        <ele>137.2</ele>
        <time>2015-07-19T21:12:58Z</time>
      </trkpt>
      <trkpt lat="37.384652" lon="-122.235121">
        <ele>137.3</ele>
        <time>2015-07-19T21:12:59Z</time>
      </trkpt>
      <trkpt lat="37.384703" lon="-122.235177">
        <ele>137.3</ele>
        <time>2015-07-19T21:13:00Z</time>
      </trkpt>
      <trkpt lat="37.384746" lon="-122.235232">
        <ele>137.2</ele>
        <time>2015-07-19T21:13:01Z</time>
      </trkpt>
      <trkpt lat="37.384798" lon="-122.235286">
        <ele>136.9</ele>
        <time>2015-07-19T21:13:02Z</time>
      </trkpt>
      <trkpt lat="37.384826" lon="-122.235311">
        <ele>136.6</ele>
        <time>2015-07-19T21:13:03Z</time>
      </trkpt>
      <trkpt lat="37.385" lon="-122.235487">
        <ele>134.7</ele>
        <time>2015-07-19T21:13:06Z</time>
      </trkpt>
      <trkpt lat="37.385054" lon="-122.235546">
        <ele>134.6</ele>
        <time>2015-07-19T21:13:07Z</time>
      </trkpt>
      <trkpt lat="37.38511" lon="-122.23561">
        <ele>134.7</ele>
        <time>2015-07-19T21:13:08Z</time>
      </trkpt>
      <trkpt lat="37.385165" lon="-122.235652">
        <ele>134.6</ele>
        <time>2015-07-19T21:13:09Z</time>
      </trkpt>
      <trkpt lat="37.385213" lon="-122.235713">
        <ele>134.8</ele>
        <time>2015-07-19T21:13:10Z</time>
      </trkpt>
      <trkpt lat="37.385271" lon="-122.235771">
        <ele>134.9</ele>
        <time>2015-07-19T21:13:11Z</time>
      </trkpt>
      <trkpt lat="37.385335" lon="-122.235822">
        <ele>135</ele>
        <time>2015-07-19T21:13:12Z</time>
      </trkpt>
      <trkpt lat="37.385395" lon="-122.235884">
        <ele>135.1</ele>
        <time>2015-07-19T21:13:13Z</time>
      </trkpt>
      <trkpt lat="37.385452" lon="-122.235933">
        <ele>134.9</ele>
        <time>2015-07-19T21:13:14Z</time>
      </trkpt>
      <trkpt lat="37.385509" lon="-122.235994">
        <ele>134.8</ele>
        <time>2015-07-19T21:13:15Z</time>
      </trkpt>
      <trkpt lat="37.385569" lon="-122.236053">
        <ele>134.7</ele>
        <time>2015-07-19T21:13:16Z</time>
      </trkpt>
      <trkpt lat="37.38563" lon="-122.236097">
        <ele>134.6</ele>
        <time>2015-07-19T21:13:17Z</time>
      </trkpt>
      <trkpt lat="37.385692" lon="-122.236154">
        <ele>134.5</ele>
        <time>2015-07-19T21:13:18Z</time>
      </trkpt>
      <trkpt lat="37.38576" lon="-122.236212">
        <ele>134.3</ele>
        <time>2015-07-19T21:13:19Z</time>
      </trkpt>
      <trkpt lat="37.38582" lon="-122.236262">
        <ele>134</ele>
        <time>2015-07-19T21:13:20Z</time>
      </trkpt>
      <trkpt lat="37.385885" lon="-122.236318">
        <ele>133.8</ele>
        <time>2015-07-19T21:13:21Z</time>
      </trkpt>
      <trkpt lat="37.385957" lon="-122.236371">
        <ele>133.5</ele>
        <time>2015-07-19T21:13:22Z</time>
      </trkpt>
      <trkpt lat="37.38601" lon="-122.236427">
        <ele>133.3</ele>
        <time>2015-07-19T21:13:23Z</time>
      </trkpt>
      <trkpt lat="37.386069" lon="-122.236473">
        <ele>133.2</ele>
        <time>2015-07-19T21:13:24Z</time>
      </trkpt>
      <trkpt lat="37.386136" lon="-122.236539">
        <ele>133.2</ele>
        <time>2015-07-19T21:13:25Z</time>
      </trkpt>
      <trkpt lat="37.386204" lon="-122.236582">
        <ele>133.1</ele>
        <time>2015-07-19T21:13:26Z</time>
      </trkpt>
      <trkpt lat="37.386271" lon="-122.236642">
        <ele>133</ele>
        <time>2015-07-19T21:13:27Z</time>
      </trkpt>
      <trkpt lat="37.386338" lon="-122.236691">
        <ele>132.8</ele>
        <time>2015-07-19T21:13:28Z</time>
      </trkpt>
      <trkpt lat="37.386397" lon="-122.236744">
        <ele>132.7</ele>
        <time>2015-07-19T21:13:29Z</time>
      </trkpt>
      <trkpt lat="37.386476" lon="-122.236804">
        <ele>132.5</ele>
        <time>2015-07-19T21:13:30Z</time>
      </trkpt>
      <trkpt lat="37.386556" lon="-122.236873">
        <ele>132.6</ele>
        <time>2015-07-19T21:13:31Z</time>
      </trkpt>
      <trkpt lat="37.386623" lon="-122.236926">
        <ele>131.9</ele>
        <time>2015-07-19T21:13:32Z</time>
      </trkpt>
      <trkpt lat="37.386708" lon="-122.236979">
        <ele>131.6</ele>
        <time>2015-07-19T21:13:33Z</time>
      </trkpt>
      <trkpt lat="37.386774" lon="-122.237032">
        <ele>131.5</ele>
        <time>2015-07-19T21:13:34Z</time>
      </trkpt>
      <trkpt lat="37.386835" lon="-122.237073">
        <ele>131.3</ele>
        <time>2015-07-19T21:13:35Z</time>
      </trkpt>
      <trkpt lat="37.386886" lon="-122.237122">
        <ele>131.2</ele>
        <time>2015-07-19T21:13:36Z</time>
      </trkpt>
      <trkpt lat="37.38695" lon="-122.237183">
        <ele>131</ele>
        <time>2015-07-19T21:13:37Z</time>
      </trkpt>
      <trkpt lat="37.387011" lon="-122.237214">
        <ele>131</ele>
        <time>2015-07-19T21:13:38Z</time>
      </trkpt>
      <trkpt lat="37.387078" lon="-122.237279">
        <ele>130.8</ele>
        <time>2015-07-19T21:13:39Z</time>
      </trkpt>
      <trkpt lat="37.387142" lon="-122.237355">
        <ele>130.8</ele>
        <time>2015-07-19T21:13:40Z</time>
      </trkpt>
      <trkpt lat="37.387223" lon="-122.23743">
        <ele>130.5</ele>
        <time>2015-07-19T21:13:41Z</time>
      </trkpt>
      <trkpt lat="37.387296" lon="-122.237504">
        <ele>130.4</ele>
        <time>2015-07-19T21:13:42Z</time>
      </trkpt>
      <trkpt lat="37.38736" lon="-122.237551">
        <ele>130.1</ele>
        <time>2015-07-19T21:13:43Z</time>
      </trkpt>
      <trkpt lat="37.387449" lon="-122.237593">
        <ele>130</ele>
        <time>2015-07-19T21:13:44Z</time>
      </trkpt>
      <trkpt lat="37.387534" lon="-122.237653">
        <ele>129.8</ele>
        <time>2015-07-19T21:13:45Z</time>
      </trkpt>
      <trkpt lat="37.38761" lon="-122.237697">
        <ele>129.7</ele>
        <time>2015-07-19T21:13:46Z</time>
      </trkpt>
      <trkpt lat="37.387688" lon="-122.237758">
        <ele>129.5</ele>
        <time>2015-07-19T21:13:47Z</time>
      </trkpt>
      <trkpt lat="37.387746" lon="-122.237808">
        <ele>129.4</ele>
        <time>2015-07-19T21:13:48Z</time>
      </trkpt>
      <trkpt lat="37.387829" lon="-122.237858">
        <ele>129.2</ele>
        <time>2015-07-19T21:13:49Z</time>
      </trkpt>
      <trkpt lat="37.387909" lon="-122.237909">
        <ele>129</ele>
        <time>2015-07-19T21:13:50Z</time>
      </trkpt>
      <trkpt lat="37.387972" lon="-122.237965">
        <ele>128.8</ele>
        <time>2015-07-19T21:13:51Z</time>
      </trkpt>
      <trkpt lat="37.388042" lon="-122.238025">
        <ele>128.7</ele>
        <time>2015-07-19T21:13:52Z</time>
      </trkpt>
      <trkpt lat="37.388127" lon="-122.238091">
        <ele>128.5</ele>
        <time>2015-07-19T21:13:53Z</time>
      </trkpt>
      <trkpt lat="37.388193" lon="-122.23814">
        <ele>128.4</ele>
        <time>2015-07-19T21:13:54Z</time>
      </trkpt>
      <trkpt lat="37.388273" lon="-122.238215">
        <ele>128.2</ele>
        <time>2015-07-19T21:13:55Z</time>
      </trkpt>
      <trkpt lat="37.388338" lon="-122.238273">
        <ele>128.1</ele>
        <time>2015-07-19T21:13:56Z</time>
      </trkpt>
      <trkpt lat="37.388407" lon="-122.238323">
        <ele>127.9</ele>
        <time>2015-07-19T21:13:57Z</time>
      </trkpt>
      <trkpt lat="37.388483" lon="-122.23838">
        <ele>127.7</ele>
        <time>2015-07-19T21:13:58Z</time>
      </trkpt>
      <trkpt lat="37.388551" lon="-122.238438">
        <ele>127.5</ele>
        <time>2015-07-19T21:13:59Z</time>
      </trkpt>
      <trkpt lat="37.388621" lon="-122.238477">
        <ele>127.4</ele>
        <time>2015-07-19T21:14:00Z</time>
      </trkpt>
      <trkpt lat="37.388691" lon="-122.23852">
        <ele>127.1</ele>
        <time>2015-07-19T21:14:01Z</time>
      </trkpt>
      <trkpt lat="37.388758" lon="-122.238584">
        <ele>127.1</ele>
        <time>2015-07-19T21:14:02Z</time>
      </trkpt>
      <trkpt lat="37.38882" lon="-122.23863">
        <ele>126.9</ele>
        <time>2015-07-19T21:14:03Z</time>
      </trkpt>
      <trkpt lat="37.388879" lon="-122.238702">
        <ele>126.8</ele>
        <time>2015-07-19T21:14:04Z</time>
      </trkpt>
      <trkpt lat="37.388961" lon="-122.238755">
        <ele>126.6</ele>
        <time>2015-07-19T21:14:05Z</time>
      </trkpt>
      <trkpt lat="37.38903" lon="-122.238806">
        <ele>126.5</ele>
        <time>2015-07-19T21:14:06Z</time>
      </trkpt>
      <trkpt lat="37.389093" lon="-122.238849">
        <ele>126.2</ele>
        <time>2015-07-19T21:14:07Z</time>
      </trkpt>
      <trkpt lat="37.389167" lon="-122.238911">
        <ele>126.2</ele>
        <time>2015-07-19T21:14:08Z</time>
      </trkpt>
      <trkpt lat="37.38925" lon="-122.23897">
        <ele>126</ele>
        <time>2015-07-19T21:14:09Z</time>
      </trkpt>
      <trkpt lat="37.389316" lon="-122.239019">
        <ele>126</ele>
        <time>2015-07-19T21:14:10Z</time>
      </trkpt>
      <trkpt lat="37.389383" lon="-122.239069">
        <ele>125.8</ele>
        <time>2015-07-19T21:14:11Z</time>
      </trkpt>
      <trkpt lat="37.389468" lon="-122.23912">
        <ele>125.7</ele>
        <time>2015-07-19T21:14:12Z</time>
      </trkpt>
      <trkpt lat="37.389544" lon="-122.239187">
        <ele>125.5</ele>
        <time>2015-07-19T21:14:13Z</time>
      </trkpt>
      <trkpt lat="37.389603" lon="-122.239233">
        <ele>125.4</ele>
        <time>2015-07-19T21:14:14Z</time>
      </trkpt>
      <trkpt lat="37.389673" lon="-122.239285">
        <ele>125.3</ele>
        <time>2015-07-19T21:14:15Z</time>
      </trkpt>
      <trkpt lat="37.389744" lon="-122.239334">
        <ele>125.1</ele>
        <time>2015-07-19T21:14:16Z</time>
      </trkpt>
      <trkpt lat="37.389821" lon="-122.239396">
        <ele>125</ele>
        <time>2015-07-19T21:14:17Z</time>
      </trkpt>
      <trkpt lat="37.389888" lon="-122.239445">
        <ele>124.8</ele>
        <time>2015-07-19T21:14:18Z</time>
      </trkpt>
      <trkpt lat="37.38995" lon="-122.239493">
        <ele>124.6</ele>
        <time>2015-07-19T21:14:19Z</time>
      </trkpt>
      <trkpt lat="37.390016" lon="-122.239549">
        <ele>124.5</ele>
        <time>2015-07-19T21:14:20Z</time>
      </trkpt>
      <trkpt lat="37.390084" lon="-122.239597">
        <ele>124.5</ele>
        <time>2015-07-19T21:14:21Z</time>
      </trkpt>
      <trkpt lat="37.390144" lon="-122.239646">
        <ele>124.3</ele>
        <time>2015-07-19T21:14:22Z</time>
      </trkpt>
      <trkpt lat="37.390207" lon="-122.2397">
        <ele>124.2</ele>
        <time>2015-07-19T21:14:23Z</time>
      </trkpt>
      <trkpt lat="37.390274" lon="-122.239748">
        <ele>124.2</ele>
        <time>2015-07-19T21:14:24Z</time>
      </trkpt>
      <trkpt lat="37.390344" lon="-122.239807">
        <ele>124</ele>
        <time>2015-07-19T21:14:25Z</time>
      </trkpt>
      <trkpt lat="37.390406" lon="-122.239851">
        <ele>123.9</ele>
        <time>2015-07-19T21:14:26Z</time>
      </trkpt>
      <trkpt lat="37.390461" lon="-122.239904">
        <ele>123.8</ele>
        <time>2015-07-19T21:14:27Z</time>
      </trkpt>
      <trkpt lat="37.390525" lon="-122.23996">
        <ele>123.6</ele>
        <time>2015-07-19T21:14:28Z</time>
      </trkpt>
      <trkpt lat="37.390598" lon="-122.24005">
        <ele>123.4</ele>
        <time>2015-07-19T21:14:29Z</time>
      </trkpt>
      <trkpt lat="37.390667" lon="-122.240103">
        <ele>123.4</ele>
        <time>2015-07-19T21:14:30Z</time>
      </trkpt>
      <trkpt lat="37.390734" lon="-122.240169">
        <ele>123.1</ele>
        <time>2015-07-19T21:14:31Z</time>
      </trkpt>
      <trkpt lat="37.390792" lon="-122.240223">
        <ele>123.1</ele>
        <time>2015-07-19T21:14:32Z</time>
      </trkpt>
      <trkpt lat="37.390865" lon="-122.240302">
        <ele>122.8</ele>
        <time>2015-07-19T21:14:33Z</time>
      </trkpt>
      <trkpt lat="37.390929" lon="-122.240369">
        <ele>122.7</ele>
        <time>2015-07-19T21:14:34Z</time>
      </trkpt>
      <trkpt lat="37.390986" lon="-122.240438">
        <ele>122.6</ele>
        <time>2015-07-19T21:14:35Z</time>
      </trkpt>
      <trkpt lat="37.391048" lon="-122.240525">
        <ele>122.4</ele>
        <time>2015-07-19T21:14:36Z</time>
      </trkpt>
      <trkpt lat="37.391076" lon="-122.240556">
        <ele>122.3</ele>
        <time>2015-07-19T21:14:37Z</time>
      </trkpt>
      <trkpt lat="37.39116" lon="-122.240651">
        <ele>122.1</ele>
        <time>2015-07-19T21:14:38Z</time>
      </trkpt>
      <trkpt lat="37.391219" lon="-122.240736">
        <ele>121.8</ele>
        <time>2015-07-19T21:14:39Z</time>
      </trkpt>
      <trkpt lat="37.391275" lon="-122.240808">
        <ele>121.8</ele>
        <time>2015-07-19T21:14:40Z</time>
      </trkpt>
      <trkpt lat="37.39134" lon="-122.240883">
        <ele>121.6</ele>
        <time>2015-07-19T21:14:41Z</time>
      </trkpt>
      <trkpt lat="37.391398" lon="-122.240957">
        <ele>121.4</ele>
        <time>2015-07-19T21:14:42Z</time>
      </trkpt>
      <trkpt lat="37.391467" lon="-122.241032">
        <ele>121.2</ele>
        <time>2015-07-19T21:14:43Z</time>
      </trkpt>
      <trkpt lat="37.391527" lon="-122.241121">
        <ele>121.3</ele>
        <time>2015-07-19T21:14:44Z</time>
      </trkpt>
      <trkpt lat="37.391581" lon="-122.241194">
        <ele>121</ele>
        <time>2015-07-19T21:14:45Z</time>
      </trkpt>
      <trkpt lat="37.391641" lon="-122.241274">
        <ele>120.9</ele>
        <time>2015-07-19T21:14:46Z</time>
      </trkpt>
      <trkpt lat="37.391695" lon="-122.241348">
        <ele>120.8</ele>
        <time>2015-07-19T21:14:47Z</time>
      </trkpt>
      <trkpt lat="37.391758" lon="-122.241436">
        <ele>120.5</ele>
        <time>2015-07-19T21:14:48Z</time>
      </trkpt>
      <trkpt lat="37.391815" lon="-122.241512">
        <ele>120.4</ele>
        <time>2015-07-19T21:14:49Z</time>
      </trkpt>
      <trkpt lat="37.391868" lon="-122.241564">
        <ele>120.3</ele>
        <time>2015-07-19T21:14:50Z</time>
      </trkpt>
      <trkpt lat="37.391931" lon="-122.24164">
        <ele>120.2</ele>
        <time>2015-07-19T21:14:51Z</time>
      </trkpt>
      <trkpt lat="37.391981" lon="-122.241708">
        <ele>120</ele>
        <time>2015-07-19T21:14:52Z</time>
      </trkpt>
      <trkpt lat="37.392047" lon="-122.241791">
        <ele>119.9</ele>
        <time>2015-07-19T21:14:53Z</time>
      </trkpt>
      <trkpt lat="37.392093" lon="-122.24185">
        <ele>119.8</ele>
        <time>2015-07-19T21:14:54Z</time>
      </trkpt>
      <trkpt lat="37.392159" lon="-122.241919">
        <ele>119.6</ele>
        <time>2015-07-19T21:14:55Z</time>
      </trkpt>
      <trkpt lat="37.392214" lon="-122.241998">
        <ele>119.4</ele>
        <time>2015-07-19T21:14:56Z</time>
      </trkpt>
      <trkpt lat="37.392269" lon="-122.242067">
        <ele>119.2</ele>
        <time>2015-07-19T21:14:57Z</time>
      </trkpt>
      <trkpt lat="37.392331" lon="-122.242144">
        <ele>119.2</ele>
        <time>2015-07-19T21:14:58Z</time>
      </trkpt>
      <trkpt lat="37.392393" lon="-122.242221">
        <ele>119</ele>
        <time>2015-07-19T21:14:59Z</time>
      </trkpt>
      <trkpt lat="37.392458" lon="-122.242336">
        <ele>119</ele>
        <time>2015-07-19T21:15:00Z</time>
      </trkpt>
      <trkpt lat="37.392516" lon="-122.242416">
        <ele>118.8</ele>
        <time>2015-07-19T21:15:01Z</time>
      </trkpt>
      <trkpt lat="37.39255" lon="-122.242488">
        <ele>118.7</ele>
        <time>2015-07-19T21:15:02Z</time>
      </trkpt>
      <trkpt lat="37.392621" lon="-122.242572">
        <ele>118.6</ele>
        <time>2015-07-19T21:15:03Z</time>
      </trkpt>
      <trkpt lat="37.392679" lon="-122.242639">
        <ele>118.4</ele>
        <time>2015-07-19T21:15:04Z</time>
      </trkpt>
      <trkpt lat="37.392736" lon="-122.242715">
        <ele>118.3</ele>
        <time>2015-07-19T21:15:05Z</time>
      </trkpt>
      <trkpt lat="37.39278" lon="-122.242791">
        <ele>118.2</ele>
        <time>2015-07-19T21:15:06Z</time>
      </trkpt>
      <trkpt lat="37.392844" lon="-122.242875">
        <ele>118</ele>
        <time>2015-07-19T21:15:07Z</time>
      </trkpt>
      <trkpt lat="37.392902" lon="-122.242952">
        <ele>117.9</ele>
        <time>2015-07-19T21:15:08Z</time>
      </trkpt>
      <trkpt lat="37.392952" lon="-122.243038">
        <ele>117.8</ele>
        <time>2015-07-19T21:15:09Z</time>
      </trkpt>
      <trkpt lat="37.393006" lon="-122.243105">
        <ele>117.6</ele>
        <time>2015-07-19T21:15:10Z</time>
      </trkpt>
      <trkpt lat="37.393049" lon="-122.243186">
        <ele>117.5</ele>
        <time>2015-07-19T21:15:11Z</time>
      </trkpt>
      <trkpt lat="37.393099" lon="-122.243276">
        <ele>117.3</ele>
        <time>2015-07-19T21:15:12Z</time>
      </trkpt>
      <trkpt lat="37.393145" lon="-122.243345">
        <ele>117.2</ele>
        <time>2015-07-19T21:15:13Z</time>
      </trkpt>
      <trkpt lat="37.393184" lon="-122.243447">
        <ele>117.1</ele>
        <time>2015-07-19T21:15:14Z</time>
      </trkpt>
      <trkpt lat="37.393225" lon="-122.243496">
        <ele>117</ele>
        <time>2015-07-19T21:15:15Z</time>
      </trkpt>
      <trkpt lat="37.393279" lon="-122.24355">
        <ele>117</ele>
        <time>2015-07-19T21:15:16Z</time>
      </trkpt>
      <trkpt lat="37.393325" lon="-122.243663">
        <ele>116.9</ele>
        <time>2015-07-19T21:15:17Z</time>
      </trkpt>
      <trkpt lat="37.393362" lon="-122.243684">
        <ele>116.9</ele>
        <time>2015-07-19T21:15:18Z</time>
      </trkpt>
      <trkpt lat="37.393415" lon="-122.243782">
        <ele>116.9</ele>
        <time>2015-07-19T21:15:19Z</time>
      </trkpt>
      <trkpt lat="37.393438" lon="-122.243854">
        <ele>116.8</ele>
        <time>2015-07-19T21:15:20Z</time>
      </trkpt>
      <trkpt lat="37.393472" lon="-122.243944">
        <ele>117</ele>
        <time>2015-07-19T21:15:21Z</time>
      </trkpt>
      <trkpt lat="37.393522" lon="-122.244052">
        <ele>117.2</ele>
        <time>2015-07-19T21:15:22Z</time>
      </trkpt>
      <trkpt lat="37.393572" lon="-122.244107">
        <ele>117.1</ele>
        <time>2015-07-19T21:15:23Z</time>
      </trkpt>
      <trkpt lat="37.393626" lon="-122.244179">
        <ele>117</ele>
        <time>2015-07-19T21:15:24Z</time>
      </trkpt>
      <trkpt lat="37.393685" lon="-122.244243">
        <ele>117.1</ele>
        <time>2015-07-19T21:15:25Z</time>
      </trkpt>
      <trkpt lat="37.393736" lon="-122.244294">
        <ele>117.1</ele>
        <time>2015-07-19T21:15:26Z</time>
      </trkpt>
      <trkpt lat="37.393783" lon="-122.244349">
        <ele>117.2</ele>
        <time>2015-07-19T21:15:27Z</time>
      </trkpt>
      <trkpt lat="37.39381" lon="-122.2444">
        <ele>117.3</ele>
        <time>2015-07-19T21:15:28Z</time>
      </trkpt>
      <trkpt lat="37.393853" lon="-122.244466">
        <ele>117.3</ele>
        <time>2015-07-19T21:15:29Z</time>
      </trkpt>
      <trkpt lat="37.393893" lon="-122.244543">
        <ele>117.4</ele>
        <time>2015-07-19T21:15:30Z</time>
      </trkpt>
      <trkpt lat="37.393956" lon="-122.244607">
        <ele>117.4</ele>
        <time>2015-07-19T21:15:31Z</time>
      </trkpt>
      <trkpt lat="37.394004" lon="-122.244679">
        <ele>117.4</ele>
        <time>2015-07-19T21:15:32Z</time>
      </trkpt>
      <trkpt lat="37.394051" lon="-122.244752">
        <ele>117.5</ele>
        <time>2015-07-19T21:15:33Z</time>
      </trkpt>
      <trkpt lat="37.394108" lon="-122.24484">
        <ele>117.6</ele>
        <time>2015-07-19T21:15:34Z</time>
      </trkpt>
      <trkpt lat="37.394144" lon="-122.244897">
        <ele>117.7</ele>
        <time>2015-07-19T21:15:35Z</time>
      </trkpt>
      <trkpt lat="37.394173" lon="-122.244941">
        <ele>117.7</ele>
        <time>2015-07-19T21:15:36Z</time>
      </trkpt>
      <trkpt lat="37.394207" lon="-122.244993">
        <ele>117.7</ele>
        <time>2015-07-19T21:15:37Z</time>
      </trkpt>
      <trkpt lat="37.394241" lon="-122.245045">
        <ele>117.7</ele>
        <time>2015-07-19T21:15:38Z</time>
      </trkpt>
      <trkpt lat="37.394398" lon="-122.245293">
        <ele>117.9</ele>
        <time>2015-07-19T21:15:42Z</time>
      </trkpt>
      <trkpt lat="37.394434" lon="-122.245349">
        <ele>117.9</ele>
        <time>2015-07-19T21:15:43Z</time>
      </trkpt>
      <trkpt lat="37.394482" lon="-122.245424">
        <ele>118</ele>
        <time>2015-07-19T21:15:44Z</time>
      </trkpt>
      <trkpt lat="37.394509" lon="-122.24544">
        <ele>118</ele>
        <time>2015-07-19T21:15:45Z</time>
      </trkpt>
      <trkpt lat="37.39455" lon="-122.245531">
        <ele>118.1</ele>
        <time>2015-07-19T21:15:47Z</time>
      </trkpt>
      <trkpt lat="37.394612" lon="-122.245572">
        <ele>118</ele>
        <time>2015-07-19T21:15:48Z</time>
      </trkpt>
      <trkpt lat="37.394643" lon="-122.245621">
        <ele>118</ele>
        <time>2015-07-19T21:15:49Z</time>
      </trkpt>
      <trkpt lat="37.394675" lon="-122.245661">
        <ele>118</ele>
        <time>2015-07-19T21:15:50Z</time>
      </trkpt>
      <trkpt lat="37.394715" lon="-122.245713">
        <ele>117.9</ele>
        <time>2015-07-19T21:15:51Z</time>
      </trkpt>
      <trkpt lat="37.394751" lon="-122.245769">
        <ele>117.9</ele>
        <time>2015-07-19T21:15:52Z</time>
      </trkpt>
      <trkpt lat="37.394785" lon="-122.245818">
        <ele>117.9</ele>
        <time>2015-07-19T21:15:53Z</time>
      </trkpt>
      <trkpt lat="37.394828" lon="-122.245876">
        <ele>118</ele>
        <time>2015-07-19T21:15:54Z</time>
      </trkpt>
      <trkpt lat="37.394872" lon="-122.245945">
        <ele>118</ele>
        <time>2015-07-19T21:15:55Z</time>
      </trkpt>
      <trkpt lat="37.394916" lon="-122.245992">
        <ele>118</ele>
        <time>2015-07-19T21:15:56Z</time>
      </trkpt>
      <trkpt lat="37.394957" lon="-122.246035">
        <ele>117.9</ele>
        <time>2015-07-19T21:15:57Z</time>
      </trkpt>
      <trkpt lat="37.395013" lon="-122.246104">
        <ele>118</ele>
        <time>2015-07-19T21:15:58Z</time>
      </trkpt>
      <trkpt lat="37.395061" lon="-122.246151">
        <ele>118.2</ele>
        <time>2015-07-19T21:15:59Z</time>
      </trkpt>
      <trkpt lat="37.395118" lon="-122.246198">
        <ele>118.2</ele>
        <time>2015-07-19T21:16:00Z</time>
      </trkpt>
      <trkpt lat="37.395162" lon="-122.246241">
        <ele>118.3</ele>
        <time>2015-07-19T21:16:01Z</time>
      </trkpt>
      <trkpt lat="37.395194" lon="-122.246274">
        <ele>118.4</ele>
        <time>2015-07-19T21:16:02Z</time>
      </trkpt>
      <trkpt lat="37.395262" lon="-122.246316">
        <ele>118.5</ele>
        <time>2015-07-19T21:16:03Z</time>
      </trkpt>
      <trkpt lat="37.395293" lon="-122.246327">
        <ele>118.4</ele>
        <time>2015-07-19T21:16:04Z</time>
      </trkpt>
      <trkpt lat="37.395364" lon="-122.24636">
        <ele>118.3</ele>
        <time>2015-07-19T21:16:05Z</time>
      </trkpt>
      <trkpt lat="37.395432" lon="-122.246377">
        <ele>118.1</ele>
        <time>2015-07-19T21:16:06Z</time>
      </trkpt>
      <trkpt lat="37.395484" lon="-122.246399">
        <ele>118.1</ele>
        <time>2015-07-19T21:16:07Z</time>
      </trkpt>
      <trkpt lat="37.39555" lon="-122.24643">
        <ele>118.2</ele>
        <time>2015-07-19T21:16:08Z</time>
      </trkpt>
      <trkpt lat="37.395609" lon="-122.246444">
        <ele>118.1</ele>
        <time>2015-07-19T21:16:09Z</time>
      </trkpt>
      <trkpt lat="37.395655" lon="-122.246469">
        <ele>118.3</ele>
        <time>2015-07-19T21:16:10Z</time>
      </trkpt>
      <trkpt lat="37.395735" lon="-122.246467">
        <ele>118.1</ele>
        <time>2015-07-19T21:16:11Z</time>
      </trkpt>
      <trkpt lat="37.39579" lon="-122.246417">
        <ele>117.3</ele>
        <time>2015-07-19T21:16:12Z</time>
      </trkpt>
      <trkpt lat="37.395838" lon="-122.246393">
        <ele>116.9</ele>
        <time>2015-07-19T21:16:13Z</time>
      </trkpt>
      <trkpt lat="37.395911" lon="-122.246376">
        <ele>116.8</ele>
        <time>2015-07-19T21:16:14Z</time>
      </trkpt>
      <trkpt lat="37.396115" lon="-122.246275">
        <ele>116.5</ele>
        <time>2015-07-19T21:16:17Z</time>
      </trkpt>
      <trkpt lat="37.396173" lon="-122.246223">
        <ele>116.2</ele>
        <time>2015-07-19T21:16:18Z</time>
      </trkpt>
      <trkpt lat="37.396239" lon="-122.246182">
        <ele>115.8</ele>
        <time>2015-07-19T21:16:19Z</time>
      </trkpt>
      <trkpt lat="37.396317" lon="-122.24612">
        <ele>115.3</ele>
        <time>2015-07-19T21:16:20Z</time>
      </trkpt>
      <trkpt lat="37.39638" lon="-122.246061">
        <ele>114.8</ele>
        <time>2015-07-19T21:16:21Z</time>
      </trkpt>
      <trkpt lat="37.396455" lon="-122.245983">
        <ele>114.4</ele>
        <time>2015-07-19T21:16:22Z</time>
      </trkpt>
      <trkpt lat="37.396513" lon="-122.245923">
        <ele>114</ele>
        <time>2015-07-19T21:16:23Z</time>
      </trkpt>
      <trkpt lat="37.39658" lon="-122.245864">
        <ele>113.6</ele>
        <time>2015-07-19T21:16:24Z</time>
      </trkpt>
      <trkpt lat="37.396648" lon="-122.245799">
        <ele>113</ele>
        <time>2015-07-19T21:16:25Z</time>
      </trkpt>
      <trkpt lat="37.396716" lon="-122.24573">
        <ele>112.5</ele>
        <time>2015-07-19T21:16:26Z</time>
      </trkpt>
      <trkpt lat="37.39679" lon="-122.245668">
        <ele>112.2</ele>
        <time>2015-07-19T21:16:27Z</time>
      </trkpt>
      <trkpt lat="37.396866" lon="-122.245591">
        <ele>111.8</ele>
        <time>2015-07-19T21:16:28Z</time>
      </trkpt>
      <trkpt lat="37.396938" lon="-122.245519">
        <ele>111.3</ele>
        <time>2015-07-19T21:16:29Z</time>
      </trkpt>
      <trkpt lat="37.397011" lon="-122.245441">
        <ele>110.8</ele>
        <time>2015-07-19T21:16:30Z</time>
      </trkpt>
      <trkpt lat="37.397086" lon="-122.245348">
        <ele>110.3</ele>
        <time>2015-07-19T21:16:31Z</time>
      </trkpt>
      <trkpt lat="37.397159" lon="-122.245268">
        <ele>109.9</ele>
        <time>2015-07-19T21:16:32Z</time>
      </trkpt>
      <trkpt lat="37.397229" lon="-122.245189">
        <ele>109.5</ele>
        <time>2015-07-19T21:16:33Z</time>
      </trkpt>
      <trkpt lat="37.397304" lon="-122.245109">
        <ele>109</ele>
        <time>2015-07-19T21:16:34Z</time>
      </trkpt>
      <trkpt lat="37.397382" lon="-122.245022">
        <ele>108.6</ele>
        <time>2015-07-19T21:16:35Z</time>
      </trkpt>
      <trkpt lat="37.397463" lon="-122.244948">
        <ele>108.3</ele>
        <time>2015-07-19T21:16:36Z</time>
      </trkpt>
      <trkpt lat="37.397536" lon="-122.244869">
        <ele>108</ele>
        <time>2015-07-19T21:16:37Z</time>
      </trkpt>
      <trkpt lat="37.397603" lon="-122.244785">
        <ele>107.9</ele>
        <time>2015-07-19T21:16:38Z</time>
      </trkpt>
      <trkpt lat="37.397671" lon="-122.244712">
        <ele>107.8</ele>
        <time>2015-07-19T21:16:39Z</time>
      </trkpt>
      <trkpt lat="37.397756" lon="-122.24464">
        <ele>107.7</ele>
        <time>2015-07-19T21:16:40Z</time>
      </trkpt>
      <trkpt lat="37.397845" lon="-122.244588">
        <ele>107.5</ele>
        <time>2015-07-19T21:16:41Z</time>
      </trkpt>
      <trkpt lat="37.397916" lon="-122.244529">
        <ele>107.5</ele>
        <time>2015-07-19T21:16:42Z</time>
      </trkpt>
      <trkpt lat="37.397994" lon="-122.244473">
        <ele>107.6</ele>
        <time>2015-07-19T21:16:43Z</time>
      </trkpt>
      <trkpt lat="37.398084" lon="-122.244423">
        <ele>107.5</ele>
        <time>2015-07-19T21:16:44Z</time>
      </trkpt>
      <trkpt lat="37.398132" lon="-122.244398">
        <ele>107.6</ele>
        <time>2015-07-19T21:16:45Z</time>
      </trkpt>
      <trkpt lat="37.398249" lon="-122.244355">
        <ele>107.4</ele>
        <time>2015-07-19T21:16:46Z</time>
      </trkpt>
      <trkpt lat="37.398333" lon="-122.244315">
        <ele>107.5</ele>
        <time>2015-07-19T21:16:47Z</time>
      </trkpt>
      <trkpt lat="37.39842" lon="-122.244289">
        <ele>107.5</ele>
        <time>2015-07-19T21:16:48Z</time>
      </trkpt>
      <trkpt lat="37.398509" lon="-122.244264">
        <ele>107.6</ele>
        <time>2015-07-19T21:16:49Z</time>
      </trkpt>
      <trkpt lat="37.39859" lon="-122.24425">
        <ele>107.6</ele>
        <time>2015-07-19T21:16:50Z</time>
      </trkpt>
      <trkpt lat="37.39869" lon="-122.244251">
        <ele>107.6</ele>
        <time>2015-07-19T21:16:51Z</time>
      </trkpt>
      <trkpt lat="37.398779" lon="-122.244252">
        <ele>107.6</ele>
        <time>2015-07-19T21:16:52Z</time>
      </trkpt>
      <trkpt lat="37.398867" lon="-122.244262">
        <ele>107.6</ele>
        <time>2015-07-19T21:16:53Z</time>
      </trkpt>
      <trkpt lat="37.398944" lon="-122.244269">
        <ele>107.7</ele>
        <time>2015-07-19T21:16:54Z</time>
      </trkpt>
      <trkpt lat="37.399026" lon="-122.244294">
        <ele>107.6</ele>
        <time>2015-07-19T21:16:55Z</time>
      </trkpt>
      <trkpt lat="37.399124" lon="-122.244318">
        <ele>107.6</ele>
        <time>2015-07-19T21:16:56Z</time>
      </trkpt>
      <trkpt lat="37.399205" lon="-122.244343">
        <ele>107.6</ele>
        <time>2015-07-19T21:16:57Z</time>
      </trkpt>
      <trkpt lat="37.399277" lon="-122.244373">
        <ele>107.6</ele>
        <time>2015-07-19T21:16:58Z</time>
      </trkpt>
      <trkpt lat="37.399341" lon="-122.244403">
        <ele>107.6</ele>
        <time>2015-07-19T21:16:59Z</time>
      </trkpt>
      <trkpt lat="37.399408" lon="-122.244435">
        <ele>107.6</ele>
        <time>2015-07-19T21:17:00Z</time>
      </trkpt>
      <trkpt lat="37.399473" lon="-122.244473">
        <ele>107.5</ele>
        <time>2015-07-19T21:17:01Z</time>
      </trkpt>
      <trkpt lat="37.399548" lon="-122.244512">
        <ele>107.4</ele>
        <time>2015-07-19T21:17:02Z</time>
      </trkpt>
      <trkpt lat="37.399604" lon="-122.244549">
        <ele>107.3</ele>
        <time>2015-07-19T21:17:03Z</time>
      </trkpt>
      <trkpt lat="37.39967" lon="-122.244595">
        <ele>107.2</ele>
        <time>2015-07-19T21:17:04Z</time>
      </trkpt>
      <trkpt lat="37.399736" lon="-122.244636">
        <ele>107.1</ele>
        <time>2015-07-19T21:17:05Z</time>
      </trkpt>
      <trkpt lat="37.399787" lon="-122.244665">
        <ele>107.2</ele>
        <time>2015-07-19T21:17:06Z</time>
      </trkpt>
      <trkpt lat="37.399862" lon="-122.244708">
        <ele>107.1</ele>
        <time>2015-07-19T21:17:07Z</time>
      </trkpt>
      <trkpt lat="37.399929" lon="-122.244749">
        <ele>107.1</ele>
        <time>2015-07-19T21:17:08Z</time>
      </trkpt>
      <trkpt lat="37.399992" lon="-122.244796">
        <ele>107.1</ele>
        <time>2015-07-19T21:17:09Z</time>
      </trkpt>
      <trkpt lat="37.400045" lon="-122.244836">
        <ele>107.2</ele>
        <time>2015-07-19T21:17:10Z</time>
      </trkpt>
      <trkpt lat="37.400108" lon="-122.24488">
        <ele>107.2</ele>
        <time>2015-07-19T21:17:11Z</time>
      </trkpt>
      <trkpt lat="37.400173" lon="-122.244927">
        <ele>107.2</ele>
        <time>2015-07-19T21:17:12Z</time>
      </trkpt>
      <trkpt lat="37.400239" lon="-122.244971">
        <ele>107.2</ele>
        <time>2015-07-19T21:17:13Z</time>
      </trkpt>
      <trkpt lat="37.400307" lon="-122.245013">
        <ele>107.1</ele>
        <time>2015-07-19T21:17:14Z</time>
      </trkpt>
      <trkpt lat="37.400376" lon="-122.245051">
        <ele>107.1</ele>
        <time>2015-07-19T21:17:15Z</time>
      </trkpt>
      <trkpt lat="37.400443" lon="-122.245094">
        <ele>107.2</ele>
        <time>2015-07-19T21:17:16Z</time>
      </trkpt>
      <trkpt lat="37.400509" lon="-122.245133">
        <ele>107</ele>
        <time>2015-07-19T21:17:17Z</time>
      </trkpt>
      <trkpt lat="37.400568" lon="-122.245166">
        <ele>106.9</ele>
        <time>2015-07-19T21:17:18Z</time>
      </trkpt>
      <trkpt lat="37.400635" lon="-122.245198">
        <ele>106.9</ele>
        <time>2015-07-19T21:17:19Z</time>
      </trkpt>
      <trkpt lat="37.40071" lon="-122.245228">
        <ele>106.9</ele>
        <time>2015-07-19T21:17:20Z</time>
      </trkpt>
      <trkpt lat="37.400768" lon="-122.245251">
        <ele>106.8</ele>
        <time>2015-07-19T21:17:21Z</time>
      </trkpt>
      <trkpt lat="37.400839" lon="-122.245281">
        <ele>106.8</ele>
        <time>2015-07-19T21:17:22Z</time>
      </trkpt>
      <trkpt lat="37.400901" lon="-122.245303">
        <ele>106.9</ele>
        <time>2015-07-19T21:17:23Z</time>
      </trkpt>
      <trkpt lat="37.400967" lon="-122.245311">
        <ele>106.8</ele>
        <time>2015-07-19T21:17:24Z</time>
      </trkpt>
      <trkpt lat="37.40104" lon="-122.245325">
        <ele>106.8</ele>
        <time>2015-07-19T21:17:25Z</time>
      </trkpt>
      <trkpt lat="37.401105" lon="-122.245336">
        <ele>106.7</ele>
        <time>2015-07-19T21:17:26Z</time>
      </trkpt>
      <trkpt lat="37.401179" lon="-122.245338">
        <ele>106.7</ele>
        <time>2015-07-19T21:17:27Z</time>
      </trkpt>
      <trkpt lat="37.401237" lon="-122.245329">
        <ele>106.5</ele>
        <time>2015-07-19T21:17:28Z</time>
      </trkpt>
      <trkpt lat="37.401308" lon="-122.245324">
        <ele>106.6</ele>
        <time>2015-07-19T21:17:29Z</time>
      </trkpt>
      <trkpt lat="37.401392" lon="-122.245315">
        <ele>106.6</ele>
        <time>2015-07-19T21:17:30Z</time>
      </trkpt>
      <trkpt lat="37.401464" lon="-122.245299">
        <ele>106.6</ele>
        <time>2015-07-19T21:17:31Z</time>
      </trkpt>
      <trkpt lat="37.401531" lon="-122.245292">
        <ele>106.7</ele>
        <time>2015-07-19T21:17:32Z</time>
      </trkpt>
      <trkpt lat="37.401605" lon="-122.245276">
        <ele>106.8</ele>
        <time>2015-07-19T21:17:33Z</time>
      </trkpt>
      <trkpt lat="37.40168" lon="-122.245252">
        <ele>107</ele>
        <time>2015-07-19T21:17:34Z</time>
      </trkpt>
      <trkpt lat="37.401748" lon="-122.245238">
        <ele>107.2</ele>
        <time>2015-07-19T21:17:35Z</time>
      </trkpt>
      <trkpt lat="37.401788" lon="-122.245214">
        <ele>107.1</ele>
        <time>2015-07-19T21:17:36Z</time>
      </trkpt>
      <trkpt lat="37.401857" lon="-122.245185">
        <ele>107.3</ele>
        <time>2015-07-19T21:17:37Z</time>
      </trkpt>
      <trkpt lat="37.401928" lon="-122.245161">
        <ele>107.5</ele>
        <time>2015-07-19T21:17:38Z</time>
      </trkpt>
      <trkpt lat="37.401976" lon="-122.245142">
        <ele>107.6</ele>
        <time>2015-07-19T21:17:39Z</time>
      </trkpt>
      <trkpt lat="37.402021" lon="-122.245116">
        <ele>107.9</ele>
        <time>2015-07-19T21:17:40Z</time>
      </trkpt>
      <trkpt lat="37.402078" lon="-122.245109">
        <ele>108.1</ele>
        <time>2015-07-19T21:17:41Z</time>
      </trkpt>
      <trkpt lat="37.402113" lon="-122.245089">
        <ele>108.2</ele>
        <time>2015-07-19T21:17:42Z</time>
      </trkpt>
      <trkpt lat="37.402164" lon="-122.245057">
        <ele>108.5</ele>
        <time>2015-07-19T21:17:43Z</time>
      </trkpt>
      <trkpt lat="37.402212" lon="-122.245045">
        <ele>108.6</ele>
        <time>2015-07-19T21:17:44Z</time>
      </trkpt>
      <trkpt lat="37.402262" lon="-122.245037">
        <ele>108.7</ele>
        <time>2015-07-19T21:17:45Z</time>
      </trkpt>
      <trkpt lat="37.402285" lon="-122.245005">
        <ele>109</ele>
        <time>2015-07-19T21:17:46Z</time>
      </trkpt>
      <trkpt lat="37.402361" lon="-122.245004">
        <ele>109.2</ele>
        <time>2015-07-19T21:17:47Z</time>
      </trkpt>
      <trkpt lat="37.402383" lon="-122.244974">
        <ele>109.4</ele>
        <time>2015-07-19T21:17:48Z</time>
      </trkpt>
      <trkpt lat="37.402572" lon="-122.244887">
        <ele>110.5</ele>
        <time>2015-07-19T21:17:53Z</time>
      </trkpt>
      <trkpt lat="37.402607" lon="-122.244871">
        <ele>110.7</ele>
        <time>2015-07-19T21:17:54Z</time>
      </trkpt>
      <trkpt lat="37.402651" lon="-122.244837">
        <ele>111.3</ele>
        <time>2015-07-19T21:17:55Z</time>
      </trkpt>
      <trkpt lat="37.402687" lon="-122.244824">
        <ele>111.5</ele>
        <time>2015-07-19T21:17:56Z</time>
      </trkpt>
      <trkpt lat="37.402729" lon="-122.244807">
        <ele>111.8</ele>
        <time>2015-07-19T21:17:57Z</time>
      </trkpt>
      <trkpt lat="37.402765" lon="-122.244794">
        <ele>112</ele>
        <time>2015-07-19T21:17:58Z</time>
      </trkpt>
      <trkpt lat="37.40281" lon="-122.24479">
        <ele>112.2</ele>
        <time>2015-07-19T21:17:59Z</time>
      </trkpt>
      <trkpt lat="37.402843" lon="-122.244784">
        <ele>112.3</ele>
        <time>2015-07-19T21:18:00Z</time>
      </trkpt>
      <trkpt lat="37.402879" lon="-122.244776">
        <ele>112.5</ele>
        <time>2015-07-19T21:18:01Z</time>
      </trkpt>
      <trkpt lat="37.402909" lon="-122.244766">
        <ele>112.6</ele>
        <time>2015-07-19T21:18:02Z</time>
      </trkpt>
      <trkpt lat="37.40294" lon="-122.244755">
        <ele>112.8</ele>
        <time>2015-07-19T21:18:03Z</time>
      </trkpt>
      <trkpt lat="37.402971" lon="-122.244745">
        <ele>113.1</ele>
        <time>2015-07-19T21:18:04Z</time>
      </trkpt>
      <trkpt lat="37.403003" lon="-122.244736">
        <ele>113.1</ele>
        <time>2015-07-19T21:18:05Z</time>
      </trkpt>
      <trkpt lat="37.403032" lon="-122.244728">
        <ele>113.3</ele>
        <time>2015-07-19T21:18:06Z</time>
      </trkpt>
      <trkpt lat="37.403063" lon="-122.244719">
        <ele>113.5</ele>
        <time>2015-07-19T21:18:07Z</time>
      </trkpt>
      <trkpt lat="37.403093" lon="-122.24471">
        <ele>113.6</ele>
        <time>2015-07-19T21:18:08Z</time>
      </trkpt>
      <trkpt lat="37.40312" lon="-122.244702">
        <ele>113.8</ele>
        <time>2015-07-19T21:18:09Z</time>
      </trkpt>
      <trkpt lat="37.403173" lon="-122.244681">
        <ele>114.1</ele>
        <time>2015-07-19T21:18:11Z</time>
      </trkpt>
      <trkpt lat="37.403214" lon="-122.24465">
        <ele>114.4</ele>
        <time>2015-07-19T21:18:13Z</time>
      </trkpt>
      <trkpt lat="37.403243" lon="-122.244619">
        <ele>114.7</ele>
        <time>2015-07-19T21:18:15Z</time>
      </trkpt>
      <trkpt lat="37.403256" lon="-122.244659">
        <ele>114.6</ele>
        <time>2015-07-19T21:18:20Z</time>
      </trkpt>
      <trkpt lat="37.403417" lon="-122.244626">
        <ele>115.7</ele>
        <time>2015-07-19T21:18:23Z</time>
      </trkpt>
      <trkpt lat="37.403447" lon="-122.244613">
        <ele>115.9</ele>
        <time>2015-07-19T21:18:24Z</time>
      </trkpt>
      <trkpt lat="37.403491" lon="-122.244592">
        <ele>116.2</ele>
        <time>2015-07-19T21:18:26Z</time>
      </trkpt>
      <trkpt lat="37.403516" lon="-122.244575">
        <ele>116.3</ele>
        <time>2015-07-19T21:18:35Z</time>
      </trkpt>
      <trkpt lat="37.403513" lon="-122.244568">
        <ele>116.4</ele>
        <time>2015-07-19T21:18:41Z</time>
      </trkpt>
      <trkpt lat="37.40351" lon="-122.244562">
        <ele>116.4</ele>
        <time>2015-07-19T21:18:42Z</time>
      </trkpt>
      <trkpt lat="37.403467" lon="-122.244589">
        <ele>116.1</ele>
        <time>2015-07-19T21:18:53Z</time>
      </trkpt>
      <trkpt lat="37.403446" lon="-122.244614">
        <ele>115.9</ele>
        <time>2015-07-19T21:18:55Z</time>
      </trkpt>
      <trkpt lat="37.403417" lon="-122.244631">
        <ele>115.6</ele>
        <time>2015-07-19T21:18:59Z</time>
      </trkpt>
      <trkpt lat="37.4034" lon="-122.2446">
        <ele>115.6</ele>
        <time>2015-07-19T21:19:06Z</time>
      </trkpt>
      <trkpt lat="37.403422" lon="-122.24464">
        <ele>115.6</ele>
        <time>2015-07-19T21:19:11Z</time>
      </trkpt>
      <trkpt lat="37.40345" lon="-122.244658">
        <ele>115.6</ele>
        <time>2015-07-19T21:19:15Z</time>
      </trkpt>
      <trkpt lat="37.403468" lon="-122.244708">
        <ele>115.2</ele>
        <time>2015-07-19T21:19:19Z</time>
      </trkpt>
      <trkpt lat="37.403437" lon="-122.244663">
        <ele>115.5</ele>
        <time>2015-07-19T21:19:27Z</time>
      </trkpt>
      <trkpt lat="37.403409" lon="-122.244647">
        <ele>115.5</ele>
        <time>2015-07-19T21:19:30Z</time>
      </trkpt>
      <trkpt lat="37.40338" lon="-122.244647">
        <ele>115.4</ele>
        <time>2015-07-19T21:19:34Z</time>
      </trkpt>
      <trkpt lat="37.403393" lon="-122.244678">
        <ele>115.3</ele>
        <time>2015-07-19T21:19:44Z</time>
      </trkpt>
      <trkpt lat="37.403428" lon="-122.244665">
        <ele>115.4</ele>
        <time>2015-07-19T21:19:45Z</time>
      </trkpt>
      <trkpt lat="37.403456" lon="-122.244656">
        <ele>115.6</ele>
        <time>2015-07-19T21:19:49Z</time>
      </trkpt>
      <trkpt lat="37.403428" lon="-122.244629">
        <ele>115.7</ele>
        <time>2015-07-19T21:19:59Z</time>
      </trkpt>
      <trkpt lat="37.403405" lon="-122.244605">
        <ele>115.7</ele>
        <time>2015-07-19T21:20:01Z</time>
      </trkpt>
      <trkpt lat="37.40343" lon="-122.244624">
        <ele>115.7</ele>
        <time>2015-07-19T21:20:04Z</time>
      </trkpt>
      <trkpt lat="37.403473" lon="-122.244633">
        <ele>115.8</ele>
        <time>2015-07-19T21:20:06Z</time>
      </trkpt>
      <trkpt lat="37.403502" lon="-122.244622">
        <ele>116</ele>
        <time>2015-07-19T21:20:07Z</time>
      </trkpt>
      <trkpt lat="37.403531" lon="-122.244612">
        <ele>116.2</ele>
        <time>2015-07-19T21:20:08Z</time>
      </trkpt>
      <trkpt lat="37.403563" lon="-122.244601">
        <ele>116.4</ele>
        <time>2015-07-19T21:20:09Z</time>
      </trkpt>
      <trkpt lat="37.403591" lon="-122.244585">
        <ele>116.6</ele>
        <time>2015-07-19T21:20:10Z</time>
      </trkpt>
      <trkpt lat="37.403619" lon="-122.244569">
        <ele>116.8</ele>
        <time>2015-07-19T21:20:11Z</time>
      </trkpt>
      <trkpt lat="37.40365" lon="-122.244557">
        <ele>117.1</ele>
        <time>2015-07-19T21:20:12Z</time>
      </trkpt>
      <trkpt lat="37.403678" lon="-122.244536">
        <ele>117.4</ele>
        <time>2015-07-19T21:20:13Z</time>
      </trkpt>
      <trkpt lat="37.403708" lon="-122.244515">
        <ele>117.7</ele>
        <time>2015-07-19T21:20:14Z</time>
      </trkpt>
      <trkpt lat="37.403741" lon="-122.244503">
        <ele>117.8</ele>
        <time>2015-07-19T21:20:15Z</time>
      </trkpt>
      <trkpt lat="37.403774" lon="-122.244488">
        <ele>118.1</ele>
        <time>2015-07-19T21:20:16Z</time>
      </trkpt>
      <trkpt lat="37.403809" lon="-122.244477">
        <ele>118.3</ele>
        <time>2015-07-19T21:20:17Z</time>
      </trkpt>
      <trkpt lat="37.403842" lon="-122.244468">
        <ele>118.5</ele>
        <time>2015-07-19T21:20:18Z</time>
      </trkpt>
      <trkpt lat="37.403877" lon="-122.244461">
        <ele>118.7</ele>
        <time>2015-07-19T21:20:19Z</time>
      </trkpt>
      <trkpt lat="37.403914" lon="-122.244455">
        <ele>118.9</ele>
        <time>2015-07-19T21:20:20Z</time>
      </trkpt>
      <trkpt lat="37.403948" lon="-122.244448">
        <ele>119.1</ele>
        <time>2015-07-19T21:20:21Z</time>
      </trkpt>
      <trkpt lat="37.40398" lon="-122.244437">
        <ele>119.2</ele>
        <time>2015-07-19T21:20:22Z</time>
      </trkpt>
      <trkpt lat="37.404012" lon="-122.244427">
        <ele>119.4</ele>
        <time>2015-07-19T21:20:23Z</time>
      </trkpt>
      <trkpt lat="37.404066" lon="-122.244413">
        <ele>119.7</ele>
        <time>2015-07-19T21:20:25Z</time>
      </trkpt>
      <trkpt lat="37.404095" lon="-122.244408">
        <ele>119.8</ele>
        <time>2015-07-19T21:20:26Z</time>
      </trkpt>
      <trkpt lat="37.404124" lon="-122.244405">
        <ele>120</ele>
        <time>2015-07-19T21:20:27Z</time>
      </trkpt>
      <trkpt lat="37.404153" lon="-122.244401">
        <ele>120.1</ele>
        <time>2015-07-19T21:20:28Z</time>
      </trkpt>
      <trkpt lat="37.404203" lon="-122.244397">
        <ele>120.4</ele>
        <time>2015-07-19T21:20:30Z</time>
      </trkpt>
      <trkpt lat="37.404232" lon="-122.244397">
        <ele>120.7</ele>
        <time>2015-07-19T21:20:31Z</time>
      </trkpt>
      <trkpt lat="37.40426" lon="-122.244396">
        <ele>121</ele>
        <time>2015-07-19T21:20:32Z</time>
      </trkpt>
      <trkpt lat="37.404293" lon="-122.244394">
        <ele>121.2</ele>
        <time>2015-07-19T21:20:33Z</time>
      </trkpt>
      <trkpt lat="37.404322" lon="-122.244394">
        <ele>121.4</ele>
        <time>2015-07-19T21:20:34Z</time>
      </trkpt>
      <trkpt lat="37.404353" lon="-122.244397">
        <ele>121.7</ele>
        <time>2015-07-19T21:20:35Z</time>
      </trkpt>
      <trkpt lat="37.404386" lon="-122.244403">
        <ele>121.8</ele>
        <time>2015-07-19T21:20:36Z</time>
      </trkpt>
      <trkpt lat="37.404412" lon="-122.24441">
        <ele>122</ele>
        <time>2015-07-19T21:20:37Z</time>
      </trkpt>
      <trkpt lat="37.40445" lon="-122.244414">
        <ele>122.2</ele>
        <time>2015-07-19T21:20:38Z</time>
      </trkpt>
      <trkpt lat="37.4045" lon="-122.244433">
        <ele>122.4</ele>
        <time>2015-07-19T21:20:40Z</time>
      </trkpt>
      <trkpt lat="37.404529" lon="-122.244445">
        <ele>122.5</ele>
        <time>2015-07-19T21:20:41Z</time>
      </trkpt>
      <trkpt lat="37.404558" lon="-122.244451">
        <ele>122.6</ele>
        <time>2015-07-19T21:20:42Z</time>
      </trkpt>
      <trkpt lat="37.404593" lon="-122.244461">
        <ele>122.7</ele>
        <time>2015-07-19T21:20:43Z</time>
      </trkpt>
      <trkpt lat="37.404621" lon="-122.244469">
        <ele>122.8</ele>
        <time>2015-07-19T21:20:44Z</time>
      </trkpt>
      <trkpt lat="37.404652" lon="-122.24449">
        <ele>122.9</ele>
        <time>2015-07-19T21:20:45Z</time>
      </trkpt>
      <trkpt lat="37.404681" lon="-122.244496">
        <ele>123</ele>
        <time>2015-07-19T21:20:46Z</time>
      </trkpt>
      <trkpt lat="37.40474" lon="-122.244507">
        <ele>123.3</ele>
        <time>2015-07-19T21:20:48Z</time>
      </trkpt>
      <trkpt lat="37.40477" lon="-122.244512">
        <ele>123.5</ele>
        <time>2015-07-19T21:20:49Z</time>
      </trkpt>
      <trkpt lat="37.404796" lon="-122.244521">
        <ele>123.6</ele>
        <time>2015-07-19T21:20:50Z</time>
      </trkpt>
      <trkpt lat="37.404851" lon="-122.244533">
        <ele>123.7</ele>
        <time>2015-07-19T21:20:52Z</time>
      </trkpt>
      <trkpt lat="37.404883" lon="-122.24454">
        <ele>123.9</ele>
        <time>2015-07-19T21:20:53Z</time>
      </trkpt>
      <trkpt lat="37.404911" lon="-122.244546">
        <ele>124</ele>
        <time>2015-07-19T21:20:54Z</time>
      </trkpt>
      <trkpt lat="37.40495" lon="-122.244555">
        <ele>124.2</ele>
        <time>2015-07-19T21:20:55Z</time>
      </trkpt>
      <trkpt lat="37.404981" lon="-122.244564">
        <ele>124.3</ele>
        <time>2015-07-19T21:20:56Z</time>
      </trkpt>
      <trkpt lat="37.405016" lon="-122.244576">
        <ele>124.5</ele>
        <time>2015-07-19T21:20:57Z</time>
      </trkpt>
      <trkpt lat="37.405047" lon="-122.244587">
        <ele>124.4</ele>
        <time>2015-07-19T21:20:58Z</time>
      </trkpt>
      <trkpt lat="37.405083" lon="-122.2446">
        <ele>124.6</ele>
        <time>2015-07-19T21:20:59Z</time>
      </trkpt>
      <trkpt lat="37.405115" lon="-122.244614">
        <ele>124.5</ele>
        <time>2015-07-19T21:21:00Z</time>
      </trkpt>
      <trkpt lat="37.405149" lon="-122.244631">
        <ele>124.7</ele>
        <time>2015-07-19T21:21:01Z</time>
      </trkpt>
      <trkpt lat="37.405179" lon="-122.24465">
        <ele>124.7</ele>
        <time>2015-07-19T21:21:02Z</time>
      </trkpt>
      <trkpt lat="37.405214" lon="-122.244673">
        <ele>124.7</ele>
        <time>2015-07-19T21:21:03Z</time>
      </trkpt>
      <trkpt lat="37.405251" lon="-122.244695">
        <ele>124.7</ele>
        <time>2015-07-19T21:21:04Z</time>
      </trkpt>
      <trkpt lat="37.405289" lon="-122.244718">
        <ele>124.8</ele>
        <time>2015-07-19T21:21:05Z</time>
      </trkpt>
      <trkpt lat="37.405329" lon="-122.244738">
        <ele>124.8</ele>
        <time>2015-07-19T21:21:06Z</time>
      </trkpt>
      <trkpt lat="37.405368" lon="-122.24476">
        <ele>124.8</ele>
        <time>2015-07-19T21:21:07Z</time>
      </trkpt>
      <trkpt lat="37.4054" lon="-122.24478">
        <ele>124.8</ele>
        <time>2015-07-19T21:21:08Z</time>
      </trkpt>
      <trkpt lat="37.405433" lon="-122.244803">
        <ele>124.8</ele>
        <time>2015-07-19T21:21:09Z</time>
      </trkpt>
      <trkpt lat="37.405468" lon="-122.244813">
        <ele>124.9</ele>
        <time>2015-07-19T21:21:10Z</time>
      </trkpt>
      <trkpt lat="37.405503" lon="-122.244831">
        <ele>124.9</ele>
        <time>2015-07-19T21:21:11Z</time>
      </trkpt>
      <trkpt lat="37.405536" lon="-122.244842">
        <ele>124.9</ele>
        <time>2015-07-19T21:21:12Z</time>
      </trkpt>
      <trkpt lat="37.405576" lon="-122.244855">
        <ele>124.9</ele>
        <time>2015-07-19T21:21:13Z</time>
      </trkpt>
      <trkpt lat="37.405619" lon="-122.244871">
        <ele>124.9</ele>
        <time>2015-07-19T21:21:14Z</time>
      </trkpt>
      <trkpt lat="37.405664" lon="-122.244868">
        <ele>124.8</ele>
        <time>2015-07-19T21:21:15Z</time>
      </trkpt>
      <trkpt lat="37.405706" lon="-122.244882">
        <ele>124.9</ele>
        <time>2015-07-19T21:21:16Z</time>
      </trkpt>
      <trkpt lat="37.405747" lon="-122.244901">
        <ele>124.7</ele>
        <time>2015-07-19T21:21:17Z</time>
      </trkpt>
      <trkpt lat="37.405789" lon="-122.244911">
        <ele>124.9</ele>
        <time>2015-07-19T21:21:18Z</time>
      </trkpt>
      <trkpt lat="37.405835" lon="-122.244939">
        <ele>124.9</ele>
        <time>2015-07-19T21:21:19Z</time>
      </trkpt>
      <trkpt lat="37.405871" lon="-122.244966">
        <ele>124.8</ele>
        <time>2015-07-19T21:21:20Z</time>
      </trkpt>
      <trkpt lat="37.405914" lon="-122.244996">
        <ele>124.8</ele>
        <time>2015-07-19T21:21:21Z</time>
      </trkpt>
      <trkpt lat="37.405963" lon="-122.245025">
        <ele>124.8</ele>
        <time>2015-07-19T21:21:22Z</time>
      </trkpt>
      <trkpt lat="37.406" lon="-122.245033">
        <ele>124.8</ele>
        <time>2015-07-19T21:21:23Z</time>
      </trkpt>
      <trkpt lat="37.406044" lon="-122.245052">
        <ele>124.8</ele>
        <time>2015-07-19T21:21:24Z</time>
      </trkpt>
      <trkpt lat="37.406082" lon="-122.24505">
        <ele>124.7</ele>
        <time>2015-07-19T21:21:25Z</time>
      </trkpt>
      <trkpt lat="37.406123" lon="-122.245083">
        <ele>124.7</ele>
        <time>2015-07-19T21:21:26Z</time>
      </trkpt>
      <trkpt lat="37.406166" lon="-122.245089">
        <ele>124.7</ele>
        <time>2015-07-19T21:21:27Z</time>
      </trkpt>
      <trkpt lat="37.406217" lon="-122.245111">
        <ele>124.6</ele>
        <time>2015-07-19T21:21:28Z</time>
      </trkpt>
      <trkpt lat="37.406263" lon="-122.245133">
        <ele>124.6</ele>
        <time>2015-07-19T21:21:29Z</time>
      </trkpt>
      <trkpt lat="37.406305" lon="-122.245163">
        <ele>124.6</ele>
        <time>2015-07-19T21:21:30Z</time>
      </trkpt>
      <trkpt lat="37.40636" lon="-122.245191">
        <ele>124.5</ele>
        <time>2015-07-19T21:21:31Z</time>
      </trkpt>
      <trkpt lat="37.406414" lon="-122.245208">
        <ele>124.4</ele>
        <time>2015-07-19T21:21:32Z</time>
      </trkpt>
      <trkpt lat="37.406461" lon="-122.24522">
        <ele>124.2</ele>
        <time>2015-07-19T21:21:33Z</time>
      </trkpt>
      <trkpt lat="37.406523" lon="-122.245227">
        <ele>123.7</ele>
        <time>2015-07-19T21:21:34Z</time>
      </trkpt>
      <trkpt lat="37.406588" lon="-122.245236">
        <ele>123</ele>
        <time>2015-07-19T21:21:35Z</time>
      </trkpt>
      <trkpt lat="37.406647" lon="-122.245263">
        <ele>122.8</ele>
        <time>2015-07-19T21:21:36Z</time>
      </trkpt>
      <trkpt lat="37.406695" lon="-122.245307">
        <ele>123.5</ele>
        <time>2015-07-19T21:21:37Z</time>
      </trkpt>
      <trkpt lat="37.406759" lon="-122.245356">
        <ele>124</ele>
        <time>2015-07-19T21:21:38Z</time>
      </trkpt>
      <trkpt lat="37.406808" lon="-122.245394">
        <ele>124.2</ele>
        <time>2015-07-19T21:21:39Z</time>
      </trkpt>
      <trkpt lat="37.406859" lon="-122.245405">
        <ele>124.1</ele>
        <time>2015-07-19T21:21:40Z</time>
      </trkpt>
      <trkpt lat="37.406907" lon="-122.245424">
        <ele>124.2</ele>
        <time>2015-07-19T21:21:41Z</time>
      </trkpt>
      <trkpt lat="37.406972" lon="-122.245433">
        <ele>124</ele>
        <time>2015-07-19T21:21:42Z</time>
      </trkpt>
      <trkpt lat="37.407047" lon="-122.245448">
        <ele>124.1</ele>
        <time>2015-07-19T21:21:43Z</time>
      </trkpt>
      <trkpt lat="37.407111" lon="-122.24545">
        <ele>123.9</ele>
        <time>2015-07-19T21:21:44Z</time>
      </trkpt>
      <trkpt lat="37.40716" lon="-122.245459">
        <ele>124</ele>
        <time>2015-07-19T21:21:45Z</time>
      </trkpt>
      <trkpt lat="37.407215" lon="-122.245454">
        <ele>123.9</ele>
        <time>2015-07-19T21:21:46Z</time>
      </trkpt>
      <trkpt lat="37.407274" lon="-122.245445">
        <ele>123.9</ele>
        <time>2015-07-19T21:21:47Z</time>
      </trkpt>
      <trkpt lat="37.407345" lon="-122.245447">
        <ele>124.2</ele>
        <time>2015-07-19T21:21:48Z</time>
      </trkpt>
      <trkpt lat="37.407397" lon="-122.245446">
        <ele>124.2</ele>
        <time>2015-07-19T21:21:49Z</time>
      </trkpt>
      <trkpt lat="37.407446" lon="-122.245445">
        <ele>123.9</ele>
        <time>2015-07-19T21:21:50Z</time>
      </trkpt>
      <trkpt lat="37.407512" lon="-122.245436">
        <ele>124</ele>
        <time>2015-07-19T21:21:51Z</time>
      </trkpt>
      <trkpt lat="37.407574" lon="-122.24541">
        <ele>123.9</ele>
        <time>2015-07-19T21:21:52Z</time>
      </trkpt>
      <trkpt lat="37.407623" lon="-122.245394">
        <ele>123.9</ele>
        <time>2015-07-19T21:21:53Z</time>
      </trkpt>
      <trkpt lat="37.407678" lon="-122.245373">
        <ele>123.9</ele>
        <time>2015-07-19T21:21:54Z</time>
      </trkpt>
      <trkpt lat="37.407743" lon="-122.245344">
        <ele>124</ele>
        <time>2015-07-19T21:21:55Z</time>
      </trkpt>
      <trkpt lat="37.4078" lon="-122.245326">
        <ele>123.6</ele>
        <time>2015-07-19T21:21:56Z</time>
      </trkpt>
      <trkpt lat="37.407868" lon="-122.245308">
        <ele>123.4</ele>
        <time>2015-07-19T21:21:57Z</time>
      </trkpt>
      <trkpt lat="37.40794" lon="-122.245287">
        <ele>123.3</ele>
        <time>2015-07-19T21:21:58Z</time>
      </trkpt>
      <trkpt lat="37.408007" lon="-122.245254">
        <ele>123.2</ele>
        <time>2015-07-19T21:21:59Z</time>
      </trkpt>
      <trkpt lat="37.408065" lon="-122.245205">
        <ele>122.8</ele>
        <time>2015-07-19T21:22:00Z</time>
      </trkpt>
      <trkpt lat="37.40811" lon="-122.245165">
        <ele>122.7</ele>
        <time>2015-07-19T21:22:01Z</time>
      </trkpt>
      <trkpt lat="37.408176" lon="-122.245115">
        <ele>122.5</ele>
        <time>2015-07-19T21:22:02Z</time>
      </trkpt>
      <trkpt lat="37.408229" lon="-122.245066">
        <ele>122.1</ele>
        <time>2015-07-19T21:22:03Z</time>
      </trkpt>
      <trkpt lat="37.40829" lon="-122.245019">
        <ele>121.8</ele>
        <time>2015-07-19T21:22:04Z</time>
      </trkpt>
      <trkpt lat="37.408357" lon="-122.244962">
        <ele>121.4</ele>
        <time>2015-07-19T21:22:05Z</time>
      </trkpt>
      <trkpt lat="37.408412" lon="-122.244895">
        <ele>120.9</ele>
        <time>2015-07-19T21:22:06Z</time>
      </trkpt>
      <trkpt lat="37.408473" lon="-122.244824">
        <ele>120.4</ele>
        <time>2015-07-19T21:22:07Z</time>
      </trkpt>
      <trkpt lat="37.408522" lon="-122.24475">
        <ele>120.2</ele>
        <time>2015-07-19T21:22:08Z</time>
      </trkpt>
      <trkpt lat="37.408579" lon="-122.24467">
        <ele>119.6</ele>
        <time>2015-07-19T21:22:09Z</time>
      </trkpt>
      <trkpt lat="37.408619" lon="-122.24462">
        <ele>119</ele>
        <time>2015-07-19T21:22:10Z</time>
      </trkpt>
      <trkpt lat="37.408697" lon="-122.244505">
        <ele>118.2</ele>
        <time>2015-07-19T21:22:11Z</time>
      </trkpt>
      <trkpt lat="37.408763" lon="-122.244412">
        <ele>117.5</ele>
        <time>2015-07-19T21:22:12Z</time>
      </trkpt>
      <trkpt lat="37.408826" lon="-122.244325">
        <ele>116.8</ele>
        <time>2015-07-19T21:22:13Z</time>
      </trkpt>
      <trkpt lat="37.408892" lon="-122.244221">
        <ele>116</ele>
        <time>2015-07-19T21:22:14Z</time>
      </trkpt>
      <trkpt lat="37.408955" lon="-122.24407">
        <ele>114.9</ele>
        <time>2015-07-19T21:22:15Z</time>
      </trkpt>
      <trkpt lat="37.409006" lon="-122.243954">
        <ele>114</ele>
        <time>2015-07-19T21:22:16Z</time>
      </trkpt>
      <trkpt lat="37.409062" lon="-122.243838">
        <ele>113.1</ele>
        <time>2015-07-19T21:22:17Z</time>
      </trkpt>
      <trkpt lat="37.409106" lon="-122.243733">
        <ele>112.5</ele>
        <time>2015-07-19T21:22:18Z</time>
      </trkpt>
      <trkpt lat="37.409187" lon="-122.243611">
        <ele>111.4</ele>
        <time>2015-07-19T21:22:19Z</time>
      </trkpt>
      <trkpt lat="37.409257" lon="-122.243505">
        <ele>110.5</ele>
        <time>2015-07-19T21:22:20Z</time>
      </trkpt>
      <trkpt lat="37.409332" lon="-122.243395">
        <ele>109.5</ele>
        <time>2015-07-19T21:22:21Z</time>
      </trkpt>
      <trkpt lat="37.409407" lon="-122.243268">
        <ele>108.4</ele>
        <time>2015-07-19T21:22:22Z</time>
      </trkpt>
      <trkpt lat="37.409487" lon="-122.243148">
        <ele>107.3</ele>
        <time>2015-07-19T21:22:23Z</time>
      </trkpt>
      <trkpt lat="37.409566" lon="-122.243042">
        <ele>106.3</ele>
        <time>2015-07-19T21:22:24Z</time>
      </trkpt>
      <trkpt lat="37.40965" lon="-122.242933">
        <ele>105.3</ele>
        <time>2015-07-19T21:22:25Z</time>
      </trkpt>
      <trkpt lat="37.409751" lon="-122.242811">
        <ele>104</ele>
        <time>2015-07-19T21:22:26Z</time>
      </trkpt>
      <trkpt lat="37.409862" lon="-122.242703">
        <ele>103</ele>
        <time>2015-07-19T21:22:27Z</time>
      </trkpt>
      <trkpt lat="37.409966" lon="-122.242581">
        <ele>101.7</ele>
        <time>2015-07-19T21:22:28Z</time>
      </trkpt>
      <trkpt lat="37.410076" lon="-122.242469">
        <ele>100.6</ele>
        <time>2015-07-19T21:22:29Z</time>
      </trkpt>
      <trkpt lat="37.410172" lon="-122.242371">
        <ele>99.6</ele>
        <time>2015-07-19T21:22:30Z</time>
      </trkpt>
      <trkpt lat="37.410277" lon="-122.242254">
        <ele>98.4</ele>
        <time>2015-07-19T21:22:31Z</time>
      </trkpt>
      <trkpt lat="37.410373" lon="-122.242138">
        <ele>97.2</ele>
        <time>2015-07-19T21:22:32Z</time>
      </trkpt>
      <trkpt lat="37.410477" lon="-122.242021">
        <ele>96</ele>
        <time>2015-07-19T21:22:33Z</time>
      </trkpt>
      <trkpt lat="37.410581" lon="-122.241911">
        <ele>95</ele>
        <time>2015-07-19T21:22:34Z</time>
      </trkpt>
      <trkpt lat="37.410677" lon="-122.241788">
        <ele>93.7</ele>
        <time>2015-07-19T21:22:35Z</time>
      </trkpt>
      <trkpt lat="37.410823" lon="-122.241649">
        <ele>92.6</ele>
        <time>2015-07-19T21:22:36Z</time>
      </trkpt>
      <trkpt lat="37.410939" lon="-122.24153">
        <ele>91.7</ele>
        <time>2015-07-19T21:22:37Z</time>
      </trkpt>
      <trkpt lat="37.411031" lon="-122.241411">
        <ele>91</ele>
        <time>2015-07-19T21:22:38Z</time>
      </trkpt>
      <trkpt lat="37.411121" lon="-122.2413">
        <ele>90.5</ele>
        <time>2015-07-19T21:22:39Z</time>
      </trkpt>
      <trkpt lat="37.41122" lon="-122.241182">
        <ele>90</ele>
        <time>2015-07-19T21:22:40Z</time>
      </trkpt>
      <trkpt lat="37.411327" lon="-122.241067">
        <ele>89.9</ele>
        <time>2015-07-19T21:22:41Z</time>
      </trkpt>
      <trkpt lat="37.411415" lon="-122.240955">
        <ele>89.8</ele>
        <time>2015-07-19T21:22:42Z</time>
      </trkpt>
      <trkpt lat="37.411506" lon="-122.240852">
        <ele>89.9</ele>
        <time>2015-07-19T21:22:43Z</time>
      </trkpt>
      <trkpt lat="37.411592" lon="-122.240749">
        <ele>90.2</ele>
        <time>2015-07-19T21:22:44Z</time>
      </trkpt>
      <trkpt lat="37.411696" lon="-122.240657">
        <ele>90.3</ele>
        <time>2015-07-19T21:22:45Z</time>
      </trkpt>
      <trkpt lat="37.411775" lon="-122.24058">
        <ele>90.6</ele>
        <time>2015-07-19T21:22:46Z</time>
      </trkpt>
      <trkpt lat="37.411882" lon="-122.240486">
        <ele>91.1</ele>
        <time>2015-07-19T21:22:47Z</time>
      </trkpt>
      <trkpt lat="37.411971" lon="-122.240419">
        <ele>91.4</ele>
        <time>2015-07-19T21:22:48Z</time>
      </trkpt>
      <trkpt lat="37.412061" lon="-122.240355">
        <ele>91.8</ele>
        <time>2015-07-19T21:22:49Z</time>
      </trkpt>
      <trkpt lat="37.412138" lon="-122.240293">
        <ele>92.3</ele>
        <time>2015-07-19T21:22:50Z</time>
      </trkpt>
      <trkpt lat="37.41222" lon="-122.240235">
        <ele>92.8</ele>
        <time>2015-07-19T21:22:51Z</time>
      </trkpt>
      <trkpt lat="37.412287" lon="-122.240179">
        <ele>93.3</ele>
        <time>2015-07-19T21:22:52Z</time>
      </trkpt>
      <trkpt lat="37.412343" lon="-122.240121">
        <ele>93.7</ele>
        <time>2015-07-19T21:22:53Z</time>
      </trkpt>
      <trkpt lat="37.412387" lon="-122.240088">
        <ele>93.9</ele>
        <time>2015-07-19T21:22:54Z</time>
      </trkpt>
      <trkpt lat="37.412428" lon="-122.240048">
        <ele>94.2</ele>
        <time>2015-07-19T21:22:55Z</time>
      </trkpt>
      <trkpt lat="37.412468" lon="-122.240044">
        <ele>94.4</ele>
        <time>2015-07-19T21:22:56Z</time>
      </trkpt>
      <trkpt lat="37.412502" lon="-122.240016">
        <ele>94.5</ele>
        <time>2015-07-19T21:22:57Z</time>
      </trkpt>
      <trkpt lat="37.412535" lon="-122.240006">
        <ele>94.7</ele>
        <time>2015-07-19T21:22:58Z</time>
      </trkpt>
      <trkpt lat="37.412562" lon="-122.239976">
        <ele>94.9</ele>
        <time>2015-07-19T21:22:59Z</time>
      </trkpt>
      <trkpt lat="37.412588" lon="-122.239944">
        <ele>95.1</ele>
        <time>2015-07-19T21:23:00Z</time>
      </trkpt>
      <trkpt lat="37.412617" lon="-122.239924">
        <ele>95.3</ele>
        <time>2015-07-19T21:23:01Z</time>
      </trkpt>
      <trkpt lat="37.412648" lon="-122.239905">
        <ele>95.5</ele>
        <time>2015-07-19T21:23:02Z</time>
      </trkpt>
      <trkpt lat="37.412676" lon="-122.239882">
        <ele>95.6</ele>
        <time>2015-07-19T21:23:03Z</time>
      </trkpt>
      <trkpt lat="37.412705" lon="-122.239859">
        <ele>95.8</ele>
        <time>2015-07-19T21:23:04Z</time>
      </trkpt>
      <trkpt lat="37.412732" lon="-122.239841">
        <ele>95.9</ele>
        <time>2015-07-19T21:23:05Z</time>
      </trkpt>
      <trkpt lat="37.412763" lon="-122.239823">
        <ele>96.2</ele>
        <time>2015-07-19T21:23:06Z</time>
      </trkpt>
      <trkpt lat="37.412794" lon="-122.239805">
        <ele>96.3</ele>
        <time>2015-07-19T21:23:07Z</time>
      </trkpt>
      <trkpt lat="37.412821" lon="-122.23979">
        <ele>96.5</ele>
        <time>2015-07-19T21:23:08Z</time>
      </trkpt>
      <trkpt lat="37.412848" lon="-122.239773">
        <ele>96.6</ele>
        <time>2015-07-19T21:23:09Z</time>
      </trkpt>
      <trkpt lat="37.412874" lon="-122.239758">
        <ele>96.8</ele>
        <time>2015-07-19T21:23:10Z</time>
      </trkpt>
      <trkpt lat="37.412899" lon="-122.239744">
        <ele>97</ele>
        <time>2015-07-19T21:23:11Z</time>
      </trkpt>
      <trkpt lat="37.412944" lon="-122.239722">
        <ele>97.3</ele>
        <time>2015-07-19T21:23:13Z</time>
      </trkpt>
      <trkpt lat="37.412997" lon="-122.239696">
        <ele>97.6</ele>
        <time>2015-07-19T21:23:15Z</time>
      </trkpt>
      <trkpt lat="37.413026" lon="-122.239677">
        <ele>97.8</ele>
        <time>2015-07-19T21:23:16Z</time>
      </trkpt>
      <trkpt lat="37.41306" lon="-122.239654">
        <ele>98</ele>
        <time>2015-07-19T21:23:17Z</time>
      </trkpt>
      <trkpt lat="37.41309" lon="-122.239631">
        <ele>98.2</ele>
        <time>2015-07-19T21:23:18Z</time>
      </trkpt>
      <trkpt lat="37.413122" lon="-122.239608">
        <ele>98.4</ele>
        <time>2015-07-19T21:23:19Z</time>
      </trkpt>
      <trkpt lat="37.413153" lon="-122.239587">
        <ele>98.6</ele>
        <time>2015-07-19T21:23:20Z</time>
      </trkpt>
      <trkpt lat="37.413185" lon="-122.239564">
        <ele>98.8</ele>
        <time>2015-07-19T21:23:21Z</time>
      </trkpt>
      <trkpt lat="37.413216" lon="-122.239541">
        <ele>99</ele>
        <time>2015-07-19T21:23:22Z</time>
      </trkpt>
      <trkpt lat="37.413249" lon="-122.23952">
        <ele>99.2</ele>
        <time>2015-07-19T21:23:23Z</time>
      </trkpt>
      <trkpt lat="37.413286" lon="-122.239513">
        <ele>99.4</ele>
        <time>2015-07-19T21:23:24Z</time>
      </trkpt>
      <trkpt lat="37.413313" lon="-122.239482">
        <ele>99.6</ele>
        <time>2015-07-19T21:23:25Z</time>
      </trkpt>
      <trkpt lat="37.413346" lon="-122.239466">
        <ele>99.8</ele>
        <time>2015-07-19T21:23:26Z</time>
      </trkpt>
      <trkpt lat="37.413379" lon="-122.239452">
        <ele>100</ele>
        <time>2015-07-19T21:23:27Z</time>
      </trkpt>
      <trkpt lat="37.413412" lon="-122.239436">
        <ele>100.2</ele>
        <time>2015-07-19T21:23:28Z</time>
      </trkpt>
      <trkpt lat="37.413449" lon="-122.239429">
        <ele>100.4</ele>
        <time>2015-07-19T21:23:30Z</time>
      </trkpt>
      <trkpt lat="37.413679" lon="-122.239316">
        <ele>101.8</ele>
        <time>2015-07-19T21:23:36Z</time>
      </trkpt>
      <trkpt lat="37.413715" lon="-122.2393">
        <ele>102</ele>
        <time>2015-07-19T21:23:37Z</time>
      </trkpt>
      <trkpt lat="37.41375" lon="-122.239285">
        <ele>102.2</ele>
        <time>2015-07-19T21:23:38Z</time>
      </trkpt>
      <trkpt lat="37.413788" lon="-122.239268">
        <ele>102.5</ele>
        <time>2015-07-19T21:23:39Z</time>
      </trkpt>
      <trkpt lat="37.413825" lon="-122.239252">
        <ele>102.7</ele>
        <time>2015-07-19T21:23:40Z</time>
      </trkpt>
      <trkpt lat="37.413861" lon="-122.239233">
        <ele>102.9</ele>
        <time>2015-07-19T21:23:41Z</time>
      </trkpt>
      <trkpt lat="37.413899" lon="-122.239213">
        <ele>103.2</ele>
        <time>2015-07-19T21:23:42Z</time>
      </trkpt>
      <trkpt lat="37.413932" lon="-122.239195">
        <ele>103.3</ele>
        <time>2015-07-19T21:23:43Z</time>
      </trkpt>
      <trkpt lat="37.413966" lon="-122.239175">
        <ele>103.6</ele>
        <time>2015-07-19T21:23:44Z</time>
      </trkpt>
      <trkpt lat="37.413999" lon="-122.239153">
        <ele>103.8</ele>
        <time>2015-07-19T21:23:45Z</time>
      </trkpt>
      <trkpt lat="37.41403" lon="-122.239129">
        <ele>103.9</ele>
        <time>2015-07-19T21:23:46Z</time>
      </trkpt>
      <trkpt lat="37.41406" lon="-122.239106">
        <ele>104.1</ele>
        <time>2015-07-19T21:23:47Z</time>
      </trkpt>
      <trkpt lat="37.41409" lon="-122.239082">
        <ele>104.3</ele>
        <time>2015-07-19T21:23:48Z</time>
      </trkpt>
      <trkpt lat="37.414121" lon="-122.23906">
        <ele>104.4</ele>
        <time>2015-07-19T21:23:49Z</time>
      </trkpt>
      <trkpt lat="37.414152" lon="-122.239039">
        <ele>104.6</ele>
        <time>2015-07-19T21:23:50Z</time>
      </trkpt>
      <trkpt lat="37.414182" lon="-122.239017">
        <ele>104.8</ele>
        <time>2015-07-19T21:23:51Z</time>
      </trkpt>
      <trkpt lat="37.414211" lon="-122.238994">
        <ele>104.9</ele>
        <time>2015-07-19T21:23:52Z</time>
      </trkpt>
      <trkpt lat="37.414243" lon="-122.23897">
        <ele>105.1</ele>
        <time>2015-07-19T21:23:53Z</time>
      </trkpt>
      <trkpt lat="37.414274" lon="-122.238947">
        <ele>105.3</ele>
        <time>2015-07-19T21:23:54Z</time>
      </trkpt>
      <trkpt lat="37.414303" lon="-122.238925">
        <ele>105.4</ele>
        <time>2015-07-19T21:23:55Z</time>
      </trkpt>
      <trkpt lat="37.414331" lon="-122.238904">
        <ele>105.6</ele>
        <time>2015-07-19T21:23:56Z</time>
      </trkpt>
      <trkpt lat="37.414361" lon="-122.23888">
        <ele>105.7</ele>
        <time>2015-07-19T21:23:57Z</time>
      </trkpt>
      <trkpt lat="37.414391" lon="-122.238853">
        <ele>105.8</ele>
        <time>2015-07-19T21:23:58Z</time>
      </trkpt>
      <trkpt lat="37.41442" lon="-122.238828">
        <ele>105.9</ele>
        <time>2015-07-19T21:23:59Z</time>
      </trkpt>
      <trkpt lat="37.414451" lon="-122.238802">
        <ele>106</ele>
        <time>2015-07-19T21:24:00Z</time>
      </trkpt>
      <trkpt lat="37.414477" lon="-122.238781">
        <ele>106.2</ele>
        <time>2015-07-19T21:24:01Z</time>
      </trkpt>
      <trkpt lat="37.414506" lon="-122.23876">
        <ele>106.4</ele>
        <time>2015-07-19T21:24:02Z</time>
      </trkpt>
      <trkpt lat="37.414536" lon="-122.238735">
        <ele>106.5</ele>
        <time>2015-07-19T21:24:03Z</time>
      </trkpt>
      <trkpt lat="37.414565" lon="-122.238712">
        <ele>106.6</ele>
        <time>2015-07-19T21:24:04Z</time>
      </trkpt>
      <trkpt lat="37.414594" lon="-122.238686">
        <ele>106.7</ele>
        <time>2015-07-19T21:24:05Z</time>
      </trkpt>
      <trkpt lat="37.414625" lon="-122.238659">
        <ele>106.9</ele>
        <time>2015-07-19T21:24:06Z</time>
      </trkpt>
      <trkpt lat="37.414653" lon="-122.238634">
        <ele>107</ele>
        <time>2015-07-19T21:24:07Z</time>
      </trkpt>
      <trkpt lat="37.414683" lon="-122.238608">
        <ele>107.1</ele>
        <time>2015-07-19T21:24:08Z</time>
      </trkpt>
      <trkpt lat="37.414714" lon="-122.238579">
        <ele>107.2</ele>
        <time>2015-07-19T21:24:09Z</time>
      </trkpt>
      <trkpt lat="37.414745" lon="-122.238551">
        <ele>107.4</ele>
        <time>2015-07-19T21:24:10Z</time>
      </trkpt>
      <trkpt lat="37.414773" lon="-122.238527">
        <ele>107.5</ele>
        <time>2015-07-19T21:24:11Z</time>
      </trkpt>
      <trkpt lat="37.414805" lon="-122.2385">
        <ele>107.7</ele>
        <time>2015-07-19T21:24:12Z</time>
      </trkpt>
      <trkpt lat="37.414837" lon="-122.238473">
        <ele>107.9</ele>
        <time>2015-07-19T21:24:13Z</time>
      </trkpt>
      <trkpt lat="37.414867" lon="-122.238447">
        <ele>108</ele>
        <time>2015-07-19T21:24:14Z</time>
      </trkpt>
      <trkpt lat="37.414895" lon="-122.238422">
        <ele>108.2</ele>
        <time>2015-07-19T21:24:15Z</time>
      </trkpt>
      <trkpt lat="37.41492" lon="-122.238397">
        <ele>108.2</ele>
        <time>2015-07-19T21:24:16Z</time>
      </trkpt>
      <trkpt lat="37.414946" lon="-122.238371">
        <ele>108.3</ele>
        <time>2015-07-19T21:24:17Z</time>
      </trkpt>
      <trkpt lat="37.414973" lon="-122.238344">
        <ele>108.5</ele>
        <time>2015-07-19T21:24:18Z</time>
      </trkpt>
      <trkpt lat="37.415002" lon="-122.238316">
        <ele>108.6</ele>
        <time>2015-07-19T21:24:19Z</time>
      </trkpt>
      <trkpt lat="37.415028" lon="-122.23829">
        <ele>108.7</ele>
        <time>2015-07-19T21:24:20Z</time>
      </trkpt>
      <trkpt lat="37.415056" lon="-122.23826">
        <ele>108.9</ele>
        <time>2015-07-19T21:24:21Z</time>
      </trkpt>
      <trkpt lat="37.415086" lon="-122.238229">
        <ele>109</ele>
        <time>2015-07-19T21:24:22Z</time>
      </trkpt>
      <trkpt lat="37.415115" lon="-122.238199">
        <ele>109.1</ele>
        <time>2015-07-19T21:24:23Z</time>
      </trkpt>
      <trkpt lat="37.415145" lon="-122.238168">
        <ele>109.3</ele>
        <time>2015-07-19T21:24:24Z</time>
      </trkpt>
      <trkpt lat="37.41517" lon="-122.238141">
        <ele>109.4</ele>
        <time>2015-07-19T21:24:25Z</time>
      </trkpt>
      <trkpt lat="37.415197" lon="-122.238112">
        <ele>109.6</ele>
        <time>2015-07-19T21:24:26Z</time>
      </trkpt>
      <trkpt lat="37.415222" lon="-122.238084">
        <ele>109.7</ele>
        <time>2015-07-19T21:24:27Z</time>
      </trkpt>
      <trkpt lat="37.41525" lon="-122.238052">
        <ele>109.8</ele>
        <time>2015-07-19T21:24:28Z</time>
      </trkpt>
      <trkpt lat="37.415275" lon="-122.238024">
        <ele>109.9</ele>
        <time>2015-07-19T21:24:29Z</time>
      </trkpt>
      <trkpt lat="37.415302" lon="-122.237993">
        <ele>110</ele>
        <time>2015-07-19T21:24:30Z</time>
      </trkpt>
      <trkpt lat="37.415329" lon="-122.237964">
        <ele>110.2</ele>
        <time>2015-07-19T21:24:31Z</time>
      </trkpt>
      <trkpt lat="37.415355" lon="-122.237934">
        <ele>110.3</ele>
        <time>2015-07-19T21:24:32Z</time>
      </trkpt>
      <trkpt lat="37.415383" lon="-122.237901">
        <ele>110.5</ele>
        <time>2015-07-19T21:24:33Z</time>
      </trkpt>
      <trkpt lat="37.415407" lon="-122.237873">
        <ele>110.5</ele>
        <time>2015-07-19T21:24:34Z</time>
      </trkpt>
      <trkpt lat="37.415436" lon="-122.237839">
        <ele>110.7</ele>
        <time>2015-07-19T21:24:35Z</time>
      </trkpt>
      <trkpt lat="37.415465" lon="-122.237806">
        <ele>110.8</ele>
        <time>2015-07-19T21:24:36Z</time>
      </trkpt>
      <trkpt lat="37.415491" lon="-122.237776">
        <ele>111</ele>
        <time>2015-07-19T21:24:37Z</time>
      </trkpt>
      <trkpt lat="37.415514" lon="-122.237751">
        <ele>111.1</ele>
        <time>2015-07-19T21:24:38Z</time>
      </trkpt>
      <trkpt lat="37.415546" lon="-122.237713">
        <ele>111.3</ele>
        <time>2015-07-19T21:24:39Z</time>
      </trkpt>
      <trkpt lat="37.415576" lon="-122.23768">
        <ele>111.4</ele>
        <time>2015-07-19T21:24:40Z</time>
      </trkpt>
      <trkpt lat="37.415602" lon="-122.237649">
        <ele>111.6</ele>
        <time>2015-07-19T21:24:41Z</time>
      </trkpt>
      <trkpt lat="37.41563" lon="-122.237613">
        <ele>111.8</ele>
        <time>2015-07-19T21:24:42Z</time>
      </trkpt>
      <trkpt lat="37.415654" lon="-122.23758">
        <ele>111.9</ele>
        <time>2015-07-19T21:24:43Z</time>
      </trkpt>
      <trkpt lat="37.415696" lon="-122.237528">
        <ele>112.1</ele>
        <time>2015-07-19T21:24:45Z</time>
      </trkpt>
      <trkpt lat="37.415718" lon="-122.237502">
        <ele>112.3</ele>
        <time>2015-07-19T21:24:46Z</time>
      </trkpt>
      <trkpt lat="37.415738" lon="-122.237476">
        <ele>112.4</ele>
        <time>2015-07-19T21:24:47Z</time>
      </trkpt>
      <trkpt lat="37.415764" lon="-122.237438">
        <ele>112.5</ele>
        <time>2015-07-19T21:24:48Z</time>
      </trkpt>
      <trkpt lat="37.415804" lon="-122.237374">
        <ele>112.7</ele>
        <time>2015-07-19T21:24:50Z</time>
      </trkpt>
      <trkpt lat="37.415828" lon="-122.237337">
        <ele>112.8</ele>
        <time>2015-07-19T21:24:51Z</time>
      </trkpt>
      <trkpt lat="37.415854" lon="-122.237298">
        <ele>113</ele>
        <time>2015-07-19T21:24:52Z</time>
      </trkpt>
      <trkpt lat="37.415879" lon="-122.23726">
        <ele>113.2</ele>
        <time>2015-07-19T21:24:53Z</time>
      </trkpt>
      <trkpt lat="37.415901" lon="-122.237225">
        <ele>113.2</ele>
        <time>2015-07-19T21:24:54Z</time>
      </trkpt>
      <trkpt lat="37.415922" lon="-122.237194">
        <ele>113.3</ele>
        <time>2015-07-19T21:24:55Z</time>
      </trkpt>
      <trkpt lat="37.415949" lon="-122.237152">
        <ele>113.5</ele>
        <time>2015-07-19T21:24:56Z</time>
      </trkpt>
      <trkpt lat="37.415973" lon="-122.237114">
        <ele>113.8</ele>
        <time>2015-07-19T21:24:57Z</time>
      </trkpt>
      <trkpt lat="37.415994" lon="-122.237078">
        <ele>113.8</ele>
        <time>2015-07-19T21:24:58Z</time>
      </trkpt>
      <trkpt lat="37.416013" lon="-122.237046">
        <ele>113.9</ele>
        <time>2015-07-19T21:24:59Z</time>
      </trkpt>
      <trkpt lat="37.416034" lon="-122.23701">
        <ele>114</ele>
        <time>2015-07-19T21:25:00Z</time>
      </trkpt>
      <trkpt lat="37.416054" lon="-122.236977">
        <ele>114.1</ele>
        <time>2015-07-19T21:25:01Z</time>
      </trkpt>
      <trkpt lat="37.416076" lon="-122.236938">
        <ele>114.2</ele>
        <time>2015-07-19T21:25:02Z</time>
      </trkpt>
      <trkpt lat="37.416098" lon="-122.236899">
        <ele>114.3</ele>
        <time>2015-07-19T21:25:03Z</time>
      </trkpt>
      <trkpt lat="37.416119" lon="-122.236862">
        <ele>114.5</ele>
        <time>2015-07-19T21:25:04Z</time>
      </trkpt>
      <trkpt lat="37.416142" lon="-122.236822">
        <ele>114.6</ele>
        <time>2015-07-19T21:25:05Z</time>
      </trkpt>
      <trkpt lat="37.416164" lon="-122.236783">
        <ele>114.8</ele>
        <time>2015-07-19T21:25:06Z</time>
      </trkpt>
      <trkpt lat="37.416184" lon="-122.236745">
        <ele>114.9</ele>
        <time>2015-07-19T21:25:07Z</time>
      </trkpt>
      <trkpt lat="37.416204" lon="-122.236706">
        <ele>115</ele>
        <time>2015-07-19T21:25:08Z</time>
      </trkpt>
      <trkpt lat="37.416224" lon="-122.236668">
        <ele>115.2</ele>
        <time>2015-07-19T21:25:09Z</time>
      </trkpt>
      <trkpt lat="37.416245" lon="-122.236631">
        <ele>115.3</ele>
        <time>2015-07-19T21:25:10Z</time>
      </trkpt>
      <trkpt lat="37.416264" lon="-122.236594">
        <ele>115.4</ele>
        <time>2015-07-19T21:25:11Z</time>
      </trkpt>
      <trkpt lat="37.416284" lon="-122.236555">
        <ele>115.6</ele>
        <time>2015-07-19T21:25:12Z</time>
      </trkpt>
      <trkpt lat="37.416306" lon="-122.236512">
        <ele>115.7</ele>
        <time>2015-07-19T21:25:13Z</time>
      </trkpt>
      <trkpt lat="37.416327" lon="-122.236471">
        <ele>115.8</ele>
        <time>2015-07-19T21:25:14Z</time>
      </trkpt>
      <trkpt lat="37.416345" lon="-122.236433">
        <ele>115.9</ele>
        <time>2015-07-19T21:25:15Z</time>
      </trkpt>
      <trkpt lat="37.416363" lon="-122.236398">
        <ele>116</ele>
        <time>2015-07-19T21:25:16Z</time>
      </trkpt>
      <trkpt lat="37.416384" lon="-122.236354">
        <ele>116.2</ele>
        <time>2015-07-19T21:25:17Z</time>
      </trkpt>
      <trkpt lat="37.416406" lon="-122.23631">
        <ele>116.4</ele>
        <time>2015-07-19T21:25:18Z</time>
      </trkpt>
      <trkpt lat="37.416423" lon="-122.236273">
        <ele>116.5</ele>
        <time>2015-07-19T21:25:19Z</time>
      </trkpt>
      <trkpt lat="37.416442" lon="-122.236231">
        <ele>116.6</ele>
        <time>2015-07-19T21:25:20Z</time>
      </trkpt>
      <trkpt lat="37.416461" lon="-122.236192">
        <ele>116.7</ele>
        <time>2015-07-19T21:25:21Z</time>
      </trkpt>
      <trkpt lat="37.416479" lon="-122.236147">
        <ele>116.8</ele>
        <time>2015-07-19T21:25:22Z</time>
      </trkpt>
      <trkpt lat="37.416499" lon="-122.236102">
        <ele>117</ele>
        <time>2015-07-19T21:25:23Z</time>
      </trkpt>
      <trkpt lat="37.416517" lon="-122.236063">
        <ele>117.1</ele>
        <time>2015-07-19T21:25:24Z</time>
      </trkpt>
      <trkpt lat="37.416537" lon="-122.236022">
        <ele>117.3</ele>
        <time>2015-07-19T21:25:25Z</time>
      </trkpt>
      <trkpt lat="37.416556" lon="-122.235988">
        <ele>117.4</ele>
        <time>2015-07-19T21:25:26Z</time>
      </trkpt>
      <trkpt lat="37.416572" lon="-122.235952">
        <ele>117.5</ele>
        <time>2015-07-19T21:25:27Z</time>
      </trkpt>
      <trkpt lat="37.416591" lon="-122.235911">
        <ele>117.7</ele>
        <time>2015-07-19T21:25:28Z</time>
      </trkpt>
      <trkpt lat="37.416609" lon="-122.235872">
        <ele>117.7</ele>
        <time>2015-07-19T21:25:29Z</time>
      </trkpt>
      <trkpt lat="37.416628" lon="-122.235833">
        <ele>117.9</ele>
        <time>2015-07-19T21:25:30Z</time>
      </trkpt>
      <trkpt lat="37.416646" lon="-122.235794">
        <ele>118</ele>
        <time>2015-07-19T21:25:31Z</time>
      </trkpt>
      <trkpt lat="37.416667" lon="-122.235749">
        <ele>118.1</ele>
        <time>2015-07-19T21:25:32Z</time>
      </trkpt>
      <trkpt lat="37.416686" lon="-122.235708">
        <ele>118.2</ele>
        <time>2015-07-19T21:25:33Z</time>
      </trkpt>
      <trkpt lat="37.416705" lon="-122.235666">
        <ele>118.4</ele>
        <time>2015-07-19T21:25:34Z</time>
      </trkpt>
      <trkpt lat="37.416725" lon="-122.235623">
        <ele>118.5</ele>
        <time>2015-07-19T21:25:35Z</time>
      </trkpt>
      <trkpt lat="37.416744" lon="-122.235584">
        <ele>118.7</ele>
        <time>2015-07-19T21:25:36Z</time>
      </trkpt>
      <trkpt lat="37.416763" lon="-122.235542">
        <ele>118.7</ele>
        <time>2015-07-19T21:25:37Z</time>
      </trkpt>
      <trkpt lat="37.416782" lon="-122.235501">
        <ele>118.9</ele>
        <time>2015-07-19T21:25:38Z</time>
      </trkpt>
      <trkpt lat="37.416799" lon="-122.235464">
        <ele>119</ele>
        <time>2015-07-19T21:25:39Z</time>
      </trkpt>
      <trkpt lat="37.416817" lon="-122.235424">
        <ele>119.1</ele>
        <time>2015-07-19T21:25:40Z</time>
      </trkpt>
      <trkpt lat="37.416837" lon="-122.235384">
        <ele>119.3</ele>
        <time>2015-07-19T21:25:41Z</time>
      </trkpt>
      <trkpt lat="37.416856" lon="-122.235347">
        <ele>119.4</ele>
        <time>2015-07-19T21:25:42Z</time>
      </trkpt>
      <trkpt lat="37.416873" lon="-122.23531">
        <ele>119.6</ele>
        <time>2015-07-19T21:25:43Z</time>
      </trkpt>
      <trkpt lat="37.416891" lon="-122.23527">
        <ele>119.7</ele>
        <time>2015-07-19T21:25:44Z</time>
      </trkpt>
      <trkpt lat="37.416908" lon="-122.235232">
        <ele>119.8</ele>
        <time>2015-07-19T21:25:45Z</time>
      </trkpt>
      <trkpt lat="37.416923" lon="-122.235199">
        <ele>119.9</ele>
        <time>2015-07-19T21:25:46Z</time>
      </trkpt>
      <trkpt lat="37.416943" lon="-122.235154">
        <ele>120</ele>
        <time>2015-07-19T21:25:47Z</time>
      </trkpt>
      <trkpt lat="37.41696" lon="-122.235118">
        <ele>120.2</ele>
        <time>2015-07-19T21:25:48Z</time>
      </trkpt>
      <trkpt lat="37.416981" lon="-122.235073">
        <ele>120.3</ele>
        <time>2015-07-19T21:25:49Z</time>
      </trkpt>
      <trkpt lat="37.417001" lon="-122.235032">
        <ele>120.5</ele>
        <time>2015-07-19T21:25:50Z</time>
      </trkpt>
      <trkpt lat="37.41702" lon="-122.234992">
        <ele>120.7</ele>
        <time>2015-07-19T21:25:51Z</time>
      </trkpt>
      <trkpt lat="37.417041" lon="-122.23495">
        <ele>120.8</ele>
        <time>2015-07-19T21:25:52Z</time>
      </trkpt>
      <trkpt lat="37.417059" lon="-122.234912">
        <ele>121</ele>
        <time>2015-07-19T21:25:53Z</time>
      </trkpt>
      <trkpt lat="37.417083" lon="-122.234865">
        <ele>121.1</ele>
        <time>2015-07-19T21:25:54Z</time>
      </trkpt>
      <trkpt lat="37.417104" lon="-122.234822">
        <ele>121.2</ele>
        <time>2015-07-19T21:25:55Z</time>
      </trkpt>
      <trkpt lat="37.417124" lon="-122.234778">
        <ele>121.4</ele>
        <time>2015-07-19T21:25:56Z</time>
      </trkpt>
      <trkpt lat="37.417144" lon="-122.234739">
        <ele>121.6</ele>
        <time>2015-07-19T21:25:57Z</time>
      </trkpt>
      <trkpt lat="37.417166" lon="-122.234695">
        <ele>121.7</ele>
        <time>2015-07-19T21:25:58Z</time>
      </trkpt>
      <trkpt lat="37.417187" lon="-122.23465">
        <ele>121.9</ele>
        <time>2015-07-19T21:25:59Z</time>
      </trkpt>
      <trkpt lat="37.417207" lon="-122.234606">
        <ele>122</ele>
        <time>2015-07-19T21:26:00Z</time>
      </trkpt>
      <trkpt lat="37.417228" lon="-122.234561">
        <ele>122.1</ele>
        <time>2015-07-19T21:26:01Z</time>
      </trkpt>
      <trkpt lat="37.417248" lon="-122.23452">
        <ele>122.3</ele>
        <time>2015-07-19T21:26:02Z</time>
      </trkpt>
      <trkpt lat="37.417269" lon="-122.234476">
        <ele>122.4</ele>
        <time>2015-07-19T21:26:03Z</time>
      </trkpt>
      <trkpt lat="37.417289" lon="-122.234434">
        <ele>122.5</ele>
        <time>2015-07-19T21:26:04Z</time>
      </trkpt>
      <trkpt lat="37.41731" lon="-122.23439">
        <ele>122.7</ele>
        <time>2015-07-19T21:26:05Z</time>
      </trkpt>
      <trkpt lat="37.41733" lon="-122.234346">
        <ele>122.8</ele>
        <time>2015-07-19T21:26:06Z</time>
      </trkpt>
      <trkpt lat="37.417351" lon="-122.2343">
        <ele>123</ele>
        <time>2015-07-19T21:26:07Z</time>
      </trkpt>
      <trkpt lat="37.41737" lon="-122.234254">
        <ele>123.1</ele>
        <time>2015-07-19T21:26:08Z</time>
      </trkpt>
      <trkpt lat="37.417389" lon="-122.234213">
        <ele>123.3</ele>
        <time>2015-07-19T21:26:09Z</time>
      </trkpt>
      <trkpt lat="37.417404" lon="-122.234178">
        <ele>123.4</ele>
        <time>2015-07-19T21:26:10Z</time>
      </trkpt>
      <trkpt lat="37.417419" lon="-122.234141">
        <ele>123.5</ele>
        <time>2015-07-19T21:26:11Z</time>
      </trkpt>
      <trkpt lat="37.417432" lon="-122.234107">
        <ele>123.6</ele>
        <time>2015-07-19T21:26:12Z</time>
      </trkpt>
      <trkpt lat="37.417448" lon="-122.234073">
        <ele>123.8</ele>
        <time>2015-07-19T21:26:13Z</time>
      </trkpt>
      <trkpt lat="37.417462" lon="-122.234039">
        <ele>124</ele>
        <time>2015-07-19T21:26:14Z</time>
      </trkpt>
      <trkpt lat="37.417478" lon="-122.234008">
        <ele>124.1</ele>
        <time>2015-07-19T21:26:15Z</time>
      </trkpt>
      <trkpt lat="37.417507" lon="-122.233949">
        <ele>124.3</ele>
        <time>2015-07-19T21:26:17Z</time>
      </trkpt>
      <trkpt lat="37.417523" lon="-122.233913">
        <ele>124.4</ele>
        <time>2015-07-19T21:26:18Z</time>
      </trkpt>
      <trkpt lat="37.41755" lon="-122.233851">
        <ele>124.7</ele>
        <time>2015-07-19T21:26:20Z</time>
      </trkpt>
      <trkpt lat="37.417565" lon="-122.233818">
        <ele>124.7</ele>
        <time>2015-07-19T21:26:21Z</time>
      </trkpt>
      <trkpt lat="37.41758" lon="-122.233788">
        <ele>124.9</ele>
        <time>2015-07-19T21:26:22Z</time>
      </trkpt>
      <trkpt lat="37.417594" lon="-122.233754">
        <ele>125</ele>
        <time>2015-07-19T21:26:23Z</time>
      </trkpt>
      <trkpt lat="37.417608" lon="-122.23372">
        <ele>125.1</ele>
        <time>2015-07-19T21:26:24Z</time>
      </trkpt>
      <trkpt lat="37.417619" lon="-122.233688">
        <ele>125.1</ele>
        <time>2015-07-19T21:26:25Z</time>
      </trkpt>
      <trkpt lat="37.417636" lon="-122.233651">
        <ele>125.2</ele>
        <time>2015-07-19T21:26:26Z</time>
      </trkpt>
      <trkpt lat="37.417656" lon="-122.233611">
        <ele>125.4</ele>
        <time>2015-07-19T21:26:27Z</time>
      </trkpt>
      <trkpt lat="37.417671" lon="-122.233579">
        <ele>125.5</ele>
        <time>2015-07-19T21:26:28Z</time>
      </trkpt>
      <trkpt lat="37.417687" lon="-122.233546">
        <ele>125.7</ele>
        <time>2015-07-19T21:26:29Z</time>
      </trkpt>
      <trkpt lat="37.417702" lon="-122.23351">
        <ele>125.8</ele>
        <time>2015-07-19T21:26:30Z</time>
      </trkpt>
      <trkpt lat="37.417717" lon="-122.233473">
        <ele>125.9</ele>
        <time>2015-07-19T21:26:31Z</time>
      </trkpt>
      <trkpt lat="37.417734" lon="-122.233435">
        <ele>126.1</ele>
        <time>2015-07-19T21:26:32Z</time>
      </trkpt>
      <trkpt lat="37.417751" lon="-122.233397">
        <ele>126.1</ele>
        <time>2015-07-19T21:26:33Z</time>
      </trkpt>
      <trkpt lat="37.417766" lon="-122.233364">
        <ele>126.2</ele>
        <time>2015-07-19T21:26:34Z</time>
      </trkpt>
      <trkpt lat="37.417784" lon="-122.233326">
        <ele>126.4</ele>
        <time>2015-07-19T21:26:35Z</time>
      </trkpt>
      <trkpt lat="37.417802" lon="-122.23329">
        <ele>126.5</ele>
        <time>2015-07-19T21:26:36Z</time>
      </trkpt>
      <trkpt lat="37.417819" lon="-122.233252">
        <ele>126.6</ele>
        <time>2015-07-19T21:26:37Z</time>
      </trkpt>
      <trkpt lat="37.417837" lon="-122.233212">
        <ele>126.8</ele>
        <time>2015-07-19T21:26:38Z</time>
      </trkpt>
      <trkpt lat="37.417854" lon="-122.233177">
        <ele>126.9</ele>
        <time>2015-07-19T21:26:39Z</time>
      </trkpt>
      <trkpt lat="37.417873" lon="-122.233135">
        <ele>127</ele>
        <time>2015-07-19T21:26:40Z</time>
      </trkpt>
      <trkpt lat="37.417892" lon="-122.233094">
        <ele>127.2</ele>
        <time>2015-07-19T21:26:41Z</time>
      </trkpt>
      <trkpt lat="37.41791" lon="-122.233053">
        <ele>127.3</ele>
        <time>2015-07-19T21:26:42Z</time>
      </trkpt>
      <trkpt lat="37.41793" lon="-122.233009">
        <ele>127.5</ele>
        <time>2015-07-19T21:26:43Z</time>
      </trkpt>
      <trkpt lat="37.417948" lon="-122.232968">
        <ele>127.6</ele>
        <time>2015-07-19T21:26:44Z</time>
      </trkpt>
      <trkpt lat="37.417967" lon="-122.232929">
        <ele>127.7</ele>
        <time>2015-07-19T21:26:45Z</time>
      </trkpt>
      <trkpt lat="37.417985" lon="-122.232889">
        <ele>127.9</ele>
        <time>2015-07-19T21:26:46Z</time>
      </trkpt>
      <trkpt lat="37.418003" lon="-122.23285">
        <ele>128.1</ele>
        <time>2015-07-19T21:26:47Z</time>
      </trkpt>
      <trkpt lat="37.418019" lon="-122.23281">
        <ele>128.2</ele>
        <time>2015-07-19T21:26:48Z</time>
      </trkpt>
      <trkpt lat="37.418037" lon="-122.232767">
        <ele>128.3</ele>
        <time>2015-07-19T21:26:49Z</time>
      </trkpt>
      <trkpt lat="37.418052" lon="-122.23273">
        <ele>128.4</ele>
        <time>2015-07-19T21:26:50Z</time>
      </trkpt>
      <trkpt lat="37.418069" lon="-122.232687">
        <ele>128.7</ele>
        <time>2015-07-19T21:26:51Z</time>
      </trkpt>
      <trkpt lat="37.418084" lon="-122.232647">
        <ele>128.7</ele>
        <time>2015-07-19T21:26:52Z</time>
      </trkpt>
      <trkpt lat="37.418098" lon="-122.232611">
        <ele>128.9</ele>
        <time>2015-07-19T21:26:53Z</time>
      </trkpt>
      <trkpt lat="37.418111" lon="-122.232573">
        <ele>128.9</ele>
        <time>2015-07-19T21:26:54Z</time>
      </trkpt>
      <trkpt lat="37.418124" lon="-122.232536">
        <ele>129.1</ele>
        <time>2015-07-19T21:26:55Z</time>
      </trkpt>
      <trkpt lat="37.418136" lon="-122.232503">
        <ele>129.1</ele>
        <time>2015-07-19T21:26:56Z</time>
      </trkpt>
      <trkpt lat="37.418147" lon="-122.232471">
        <ele>129.3</ele>
        <time>2015-07-19T21:26:57Z</time>
      </trkpt>
      <trkpt lat="37.418159" lon="-122.232436">
        <ele>129.4</ele>
        <time>2015-07-19T21:26:58Z</time>
      </trkpt>
      <trkpt lat="37.418178" lon="-122.232376">
        <ele>129.5</ele>
        <time>2015-07-19T21:27:00Z</time>
      </trkpt>
      <trkpt lat="37.41819" lon="-122.232344">
        <ele>129.6</ele>
        <time>2015-07-19T21:27:02Z</time>
      </trkpt>
      <trkpt lat="37.418203" lon="-122.232305">
        <ele>129.6</ele>
        <time>2015-07-19T21:27:04Z</time>
      </trkpt>
      <trkpt lat="37.418238" lon="-122.23228">
        <ele>130</ele>
        <time>2015-07-19T21:27:58Z</time>
      </trkpt>
      <trkpt lat="37.418254" lon="-122.232247">
        <ele>130.1</ele>
        <time>2015-07-19T21:28:00Z</time>
      </trkpt>
      <trkpt lat="37.418276" lon="-122.232227">
        <ele>130.3</ele>
        <time>2015-07-19T21:28:01Z</time>
      </trkpt>
      <trkpt lat="37.418309" lon="-122.232284">
        <ele>130.9</ele>
        <time>2015-07-19T21:28:04Z</time>
      </trkpt>
      <trkpt lat="37.418307" lon="-122.232364">
        <ele>132.1</ele>
        <time>2015-07-19T21:28:06Z</time>
      </trkpt>
      <trkpt lat="37.418293" lon="-122.232414">
        <ele>132</ele>
        <time>2015-07-19T21:28:07Z</time>
      </trkpt>
      <trkpt lat="37.418276" lon="-122.232465">
        <ele>131.5</ele>
        <time>2015-07-19T21:28:08Z</time>
      </trkpt>
      <trkpt lat="37.418246" lon="-122.232524">
        <ele>130.4</ele>
        <time>2015-07-19T21:28:10Z</time>
      </trkpt>
      <trkpt lat="37.418193" lon="-122.23263">
        <ele>129.5</ele>
        <time>2015-07-19T21:28:11Z</time>
      </trkpt>
      <trkpt lat="37.41817" lon="-122.232688">
        <ele>129.3</ele>
        <time>2015-07-19T21:28:12Z</time>
      </trkpt>
      <trkpt lat="37.418126" lon="-122.232749">
        <ele>129</ele>
        <time>2015-07-19T21:28:13Z</time>
      </trkpt>
      <trkpt lat="37.418093" lon="-122.232818">
        <ele>128.7</ele>
        <time>2015-07-19T21:28:14Z</time>
      </trkpt>
      <trkpt lat="37.418068" lon="-122.232874">
        <ele>128.5</ele>
        <time>2015-07-19T21:28:15Z</time>
      </trkpt>
      <trkpt lat="37.418039" lon="-122.232937">
        <ele>128.3</ele>
        <time>2015-07-19T21:28:16Z</time>
      </trkpt>
      <trkpt lat="37.417996" lon="-122.233019">
        <ele>127.9</ele>
        <time>2015-07-19T21:28:17Z</time>
      </trkpt>
      <trkpt lat="37.417969" lon="-122.233091">
        <ele>127.7</ele>
        <time>2015-07-19T21:28:18Z</time>
      </trkpt>
      <trkpt lat="37.417942" lon="-122.233155">
        <ele>127.5</ele>
        <time>2015-07-19T21:28:19Z</time>
      </trkpt>
      <trkpt lat="37.417896" lon="-122.233245">
        <ele>127</ele>
        <time>2015-07-19T21:28:20Z</time>
      </trkpt>
      <trkpt lat="37.417857" lon="-122.233333">
        <ele>126.8</ele>
        <time>2015-07-19T21:28:21Z</time>
      </trkpt>
      <trkpt lat="37.417822" lon="-122.233399">
        <ele>126.4</ele>
        <time>2015-07-19T21:28:22Z</time>
      </trkpt>
      <trkpt lat="37.417787" lon="-122.23347">
        <ele>126.2</ele>
        <time>2015-07-19T21:28:23Z</time>
      </trkpt>
      <trkpt lat="37.417756" lon="-122.233567">
        <ele>125.9</ele>
        <time>2015-07-19T21:28:24Z</time>
      </trkpt>
      <trkpt lat="37.41772" lon="-122.233645">
        <ele>125.6</ele>
        <time>2015-07-19T21:28:25Z</time>
      </trkpt>
      <trkpt lat="37.417681" lon="-122.233726">
        <ele>125.3</ele>
        <time>2015-07-19T21:28:26Z</time>
      </trkpt>
      <trkpt lat="37.417645" lon="-122.233814">
        <ele>124.9</ele>
        <time>2015-07-19T21:28:27Z</time>
      </trkpt>
      <trkpt lat="37.417608" lon="-122.233897">
        <ele>124.6</ele>
        <time>2015-07-19T21:28:28Z</time>
      </trkpt>
      <trkpt lat="37.417575" lon="-122.233987">
        <ele>124.3</ele>
        <time>2015-07-19T21:28:29Z</time>
      </trkpt>
      <trkpt lat="37.417535" lon="-122.234064">
        <ele>124</ele>
        <time>2015-07-19T21:28:30Z</time>
      </trkpt>
      <trkpt lat="37.4175" lon="-122.234133">
        <ele>123.7</ele>
        <time>2015-07-19T21:28:31Z</time>
      </trkpt>
      <trkpt lat="37.417471" lon="-122.234204">
        <ele>123.4</ele>
        <time>2015-07-19T21:28:32Z</time>
      </trkpt>
      <trkpt lat="37.417442" lon="-122.234275">
        <ele>123.1</ele>
        <time>2015-07-19T21:28:33Z</time>
      </trkpt>
      <trkpt lat="37.417399" lon="-122.234352">
        <ele>122.8</ele>
        <time>2015-07-19T21:28:34Z</time>
      </trkpt>
      <trkpt lat="37.417367" lon="-122.234417">
        <ele>122.6</ele>
        <time>2015-07-19T21:28:35Z</time>
      </trkpt>
      <trkpt lat="37.417338" lon="-122.234481">
        <ele>122.4</ele>
        <time>2015-07-19T21:28:36Z</time>
      </trkpt>
      <trkpt lat="37.417304" lon="-122.234558">
        <ele>122.2</ele>
        <time>2015-07-19T21:28:37Z</time>
      </trkpt>
      <trkpt lat="37.417265" lon="-122.23463">
        <ele>121.8</ele>
        <time>2015-07-19T21:28:38Z</time>
      </trkpt>
      <trkpt lat="37.417235" lon="-122.234706">
        <ele>121.6</ele>
        <time>2015-07-19T21:28:39Z</time>
      </trkpt>
      <trkpt lat="37.417202" lon="-122.234788">
        <ele>121.3</ele>
        <time>2015-07-19T21:28:40Z</time>
      </trkpt>
      <trkpt lat="37.417164" lon="-122.234858">
        <ele>121.1</ele>
        <time>2015-07-19T21:28:41Z</time>
      </trkpt>
      <trkpt lat="37.417134" lon="-122.234935">
        <ele>120.9</ele>
        <time>2015-07-19T21:28:42Z</time>
      </trkpt>
      <trkpt lat="37.417098" lon="-122.235015">
        <ele>120.6</ele>
        <time>2015-07-19T21:28:43Z</time>
      </trkpt>
      <trkpt lat="37.417067" lon="-122.235089">
        <ele>120.3</ele>
        <time>2015-07-19T21:28:44Z</time>
      </trkpt>
      <trkpt lat="37.417037" lon="-122.235153">
        <ele>120.1</ele>
        <time>2015-07-19T21:28:45Z</time>
      </trkpt>
      <trkpt lat="37.417012" lon="-122.235204">
        <ele>119.9</ele>
        <time>2015-07-19T21:28:46Z</time>
      </trkpt>
      <trkpt lat="37.416987" lon="-122.235243">
        <ele>119.8</ele>
        <time>2015-07-19T21:28:47Z</time>
      </trkpt>
      <trkpt lat="37.416971" lon="-122.235311">
        <ele>119.6</ele>
        <time>2015-07-19T21:28:48Z</time>
      </trkpt>
      <trkpt lat="37.416955" lon="-122.235392">
        <ele>119.4</ele>
        <time>2015-07-19T21:28:49Z</time>
      </trkpt>
      <trkpt lat="37.416961" lon="-122.235427">
        <ele>119.5</ele>
        <time>2015-07-19T21:28:50Z</time>
      </trkpt>
      <trkpt lat="37.416999" lon="-122.235488">
        <ele>119.6</ele>
        <time>2015-07-19T21:28:51Z</time>
      </trkpt>
      <trkpt lat="37.417027" lon="-122.235549">
        <ele>119.8</ele>
        <time>2015-07-19T21:28:52Z</time>
      </trkpt>
      <trkpt lat="37.417052" lon="-122.235589">
        <ele>120</ele>
        <time>2015-07-19T21:28:53Z</time>
      </trkpt>
      <trkpt lat="37.417073" lon="-122.235624">
        <ele>120.2</ele>
        <time>2015-07-19T21:28:54Z</time>
      </trkpt>
      <trkpt lat="37.417073" lon="-122.235671">
        <ele>120.3</ele>
        <time>2015-07-19T21:28:55Z</time>
      </trkpt>
      <trkpt lat="37.417035" lon="-122.235681">
        <ele>120.1</ele>
        <time>2015-07-19T21:28:57Z</time>
      </trkpt>
      <trkpt lat="37.417017" lon="-122.23565">
        <ele>120</ele>
        <time>2015-07-19T21:28:58Z</time>
      </trkpt>
      <trkpt lat="37.41699" lon="-122.235606">
        <ele>119.8</ele>
        <time>2015-07-19T21:29:00Z</time>
      </trkpt>
      <trkpt lat="37.416971" lon="-122.235563">
        <ele>119.6</ele>
        <time>2015-07-19T21:29:02Z</time>
      </trkpt>
      <trkpt lat="37.416946" lon="-122.235547">
        <ele>119.5</ele>
        <time>2015-07-19T21:29:05Z</time>
      </trkpt>
      <trkpt lat="37.416918" lon="-122.235544">
        <ele>119.3</ele>
        <time>2015-07-19T21:29:15Z</time>
      </trkpt>
      <trkpt lat="37.416884" lon="-122.235558">
        <ele>119.1</ele>
        <time>2015-07-19T21:29:17Z</time>
      </trkpt>
      <trkpt lat="37.416865" lon="-122.235527">
        <ele>119</ele>
        <time>2015-07-19T21:29:20Z</time>
      </trkpt>
      <trkpt lat="37.416862" lon="-122.235488">
        <ele>119.1</ele>
        <time>2015-07-19T21:29:21Z</time>
      </trkpt>
      <trkpt lat="37.41687" lon="-122.235449">
        <ele>119.2</ele>
        <time>2015-07-19T21:29:22Z</time>
      </trkpt>
      <trkpt lat="37.416885" lon="-122.235413">
        <ele>119.3</ele>
        <time>2015-07-19T21:29:23Z</time>
      </trkpt>
      <trkpt lat="37.416901" lon="-122.235377">
        <ele>119.4</ele>
        <time>2015-07-19T21:29:24Z</time>
      </trkpt>
      <trkpt lat="37.416913" lon="-122.235341">
        <ele>119.6</ele>
        <time>2015-07-19T21:29:25Z</time>
      </trkpt>
      <trkpt lat="37.416946" lon="-122.235299">
        <ele>119.7</ele>
        <time>2015-07-19T21:29:26Z</time>
      </trkpt>
      <trkpt lat="37.41696" lon="-122.235255">
        <ele>119.8</ele>
        <time>2015-07-19T21:29:27Z</time>
      </trkpt>
      <trkpt lat="37.416983" lon="-122.235205">
        <ele>120</ele>
        <time>2015-07-19T21:29:28Z</time>
      </trkpt>
      <trkpt lat="37.417023" lon="-122.235162">
        <ele>120</ele>
        <time>2015-07-19T21:29:29Z</time>
      </trkpt>
      <trkpt lat="37.417029" lon="-122.235107">
        <ele>120.3</ele>
        <time>2015-07-19T21:29:30Z</time>
      </trkpt>
      <trkpt lat="37.417057" lon="-122.235031">
        <ele>120.6</ele>
        <time>2015-07-19T21:29:31Z</time>
      </trkpt>
      <trkpt lat="37.417087" lon="-122.234967">
        <ele>120.8</ele>
        <time>2015-07-19T21:29:32Z</time>
      </trkpt>
      <trkpt lat="37.41711" lon="-122.234893">
        <ele>121</ele>
        <time>2015-07-19T21:29:33Z</time>
      </trkpt>
      <trkpt lat="37.417152" lon="-122.234818">
        <ele>121.3</ele>
        <time>2015-07-19T21:29:34Z</time>
      </trkpt>
      <trkpt lat="37.417171" lon="-122.234752">
        <ele>121.5</ele>
        <time>2015-07-19T21:29:35Z</time>
      </trkpt>
      <trkpt lat="37.417192" lon="-122.234673">
        <ele>121.8</ele>
        <time>2015-07-19T21:29:36Z</time>
      </trkpt>
      <trkpt lat="37.417234" lon="-122.234595">
        <ele>122.1</ele>
        <time>2015-07-19T21:29:37Z</time>
      </trkpt>
      <trkpt lat="37.417265" lon="-122.234517">
        <ele>122.3</ele>
        <time>2015-07-19T21:29:39Z</time>
      </trkpt>
      <trkpt lat="37.417325" lon="-122.234344">
        <ele>122.8</ele>
        <time>2015-07-19T21:29:40Z</time>
      </trkpt>
      <trkpt lat="37.417354" lon="-122.234273">
        <ele>123</ele>
        <time>2015-07-19T21:29:41Z</time>
      </trkpt>
      <trkpt lat="37.417394" lon="-122.23419">
        <ele>123.3</ele>
        <time>2015-07-19T21:29:42Z</time>
      </trkpt>
      <trkpt lat="37.417438" lon="-122.234107">
        <ele>123.7</ele>
        <time>2015-07-19T21:29:43Z</time>
      </trkpt>
      <trkpt lat="37.417474" lon="-122.234026">
        <ele>124</ele>
        <time>2015-07-19T21:29:44Z</time>
      </trkpt>
      <trkpt lat="37.417501" lon="-122.233956">
        <ele>124.3</ele>
        <time>2015-07-19T21:29:45Z</time>
      </trkpt>
      <trkpt lat="37.417544" lon="-122.233877">
        <ele>124.6</ele>
        <time>2015-07-19T21:29:46Z</time>
      </trkpt>
      <trkpt lat="37.417579" lon="-122.233801">
        <ele>124.8</ele>
        <time>2015-07-19T21:29:48Z</time>
      </trkpt>
      <trkpt lat="37.417649" lon="-122.233639">
        <ele>125.3</ele>
        <time>2015-07-19T21:29:49Z</time>
      </trkpt>
      <trkpt lat="37.417683" lon="-122.233559">
        <ele>125.6</ele>
        <time>2015-07-19T21:29:50Z</time>
      </trkpt>
      <trkpt lat="37.417721" lon="-122.233486">
        <ele>125.9</ele>
        <time>2015-07-19T21:29:51Z</time>
      </trkpt>
      <trkpt lat="37.417751" lon="-122.233418">
        <ele>126.1</ele>
        <time>2015-07-19T21:29:52Z</time>
      </trkpt>
      <trkpt lat="37.417789" lon="-122.233342">
        <ele>126.4</ele>
        <time>2015-07-19T21:29:53Z</time>
      </trkpt>
      <trkpt lat="37.417822" lon="-122.233271">
        <ele>126.7</ele>
        <time>2015-07-19T21:29:54Z</time>
      </trkpt>
      <trkpt lat="37.417859" lon="-122.233211">
        <ele>126.9</ele>
        <time>2015-07-19T21:29:55Z</time>
      </trkpt>
      <trkpt lat="37.41789" lon="-122.233124">
        <ele>127.2</ele>
        <time>2015-07-19T21:29:56Z</time>
      </trkpt>
      <trkpt lat="37.417916" lon="-122.233066">
        <ele>127.4</ele>
        <time>2015-07-19T21:29:57Z</time>
      </trkpt>
      <trkpt lat="37.417947" lon="-122.232992">
        <ele>127.6</ele>
        <time>2015-07-19T21:29:58Z</time>
      </trkpt>
      <trkpt lat="37.417978" lon="-122.23291">
        <ele>127.8</ele>
        <time>2015-07-19T21:29:59Z</time>
      </trkpt>
      <trkpt lat="37.418007" lon="-122.232836">
        <ele>128.1</ele>
        <time>2015-07-19T21:30:01Z</time>
      </trkpt>
      <trkpt lat="37.418037" lon="-122.232766">
        <ele>128.3</ele>
        <time>2015-07-19T21:30:02Z</time>
      </trkpt>
      <trkpt lat="37.418104" lon="-122.232618">
        <ele>128.9</ele>
        <time>2015-07-19T21:30:03Z</time>
      </trkpt>
      <trkpt lat="37.418137" lon="-122.23254">
        <ele>129.2</ele>
        <time>2015-07-19T21:30:04Z</time>
      </trkpt>
      <trkpt lat="37.41816" lon="-122.232457">
        <ele>129.4</ele>
        <time>2015-07-19T21:30:05Z</time>
      </trkpt>
      <trkpt lat="37.418187" lon="-122.232393">
        <ele>129.6</ele>
        <time>2015-07-19T21:30:06Z</time>
      </trkpt>
      <trkpt lat="37.418211" lon="-122.232327">
        <ele>129.7</ele>
        <time>2015-07-19T21:30:07Z</time>
      </trkpt>
      <trkpt lat="37.418235" lon="-122.23223">
        <ele>129.9</ele>
        <time>2015-07-19T21:30:08Z</time>
      </trkpt>
      <trkpt lat="37.418257" lon="-122.232162">
        <ele>130</ele>
        <time>2015-07-19T21:30:09Z</time>
      </trkpt>
      <trkpt lat="37.418271" lon="-122.232095">
        <ele>130.2</ele>
        <time>2015-07-19T21:30:10Z</time>
      </trkpt>
      <trkpt lat="37.418294" lon="-122.232031">
        <ele>130.3</ele>
        <time>2015-07-19T21:30:11Z</time>
      </trkpt>
      <trkpt lat="37.418316" lon="-122.231971">
        <ele>130.5</ele>
        <time>2015-07-19T21:30:12Z</time>
      </trkpt>
      <trkpt lat="37.418337" lon="-122.231889">
        <ele>130.6</ele>
        <time>2015-07-19T21:30:13Z</time>
      </trkpt>
      <trkpt lat="37.418343" lon="-122.231817">
        <ele>130.6</ele>
        <time>2015-07-19T21:30:14Z</time>
      </trkpt>
      <trkpt lat="37.418367" lon="-122.231742">
        <ele>130.7</ele>
        <time>2015-07-19T21:30:15Z</time>
      </trkpt>
      <trkpt lat="37.418378" lon="-122.231684">
        <ele>130.7</ele>
        <time>2015-07-19T21:30:16Z</time>
      </trkpt>
      <trkpt lat="37.418401" lon="-122.231596">
        <ele>130.8</ele>
        <time>2015-07-19T21:30:17Z</time>
      </trkpt>
      <trkpt lat="37.418418" lon="-122.231522">
        <ele>130.8</ele>
        <time>2015-07-19T21:30:18Z</time>
      </trkpt>
      <trkpt lat="37.418435" lon="-122.231451">
        <ele>130.9</ele>
        <time>2015-07-19T21:30:20Z</time>
      </trkpt>
      <trkpt lat="37.418456" lon="-122.231314">
        <ele>130.8</ele>
        <time>2015-07-19T21:30:21Z</time>
      </trkpt>
      <trkpt lat="37.418463" lon="-122.231248">
        <ele>130.8</ele>
        <time>2015-07-19T21:30:22Z</time>
      </trkpt>
      <trkpt lat="37.418467" lon="-122.231188">
        <ele>130.8</ele>
        <time>2015-07-19T21:30:23Z</time>
      </trkpt>
      <trkpt lat="37.418478" lon="-122.231122">
        <ele>130.7</ele>
        <time>2015-07-19T21:30:24Z</time>
      </trkpt>
      <trkpt lat="37.418491" lon="-122.231045">
        <ele>130.7</ele>
        <time>2015-07-19T21:30:25Z</time>
      </trkpt>
      <trkpt lat="37.418501" lon="-122.230974">
        <ele>130.6</ele>
        <time>2015-07-19T21:30:26Z</time>
      </trkpt>
      <trkpt lat="37.418502" lon="-122.230905">
        <ele>130.4</ele>
        <time>2015-07-19T21:30:27Z</time>
      </trkpt>
      <trkpt lat="37.418508" lon="-122.23083">
        <ele>130.3</ele>
        <time>2015-07-19T21:30:28Z</time>
      </trkpt>
      <trkpt lat="37.418514" lon="-122.230747">
        <ele>130.1</ele>
        <time>2015-07-19T21:30:29Z</time>
      </trkpt>
      <trkpt lat="37.418525" lon="-122.230681">
        <ele>130.1</ele>
        <time>2015-07-19T21:30:30Z</time>
      </trkpt>
      <trkpt lat="37.418527" lon="-122.230609">
        <ele>130</ele>
        <time>2015-07-19T21:30:31Z</time>
      </trkpt>
      <trkpt lat="37.418533" lon="-122.230537">
        <ele>129.8</ele>
        <time>2015-07-19T21:30:32Z</time>
      </trkpt>
      <trkpt lat="37.418536" lon="-122.230453">
        <ele>129.6</ele>
        <time>2015-07-19T21:30:33Z</time>
      </trkpt>
      <trkpt lat="37.418537" lon="-122.230381">
        <ele>129.4</ele>
        <time>2015-07-19T21:30:34Z</time>
      </trkpt>
      <trkpt lat="37.418543" lon="-122.230298">
        <ele>129.2</ele>
        <time>2015-07-19T21:30:35Z</time>
      </trkpt>
      <trkpt lat="37.418542" lon="-122.230221">
        <ele>128.9</ele>
        <time>2015-07-19T21:30:36Z</time>
      </trkpt>
      <trkpt lat="37.418539" lon="-122.230138">
        <ele>128.6</ele>
        <time>2015-07-19T21:30:37Z</time>
      </trkpt>
      <trkpt lat="37.418529" lon="-122.230057">
        <ele>128.3</ele>
        <time>2015-07-19T21:30:38Z</time>
      </trkpt>
      <trkpt lat="37.418529" lon="-122.22995">
        <ele>127.9</ele>
        <time>2015-07-19T21:30:39Z</time>
      </trkpt>
      <trkpt lat="37.418524" lon="-122.229864">
        <ele>127.5</ele>
        <time>2015-07-19T21:30:40Z</time>
      </trkpt>
      <trkpt lat="37.418515" lon="-122.229774">
        <ele>127.1</ele>
        <time>2015-07-19T21:30:41Z</time>
      </trkpt>
      <trkpt lat="37.418512" lon="-122.229677">
        <ele>126.6</ele>
        <time>2015-07-19T21:30:42Z</time>
      </trkpt>
      <trkpt lat="37.4185" lon="-122.229587">
        <ele>126.2</ele>
        <time>2015-07-19T21:30:43Z</time>
      </trkpt>
      <trkpt lat="37.418483" lon="-122.229486">
        <ele>125.7</ele>
        <time>2015-07-19T21:30:44Z</time>
      </trkpt>
      <trkpt lat="37.41848" lon="-122.229369">
        <ele>125.1</ele>
        <time>2015-07-19T21:30:45Z</time>
      </trkpt>
      <trkpt lat="37.418479" lon="-122.229262">
        <ele>124.7</ele>
        <time>2015-07-19T21:30:46Z</time>
      </trkpt>
      <trkpt lat="37.418469" lon="-122.229144">
        <ele>124.2</ele>
        <time>2015-07-19T21:30:47Z</time>
      </trkpt>
      <trkpt lat="37.418457" lon="-122.22904">
        <ele>123.6</ele>
        <time>2015-07-19T21:30:48Z</time>
      </trkpt>
      <trkpt lat="37.418447" lon="-122.228908">
        <ele>123</ele>
        <time>2015-07-19T21:30:49Z</time>
      </trkpt>
      <trkpt lat="37.418445" lon="-122.228795">
        <ele>122.5</ele>
        <time>2015-07-19T21:30:50Z</time>
      </trkpt>
      <trkpt lat="37.418435" lon="-122.228671">
        <ele>122.1</ele>
        <time>2015-07-19T21:30:51Z</time>
      </trkpt>
      <trkpt lat="37.418431" lon="-122.228526">
        <ele>121.4</ele>
        <time>2015-07-19T21:30:52Z</time>
      </trkpt>
      <trkpt lat="37.418423" lon="-122.228401">
        <ele>120.8</ele>
        <time>2015-07-19T21:30:53Z</time>
      </trkpt>
      <trkpt lat="37.418422" lon="-122.228277">
        <ele>120.3</ele>
        <time>2015-07-19T21:30:54Z</time>
      </trkpt>
      <trkpt lat="37.418411" lon="-122.228156">
        <ele>119.7</ele>
        <time>2015-07-19T21:30:55Z</time>
      </trkpt>
      <trkpt lat="37.418401" lon="-122.228039">
        <ele>119.2</ele>
        <time>2015-07-19T21:30:56Z</time>
      </trkpt>
      <trkpt lat="37.418396" lon="-122.227909">
        <ele>118.6</ele>
        <time>2015-07-19T21:30:57Z</time>
      </trkpt>
      <trkpt lat="37.418388" lon="-122.227768">
        <ele>118</ele>
        <time>2015-07-19T21:30:58Z</time>
      </trkpt>
      <trkpt lat="37.418382" lon="-122.227623">
        <ele>117.4</ele>
        <time>2015-07-19T21:30:59Z</time>
      </trkpt>
      <trkpt lat="37.418369" lon="-122.227489">
        <ele>116.8</ele>
        <time>2015-07-19T21:31:00Z</time>
      </trkpt>
      <trkpt lat="37.418355" lon="-122.227366">
        <ele>116.3</ele>
        <time>2015-07-19T21:31:01Z</time>
      </trkpt>
      <trkpt lat="37.418343" lon="-122.227225">
        <ele>115.6</ele>
        <time>2015-07-19T21:31:02Z</time>
      </trkpt>
      <trkpt lat="37.418334" lon="-122.227079">
        <ele>114.9</ele>
        <time>2015-07-19T21:31:03Z</time>
      </trkpt>
      <trkpt lat="37.418321" lon="-122.226939">
        <ele>114.2</ele>
        <time>2015-07-19T21:31:04Z</time>
      </trkpt>
      <trkpt lat="37.418311" lon="-122.226793">
        <ele>113.4</ele>
        <time>2015-07-19T21:31:05Z</time>
      </trkpt>
      <trkpt lat="37.4183" lon="-122.226648">
        <ele>112.7</ele>
        <time>2015-07-19T21:31:06Z</time>
      </trkpt>
      <trkpt lat="37.418287" lon="-122.226502">
        <ele>112.1</ele>
        <time>2015-07-19T21:31:07Z</time>
      </trkpt>
      <trkpt lat="37.418276" lon="-122.22636">
        <ele>111.5</ele>
        <time>2015-07-19T21:31:08Z</time>
      </trkpt>
      <trkpt lat="37.418258" lon="-122.226211">
        <ele>110.8</ele>
        <time>2015-07-19T21:31:09Z</time>
      </trkpt>
      <trkpt lat="37.418243" lon="-122.226071">
        <ele>110.2</ele>
        <time>2015-07-19T21:31:10Z</time>
      </trkpt>
      <trkpt lat="37.418222" lon="-122.22593">
        <ele>109.6</ele>
        <time>2015-07-19T21:31:11Z</time>
      </trkpt>
      <trkpt lat="37.418206" lon="-122.2258">
        <ele>109</ele>
        <time>2015-07-19T21:31:12Z</time>
      </trkpt>
      <trkpt lat="37.418185" lon="-122.225659">
        <ele>108.3</ele>
        <time>2015-07-19T21:31:13Z</time>
      </trkpt>
      <trkpt lat="37.418159" lon="-122.225521">
        <ele>107.7</ele>
        <time>2015-07-19T21:31:14Z</time>
      </trkpt>
      <trkpt lat="37.418132" lon="-122.225379">
        <ele>106.9</ele>
        <time>2015-07-19T21:31:15Z</time>
      </trkpt>
      <trkpt lat="37.418115" lon="-122.225224">
        <ele>106.3</ele>
        <time>2015-07-19T21:31:16Z</time>
      </trkpt>
      <trkpt lat="37.41809" lon="-122.225082">
        <ele>105.7</ele>
        <time>2015-07-19T21:31:17Z</time>
      </trkpt>
      <trkpt lat="37.418071" lon="-122.224938">
        <ele>105.1</ele>
        <time>2015-07-19T21:31:18Z</time>
      </trkpt>
      <trkpt lat="37.41806" lon="-122.22478">
        <ele>104.4</ele>
        <time>2015-07-19T21:31:19Z</time>
      </trkpt>
      <trkpt lat="37.418039" lon="-122.224632">
        <ele>103.8</ele>
        <time>2015-07-19T21:31:20Z</time>
      </trkpt>
      <trkpt lat="37.418021" lon="-122.224491">
        <ele>103.1</ele>
        <time>2015-07-19T21:31:21Z</time>
      </trkpt>
      <trkpt lat="37.418005" lon="-122.224341">
        <ele>102.4</ele>
        <time>2015-07-19T21:31:22Z</time>
      </trkpt>
      <trkpt lat="37.417982" lon="-122.224205">
        <ele>101.8</ele>
        <time>2015-07-19T21:31:23Z</time>
      </trkpt>
      <trkpt lat="37.417959" lon="-122.224056">
        <ele>101.2</ele>
        <time>2015-07-19T21:31:24Z</time>
      </trkpt>
      <trkpt lat="37.417947" lon="-122.223903">
        <ele>100.8</ele>
        <time>2015-07-19T21:31:25Z</time>
      </trkpt>
      <trkpt lat="37.417926" lon="-122.223747">
        <ele>100.3</ele>
        <time>2015-07-19T21:31:26Z</time>
      </trkpt>
      <trkpt lat="37.417906" lon="-122.223609">
        <ele>99.9</ele>
        <time>2015-07-19T21:31:27Z</time>
      </trkpt>
      <trkpt lat="37.417895" lon="-122.22346">
        <ele>99.6</ele>
        <time>2015-07-19T21:31:28Z</time>
      </trkpt>
      <trkpt lat="37.417876" lon="-122.223334">
        <ele>99.4</ele>
        <time>2015-07-19T21:31:29Z</time>
      </trkpt>
      <trkpt lat="37.417861" lon="-122.223199">
        <ele>99.1</ele>
        <time>2015-07-19T21:31:30Z</time>
      </trkpt>
      <trkpt lat="37.417844" lon="-122.223068">
        <ele>99</ele>
        <time>2015-07-19T21:31:31Z</time>
      </trkpt>
      <trkpt lat="37.417836" lon="-122.222931">
        <ele>98.9</ele>
        <time>2015-07-19T21:31:32Z</time>
      </trkpt>
      <trkpt lat="37.417834" lon="-122.222802">
        <ele>98.6</ele>
        <time>2015-07-19T21:31:33Z</time>
      </trkpt>
      <trkpt lat="37.417834" lon="-122.222668">
        <ele>98.5</ele>
        <time>2015-07-19T21:31:34Z</time>
      </trkpt>
      <trkpt lat="37.417836" lon="-122.222549">
        <ele>98.5</ele>
        <time>2015-07-19T21:31:35Z</time>
      </trkpt>
      <trkpt lat="37.417846" lon="-122.222394">
        <ele>98.4</ele>
        <time>2015-07-19T21:31:36Z</time>
      </trkpt>
      <trkpt lat="37.417858" lon="-122.222308">
        <ele>98.4</ele>
        <time>2015-07-19T21:31:37Z</time>
      </trkpt>
      <trkpt lat="37.417877" lon="-122.222189">
        <ele>98.4</ele>
        <time>2015-07-19T21:31:38Z</time>
      </trkpt>
      <trkpt lat="37.417891" lon="-122.222091">
        <ele>98.5</ele>
        <time>2015-07-19T21:31:39Z</time>
      </trkpt>
      <trkpt lat="37.417906" lon="-122.221983">
        <ele>98.6</ele>
        <time>2015-07-19T21:31:40Z</time>
      </trkpt>
      <trkpt lat="37.417935" lon="-122.221878">
        <ele>98.6</ele>
        <time>2015-07-19T21:31:41Z</time>
      </trkpt>
      <trkpt lat="37.417958" lon="-122.221785">
        <ele>98.6</ele>
        <time>2015-07-19T21:31:42Z</time>
      </trkpt>
      <trkpt lat="37.41799" lon="-122.221692">
        <ele>98.6</ele>
        <time>2015-07-19T21:31:43Z</time>
      </trkpt>
      <trkpt lat="37.41802" lon="-122.2216">
        <ele>98.7</ele>
        <time>2015-07-19T21:31:44Z</time>
      </trkpt>
      <trkpt lat="37.418056" lon="-122.221502">
        <ele>98.8</ele>
        <time>2015-07-19T21:31:45Z</time>
      </trkpt>
      <trkpt lat="37.418086" lon="-122.221412">
        <ele>99</ele>
        <time>2015-07-19T21:31:46Z</time>
      </trkpt>
      <trkpt lat="37.418118" lon="-122.22132">
        <ele>99.1</ele>
        <time>2015-07-19T21:31:47Z</time>
      </trkpt>
      <trkpt lat="37.418151" lon="-122.221226">
        <ele>99.2</ele>
        <time>2015-07-19T21:31:48Z</time>
      </trkpt>
      <trkpt lat="37.418188" lon="-122.221121">
        <ele>99.3</ele>
        <time>2015-07-19T21:31:49Z</time>
      </trkpt>
      <trkpt lat="37.418217" lon="-122.221029">
        <ele>99.4</ele>
        <time>2015-07-19T21:31:50Z</time>
      </trkpt>
      <trkpt lat="37.418245" lon="-122.220939">
        <ele>99.5</ele>
        <time>2015-07-19T21:31:51Z</time>
      </trkpt>
      <trkpt lat="37.418273" lon="-122.22085">
        <ele>99.6</ele>
        <time>2015-07-19T21:31:52Z</time>
      </trkpt>
      <trkpt lat="37.418301" lon="-122.22076">
        <ele>99.8</ele>
        <time>2015-07-19T21:31:53Z</time>
      </trkpt>
      <trkpt lat="37.418327" lon="-122.220679">
        <ele>99.9</ele>
        <time>2015-07-19T21:31:54Z</time>
      </trkpt>
      <trkpt lat="37.418354" lon="-122.220596">
        <ele>99.9</ele>
        <time>2015-07-19T21:31:55Z</time>
      </trkpt>
      <trkpt lat="37.418385" lon="-122.2205">
        <ele>100.1</ele>
        <time>2015-07-19T21:31:56Z</time>
      </trkpt>
      <trkpt lat="37.418414" lon="-122.220412">
        <ele>100.2</ele>
        <time>2015-07-19T21:31:57Z</time>
      </trkpt>
      <trkpt lat="37.418448" lon="-122.220322">
        <ele>100.3</ele>
        <time>2015-07-19T21:31:58Z</time>
      </trkpt>
      <trkpt lat="37.418484" lon="-122.220231">
        <ele>100.3</ele>
        <time>2015-07-19T21:31:59Z</time>
      </trkpt>
      <trkpt lat="37.418505" lon="-122.220146">
        <ele>100.3</ele>
        <time>2015-07-19T21:32:00Z</time>
      </trkpt>
      <trkpt lat="37.418529" lon="-122.220077">
        <ele>100.4</ele>
        <time>2015-07-19T21:32:01Z</time>
      </trkpt>
      <trkpt lat="37.418558" lon="-122.219996">
        <ele>100.5</ele>
        <time>2015-07-19T21:32:02Z</time>
      </trkpt>
      <trkpt lat="37.41858" lon="-122.219915">
        <ele>100.5</ele>
        <time>2015-07-19T21:32:03Z</time>
      </trkpt>
      <trkpt lat="37.4186" lon="-122.219836">
        <ele>100.4</ele>
        <time>2015-07-19T21:32:04Z</time>
      </trkpt>
      <trkpt lat="37.418623" lon="-122.219764">
        <ele>100.4</ele>
        <time>2015-07-19T21:32:05Z</time>
      </trkpt>
      <trkpt lat="37.418649" lon="-122.219683">
        <ele>96.7</ele>
        <time>2015-07-19T21:32:06Z</time>
      </trkpt>
      <trkpt lat="37.41867" lon="-122.219614">
        <ele>94.3</ele>
        <time>2015-07-19T21:32:07Z</time>
      </trkpt>
      <trkpt lat="37.418695" lon="-122.219536">
        <ele>93.3</ele>
        <time>2015-07-19T21:32:09Z</time>
      </trkpt>
      <trkpt lat="37.418735" lon="-122.219401">
        <ele>93.4</ele>
        <time>2015-07-19T21:32:10Z</time>
      </trkpt>
      <trkpt lat="37.418754" lon="-122.219335">
        <ele>93.3</ele>
        <time>2015-07-19T21:32:11Z</time>
      </trkpt>
      <trkpt lat="37.418771" lon="-122.219275">
        <ele>93.3</ele>
        <time>2015-07-19T21:32:12Z</time>
      </trkpt>
      <trkpt lat="37.418794" lon="-122.219202">
        <ele>93.2</ele>
        <time>2015-07-19T21:32:13Z</time>
      </trkpt>
      <trkpt lat="37.418818" lon="-122.219129">
        <ele>93.2</ele>
        <time>2015-07-19T21:32:14Z</time>
      </trkpt>
      <trkpt lat="37.418839" lon="-122.219059">
        <ele>93.2</ele>
        <time>2015-07-19T21:32:15Z</time>
      </trkpt>
      <trkpt lat="37.418859" lon="-122.218992">
        <ele>93.1</ele>
        <time>2015-07-19T21:32:16Z</time>
      </trkpt>
      <trkpt lat="37.418882" lon="-122.218915">
        <ele>93</ele>
        <time>2015-07-19T21:32:17Z</time>
      </trkpt>
      <trkpt lat="37.4189" lon="-122.218852">
        <ele>92.9</ele>
        <time>2015-07-19T21:32:18Z</time>
      </trkpt>
      <trkpt lat="37.41892" lon="-122.218785">
        <ele>92.9</ele>
        <time>2015-07-19T21:32:19Z</time>
      </trkpt>
      <trkpt lat="37.418938" lon="-122.218727">
        <ele>92.8</ele>
        <time>2015-07-19T21:32:20Z</time>
      </trkpt>
      <trkpt lat="37.418959" lon="-122.218656">
        <ele>92.7</ele>
        <time>2015-07-19T21:32:21Z</time>
      </trkpt>
      <trkpt lat="37.418976" lon="-122.218601">
        <ele>92.6</ele>
        <time>2015-07-19T21:32:22Z</time>
      </trkpt>
      <trkpt lat="37.418998" lon="-122.218526">
        <ele>92.6</ele>
        <time>2015-07-19T21:32:24Z</time>
      </trkpt>
      <trkpt lat="37.419038" lon="-122.218387">
        <ele>92.4</ele>
        <time>2015-07-19T21:32:25Z</time>
      </trkpt>
      <trkpt lat="37.419059" lon="-122.218312">
        <ele>92.3</ele>
        <time>2015-07-19T21:32:26Z</time>
      </trkpt>
      <trkpt lat="37.419079" lon="-122.218244">
        <ele>92.2</ele>
        <time>2015-07-19T21:32:28Z</time>
      </trkpt>
      <trkpt lat="37.419098" lon="-122.218185">
        <ele>92.1</ele>
        <time>2015-07-19T21:32:29Z</time>
      </trkpt>
      <trkpt lat="37.419122" lon="-122.218112">
        <ele>91.9</ele>
        <time>2015-07-19T21:32:30Z</time>
      </trkpt>
      <trkpt lat="37.41915" lon="-122.218047">
        <ele>92.3</ele>
        <time>2015-07-19T21:32:31Z</time>
      </trkpt>
      <trkpt lat="37.419174" lon="-122.217966">
        <ele>96.6</ele>
        <time>2015-07-19T21:32:32Z</time>
      </trkpt>
      <trkpt lat="37.419224" lon="-122.217808">
        <ele>98.5</ele>
        <time>2015-07-19T21:32:33Z</time>
      </trkpt>
      <trkpt lat="37.419246" lon="-122.217709">
        <ele>98.3</ele>
        <time>2015-07-19T21:32:34Z</time>
      </trkpt>
      <trkpt lat="37.419269" lon="-122.217635">
        <ele>98.1</ele>
        <time>2015-07-19T21:32:36Z</time>
      </trkpt>
      <trkpt lat="37.419295" lon="-122.217572">
        <ele>98</ele>
        <time>2015-07-19T21:32:37Z</time>
      </trkpt>
      <trkpt lat="37.419346" lon="-122.217397">
        <ele>97.6</ele>
        <time>2015-07-19T21:32:38Z</time>
      </trkpt>
      <trkpt lat="37.419379" lon="-122.217304">
        <ele>97.3</ele>
        <time>2015-07-19T21:32:40Z</time>
      </trkpt>
      <trkpt lat="37.419406" lon="-122.217224">
        <ele>97.1</ele>
        <time>2015-07-19T21:32:41Z</time>
      </trkpt>
      <trkpt lat="37.419426" lon="-122.21715">
        <ele>96.9</ele>
        <time>2015-07-19T21:32:42Z</time>
      </trkpt>
      <trkpt lat="37.419485" lon="-122.216976">
        <ele>96.4</ele>
        <time>2015-07-19T21:32:43Z</time>
      </trkpt>
      <trkpt lat="37.419506" lon="-122.216916">
        <ele>96.2</ele>
        <time>2015-07-19T21:32:44Z</time>
      </trkpt>
      <trkpt lat="37.419542" lon="-122.216804">
        <ele>95.9</ele>
        <time>2015-07-19T21:32:45Z</time>
      </trkpt>
      <trkpt lat="37.419559" lon="-122.216717">
        <ele>95.6</ele>
        <time>2015-07-19T21:32:46Z</time>
      </trkpt>
      <trkpt lat="37.419582" lon="-122.216646">
        <ele>95.4</ele>
        <time>2015-07-19T21:32:47Z</time>
      </trkpt>
      <trkpt lat="37.419608" lon="-122.216564">
        <ele>95.2</ele>
        <time>2015-07-19T21:32:48Z</time>
      </trkpt>
      <trkpt lat="37.419639" lon="-122.216471">
        <ele>94.9</ele>
        <time>2015-07-19T21:32:49Z</time>
      </trkpt>
      <trkpt lat="37.41967" lon="-122.216375">
        <ele>94.6</ele>
        <time>2015-07-19T21:32:50Z</time>
      </trkpt>
      <trkpt lat="37.419684" lon="-122.216275">
        <ele>94.3</ele>
        <time>2015-07-19T21:32:51Z</time>
      </trkpt>
      <trkpt lat="37.419715" lon="-122.216194">
        <ele>94.1</ele>
        <time>2015-07-19T21:32:52Z</time>
      </trkpt>
      <trkpt lat="37.419751" lon="-122.216106">
        <ele>93.9</ele>
        <time>2015-07-19T21:32:53Z</time>
      </trkpt>
      <trkpt lat="37.419784" lon="-122.216022">
        <ele>93.7</ele>
        <time>2015-07-19T21:32:55Z</time>
      </trkpt>
      <trkpt lat="37.419839" lon="-122.215858">
        <ele>93.5</ele>
        <time>2015-07-19T21:32:56Z</time>
      </trkpt>
      <trkpt lat="37.419866" lon="-122.215775">
        <ele>93.3</ele>
        <time>2015-07-19T21:32:57Z</time>
      </trkpt>
      <trkpt lat="37.419887" lon="-122.21575">
        <ele>93.3</ele>
        <time>2015-07-19T21:32:58Z</time>
      </trkpt>
      <trkpt lat="37.419972" lon="-122.215447">
        <ele>93.1</ele>
        <time>2015-07-19T21:33:01Z</time>
      </trkpt>
      <trkpt lat="37.419997" lon="-122.215368">
        <ele>93.1</ele>
        <time>2015-07-19T21:33:02Z</time>
      </trkpt>
      <trkpt lat="37.420019" lon="-122.2153">
        <ele>93.1</ele>
        <time>2015-07-19T21:33:03Z</time>
      </trkpt>
      <trkpt lat="37.420043" lon="-122.215226">
        <ele>93.1</ele>
        <time>2015-07-19T21:33:04Z</time>
      </trkpt>
      <trkpt lat="37.42007" lon="-122.215139">
        <ele>93.1</ele>
        <time>2015-07-19T21:33:05Z</time>
      </trkpt>
      <trkpt lat="37.420091" lon="-122.215074">
        <ele>93.1</ele>
        <time>2015-07-19T21:33:06Z</time>
      </trkpt>
      <trkpt lat="37.420121" lon="-122.214983">
        <ele>93.1</ele>
        <time>2015-07-19T21:33:07Z</time>
      </trkpt>
      <trkpt lat="37.420146" lon="-122.214904">
        <ele>93.2</ele>
        <time>2015-07-19T21:33:08Z</time>
      </trkpt>
      <trkpt lat="37.420164" lon="-122.214843">
        <ele>93.2</ele>
        <time>2015-07-19T21:33:09Z</time>
      </trkpt>
      <trkpt lat="37.420184" lon="-122.214773">
        <ele>93.3</ele>
        <time>2015-07-19T21:33:10Z</time>
      </trkpt>
      <trkpt lat="37.420207" lon="-122.214693">
        <ele>93.4</ele>
        <time>2015-07-19T21:33:11Z</time>
      </trkpt>
      <trkpt lat="37.420227" lon="-122.214624">
        <ele>93.6</ele>
        <time>2015-07-19T21:33:12Z</time>
      </trkpt>
      <trkpt lat="37.420242" lon="-122.214548">
        <ele>93.7</ele>
        <time>2015-07-19T21:33:14Z</time>
      </trkpt>
      <trkpt lat="37.420263" lon="-122.214483">
        <ele>93.9</ele>
        <time>2015-07-19T21:33:15Z</time>
      </trkpt>
      <trkpt lat="37.42028" lon="-122.214409">
        <ele>94.2</ele>
        <time>2015-07-19T21:33:16Z</time>
      </trkpt>
      <trkpt lat="37.420304" lon="-122.214345">
        <ele>94.5</ele>
        <time>2015-07-19T21:33:17Z</time>
      </trkpt>
      <trkpt lat="37.420318" lon="-122.214282">
        <ele>94.8</ele>
        <time>2015-07-19T21:33:18Z</time>
      </trkpt>
      <trkpt lat="37.420312" lon="-122.21419">
        <ele>94.8</ele>
        <time>2015-07-19T21:33:19Z</time>
      </trkpt>
      <trkpt lat="37.420308" lon="-122.21413">
        <ele>94.9</ele>
        <time>2015-07-19T21:33:20Z</time>
      </trkpt>
      <trkpt lat="37.420314" lon="-122.214072">
        <ele>95.1</ele>
        <time>2015-07-19T21:33:21Z</time>
      </trkpt>
      <trkpt lat="37.42032" lon="-122.214004">
        <ele>95.3</ele>
        <time>2015-07-19T21:33:22Z</time>
      </trkpt>
      <trkpt lat="37.420327" lon="-122.213927">
        <ele>95.5</ele>
        <time>2015-07-19T21:33:23Z</time>
      </trkpt>
      <trkpt lat="37.420333" lon="-122.213797">
        <ele>96</ele>
        <time>2015-07-19T21:33:24Z</time>
      </trkpt>
      <trkpt lat="37.420334" lon="-122.213739">
        <ele>96.2</ele>
        <time>2015-07-19T21:33:26Z</time>
      </trkpt>
      <trkpt lat="37.420334" lon="-122.21363">
        <ele>96.6</ele>
        <time>2015-07-19T21:33:27Z</time>
      </trkpt>
      <trkpt lat="37.420334" lon="-122.213575">
        <ele>96.8</ele>
        <time>2015-07-19T21:33:28Z</time>
      </trkpt>
      <trkpt lat="37.420333" lon="-122.213522">
        <ele>97</ele>
        <time>2015-07-19T21:33:29Z</time>
      </trkpt>
      <trkpt lat="37.420332" lon="-122.213466">
        <ele>97.2</ele>
        <time>2015-07-19T21:33:31Z</time>
      </trkpt>
      <trkpt lat="37.42033" lon="-122.213345">
        <ele>97.6</ele>
        <time>2015-07-19T21:33:32Z</time>
      </trkpt>
      <trkpt lat="37.420329" lon="-122.213285">
        <ele>97.9</ele>
        <time>2015-07-19T21:33:33Z</time>
      </trkpt>
      <trkpt lat="37.420328" lon="-122.213221">
        <ele>98.1</ele>
        <time>2015-07-19T21:33:34Z</time>
      </trkpt>
      <trkpt lat="37.420327" lon="-122.213117">
        <ele>98.4</ele>
        <time>2015-07-19T21:33:36Z</time>
      </trkpt>
      <trkpt lat="37.420325" lon="-122.212989">
        <ele>98.8</ele>
        <time>2015-07-19T21:33:37Z</time>
      </trkpt>
      <trkpt lat="37.420324" lon="-122.212933">
        <ele>99</ele>
        <time>2015-07-19T21:33:38Z</time>
      </trkpt>
      <trkpt lat="37.420313" lon="-122.21286">
        <ele>99.1</ele>
        <time>2015-07-19T21:33:40Z</time>
      </trkpt>
      <trkpt lat="37.420323" lon="-122.212799">
        <ele>99.3</ele>
        <time>2015-07-19T21:33:41Z</time>
      </trkpt>
      <trkpt lat="37.42033" lon="-122.212739">
        <ele>99.5</ele>
        <time>2015-07-19T21:33:42Z</time>
      </trkpt>
      <trkpt lat="37.420327" lon="-122.21268">
        <ele>99.7</ele>
        <time>2015-07-19T21:33:43Z</time>
      </trkpt>
      <trkpt lat="37.420322" lon="-122.212621">
        <ele>99.8</ele>
        <time>2015-07-19T21:33:44Z</time>
      </trkpt>
      <trkpt lat="37.420326" lon="-122.212523">
        <ele>100.1</ele>
        <time>2015-07-19T21:33:47Z</time>
      </trkpt>
      <trkpt lat="37.420337" lon="-122.212482">
        <ele>100.3</ele>
        <time>2015-07-19T21:33:48Z</time>
      </trkpt>
      <trkpt lat="37.420332" lon="-122.212402">
        <ele>100.5</ele>
        <time>2015-07-19T21:33:50Z</time>
      </trkpt>
      <trkpt lat="37.420332" lon="-122.212273">
        <ele>100.9</ele>
        <time>2015-07-19T21:33:51Z</time>
      </trkpt>
      <trkpt lat="37.420298" lon="-122.212231">
        <ele>100.9</ele>
        <time>2015-07-19T21:33:52Z</time>
      </trkpt>
      <trkpt lat="37.420299" lon="-122.212181">
        <ele>101</ele>
        <time>2015-07-19T21:33:53Z</time>
      </trkpt>
      <trkpt lat="37.420292" lon="-122.212137">
        <ele>101.1</ele>
        <time>2015-07-19T21:33:55Z</time>
      </trkpt>
      <trkpt lat="37.420293" lon="-122.212088">
        <ele>101.1</ele>
        <time>2015-07-19T21:33:56Z</time>
      </trkpt>
      <trkpt lat="37.420294" lon="-122.212042">
        <ele>101.2</ele>
        <time>2015-07-19T21:33:57Z</time>
      </trkpt>
      <trkpt lat="37.420298" lon="-122.211996">
        <ele>101.4</ele>
        <time>2015-07-19T21:33:58Z</time>
      </trkpt>
      <trkpt lat="37.4203" lon="-122.211947">
        <ele>101.4</ele>
        <time>2015-07-19T21:33:59Z</time>
      </trkpt>
      <trkpt lat="37.420302" lon="-122.211895">
        <ele>101.5</ele>
        <time>2015-07-19T21:34:00Z</time>
      </trkpt>
      <trkpt lat="37.420302" lon="-122.211846">
        <ele>101.6</ele>
        <time>2015-07-19T21:34:01Z</time>
      </trkpt>
      <trkpt lat="37.420302" lon="-122.211797">
        <ele>101.7</ele>
        <time>2015-07-19T21:34:02Z</time>
      </trkpt>
      <trkpt lat="37.420302" lon="-122.21175">
        <ele>101.8</ele>
        <time>2015-07-19T21:34:03Z</time>
      </trkpt>
      <trkpt lat="37.4203" lon="-122.211708">
        <ele>101.8</ele>
        <time>2015-07-19T21:34:04Z</time>
      </trkpt>
      <trkpt lat="37.420292" lon="-122.211625">
        <ele>101.9</ele>
        <time>2015-07-19T21:34:05Z</time>
      </trkpt>
      <trkpt lat="37.420278" lon="-122.21156">
        <ele>101.9</ele>
        <time>2015-07-19T21:34:07Z</time>
      </trkpt>
      <trkpt lat="37.420282" lon="-122.211518">
        <ele>101.9</ele>
        <time>2015-07-19T21:34:08Z</time>
      </trkpt>
      <trkpt lat="37.420284" lon="-122.21148">
        <ele>102</ele>
        <time>2015-07-19T21:34:09Z</time>
      </trkpt>
      <trkpt lat="37.420293" lon="-122.211442">
        <ele>102.1</ele>
        <time>2015-07-19T21:34:10Z</time>
      </trkpt>
      <trkpt lat="37.420293" lon="-122.211398">
        <ele>102.1</ele>
        <time>2015-07-19T21:34:11Z</time>
      </trkpt>
      <trkpt lat="37.42029" lon="-122.211355">
        <ele>102.1</ele>
        <time>2015-07-19T21:34:12Z</time>
      </trkpt>
      <trkpt lat="37.420305" lon="-122.211314">
        <ele>102.1</ele>
        <time>2015-07-19T21:34:13Z</time>
      </trkpt>
      <trkpt lat="37.420305" lon="-122.21128">
        <ele>102.1</ele>
        <time>2015-07-19T21:34:14Z</time>
      </trkpt>
      <trkpt lat="37.420306" lon="-122.211213">
        <ele>102.1</ele>
        <time>2015-07-19T21:34:16Z</time>
      </trkpt>
      <trkpt lat="37.420306" lon="-122.211156">
        <ele>102.1</ele>
        <time>2015-07-19T21:34:18Z</time>
      </trkpt>
      <trkpt lat="37.420307" lon="-122.211109">
        <ele>102</ele>
        <time>2015-07-19T21:34:20Z</time>
      </trkpt>
      <trkpt lat="37.420306" lon="-122.211146">
        <ele>102.1</ele>
        <time>2015-07-19T21:34:37Z</time>
      </trkpt>
      <trkpt lat="37.420307" lon="-122.211109">
        <ele>102</ele>
        <time>2015-07-19T21:34:43Z</time>
      </trkpt>
      <trkpt lat="37.420308" lon="-122.211055">
        <ele>102.1</ele>
        <time>2015-07-19T21:34:45Z</time>
      </trkpt>
      <trkpt lat="37.42031" lon="-122.210958">
        <ele>102</ele>
        <time>2015-07-19T21:34:47Z</time>
      </trkpt>
      <trkpt lat="37.420312" lon="-122.210916">
        <ele>102</ele>
        <time>2015-07-19T21:34:48Z</time>
      </trkpt>
      <trkpt lat="37.420316" lon="-122.210814">
        <ele>101.9</ele>
        <time>2015-07-19T21:34:50Z</time>
      </trkpt>
      <trkpt lat="37.420319" lon="-122.210754">
        <ele>101.8</ele>
        <time>2015-07-19T21:34:51Z</time>
      </trkpt>
      <trkpt lat="37.420322" lon="-122.210682">
        <ele>101.7</ele>
        <time>2015-07-19T21:34:52Z</time>
      </trkpt>
      <trkpt lat="37.420325" lon="-122.210622">
        <ele>101.6</ele>
        <time>2015-07-19T21:34:53Z</time>
      </trkpt>
      <trkpt lat="37.420328" lon="-122.210557">
        <ele>101.6</ele>
        <time>2015-07-19T21:34:54Z</time>
      </trkpt>
      <trkpt lat="37.42033" lon="-122.210506">
        <ele>101.5</ele>
        <time>2015-07-19T21:34:55Z</time>
      </trkpt>
      <trkpt lat="37.420334" lon="-122.210457">
        <ele>101.5</ele>
        <time>2015-07-19T21:34:56Z</time>
      </trkpt>
      <trkpt lat="37.42034" lon="-122.210399">
        <ele>101.3</ele>
        <time>2015-07-19T21:34:57Z</time>
      </trkpt>
      <trkpt lat="37.420338" lon="-122.210348">
        <ele>101.2</ele>
        <time>2015-07-19T21:34:58Z</time>
      </trkpt>
      <trkpt lat="37.42034" lon="-122.210293">
        <ele>101</ele>
        <time>2015-07-19T21:34:59Z</time>
      </trkpt>
      <trkpt lat="37.420344" lon="-122.210218">
        <ele>100.9</ele>
        <time>2015-07-19T21:35:00Z</time>
      </trkpt>
      <trkpt lat="37.42035" lon="-122.210154">
        <ele>100.7</ele>
        <time>2015-07-19T21:35:01Z</time>
      </trkpt>
      <trkpt lat="37.420359" lon="-122.210075">
        <ele>100.5</ele>
        <time>2015-07-19T21:35:02Z</time>
      </trkpt>
      <trkpt lat="37.420368" lon="-122.20999">
        <ele>100.3</ele>
        <time>2015-07-19T21:35:03Z</time>
      </trkpt>
      <trkpt lat="37.42039" lon="-122.209869">
        <ele>100</ele>
        <time>2015-07-19T21:35:04Z</time>
      </trkpt>
      <trkpt lat="37.420388" lon="-122.209772">
        <ele>99.7</ele>
        <time>2015-07-19T21:35:05Z</time>
      </trkpt>
      <trkpt lat="37.420402" lon="-122.209682">
        <ele>99.4</ele>
        <time>2015-07-19T21:35:06Z</time>
      </trkpt>
      <trkpt lat="37.420404" lon="-122.209603">
        <ele>99.1</ele>
        <time>2015-07-19T21:35:07Z</time>
      </trkpt>
      <trkpt lat="37.420412" lon="-122.209513">
        <ele>98.8</ele>
        <time>2015-07-19T21:35:08Z</time>
      </trkpt>
      <trkpt lat="37.420424" lon="-122.209423">
        <ele>98.4</ele>
        <time>2015-07-19T21:35:09Z</time>
      </trkpt>
      <trkpt lat="37.42043" lon="-122.20933">
        <ele>98</ele>
        <time>2015-07-19T21:35:10Z</time>
      </trkpt>
      <trkpt lat="37.420438" lon="-122.209255">
        <ele>97.8</ele>
        <time>2015-07-19T21:35:11Z</time>
      </trkpt>
      <trkpt lat="37.420451" lon="-122.209148">
        <ele>97.4</ele>
        <time>2015-07-19T21:35:12Z</time>
      </trkpt>
      <trkpt lat="37.420463" lon="-122.209053">
        <ele>97</ele>
        <time>2015-07-19T21:35:13Z</time>
      </trkpt>
      <trkpt lat="37.420482" lon="-122.208969">
        <ele>96.7</ele>
        <time>2015-07-19T21:35:14Z</time>
      </trkpt>
      <trkpt lat="37.420498" lon="-122.208851">
        <ele>96.2</ele>
        <time>2015-07-19T21:35:15Z</time>
      </trkpt>
      <trkpt lat="37.420516" lon="-122.208758">
        <ele>95.9</ele>
        <time>2015-07-19T21:35:16Z</time>
      </trkpt>
      <trkpt lat="37.420542" lon="-122.208636">
        <ele>95.4</ele>
        <time>2015-07-19T21:35:17Z</time>
      </trkpt>
      <trkpt lat="37.420563" lon="-122.208523">
        <ele>95.1</ele>
        <time>2015-07-19T21:35:18Z</time>
      </trkpt>
      <trkpt lat="37.420587" lon="-122.208408">
        <ele>94.7</ele>
        <time>2015-07-19T21:35:19Z</time>
      </trkpt>
      <trkpt lat="37.420616" lon="-122.208302">
        <ele>94.2</ele>
        <time>2015-07-19T21:35:20Z</time>
      </trkpt>
      <trkpt lat="37.420634" lon="-122.208172">
        <ele>93.8</ele>
        <time>2015-07-19T21:35:21Z</time>
      </trkpt>
      <trkpt lat="37.420657" lon="-122.208058">
        <ele>93.3</ele>
        <time>2015-07-19T21:35:22Z</time>
      </trkpt>
      <trkpt lat="37.42068" lon="-122.207955">
        <ele>92.9</ele>
        <time>2015-07-19T21:35:23Z</time>
      </trkpt>
      <trkpt lat="37.420703" lon="-122.207849">
        <ele>92.5</ele>
        <time>2015-07-19T21:35:24Z</time>
      </trkpt>
      <trkpt lat="37.420728" lon="-122.207727">
        <ele>92</ele>
        <time>2015-07-19T21:35:25Z</time>
      </trkpt>
      <trkpt lat="37.420753" lon="-122.20761">
        <ele>91.6</ele>
        <time>2015-07-19T21:35:26Z</time>
      </trkpt>
      <trkpt lat="37.420779" lon="-122.207489">
        <ele>91.2</ele>
        <time>2015-07-19T21:35:27Z</time>
      </trkpt>
      <trkpt lat="37.420803" lon="-122.207357">
        <ele>90.6</ele>
        <time>2015-07-19T21:35:28Z</time>
      </trkpt>
      <trkpt lat="37.420831" lon="-122.207231">
        <ele>90.1</ele>
        <time>2015-07-19T21:35:29Z</time>
      </trkpt>
      <trkpt lat="37.420857" lon="-122.207115">
        <ele>89.7</ele>
        <time>2015-07-19T21:35:30Z</time>
      </trkpt>
      <trkpt lat="37.420879" lon="-122.207">
        <ele>89.3</ele>
        <time>2015-07-19T21:35:31Z</time>
      </trkpt>
      <trkpt lat="37.420902" lon="-122.206871">
        <ele>88.8</ele>
        <time>2015-07-19T21:35:32Z</time>
      </trkpt>
      <trkpt lat="37.420923" lon="-122.206756">
        <ele>88.3</ele>
        <time>2015-07-19T21:35:33Z</time>
      </trkpt>
      <trkpt lat="37.420942" lon="-122.206637">
        <ele>87.9</ele>
        <time>2015-07-19T21:35:34Z</time>
      </trkpt>
      <trkpt lat="37.420965" lon="-122.206527">
        <ele>87.4</ele>
        <time>2015-07-19T21:35:35Z</time>
      </trkpt>
      <trkpt lat="37.420983" lon="-122.206382">
        <ele>86.8</ele>
        <time>2015-07-19T21:35:36Z</time>
      </trkpt>
      <trkpt lat="37.421001" lon="-122.206252">
        <ele>86.4</ele>
        <time>2015-07-19T21:35:37Z</time>
      </trkpt>
      <trkpt lat="37.421022" lon="-122.206134">
        <ele>85.9</ele>
        <time>2015-07-19T21:35:38Z</time>
      </trkpt>
      <trkpt lat="37.421036" lon="-122.206009">
        <ele>85.5</ele>
        <time>2015-07-19T21:35:39Z</time>
      </trkpt>
      <trkpt lat="37.421055" lon="-122.205879">
        <ele>84.9</ele>
        <time>2015-07-19T21:35:40Z</time>
      </trkpt>
      <trkpt lat="37.421072" lon="-122.205746">
        <ele>84.3</ele>
        <time>2015-07-19T21:35:41Z</time>
      </trkpt>
      <trkpt lat="37.421085" lon="-122.205626">
        <ele>83.7</ele>
        <time>2015-07-19T21:35:42Z</time>
      </trkpt>
      <trkpt lat="37.421097" lon="-122.205501">
        <ele>83.2</ele>
        <time>2015-07-19T21:35:43Z</time>
      </trkpt>
      <trkpt lat="37.421121" lon="-122.20533">
        <ele>82.4</ele>
        <time>2015-07-19T21:35:44Z</time>
      </trkpt>
      <trkpt lat="37.421135" lon="-122.205199">
        <ele>81.8</ele>
        <time>2015-07-19T21:35:45Z</time>
      </trkpt>
      <trkpt lat="37.421144" lon="-122.20506">
        <ele>81.2</ele>
        <time>2015-07-19T21:35:46Z</time>
      </trkpt>
      <trkpt lat="37.421156" lon="-122.204946">
        <ele>80.7</ele>
        <time>2015-07-19T21:35:47Z</time>
      </trkpt>
      <trkpt lat="37.421161" lon="-122.204833">
        <ele>80.2</ele>
        <time>2015-07-19T21:35:48Z</time>
      </trkpt>
      <trkpt lat="37.421158" lon="-122.204769">
        <ele>79.9</ele>
        <time>2015-07-19T21:35:49Z</time>
      </trkpt>
      <trkpt lat="37.421168" lon="-122.204716">
        <ele>79.6</ele>
        <time>2015-07-19T21:35:50Z</time>
      </trkpt>
      <trkpt lat="37.421163" lon="-122.204681">
        <ele>79.5</ele>
        <time>2015-07-19T21:35:51Z</time>
      </trkpt>
      <trkpt lat="37.421172" lon="-122.20464">
        <ele>79.3</ele>
        <time>2015-07-19T21:35:54Z</time>
      </trkpt>
      <trkpt lat="37.421173" lon="-122.204592">
        <ele>79.1</ele>
        <time>2015-07-19T21:35:57Z</time>
      </trkpt>
      <trkpt lat="37.421179" lon="-122.204555">
        <ele>79</ele>
        <time>2015-07-19T21:36:01Z</time>
      </trkpt>
      <trkpt lat="37.42118" lon="-122.20452">
        <ele>78.8</ele>
        <time>2015-07-19T21:36:04Z</time>
      </trkpt>
      <trkpt lat="37.421185" lon="-122.204484">
        <ele>78.6</ele>
        <time>2015-07-19T21:36:08Z</time>
      </trkpt>
      <trkpt lat="37.421185" lon="-122.204439">
        <ele>78.4</ele>
        <time>2015-07-19T21:36:20Z</time>
      </trkpt>
      <trkpt lat="37.421189" lon="-122.204384">
        <ele>78.2</ele>
        <time>2015-07-19T21:36:22Z</time>
      </trkpt>
      <trkpt lat="37.421197" lon="-122.204306">
        <ele>77.9</ele>
        <time>2015-07-19T21:36:24Z</time>
      </trkpt>
      <trkpt lat="37.421202" lon="-122.204267">
        <ele>77.8</ele>
        <time>2015-07-19T21:36:25Z</time>
      </trkpt>
      <trkpt lat="37.421215" lon="-122.204135">
        <ele>77.2</ele>
        <time>2015-07-19T21:36:27Z</time>
      </trkpt>
      <trkpt lat="37.421241" lon="-122.203905">
        <ele>76.4</ele>
        <time>2015-07-19T21:36:30Z</time>
      </trkpt>
      <trkpt lat="37.421251" lon="-122.203827">
        <ele>76.2</ele>
        <time>2015-07-19T21:36:31Z</time>
      </trkpt>
      <trkpt lat="37.421267" lon="-122.203731">
        <ele>76</ele>
        <time>2015-07-19T21:36:32Z</time>
      </trkpt>
      <trkpt lat="37.421285" lon="-122.203648">
        <ele>75.8</ele>
        <time>2015-07-19T21:36:33Z</time>
      </trkpt>
      <trkpt lat="37.421296" lon="-122.20358">
        <ele>75.6</ele>
        <time>2015-07-19T21:36:34Z</time>
      </trkpt>
      <trkpt lat="37.421307" lon="-122.203484">
        <ele>75.4</ele>
        <time>2015-07-19T21:36:35Z</time>
      </trkpt>
      <trkpt lat="37.42132" lon="-122.203396">
        <ele>75.2</ele>
        <time>2015-07-19T21:36:36Z</time>
      </trkpt>
      <trkpt lat="37.421331" lon="-122.203284">
        <ele>75</ele>
        <time>2015-07-19T21:36:37Z</time>
      </trkpt>
      <trkpt lat="37.421344" lon="-122.203183">
        <ele>74.8</ele>
        <time>2015-07-19T21:36:38Z</time>
      </trkpt>
      <trkpt lat="37.421355" lon="-122.203096">
        <ele>74.6</ele>
        <time>2015-07-19T21:36:39Z</time>
      </trkpt>
      <trkpt lat="37.421361" lon="-122.20301">
        <ele>74.6</ele>
        <time>2015-07-19T21:36:40Z</time>
      </trkpt>
      <trkpt lat="37.421371" lon="-122.202925">
        <ele>74.5</ele>
        <time>2015-07-19T21:36:41Z</time>
      </trkpt>
      <trkpt lat="37.421378" lon="-122.20284">
        <ele>74.4</ele>
        <time>2015-07-19T21:36:42Z</time>
      </trkpt>
      <trkpt lat="37.421384" lon="-122.20275">
        <ele>74.3</ele>
        <time>2015-07-19T21:36:43Z</time>
      </trkpt>
      <trkpt lat="37.421385" lon="-122.202666">
        <ele>74.2</ele>
        <time>2015-07-19T21:36:44Z</time>
      </trkpt>
      <trkpt lat="37.421393" lon="-122.202575">
        <ele>74.2</ele>
        <time>2015-07-19T21:36:45Z</time>
      </trkpt>
      <trkpt lat="37.421399" lon="-122.202478">
        <ele>74.1</ele>
        <time>2015-07-19T21:36:46Z</time>
      </trkpt>
      <trkpt lat="37.421404" lon="-122.202389">
        <ele>74</ele>
        <time>2015-07-19T21:36:47Z</time>
      </trkpt>
      <trkpt lat="37.421418" lon="-122.202306">
        <ele>73.9</ele>
        <time>2015-07-19T21:36:48Z</time>
      </trkpt>
      <trkpt lat="37.421423" lon="-122.202213">
        <ele>73.7</ele>
        <time>2015-07-19T21:36:49Z</time>
      </trkpt>
      <trkpt lat="37.421431" lon="-122.202136">
        <ele>73.8</ele>
        <time>2015-07-19T21:36:50Z</time>
      </trkpt>
      <trkpt lat="37.421444" lon="-122.202058">
        <ele>73.6</ele>
        <time>2015-07-19T21:36:51Z</time>
      </trkpt>
      <trkpt lat="37.421451" lon="-122.201982">
        <ele>73.5</ele>
        <time>2015-07-19T21:36:52Z</time>
      </trkpt>
      <trkpt lat="37.42146" lon="-122.201906">
        <ele>73.4</ele>
        <time>2015-07-19T21:36:53Z</time>
      </trkpt>
      <trkpt lat="37.421473" lon="-122.201827">
        <ele>73.3</ele>
        <time>2015-07-19T21:36:54Z</time>
      </trkpt>
      <trkpt lat="37.421471" lon="-122.201757">
        <ele>73.1</ele>
        <time>2015-07-19T21:36:55Z</time>
      </trkpt>
      <trkpt lat="37.42148" lon="-122.201677">
        <ele>73</ele>
        <time>2015-07-19T21:36:56Z</time>
      </trkpt>
      <trkpt lat="37.421497" lon="-122.201601">
        <ele>73</ele>
        <time>2015-07-19T21:36:57Z</time>
      </trkpt>
      <trkpt lat="37.421504" lon="-122.201522">
        <ele>72.8</ele>
        <time>2015-07-19T21:36:58Z</time>
      </trkpt>
      <trkpt lat="37.421514" lon="-122.201443">
        <ele>72.6</ele>
        <time>2015-07-19T21:36:59Z</time>
      </trkpt>
      <trkpt lat="37.421529" lon="-122.201361">
        <ele>72.5</ele>
        <time>2015-07-19T21:37:00Z</time>
      </trkpt>
      <trkpt lat="37.421546" lon="-122.201271">
        <ele>72.3</ele>
        <time>2015-07-19T21:37:01Z</time>
      </trkpt>
      <trkpt lat="37.421557" lon="-122.201184">
        <ele>72</ele>
        <time>2015-07-19T21:37:02Z</time>
      </trkpt>
      <trkpt lat="37.421571" lon="-122.201104">
        <ele>71.9</ele>
        <time>2015-07-19T21:37:03Z</time>
      </trkpt>
      <trkpt lat="37.421582" lon="-122.201021">
        <ele>71.7</ele>
        <time>2015-07-19T21:37:04Z</time>
      </trkpt>
      <trkpt lat="37.421596" lon="-122.200928">
        <ele>71.4</ele>
        <time>2015-07-19T21:37:05Z</time>
      </trkpt>
      <trkpt lat="37.421618" lon="-122.200836">
        <ele>71.2</ele>
        <time>2015-07-19T21:37:06Z</time>
      </trkpt>
      <trkpt lat="37.421627" lon="-122.200753">
        <ele>71</ele>
        <time>2015-07-19T21:37:07Z</time>
      </trkpt>
      <trkpt lat="37.421644" lon="-122.200625">
        <ele>70.6</ele>
        <time>2015-07-19T21:37:08Z</time>
      </trkpt>
      <trkpt lat="37.421664" lon="-122.200518">
        <ele>70.3</ele>
        <time>2015-07-19T21:37:09Z</time>
      </trkpt>
      <trkpt lat="37.421683" lon="-122.200418">
        <ele>70.1</ele>
        <time>2015-07-19T21:37:10Z</time>
      </trkpt>
      <trkpt lat="37.421701" lon="-122.200322">
        <ele>69.7</ele>
        <time>2015-07-19T21:37:11Z</time>
      </trkpt>
      <trkpt lat="37.421715" lon="-122.200246">
        <ele>69.5</ele>
        <time>2015-07-19T21:37:12Z</time>
      </trkpt>
      <trkpt lat="37.421733" lon="-122.200149">
        <ele>69.3</ele>
        <time>2015-07-19T21:37:13Z</time>
      </trkpt>
      <trkpt lat="37.421748" lon="-122.200047">
        <ele>69</ele>
        <time>2015-07-19T21:37:14Z</time>
      </trkpt>
      <trkpt lat="37.421769" lon="-122.199955">
        <ele>68.7</ele>
        <time>2015-07-19T21:37:15Z</time>
      </trkpt>
      <trkpt lat="37.421784" lon="-122.199861">
        <ele>68.4</ele>
        <time>2015-07-19T21:37:16Z</time>
      </trkpt>
      <trkpt lat="37.421796" lon="-122.199767">
        <ele>68.2</ele>
        <time>2015-07-19T21:37:17Z</time>
      </trkpt>
      <trkpt lat="37.421818" lon="-122.19967">
        <ele>67.9</ele>
        <time>2015-07-19T21:37:18Z</time>
      </trkpt>
      <trkpt lat="37.421847" lon="-122.19956">
        <ele>67.6</ele>
        <time>2015-07-19T21:37:19Z</time>
      </trkpt>
      <trkpt lat="37.421871" lon="-122.199462">
        <ele>67.3</ele>
        <time>2015-07-19T21:37:20Z</time>
      </trkpt>
      <trkpt lat="37.421896" lon="-122.199356">
        <ele>67.1</ele>
        <time>2015-07-19T21:37:21Z</time>
      </trkpt>
      <trkpt lat="37.421924" lon="-122.199258">
        <ele>66.8</ele>
        <time>2015-07-19T21:37:22Z</time>
      </trkpt>
      <trkpt lat="37.421946" lon="-122.199146">
        <ele>66.5</ele>
        <time>2015-07-19T21:37:23Z</time>
      </trkpt>
      <trkpt lat="37.421978" lon="-122.19904">
        <ele>66.2</ele>
        <time>2015-07-19T21:37:24Z</time>
      </trkpt>
      <trkpt lat="37.42201" lon="-122.198933">
        <ele>66</ele>
        <time>2015-07-19T21:37:25Z</time>
      </trkpt>
      <trkpt lat="37.422035" lon="-122.198834">
        <ele>65.7</ele>
        <time>2015-07-19T21:37:26Z</time>
      </trkpt>
      <trkpt lat="37.422063" lon="-122.198723">
        <ele>65.4</ele>
        <time>2015-07-19T21:37:27Z</time>
      </trkpt>
      <trkpt lat="37.422089" lon="-122.198635">
        <ele>65.2</ele>
        <time>2015-07-19T21:37:28Z</time>
      </trkpt>
      <trkpt lat="37.422105" lon="-122.19858">
        <ele>65.1</ele>
        <time>2015-07-19T21:37:29Z</time>
      </trkpt>
      <trkpt lat="37.422147" lon="-122.198439">
        <ele>64.9</ele>
        <time>2015-07-19T21:37:30Z</time>
      </trkpt>
      <trkpt lat="37.422178" lon="-122.198356">
        <ele>64.7</ele>
        <time>2015-07-19T21:37:31Z</time>
      </trkpt>
      <trkpt lat="37.42221" lon="-122.198265">
        <ele>64.5</ele>
        <time>2015-07-19T21:37:32Z</time>
      </trkpt>
      <trkpt lat="37.422245" lon="-122.198168">
        <ele>64.3</ele>
        <time>2015-07-19T21:37:33Z</time>
      </trkpt>
      <trkpt lat="37.422277" lon="-122.198077">
        <ele>64.2</ele>
        <time>2015-07-19T21:37:34Z</time>
      </trkpt>
      <trkpt lat="37.422312" lon="-122.197987">
        <ele>64</ele>
        <time>2015-07-19T21:37:35Z</time>
      </trkpt>
      <trkpt lat="37.422349" lon="-122.197886">
        <ele>63.9</ele>
        <time>2015-07-19T21:37:36Z</time>
      </trkpt>
      <trkpt lat="37.422381" lon="-122.197797">
        <ele>63.7</ele>
        <time>2015-07-19T21:37:37Z</time>
      </trkpt>
      <trkpt lat="37.422418" lon="-122.197698">
        <ele>63.6</ele>
        <time>2015-07-19T21:37:38Z</time>
      </trkpt>
      <trkpt lat="37.422452" lon="-122.197614">
        <ele>63.5</ele>
        <time>2015-07-19T21:37:39Z</time>
      </trkpt>
      <trkpt lat="37.422481" lon="-122.197537">
        <ele>63.4</ele>
        <time>2015-07-19T21:37:40Z</time>
      </trkpt>
      <trkpt lat="37.422517" lon="-122.197451">
        <ele>63.2</ele>
        <time>2015-07-19T21:37:41Z</time>
      </trkpt>
      <trkpt lat="37.422545" lon="-122.197381">
        <ele>63.1</ele>
        <time>2015-07-19T21:37:42Z</time>
      </trkpt>
      <trkpt lat="37.422583" lon="-122.197301">
        <ele>62.9</ele>
        <time>2015-07-19T21:37:43Z</time>
      </trkpt>
      <trkpt lat="37.422619" lon="-122.197222">
        <ele>62.8</ele>
        <time>2015-07-19T21:37:44Z</time>
      </trkpt>
      <trkpt lat="37.422654" lon="-122.197141">
        <ele>62.7</ele>
        <time>2015-07-19T21:37:45Z</time>
      </trkpt>
      <trkpt lat="37.422692" lon="-122.197066">
        <ele>62.6</ele>
        <time>2015-07-19T21:37:46Z</time>
      </trkpt>
      <trkpt lat="37.42273" lon="-122.196988">
        <ele>62.5</ele>
        <time>2015-07-19T21:37:47Z</time>
      </trkpt>
      <trkpt lat="37.422766" lon="-122.196912">
        <ele>62.4</ele>
        <time>2015-07-19T21:37:48Z</time>
      </trkpt>
      <trkpt lat="37.422802" lon="-122.196841">
        <ele>62.2</ele>
        <time>2015-07-19T21:37:49Z</time>
      </trkpt>
      <trkpt lat="37.422843" lon="-122.196758">
        <ele>62.1</ele>
        <time>2015-07-19T21:37:50Z</time>
      </trkpt>
      <trkpt lat="37.422881" lon="-122.196684">
        <ele>61.8</ele>
        <time>2015-07-19T21:37:51Z</time>
      </trkpt>
      <trkpt lat="37.422918" lon="-122.196613">
        <ele>61.7</ele>
        <time>2015-07-19T21:37:52Z</time>
      </trkpt>
      <trkpt lat="37.422958" lon="-122.196539">
        <ele>61.5</ele>
        <time>2015-07-19T21:37:53Z</time>
      </trkpt>
      <trkpt lat="37.422994" lon="-122.196473">
        <ele>61.4</ele>
        <time>2015-07-19T21:37:54Z</time>
      </trkpt>
      <trkpt lat="37.423032" lon="-122.1964">
        <ele>61.2</ele>
        <time>2015-07-19T21:37:55Z</time>
      </trkpt>
      <trkpt lat="37.423077" lon="-122.196314">
        <ele>61</ele>
        <time>2015-07-19T21:37:56Z</time>
      </trkpt>
      <trkpt lat="37.423119" lon="-122.196236">
        <ele>60.8</ele>
        <time>2015-07-19T21:37:57Z</time>
      </trkpt>
      <trkpt lat="37.423164" lon="-122.196142">
        <ele>60.5</ele>
        <time>2015-07-19T21:37:58Z</time>
      </trkpt>
      <trkpt lat="37.423209" lon="-122.196066">
        <ele>60.2</ele>
        <time>2015-07-19T21:37:59Z</time>
      </trkpt>
      <trkpt lat="37.423248" lon="-122.195997">
        <ele>60</ele>
        <time>2015-07-19T21:38:00Z</time>
      </trkpt>
      <trkpt lat="37.423289" lon="-122.195928">
        <ele>59.9</ele>
        <time>2015-07-19T21:38:01Z</time>
      </trkpt>
      <trkpt lat="37.423331" lon="-122.195861">
        <ele>59.6</ele>
        <time>2015-07-19T21:38:02Z</time>
      </trkpt>
      <trkpt lat="37.423368" lon="-122.195801">
        <ele>59.5</ele>
        <time>2015-07-19T21:38:03Z</time>
      </trkpt>
      <trkpt lat="37.423408" lon="-122.195743">
        <ele>59.3</ele>
        <time>2015-07-19T21:38:04Z</time>
      </trkpt>
      <trkpt lat="37.423442" lon="-122.195688">
        <ele>59.2</ele>
        <time>2015-07-19T21:38:05Z</time>
      </trkpt>
      <trkpt lat="37.423463" lon="-122.195653">
        <ele>59</ele>
        <time>2015-07-19T21:38:06Z</time>
      </trkpt>
      <trkpt lat="37.423484" lon="-122.195616">
        <ele>58.9</ele>
        <time>2015-07-19T21:38:07Z</time>
      </trkpt>
      <trkpt lat="37.423516" lon="-122.195574">
        <ele>58.8</ele>
        <time>2015-07-19T21:38:08Z</time>
      </trkpt>
      <trkpt lat="37.423559" lon="-122.195522">
        <ele>58.6</ele>
        <time>2015-07-19T21:38:09Z</time>
      </trkpt>
      <trkpt lat="37.423592" lon="-122.195478">
        <ele>58.5</ele>
        <time>2015-07-19T21:38:10Z</time>
      </trkpt>
      <trkpt lat="37.423626" lon="-122.195425">
        <ele>58.4</ele>
        <time>2015-07-19T21:38:11Z</time>
      </trkpt>
      <trkpt lat="37.423668" lon="-122.195368">
        <ele>58.2</ele>
        <time>2015-07-19T21:38:12Z</time>
      </trkpt>
      <trkpt lat="37.4237" lon="-122.195321">
        <ele>58.1</ele>
        <time>2015-07-19T21:38:13Z</time>
      </trkpt>
      <trkpt lat="37.423744" lon="-122.195274">
        <ele>57.9</ele>
        <time>2015-07-19T21:38:14Z</time>
      </trkpt>
      <trkpt lat="37.423907" lon="-122.195045">
        <ele>57.1</ele>
        <time>2015-07-19T21:38:18Z</time>
      </trkpt>
      <trkpt lat="37.423956" lon="-122.194983">
        <ele>57</ele>
        <time>2015-07-19T21:38:19Z</time>
      </trkpt>
      <trkpt lat="37.424002" lon="-122.194927">
        <ele>56.8</ele>
        <time>2015-07-19T21:38:20Z</time>
      </trkpt>
      <trkpt lat="37.424052" lon="-122.194861">
        <ele>56.5</ele>
        <time>2015-07-19T21:38:21Z</time>
      </trkpt>
      <trkpt lat="37.424092" lon="-122.1948">
        <ele>56.4</ele>
        <time>2015-07-19T21:38:22Z</time>
      </trkpt>
      <trkpt lat="37.424135" lon="-122.194737">
        <ele>56.3</ele>
        <time>2015-07-19T21:38:23Z</time>
      </trkpt>
      <trkpt lat="37.424181" lon="-122.19467">
        <ele>56</ele>
        <time>2015-07-19T21:38:24Z</time>
      </trkpt>
      <trkpt lat="37.424228" lon="-122.194606">
        <ele>55.8</ele>
        <time>2015-07-19T21:38:25Z</time>
      </trkpt>
      <trkpt lat="37.424282" lon="-122.194525">
        <ele>55.6</ele>
        <time>2015-07-19T21:38:26Z</time>
      </trkpt>
      <trkpt lat="37.424335" lon="-122.194447">
        <ele>55.4</ele>
        <time>2015-07-19T21:38:27Z</time>
      </trkpt>
      <trkpt lat="37.424385" lon="-122.194375">
        <ele>55.2</ele>
        <time>2015-07-19T21:38:28Z</time>
      </trkpt>
      <trkpt lat="37.424435" lon="-122.194305">
        <ele>55</ele>
        <time>2015-07-19T21:38:29Z</time>
      </trkpt>
      <trkpt lat="37.424483" lon="-122.194235">
        <ele>54.7</ele>
        <time>2015-07-19T21:38:30Z</time>
      </trkpt>
      <trkpt lat="37.424542" lon="-122.19415">
        <ele>54.5</ele>
        <time>2015-07-19T21:38:31Z</time>
      </trkpt>
      <trkpt lat="37.424592" lon="-122.194083">
        <ele>54.3</ele>
        <time>2015-07-19T21:38:32Z</time>
      </trkpt>
      <trkpt lat="37.424637" lon="-122.194012">
        <ele>54.1</ele>
        <time>2015-07-19T21:38:33Z</time>
      </trkpt>
      <trkpt lat="37.424688" lon="-122.193936">
        <ele>53.9</ele>
        <time>2015-07-19T21:38:34Z</time>
      </trkpt>
      <trkpt lat="37.42474" lon="-122.193859">
        <ele>53.6</ele>
        <time>2015-07-19T21:38:35Z</time>
      </trkpt>
      <trkpt lat="37.424795" lon="-122.193782">
        <ele>53.4</ele>
        <time>2015-07-19T21:38:36Z</time>
      </trkpt>
      <trkpt lat="37.42484" lon="-122.193711">
        <ele>53.1</ele>
        <time>2015-07-19T21:38:37Z</time>
      </trkpt>
      <trkpt lat="37.424893" lon="-122.193641">
        <ele>52.9</ele>
        <time>2015-07-19T21:38:38Z</time>
      </trkpt>
      <trkpt lat="37.424945" lon="-122.193566">
        <ele>52.6</ele>
        <time>2015-07-19T21:38:39Z</time>
      </trkpt>
      <trkpt lat="37.424998" lon="-122.19349">
        <ele>52.3</ele>
        <time>2015-07-19T21:38:40Z</time>
      </trkpt>
      <trkpt lat="37.425062" lon="-122.193406">
        <ele>52</ele>
        <time>2015-07-19T21:38:41Z</time>
      </trkpt>
      <trkpt lat="37.425111" lon="-122.193325">
        <ele>51.7</ele>
        <time>2015-07-19T21:38:42Z</time>
      </trkpt>
      <trkpt lat="37.425151" lon="-122.193272">
        <ele>51.3</ele>
        <time>2015-07-19T21:38:43Z</time>
      </trkpt>
      <trkpt lat="37.425218" lon="-122.193169">
        <ele>50.9</ele>
        <time>2015-07-19T21:38:44Z</time>
      </trkpt>
      <trkpt lat="37.425262" lon="-122.193095">
        <ele>50.5</ele>
        <time>2015-07-19T21:38:45Z</time>
      </trkpt>
      <trkpt lat="37.425302" lon="-122.193034">
        <ele>50.3</ele>
        <time>2015-07-19T21:38:46Z</time>
      </trkpt>
      <trkpt lat="37.425346" lon="-122.192968">
        <ele>49.9</ele>
        <time>2015-07-19T21:38:47Z</time>
      </trkpt>
      <trkpt lat="37.425386" lon="-122.192911">
        <ele>49.5</ele>
        <time>2015-07-19T21:38:48Z</time>
      </trkpt>
      <trkpt lat="37.425424" lon="-122.19286">
        <ele>49.3</ele>
        <time>2015-07-19T21:38:49Z</time>
      </trkpt>
      <trkpt lat="37.425457" lon="-122.192812">
        <ele>49</ele>
        <time>2015-07-19T21:38:50Z</time>
      </trkpt>
      <trkpt lat="37.425489" lon="-122.192766">
        <ele>48.8</ele>
        <time>2015-07-19T21:38:51Z</time>
      </trkpt>
      <trkpt lat="37.425511" lon="-122.192733">
        <ele>48.6</ele>
        <time>2015-07-19T21:38:52Z</time>
      </trkpt>
      <trkpt lat="37.425537" lon="-122.19269">
        <ele>48.4</ele>
        <time>2015-07-19T21:38:54Z</time>
      </trkpt>
      <trkpt lat="37.42557" lon="-122.192574">
        <ele>48.1</ele>
        <time>2015-07-19T21:38:56Z</time>
      </trkpt>
      <trkpt lat="37.425598" lon="-122.192484">
        <ele>47.8</ele>
        <time>2015-07-19T21:38:57Z</time>
      </trkpt>
      <trkpt lat="37.425586" lon="-122.192425">
        <ele>47.6</ele>
        <time>2015-07-19T21:38:58Z</time>
      </trkpt>
      <trkpt lat="37.425549" lon="-122.192407">
        <ele>47.9</ele>
        <time>2015-07-19T21:39:00Z</time>
      </trkpt>
      <trkpt lat="37.425508" lon="-122.192234">
        <ele>47.6</ele>
        <time>2015-07-19T21:39:03Z</time>
      </trkpt>
      <trkpt lat="37.425457" lon="-122.19217">
        <ele>47.6</ele>
        <time>2015-07-19T21:39:04Z</time>
      </trkpt>
      <trkpt lat="37.425429" lon="-122.192135">
        <ele>47.7</ele>
        <time>2015-07-19T21:39:05Z</time>
      </trkpt>
      <trkpt lat="37.425353" lon="-122.192031">
        <ele>47.9</ele>
        <time>2015-07-19T21:39:07Z</time>
      </trkpt>
      <trkpt lat="37.425301" lon="-122.191993">
        <ele>47.9</ele>
        <time>2015-07-19T21:39:08Z</time>
      </trkpt>
      <trkpt lat="37.425264" lon="-122.191961">
        <ele>47.9</ele>
        <time>2015-07-19T21:39:09Z</time>
      </trkpt>
      <trkpt lat="37.425226" lon="-122.191932">
        <ele>48</ele>
        <time>2015-07-19T21:39:10Z</time>
      </trkpt>
      <trkpt lat="37.425172" lon="-122.191891">
        <ele>48</ele>
        <time>2015-07-19T21:39:11Z</time>
      </trkpt>
      <trkpt lat="37.425127" lon="-122.191864">
        <ele>48</ele>
        <time>2015-07-19T21:39:12Z</time>
      </trkpt>
      <trkpt lat="37.425043" lon="-122.191826">
        <ele>48</ele>
        <time>2015-07-19T21:39:13Z</time>
      </trkpt>
      <trkpt lat="37.424983" lon="-122.191804">
        <ele>47.9</ele>
        <time>2015-07-19T21:39:14Z</time>
      </trkpt>
      <trkpt lat="37.424932" lon="-122.191788">
        <ele>47.9</ele>
        <time>2015-07-19T21:39:15Z</time>
      </trkpt>
      <trkpt lat="37.424871" lon="-122.191773">
        <ele>47.7</ele>
        <time>2015-07-19T21:39:16Z</time>
      </trkpt>
      <trkpt lat="37.424814" lon="-122.191761">
        <ele>47.6</ele>
        <time>2015-07-19T21:39:17Z</time>
      </trkpt>
      <trkpt lat="37.424762" lon="-122.191754">
        <ele>47.5</ele>
        <time>2015-07-19T21:39:18Z</time>
      </trkpt>
      <trkpt lat="37.424695" lon="-122.191758">
        <ele>47.4</ele>
        <time>2015-07-19T21:39:19Z</time>
      </trkpt>
      <trkpt lat="37.424634" lon="-122.191764">
        <ele>47.3</ele>
        <time>2015-07-19T21:39:20Z</time>
      </trkpt>
      <trkpt lat="37.424569" lon="-122.191764">
        <ele>47.3</ele>
        <time>2015-07-19T21:39:21Z</time>
      </trkpt>
      <trkpt lat="37.424506" lon="-122.19177">
        <ele>47.4</ele>
        <time>2015-07-19T21:39:22Z</time>
      </trkpt>
      <trkpt lat="37.424469" lon="-122.191754">
        <ele>47.3</ele>
        <time>2015-07-19T21:39:23Z</time>
      </trkpt>
      <trkpt lat="37.424485" lon="-122.19172">
        <ele>47.3</ele>
        <time>2015-07-19T21:39:25Z</time>
      </trkpt>
      <trkpt lat="37.424364" lon="-122.191663">
        <ele>47.2</ele>
        <time>2015-07-19T21:39:27Z</time>
      </trkpt>
      <trkpt lat="37.424348" lon="-122.191334">
        <ele>46.1</ele>
        <time>2015-07-19T21:39:29Z</time>
      </trkpt>
      <trkpt lat="37.424341" lon="-122.19125">
        <ele>45.8</ele>
        <time>2015-07-19T21:39:30Z</time>
      </trkpt>
      <trkpt lat="37.424346" lon="-122.191156">
        <ele>43.9</ele>
        <time>2015-07-19T21:39:31Z</time>
      </trkpt>
      <trkpt lat="37.424346" lon="-122.191064">
        <ele>40.4</ele>
        <time>2015-07-19T21:39:32Z</time>
      </trkpt>
      <trkpt lat="37.424327" lon="-122.190985">
        <ele>38.7</ele>
        <time>2015-07-19T21:39:33Z</time>
      </trkpt>
      <trkpt lat="37.424329" lon="-122.190875">
        <ele>34.3</ele>
        <time>2015-07-19T21:39:34Z</time>
      </trkpt>
      <trkpt lat="37.424311" lon="-122.190768">
        <ele>33.7</ele>
        <time>2015-07-19T21:39:35Z</time>
      </trkpt>
      <trkpt lat="37.424313" lon="-122.190657">
        <ele>34.2</ele>
        <time>2015-07-19T21:39:36Z</time>
      </trkpt>
      <trkpt lat="37.424304" lon="-122.190548">
        <ele>37.4</ele>
        <time>2015-07-19T21:39:37Z</time>
      </trkpt>
      <trkpt lat="37.424291" lon="-122.190421">
        <ele>39.3</ele>
        <time>2015-07-19T21:39:38Z</time>
      </trkpt>
      <trkpt lat="37.42427" lon="-122.190319">
        <ele>42</ele>
        <time>2015-07-19T21:39:39Z</time>
      </trkpt>
      <trkpt lat="37.42425" lon="-122.190218">
        <ele>42.2</ele>
        <time>2015-07-19T21:39:40Z</time>
      </trkpt>
      <trkpt lat="37.424232" lon="-122.190126">
        <ele>42.1</ele>
        <time>2015-07-19T21:39:41Z</time>
      </trkpt>
      <trkpt lat="37.42421" lon="-122.190007">
        <ele>42</ele>
        <time>2015-07-19T21:39:42Z</time>
      </trkpt>
      <trkpt lat="37.424184" lon="-122.189905">
        <ele>42</ele>
        <time>2015-07-19T21:39:43Z</time>
      </trkpt>
      <trkpt lat="37.424151" lon="-122.18981">
        <ele>41.8</ele>
        <time>2015-07-19T21:39:44Z</time>
      </trkpt>
      <trkpt lat="37.424114" lon="-122.18972">
        <ele>41.8</ele>
        <time>2015-07-19T21:39:45Z</time>
      </trkpt>
      <trkpt lat="37.424074" lon="-122.189625">
        <ele>41.7</ele>
        <time>2015-07-19T21:39:46Z</time>
      </trkpt>
      <trkpt lat="37.424033" lon="-122.18953">
        <ele>41.8</ele>
        <time>2015-07-19T21:39:47Z</time>
      </trkpt>
      <trkpt lat="37.423998" lon="-122.189447">
        <ele>42</ele>
        <time>2015-07-19T21:39:48Z</time>
      </trkpt>
      <trkpt lat="37.423959" lon="-122.189374">
        <ele>42.1</ele>
        <time>2015-07-19T21:39:49Z</time>
      </trkpt>
      <trkpt lat="37.423927" lon="-122.189316">
        <ele>42.2</ele>
        <time>2015-07-19T21:39:50Z</time>
      </trkpt>
      <trkpt lat="37.42389" lon="-122.189258">
        <ele>42.2</ele>
        <time>2015-07-19T21:39:51Z</time>
      </trkpt>
      <trkpt lat="37.423851" lon="-122.189204">
        <ele>42.3</ele>
        <time>2015-07-19T21:39:52Z</time>
      </trkpt>
      <trkpt lat="37.423834" lon="-122.189158">
        <ele>42.5</ele>
        <time>2015-07-19T21:39:53Z</time>
      </trkpt>
      <trkpt lat="37.423805" lon="-122.189109">
        <ele>42.7</ele>
        <time>2015-07-19T21:39:54Z</time>
      </trkpt>
      <trkpt lat="37.423775" lon="-122.18905">
        <ele>42.8</ele>
        <time>2015-07-19T21:39:55Z</time>
      </trkpt>
      <trkpt lat="37.423752" lon="-122.188986">
        <ele>43</ele>
        <time>2015-07-19T21:39:56Z</time>
      </trkpt>
      <trkpt lat="37.423724" lon="-122.188933">
        <ele>43.2</ele>
        <time>2015-07-19T21:39:57Z</time>
      </trkpt>
      <trkpt lat="37.423699" lon="-122.188892">
        <ele>43.3</ele>
        <time>2015-07-19T21:39:58Z</time>
      </trkpt>
      <trkpt lat="37.423681" lon="-122.188848">
        <ele>43.4</ele>
        <time>2015-07-19T21:39:59Z</time>
      </trkpt>
      <trkpt lat="37.423646" lon="-122.188784">
        <ele>43.5</ele>
        <time>2015-07-19T21:40:00Z</time>
      </trkpt>
      <trkpt lat="37.423615" lon="-122.188727">
        <ele>43.7</ele>
        <time>2015-07-19T21:40:01Z</time>
      </trkpt>
      <trkpt lat="37.423594" lon="-122.18868">
        <ele>43.9</ele>
        <time>2015-07-19T21:40:02Z</time>
      </trkpt>
      <trkpt lat="37.423561" lon="-122.188626">
        <ele>44</ele>
        <time>2015-07-19T21:40:03Z</time>
      </trkpt>
      <trkpt lat="37.423527" lon="-122.18856">
        <ele>44.1</ele>
        <time>2015-07-19T21:40:04Z</time>
      </trkpt>
      <trkpt lat="37.423498" lon="-122.188502">
        <ele>44.4</ele>
        <time>2015-07-19T21:40:05Z</time>
      </trkpt>
      <trkpt lat="37.423463" lon="-122.188433">
        <ele>44.7</ele>
        <time>2015-07-19T21:40:06Z</time>
      </trkpt>
      <trkpt lat="37.423418" lon="-122.18835">
        <ele>45</ele>
        <time>2015-07-19T21:40:07Z</time>
      </trkpt>
      <trkpt lat="37.423387" lon="-122.188287">
        <ele>45.2</ele>
        <time>2015-07-19T21:40:08Z</time>
      </trkpt>
      <trkpt lat="37.423341" lon="-122.188205">
        <ele>45.5</ele>
        <time>2015-07-19T21:40:09Z</time>
      </trkpt>
      <trkpt lat="37.423307" lon="-122.188135">
        <ele>45.7</ele>
        <time>2015-07-19T21:40:10Z</time>
      </trkpt>
      <trkpt lat="37.423277" lon="-122.188072">
        <ele>45.9</ele>
        <time>2015-07-19T21:40:11Z</time>
      </trkpt>
      <trkpt lat="37.423242" lon="-122.188008">
        <ele>46.1</ele>
        <time>2015-07-19T21:40:12Z</time>
      </trkpt>
      <trkpt lat="37.423203" lon="-122.187942">
        <ele>46.4</ele>
        <time>2015-07-19T21:40:13Z</time>
      </trkpt>
      <trkpt lat="37.423173" lon="-122.187876">
        <ele>46.7</ele>
        <time>2015-07-19T21:40:14Z</time>
      </trkpt>
      <trkpt lat="37.423133" lon="-122.187804">
        <ele>47</ele>
        <time>2015-07-19T21:40:15Z</time>
      </trkpt>
      <trkpt lat="37.423086" lon="-122.187741">
        <ele>47.2</ele>
        <time>2015-07-19T21:40:16Z</time>
      </trkpt>
      <trkpt lat="37.423059" lon="-122.187669">
        <ele>47.5</ele>
        <time>2015-07-19T21:40:17Z</time>
      </trkpt>
      <trkpt lat="37.423028" lon="-122.187608">
        <ele>47.8</ele>
        <time>2015-07-19T21:40:18Z</time>
      </trkpt>
      <trkpt lat="37.423003" lon="-122.187546">
        <ele>47.9</ele>
        <time>2015-07-19T21:40:19Z</time>
      </trkpt>
      <trkpt lat="37.42297" lon="-122.187483">
        <ele>48.2</ele>
        <time>2015-07-19T21:40:20Z</time>
      </trkpt>
      <trkpt lat="37.422927" lon="-122.187416">
        <ele>48.4</ele>
        <time>2015-07-19T21:40:21Z</time>
      </trkpt>
      <trkpt lat="37.42289" lon="-122.18735">
        <ele>48.8</ele>
        <time>2015-07-19T21:40:22Z</time>
      </trkpt>
      <trkpt lat="37.422871" lon="-122.187284">
        <ele>49.1</ele>
        <time>2015-07-19T21:40:23Z</time>
      </trkpt>
      <trkpt lat="37.422847" lon="-122.187221">
        <ele>49.4</ele>
        <time>2015-07-19T21:40:24Z</time>
      </trkpt>
      <trkpt lat="37.422811" lon="-122.187145">
        <ele>49.7</ele>
        <time>2015-07-19T21:40:25Z</time>
      </trkpt>
      <trkpt lat="37.422787" lon="-122.187075">
        <ele>49.6</ele>
        <time>2015-07-19T21:40:26Z</time>
      </trkpt>
      <trkpt lat="37.422765" lon="-122.187005">
        <ele>49.3</ele>
        <time>2015-07-19T21:40:27Z</time>
      </trkpt>
      <trkpt lat="37.422743" lon="-122.186937">
        <ele>49.6</ele>
        <time>2015-07-19T21:40:28Z</time>
      </trkpt>
      <trkpt lat="37.422724" lon="-122.186869">
        <ele>49.8</ele>
        <time>2015-07-19T21:40:29Z</time>
      </trkpt>
      <trkpt lat="37.422704" lon="-122.186802">
        <ele>49.7</ele>
        <time>2015-07-19T21:40:30Z</time>
      </trkpt>
      <trkpt lat="37.422679" lon="-122.186739">
        <ele>50</ele>
        <time>2015-07-19T21:40:31Z</time>
      </trkpt>
      <trkpt lat="37.422659" lon="-122.186671">
        <ele>50.1</ele>
        <time>2015-07-19T21:40:32Z</time>
      </trkpt>
      <trkpt lat="37.422632" lon="-122.186603">
        <ele>50.6</ele>
        <time>2015-07-19T21:40:33Z</time>
      </trkpt>
      <trkpt lat="37.422608" lon="-122.186535">
        <ele>50.1</ele>
        <time>2015-07-19T21:40:34Z</time>
      </trkpt>
      <trkpt lat="37.422574" lon="-122.186462">
        <ele>51.1</ele>
        <time>2015-07-19T21:40:35Z</time>
      </trkpt>
      <trkpt lat="37.422548" lon="-122.186408">
        <ele>50.9</ele>
        <time>2015-07-19T21:40:36Z</time>
      </trkpt>
      <trkpt lat="37.422519" lon="-122.186344">
        <ele>51.8</ele>
        <time>2015-07-19T21:40:37Z</time>
      </trkpt>
      <trkpt lat="37.422494" lon="-122.18628">
        <ele>52.1</ele>
        <time>2015-07-19T21:40:38Z</time>
      </trkpt>
      <trkpt lat="37.422469" lon="-122.186228">
        <ele>52.2</ele>
        <time>2015-07-19T21:40:39Z</time>
      </trkpt>
      <trkpt lat="37.422439" lon="-122.186158">
        <ele>51.7</ele>
        <time>2015-07-19T21:40:40Z</time>
      </trkpt>
      <trkpt lat="37.422409" lon="-122.18609">
        <ele>51.3</ele>
        <time>2015-07-19T21:40:41Z</time>
      </trkpt>
      <trkpt lat="37.422378" lon="-122.186026">
        <ele>51.5</ele>
        <time>2015-07-19T21:40:42Z</time>
      </trkpt>
      <trkpt lat="37.422346" lon="-122.185973">
        <ele>51.3</ele>
        <time>2015-07-19T21:40:43Z</time>
      </trkpt>
      <trkpt lat="37.422332" lon="-122.185924">
        <ele>50.9</ele>
        <time>2015-07-19T21:40:44Z</time>
      </trkpt>
      <trkpt lat="37.422306" lon="-122.185867">
        <ele>50.8</ele>
        <time>2015-07-19T21:40:45Z</time>
      </trkpt>
      <trkpt lat="37.422278" lon="-122.185805">
        <ele>50.9</ele>
        <time>2015-07-19T21:40:46Z</time>
      </trkpt>
      <trkpt lat="37.422246" lon="-122.185729">
        <ele>50.8</ele>
        <time>2015-07-19T21:40:47Z</time>
      </trkpt>
      <trkpt lat="37.422217" lon="-122.185674">
        <ele>50.7</ele>
        <time>2015-07-19T21:40:48Z</time>
      </trkpt>
      <trkpt lat="37.422171" lon="-122.185604">
        <ele>50.7</ele>
        <time>2015-07-19T21:40:49Z</time>
      </trkpt>
      <trkpt lat="37.422138" lon="-122.185535">
        <ele>50.5</ele>
        <time>2015-07-19T21:40:50Z</time>
      </trkpt>
      <trkpt lat="37.422114" lon="-122.185464">
        <ele>50.4</ele>
        <time>2015-07-19T21:40:51Z</time>
      </trkpt>
      <trkpt lat="37.42209" lon="-122.185394">
        <ele>50.4</ele>
        <time>2015-07-19T21:40:52Z</time>
      </trkpt>
      <trkpt lat="37.42207" lon="-122.185329">
        <ele>50.2</ele>
        <time>2015-07-19T21:40:53Z</time>
      </trkpt>
      <trkpt lat="37.422053" lon="-122.185246">
        <ele>49.9</ele>
        <time>2015-07-19T21:40:54Z</time>
      </trkpt>
      <trkpt lat="37.422026" lon="-122.185178">
        <ele>49.9</ele>
        <time>2015-07-19T21:40:55Z</time>
      </trkpt>
      <trkpt lat="37.421998" lon="-122.185092">
        <ele>49.8</ele>
        <time>2015-07-19T21:40:56Z</time>
      </trkpt>
      <trkpt lat="37.421992" lon="-122.185018">
        <ele>49.6</ele>
        <time>2015-07-19T21:40:57Z</time>
      </trkpt>
      <trkpt lat="37.421984" lon="-122.184935">
        <ele>49.4</ele>
        <time>2015-07-19T21:40:58Z</time>
      </trkpt>
      <trkpt lat="37.421964" lon="-122.184839">
        <ele>49.3</ele>
        <time>2015-07-19T21:40:59Z</time>
      </trkpt>
      <trkpt lat="37.421963" lon="-122.184762">
        <ele>49.3</ele>
        <time>2015-07-19T21:41:00Z</time>
      </trkpt>
      <trkpt lat="37.42195" lon="-122.184695">
        <ele>49.1</ele>
        <time>2015-07-19T21:41:01Z</time>
      </trkpt>
      <trkpt lat="37.421947" lon="-122.184603">
        <ele>49.2</ele>
        <time>2015-07-19T21:41:02Z</time>
      </trkpt>
      <trkpt lat="37.421946" lon="-122.184525">
        <ele>49.1</ele>
        <time>2015-07-19T21:41:03Z</time>
      </trkpt>
      <trkpt lat="37.421945" lon="-122.184441">
        <ele>49.7</ele>
        <time>2015-07-19T21:41:04Z</time>
      </trkpt>
      <trkpt lat="37.421949" lon="-122.184354">
        <ele>49.3</ele>
        <time>2015-07-19T21:41:05Z</time>
      </trkpt>
      <trkpt lat="37.421958" lon="-122.184282">
        <ele>48.9</ele>
        <time>2015-07-19T21:41:06Z</time>
      </trkpt>
      <trkpt lat="37.421963" lon="-122.184194">
        <ele>48.5</ele>
        <time>2015-07-19T21:41:07Z</time>
      </trkpt>
      <trkpt lat="37.421961" lon="-122.184125">
        <ele>48.9</ele>
        <time>2015-07-19T21:41:08Z</time>
      </trkpt>
      <trkpt lat="37.42196" lon="-122.184033">
        <ele>50</ele>
        <time>2015-07-19T21:41:09Z</time>
      </trkpt>
      <trkpt lat="37.421944" lon="-122.184001">
        <ele>51.6</ele>
        <time>2015-07-19T21:41:10Z</time>
      </trkpt>
      <trkpt lat="37.421955" lon="-122.183953">
        <ele>50.2</ele>
        <time>2015-07-19T21:41:11Z</time>
      </trkpt>
      <trkpt lat="37.421958" lon="-122.183889">
        <ele>50.1</ele>
        <time>2015-07-19T21:41:12Z</time>
      </trkpt>
      <trkpt lat="37.421949" lon="-122.183731">
        <ele>51.2</ele>
        <time>2015-07-19T21:41:13Z</time>
      </trkpt>
      <trkpt lat="37.421973" lon="-122.18363">
        <ele>49.5</ele>
        <time>2015-07-19T21:41:14Z</time>
      </trkpt>
      <trkpt lat="37.421969" lon="-122.183596">
        <ele>49.6</ele>
        <time>2015-07-19T21:41:15Z</time>
      </trkpt>
      <trkpt lat="37.421974" lon="-122.183499">
        <ele>49.3</ele>
        <time>2015-07-19T21:41:16Z</time>
      </trkpt>
      <trkpt lat="37.421987" lon="-122.183351">
        <ele>49.1</ele>
        <time>2015-07-19T21:41:17Z</time>
      </trkpt>
      <trkpt lat="37.421992" lon="-122.18328">
        <ele>49.9</ele>
        <time>2015-07-19T21:41:18Z</time>
      </trkpt>
      <trkpt lat="37.421988" lon="-122.183201">
        <ele>50.5</ele>
        <time>2015-07-19T21:41:19Z</time>
      </trkpt>
      <trkpt lat="37.421976" lon="-122.183139">
        <ele>51</ele>
        <time>2015-07-19T21:41:20Z</time>
      </trkpt>
      <trkpt lat="37.421972" lon="-122.183082">
        <ele>50.4</ele>
        <time>2015-07-19T21:41:21Z</time>
      </trkpt>
      <trkpt lat="37.421966" lon="-122.183019">
        <ele>50.2</ele>
        <time>2015-07-19T21:41:22Z</time>
      </trkpt>
      <trkpt lat="37.421978" lon="-122.18295">
        <ele>48.8</ele>
        <time>2015-07-19T21:41:23Z</time>
      </trkpt>
      <trkpt lat="37.421975" lon="-122.182915">
        <ele>48.7</ele>
        <time>2015-07-19T21:41:24Z</time>
      </trkpt>
      <trkpt lat="37.421951" lon="-122.182867">
        <ele>49.2</ele>
        <time>2015-07-19T21:41:25Z</time>
      </trkpt>
      <trkpt lat="37.421954" lon="-122.182789">
        <ele>48.2</ele>
        <time>2015-07-19T21:41:26Z</time>
      </trkpt>
      <trkpt lat="37.421948" lon="-122.182724">
        <ele>48.1</ele>
        <time>2015-07-19T21:41:27Z</time>
      </trkpt>
      <trkpt lat="37.421934" lon="-122.182638">
        <ele>47.8</ele>
        <time>2015-07-19T21:41:28Z</time>
      </trkpt>
      <trkpt lat="37.421926" lon="-122.182568">
        <ele>48</ele>
        <time>2015-07-19T21:41:29Z</time>
      </trkpt>
      <trkpt lat="37.421909" lon="-122.182478">
        <ele>47.9</ele>
        <time>2015-07-19T21:41:30Z</time>
      </trkpt>
      <trkpt lat="37.421886" lon="-122.18239">
        <ele>48</ele>
        <time>2015-07-19T21:41:31Z</time>
      </trkpt>
      <trkpt lat="37.421861" lon="-122.182334">
        <ele>48.1</ele>
        <time>2015-07-19T21:41:32Z</time>
      </trkpt>
      <trkpt lat="37.421858" lon="-122.182292">
        <ele>48.1</ele>
        <time>2015-07-19T21:41:33Z</time>
      </trkpt>
      <trkpt lat="37.42178" lon="-122.182068">
        <ele>48.3</ele>
        <time>2015-07-19T21:41:36Z</time>
      </trkpt>
      <trkpt lat="37.421767" lon="-122.181998">
        <ele>48</ele>
        <time>2015-07-19T21:41:37Z</time>
      </trkpt>
      <trkpt lat="37.421752" lon="-122.18193">
        <ele>48.1</ele>
        <time>2015-07-19T21:41:38Z</time>
      </trkpt>
      <trkpt lat="37.421732" lon="-122.181863">
        <ele>48.4</ele>
        <time>2015-07-19T21:41:39Z</time>
      </trkpt>
      <trkpt lat="37.421718" lon="-122.181786">
        <ele>48.3</ele>
        <time>2015-07-19T21:41:40Z</time>
      </trkpt>
      <trkpt lat="37.421627" lon="-122.181514">
        <ele>48.2</ele>
        <time>2015-07-19T21:41:44Z</time>
      </trkpt>
      <trkpt lat="37.421608" lon="-122.181442">
        <ele>48.2</ele>
        <time>2015-07-19T21:41:45Z</time>
      </trkpt>
      <trkpt lat="37.421589" lon="-122.181369">
        <ele>48.4</ele>
        <time>2015-07-19T21:41:46Z</time>
      </trkpt>
      <trkpt lat="37.421572" lon="-122.181283">
        <ele>48.6</ele>
        <time>2015-07-19T21:41:47Z</time>
      </trkpt>
      <trkpt lat="37.421549" lon="-122.181196">
        <ele>48.9</ele>
        <time>2015-07-19T21:41:48Z</time>
      </trkpt>
      <trkpt lat="37.421528" lon="-122.181134">
        <ele>49.4</ele>
        <time>2015-07-19T21:41:49Z</time>
      </trkpt>
      <trkpt lat="37.42152" lon="-122.181061">
        <ele>48.9</ele>
        <time>2015-07-19T21:41:50Z</time>
      </trkpt>
      <trkpt lat="37.421499" lon="-122.180992">
        <ele>48.8</ele>
        <time>2015-07-19T21:41:51Z</time>
      </trkpt>
      <trkpt lat="37.421484" lon="-122.180913">
        <ele>49</ele>
        <time>2015-07-19T21:41:52Z</time>
      </trkpt>
      <trkpt lat="37.421479" lon="-122.180842">
        <ele>48.7</ele>
        <time>2015-07-19T21:41:53Z</time>
      </trkpt>
      <trkpt lat="37.421466" lon="-122.180773">
        <ele>47.7</ele>
        <time>2015-07-19T21:41:54Z</time>
      </trkpt>
      <trkpt lat="37.421446" lon="-122.180696">
        <ele>47.6</ele>
        <time>2015-07-19T21:41:55Z</time>
      </trkpt>
      <trkpt lat="37.421427" lon="-122.18061">
        <ele>47</ele>
        <time>2015-07-19T21:41:56Z</time>
      </trkpt>
      <trkpt lat="37.421405" lon="-122.180534">
        <ele>47.4</ele>
        <time>2015-07-19T21:41:57Z</time>
      </trkpt>
      <trkpt lat="37.421383" lon="-122.180457">
        <ele>47.5</ele>
        <time>2015-07-19T21:41:58Z</time>
      </trkpt>
      <trkpt lat="37.421371" lon="-122.180388">
        <ele>47.5</ele>
        <time>2015-07-19T21:41:59Z</time>
      </trkpt>
      <trkpt lat="37.421353" lon="-122.180317">
        <ele>47.2</ele>
        <time>2015-07-19T21:42:00Z</time>
      </trkpt>
      <trkpt lat="37.421332" lon="-122.180242">
        <ele>47.5</ele>
        <time>2015-07-19T21:42:01Z</time>
      </trkpt>
      <trkpt lat="37.421315" lon="-122.180165">
        <ele>47.3</ele>
        <time>2015-07-19T21:42:02Z</time>
      </trkpt>
      <trkpt lat="37.421294" lon="-122.180083">
        <ele>47</ele>
        <time>2015-07-19T21:42:03Z</time>
      </trkpt>
      <trkpt lat="37.42128" lon="-122.180011">
        <ele>46.6</ele>
        <time>2015-07-19T21:42:04Z</time>
      </trkpt>
      <trkpt lat="37.421262" lon="-122.179934">
        <ele>47</ele>
        <time>2015-07-19T21:42:05Z</time>
      </trkpt>
      <trkpt lat="37.421244" lon="-122.17986">
        <ele>47.2</ele>
        <time>2015-07-19T21:42:06Z</time>
      </trkpt>
      <trkpt lat="37.421221" lon="-122.179793">
        <ele>47.5</ele>
        <time>2015-07-19T21:42:07Z</time>
      </trkpt>
      <trkpt lat="37.421204" lon="-122.179717">
        <ele>47</ele>
        <time>2015-07-19T21:42:08Z</time>
      </trkpt>
      <trkpt lat="37.421192" lon="-122.179674">
        <ele>46.2</ele>
        <time>2015-07-19T21:42:09Z</time>
      </trkpt>
      <trkpt lat="37.421167" lon="-122.179575">
        <ele>46.1</ele>
        <time>2015-07-19T21:42:10Z</time>
      </trkpt>
      <trkpt lat="37.421153" lon="-122.179503">
        <ele>46.7</ele>
        <time>2015-07-19T21:42:11Z</time>
      </trkpt>
      <trkpt lat="37.421141" lon="-122.179439">
        <ele>46.8</ele>
        <time>2015-07-19T21:42:12Z</time>
      </trkpt>
      <trkpt lat="37.421116" lon="-122.179358">
        <ele>46.6</ele>
        <time>2015-07-19T21:42:13Z</time>
      </trkpt>
      <trkpt lat="37.421089" lon="-122.179275">
        <ele>46.4</ele>
        <time>2015-07-19T21:42:14Z</time>
      </trkpt>
      <trkpt lat="37.421078" lon="-122.17922">
        <ele>46.4</ele>
        <time>2015-07-19T21:42:15Z</time>
      </trkpt>
      <trkpt lat="37.421061" lon="-122.179141">
        <ele>46.3</ele>
        <time>2015-07-19T21:42:16Z</time>
      </trkpt>
      <trkpt lat="37.421041" lon="-122.17907">
        <ele>46.6</ele>
        <time>2015-07-19T21:42:17Z</time>
      </trkpt>
      <trkpt lat="37.421025" lon="-122.179">
        <ele>46.6</ele>
        <time>2015-07-19T21:42:18Z</time>
      </trkpt>
      <trkpt lat="37.421003" lon="-122.178931">
        <ele>45.9</ele>
        <time>2015-07-19T21:42:19Z</time>
      </trkpt>
      <trkpt lat="37.420976" lon="-122.178861">
        <ele>46.8</ele>
        <time>2015-07-19T21:42:20Z</time>
      </trkpt>
      <trkpt lat="37.420955" lon="-122.178791">
        <ele>47</ele>
        <time>2015-07-19T21:42:21Z</time>
      </trkpt>
      <trkpt lat="37.420928" lon="-122.178706">
        <ele>46.7</ele>
        <time>2015-07-19T21:42:22Z</time>
      </trkpt>
      <trkpt lat="37.420903" lon="-122.178625">
        <ele>46.7</ele>
        <time>2015-07-19T21:42:23Z</time>
      </trkpt>
      <trkpt lat="37.420869" lon="-122.178541">
        <ele>46</ele>
        <time>2015-07-19T21:42:24Z</time>
      </trkpt>
      <trkpt lat="37.420832" lon="-122.178454">
        <ele>45.8</ele>
        <time>2015-07-19T21:42:25Z</time>
      </trkpt>
      <trkpt lat="37.420814" lon="-122.178379">
        <ele>45.9</ele>
        <time>2015-07-19T21:42:26Z</time>
      </trkpt>
      <trkpt lat="37.420789" lon="-122.1783">
        <ele>45.8</ele>
        <time>2015-07-19T21:42:27Z</time>
      </trkpt>
      <trkpt lat="37.420755" lon="-122.178225">
        <ele>45.4</ele>
        <time>2015-07-19T21:42:28Z</time>
      </trkpt>
      <trkpt lat="37.420737" lon="-122.178141">
        <ele>45.6</ele>
        <time>2015-07-19T21:42:29Z</time>
      </trkpt>
      <trkpt lat="37.420714" lon="-122.178071">
        <ele>45.5</ele>
        <time>2015-07-19T21:42:30Z</time>
      </trkpt>
      <trkpt lat="37.420692" lon="-122.178004">
        <ele>45.3</ele>
        <time>2015-07-19T21:42:31Z</time>
      </trkpt>
      <trkpt lat="37.420669" lon="-122.177933">
        <ele>45.5</ele>
        <time>2015-07-19T21:42:32Z</time>
      </trkpt>
      <trkpt lat="37.420629" lon="-122.177853">
        <ele>45.9</ele>
        <time>2015-07-19T21:42:33Z</time>
      </trkpt>
      <trkpt lat="37.420607" lon="-122.177782">
        <ele>45.9</ele>
        <time>2015-07-19T21:42:34Z</time>
      </trkpt>
      <trkpt lat="37.420576" lon="-122.177697">
        <ele>46.2</ele>
        <time>2015-07-19T21:42:35Z</time>
      </trkpt>
      <trkpt lat="37.420549" lon="-122.177628">
        <ele>46.3</ele>
        <time>2015-07-19T21:42:36Z</time>
      </trkpt>
      <trkpt lat="37.420522" lon="-122.177569">
        <ele>46.3</ele>
        <time>2015-07-19T21:42:37Z</time>
      </trkpt>
      <trkpt lat="37.420501" lon="-122.17749">
        <ele>46</ele>
        <time>2015-07-19T21:42:38Z</time>
      </trkpt>
      <trkpt lat="37.420474" lon="-122.177419">
        <ele>45.9</ele>
        <time>2015-07-19T21:42:39Z</time>
      </trkpt>
      <trkpt lat="37.420438" lon="-122.177344">
        <ele>45.9</ele>
        <time>2015-07-19T21:42:40Z</time>
      </trkpt>
      <trkpt lat="37.420415" lon="-122.177271">
        <ele>45.4</ele>
        <time>2015-07-19T21:42:41Z</time>
      </trkpt>
      <trkpt lat="37.420392" lon="-122.17722">
        <ele>45.5</ele>
        <time>2015-07-19T21:42:42Z</time>
      </trkpt>
      <trkpt lat="37.420356" lon="-122.177138">
        <ele>45.3</ele>
        <time>2015-07-19T21:42:43Z</time>
      </trkpt>
      <trkpt lat="37.420324" lon="-122.177067">
        <ele>45.2</ele>
        <time>2015-07-19T21:42:44Z</time>
      </trkpt>
      <trkpt lat="37.420288" lon="-122.176997">
        <ele>45.4</ele>
        <time>2015-07-19T21:42:45Z</time>
      </trkpt>
      <trkpt lat="37.420252" lon="-122.176938">
        <ele>45.2</ele>
        <time>2015-07-19T21:42:46Z</time>
      </trkpt>
      <trkpt lat="37.420214" lon="-122.176874">
        <ele>45.3</ele>
        <time>2015-07-19T21:42:47Z</time>
      </trkpt>
      <trkpt lat="37.420172" lon="-122.176795">
        <ele>45.2</ele>
        <time>2015-07-19T21:42:48Z</time>
      </trkpt>
      <trkpt lat="37.420128" lon="-122.176742">
        <ele>45.2</ele>
        <time>2015-07-19T21:42:49Z</time>
      </trkpt>
      <trkpt lat="37.420094" lon="-122.176672">
        <ele>45.3</ele>
        <time>2015-07-19T21:42:50Z</time>
      </trkpt>
      <trkpt lat="37.420057" lon="-122.17661">
        <ele>45.3</ele>
        <time>2015-07-19T21:42:51Z</time>
      </trkpt>
      <trkpt lat="37.420016" lon="-122.176564">
        <ele>45.4</ele>
        <time>2015-07-19T21:42:52Z</time>
      </trkpt>
      <trkpt lat="37.419984" lon="-122.176506">
        <ele>45.5</ele>
        <time>2015-07-19T21:42:53Z</time>
      </trkpt>
      <trkpt lat="37.419949" lon="-122.176459">
        <ele>45.5</ele>
        <time>2015-07-19T21:42:54Z</time>
      </trkpt>
      <trkpt lat="37.41991" lon="-122.176408">
        <ele>45.7</ele>
        <time>2015-07-19T21:42:55Z</time>
      </trkpt>
      <trkpt lat="37.419879" lon="-122.176365">
        <ele>45.8</ele>
        <time>2015-07-19T21:42:56Z</time>
      </trkpt>
      <trkpt lat="37.419849" lon="-122.176314">
        <ele>45.9</ele>
        <time>2015-07-19T21:42:57Z</time>
      </trkpt>
      <trkpt lat="37.419802" lon="-122.176271">
        <ele>46</ele>
        <time>2015-07-19T21:42:58Z</time>
      </trkpt>
      <trkpt lat="37.419766" lon="-122.17623">
        <ele>46.2</ele>
        <time>2015-07-19T21:42:59Z</time>
      </trkpt>
      <trkpt lat="37.419725" lon="-122.176194">
        <ele>46.3</ele>
        <time>2015-07-19T21:43:00Z</time>
      </trkpt>
      <trkpt lat="37.419687" lon="-122.176157">
        <ele>46.4</ele>
        <time>2015-07-19T21:43:01Z</time>
      </trkpt>
      <trkpt lat="37.419635" lon="-122.176123">
        <ele>46.5</ele>
        <time>2015-07-19T21:43:02Z</time>
      </trkpt>
      <trkpt lat="37.419595" lon="-122.176083">
        <ele>46.8</ele>
        <time>2015-07-19T21:43:03Z</time>
      </trkpt>
      <trkpt lat="37.419571" lon="-122.176044">
        <ele>46.9</ele>
        <time>2015-07-19T21:43:04Z</time>
      </trkpt>
      <trkpt lat="37.41954" lon="-122.176017">
        <ele>47</ele>
        <time>2015-07-19T21:43:05Z</time>
      </trkpt>
      <trkpt lat="37.419521" lon="-122.175993">
        <ele>47.2</ele>
        <time>2015-07-19T21:43:06Z</time>
      </trkpt>
      <trkpt lat="37.419459" lon="-122.175955">
        <ele>47.3</ele>
        <time>2015-07-19T21:43:07Z</time>
      </trkpt>
      <trkpt lat="37.419331" lon="-122.175923">
        <ele>47.6</ele>
        <time>2015-07-19T21:43:09Z</time>
      </trkpt>
      <trkpt lat="37.419228" lon="-122.175879">
        <ele>48.3</ele>
        <time>2015-07-19T21:43:11Z</time>
      </trkpt>
      <trkpt lat="37.419175" lon="-122.175856">
        <ele>48.6</ele>
        <time>2015-07-19T21:43:12Z</time>
      </trkpt>
      <trkpt lat="37.419106" lon="-122.175838">
        <ele>49.1</ele>
        <time>2015-07-19T21:43:13Z</time>
      </trkpt>
      <trkpt lat="37.419063" lon="-122.175815">
        <ele>49</ele>
        <time>2015-07-19T21:43:14Z</time>
      </trkpt>
      <trkpt lat="37.419012" lon="-122.175787">
        <ele>49.1</ele>
        <time>2015-07-19T21:43:15Z</time>
      </trkpt>
      <trkpt lat="37.418878" lon="-122.175706">
        <ele>49.1</ele>
        <time>2015-07-19T21:43:20Z</time>
      </trkpt>
      <trkpt lat="37.418865" lon="-122.175674">
        <ele>49.3</ele>
        <time>2015-07-19T21:43:21Z</time>
      </trkpt>
      <trkpt lat="37.418788" lon="-122.175656">
        <ele>49.4</ele>
        <time>2015-07-19T21:43:22Z</time>
      </trkpt>
      <trkpt lat="37.418728" lon="-122.17563">
        <ele>49.7</ele>
        <time>2015-07-19T21:43:23Z</time>
      </trkpt>
      <trkpt lat="37.418693" lon="-122.175611">
        <ele>49.8</ele>
        <time>2015-07-19T21:43:24Z</time>
      </trkpt>
      <trkpt lat="37.418666" lon="-122.175596">
        <ele>49.9</ele>
        <time>2015-07-19T21:43:25Z</time>
      </trkpt>
      <trkpt lat="37.418632" lon="-122.175577">
        <ele>50</ele>
        <time>2015-07-19T21:43:26Z</time>
      </trkpt>
      <trkpt lat="37.418598" lon="-122.175558">
        <ele>50.2</ele>
        <time>2015-07-19T21:43:27Z</time>
      </trkpt>
      <trkpt lat="37.418559" lon="-122.175537">
        <ele>50.4</ele>
        <time>2015-07-19T21:43:28Z</time>
      </trkpt>
      <trkpt lat="37.418526" lon="-122.175517">
        <ele>50.4</ele>
        <time>2015-07-19T21:43:29Z</time>
      </trkpt>
      <trkpt lat="37.41849" lon="-122.175496">
        <ele>50.6</ele>
        <time>2015-07-19T21:43:30Z</time>
      </trkpt>
      <trkpt lat="37.418454" lon="-122.175475">
        <ele>50.8</ele>
        <time>2015-07-19T21:43:31Z</time>
      </trkpt>
      <trkpt lat="37.41842" lon="-122.175451">
        <ele>50.8</ele>
        <time>2015-07-19T21:43:32Z</time>
      </trkpt>
      <trkpt lat="37.418381" lon="-122.175426">
        <ele>51</ele>
        <time>2015-07-19T21:43:33Z</time>
      </trkpt>
      <trkpt lat="37.418338" lon="-122.175397">
        <ele>51.1</ele>
        <time>2015-07-19T21:43:34Z</time>
      </trkpt>
      <trkpt lat="37.418297" lon="-122.175369">
        <ele>51.3</ele>
        <time>2015-07-19T21:43:35Z</time>
      </trkpt>
      <trkpt lat="37.418262" lon="-122.175345">
        <ele>51.4</ele>
        <time>2015-07-19T21:43:36Z</time>
      </trkpt>
      <trkpt lat="37.418227" lon="-122.175321">
        <ele>51.4</ele>
        <time>2015-07-19T21:43:37Z</time>
      </trkpt>
      <trkpt lat="37.418194" lon="-122.175298">
        <ele>51.5</ele>
        <time>2015-07-19T21:43:38Z</time>
      </trkpt>
      <trkpt lat="37.418164" lon="-122.175276">
        <ele>51.6</ele>
        <time>2015-07-19T21:43:39Z</time>
      </trkpt>
      <trkpt lat="37.418124" lon="-122.175246">
        <ele>51.6</ele>
        <time>2015-07-19T21:43:40Z</time>
      </trkpt>
      <trkpt lat="37.418075" lon="-122.175192">
        <ele>51.6</ele>
        <time>2015-07-19T21:43:42Z</time>
      </trkpt>
      <trkpt lat="37.418019" lon="-122.175156">
        <ele>51.7</ele>
        <time>2015-07-19T21:43:43Z</time>
      </trkpt>
      <trkpt lat="37.417986" lon="-122.175124">
        <ele>51.6</ele>
        <time>2015-07-19T21:43:44Z</time>
      </trkpt>
      <trkpt lat="37.41796" lon="-122.175088">
        <ele>51.5</ele>
        <time>2015-07-19T21:43:45Z</time>
      </trkpt>
      <trkpt lat="37.417917" lon="-122.175064">
        <ele>51.5</ele>
        <time>2015-07-19T21:43:46Z</time>
      </trkpt>
      <trkpt lat="37.417883" lon="-122.175027">
        <ele>51.5</ele>
        <time>2015-07-19T21:43:47Z</time>
      </trkpt>
      <trkpt lat="37.41784" lon="-122.174992">
        <ele>51.5</ele>
        <time>2015-07-19T21:43:48Z</time>
      </trkpt>
      <trkpt lat="37.417797" lon="-122.174952">
        <ele>51.5</ele>
        <time>2015-07-19T21:43:49Z</time>
      </trkpt>
      <trkpt lat="37.417751" lon="-122.174915">
        <ele>51.6</ele>
        <time>2015-07-19T21:43:50Z</time>
      </trkpt>
      <trkpt lat="37.41772" lon="-122.174888">
        <ele>51.6</ele>
        <time>2015-07-19T21:43:51Z</time>
      </trkpt>
      <trkpt lat="37.417682" lon="-122.174855">
        <ele>51.7</ele>
        <time>2015-07-19T21:43:52Z</time>
      </trkpt>
      <trkpt lat="37.417621" lon="-122.174816">
        <ele>51.8</ele>
        <time>2015-07-19T21:43:53Z</time>
      </trkpt>
      <trkpt lat="37.41759" lon="-122.174776">
        <ele>51.8</ele>
        <time>2015-07-19T21:43:54Z</time>
      </trkpt>
      <trkpt lat="37.417556" lon="-122.174737">
        <ele>51.8</ele>
        <time>2015-07-19T21:43:55Z</time>
      </trkpt>
      <trkpt lat="37.417493" lon="-122.174704">
        <ele>52.2</ele>
        <time>2015-07-19T21:43:56Z</time>
      </trkpt>
      <trkpt lat="37.41746" lon="-122.174662">
        <ele>52.1</ele>
        <time>2015-07-19T21:43:57Z</time>
      </trkpt>
      <trkpt lat="37.417431" lon="-122.174618">
        <ele>51.9</ele>
        <time>2015-07-19T21:43:58Z</time>
      </trkpt>
      <trkpt lat="37.4174" lon="-122.174579">
        <ele>51.8</ele>
        <time>2015-07-19T21:43:59Z</time>
      </trkpt>
      <trkpt lat="37.417359" lon="-122.174539">
        <ele>51.9</ele>
        <time>2015-07-19T21:44:00Z</time>
      </trkpt>
      <trkpt lat="37.417328" lon="-122.174504">
        <ele>51.9</ele>
        <time>2015-07-19T21:44:01Z</time>
      </trkpt>
      <trkpt lat="37.417305" lon="-122.174472">
        <ele>51.9</ele>
        <time>2015-07-19T21:44:02Z</time>
      </trkpt>
      <trkpt lat="37.417251" lon="-122.174441">
        <ele>52.1</ele>
        <time>2015-07-19T21:44:03Z</time>
      </trkpt>
      <trkpt lat="37.417218" lon="-122.174408">
        <ele>52.3</ele>
        <time>2015-07-19T21:44:04Z</time>
      </trkpt>
      <trkpt lat="37.417201" lon="-122.174371">
        <ele>52.3</ele>
        <time>2015-07-19T21:44:05Z</time>
      </trkpt>
      <trkpt lat="37.417182" lon="-122.174328">
        <ele>52.5</ele>
        <time>2015-07-19T21:44:06Z</time>
      </trkpt>
      <trkpt lat="37.417142" lon="-122.1743">
        <ele>52.6</ele>
        <time>2015-07-19T21:44:07Z</time>
      </trkpt>
      <trkpt lat="37.4171" lon="-122.174264">
        <ele>52.9</ele>
        <time>2015-07-19T21:44:08Z</time>
      </trkpt>
      <trkpt lat="37.417064" lon="-122.17423">
        <ele>53.1</ele>
        <time>2015-07-19T21:44:09Z</time>
      </trkpt>
      <trkpt lat="37.417029" lon="-122.174189">
        <ele>53.3</ele>
        <time>2015-07-19T21:44:10Z</time>
      </trkpt>
      <trkpt lat="37.416997" lon="-122.174149">
        <ele>53.5</ele>
        <time>2015-07-19T21:44:11Z</time>
      </trkpt>
      <trkpt lat="37.416976" lon="-122.174106">
        <ele>53.6</ele>
        <time>2015-07-19T21:44:12Z</time>
      </trkpt>
      <trkpt lat="37.416943" lon="-122.174068">
        <ele>53.9</ele>
        <time>2015-07-19T21:44:13Z</time>
      </trkpt>
      <trkpt lat="37.41692" lon="-122.174031">
        <ele>54</ele>
        <time>2015-07-19T21:44:14Z</time>
      </trkpt>
      <trkpt lat="37.416894" lon="-122.173991">
        <ele>54.2</ele>
        <time>2015-07-19T21:44:15Z</time>
      </trkpt>
      <trkpt lat="37.41687" lon="-122.173957">
        <ele>54.5</ele>
        <time>2015-07-19T21:44:16Z</time>
      </trkpt>
      <trkpt lat="37.416842" lon="-122.173917">
        <ele>54.7</ele>
        <time>2015-07-19T21:44:17Z</time>
      </trkpt>
      <trkpt lat="37.416815" lon="-122.173875">
        <ele>54.9</ele>
        <time>2015-07-19T21:44:18Z</time>
      </trkpt>
      <trkpt lat="37.416789" lon="-122.173838">
        <ele>55.1</ele>
        <time>2015-07-19T21:44:19Z</time>
      </trkpt>
      <trkpt lat="37.416764" lon="-122.1738">
        <ele>55.1</ele>
        <time>2015-07-19T21:44:20Z</time>
      </trkpt>
      <trkpt lat="37.416741" lon="-122.173762">
        <ele>55.2</ele>
        <time>2015-07-19T21:44:21Z</time>
      </trkpt>
      <trkpt lat="37.416718" lon="-122.173728">
        <ele>55.4</ele>
        <time>2015-07-19T21:44:22Z</time>
      </trkpt>
      <trkpt lat="37.416695" lon="-122.173691">
        <ele>55.8</ele>
        <time>2015-07-19T21:44:23Z</time>
      </trkpt>
      <trkpt lat="37.416673" lon="-122.173653">
        <ele>55.8</ele>
        <time>2015-07-19T21:44:24Z</time>
      </trkpt>
      <trkpt lat="37.416649" lon="-122.173614">
        <ele>56.1</ele>
        <time>2015-07-19T21:44:25Z</time>
      </trkpt>
      <trkpt lat="37.416624" lon="-122.173576">
        <ele>56.2</ele>
        <time>2015-07-19T21:44:26Z</time>
      </trkpt>
      <trkpt lat="37.4166" lon="-122.173539">
        <ele>56.5</ele>
        <time>2015-07-19T21:44:27Z</time>
      </trkpt>
      <trkpt lat="37.416576" lon="-122.173504">
        <ele>56.9</ele>
        <time>2015-07-19T21:44:28Z</time>
      </trkpt>
      <trkpt lat="37.416552" lon="-122.173469">
        <ele>56.9</ele>
        <time>2015-07-19T21:44:29Z</time>
      </trkpt>
      <trkpt lat="37.416529" lon="-122.173435">
        <ele>56.9</ele>
        <time>2015-07-19T21:44:30Z</time>
      </trkpt>
      <trkpt lat="37.41651" lon="-122.173405">
        <ele>57.1</ele>
        <time>2015-07-19T21:44:31Z</time>
      </trkpt>
      <trkpt lat="37.416488" lon="-122.17337">
        <ele>57.3</ele>
        <time>2015-07-19T21:44:32Z</time>
      </trkpt>
      <trkpt lat="37.41647" lon="-122.173342">
        <ele>57.5</ele>
        <time>2015-07-19T21:44:33Z</time>
      </trkpt>
      <trkpt lat="37.416452" lon="-122.173315">
        <ele>57.6</ele>
        <time>2015-07-19T21:44:34Z</time>
      </trkpt>
      <trkpt lat="37.41642" lon="-122.173263">
        <ele>57.7</ele>
        <time>2015-07-19T21:44:36Z</time>
      </trkpt>
      <trkpt lat="37.416401" lon="-122.173236">
        <ele>57.8</ele>
        <time>2015-07-19T21:44:37Z</time>
      </trkpt>
      <trkpt lat="37.41638" lon="-122.173211">
        <ele>57.9</ele>
        <time>2015-07-19T21:44:38Z</time>
      </trkpt>
      <trkpt lat="37.416356" lon="-122.173177">
        <ele>58</ele>
        <time>2015-07-19T21:44:40Z</time>
      </trkpt>
      <trkpt lat="37.41633" lon="-122.173142">
        <ele>58.1</ele>
        <time>2015-07-19T21:44:42Z</time>
      </trkpt>
      <trkpt lat="37.416315" lon="-122.17311">
        <ele>58.1</ele>
        <time>2015-07-19T21:44:44Z</time>
      </trkpt>
      <trkpt lat="37.416282" lon="-122.173071">
        <ele>58.3</ele>
        <time>2015-07-19T21:44:46Z</time>
      </trkpt>
      <trkpt lat="37.416258" lon="-122.173038">
        <ele>58.4</ele>
        <time>2015-07-19T21:44:48Z</time>
      </trkpt>
      <trkpt lat="37.416231" lon="-122.172996">
        <ele>58.4</ele>
        <time>2015-07-19T21:44:50Z</time>
      </trkpt>
      <trkpt lat="37.416203" lon="-122.172953">
        <ele>58.4</ele>
        <time>2015-07-19T21:44:52Z</time>
      </trkpt>
      <trkpt lat="37.416168" lon="-122.172909">
        <ele>58.5</ele>
        <time>2015-07-19T21:44:54Z</time>
      </trkpt>
      <trkpt lat="37.416133" lon="-122.172856">
        <ele>58.7</ele>
        <time>2015-07-19T21:44:56Z</time>
      </trkpt>
      <trkpt lat="37.416113" lon="-122.172829">
        <ele>58.6</ele>
        <time>2015-07-19T21:44:57Z</time>
      </trkpt>
      <trkpt lat="37.416093" lon="-122.172798">
        <ele>58.4</ele>
        <time>2015-07-19T21:44:58Z</time>
      </trkpt>
      <trkpt lat="37.416075" lon="-122.17277">
        <ele>58.4</ele>
        <time>2015-07-19T21:44:59Z</time>
      </trkpt>
      <trkpt lat="37.416055" lon="-122.17274">
        <ele>58.4</ele>
        <time>2015-07-19T21:45:00Z</time>
      </trkpt>
      <trkpt lat="37.416042" lon="-122.172706">
        <ele>58.2</ele>
        <time>2015-07-19T21:45:01Z</time>
      </trkpt>
      <trkpt lat="37.416021" lon="-122.17268">
        <ele>58.2</ele>
        <time>2015-07-19T21:45:02Z</time>
      </trkpt>
      <trkpt lat="37.416003" lon="-122.172651">
        <ele>58.1</ele>
        <time>2015-07-19T21:45:03Z</time>
      </trkpt>
      <trkpt lat="37.415984" lon="-122.172621">
        <ele>58.1</ele>
        <time>2015-07-19T21:45:04Z</time>
      </trkpt>
      <trkpt lat="37.415948" lon="-122.172589">
        <ele>58.1</ele>
        <time>2015-07-19T21:45:05Z</time>
      </trkpt>
      <trkpt lat="37.41592" lon="-122.172553">
        <ele>58.1</ele>
        <time>2015-07-19T21:45:06Z</time>
      </trkpt>
      <trkpt lat="37.415894" lon="-122.172521">
        <ele>58.3</ele>
        <time>2015-07-19T21:45:07Z</time>
      </trkpt>
      <trkpt lat="37.415865" lon="-122.172488">
        <ele>58.6</ele>
        <time>2015-07-19T21:45:08Z</time>
      </trkpt>
      <trkpt lat="37.415826" lon="-122.172456">
        <ele>58.2</ele>
        <time>2015-07-19T21:45:09Z</time>
      </trkpt>
      <trkpt lat="37.415786" lon="-122.172417">
        <ele>58.3</ele>
        <time>2015-07-19T21:45:10Z</time>
      </trkpt>
      <trkpt lat="37.415754" lon="-122.172368">
        <ele>58.5</ele>
        <time>2015-07-19T21:45:11Z</time>
      </trkpt>
      <trkpt lat="37.41573" lon="-122.172333">
        <ele>58.5</ele>
        <time>2015-07-19T21:45:12Z</time>
      </trkpt>
      <trkpt lat="37.415694" lon="-122.172285">
        <ele>58.3</ele>
        <time>2015-07-19T21:45:13Z</time>
      </trkpt>
      <trkpt lat="37.415687" lon="-122.172241">
        <ele>57.5</ele>
        <time>2015-07-19T21:45:14Z</time>
      </trkpt>
      <trkpt lat="37.415647" lon="-122.172197">
        <ele>57.4</ele>
        <time>2015-07-19T21:45:15Z</time>
      </trkpt>
      <trkpt lat="37.415602" lon="-122.172157">
        <ele>57.4</ele>
        <time>2015-07-19T21:45:16Z</time>
      </trkpt>
      <trkpt lat="37.415587" lon="-122.172108">
        <ele>57.1</ele>
        <time>2015-07-19T21:45:17Z</time>
      </trkpt>
      <trkpt lat="37.415555" lon="-122.172061">
        <ele>56.6</ele>
        <time>2015-07-19T21:45:18Z</time>
      </trkpt>
      <trkpt lat="37.415514" lon="-122.172014">
        <ele>56.6</ele>
        <time>2015-07-19T21:45:19Z</time>
      </trkpt>
      <trkpt lat="37.41549" lon="-122.171968">
        <ele>56.9</ele>
        <time>2015-07-19T21:45:20Z</time>
      </trkpt>
      <trkpt lat="37.415459" lon="-122.171919">
        <ele>56.8</ele>
        <time>2015-07-19T21:45:21Z</time>
      </trkpt>
      <trkpt lat="37.415425" lon="-122.171866">
        <ele>56.3</ele>
        <time>2015-07-19T21:45:22Z</time>
      </trkpt>
      <trkpt lat="37.415392" lon="-122.171817">
        <ele>56.4</ele>
        <time>2015-07-19T21:45:23Z</time>
      </trkpt>
      <trkpt lat="37.415348" lon="-122.171777">
        <ele>56.1</ele>
        <time>2015-07-19T21:45:24Z</time>
      </trkpt>
      <trkpt lat="37.4153" lon="-122.17173">
        <ele>55.2</ele>
        <time>2015-07-19T21:45:25Z</time>
      </trkpt>
      <trkpt lat="37.415261" lon="-122.17168">
        <ele>55</ele>
        <time>2015-07-19T21:45:26Z</time>
      </trkpt>
      <trkpt lat="37.415244" lon="-122.171632">
        <ele>55.5</ele>
        <time>2015-07-19T21:45:27Z</time>
      </trkpt>
      <trkpt lat="37.415229" lon="-122.171598">
        <ele>55.8</ele>
        <time>2015-07-19T21:45:28Z</time>
      </trkpt>
      <trkpt lat="37.415212" lon="-122.171557">
        <ele>55.8</ele>
        <time>2015-07-19T21:45:29Z</time>
      </trkpt>
      <trkpt lat="37.415187" lon="-122.171503">
        <ele>56.1</ele>
        <time>2015-07-19T21:45:30Z</time>
      </trkpt>
      <trkpt lat="37.415165" lon="-122.171466">
        <ele>56.3</ele>
        <time>2015-07-19T21:45:31Z</time>
      </trkpt>
      <trkpt lat="37.415126" lon="-122.17143">
        <ele>56</ele>
        <time>2015-07-19T21:45:32Z</time>
      </trkpt>
      <trkpt lat="37.415099" lon="-122.171389">
        <ele>56.1</ele>
        <time>2015-07-19T21:45:33Z</time>
      </trkpt>
      <trkpt lat="37.415071" lon="-122.171346">
        <ele>56.1</ele>
        <time>2015-07-19T21:45:34Z</time>
      </trkpt>
      <trkpt lat="37.415043" lon="-122.171308">
        <ele>56.4</ele>
        <time>2015-07-19T21:45:35Z</time>
      </trkpt>
      <trkpt lat="37.415013" lon="-122.171268">
        <ele>56.3</ele>
        <time>2015-07-19T21:45:36Z</time>
      </trkpt>
      <trkpt lat="37.414981" lon="-122.171226">
        <ele>56.3</ele>
        <time>2015-07-19T21:45:37Z</time>
      </trkpt>
      <trkpt lat="37.414955" lon="-122.171183">
        <ele>56.5</ele>
        <time>2015-07-19T21:45:38Z</time>
      </trkpt>
      <trkpt lat="37.414929" lon="-122.171143">
        <ele>56.5</ele>
        <time>2015-07-19T21:45:39Z</time>
      </trkpt>
      <trkpt lat="37.4149" lon="-122.171103">
        <ele>56.5</ele>
        <time>2015-07-19T21:45:40Z</time>
      </trkpt>
      <trkpt lat="37.414873" lon="-122.171062">
        <ele>56.5</ele>
        <time>2015-07-19T21:45:41Z</time>
      </trkpt>
      <trkpt lat="37.414845" lon="-122.171018">
        <ele>56.5</ele>
        <time>2015-07-19T21:45:42Z</time>
      </trkpt>
      <trkpt lat="37.414821" lon="-122.170981">
        <ele>56.6</ele>
        <time>2015-07-19T21:45:43Z</time>
      </trkpt>
      <trkpt lat="37.41479" lon="-122.170941">
        <ele>56.8</ele>
        <time>2015-07-19T21:45:44Z</time>
      </trkpt>
      <trkpt lat="37.414764" lon="-122.170903">
        <ele>56.9</ele>
        <time>2015-07-19T21:45:45Z</time>
      </trkpt>
      <trkpt lat="37.414738" lon="-122.170866">
        <ele>57</ele>
        <time>2015-07-19T21:45:46Z</time>
      </trkpt>
      <trkpt lat="37.414712" lon="-122.170832">
        <ele>57.1</ele>
        <time>2015-07-19T21:45:47Z</time>
      </trkpt>
      <trkpt lat="37.41469" lon="-122.1708">
        <ele>57.2</ele>
        <time>2015-07-19T21:45:48Z</time>
      </trkpt>
      <trkpt lat="37.41467" lon="-122.170776">
        <ele>57.2</ele>
        <time>2015-07-19T21:45:49Z</time>
      </trkpt>
      <trkpt lat="37.414648" lon="-122.170749">
        <ele>57.3</ele>
        <time>2015-07-19T21:45:50Z</time>
      </trkpt>
      <trkpt lat="37.414618" lon="-122.170741">
        <ele>57.3</ele>
        <time>2015-07-19T21:45:51Z</time>
      </trkpt>
      <trkpt lat="37.414592" lon="-122.170732">
        <ele>57.3</ele>
        <time>2015-07-19T21:45:52Z</time>
      </trkpt>
      <trkpt lat="37.414579" lon="-122.170681">
        <ele>57.4</ele>
        <time>2015-07-19T21:46:32Z</time>
      </trkpt>
      <trkpt lat="37.414567" lon="-122.170649">
        <ele>57.5</ele>
        <time>2015-07-19T21:46:33Z</time>
      </trkpt>
      <trkpt lat="37.414548" lon="-122.170607">
        <ele>57.6</ele>
        <time>2015-07-19T21:46:34Z</time>
      </trkpt>
      <trkpt lat="37.414538" lon="-122.170572">
        <ele>57.8</ele>
        <time>2015-07-19T21:46:35Z</time>
      </trkpt>
      <trkpt lat="37.414526" lon="-122.170527">
        <ele>58</ele>
        <time>2015-07-19T21:46:36Z</time>
      </trkpt>
      <trkpt lat="37.414511" lon="-122.170481">
        <ele>58.1</ele>
        <time>2015-07-19T21:46:37Z</time>
      </trkpt>
      <trkpt lat="37.41449" lon="-122.170442">
        <ele>58.2</ele>
        <time>2015-07-19T21:46:38Z</time>
      </trkpt>
      <trkpt lat="37.414468" lon="-122.170395">
        <ele>58.4</ele>
        <time>2015-07-19T21:46:39Z</time>
      </trkpt>
      <trkpt lat="37.414443" lon="-122.170344">
        <ele>58.7</ele>
        <time>2015-07-19T21:46:40Z</time>
      </trkpt>
      <trkpt lat="37.414385" lon="-122.170292">
        <ele>59.1</ele>
        <time>2015-07-19T21:46:41Z</time>
      </trkpt>
      <trkpt lat="37.414329" lon="-122.170241">
        <ele>59.5</ele>
        <time>2015-07-19T21:46:42Z</time>
      </trkpt>
      <trkpt lat="37.414291" lon="-122.170187">
        <ele>59.7</ele>
        <time>2015-07-19T21:46:43Z</time>
      </trkpt>
      <trkpt lat="37.414245" lon="-122.170133">
        <ele>60.1</ele>
        <time>2015-07-19T21:46:44Z</time>
      </trkpt>
      <trkpt lat="37.414213" lon="-122.170071">
        <ele>60.6</ele>
        <time>2015-07-19T21:46:45Z</time>
      </trkpt>
      <trkpt lat="37.414167" lon="-122.170013">
        <ele>61.1</ele>
        <time>2015-07-19T21:46:46Z</time>
      </trkpt>
      <trkpt lat="37.414132" lon="-122.169967">
        <ele>61.6</ele>
        <time>2015-07-19T21:46:47Z</time>
      </trkpt>
      <trkpt lat="37.414111" lon="-122.169926">
        <ele>61.9</ele>
        <time>2015-07-19T21:46:48Z</time>
      </trkpt>
      <trkpt lat="37.414066" lon="-122.169877">
        <ele>62.4</ele>
        <time>2015-07-19T21:46:49Z</time>
      </trkpt>
      <trkpt lat="37.414047" lon="-122.169844">
        <ele>62.7</ele>
        <time>2015-07-19T21:46:50Z</time>
      </trkpt>
      <trkpt lat="37.414016" lon="-122.169801">
        <ele>63.1</ele>
        <time>2015-07-19T21:46:51Z</time>
      </trkpt>
      <trkpt lat="37.413996" lon="-122.169768">
        <ele>63.4</ele>
        <time>2015-07-19T21:46:52Z</time>
      </trkpt>
      <trkpt lat="37.413983" lon="-122.169738">
        <ele>63.6</ele>
        <time>2015-07-19T21:46:53Z</time>
      </trkpt>
      <trkpt lat="37.413951" lon="-122.169701">
        <ele>63.9</ele>
        <time>2015-07-19T21:46:54Z</time>
      </trkpt>
      <trkpt lat="37.413923" lon="-122.16965">
        <ele>64.1</ele>
        <time>2015-07-19T21:46:56Z</time>
      </trkpt>
      <trkpt lat="37.413901" lon="-122.169616">
        <ele>64.3</ele>
        <time>2015-07-19T21:46:57Z</time>
      </trkpt>
      <trkpt lat="37.413879" lon="-122.169564">
        <ele>64.6</ele>
        <time>2015-07-19T21:46:59Z</time>
      </trkpt>
      <trkpt lat="37.413858" lon="-122.169538">
        <ele>64.7</ele>
        <time>2015-07-19T21:47:00Z</time>
      </trkpt>
      <trkpt lat="37.413828" lon="-122.169484">
        <ele>64.9</ele>
        <time>2015-07-19T21:47:02Z</time>
      </trkpt>
      <trkpt lat="37.413802" lon="-122.169458">
        <ele>64.9</ele>
        <time>2015-07-19T21:47:03Z</time>
      </trkpt>
      <trkpt lat="37.413777" lon="-122.169431">
        <ele>64.9</ele>
        <time>2015-07-19T21:47:04Z</time>
      </trkpt>
      <trkpt lat="37.413742" lon="-122.169404">
        <ele>65</ele>
        <time>2015-07-19T21:47:05Z</time>
      </trkpt>
      <trkpt lat="37.413714" lon="-122.16938">
        <ele>64.9</ele>
        <time>2015-07-19T21:47:06Z</time>
      </trkpt>
      <trkpt lat="37.413697" lon="-122.169347">
        <ele>64.9</ele>
        <time>2015-07-19T21:47:07Z</time>
      </trkpt>
      <trkpt lat="37.413666" lon="-122.16929">
        <ele>64.8</ele>
        <time>2015-07-19T21:47:09Z</time>
      </trkpt>
      <trkpt lat="37.413647" lon="-122.169254">
        <ele>64.7</ele>
        <time>2015-07-19T21:47:10Z</time>
      </trkpt>
      <trkpt lat="37.413627" lon="-122.169218">
        <ele>64.5</ele>
        <time>2015-07-19T21:47:11Z</time>
      </trkpt>
      <trkpt lat="37.413606" lon="-122.169179">
        <ele>64.6</ele>
        <time>2015-07-19T21:47:12Z</time>
      </trkpt>
      <trkpt lat="37.413582" lon="-122.169135">
        <ele>64.1</ele>
        <time>2015-07-19T21:47:13Z</time>
      </trkpt>
      <trkpt lat="37.413558" lon="-122.169087">
        <ele>63.9</ele>
        <time>2015-07-19T21:47:14Z</time>
      </trkpt>
      <trkpt lat="37.413543" lon="-122.169028">
        <ele>63.6</ele>
        <time>2015-07-19T21:47:15Z</time>
      </trkpt>
      <trkpt lat="37.413514" lon="-122.16897">
        <ele>63.1</ele>
        <time>2015-07-19T21:47:16Z</time>
      </trkpt>
      <trkpt lat="37.413488" lon="-122.16891">
        <ele>62.9</ele>
        <time>2015-07-19T21:47:17Z</time>
      </trkpt>
      <trkpt lat="37.413474" lon="-122.168845">
        <ele>62.7</ele>
        <time>2015-07-19T21:47:18Z</time>
      </trkpt>
      <trkpt lat="37.413454" lon="-122.168791">
        <ele>62.4</ele>
        <time>2015-07-19T21:47:19Z</time>
      </trkpt>
      <trkpt lat="37.413416" lon="-122.168721">
        <ele>62.1</ele>
        <time>2015-07-19T21:47:20Z</time>
      </trkpt>
      <trkpt lat="37.413377" lon="-122.168652">
        <ele>61.9</ele>
        <time>2015-07-19T21:47:21Z</time>
      </trkpt>
      <trkpt lat="37.413362" lon="-122.168616">
        <ele>61.6</ele>
        <time>2015-07-19T21:47:22Z</time>
      </trkpt>
      <trkpt lat="37.413239" lon="-122.168347">
        <ele>60.7</ele>
        <time>2015-07-19T21:47:25Z</time>
      </trkpt>
      <trkpt lat="37.413206" lon="-122.16827">
        <ele>60.4</ele>
        <time>2015-07-19T21:47:26Z</time>
      </trkpt>
      <trkpt lat="37.4132" lon="-122.168194">
        <ele>60.2</ele>
        <time>2015-07-19T21:47:27Z</time>
      </trkpt>
      <trkpt lat="37.413191" lon="-122.168107">
        <ele>60.3</ele>
        <time>2015-07-19T21:47:28Z</time>
      </trkpt>
      <trkpt lat="37.413164" lon="-122.16802">
        <ele>60.1</ele>
        <time>2015-07-19T21:47:29Z</time>
      </trkpt>
      <trkpt lat="37.413136" lon="-122.167924">
        <ele>59.8</ele>
        <time>2015-07-19T21:47:30Z</time>
      </trkpt>
      <trkpt lat="37.413109" lon="-122.167864">
        <ele>59.8</ele>
        <time>2015-07-19T21:47:31Z</time>
      </trkpt>
      <trkpt lat="37.413075" lon="-122.167785">
        <ele>59.5</ele>
        <time>2015-07-19T21:47:32Z</time>
      </trkpt>
      <trkpt lat="37.413048" lon="-122.167704">
        <ele>59.5</ele>
        <time>2015-07-19T21:47:33Z</time>
      </trkpt>
      <trkpt lat="37.41304" lon="-122.16762">
        <ele>59.4</ele>
        <time>2015-07-19T21:47:34Z</time>
      </trkpt>
      <trkpt lat="37.413007" lon="-122.167543">
        <ele>59</ele>
        <time>2015-07-19T21:47:35Z</time>
      </trkpt>
      <trkpt lat="37.412973" lon="-122.167454">
        <ele>58.7</ele>
        <time>2015-07-19T21:47:36Z</time>
      </trkpt>
      <trkpt lat="37.412968" lon="-122.167369">
        <ele>58.9</ele>
        <time>2015-07-19T21:47:37Z</time>
      </trkpt>
      <trkpt lat="37.412957" lon="-122.167281">
        <ele>58.9</ele>
        <time>2015-07-19T21:47:38Z</time>
      </trkpt>
      <trkpt lat="37.412929" lon="-122.167205">
        <ele>58.8</ele>
        <time>2015-07-19T21:47:39Z</time>
      </trkpt>
      <trkpt lat="37.412923" lon="-122.167112">
        <ele>58.5</ele>
        <time>2015-07-19T21:47:40Z</time>
      </trkpt>
      <trkpt lat="37.412909" lon="-122.167034">
        <ele>58.5</ele>
        <time>2015-07-19T21:47:41Z</time>
      </trkpt>
      <trkpt lat="37.412899" lon="-122.166958">
        <ele>58.4</ele>
        <time>2015-07-19T21:47:42Z</time>
      </trkpt>
      <trkpt lat="37.412885" lon="-122.166877">
        <ele>58.3</ele>
        <time>2015-07-19T21:47:43Z</time>
      </trkpt>
      <trkpt lat="37.412871" lon="-122.166794">
        <ele>58.2</ele>
        <time>2015-07-19T21:47:44Z</time>
      </trkpt>
      <trkpt lat="37.412861" lon="-122.166716">
        <ele>58.1</ele>
        <time>2015-07-19T21:47:45Z</time>
      </trkpt>
      <trkpt lat="37.41285" lon="-122.166638">
        <ele>57.9</ele>
        <time>2015-07-19T21:47:46Z</time>
      </trkpt>
      <trkpt lat="37.412833" lon="-122.166548">
        <ele>57.7</ele>
        <time>2015-07-19T21:47:47Z</time>
      </trkpt>
      <trkpt lat="37.412819" lon="-122.166463">
        <ele>57.7</ele>
        <time>2015-07-19T21:47:48Z</time>
      </trkpt>
      <trkpt lat="37.412809" lon="-122.166384">
        <ele>57.5</ele>
        <time>2015-07-19T21:47:49Z</time>
      </trkpt>
      <trkpt lat="37.412796" lon="-122.166297">
        <ele>57.4</ele>
        <time>2015-07-19T21:47:50Z</time>
      </trkpt>
      <trkpt lat="37.412781" lon="-122.166211">
        <ele>57.4</ele>
        <time>2015-07-19T21:47:51Z</time>
      </trkpt>
      <trkpt lat="37.412763" lon="-122.166123">
        <ele>57.1</ele>
        <time>2015-07-19T21:47:52Z</time>
      </trkpt>
      <trkpt lat="37.412744" lon="-122.166038">
        <ele>57.2</ele>
        <time>2015-07-19T21:47:53Z</time>
      </trkpt>
      <trkpt lat="37.412725" lon="-122.165953">
        <ele>57.1</ele>
        <time>2015-07-19T21:47:54Z</time>
      </trkpt>
      <trkpt lat="37.412706" lon="-122.165858">
        <ele>57</ele>
        <time>2015-07-19T21:47:55Z</time>
      </trkpt>
      <trkpt lat="37.412681" lon="-122.165762">
        <ele>56.8</ele>
        <time>2015-07-19T21:47:56Z</time>
      </trkpt>
      <trkpt lat="37.412656" lon="-122.165666">
        <ele>56.7</ele>
        <time>2015-07-19T21:47:57Z</time>
      </trkpt>
      <trkpt lat="37.41263" lon="-122.165584">
        <ele>56.6</ele>
        <time>2015-07-19T21:47:59Z</time>
      </trkpt>
      <trkpt lat="37.41255" lon="-122.165407">
        <ele>56.6</ele>
        <time>2015-07-19T21:48:00Z</time>
      </trkpt>
      <trkpt lat="37.412519" lon="-122.165321">
        <ele>56.5</ele>
        <time>2015-07-19T21:48:01Z</time>
      </trkpt>
      <trkpt lat="37.412504" lon="-122.165234">
        <ele>56.2</ele>
        <time>2015-07-19T21:48:02Z</time>
      </trkpt>
      <trkpt lat="37.412458" lon="-122.165153">
        <ele>56.5</ele>
        <time>2015-07-19T21:48:03Z</time>
      </trkpt>
      <trkpt lat="37.41242" lon="-122.165062">
        <ele>56.3</ele>
        <time>2015-07-19T21:48:04Z</time>
      </trkpt>
      <trkpt lat="37.412407" lon="-122.164969">
        <ele>56.2</ele>
        <time>2015-07-19T21:48:05Z</time>
      </trkpt>
      <trkpt lat="37.412362" lon="-122.164885">
        <ele>56.2</ele>
        <time>2015-07-19T21:48:06Z</time>
      </trkpt>
      <trkpt lat="37.41233" lon="-122.164789">
        <ele>56.1</ele>
        <time>2015-07-19T21:48:07Z</time>
      </trkpt>
      <trkpt lat="37.412308" lon="-122.164695">
        <ele>55.8</ele>
        <time>2015-07-19T21:48:08Z</time>
      </trkpt>
      <trkpt lat="37.412273" lon="-122.164609">
        <ele>55.9</ele>
        <time>2015-07-19T21:48:09Z</time>
      </trkpt>
      <trkpt lat="37.412238" lon="-122.164504">
        <ele>55.8</ele>
        <time>2015-07-19T21:48:10Z</time>
      </trkpt>
      <trkpt lat="37.4122" lon="-122.164409">
        <ele>55.9</ele>
        <time>2015-07-19T21:48:11Z</time>
      </trkpt>
      <trkpt lat="37.412169" lon="-122.164329">
        <ele>55.9</ele>
        <time>2015-07-19T21:48:12Z</time>
      </trkpt>
      <trkpt lat="37.412135" lon="-122.164238">
        <ele>55.8</ele>
        <time>2015-07-19T21:48:13Z</time>
      </trkpt>
      <trkpt lat="37.4121" lon="-122.164154">
        <ele>55.6</ele>
        <time>2015-07-19T21:48:14Z</time>
      </trkpt>
      <trkpt lat="37.412064" lon="-122.164069">
        <ele>55.4</ele>
        <time>2015-07-19T21:48:15Z</time>
      </trkpt>
      <trkpt lat="37.412018" lon="-122.163964">
        <ele>55</ele>
        <time>2015-07-19T21:48:16Z</time>
      </trkpt>
      <trkpt lat="37.411995" lon="-122.163874">
        <ele>54.4</ele>
        <time>2015-07-19T21:48:17Z</time>
      </trkpt>
      <trkpt lat="37.411964" lon="-122.163791">
        <ele>54.1</ele>
        <time>2015-07-19T21:48:19Z</time>
      </trkpt>
      <trkpt lat="37.411881" lon="-122.163609">
        <ele>53.8</ele>
        <time>2015-07-19T21:48:20Z</time>
      </trkpt>
      <trkpt lat="37.411839" lon="-122.163521">
        <ele>53.7</ele>
        <time>2015-07-19T21:48:21Z</time>
      </trkpt>
      <trkpt lat="37.411787" lon="-122.163445">
        <ele>53.6</ele>
        <time>2015-07-19T21:48:22Z</time>
      </trkpt>
      <trkpt lat="37.411745" lon="-122.163352">
        <ele>53.4</ele>
        <time>2015-07-19T21:48:23Z</time>
      </trkpt>
      <trkpt lat="37.411698" lon="-122.163271">
        <ele>53.4</ele>
        <time>2015-07-19T21:48:24Z</time>
      </trkpt>
      <trkpt lat="37.411652" lon="-122.1632">
        <ele>53.2</ele>
        <time>2015-07-19T21:48:25Z</time>
      </trkpt>
      <trkpt lat="37.411614" lon="-122.163119">
        <ele>53.1</ele>
        <time>2015-07-19T21:48:26Z</time>
      </trkpt>
      <trkpt lat="37.411571" lon="-122.163041">
        <ele>53.2</ele>
        <time>2015-07-19T21:48:27Z</time>
      </trkpt>
      <trkpt lat="37.411531" lon="-122.162974">
        <ele>53.2</ele>
        <time>2015-07-19T21:48:28Z</time>
      </trkpt>
      <trkpt lat="37.411478" lon="-122.162901">
        <ele>53.2</ele>
        <time>2015-07-19T21:48:29Z</time>
      </trkpt>
      <trkpt lat="37.411435" lon="-122.162827">
        <ele>53.2</ele>
        <time>2015-07-19T21:48:30Z</time>
      </trkpt>
      <trkpt lat="37.41139" lon="-122.162756">
        <ele>53.3</ele>
        <time>2015-07-19T21:48:31Z</time>
      </trkpt>
      <trkpt lat="37.411342" lon="-122.162692">
        <ele>53.2</ele>
        <time>2015-07-19T21:48:32Z</time>
      </trkpt>
      <trkpt lat="37.411288" lon="-122.162619">
        <ele>53.3</ele>
        <time>2015-07-19T21:48:33Z</time>
      </trkpt>
      <trkpt lat="37.41123" lon="-122.162563">
        <ele>53.3</ele>
        <time>2015-07-19T21:48:34Z</time>
      </trkpt>
      <trkpt lat="37.411182" lon="-122.162496">
        <ele>53.4</ele>
        <time>2015-07-19T21:48:35Z</time>
      </trkpt>
      <trkpt lat="37.411134" lon="-122.162429">
        <ele>53.3</ele>
        <time>2015-07-19T21:48:36Z</time>
      </trkpt>
      <trkpt lat="37.411071" lon="-122.162366">
        <ele>53.3</ele>
        <time>2015-07-19T21:48:37Z</time>
      </trkpt>
      <trkpt lat="37.411023" lon="-122.162285">
        <ele>53.4</ele>
        <time>2015-07-19T21:48:38Z</time>
      </trkpt>
      <trkpt lat="37.410991" lon="-122.162225">
        <ele>53.4</ele>
        <time>2015-07-19T21:48:39Z</time>
      </trkpt>
      <trkpt lat="37.410942" lon="-122.162166">
        <ele>53.4</ele>
        <time>2015-07-19T21:48:40Z</time>
      </trkpt>
      <trkpt lat="37.410893" lon="-122.162099">
        <ele>53.4</ele>
        <time>2015-07-19T21:48:41Z</time>
      </trkpt>
      <trkpt lat="37.410856" lon="-122.162046">
        <ele>53.4</ele>
        <time>2015-07-19T21:48:42Z</time>
      </trkpt>
      <trkpt lat="37.410803" lon="-122.161987">
        <ele>53.4</ele>
        <time>2015-07-19T21:48:43Z</time>
      </trkpt>
      <trkpt lat="37.410764" lon="-122.161926">
        <ele>53.4</ele>
        <time>2015-07-19T21:48:44Z</time>
      </trkpt>
      <trkpt lat="37.410733" lon="-122.16187">
        <ele>53.3</ele>
        <time>2015-07-19T21:48:45Z</time>
      </trkpt>
      <trkpt lat="37.410672" lon="-122.161806">
        <ele>53.3</ele>
        <time>2015-07-19T21:48:46Z</time>
      </trkpt>
      <trkpt lat="37.41062" lon="-122.161742">
        <ele>53.4</ele>
        <time>2015-07-19T21:48:47Z</time>
      </trkpt>
      <trkpt lat="37.410592" lon="-122.161683">
        <ele>53.3</ele>
        <time>2015-07-19T21:48:48Z</time>
      </trkpt>
      <trkpt lat="37.410543" lon="-122.161621">
        <ele>53.2</ele>
        <time>2015-07-19T21:48:49Z</time>
      </trkpt>
      <trkpt lat="37.410499" lon="-122.161563">
        <ele>53.2</ele>
        <time>2015-07-19T21:48:50Z</time>
      </trkpt>
      <trkpt lat="37.410441" lon="-122.161503">
        <ele>53.2</ele>
        <time>2015-07-19T21:48:51Z</time>
      </trkpt>
      <trkpt lat="37.410399" lon="-122.161453">
        <ele>53.2</ele>
        <time>2015-07-19T21:48:52Z</time>
      </trkpt>
      <trkpt lat="37.410338" lon="-122.16138">
        <ele>53.2</ele>
        <time>2015-07-19T21:48:53Z</time>
      </trkpt>
      <trkpt lat="37.410283" lon="-122.161319">
        <ele>53.3</ele>
        <time>2015-07-19T21:48:54Z</time>
      </trkpt>
      <trkpt lat="37.410249" lon="-122.161263">
        <ele>53.3</ele>
        <time>2015-07-19T21:48:55Z</time>
      </trkpt>
      <trkpt lat="37.4102" lon="-122.161197">
        <ele>53.3</ele>
        <time>2015-07-19T21:48:56Z</time>
      </trkpt>
      <trkpt lat="37.410154" lon="-122.161139">
        <ele>53.3</ele>
        <time>2015-07-19T21:48:57Z</time>
      </trkpt>
      <trkpt lat="37.410126" lon="-122.161106">
        <ele>53.4</ele>
        <time>2015-07-19T21:48:58Z</time>
      </trkpt>
      <trkpt lat="37.409959" lon="-122.160881">
        <ele>53.7</ele>
        <time>2015-07-19T21:49:01Z</time>
      </trkpt>
      <trkpt lat="37.409923" lon="-122.160833">
        <ele>53.9</ele>
        <time>2015-07-19T21:49:02Z</time>
      </trkpt>
      <trkpt lat="37.40988" lon="-122.160775">
        <ele>54</ele>
        <time>2015-07-19T21:49:03Z</time>
      </trkpt>
      <trkpt lat="37.409846" lon="-122.16073">
        <ele>54.1</ele>
        <time>2015-07-19T21:49:04Z</time>
      </trkpt>
      <trkpt lat="37.409816" lon="-122.16069">
        <ele>54.3</ele>
        <time>2015-07-19T21:49:05Z</time>
      </trkpt>
      <trkpt lat="37.409677" lon="-122.160504">
        <ele>54.9</ele>
        <time>2015-07-19T21:49:10Z</time>
      </trkpt>
      <trkpt lat="37.409653" lon="-122.160471">
        <ele>55.1</ele>
        <time>2015-07-19T21:49:11Z</time>
      </trkpt>
      <trkpt lat="37.409632" lon="-122.160444">
        <ele>55.2</ele>
        <time>2015-07-19T21:49:12Z</time>
      </trkpt>
      <trkpt lat="37.409598" lon="-122.160397">
        <ele>55.2</ele>
        <time>2015-07-19T21:49:14Z</time>
      </trkpt>
      <trkpt lat="37.409563" lon="-122.16035">
        <ele>55.3</ele>
        <time>2015-07-19T21:49:16Z</time>
      </trkpt>
      <trkpt lat="37.409527" lon="-122.160301">
        <ele>55.4</ele>
        <time>2015-07-19T21:49:18Z</time>
      </trkpt>
      <trkpt lat="37.409493" lon="-122.160255">
        <ele>55.3</ele>
        <time>2015-07-19T21:49:20Z</time>
      </trkpt>
      <trkpt lat="37.409472" lon="-122.160227">
        <ele>55.3</ele>
        <time>2015-07-19T21:49:21Z</time>
      </trkpt>
      <trkpt lat="37.409451" lon="-122.160198">
        <ele>55.4</ele>
        <time>2015-07-19T21:49:22Z</time>
      </trkpt>
      <trkpt lat="37.40943" lon="-122.160169">
        <ele>55.4</ele>
        <time>2015-07-19T21:49:23Z</time>
      </trkpt>
      <trkpt lat="37.409406" lon="-122.160137">
        <ele>55.5</ele>
        <time>2015-07-19T21:49:24Z</time>
      </trkpt>
      <trkpt lat="37.409381" lon="-122.160104">
        <ele>55.5</ele>
        <time>2015-07-19T21:49:25Z</time>
      </trkpt>
      <trkpt lat="37.409354" lon="-122.160067">
        <ele>55.5</ele>
        <time>2015-07-19T21:49:26Z</time>
      </trkpt>
      <trkpt lat="37.409323" lon="-122.160025">
        <ele>55.5</ele>
        <time>2015-07-19T21:49:27Z</time>
      </trkpt>
      <trkpt lat="37.40929" lon="-122.15998">
        <ele>55.4</ele>
        <time>2015-07-19T21:49:28Z</time>
      </trkpt>
      <trkpt lat="37.409255" lon="-122.15992">
        <ele>55.3</ele>
        <time>2015-07-19T21:49:29Z</time>
      </trkpt>
      <trkpt lat="37.409216" lon="-122.159881">
        <ele>55.4</ele>
        <time>2015-07-19T21:49:30Z</time>
      </trkpt>
      <trkpt lat="37.409165" lon="-122.159837">
        <ele>55.4</ele>
        <time>2015-07-19T21:49:31Z</time>
      </trkpt>
      <trkpt lat="37.409142" lon="-122.159781">
        <ele>55.1</ele>
        <time>2015-07-19T21:49:32Z</time>
      </trkpt>
      <trkpt lat="37.409105" lon="-122.15973">
        <ele>55.1</ele>
        <time>2015-07-19T21:49:33Z</time>
      </trkpt>
      <trkpt lat="37.409066" lon="-122.159677">
        <ele>54.9</ele>
        <time>2015-07-19T21:49:34Z</time>
      </trkpt>
      <trkpt lat="37.409032" lon="-122.159632">
        <ele>54.7</ele>
        <time>2015-07-19T21:49:35Z</time>
      </trkpt>
      <trkpt lat="37.408998" lon="-122.159583">
        <ele>54.7</ele>
        <time>2015-07-19T21:49:36Z</time>
      </trkpt>
      <trkpt lat="37.408961" lon="-122.159521">
        <ele>54.5</ele>
        <time>2015-07-19T21:49:37Z</time>
      </trkpt>
      <trkpt lat="37.408922" lon="-122.159463">
        <ele>54.4</ele>
        <time>2015-07-19T21:49:38Z</time>
      </trkpt>
      <trkpt lat="37.408884" lon="-122.159413">
        <ele>54.3</ele>
        <time>2015-07-19T21:49:39Z</time>
      </trkpt>
      <trkpt lat="37.408842" lon="-122.159355">
        <ele>54.3</ele>
        <time>2015-07-19T21:49:40Z</time>
      </trkpt>
      <trkpt lat="37.408801" lon="-122.159302">
        <ele>54.2</ele>
        <time>2015-07-19T21:49:41Z</time>
      </trkpt>
      <trkpt lat="37.408756" lon="-122.159239">
        <ele>54.2</ele>
        <time>2015-07-19T21:49:42Z</time>
      </trkpt>
      <trkpt lat="37.408718" lon="-122.159174">
        <ele>54.1</ele>
        <time>2015-07-19T21:49:43Z</time>
      </trkpt>
      <trkpt lat="37.408679" lon="-122.159129">
        <ele>54.2</ele>
        <time>2015-07-19T21:49:44Z</time>
      </trkpt>
      <trkpt lat="37.408631" lon="-122.159073">
        <ele>54.2</ele>
        <time>2015-07-19T21:49:45Z</time>
      </trkpt>
      <trkpt lat="37.408589" lon="-122.159008">
        <ele>54.2</ele>
        <time>2015-07-19T21:49:46Z</time>
      </trkpt>
      <trkpt lat="37.408544" lon="-122.158944">
        <ele>54.2</ele>
        <time>2015-07-19T21:49:47Z</time>
      </trkpt>
      <trkpt lat="37.408501" lon="-122.158884">
        <ele>54.1</ele>
        <time>2015-07-19T21:49:48Z</time>
      </trkpt>
      <trkpt lat="37.408462" lon="-122.158818">
        <ele>54.2</ele>
        <time>2015-07-19T21:49:49Z</time>
      </trkpt>
      <trkpt lat="37.408415" lon="-122.158751">
        <ele>54.2</ele>
        <time>2015-07-19T21:49:50Z</time>
      </trkpt>
      <trkpt lat="37.408368" lon="-122.158697">
        <ele>54.2</ele>
        <time>2015-07-19T21:49:51Z</time>
      </trkpt>
      <trkpt lat="37.408324" lon="-122.15863">
        <ele>54.2</ele>
        <time>2015-07-19T21:49:52Z</time>
      </trkpt>
      <trkpt lat="37.408278" lon="-122.158567">
        <ele>54.2</ele>
        <time>2015-07-19T21:49:53Z</time>
      </trkpt>
      <trkpt lat="37.408231" lon="-122.158502">
        <ele>54.2</ele>
        <time>2015-07-19T21:49:54Z</time>
      </trkpt>
      <trkpt lat="37.408179" lon="-122.158438">
        <ele>54.4</ele>
        <time>2015-07-19T21:49:55Z</time>
      </trkpt>
      <trkpt lat="37.408132" lon="-122.158373">
        <ele>54.3</ele>
        <time>2015-07-19T21:49:56Z</time>
      </trkpt>
      <trkpt lat="37.40809" lon="-122.15831">
        <ele>54.2</ele>
        <time>2015-07-19T21:49:57Z</time>
      </trkpt>
      <trkpt lat="37.408045" lon="-122.158249">
        <ele>54.2</ele>
        <time>2015-07-19T21:49:58Z</time>
      </trkpt>
      <trkpt lat="37.407999" lon="-122.158185">
        <ele>54.4</ele>
        <time>2015-07-19T21:49:59Z</time>
      </trkpt>
      <trkpt lat="37.407949" lon="-122.158123">
        <ele>54.4</ele>
        <time>2015-07-19T21:50:00Z</time>
      </trkpt>
      <trkpt lat="37.407913" lon="-122.15807">
        <ele>54.3</ele>
        <time>2015-07-19T21:50:01Z</time>
      </trkpt>
      <trkpt lat="37.407868" lon="-122.15801">
        <ele>54.3</ele>
        <time>2015-07-19T21:50:02Z</time>
      </trkpt>
      <trkpt lat="37.407833" lon="-122.157946">
        <ele>54.1</ele>
        <time>2015-07-19T21:50:03Z</time>
      </trkpt>
      <trkpt lat="37.407785" lon="-122.157886">
        <ele>54</ele>
        <time>2015-07-19T21:50:04Z</time>
      </trkpt>
      <trkpt lat="37.407747" lon="-122.157829">
        <ele>54</ele>
        <time>2015-07-19T21:50:05Z</time>
      </trkpt>
      <trkpt lat="37.407707" lon="-122.157776">
        <ele>53.8</ele>
        <time>2015-07-19T21:50:06Z</time>
      </trkpt>
      <trkpt lat="37.407665" lon="-122.15772">
        <ele>53.7</ele>
        <time>2015-07-19T21:50:07Z</time>
      </trkpt>
      <trkpt lat="37.407614" lon="-122.157668">
        <ele>53.8</ele>
        <time>2015-07-19T21:50:08Z</time>
      </trkpt>
      <trkpt lat="37.407569" lon="-122.157612">
        <ele>53.8</ele>
        <time>2015-07-19T21:50:09Z</time>
      </trkpt>
      <trkpt lat="37.407536" lon="-122.157556">
        <ele>53.7</ele>
        <time>2015-07-19T21:50:10Z</time>
      </trkpt>
      <trkpt lat="37.407485" lon="-122.157493">
        <ele>53.5</ele>
        <time>2015-07-19T21:50:11Z</time>
      </trkpt>
      <trkpt lat="37.407436" lon="-122.157443">
        <ele>53.7</ele>
        <time>2015-07-19T21:50:12Z</time>
      </trkpt>
      <trkpt lat="37.407407" lon="-122.157395">
        <ele>53.5</ele>
        <time>2015-07-19T21:50:13Z</time>
      </trkpt>
      <trkpt lat="37.407352" lon="-122.157315">
        <ele>53.3</ele>
        <time>2015-07-19T21:50:14Z</time>
      </trkpt>
      <trkpt lat="37.407322" lon="-122.157252">
        <ele>53.2</ele>
        <time>2015-07-19T21:50:15Z</time>
      </trkpt>
      <trkpt lat="37.407289" lon="-122.157209">
        <ele>53</ele>
        <time>2015-07-19T21:50:16Z</time>
      </trkpt>
      <trkpt lat="37.407241" lon="-122.157154">
        <ele>52.8</ele>
        <time>2015-07-19T21:50:17Z</time>
      </trkpt>
      <trkpt lat="37.407198" lon="-122.157103">
        <ele>52.7</ele>
        <time>2015-07-19T21:50:18Z</time>
      </trkpt>
      <trkpt lat="37.40715" lon="-122.157047">
        <ele>52.4</ele>
        <time>2015-07-19T21:50:19Z</time>
      </trkpt>
      <trkpt lat="37.407098" lon="-122.156987">
        <ele>52.3</ele>
        <time>2015-07-19T21:50:20Z</time>
      </trkpt>
      <trkpt lat="37.407051" lon="-122.156934">
        <ele>52.1</ele>
        <time>2015-07-19T21:50:21Z</time>
      </trkpt>
      <trkpt lat="37.406857" lon="-122.156796">
        <ele>51.8</ele>
        <time>2015-07-19T21:50:24Z</time>
      </trkpt>
      <trkpt lat="37.406783" lon="-122.156741">
        <ele>52</ele>
        <time>2015-07-19T21:50:25Z</time>
      </trkpt>
      <trkpt lat="37.406718" lon="-122.156676">
        <ele>51.8</ele>
        <time>2015-07-19T21:50:26Z</time>
      </trkpt>
      <trkpt lat="37.406665" lon="-122.156616">
        <ele>51.8</ele>
        <time>2015-07-19T21:50:27Z</time>
      </trkpt>
      <trkpt lat="37.406626" lon="-122.156537">
        <ele>51.1</ele>
        <time>2015-07-19T21:50:28Z</time>
      </trkpt>
      <trkpt lat="37.406577" lon="-122.156445">
        <ele>50.7</ele>
        <time>2015-07-19T21:50:29Z</time>
      </trkpt>
      <trkpt lat="37.406548" lon="-122.156378">
        <ele>50.3</ele>
        <time>2015-07-19T21:50:30Z</time>
      </trkpt>
      <trkpt lat="37.406533" lon="-122.156329">
        <ele>50.1</ele>
        <time>2015-07-19T21:50:31Z</time>
      </trkpt>
      <trkpt lat="37.406512" lon="-122.156273">
        <ele>50</ele>
        <time>2015-07-19T21:50:32Z</time>
      </trkpt>
      <trkpt lat="37.40649" lon="-122.156244">
        <ele>49.9</ele>
        <time>2015-07-19T21:50:33Z</time>
      </trkpt>
      <trkpt lat="37.406471" lon="-122.15622">
        <ele>49.8</ele>
        <time>2015-07-19T21:50:34Z</time>
      </trkpt>
      <trkpt lat="37.406417" lon="-122.156245">
        <ele>50</ele>
        <time>2015-07-19T21:50:35Z</time>
      </trkpt>
      <trkpt lat="37.406382" lon="-122.156226">
        <ele>50</ele>
        <time>2015-07-19T21:50:36Z</time>
      </trkpt>
      <trkpt lat="37.406346" lon="-122.156194">
        <ele>49.7</ele>
        <time>2015-07-19T21:50:38Z</time>
      </trkpt>
      <trkpt lat="37.406386" lon="-122.156186">
        <ele>49.7</ele>
        <time>2015-07-19T21:50:48Z</time>
      </trkpt>
      <trkpt lat="37.40635" lon="-122.156189">
        <ele>49.7</ele>
        <time>2015-07-19T21:51:23Z</time>
      </trkpt>
      <trkpt lat="37.406335" lon="-122.156147">
        <ele>49.5</ele>
        <time>2015-07-19T21:51:25Z</time>
      </trkpt>
      <trkpt lat="37.406321" lon="-122.156114">
        <ele>49.4</ele>
        <time>2015-07-19T21:51:26Z</time>
      </trkpt>
      <trkpt lat="37.406312" lon="-122.15607">
        <ele>49.4</ele>
        <time>2015-07-19T21:51:27Z</time>
      </trkpt>
      <trkpt lat="37.406257" lon="-122.156042">
        <ele>49.3</ele>
        <time>2015-07-19T21:51:28Z</time>
      </trkpt>
      <trkpt lat="37.406229" lon="-122.156004">
        <ele>49.2</ele>
        <time>2015-07-19T21:51:29Z</time>
      </trkpt>
      <trkpt lat="37.406191" lon="-122.155959">
        <ele>49.2</ele>
        <time>2015-07-19T21:51:30Z</time>
      </trkpt>
      <trkpt lat="37.406156" lon="-122.155911">
        <ele>49.1</ele>
        <time>2015-07-19T21:51:31Z</time>
      </trkpt>
      <trkpt lat="37.406147" lon="-122.155829">
        <ele>49.1</ele>
        <time>2015-07-19T21:51:32Z</time>
      </trkpt>
      <trkpt lat="37.406112" lon="-122.155784">
        <ele>48.9</ele>
        <time>2015-07-19T21:51:33Z</time>
      </trkpt>
      <trkpt lat="37.406072" lon="-122.15573">
        <ele>48.8</ele>
        <time>2015-07-19T21:51:34Z</time>
      </trkpt>
      <trkpt lat="37.406034" lon="-122.155678">
        <ele>48.6</ele>
        <time>2015-07-19T21:51:35Z</time>
      </trkpt>
      <trkpt lat="37.405993" lon="-122.155622">
        <ele>48.3</ele>
        <time>2015-07-19T21:51:36Z</time>
      </trkpt>
      <trkpt lat="37.405955" lon="-122.155571">
        <ele>48.1</ele>
        <time>2015-07-19T21:51:37Z</time>
      </trkpt>
      <trkpt lat="37.405912" lon="-122.155506">
        <ele>47.9</ele>
        <time>2015-07-19T21:51:38Z</time>
      </trkpt>
      <trkpt lat="37.40587" lon="-122.155443">
        <ele>47.4</ele>
        <time>2015-07-19T21:51:39Z</time>
      </trkpt>
      <trkpt lat="37.405826" lon="-122.155373">
        <ele>47.1</ele>
        <time>2015-07-19T21:51:40Z</time>
      </trkpt>
      <trkpt lat="37.405786" lon="-122.155308">
        <ele>46.7</ele>
        <time>2015-07-19T21:51:41Z</time>
      </trkpt>
      <trkpt lat="37.405743" lon="-122.155226">
        <ele>46.3</ele>
        <time>2015-07-19T21:51:42Z</time>
      </trkpt>
      <trkpt lat="37.405699" lon="-122.155143">
        <ele>45.9</ele>
        <time>2015-07-19T21:51:43Z</time>
      </trkpt>
      <trkpt lat="37.405663" lon="-122.155068">
        <ele>45.7</ele>
        <time>2015-07-19T21:51:44Z</time>
      </trkpt>
      <trkpt lat="37.405621" lon="-122.154976">
        <ele>44.9</ele>
        <time>2015-07-19T21:51:45Z</time>
      </trkpt>
      <trkpt lat="37.40558" lon="-122.154876">
        <ele>44.5</ele>
        <time>2015-07-19T21:51:46Z</time>
      </trkpt>
      <trkpt lat="37.405544" lon="-122.154776">
        <ele>43.9</ele>
        <time>2015-07-19T21:51:47Z</time>
      </trkpt>
      <trkpt lat="37.405514" lon="-122.15467">
        <ele>43.4</ele>
        <time>2015-07-19T21:51:48Z</time>
      </trkpt>
      <trkpt lat="37.405488" lon="-122.154574">
        <ele>43.1</ele>
        <time>2015-07-19T21:51:49Z</time>
      </trkpt>
      <trkpt lat="37.405459" lon="-122.154447">
        <ele>42.4</ele>
        <time>2015-07-19T21:51:50Z</time>
      </trkpt>
      <trkpt lat="37.405439" lon="-122.154358">
        <ele>42.2</ele>
        <time>2015-07-19T21:51:51Z</time>
      </trkpt>
      <trkpt lat="37.40541" lon="-122.154242">
        <ele>41.8</ele>
        <time>2015-07-19T21:51:52Z</time>
      </trkpt>
      <trkpt lat="37.40538" lon="-122.154129">
        <ele>41.5</ele>
        <time>2015-07-19T21:51:53Z</time>
      </trkpt>
      <trkpt lat="37.405364" lon="-122.154012">
        <ele>41.2</ele>
        <time>2015-07-19T21:51:54Z</time>
      </trkpt>
      <trkpt lat="37.405337" lon="-122.1539">
        <ele>40.9</ele>
        <time>2015-07-19T21:51:55Z</time>
      </trkpt>
      <trkpt lat="37.405318" lon="-122.153789">
        <ele>40.7</ele>
        <time>2015-07-19T21:51:56Z</time>
      </trkpt>
      <trkpt lat="37.40529" lon="-122.153679">
        <ele>40.4</ele>
        <time>2015-07-19T21:51:57Z</time>
      </trkpt>
      <trkpt lat="37.405272" lon="-122.153574">
        <ele>40.2</ele>
        <time>2015-07-19T21:51:58Z</time>
      </trkpt>
      <trkpt lat="37.40526" lon="-122.153452">
        <ele>40</ele>
        <time>2015-07-19T21:51:59Z</time>
      </trkpt>
      <trkpt lat="37.405248" lon="-122.153348">
        <ele>39.7</ele>
        <time>2015-07-19T21:52:00Z</time>
      </trkpt>
      <trkpt lat="37.405239" lon="-122.153232">
        <ele>39.4</ele>
        <time>2015-07-19T21:52:01Z</time>
      </trkpt>
      <trkpt lat="37.405225" lon="-122.153118">
        <ele>39.1</ele>
        <time>2015-07-19T21:52:02Z</time>
      </trkpt>
      <trkpt lat="37.405205" lon="-122.153005">
        <ele>38.7</ele>
        <time>2015-07-19T21:52:03Z</time>
      </trkpt>
      <trkpt lat="37.405191" lon="-122.152891">
        <ele>38.5</ele>
        <time>2015-07-19T21:52:04Z</time>
      </trkpt>
      <trkpt lat="37.405188" lon="-122.152776">
        <ele>38.1</ele>
        <time>2015-07-19T21:52:05Z</time>
      </trkpt>
      <trkpt lat="37.405175" lon="-122.152664">
        <ele>37.8</ele>
        <time>2015-07-19T21:52:06Z</time>
      </trkpt>
      <trkpt lat="37.405165" lon="-122.152549">
        <ele>37.6</ele>
        <time>2015-07-19T21:52:07Z</time>
      </trkpt>
      <trkpt lat="37.405156" lon="-122.152428">
        <ele>37.3</ele>
        <time>2015-07-19T21:52:08Z</time>
      </trkpt>
      <trkpt lat="37.405149" lon="-122.152322">
        <ele>37</ele>
        <time>2015-07-19T21:52:09Z</time>
      </trkpt>
      <trkpt lat="37.40514" lon="-122.152208">
        <ele>36.7</ele>
        <time>2015-07-19T21:52:10Z</time>
      </trkpt>
      <trkpt lat="37.405131" lon="-122.152086">
        <ele>36.3</ele>
        <time>2015-07-19T21:52:11Z</time>
      </trkpt>
      <trkpt lat="37.405122" lon="-122.151972">
        <ele>36.2</ele>
        <time>2015-07-19T21:52:12Z</time>
      </trkpt>
      <trkpt lat="37.405114" lon="-122.151863">
        <ele>36</ele>
        <time>2015-07-19T21:52:13Z</time>
      </trkpt>
      <trkpt lat="37.405104" lon="-122.151732">
        <ele>35.7</ele>
        <time>2015-07-19T21:52:14Z</time>
      </trkpt>
      <trkpt lat="37.405096" lon="-122.151629">
        <ele>35.5</ele>
        <time>2015-07-19T21:52:15Z</time>
      </trkpt>
      <trkpt lat="37.405087" lon="-122.15151">
        <ele>35.2</ele>
        <time>2015-07-19T21:52:16Z</time>
      </trkpt>
      <trkpt lat="37.405079" lon="-122.151395">
        <ele>35</ele>
        <time>2015-07-19T21:52:17Z</time>
      </trkpt>
      <trkpt lat="37.40507" lon="-122.151285">
        <ele>34.8</ele>
        <time>2015-07-19T21:52:18Z</time>
      </trkpt>
      <trkpt lat="37.405061" lon="-122.151167">
        <ele>34.6</ele>
        <time>2015-07-19T21:52:19Z</time>
      </trkpt>
      <trkpt lat="37.405053" lon="-122.151058">
        <ele>34.5</ele>
        <time>2015-07-19T21:52:20Z</time>
      </trkpt>
      <trkpt lat="37.405045" lon="-122.150953">
        <ele>34.3</ele>
        <time>2015-07-19T21:52:21Z</time>
      </trkpt>
      <trkpt lat="37.405038" lon="-122.150848">
        <ele>34.2</ele>
        <time>2015-07-19T21:52:22Z</time>
      </trkpt>
      <trkpt lat="37.405045" lon="-122.150739">
        <ele>34.1</ele>
        <time>2015-07-19T21:52:23Z</time>
      </trkpt>
      <trkpt lat="37.405047" lon="-122.150643">
        <ele>34.1</ele>
        <time>2015-07-19T21:52:24Z</time>
      </trkpt>
      <trkpt lat="37.405041" lon="-122.150543">
        <ele>34</ele>
        <time>2015-07-19T21:52:25Z</time>
      </trkpt>
      <trkpt lat="37.405035" lon="-122.150441">
        <ele>34</ele>
        <time>2015-07-19T21:52:26Z</time>
      </trkpt>
      <trkpt lat="37.405021" lon="-122.150335">
        <ele>33.8</ele>
        <time>2015-07-19T21:52:27Z</time>
      </trkpt>
      <trkpt lat="37.405002" lon="-122.150247">
        <ele>33.7</ele>
        <time>2015-07-19T21:52:28Z</time>
      </trkpt>
      <trkpt lat="37.405001" lon="-122.150158">
        <ele>33.7</ele>
        <time>2015-07-19T21:52:29Z</time>
      </trkpt>
      <trkpt lat="37.40499" lon="-122.150048">
        <ele>33.5</ele>
        <time>2015-07-19T21:52:30Z</time>
      </trkpt>
      <trkpt lat="37.404986" lon="-122.149956">
        <ele>33.5</ele>
        <time>2015-07-19T21:52:31Z</time>
      </trkpt>
      <trkpt lat="37.404977" lon="-122.149849">
        <ele>33.5</ele>
        <time>2015-07-19T21:52:32Z</time>
      </trkpt>
      <trkpt lat="37.404967" lon="-122.149756">
        <ele>33.4</ele>
        <time>2015-07-19T21:52:33Z</time>
      </trkpt>
      <trkpt lat="37.40496" lon="-122.149652">
        <ele>33.2</ele>
        <time>2015-07-19T21:52:34Z</time>
      </trkpt>
      <trkpt lat="37.404949" lon="-122.149559">
        <ele>33.1</ele>
        <time>2015-07-19T21:52:35Z</time>
      </trkpt>
      <trkpt lat="37.404944" lon="-122.149468">
        <ele>33.1</ele>
        <time>2015-07-19T21:52:36Z</time>
      </trkpt>
      <trkpt lat="37.404917" lon="-122.149389">
        <ele>32.9</ele>
        <time>2015-07-19T21:52:37Z</time>
      </trkpt>
      <trkpt lat="37.404907" lon="-122.149299">
        <ele>32.9</ele>
        <time>2015-07-19T21:52:38Z</time>
      </trkpt>
      <trkpt lat="37.4049" lon="-122.149205">
        <ele>32.8</ele>
        <time>2015-07-19T21:52:39Z</time>
      </trkpt>
      <trkpt lat="37.404883" lon="-122.149128">
        <ele>32.7</ele>
        <time>2015-07-19T21:52:40Z</time>
      </trkpt>
      <trkpt lat="37.404889" lon="-122.149034">
        <ele>32.7</ele>
        <time>2015-07-19T21:52:41Z</time>
      </trkpt>
      <trkpt lat="37.404881" lon="-122.148935">
        <ele>32.7</ele>
        <time>2015-07-19T21:52:42Z</time>
      </trkpt>
      <trkpt lat="37.40485" lon="-122.148848">
        <ele>32.6</ele>
        <time>2015-07-19T21:52:43Z</time>
      </trkpt>
      <trkpt lat="37.404818" lon="-122.148752">
        <ele>32.5</ele>
        <time>2015-07-19T21:52:44Z</time>
      </trkpt>
      <trkpt lat="37.404804" lon="-122.148656">
        <ele>32.3</ele>
        <time>2015-07-19T21:52:45Z</time>
      </trkpt>
      <trkpt lat="37.404791" lon="-122.148569">
        <ele>32.2</ele>
        <time>2015-07-19T21:52:46Z</time>
      </trkpt>
      <trkpt lat="37.404776" lon="-122.148473">
        <ele>32.3</ele>
        <time>2015-07-19T21:52:47Z</time>
      </trkpt>
      <trkpt lat="37.404762" lon="-122.148392">
        <ele>32.1</ele>
        <time>2015-07-19T21:52:48Z</time>
      </trkpt>
      <trkpt lat="37.404745" lon="-122.148296">
        <ele>32</ele>
        <time>2015-07-19T21:52:49Z</time>
      </trkpt>
      <trkpt lat="37.40473" lon="-122.148207">
        <ele>31.9</ele>
        <time>2015-07-19T21:52:50Z</time>
      </trkpt>
      <trkpt lat="37.404716" lon="-122.148126">
        <ele>31.9</ele>
        <time>2015-07-19T21:52:51Z</time>
      </trkpt>
      <trkpt lat="37.4047" lon="-122.14804">
        <ele>31.8</ele>
        <time>2015-07-19T21:52:52Z</time>
      </trkpt>
      <trkpt lat="37.404682" lon="-122.147948">
        <ele>31.7</ele>
        <time>2015-07-19T21:52:53Z</time>
      </trkpt>
      <trkpt lat="37.404667" lon="-122.14787">
        <ele>31.6</ele>
        <time>2015-07-19T21:52:54Z</time>
      </trkpt>
      <trkpt lat="37.40465" lon="-122.147781">
        <ele>31.6</ele>
        <time>2015-07-19T21:52:55Z</time>
      </trkpt>
      <trkpt lat="37.404632" lon="-122.147687">
        <ele>31.5</ele>
        <time>2015-07-19T21:52:56Z</time>
      </trkpt>
      <trkpt lat="37.404613" lon="-122.147596">
        <ele>31.4</ele>
        <time>2015-07-19T21:52:57Z</time>
      </trkpt>
      <trkpt lat="37.404596" lon="-122.147512">
        <ele>31.4</ele>
        <time>2015-07-19T21:52:58Z</time>
      </trkpt>
      <trkpt lat="37.404579" lon="-122.14743">
        <ele>31.3</ele>
        <time>2015-07-19T21:52:59Z</time>
      </trkpt>
      <trkpt lat="37.40456" lon="-122.147341">
        <ele>31.3</ele>
        <time>2015-07-19T21:53:00Z</time>
      </trkpt>
      <trkpt lat="37.40454" lon="-122.147243">
        <ele>31.3</ele>
        <time>2015-07-19T21:53:01Z</time>
      </trkpt>
      <trkpt lat="37.404521" lon="-122.14716">
        <ele>31.2</ele>
        <time>2015-07-19T21:53:02Z</time>
      </trkpt>
      <trkpt lat="37.404503" lon="-122.147078">
        <ele>31.2</ele>
        <time>2015-07-19T21:53:03Z</time>
      </trkpt>
      <trkpt lat="37.404483" lon="-122.146998">
        <ele>31.1</ele>
        <time>2015-07-19T21:53:04Z</time>
      </trkpt>
      <trkpt lat="37.404466" lon="-122.146924">
        <ele>31.1</ele>
        <time>2015-07-19T21:53:05Z</time>
      </trkpt>
      <trkpt lat="37.404444" lon="-122.146835">
        <ele>31</ele>
        <time>2015-07-19T21:53:06Z</time>
      </trkpt>
      <trkpt lat="37.404425" lon="-122.146757">
        <ele>31</ele>
        <time>2015-07-19T21:53:07Z</time>
      </trkpt>
      <trkpt lat="37.404406" lon="-122.146683">
        <ele>31</ele>
        <time>2015-07-19T21:53:08Z</time>
      </trkpt>
      <trkpt lat="37.404391" lon="-122.146627">
        <ele>31.1</ele>
        <time>2015-07-19T21:53:09Z</time>
      </trkpt>
      <trkpt lat="37.404378" lon="-122.146576">
        <ele>30.9</ele>
        <time>2015-07-19T21:53:10Z</time>
      </trkpt>
      <trkpt lat="37.404366" lon="-122.146531">
        <ele>31</ele>
        <time>2015-07-19T21:53:11Z</time>
      </trkpt>
      <trkpt lat="37.404356" lon="-122.146492">
        <ele>30.9</ele>
        <time>2015-07-19T21:53:12Z</time>
      </trkpt>
      <trkpt lat="37.4043" lon="-122.146281">
        <ele>30.8</ele>
        <time>2015-07-19T21:53:21Z</time>
      </trkpt>
      <trkpt lat="37.404266" lon="-122.146259">
        <ele>30.6</ele>
        <time>2015-07-19T21:53:23Z</time>
      </trkpt>
      <trkpt lat="37.404261" lon="-122.146263">
        <ele>30.6</ele>
        <time>2015-07-19T21:53:31Z</time>
      </trkpt>
      <trkpt lat="37.404255" lon="-122.146266">
        <ele>30.6</ele>
        <time>2015-07-19T21:53:35Z</time>
      </trkpt>
      <trkpt lat="37.404249" lon="-122.14627">
        <ele>30.6</ele>
        <time>2015-07-19T21:53:36Z</time>
      </trkpt>
      <trkpt lat="37.404206" lon="-122.146271">
        <ele>30.7</ele>
        <time>2015-07-19T21:53:37Z</time>
      </trkpt>
      <trkpt lat="37.404217" lon="-122.146226">
        <ele>30.5</ele>
        <time>2015-07-19T21:53:38Z</time>
      </trkpt>
      <trkpt lat="37.404211" lon="-122.146168">
        <ele>30.6</ele>
        <time>2015-07-19T21:53:40Z</time>
      </trkpt>
      <trkpt lat="37.404219" lon="-122.14613">
        <ele>30.6</ele>
        <time>2015-07-19T21:53:41Z</time>
      </trkpt>
      <trkpt lat="37.404224" lon="-122.146083">
        <ele>30.7</ele>
        <time>2015-07-19T21:53:42Z</time>
      </trkpt>
      <trkpt lat="37.404219" lon="-122.14599">
        <ele>30.7</ele>
        <time>2015-07-19T21:53:44Z</time>
      </trkpt>
      <trkpt lat="37.404203" lon="-122.14594">
        <ele>30.7</ele>
        <time>2015-07-19T21:53:45Z</time>
      </trkpt>
      <trkpt lat="37.40419" lon="-122.145897">
        <ele>30.7</ele>
        <time>2015-07-19T21:53:46Z</time>
      </trkpt>
      <trkpt lat="37.404174" lon="-122.145844">
        <ele>30.6</ele>
        <time>2015-07-19T21:53:47Z</time>
      </trkpt>
      <trkpt lat="37.404148" lon="-122.145763">
        <ele>30.6</ele>
        <time>2015-07-19T21:53:48Z</time>
      </trkpt>
      <trkpt lat="37.40413" lon="-122.145707">
        <ele>30.5</ele>
        <time>2015-07-19T21:53:49Z</time>
      </trkpt>
      <trkpt lat="37.404114" lon="-122.145659">
        <ele>30.5</ele>
        <time>2015-07-19T21:53:50Z</time>
      </trkpt>
      <trkpt lat="37.404096" lon="-122.145603">
        <ele>30.5</ele>
        <time>2015-07-19T21:53:51Z</time>
      </trkpt>
      <trkpt lat="37.404082" lon="-122.145559">
        <ele>30.6</ele>
        <time>2015-07-19T21:53:52Z</time>
      </trkpt>
      <trkpt lat="37.404064" lon="-122.145504">
        <ele>30.6</ele>
        <time>2015-07-19T21:53:53Z</time>
      </trkpt>
      <trkpt lat="37.404045" lon="-122.145446">
        <ele>30.5</ele>
        <time>2015-07-19T21:53:54Z</time>
      </trkpt>
      <trkpt lat="37.404024" lon="-122.145381">
        <ele>30.6</ele>
        <time>2015-07-19T21:53:55Z</time>
      </trkpt>
      <trkpt lat="37.404006" lon="-122.145322">
        <ele>30.6</ele>
        <time>2015-07-19T21:53:56Z</time>
      </trkpt>
      <trkpt lat="37.403989" lon="-122.145269">
        <ele>30.7</ele>
        <time>2015-07-19T21:53:57Z</time>
      </trkpt>
      <trkpt lat="37.40397" lon="-122.145213">
        <ele>30.8</ele>
        <time>2015-07-19T21:53:58Z</time>
      </trkpt>
      <trkpt lat="37.403954" lon="-122.145166">
        <ele>30.9</ele>
        <time>2015-07-19T21:53:59Z</time>
      </trkpt>
      <trkpt lat="37.403935" lon="-122.14511">
        <ele>31</ele>
        <time>2015-07-19T21:54:00Z</time>
      </trkpt>
      <trkpt lat="37.403922" lon="-122.145072">
        <ele>31.1</ele>
        <time>2015-07-19T21:54:01Z</time>
      </trkpt>
      <trkpt lat="37.403908" lon="-122.145031">
        <ele>31.2</ele>
        <time>2015-07-19T21:54:02Z</time>
      </trkpt>
      <trkpt lat="37.403894" lon="-122.144982">
        <ele>31.4</ele>
        <time>2015-07-19T21:54:04Z</time>
      </trkpt>
      <trkpt lat="37.403885" lon="-122.144913">
        <ele>31.7</ele>
        <time>2015-07-19T21:54:06Z</time>
      </trkpt>
      <trkpt lat="37.403874" lon="-122.144874">
        <ele>31.8</ele>
        <time>2015-07-19T21:54:07Z</time>
      </trkpt>
      <trkpt lat="37.403853" lon="-122.144832">
        <ele>31.9</ele>
        <time>2015-07-19T21:54:08Z</time>
      </trkpt>
      <trkpt lat="37.403837" lon="-122.144791">
        <ele>32</ele>
        <time>2015-07-19T21:54:09Z</time>
      </trkpt>
      <trkpt lat="37.403818" lon="-122.14474">
        <ele>32.1</ele>
        <time>2015-07-19T21:54:10Z</time>
      </trkpt>
      <trkpt lat="37.4038" lon="-122.14469">
        <ele>32.2</ele>
        <time>2015-07-19T21:54:11Z</time>
      </trkpt>
      <trkpt lat="37.403784" lon="-122.144641">
        <ele>32.4</ele>
        <time>2015-07-19T21:54:12Z</time>
      </trkpt>
      <trkpt lat="37.403768" lon="-122.144589">
        <ele>32.5</ele>
        <time>2015-07-19T21:54:13Z</time>
      </trkpt>
      <trkpt lat="37.403757" lon="-122.144542">
        <ele>32.7</ele>
        <time>2015-07-19T21:54:14Z</time>
      </trkpt>
      <trkpt lat="37.403743" lon="-122.144494">
        <ele>32.9</ele>
        <time>2015-07-19T21:54:15Z</time>
      </trkpt>
      <trkpt lat="37.403738" lon="-122.144438">
        <ele>33.1</ele>
        <time>2015-07-19T21:54:16Z</time>
      </trkpt>
      <trkpt lat="37.403718" lon="-122.144388">
        <ele>33.1</ele>
        <time>2015-07-19T21:54:17Z</time>
      </trkpt>
      <trkpt lat="37.403678" lon="-122.144337">
        <ele>33.3</ele>
        <time>2015-07-19T21:54:18Z</time>
      </trkpt>
      <trkpt lat="37.403665" lon="-122.14429">
        <ele>33.5</ele>
        <time>2015-07-19T21:54:19Z</time>
      </trkpt>
      <trkpt lat="37.403655" lon="-122.144236">
        <ele>33.6</ele>
        <time>2015-07-19T21:54:20Z</time>
      </trkpt>
      <trkpt lat="37.403609" lon="-122.144172">
        <ele>33.7</ele>
        <time>2015-07-19T21:54:21Z</time>
      </trkpt>
      <trkpt lat="37.403567" lon="-122.144119">
        <ele>33.7</ele>
        <time>2015-07-19T21:54:22Z</time>
      </trkpt>
      <trkpt lat="37.40355" lon="-122.144082">
        <ele>33.9</ele>
        <time>2015-07-19T21:54:23Z</time>
      </trkpt>
      <trkpt lat="37.403529" lon="-122.14403">
        <ele>33.9</ele>
        <time>2015-07-19T21:54:24Z</time>
      </trkpt>
      <trkpt lat="37.403511" lon="-122.143986">
        <ele>34</ele>
        <time>2015-07-19T21:54:25Z</time>
      </trkpt>
      <trkpt lat="37.403493" lon="-122.143944">
        <ele>34</ele>
        <time>2015-07-19T21:54:26Z</time>
      </trkpt>
      <trkpt lat="37.403476" lon="-122.143902">
        <ele>33.9</ele>
        <time>2015-07-19T21:54:27Z</time>
      </trkpt>
      <trkpt lat="37.403449" lon="-122.143839">
        <ele>34</ele>
        <time>2015-07-19T21:54:29Z</time>
      </trkpt>
      <trkpt lat="37.403434" lon="-122.143804">
        <ele>34.2</ele>
        <time>2015-07-19T21:54:30Z</time>
      </trkpt>
      <trkpt lat="37.403434" lon="-122.143768">
        <ele>34.3</ele>
        <time>2015-07-19T21:54:31Z</time>
      </trkpt>
      <trkpt lat="37.403421" lon="-122.14373">
        <ele>34.2</ele>
        <time>2015-07-19T21:54:32Z</time>
      </trkpt>
      <trkpt lat="37.403409" lon="-122.143688">
        <ele>34.2</ele>
        <time>2015-07-19T21:54:33Z</time>
      </trkpt>
      <trkpt lat="37.403397" lon="-122.14365">
        <ele>34.3</ele>
        <time>2015-07-19T21:54:34Z</time>
      </trkpt>
      <trkpt lat="37.403385" lon="-122.143607">
        <ele>34.3</ele>
        <time>2015-07-19T21:54:35Z</time>
      </trkpt>
      <trkpt lat="37.403373" lon="-122.143566">
        <ele>34.3</ele>
        <time>2015-07-19T21:54:36Z</time>
      </trkpt>
      <trkpt lat="37.403346" lon="-122.143538">
        <ele>34.3</ele>
        <time>2015-07-19T21:54:37Z</time>
      </trkpt>
      <trkpt lat="37.403325" lon="-122.1435">
        <ele>34.2</ele>
        <time>2015-07-19T21:54:38Z</time>
      </trkpt>
      <trkpt lat="37.403294" lon="-122.143471">
        <ele>34.1</ele>
        <time>2015-07-19T21:54:39Z</time>
      </trkpt>
      <trkpt lat="37.403276" lon="-122.143434">
        <ele>34.1</ele>
        <time>2015-07-19T21:54:40Z</time>
      </trkpt>
      <trkpt lat="37.403254" lon="-122.143396">
        <ele>34</ele>
        <time>2015-07-19T21:54:41Z</time>
      </trkpt>
      <trkpt lat="37.403245" lon="-122.143354">
        <ele>34</ele>
        <time>2015-07-19T21:54:42Z</time>
      </trkpt>
      <trkpt lat="37.403231" lon="-122.143312">
        <ele>34</ele>
        <time>2015-07-19T21:54:43Z</time>
      </trkpt>
      <trkpt lat="37.403221" lon="-122.143276">
        <ele>34</ele>
        <time>2015-07-19T21:54:44Z</time>
      </trkpt>
      <trkpt lat="37.403203" lon="-122.143232">
        <ele>34</ele>
        <time>2015-07-19T21:54:45Z</time>
      </trkpt>
      <trkpt lat="37.403194" lon="-122.143181">
        <ele>34</ele>
        <time>2015-07-19T21:54:46Z</time>
      </trkpt>
      <trkpt lat="37.403175" lon="-122.143135">
        <ele>34</ele>
        <time>2015-07-19T21:54:47Z</time>
      </trkpt>
      <trkpt lat="37.403127" lon="-122.143077">
        <ele>33.9</ele>
        <time>2015-07-19T21:54:48Z</time>
      </trkpt>
      <trkpt lat="37.403083" lon="-122.143029">
        <ele>33.7</ele>
        <time>2015-07-19T21:54:49Z</time>
      </trkpt>
      <trkpt lat="37.403046" lon="-122.142952">
        <ele>33.7</ele>
        <time>2015-07-19T21:54:50Z</time>
      </trkpt>
      <trkpt lat="37.403009" lon="-122.142876">
        <ele>33.7</ele>
        <time>2015-07-19T21:54:51Z</time>
      </trkpt>
      <trkpt lat="37.40287" lon="-122.142603">
        <ele>33.4</ele>
        <time>2015-07-19T21:54:55Z</time>
      </trkpt>
      <trkpt lat="37.402845" lon="-122.142554">
        <ele>33.4</ele>
        <time>2015-07-19T21:54:56Z</time>
      </trkpt>
      <trkpt lat="37.402824" lon="-122.142515">
        <ele>33.3</ele>
        <time>2015-07-19T21:54:57Z</time>
      </trkpt>
      <trkpt lat="37.402801" lon="-122.142473">
        <ele>33.3</ele>
        <time>2015-07-19T21:54:59Z</time>
      </trkpt>
      <trkpt lat="37.402775" lon="-122.142424">
        <ele>33.3</ele>
        <time>2015-07-19T21:55:00Z</time>
      </trkpt>
      <trkpt lat="37.402744" lon="-122.142367">
        <ele>33.2</ele>
        <time>2015-07-19T21:55:01Z</time>
      </trkpt>
      <trkpt lat="37.402717" lon="-122.142317">
        <ele>33.1</ele>
        <time>2015-07-19T21:55:02Z</time>
      </trkpt>
      <trkpt lat="37.402594" lon="-122.142097">
        <ele>33</ele>
        <time>2015-07-19T21:55:04Z</time>
      </trkpt>
      <trkpt lat="37.402567" lon="-122.142051">
        <ele>33</ele>
        <time>2015-07-19T21:55:05Z</time>
      </trkpt>
      <trkpt lat="37.402544" lon="-122.14201">
        <ele>32.9</ele>
        <time>2015-07-19T21:55:07Z</time>
      </trkpt>
      <trkpt lat="37.402507" lon="-122.141946">
        <ele>32.9</ele>
        <time>2015-07-19T21:55:08Z</time>
      </trkpt>
      <trkpt lat="37.402467" lon="-122.141876">
        <ele>32.9</ele>
        <time>2015-07-19T21:55:09Z</time>
      </trkpt>
      <trkpt lat="37.402432" lon="-122.141815">
        <ele>32.9</ele>
        <time>2015-07-19T21:55:10Z</time>
      </trkpt>
      <trkpt lat="37.402393" lon="-122.141749">
        <ele>32.7</ele>
        <time>2015-07-19T21:55:11Z</time>
      </trkpt>
      <trkpt lat="37.402352" lon="-122.14168">
        <ele>32.8</ele>
        <time>2015-07-19T21:55:12Z</time>
      </trkpt>
      <trkpt lat="37.402312" lon="-122.141613">
        <ele>32.6</ele>
        <time>2015-07-19T21:55:13Z</time>
      </trkpt>
      <trkpt lat="37.402172" lon="-122.141376">
        <ele>32.4</ele>
        <time>2015-07-19T21:55:15Z</time>
      </trkpt>
      <trkpt lat="37.402145" lon="-122.141332">
        <ele>32.4</ele>
        <time>2015-07-19T21:55:16Z</time>
      </trkpt>
      <trkpt lat="37.402113" lon="-122.141277">
        <ele>32.3</ele>
        <time>2015-07-19T21:55:17Z</time>
      </trkpt>
      <trkpt lat="37.402084" lon="-122.141229">
        <ele>32.3</ele>
        <time>2015-07-19T21:55:18Z</time>
      </trkpt>
      <trkpt lat="37.402043" lon="-122.141159">
        <ele>32.3</ele>
        <time>2015-07-19T21:55:19Z</time>
      </trkpt>
      <trkpt lat="37.402011" lon="-122.141106">
        <ele>32.3</ele>
        <time>2015-07-19T21:55:20Z</time>
      </trkpt>
      <trkpt lat="37.401982" lon="-122.141057">
        <ele>32.2</ele>
        <time>2015-07-19T21:55:21Z</time>
      </trkpt>
      <trkpt lat="37.40195" lon="-122.141002">
        <ele>32.1</ele>
        <time>2015-07-19T21:55:22Z</time>
      </trkpt>
      <trkpt lat="37.401908" lon="-122.140932">
        <ele>32</ele>
        <time>2015-07-19T21:55:23Z</time>
      </trkpt>
      <trkpt lat="37.40187" lon="-122.140868">
        <ele>32</ele>
        <time>2015-07-19T21:55:24Z</time>
      </trkpt>
      <trkpt lat="37.40183" lon="-122.140801">
        <ele>31.9</ele>
        <time>2015-07-19T21:55:25Z</time>
      </trkpt>
      <trkpt lat="37.4018" lon="-122.14075">
        <ele>31.9</ele>
        <time>2015-07-19T21:55:26Z</time>
      </trkpt>
      <trkpt lat="37.401759" lon="-122.140681">
        <ele>31.9</ele>
        <time>2015-07-19T21:55:27Z</time>
      </trkpt>
      <trkpt lat="37.401721" lon="-122.140617">
        <ele>31.8</ele>
        <time>2015-07-19T21:55:28Z</time>
      </trkpt>
      <trkpt lat="37.40168" lon="-122.140547">
        <ele>31.7</ele>
        <time>2015-07-19T21:55:29Z</time>
      </trkpt>
      <trkpt lat="37.401639" lon="-122.140478">
        <ele>31.6</ele>
        <time>2015-07-19T21:55:30Z</time>
      </trkpt>
      <trkpt lat="37.401595" lon="-122.140404">
        <ele>31.6</ele>
        <time>2015-07-19T21:55:31Z</time>
      </trkpt>
      <trkpt lat="37.401554" lon="-122.140336">
        <ele>31.5</ele>
        <time>2015-07-19T21:55:32Z</time>
      </trkpt>
      <trkpt lat="37.401518" lon="-122.140274">
        <ele>31.5</ele>
        <time>2015-07-19T21:55:33Z</time>
      </trkpt>
      <trkpt lat="37.401473" lon="-122.140199">
        <ele>31.4</ele>
        <time>2015-07-19T21:55:34Z</time>
      </trkpt>
      <trkpt lat="37.401444" lon="-122.14015">
        <ele>31.3</ele>
        <time>2015-07-19T21:55:35Z</time>
      </trkpt>
      <trkpt lat="37.401409" lon="-122.140092">
        <ele>31.3</ele>
        <time>2015-07-19T21:55:36Z</time>
      </trkpt>
      <trkpt lat="37.401374" lon="-122.140033">
        <ele>31.3</ele>
        <time>2015-07-19T21:55:37Z</time>
      </trkpt>
      <trkpt lat="37.401326" lon="-122.139953">
        <ele>31.2</ele>
        <time>2015-07-19T21:55:38Z</time>
      </trkpt>
      <trkpt lat="37.401282" lon="-122.13988">
        <ele>31.1</ele>
        <time>2015-07-19T21:55:39Z</time>
      </trkpt>
      <trkpt lat="37.401247" lon="-122.139821">
        <ele>31.1</ele>
        <time>2015-07-19T21:55:40Z</time>
      </trkpt>
      <trkpt lat="37.40121" lon="-122.139759">
        <ele>31</ele>
        <time>2015-07-19T21:55:41Z</time>
      </trkpt>
      <trkpt lat="37.401165" lon="-122.139685">
        <ele>30.9</ele>
        <time>2015-07-19T21:55:42Z</time>
      </trkpt>
      <trkpt lat="37.401129" lon="-122.139625">
        <ele>31</ele>
        <time>2015-07-19T21:55:43Z</time>
      </trkpt>
      <trkpt lat="37.401094" lon="-122.139567">
        <ele>30.9</ele>
        <time>2015-07-19T21:55:44Z</time>
      </trkpt>
      <trkpt lat="37.401059" lon="-122.139508">
        <ele>30.9</ele>
        <time>2015-07-19T21:55:45Z</time>
      </trkpt>
      <trkpt lat="37.40104" lon="-122.139477">
        <ele>30.9</ele>
        <time>2015-07-19T21:55:46Z</time>
      </trkpt>
      <trkpt lat="37.400888" lon="-122.139223">
        <ele>30.6</ele>
        <time>2015-07-19T21:55:50Z</time>
      </trkpt>
      <trkpt lat="37.400851" lon="-122.13916">
        <ele>30.5</ele>
        <time>2015-07-19T21:55:51Z</time>
      </trkpt>
      <trkpt lat="37.400813" lon="-122.139096">
        <ele>30.5</ele>
        <time>2015-07-19T21:55:52Z</time>
      </trkpt>
      <trkpt lat="37.400781" lon="-122.139044">
        <ele>30.4</ele>
        <time>2015-07-19T21:55:53Z</time>
      </trkpt>
      <trkpt lat="37.400741" lon="-122.138976">
        <ele>30.4</ele>
        <time>2015-07-19T21:55:54Z</time>
      </trkpt>
      <trkpt lat="37.400699" lon="-122.138906">
        <ele>30.4</ele>
        <time>2015-07-19T21:55:55Z</time>
      </trkpt>
      <trkpt lat="37.400658" lon="-122.138838">
        <ele>30.3</ele>
        <time>2015-07-19T21:55:56Z</time>
      </trkpt>
      <trkpt lat="37.400624" lon="-122.138781">
        <ele>30.2</ele>
        <time>2015-07-19T21:55:57Z</time>
      </trkpt>
      <trkpt lat="37.400587" lon="-122.13872">
        <ele>30.3</ele>
        <time>2015-07-19T21:55:58Z</time>
      </trkpt>
      <trkpt lat="37.400547" lon="-122.138653">
        <ele>30.2</ele>
        <time>2015-07-19T21:55:59Z</time>
      </trkpt>
      <trkpt lat="37.400507" lon="-122.138588">
        <ele>30.1</ele>
        <time>2015-07-19T21:56:00Z</time>
      </trkpt>
      <trkpt lat="37.400457" lon="-122.138505">
        <ele>30</ele>
        <time>2015-07-19T21:56:01Z</time>
      </trkpt>
      <trkpt lat="37.400394" lon="-122.1384">
        <ele>29.9</ele>
        <time>2015-07-19T21:56:02Z</time>
      </trkpt>
      <trkpt lat="37.400355" lon="-122.138337">
        <ele>29.9</ele>
        <time>2015-07-19T21:56:03Z</time>
      </trkpt>
      <trkpt lat="37.400299" lon="-122.138241">
        <ele>29.8</ele>
        <time>2015-07-19T21:56:04Z</time>
      </trkpt>
      <trkpt lat="37.400254" lon="-122.138166">
        <ele>29.8</ele>
        <time>2015-07-19T21:56:05Z</time>
      </trkpt>
      <trkpt lat="37.40021" lon="-122.138091">
        <ele>29.7</ele>
        <time>2015-07-19T21:56:06Z</time>
      </trkpt>
      <trkpt lat="37.400191" lon="-122.13806">
        <ele>29.7</ele>
        <time>2015-07-19T21:56:07Z</time>
      </trkpt>
      <trkpt lat="37.400142" lon="-122.137977">
        <ele>29.8</ele>
        <time>2015-07-19T21:56:08Z</time>
      </trkpt>
      <trkpt lat="37.400089" lon="-122.137888">
        <ele>30</ele>
        <time>2015-07-19T21:56:09Z</time>
      </trkpt>
      <trkpt lat="37.400048" lon="-122.137819">
        <ele>30.1</ele>
        <time>2015-07-19T21:56:10Z</time>
      </trkpt>
      <trkpt lat="37.400002" lon="-122.137738">
        <ele>30.1</ele>
        <time>2015-07-19T21:56:11Z</time>
      </trkpt>
      <trkpt lat="37.399969" lon="-122.13768">
        <ele>30.3</ele>
        <time>2015-07-19T21:56:12Z</time>
      </trkpt>
      <trkpt lat="37.399928" lon="-122.137609">
        <ele>30.4</ele>
        <time>2015-07-19T21:56:13Z</time>
      </trkpt>
      <trkpt lat="37.399891" lon="-122.137543">
        <ele>30.5</ele>
        <time>2015-07-19T21:56:14Z</time>
      </trkpt>
      <trkpt lat="37.399859" lon="-122.137486">
        <ele>30.6</ele>
        <time>2015-07-19T21:56:15Z</time>
      </trkpt>
      <trkpt lat="37.399831" lon="-122.137432">
        <ele>30.6</ele>
        <time>2015-07-19T21:56:16Z</time>
      </trkpt>
      <trkpt lat="37.399795" lon="-122.137366">
        <ele>30.7</ele>
        <time>2015-07-19T21:56:17Z</time>
      </trkpt>
      <trkpt lat="37.399769" lon="-122.137316">
        <ele>30.7</ele>
        <time>2015-07-19T21:56:18Z</time>
      </trkpt>
      <trkpt lat="37.399743" lon="-122.137265">
        <ele>30.8</ele>
        <time>2015-07-19T21:56:19Z</time>
      </trkpt>
      <trkpt lat="37.399719" lon="-122.137217">
        <ele>30.8</ele>
        <time>2015-07-19T21:56:20Z</time>
      </trkpt>
      <trkpt lat="37.399688" lon="-122.137152">
        <ele>30.8</ele>
        <time>2015-07-19T21:56:21Z</time>
      </trkpt>
      <trkpt lat="37.399658" lon="-122.13709">
        <ele>30.9</ele>
        <time>2015-07-19T21:56:22Z</time>
      </trkpt>
      <trkpt lat="37.399628" lon="-122.137025">
        <ele>30.9</ele>
        <time>2015-07-19T21:56:23Z</time>
      </trkpt>
      <trkpt lat="37.399607" lon="-122.136977">
        <ele>30.9</ele>
        <time>2015-07-19T21:56:24Z</time>
      </trkpt>
      <trkpt lat="37.399572" lon="-122.136899">
        <ele>30.9</ele>
        <time>2015-07-19T21:56:25Z</time>
      </trkpt>
      <trkpt lat="37.399548" lon="-122.136845">
        <ele>31.1</ele>
        <time>2015-07-19T21:56:26Z</time>
      </trkpt>
      <trkpt lat="37.399527" lon="-122.136792">
        <ele>31</ele>
        <time>2015-07-19T21:56:27Z</time>
      </trkpt>
      <trkpt lat="37.399501" lon="-122.136727">
        <ele>31.1</ele>
        <time>2015-07-19T21:56:28Z</time>
      </trkpt>
      <trkpt lat="37.399474" lon="-122.136662">
        <ele>31</ele>
        <time>2015-07-19T21:56:29Z</time>
      </trkpt>
      <trkpt lat="37.399446" lon="-122.136594">
        <ele>31.1</ele>
        <time>2015-07-19T21:56:30Z</time>
      </trkpt>
      <trkpt lat="37.399419" lon="-122.136529">
        <ele>31</ele>
        <time>2015-07-19T21:56:31Z</time>
      </trkpt>
      <trkpt lat="37.3994" lon="-122.136478">
        <ele>31</ele>
        <time>2015-07-19T21:56:32Z</time>
      </trkpt>
      <trkpt lat="37.399379" lon="-122.136425">
        <ele>31.1</ele>
        <time>2015-07-19T21:56:33Z</time>
      </trkpt>
      <trkpt lat="37.399359" lon="-122.136372">
        <ele>30.9</ele>
        <time>2015-07-19T21:56:34Z</time>
      </trkpt>
      <trkpt lat="37.399336" lon="-122.136313">
        <ele>31.1</ele>
        <time>2015-07-19T21:56:35Z</time>
      </trkpt>
      <trkpt lat="37.399316" lon="-122.136262">
        <ele>31.1</ele>
        <time>2015-07-19T21:56:36Z</time>
      </trkpt>
      <trkpt lat="37.399294" lon="-122.136202">
        <ele>31.1</ele>
        <time>2015-07-19T21:56:37Z</time>
      </trkpt>
      <trkpt lat="37.399271" lon="-122.136144">
        <ele>31.2</ele>
        <time>2015-07-19T21:56:38Z</time>
      </trkpt>
      <trkpt lat="37.399247" lon="-122.136081">
        <ele>31.2</ele>
        <time>2015-07-19T21:56:39Z</time>
      </trkpt>
      <trkpt lat="37.399223" lon="-122.136018">
        <ele>31.2</ele>
        <time>2015-07-19T21:56:40Z</time>
      </trkpt>
      <trkpt lat="37.399201" lon="-122.135961">
        <ele>31.2</ele>
        <time>2015-07-19T21:56:41Z</time>
      </trkpt>
      <trkpt lat="37.399177" lon="-122.135899">
        <ele>31.2</ele>
        <time>2015-07-19T21:56:42Z</time>
      </trkpt>
      <trkpt lat="37.399157" lon="-122.135845">
        <ele>31.2</ele>
        <time>2015-07-19T21:56:43Z</time>
      </trkpt>
      <trkpt lat="37.399136" lon="-122.135792">
        <ele>31.3</ele>
        <time>2015-07-19T21:56:44Z</time>
      </trkpt>
      <trkpt lat="37.399116" lon="-122.13574">
        <ele>31.3</ele>
        <time>2015-07-19T21:56:45Z</time>
      </trkpt>
      <trkpt lat="37.399107" lon="-122.135691">
        <ele>31.3</ele>
        <time>2015-07-19T21:56:46Z</time>
      </trkpt>
      <trkpt lat="37.399079" lon="-122.135635">
        <ele>31.4</ele>
        <time>2015-07-19T21:56:47Z</time>
      </trkpt>
      <trkpt lat="37.399011" lon="-122.135436">
        <ele>31.5</ele>
        <time>2015-07-19T21:56:51Z</time>
      </trkpt>
      <trkpt lat="37.399" lon="-122.135393">
        <ele>31.5</ele>
        <time>2015-07-19T21:56:52Z</time>
      </trkpt>
      <trkpt lat="37.398979" lon="-122.135349">
        <ele>31.5</ele>
        <time>2015-07-19T21:56:53Z</time>
      </trkpt>
      <trkpt lat="37.398961" lon="-122.13531">
        <ele>31.6</ele>
        <time>2015-07-19T21:56:54Z</time>
      </trkpt>
      <trkpt lat="37.398942" lon="-122.135273">
        <ele>31.6</ele>
        <time>2015-07-19T21:56:55Z</time>
      </trkpt>
      <trkpt lat="37.398925" lon="-122.135235">
        <ele>31.7</ele>
        <time>2015-07-19T21:56:56Z</time>
      </trkpt>
      <trkpt lat="37.398911" lon="-122.1352">
        <ele>31.7</ele>
        <time>2015-07-19T21:56:57Z</time>
      </trkpt>
      <trkpt lat="37.3989" lon="-122.135169">
        <ele>31.7</ele>
        <time>2015-07-19T21:56:58Z</time>
      </trkpt>
      <trkpt lat="37.398878" lon="-122.135112">
        <ele>31.7</ele>
        <time>2015-07-19T21:57:00Z</time>
      </trkpt>
      <trkpt lat="37.398866" lon="-122.135079">
        <ele>31.8</ele>
        <time>2015-07-19T21:57:02Z</time>
      </trkpt>
      <trkpt lat="37.398854" lon="-122.135049">
        <ele>31.8</ele>
        <time>2015-07-19T21:57:28Z</time>
      </trkpt>
      <trkpt lat="37.398841" lon="-122.135015">
        <ele>31.8</ele>
        <time>2015-07-19T21:57:29Z</time>
      </trkpt>
      <trkpt lat="37.398828" lon="-122.134981">
        <ele>31.9</ele>
        <time>2015-07-19T21:57:30Z</time>
      </trkpt>
      <trkpt lat="37.398811" lon="-122.134936">
        <ele>32</ele>
        <time>2015-07-19T21:57:31Z</time>
      </trkpt>
      <trkpt lat="37.398797" lon="-122.134897">
        <ele>32</ele>
        <time>2015-07-19T21:57:32Z</time>
      </trkpt>
      <trkpt lat="37.398755" lon="-122.134794">
        <ele>32.2</ele>
        <time>2015-07-19T21:57:34Z</time>
      </trkpt>
      <trkpt lat="37.398734" lon="-122.134742">
        <ele>32.2</ele>
        <time>2015-07-19T21:57:35Z</time>
      </trkpt>
      <trkpt lat="37.39872" lon="-122.134706">
        <ele>32.2</ele>
        <time>2015-07-19T21:57:36Z</time>
      </trkpt>
      <trkpt lat="37.398679" lon="-122.134624">
        <ele>32.3</ele>
        <time>2015-07-19T21:57:37Z</time>
      </trkpt>
      <trkpt lat="37.398655" lon="-122.134576">
        <ele>32.4</ele>
        <time>2015-07-19T21:57:38Z</time>
      </trkpt>
      <trkpt lat="37.398619" lon="-122.134504">
        <ele>32.5</ele>
        <time>2015-07-19T21:57:39Z</time>
      </trkpt>
      <trkpt lat="37.398603" lon="-122.134473">
        <ele>32.5</ele>
        <time>2015-07-19T21:57:40Z</time>
      </trkpt>
      <trkpt lat="37.398576" lon="-122.134421">
        <ele>32.6</ele>
        <time>2015-07-19T21:57:41Z</time>
      </trkpt>
      <trkpt lat="37.39855" lon="-122.134375">
        <ele>32.7</ele>
        <time>2015-07-19T21:57:42Z</time>
      </trkpt>
      <trkpt lat="37.398521" lon="-122.134326">
        <ele>32.7</ele>
        <time>2015-07-19T21:57:43Z</time>
      </trkpt>
      <trkpt lat="37.398492" lon="-122.134275">
        <ele>32.8</ele>
        <time>2015-07-19T21:57:44Z</time>
      </trkpt>
      <trkpt lat="37.398456" lon="-122.134213">
        <ele>32.8</ele>
        <time>2015-07-19T21:57:45Z</time>
      </trkpt>
      <trkpt lat="37.398421" lon="-122.134152">
        <ele>32.8</ele>
        <time>2015-07-19T21:57:46Z</time>
      </trkpt>
      <trkpt lat="37.398396" lon="-122.134109">
        <ele>32.9</ele>
        <time>2015-07-19T21:57:47Z</time>
      </trkpt>
      <trkpt lat="37.398366" lon="-122.134063">
        <ele>33</ele>
        <time>2015-07-19T21:57:48Z</time>
      </trkpt>
      <trkpt lat="37.398319" lon="-122.133993">
        <ele>33</ele>
        <time>2015-07-19T21:57:49Z</time>
      </trkpt>
      <trkpt lat="37.398272" lon="-122.133924">
        <ele>33.2</ele>
        <time>2015-07-19T21:57:50Z</time>
      </trkpt>
      <trkpt lat="37.398232" lon="-122.133868">
        <ele>33.3</ele>
        <time>2015-07-19T21:57:51Z</time>
      </trkpt>
      <trkpt lat="37.398208" lon="-122.133834">
        <ele>33.3</ele>
        <time>2015-07-19T21:57:52Z</time>
      </trkpt>
      <trkpt lat="37.398174" lon="-122.133788">
        <ele>33.4</ele>
        <time>2015-07-19T21:57:53Z</time>
      </trkpt>
      <trkpt lat="37.39814" lon="-122.133741">
        <ele>33.5</ele>
        <time>2015-07-19T21:57:54Z</time>
      </trkpt>
      <trkpt lat="37.398108" lon="-122.133698">
        <ele>33.5</ele>
        <time>2015-07-19T21:57:55Z</time>
      </trkpt>
      <trkpt lat="37.398073" lon="-122.133651">
        <ele>33.6</ele>
        <time>2015-07-19T21:57:56Z</time>
      </trkpt>
      <trkpt lat="37.398047" lon="-122.133616">
        <ele>33.6</ele>
        <time>2015-07-19T21:57:57Z</time>
      </trkpt>
      <trkpt lat="37.398015" lon="-122.133579">
        <ele>33.7</ele>
        <time>2015-07-19T21:57:58Z</time>
      </trkpt>
      <trkpt lat="37.397979" lon="-122.133536">
        <ele>33.8</ele>
        <time>2015-07-19T21:57:59Z</time>
      </trkpt>
      <trkpt lat="37.397927" lon="-122.133475">
        <ele>33.9</ele>
        <time>2015-07-19T21:58:00Z</time>
      </trkpt>
      <trkpt lat="37.39789" lon="-122.133433">
        <ele>33.9</ele>
        <time>2015-07-19T21:58:01Z</time>
      </trkpt>
      <trkpt lat="37.397859" lon="-122.1334">
        <ele>34</ele>
        <time>2015-07-19T21:58:02Z</time>
      </trkpt>
      <trkpt lat="37.397829" lon="-122.133369">
        <ele>34</ele>
        <time>2015-07-19T21:58:03Z</time>
      </trkpt>
      <trkpt lat="37.397793" lon="-122.133332">
        <ele>34.1</ele>
        <time>2015-07-19T21:58:04Z</time>
      </trkpt>
      <trkpt lat="37.397817" lon="-122.133357">
        <ele>34.1</ele>
        <time>2015-07-19T21:58:05Z</time>
      </trkpt>
      <trkpt lat="37.397786" lon="-122.133325">
        <ele>34.1</ele>
        <time>2015-07-19T21:58:06Z</time>
      </trkpt>
      <trkpt lat="37.397751" lon="-122.133289">
        <ele>34.2</ele>
        <time>2015-07-19T21:58:07Z</time>
      </trkpt>
      <trkpt lat="37.397722" lon="-122.133263">
        <ele>34.3</ele>
        <time>2015-07-19T21:58:08Z</time>
      </trkpt>
      <trkpt lat="37.397625" lon="-122.133175">
        <ele>34.4</ele>
        <time>2015-07-19T21:58:09Z</time>
      </trkpt>
      <trkpt lat="37.397593" lon="-122.133148">
        <ele>34.5</ele>
        <time>2015-07-19T21:58:10Z</time>
      </trkpt>
      <trkpt lat="37.397561" lon="-122.133121">
        <ele>34.5</ele>
        <time>2015-07-19T21:58:11Z</time>
      </trkpt>
      <trkpt lat="37.397589" lon="-122.133144">
        <ele>34.5</ele>
        <time>2015-07-19T21:58:12Z</time>
      </trkpt>
      <trkpt lat="37.397557" lon="-122.133118">
        <ele>34.5</ele>
        <time>2015-07-19T21:58:13Z</time>
      </trkpt>
      <trkpt lat="37.397504" lon="-122.133076">
        <ele>34.6</ele>
        <time>2015-07-19T21:58:15Z</time>
      </trkpt>
      <trkpt lat="37.397473" lon="-122.133052">
        <ele>34.7</ele>
        <time>2015-07-19T21:58:16Z</time>
      </trkpt>
      <trkpt lat="37.397438" lon="-122.133025">
        <ele>34.7</ele>
        <time>2015-07-19T21:58:17Z</time>
      </trkpt>
      <trkpt lat="37.397408" lon="-122.133002">
        <ele>34.8</ele>
        <time>2015-07-19T21:58:18Z</time>
      </trkpt>
      <trkpt lat="37.397366" lon="-122.13297">
        <ele>34.8</ele>
        <time>2015-07-19T21:58:19Z</time>
      </trkpt>
      <trkpt lat="37.397327" lon="-122.132941">
        <ele>34.9</ele>
        <time>2015-07-19T21:58:20Z</time>
      </trkpt>
      <trkpt lat="37.397289" lon="-122.132913">
        <ele>35.2</ele>
        <time>2015-07-19T21:58:21Z</time>
      </trkpt>
      <trkpt lat="37.39725" lon="-122.132884">
        <ele>35.1</ele>
        <time>2015-07-19T21:58:22Z</time>
      </trkpt>
      <trkpt lat="37.397209" lon="-122.132853">
        <ele>35.3</ele>
        <time>2015-07-19T21:58:23Z</time>
      </trkpt>
      <trkpt lat="37.397167" lon="-122.132822">
        <ele>35.2</ele>
        <time>2015-07-19T21:58:24Z</time>
      </trkpt>
      <trkpt lat="37.39713" lon="-122.132794">
        <ele>35.2</ele>
        <time>2015-07-19T21:58:25Z</time>
      </trkpt>
      <trkpt lat="37.3971" lon="-122.132771">
        <ele>35.3</ele>
        <time>2015-07-19T21:58:26Z</time>
      </trkpt>
      <trkpt lat="37.397068" lon="-122.132747">
        <ele>35.4</ele>
        <time>2015-07-19T21:58:27Z</time>
      </trkpt>
      <trkpt lat="37.397036" lon="-122.132724">
        <ele>35.4</ele>
        <time>2015-07-19T21:58:28Z</time>
      </trkpt>
      <trkpt lat="37.397" lon="-122.132697">
        <ele>35.4</ele>
        <time>2015-07-19T21:58:29Z</time>
      </trkpt>
      <trkpt lat="37.396956" lon="-122.132664">
        <ele>35.6</ele>
        <time>2015-07-19T21:58:30Z</time>
      </trkpt>
      <trkpt lat="37.396902" lon="-122.132625">
        <ele>35.6</ele>
        <time>2015-07-19T21:58:31Z</time>
      </trkpt>
      <trkpt lat="37.396859" lon="-122.132593">
        <ele>35.7</ele>
        <time>2015-07-19T21:58:32Z</time>
      </trkpt>
      <trkpt lat="37.39682" lon="-122.132564">
        <ele>35.7</ele>
        <time>2015-07-19T21:58:33Z</time>
      </trkpt>
      <trkpt lat="37.396769" lon="-122.132527">
        <ele>35.8</ele>
        <time>2015-07-19T21:58:34Z</time>
      </trkpt>
      <trkpt lat="37.396736" lon="-122.132503">
        <ele>35.8</ele>
        <time>2015-07-19T21:58:35Z</time>
      </trkpt>
      <trkpt lat="37.396708" lon="-122.132482">
        <ele>35.9</ele>
        <time>2015-07-19T21:58:36Z</time>
      </trkpt>
      <trkpt lat="37.396668" lon="-122.132452">
        <ele>36</ele>
        <time>2015-07-19T21:58:37Z</time>
      </trkpt>
      <trkpt lat="37.396623" lon="-122.132419">
        <ele>36.1</ele>
        <time>2015-07-19T21:58:38Z</time>
      </trkpt>
      <trkpt lat="37.396591" lon="-122.132396">
        <ele>36.1</ele>
        <time>2015-07-19T21:58:39Z</time>
      </trkpt>
      <trkpt lat="37.39656" lon="-122.132374">
        <ele>36.2</ele>
        <time>2015-07-19T21:58:40Z</time>
      </trkpt>
      <trkpt lat="37.396507" lon="-122.132334">
        <ele>36.2</ele>
        <time>2015-07-19T21:58:42Z</time>
      </trkpt>
      <trkpt lat="37.396472" lon="-122.132308">
        <ele>36.3</ele>
        <time>2015-07-19T21:58:43Z</time>
      </trkpt>
      <trkpt lat="37.396433" lon="-122.13228">
        <ele>36.4</ele>
        <time>2015-07-19T21:58:44Z</time>
      </trkpt>
      <trkpt lat="37.396388" lon="-122.132247">
        <ele>36.5</ele>
        <time>2015-07-19T21:58:45Z</time>
      </trkpt>
      <trkpt lat="37.396361" lon="-122.132227">
        <ele>36.5</ele>
        <time>2015-07-19T21:58:46Z</time>
      </trkpt>
      <trkpt lat="37.396322" lon="-122.132198">
        <ele>36.6</ele>
        <time>2015-07-19T21:58:47Z</time>
      </trkpt>
      <trkpt lat="37.396274" lon="-122.132164">
        <ele>36.7</ele>
        <time>2015-07-19T21:58:48Z</time>
      </trkpt>
      <trkpt lat="37.396241" lon="-122.13214">
        <ele>36.7</ele>
        <time>2015-07-19T21:58:49Z</time>
      </trkpt>
      <trkpt lat="37.396199" lon="-122.13211">
        <ele>36.8</ele>
        <time>2015-07-19T21:58:50Z</time>
      </trkpt>
      <trkpt lat="37.396169" lon="-122.132088">
        <ele>36.9</ele>
        <time>2015-07-19T21:58:51Z</time>
      </trkpt>
      <trkpt lat="37.39614" lon="-122.132067">
        <ele>36.9</ele>
        <time>2015-07-19T21:58:52Z</time>
      </trkpt>
      <trkpt lat="37.396103" lon="-122.132041">
        <ele>37.1</ele>
        <time>2015-07-19T21:58:53Z</time>
      </trkpt>
      <trkpt lat="37.396065" lon="-122.132013">
        <ele>37.2</ele>
        <time>2015-07-19T21:58:54Z</time>
      </trkpt>
      <trkpt lat="37.39601" lon="-122.131972">
        <ele>37.1</ele>
        <time>2015-07-19T21:58:56Z</time>
      </trkpt>
      <trkpt lat="37.395919" lon="-122.131905">
        <ele>37.2</ele>
        <time>2015-07-19T21:58:58Z</time>
      </trkpt>
      <trkpt lat="37.395871" lon="-122.131869">
        <ele>37.3</ele>
        <time>2015-07-19T21:58:59Z</time>
      </trkpt>
      <trkpt lat="37.395823" lon="-122.131834">
        <ele>37.4</ele>
        <time>2015-07-19T21:59:00Z</time>
      </trkpt>
      <trkpt lat="37.395784" lon="-122.131805">
        <ele>37.4</ele>
        <time>2015-07-19T21:59:01Z</time>
      </trkpt>
      <trkpt lat="37.395732" lon="-122.131767">
        <ele>37.7</ele>
        <time>2015-07-19T21:59:02Z</time>
      </trkpt>
      <trkpt lat="37.395685" lon="-122.131732">
        <ele>37.7</ele>
        <time>2015-07-19T21:59:03Z</time>
      </trkpt>
      <trkpt lat="37.395635" lon="-122.131695">
        <ele>37.7</ele>
        <time>2015-07-19T21:59:04Z</time>
      </trkpt>
      <trkpt lat="37.395573" lon="-122.131651">
        <ele>37.8</ele>
        <time>2015-07-19T21:59:06Z</time>
      </trkpt>
      <trkpt lat="37.39552" lon="-122.131613">
        <ele>37.9</ele>
        <time>2015-07-19T21:59:07Z</time>
      </trkpt>
      <trkpt lat="37.395486" lon="-122.131589">
        <ele>37.9</ele>
        <time>2015-07-19T21:59:08Z</time>
      </trkpt>
      <trkpt lat="37.395429" lon="-122.131548">
        <ele>38.1</ele>
        <time>2015-07-19T21:59:09Z</time>
      </trkpt>
      <trkpt lat="37.395462" lon="-122.131572">
        <ele>38</ele>
        <time>2015-07-19T21:59:10Z</time>
      </trkpt>
      <trkpt lat="37.395409" lon="-122.131534">
        <ele>38.1</ele>
        <time>2015-07-19T21:59:11Z</time>
      </trkpt>
      <trkpt lat="37.395362" lon="-122.131502">
        <ele>38.2</ele>
        <time>2015-07-19T21:59:12Z</time>
      </trkpt>
      <trkpt lat="37.395326" lon="-122.131478">
        <ele>38.4</ele>
        <time>2015-07-19T21:59:13Z</time>
      </trkpt>
      <trkpt lat="37.395238" lon="-122.13142">
        <ele>38.5</ele>
        <time>2015-07-19T21:59:14Z</time>
      </trkpt>
      <trkpt lat="37.395188" lon="-122.131387">
        <ele>38.5</ele>
        <time>2015-07-19T21:59:15Z</time>
      </trkpt>
      <trkpt lat="37.395152" lon="-122.131363">
        <ele>38.6</ele>
        <time>2015-07-19T21:59:16Z</time>
      </trkpt>
      <trkpt lat="37.395111" lon="-122.131336">
        <ele>38.6</ele>
        <time>2015-07-19T21:59:18Z</time>
      </trkpt>
      <trkpt lat="37.395082" lon="-122.131317">
        <ele>38.6</ele>
        <time>2015-07-19T21:59:19Z</time>
      </trkpt>
      <trkpt lat="37.395054" lon="-122.131298">
        <ele>38.7</ele>
        <time>2015-07-19T21:59:20Z</time>
      </trkpt>
      <trkpt lat="37.39503" lon="-122.131282">
        <ele>38.7</ele>
        <time>2015-07-19T21:59:21Z</time>
      </trkpt>
      <trkpt lat="37.394997" lon="-122.13126">
        <ele>38.8</ele>
        <time>2015-07-19T21:59:23Z</time>
      </trkpt>
      <trkpt lat="37.394975" lon="-122.13125">
        <ele>38.8</ele>
        <time>2015-07-19T21:59:25Z</time>
      </trkpt>
      <trkpt lat="37.394982" lon="-122.13126">
        <ele>38.9</ele>
        <time>2015-07-19T21:59:34Z</time>
      </trkpt>
      <trkpt lat="37.394989" lon="-122.131269">
        <ele>38.9</ele>
        <time>2015-07-19T21:59:35Z</time>
      </trkpt>
      <trkpt lat="37.39493" lon="-122.13123">
        <ele>39</ele>
        <time>2015-07-19T21:59:36Z</time>
      </trkpt>
      <trkpt lat="37.394988" lon="-122.131268">
        <ele>38.9</ele>
        <time>2015-07-19T21:59:37Z</time>
      </trkpt>
      <trkpt lat="37.394942" lon="-122.131224">
        <ele>38.9</ele>
        <time>2015-07-19T21:59:43Z</time>
      </trkpt>
      <trkpt lat="37.394979" lon="-122.131248">
        <ele>38.8</ele>
        <time>2015-07-19T21:59:54Z</time>
      </trkpt>
      <trkpt lat="37.394951" lon="-122.13123">
        <ele>38.9</ele>
        <time>2015-07-19T21:59:55Z</time>
      </trkpt>
      <trkpt lat="37.39501" lon="-122.13127">
        <ele>38.8</ele>
        <time>2015-07-19T21:59:58Z</time>
      </trkpt>
      <trkpt lat="37.395036" lon="-122.131286">
        <ele>38.7</ele>
        <time>2015-07-19T22:00:01Z</time>
      </trkpt>
      <trkpt lat="37.395061" lon="-122.131303">
        <ele>38.7</ele>
        <time>2015-07-19T22:00:03Z</time>
      </trkpt>
      <trkpt lat="37.395087" lon="-122.13132">
        <ele>38.6</ele>
        <time>2015-07-19T22:00:04Z</time>
      </trkpt>
      <trkpt lat="37.39505" lon="-122.131295">
        <ele>38.7</ele>
        <time>2015-07-19T22:00:05Z</time>
      </trkpt>
      <trkpt lat="37.395084" lon="-122.131318">
        <ele>38.6</ele>
        <time>2015-07-19T22:00:08Z</time>
      </trkpt>
      <trkpt lat="37.39506" lon="-122.131302">
        <ele>38.7</ele>
        <time>2015-07-19T22:00:17Z</time>
      </trkpt>
      <trkpt lat="37.395018" lon="-122.131274">
        <ele>38.8</ele>
        <time>2015-07-19T22:00:45Z</time>
      </trkpt>
      <trkpt lat="37.394993" lon="-122.131258">
        <ele>38.8</ele>
        <time>2015-07-19T22:00:49Z</time>
      </trkpt>
      <trkpt lat="37.394963" lon="-122.131238">
        <ele>38.9</ele>
        <time>2015-07-19T22:00:51Z</time>
      </trkpt>
      <trkpt lat="37.394927" lon="-122.131215">
        <ele>38.9</ele>
        <time>2015-07-19T22:00:53Z</time>
      </trkpt>
      <trkpt lat="37.394864" lon="-122.131174">
        <ele>39</ele>
        <time>2015-07-19T22:00:55Z</time>
      </trkpt>
      <trkpt lat="37.394828" lon="-122.13115">
        <ele>39.1</ele>
        <time>2015-07-19T22:00:56Z</time>
      </trkpt>
      <trkpt lat="37.394789" lon="-122.131124">
        <ele>39.1</ele>
        <time>2015-07-19T22:00:57Z</time>
      </trkpt>
      <trkpt lat="37.394746" lon="-122.131096">
        <ele>39.1</ele>
        <time>2015-07-19T22:00:58Z</time>
      </trkpt>
      <trkpt lat="37.394703" lon="-122.131068">
        <ele>39.2</ele>
        <time>2015-07-19T22:00:59Z</time>
      </trkpt>
      <trkpt lat="37.394652" lon="-122.131035">
        <ele>39.6</ele>
        <time>2015-07-19T22:01:00Z</time>
      </trkpt>
      <trkpt lat="37.394611" lon="-122.131008">
        <ele>39.7</ele>
        <time>2015-07-19T22:01:01Z</time>
      </trkpt>
      <trkpt lat="37.394576" lon="-122.130985">
        <ele>39.6</ele>
        <time>2015-07-19T22:01:02Z</time>
      </trkpt>
      <trkpt lat="37.39452" lon="-122.130949">
        <ele>39.6</ele>
        <time>2015-07-19T22:01:03Z</time>
      </trkpt>
      <trkpt lat="37.394464" lon="-122.130912">
        <ele>39.8</ele>
        <time>2015-07-19T22:01:04Z</time>
      </trkpt>
      <trkpt lat="37.394429" lon="-122.130889">
        <ele>39.8</ele>
        <time>2015-07-19T22:01:05Z</time>
      </trkpt>
      <trkpt lat="37.394391" lon="-122.130864">
        <ele>39.9</ele>
        <time>2015-07-19T22:01:06Z</time>
      </trkpt>
      <trkpt lat="37.394364" lon="-122.130847">
        <ele>39.8</ele>
        <time>2015-07-19T22:01:07Z</time>
      </trkpt>
      <trkpt lat="37.394318" lon="-122.130817">
        <ele>39.8</ele>
        <time>2015-07-19T22:01:08Z</time>
      </trkpt>
      <trkpt lat="37.394273" lon="-122.130787">
        <ele>40</ele>
        <time>2015-07-19T22:01:09Z</time>
      </trkpt>
      <trkpt lat="37.394241" lon="-122.130767">
        <ele>40.1</ele>
        <time>2015-07-19T22:01:10Z</time>
      </trkpt>
      <trkpt lat="37.394213" lon="-122.130748">
        <ele>40.2</ele>
        <time>2015-07-19T22:01:11Z</time>
      </trkpt>
      <trkpt lat="37.394169" lon="-122.130719">
        <ele>40.2</ele>
        <time>2015-07-19T22:01:12Z</time>
      </trkpt>
      <trkpt lat="37.394134" lon="-122.130696">
        <ele>40.3</ele>
        <time>2015-07-19T22:01:13Z</time>
      </trkpt>
      <trkpt lat="37.394097" lon="-122.130673">
        <ele>40.3</ele>
        <time>2015-07-19T22:01:14Z</time>
      </trkpt>
      <trkpt lat="37.394062" lon="-122.130649">
        <ele>40.4</ele>
        <time>2015-07-19T22:01:15Z</time>
      </trkpt>
      <trkpt lat="37.394024" lon="-122.130625">
        <ele>40.5</ele>
        <time>2015-07-19T22:01:16Z</time>
      </trkpt>
      <trkpt lat="37.393965" lon="-122.130587">
        <ele>40.6</ele>
        <time>2015-07-19T22:01:17Z</time>
      </trkpt>
      <trkpt lat="37.393918" lon="-122.130556">
        <ele>40.5</ele>
        <time>2015-07-19T22:01:18Z</time>
      </trkpt>
      <trkpt lat="37.393878" lon="-122.13053">
        <ele>40.6</ele>
        <time>2015-07-19T22:01:19Z</time>
      </trkpt>
      <trkpt lat="37.39384" lon="-122.130505">
        <ele>40.7</ele>
        <time>2015-07-19T22:01:20Z</time>
      </trkpt>
      <trkpt lat="37.393773" lon="-122.130462">
        <ele>40.8</ele>
        <time>2015-07-19T22:01:21Z</time>
      </trkpt>
      <trkpt lat="37.393719" lon="-122.130426">
        <ele>40.8</ele>
        <time>2015-07-19T22:01:22Z</time>
      </trkpt>
      <trkpt lat="37.39367" lon="-122.130394">
        <ele>40.8</ele>
        <time>2015-07-19T22:01:23Z</time>
      </trkpt>
      <trkpt lat="37.393604" lon="-122.130351">
        <ele>40.8</ele>
        <time>2015-07-19T22:01:24Z</time>
      </trkpt>
      <trkpt lat="37.393524" lon="-122.130298">
        <ele>40.8</ele>
        <time>2015-07-19T22:01:25Z</time>
      </trkpt>
      <trkpt lat="37.393489" lon="-122.130275">
        <ele>41</ele>
        <time>2015-07-19T22:01:26Z</time>
      </trkpt>
      <trkpt lat="37.393439" lon="-122.130241">
        <ele>40.9</ele>
        <time>2015-07-19T22:01:27Z</time>
      </trkpt>
      <trkpt lat="37.393395" lon="-122.130212">
        <ele>41</ele>
        <time>2015-07-19T22:01:28Z</time>
      </trkpt>
      <trkpt lat="37.393323" lon="-122.130166">
        <ele>40.9</ele>
        <time>2015-07-19T22:01:29Z</time>
      </trkpt>
      <trkpt lat="37.393258" lon="-122.130124">
        <ele>41</ele>
        <time>2015-07-19T22:01:31Z</time>
      </trkpt>
      <trkpt lat="37.393197" lon="-122.130083">
        <ele>40.9</ele>
        <time>2015-07-19T22:01:32Z</time>
      </trkpt>
      <trkpt lat="37.393156" lon="-122.130057">
        <ele>40.9</ele>
        <time>2015-07-19T22:01:33Z</time>
      </trkpt>
      <trkpt lat="37.39312" lon="-122.130034">
        <ele>40.9</ele>
        <time>2015-07-19T22:01:34Z</time>
      </trkpt>
      <trkpt lat="37.393067" lon="-122.129999">
        <ele>41</ele>
        <time>2015-07-19T22:01:35Z</time>
      </trkpt>
      <trkpt lat="37.393017" lon="-122.129967">
        <ele>40.9</ele>
        <time>2015-07-19T22:01:37Z</time>
      </trkpt>
      <trkpt lat="37.392976" lon="-122.12994">
        <ele>40.9</ele>
        <time>2015-07-19T22:01:38Z</time>
      </trkpt>
      <trkpt lat="37.392932" lon="-122.129911">
        <ele>40.9</ele>
        <time>2015-07-19T22:01:39Z</time>
      </trkpt>
      <trkpt lat="37.392897" lon="-122.129889">
        <ele>41</ele>
        <time>2015-07-19T22:01:40Z</time>
      </trkpt>
      <trkpt lat="37.392857" lon="-122.129862">
        <ele>41</ele>
        <time>2015-07-19T22:01:41Z</time>
      </trkpt>
      <trkpt lat="37.392809" lon="-122.129831">
        <ele>41</ele>
        <time>2015-07-19T22:01:42Z</time>
      </trkpt>
      <trkpt lat="37.392765" lon="-122.129803">
        <ele>41</ele>
        <time>2015-07-19T22:01:43Z</time>
      </trkpt>
      <trkpt lat="37.392727" lon="-122.129778">
        <ele>41</ele>
        <time>2015-07-19T22:01:44Z</time>
      </trkpt>
      <trkpt lat="37.392679" lon="-122.129746">
        <ele>41</ele>
        <time>2015-07-19T22:01:45Z</time>
      </trkpt>
      <trkpt lat="37.392652" lon="-122.129729">
        <ele>41.1</ele>
        <time>2015-07-19T22:01:46Z</time>
      </trkpt>
      <trkpt lat="37.392591" lon="-122.129689">
        <ele>41.1</ele>
        <time>2015-07-19T22:01:47Z</time>
      </trkpt>
      <trkpt lat="37.39254" lon="-122.129656">
        <ele>41.1</ele>
        <time>2015-07-19T22:01:48Z</time>
      </trkpt>
      <trkpt lat="37.392478" lon="-122.129616">
        <ele>41.2</ele>
        <time>2015-07-19T22:01:50Z</time>
      </trkpt>
      <trkpt lat="37.39244" lon="-122.129591">
        <ele>41.1</ele>
        <time>2015-07-19T22:01:51Z</time>
      </trkpt>
      <trkpt lat="37.392392" lon="-122.12956">
        <ele>41.1</ele>
        <time>2015-07-19T22:01:52Z</time>
      </trkpt>
      <trkpt lat="37.392351" lon="-122.129533">
        <ele>41.1</ele>
        <time>2015-07-19T22:01:53Z</time>
      </trkpt>
      <trkpt lat="37.392304" lon="-122.129502">
        <ele>41.1</ele>
        <time>2015-07-19T22:01:54Z</time>
      </trkpt>
      <trkpt lat="37.392239" lon="-122.12946">
        <ele>41.2</ele>
        <time>2015-07-19T22:01:55Z</time>
      </trkpt>
      <trkpt lat="37.392186" lon="-122.129426">
        <ele>41.2</ele>
        <time>2015-07-19T22:01:56Z</time>
      </trkpt>
      <trkpt lat="37.392149" lon="-122.129401">
        <ele>41.2</ele>
        <time>2015-07-19T22:01:57Z</time>
      </trkpt>
      <trkpt lat="37.392095" lon="-122.129366">
        <ele>41</ele>
        <time>2015-07-19T22:01:58Z</time>
      </trkpt>
      <trkpt lat="37.392002" lon="-122.129305">
        <ele>41.1</ele>
        <time>2015-07-19T22:01:59Z</time>
      </trkpt>
      <trkpt lat="37.391954" lon="-122.129274">
        <ele>41.1</ele>
        <time>2015-07-19T22:02:00Z</time>
      </trkpt>
      <trkpt lat="37.391907" lon="-122.129242">
        <ele>41.2</ele>
        <time>2015-07-19T22:02:01Z</time>
      </trkpt>
      <trkpt lat="37.391849" lon="-122.129204">
        <ele>41.2</ele>
        <time>2015-07-19T22:02:02Z</time>
      </trkpt>
      <trkpt lat="37.39181" lon="-122.129177">
        <ele>41.3</ele>
        <time>2015-07-19T22:02:03Z</time>
      </trkpt>
      <trkpt lat="37.391769" lon="-122.12915">
        <ele>41.4</ele>
        <time>2015-07-19T22:02:04Z</time>
      </trkpt>
      <trkpt lat="37.39173" lon="-122.129124">
        <ele>41.5</ele>
        <time>2015-07-19T22:02:05Z</time>
      </trkpt>
      <trkpt lat="37.391676" lon="-122.129088">
        <ele>41.5</ele>
        <time>2015-07-19T22:02:06Z</time>
      </trkpt>
      <trkpt lat="37.391622" lon="-122.129051">
        <ele>41.6</ele>
        <time>2015-07-19T22:02:07Z</time>
      </trkpt>
      <trkpt lat="37.391563" lon="-122.12901">
        <ele>41.7</ele>
        <time>2015-07-19T22:02:08Z</time>
      </trkpt>
      <trkpt lat="37.391507" lon="-122.128972">
        <ele>41.8</ele>
        <time>2015-07-19T22:02:09Z</time>
      </trkpt>
      <trkpt lat="37.391449" lon="-122.128932">
        <ele>41.9</ele>
        <time>2015-07-19T22:02:11Z</time>
      </trkpt>
      <trkpt lat="37.391417" lon="-122.12891">
        <ele>42</ele>
        <time>2015-07-19T22:02:12Z</time>
      </trkpt>
      <trkpt lat="37.391371" lon="-122.128878">
        <ele>42.1</ele>
        <time>2015-07-19T22:02:13Z</time>
      </trkpt>
      <trkpt lat="37.391338" lon="-122.128856">
        <ele>42.2</ele>
        <time>2015-07-19T22:02:14Z</time>
      </trkpt>
      <trkpt lat="37.391242" lon="-122.12879">
        <ele>42.5</ele>
        <time>2015-07-19T22:02:15Z</time>
      </trkpt>
      <trkpt lat="37.391207" lon="-122.128766">
        <ele>42.6</ele>
        <time>2015-07-19T22:02:16Z</time>
      </trkpt>
      <trkpt lat="37.391175" lon="-122.128745">
        <ele>42.8</ele>
        <time>2015-07-19T22:02:17Z</time>
      </trkpt>
      <trkpt lat="37.39113" lon="-122.128714">
        <ele>43</ele>
        <time>2015-07-19T22:02:18Z</time>
      </trkpt>
      <trkpt lat="37.39108" lon="-122.128679">
        <ele>43.5</ele>
        <time>2015-07-19T22:02:19Z</time>
      </trkpt>
      <trkpt lat="37.391013" lon="-122.128635">
        <ele>43.7</ele>
        <time>2015-07-19T22:02:22Z</time>
      </trkpt>
      <trkpt lat="37.390974" lon="-122.128609">
        <ele>43.9</ele>
        <time>2015-07-19T22:02:23Z</time>
      </trkpt>
      <trkpt lat="37.390947" lon="-122.128591">
        <ele>43.6</ele>
        <time>2015-07-19T22:02:24Z</time>
      </trkpt>
      <trkpt lat="37.390897" lon="-122.128558">
        <ele>43.8</ele>
        <time>2015-07-19T22:02:26Z</time>
      </trkpt>
      <trkpt lat="37.390847" lon="-122.128525">
        <ele>43.9</ele>
        <time>2015-07-19T22:02:28Z</time>
      </trkpt>
      <trkpt lat="37.390793" lon="-122.12849">
        <ele>44.1</ele>
        <time>2015-07-19T22:02:29Z</time>
      </trkpt>
      <trkpt lat="37.390747" lon="-122.12846">
        <ele>44.3</ele>
        <time>2015-07-19T22:02:30Z</time>
      </trkpt>
      <trkpt lat="37.390702" lon="-122.128431">
        <ele>44.3</ele>
        <time>2015-07-19T22:02:31Z</time>
      </trkpt>
      <trkpt lat="37.390661" lon="-122.128404">
        <ele>44.4</ele>
        <time>2015-07-19T22:02:32Z</time>
      </trkpt>
      <trkpt lat="37.390623" lon="-122.12838">
        <ele>44.5</ele>
        <time>2015-07-19T22:02:33Z</time>
      </trkpt>
      <trkpt lat="37.390581" lon="-122.128354">
        <ele>44.7</ele>
        <time>2015-07-19T22:02:34Z</time>
      </trkpt>
      <trkpt lat="37.390531" lon="-122.128323">
        <ele>44.8</ele>
        <time>2015-07-19T22:02:35Z</time>
      </trkpt>
      <trkpt lat="37.390503" lon="-122.128305">
        <ele>44.9</ele>
        <time>2015-07-19T22:02:36Z</time>
      </trkpt>
      <trkpt lat="37.390478" lon="-122.128288">
        <ele>44.8</ele>
        <time>2015-07-19T22:02:37Z</time>
      </trkpt>
      <trkpt lat="37.390449" lon="-122.128269">
        <ele>44.9</ele>
        <time>2015-07-19T22:02:38Z</time>
      </trkpt>
      <trkpt lat="37.390414" lon="-122.128247">
        <ele>45</ele>
        <time>2015-07-19T22:02:40Z</time>
      </trkpt>
      <trkpt lat="37.390378" lon="-122.128223">
        <ele>44.9</ele>
        <time>2015-07-19T22:02:41Z</time>
      </trkpt>
      <trkpt lat="37.390351" lon="-122.128205">
        <ele>45</ele>
        <time>2015-07-19T22:02:42Z</time>
      </trkpt>
      <trkpt lat="37.390307" lon="-122.128176">
        <ele>45.1</ele>
        <time>2015-07-19T22:02:44Z</time>
      </trkpt>
      <trkpt lat="37.390272" lon="-122.128152">
        <ele>45</ele>
        <time>2015-07-19T22:02:46Z</time>
      </trkpt>
      <trkpt lat="37.390244" lon="-122.128135">
        <ele>45</ele>
        <time>2015-07-19T22:02:50Z</time>
      </trkpt>
      <trkpt lat="37.390197" lon="-122.128104">
        <ele>45.1</ele>
        <time>2015-07-19T22:02:52Z</time>
      </trkpt>
      <trkpt lat="37.390169" lon="-122.128085">
        <ele>45.1</ele>
        <time>2015-07-19T22:02:54Z</time>
      </trkpt>
      <trkpt lat="37.390123" lon="-122.128055">
        <ele>45.2</ele>
        <time>2015-07-19T22:02:56Z</time>
      </trkpt>
      <trkpt lat="37.390082" lon="-122.128028">
        <ele>45.2</ele>
        <time>2015-07-19T22:02:59Z</time>
      </trkpt>
      <trkpt lat="37.390039" lon="-122.128">
        <ele>45.2</ele>
        <time>2015-07-19T22:03:01Z</time>
      </trkpt>
      <trkpt lat="37.389993" lon="-122.127962">
        <ele>45.2</ele>
        <time>2015-07-19T22:03:03Z</time>
      </trkpt>
      <trkpt lat="37.389959" lon="-122.127946">
        <ele>45.2</ele>
        <time>2015-07-19T22:03:04Z</time>
      </trkpt>
      <trkpt lat="37.389907" lon="-122.127913">
        <ele>45.1</ele>
        <time>2015-07-19T22:03:06Z</time>
      </trkpt>
      <trkpt lat="37.389882" lon="-122.127896">
        <ele>45.2</ele>
        <time>2015-07-19T22:03:07Z</time>
      </trkpt>
      <trkpt lat="37.389853" lon="-122.127877">
        <ele>45.2</ele>
        <time>2015-07-19T22:03:08Z</time>
      </trkpt>
      <trkpt lat="37.389822" lon="-122.127856">
        <ele>45.1</ele>
        <time>2015-07-19T22:03:09Z</time>
      </trkpt>
      <trkpt lat="37.389794" lon="-122.127838">
        <ele>45.2</ele>
        <time>2015-07-19T22:03:10Z</time>
      </trkpt>
      <trkpt lat="37.389736" lon="-122.1278">
        <ele>45.1</ele>
        <time>2015-07-19T22:03:12Z</time>
      </trkpt>
      <trkpt lat="37.389668" lon="-122.127755">
        <ele>45.1</ele>
        <time>2015-07-19T22:03:15Z</time>
      </trkpt>
      <trkpt lat="37.389636" lon="-122.127735">
        <ele>45.1</ele>
        <time>2015-07-19T22:03:17Z</time>
      </trkpt>
      <trkpt lat="37.38959" lon="-122.127705">
        <ele>44.9</ele>
        <time>2015-07-19T22:03:19Z</time>
      </trkpt>
      <trkpt lat="37.389558" lon="-122.127685">
        <ele>45</ele>
        <time>2015-07-19T22:03:20Z</time>
      </trkpt>
      <trkpt lat="37.389527" lon="-122.127665">
        <ele>45</ele>
        <time>2015-07-19T22:03:21Z</time>
      </trkpt>
      <trkpt lat="37.389488" lon="-122.127639">
        <ele>45.1</ele>
        <time>2015-07-19T22:03:22Z</time>
      </trkpt>
      <trkpt lat="37.389447" lon="-122.127612">
        <ele>45.3</ele>
        <time>2015-07-19T22:03:23Z</time>
      </trkpt>
      <trkpt lat="37.389418" lon="-122.127592">
        <ele>45.4</ele>
        <time>2015-07-19T22:03:24Z</time>
      </trkpt>
      <trkpt lat="37.389386" lon="-122.127571">
        <ele>45.4</ele>
        <time>2015-07-19T22:03:25Z</time>
      </trkpt>
      <trkpt lat="37.389357" lon="-122.127552">
        <ele>45.4</ele>
        <time>2015-07-19T22:03:26Z</time>
      </trkpt>
      <trkpt lat="37.389329" lon="-122.127528">
        <ele>45.4</ele>
        <time>2015-07-19T22:03:27Z</time>
      </trkpt>
      <trkpt lat="37.389292" lon="-122.127506">
        <ele>45.4</ele>
        <time>2015-07-19T22:03:28Z</time>
      </trkpt>
      <trkpt lat="37.389258" lon="-122.127465">
        <ele>45.3</ele>
        <time>2015-07-19T22:03:29Z</time>
      </trkpt>
      <trkpt lat="37.389221" lon="-122.127437">
        <ele>45.3</ele>
        <time>2015-07-19T22:03:30Z</time>
      </trkpt>
      <trkpt lat="37.389184" lon="-122.127412">
        <ele>45.4</ele>
        <time>2015-07-19T22:03:31Z</time>
      </trkpt>
      <trkpt lat="37.389145" lon="-122.127386">
        <ele>45.4</ele>
        <time>2015-07-19T22:03:32Z</time>
      </trkpt>
      <trkpt lat="37.389115" lon="-122.12736">
        <ele>45.3</ele>
        <time>2015-07-19T22:03:33Z</time>
      </trkpt>
      <trkpt lat="37.389087" lon="-122.127338">
        <ele>45.3</ele>
        <time>2015-07-19T22:03:34Z</time>
      </trkpt>
      <trkpt lat="37.38906" lon="-122.12732">
        <ele>45.3</ele>
        <time>2015-07-19T22:03:35Z</time>
      </trkpt>
      <trkpt lat="37.38903" lon="-122.127295">
        <ele>45.3</ele>
        <time>2015-07-19T22:03:36Z</time>
      </trkpt>
      <trkpt lat="37.388993" lon="-122.127266">
        <ele>45.3</ele>
        <time>2015-07-19T22:03:37Z</time>
      </trkpt>
      <trkpt lat="37.388934" lon="-122.127234">
        <ele>45.4</ele>
        <time>2015-07-19T22:03:38Z</time>
      </trkpt>
      <trkpt lat="37.388896" lon="-122.127203">
        <ele>45.4</ele>
        <time>2015-07-19T22:03:39Z</time>
      </trkpt>
      <trkpt lat="37.388849" lon="-122.127178">
        <ele>45.4</ele>
        <time>2015-07-19T22:03:40Z</time>
      </trkpt>
      <trkpt lat="37.3888" lon="-122.127145">
        <ele>45.4</ele>
        <time>2015-07-19T22:03:41Z</time>
      </trkpt>
      <trkpt lat="37.388747" lon="-122.127109">
        <ele>45.5</ele>
        <time>2015-07-19T22:03:42Z</time>
      </trkpt>
      <trkpt lat="37.388703" lon="-122.127079">
        <ele>45.4</ele>
        <time>2015-07-19T22:03:43Z</time>
      </trkpt>
      <trkpt lat="37.388665" lon="-122.127056">
        <ele>45.4</ele>
        <time>2015-07-19T22:03:44Z</time>
      </trkpt>
      <trkpt lat="37.388623" lon="-122.12702">
        <ele>45.5</ele>
        <time>2015-07-19T22:03:45Z</time>
      </trkpt>
      <trkpt lat="37.388583" lon="-122.126992">
        <ele>45.5</ele>
        <time>2015-07-19T22:03:46Z</time>
      </trkpt>
      <trkpt lat="37.38855" lon="-122.126965">
        <ele>45.5</ele>
        <time>2015-07-19T22:03:47Z</time>
      </trkpt>
      <trkpt lat="37.388501" lon="-122.126931">
        <ele>45.4</ele>
        <time>2015-07-19T22:03:48Z</time>
      </trkpt>
      <trkpt lat="37.38845" lon="-122.126897">
        <ele>45.6</ele>
        <time>2015-07-19T22:03:49Z</time>
      </trkpt>
      <trkpt lat="37.388403" lon="-122.126865">
        <ele>45.5</ele>
        <time>2015-07-19T22:03:50Z</time>
      </trkpt>
      <trkpt lat="37.38836" lon="-122.126834">
        <ele>45.6</ele>
        <time>2015-07-19T22:03:51Z</time>
      </trkpt>
      <trkpt lat="37.388332" lon="-122.126813">
        <ele>45.6</ele>
        <time>2015-07-19T22:03:52Z</time>
      </trkpt>
      <trkpt lat="37.388289" lon="-122.126778">
        <ele>45.6</ele>
        <time>2015-07-19T22:03:53Z</time>
      </trkpt>
      <trkpt lat="37.388245" lon="-122.126752">
        <ele>45.7</ele>
        <time>2015-07-19T22:03:54Z</time>
      </trkpt>
      <trkpt lat="37.38821" lon="-122.126728">
        <ele>45.7</ele>
        <time>2015-07-19T22:03:55Z</time>
      </trkpt>
      <trkpt lat="37.388169" lon="-122.126698">
        <ele>45.7</ele>
        <time>2015-07-19T22:03:56Z</time>
      </trkpt>
      <trkpt lat="37.388131" lon="-122.12667">
        <ele>45.8</ele>
        <time>2015-07-19T22:03:57Z</time>
      </trkpt>
      <trkpt lat="37.388081" lon="-122.126632">
        <ele>45.8</ele>
        <time>2015-07-19T22:03:58Z</time>
      </trkpt>
      <trkpt lat="37.388038" lon="-122.126601">
        <ele>46</ele>
        <time>2015-07-19T22:03:59Z</time>
      </trkpt>
      <trkpt lat="37.387994" lon="-122.126566">
        <ele>46</ele>
        <time>2015-07-19T22:04:00Z</time>
      </trkpt>
      <trkpt lat="37.387964" lon="-122.126543">
        <ele>46.1</ele>
        <time>2015-07-19T22:04:01Z</time>
      </trkpt>
      <trkpt lat="37.38792" lon="-122.126514">
        <ele>46.1</ele>
        <time>2015-07-19T22:04:02Z</time>
      </trkpt>
      <trkpt lat="37.387884" lon="-122.126488">
        <ele>46.2</ele>
        <time>2015-07-19T22:04:03Z</time>
      </trkpt>
      <trkpt lat="37.387838" lon="-122.12645">
        <ele>46.4</ele>
        <time>2015-07-19T22:04:04Z</time>
      </trkpt>
      <trkpt lat="37.38779" lon="-122.126417">
        <ele>46.5</ele>
        <time>2015-07-19T22:04:05Z</time>
      </trkpt>
      <trkpt lat="37.387743" lon="-122.126379">
        <ele>46.6</ele>
        <time>2015-07-19T22:04:06Z</time>
      </trkpt>
      <trkpt lat="37.387703" lon="-122.126348">
        <ele>46.7</ele>
        <time>2015-07-19T22:04:07Z</time>
      </trkpt>
      <trkpt lat="37.387656" lon="-122.126309">
        <ele>46.9</ele>
        <time>2015-07-19T22:04:08Z</time>
      </trkpt>
      <trkpt lat="37.387602" lon="-122.126274">
        <ele>47.1</ele>
        <time>2015-07-19T22:04:09Z</time>
      </trkpt>
      <trkpt lat="37.387566" lon="-122.12625">
        <ele>47.1</ele>
        <time>2015-07-19T22:04:10Z</time>
      </trkpt>
      <trkpt lat="37.387522" lon="-122.126221">
        <ele>47.2</ele>
        <time>2015-07-19T22:04:11Z</time>
      </trkpt>
      <trkpt lat="37.387471" lon="-122.126177">
        <ele>47.4</ele>
        <time>2015-07-19T22:04:13Z</time>
      </trkpt>
      <trkpt lat="37.387428" lon="-122.126145">
        <ele>47.6</ele>
        <time>2015-07-19T22:04:14Z</time>
      </trkpt>
      <trkpt lat="37.387384" lon="-122.12611">
        <ele>47.8</ele>
        <time>2015-07-19T22:04:16Z</time>
      </trkpt>
      <trkpt lat="37.387349" lon="-122.126083">
        <ele>47.9</ele>
        <time>2015-07-19T22:04:17Z</time>
      </trkpt>
      <trkpt lat="37.387318" lon="-122.126058">
        <ele>48.1</ele>
        <time>2015-07-19T22:04:18Z</time>
      </trkpt>
      <trkpt lat="37.387283" lon="-122.126032">
        <ele>48.2</ele>
        <time>2015-07-19T22:04:19Z</time>
      </trkpt>
      <trkpt lat="37.387252" lon="-122.126007">
        <ele>48.3</ele>
        <time>2015-07-19T22:04:20Z</time>
      </trkpt>
      <trkpt lat="37.387218" lon="-122.125979">
        <ele>48.5</ele>
        <time>2015-07-19T22:04:21Z</time>
      </trkpt>
      <trkpt lat="37.387187" lon="-122.125953">
        <ele>48.5</ele>
        <time>2015-07-19T22:04:22Z</time>
      </trkpt>
      <trkpt lat="37.387158" lon="-122.125923">
        <ele>48.7</ele>
        <time>2015-07-19T22:04:23Z</time>
      </trkpt>
      <trkpt lat="37.387118" lon="-122.125902">
        <ele>48.8</ele>
        <time>2015-07-19T22:04:24Z</time>
      </trkpt>
      <trkpt lat="37.387083" lon="-122.12588">
        <ele>48.9</ele>
        <time>2015-07-19T22:04:25Z</time>
      </trkpt>
      <trkpt lat="37.387044" lon="-122.125852">
        <ele>49</ele>
        <time>2015-07-19T22:04:26Z</time>
      </trkpt>
      <trkpt lat="37.387013" lon="-122.125827">
        <ele>49.1</ele>
        <time>2015-07-19T22:04:27Z</time>
      </trkpt>
      <trkpt lat="37.386977" lon="-122.125797">
        <ele>49.2</ele>
        <time>2015-07-19T22:04:28Z</time>
      </trkpt>
      <trkpt lat="37.386944" lon="-122.12577">
        <ele>49.3</ele>
        <time>2015-07-19T22:04:29Z</time>
      </trkpt>
      <trkpt lat="37.386913" lon="-122.125743">
        <ele>49.5</ele>
        <time>2015-07-19T22:04:30Z</time>
      </trkpt>
      <trkpt lat="37.386881" lon="-122.125709">
        <ele>49.5</ele>
        <time>2015-07-19T22:04:31Z</time>
      </trkpt>
      <trkpt lat="37.386843" lon="-122.125678">
        <ele>49.7</ele>
        <time>2015-07-19T22:04:32Z</time>
      </trkpt>
      <trkpt lat="37.386819" lon="-122.125659">
        <ele>49.7</ele>
        <time>2015-07-19T22:04:33Z</time>
      </trkpt>
      <trkpt lat="37.386748" lon="-122.125631">
        <ele>49.7</ele>
        <time>2015-07-19T22:04:34Z</time>
      </trkpt>
      <trkpt lat="37.386694" lon="-122.125611">
        <ele>49.6</ele>
        <time>2015-07-19T22:04:35Z</time>
      </trkpt>
      <trkpt lat="37.386647" lon="-122.125585">
        <ele>49.9</ele>
        <time>2015-07-19T22:04:36Z</time>
      </trkpt>
      <trkpt lat="37.386612" lon="-122.125558">
        <ele>49.9</ele>
        <time>2015-07-19T22:04:37Z</time>
      </trkpt>
      <trkpt lat="37.386566" lon="-122.125522">
        <ele>50</ele>
        <time>2015-07-19T22:04:38Z</time>
      </trkpt>
      <trkpt lat="37.386535" lon="-122.125497">
        <ele>50</ele>
        <time>2015-07-19T22:04:39Z</time>
      </trkpt>
      <trkpt lat="37.386503" lon="-122.125473">
        <ele>50.1</ele>
        <time>2015-07-19T22:04:40Z</time>
      </trkpt>
      <trkpt lat="37.386472" lon="-122.125448">
        <ele>50.2</ele>
        <time>2015-07-19T22:04:41Z</time>
      </trkpt>
      <trkpt lat="37.386441" lon="-122.125424">
        <ele>50.2</ele>
        <time>2015-07-19T22:04:42Z</time>
      </trkpt>
      <trkpt lat="37.386411" lon="-122.1254">
        <ele>50.2</ele>
        <time>2015-07-19T22:04:43Z</time>
      </trkpt>
      <trkpt lat="37.386376" lon="-122.125372">
        <ele>50.3</ele>
        <time>2015-07-19T22:04:44Z</time>
      </trkpt>
      <trkpt lat="37.386342" lon="-122.125346">
        <ele>50.3</ele>
        <time>2015-07-19T22:04:45Z</time>
      </trkpt>
      <trkpt lat="37.386308" lon="-122.125315">
        <ele>50.3</ele>
        <time>2015-07-19T22:04:46Z</time>
      </trkpt>
      <trkpt lat="37.386279" lon="-122.125285">
        <ele>50.4</ele>
        <time>2015-07-19T22:04:47Z</time>
      </trkpt>
      <trkpt lat="37.386223" lon="-122.125229">
        <ele>50.4</ele>
        <time>2015-07-19T22:04:49Z</time>
      </trkpt>
      <trkpt lat="37.386189" lon="-122.125199">
        <ele>50.4</ele>
        <time>2015-07-19T22:04:50Z</time>
      </trkpt>
      <trkpt lat="37.386142" lon="-122.12515">
        <ele>50.5</ele>
        <time>2015-07-19T22:04:51Z</time>
      </trkpt>
      <trkpt lat="37.386088" lon="-122.125102">
        <ele>50.5</ele>
        <time>2015-07-19T22:04:52Z</time>
      </trkpt>
      <trkpt lat="37.386038" lon="-122.125063">
        <ele>50.5</ele>
        <time>2015-07-19T22:04:53Z</time>
      </trkpt>
      <trkpt lat="37.385969" lon="-122.125005">
        <ele>50.6</ele>
        <time>2015-07-19T22:04:55Z</time>
      </trkpt>
      <trkpt lat="37.385916" lon="-122.12496">
        <ele>50.5</ele>
        <time>2015-07-19T22:04:56Z</time>
      </trkpt>
      <trkpt lat="37.385889" lon="-122.124942">
        <ele>50.6</ele>
        <time>2015-07-19T22:04:57Z</time>
      </trkpt>
      <trkpt lat="37.385864" lon="-122.124917">
        <ele>50.6</ele>
        <time>2015-07-19T22:04:58Z</time>
      </trkpt>
      <trkpt lat="37.385823" lon="-122.124885">
        <ele>50.7</ele>
        <time>2015-07-19T22:04:59Z</time>
      </trkpt>
      <trkpt lat="37.385768" lon="-122.124839">
        <ele>50.7</ele>
        <time>2015-07-19T22:05:00Z</time>
      </trkpt>
      <trkpt lat="37.385715" lon="-122.124798">
        <ele>50.7</ele>
        <time>2015-07-19T22:05:02Z</time>
      </trkpt>
      <trkpt lat="37.385677" lon="-122.124766">
        <ele>50.7</ele>
        <time>2015-07-19T22:05:03Z</time>
      </trkpt>
      <trkpt lat="37.385637" lon="-122.124733">
        <ele>50.7</ele>
        <time>2015-07-19T22:05:04Z</time>
      </trkpt>
      <trkpt lat="37.385596" lon="-122.124701">
        <ele>50.7</ele>
        <time>2015-07-19T22:05:05Z</time>
      </trkpt>
      <trkpt lat="37.38556" lon="-122.124673">
        <ele>50.8</ele>
        <time>2015-07-19T22:05:06Z</time>
      </trkpt>
      <trkpt lat="37.385502" lon="-122.124629">
        <ele>50.7</ele>
        <time>2015-07-19T22:05:07Z</time>
      </trkpt>
      <trkpt lat="37.385445" lon="-122.124584">
        <ele>50.9</ele>
        <time>2015-07-19T22:05:08Z</time>
      </trkpt>
      <trkpt lat="37.385413" lon="-122.124553">
        <ele>50.9</ele>
        <time>2015-07-19T22:05:09Z</time>
      </trkpt>
      <trkpt lat="37.385375" lon="-122.12452">
        <ele>51</ele>
        <time>2015-07-19T22:05:10Z</time>
      </trkpt>
      <trkpt lat="37.385331" lon="-122.124485">
        <ele>51</ele>
        <time>2015-07-19T22:05:11Z</time>
      </trkpt>
      <trkpt lat="37.385284" lon="-122.124441">
        <ele>51.1</ele>
        <time>2015-07-19T22:05:12Z</time>
      </trkpt>
      <trkpt lat="37.385235" lon="-122.124403">
        <ele>51.1</ele>
        <time>2015-07-19T22:05:13Z</time>
      </trkpt>
      <trkpt lat="37.385187" lon="-122.124362">
        <ele>51.3</ele>
        <time>2015-07-19T22:05:14Z</time>
      </trkpt>
      <trkpt lat="37.38515" lon="-122.124331">
        <ele>51.3</ele>
        <time>2015-07-19T22:05:15Z</time>
      </trkpt>
      <trkpt lat="37.385096" lon="-122.124299">
        <ele>51.3</ele>
        <time>2015-07-19T22:05:16Z</time>
      </trkpt>
      <trkpt lat="37.385054" lon="-122.124264">
        <ele>51.4</ele>
        <time>2015-07-19T22:05:17Z</time>
      </trkpt>
      <trkpt lat="37.385005" lon="-122.124222">
        <ele>51.5</ele>
        <time>2015-07-19T22:05:18Z</time>
      </trkpt>
      <trkpt lat="37.384929" lon="-122.124164">
        <ele>51.6</ele>
        <time>2015-07-19T22:05:20Z</time>
      </trkpt>
      <trkpt lat="37.384847" lon="-122.124117">
        <ele>51.8</ele>
        <time>2015-07-19T22:05:21Z</time>
      </trkpt>
      <trkpt lat="37.384806" lon="-122.124083">
        <ele>51.8</ele>
        <time>2015-07-19T22:05:22Z</time>
      </trkpt>
      <trkpt lat="37.384735" lon="-122.124024">
        <ele>51.9</ele>
        <time>2015-07-19T22:05:24Z</time>
      </trkpt>
      <trkpt lat="37.384708" lon="-122.124001">
        <ele>52.1</ele>
        <time>2015-07-19T22:05:25Z</time>
      </trkpt>
      <trkpt lat="37.384673" lon="-122.123972">
        <ele>52.3</ele>
        <time>2015-07-19T22:05:26Z</time>
      </trkpt>
      <trkpt lat="37.384636" lon="-122.123943">
        <ele>52.3</ele>
        <time>2015-07-19T22:05:27Z</time>
      </trkpt>
      <trkpt lat="37.384603" lon="-122.123916">
        <ele>52.4</ele>
        <time>2015-07-19T22:05:28Z</time>
      </trkpt>
      <trkpt lat="37.384571" lon="-122.123893">
        <ele>52.6</ele>
        <time>2015-07-19T22:05:29Z</time>
      </trkpt>
      <trkpt lat="37.384537" lon="-122.12387">
        <ele>52.6</ele>
        <time>2015-07-19T22:05:30Z</time>
      </trkpt>
      <trkpt lat="37.384342" lon="-122.123721">
        <ele>53.1</ele>
        <time>2015-07-19T22:05:36Z</time>
      </trkpt>
      <trkpt lat="37.384301" lon="-122.123697">
        <ele>53.2</ele>
        <time>2015-07-19T22:05:37Z</time>
      </trkpt>
      <trkpt lat="37.384258" lon="-122.123676">
        <ele>53.3</ele>
        <time>2015-07-19T22:05:38Z</time>
      </trkpt>
      <trkpt lat="37.384217" lon="-122.123647">
        <ele>53.4</ele>
        <time>2015-07-19T22:05:39Z</time>
      </trkpt>
      <trkpt lat="37.384142" lon="-122.123604">
        <ele>53.6</ele>
        <time>2015-07-19T22:05:40Z</time>
      </trkpt>
      <trkpt lat="37.384075" lon="-122.123562">
        <ele>53.7</ele>
        <time>2015-07-19T22:05:42Z</time>
      </trkpt>
      <trkpt lat="37.384042" lon="-122.123527">
        <ele>53.8</ele>
        <time>2015-07-19T22:05:43Z</time>
      </trkpt>
      <trkpt lat="37.384004" lon="-122.123501">
        <ele>53.9</ele>
        <time>2015-07-19T22:05:44Z</time>
      </trkpt>
      <trkpt lat="37.383964" lon="-122.12347">
        <ele>54</ele>
        <time>2015-07-19T22:05:45Z</time>
      </trkpt>
      <trkpt lat="37.383935" lon="-122.123447">
        <ele>54.1</ele>
        <time>2015-07-19T22:05:46Z</time>
      </trkpt>
      <trkpt lat="37.383899" lon="-122.123416">
        <ele>54.1</ele>
        <time>2015-07-19T22:05:47Z</time>
      </trkpt>
      <trkpt lat="37.383868" lon="-122.123394">
        <ele>54.3</ele>
        <time>2015-07-19T22:05:48Z</time>
      </trkpt>
      <trkpt lat="37.383837" lon="-122.123369">
        <ele>54.4</ele>
        <time>2015-07-19T22:05:49Z</time>
      </trkpt>
      <trkpt lat="37.383808" lon="-122.123346">
        <ele>54.4</ele>
        <time>2015-07-19T22:05:50Z</time>
      </trkpt>
      <trkpt lat="37.383774" lon="-122.12332">
        <ele>54.6</ele>
        <time>2015-07-19T22:05:51Z</time>
      </trkpt>
      <trkpt lat="37.383743" lon="-122.123295">
        <ele>54.6</ele>
        <time>2015-07-19T22:05:52Z</time>
      </trkpt>
      <trkpt lat="37.383717" lon="-122.123274">
        <ele>54.7</ele>
        <time>2015-07-19T22:05:53Z</time>
      </trkpt>
      <trkpt lat="37.383686" lon="-122.12325">
        <ele>54.8</ele>
        <time>2015-07-19T22:05:54Z</time>
      </trkpt>
      <trkpt lat="37.383645" lon="-122.123198">
        <ele>55</ele>
        <time>2015-07-19T22:05:57Z</time>
      </trkpt>
      <trkpt lat="37.383619" lon="-122.123166">
        <ele>55</ele>
        <time>2015-07-19T22:05:58Z</time>
      </trkpt>
      <trkpt lat="37.383583" lon="-122.123136">
        <ele>55.1</ele>
        <time>2015-07-19T22:05:59Z</time>
      </trkpt>
      <trkpt lat="37.383532" lon="-122.123106">
        <ele>55.1</ele>
        <time>2015-07-19T22:06:00Z</time>
      </trkpt>
      <trkpt lat="37.383487" lon="-122.123075">
        <ele>55.3</ele>
        <time>2015-07-19T22:06:01Z</time>
      </trkpt>
      <trkpt lat="37.38345" lon="-122.123046">
        <ele>55.4</ele>
        <time>2015-07-19T22:06:02Z</time>
      </trkpt>
      <trkpt lat="37.383412" lon="-122.123013">
        <ele>55.4</ele>
        <time>2015-07-19T22:06:03Z</time>
      </trkpt>
      <trkpt lat="37.383373" lon="-122.122977">
        <ele>55.5</ele>
        <time>2015-07-19T22:06:04Z</time>
      </trkpt>
      <trkpt lat="37.383354" lon="-122.122944">
        <ele>55.5</ele>
        <time>2015-07-19T22:06:05Z</time>
      </trkpt>
      <trkpt lat="37.383328" lon="-122.122903">
        <ele>55.7</ele>
        <time>2015-07-19T22:06:06Z</time>
      </trkpt>
      <trkpt lat="37.383272" lon="-122.122858">
        <ele>55.8</ele>
        <time>2015-07-19T22:06:07Z</time>
      </trkpt>
      <trkpt lat="37.383233" lon="-122.122862">
        <ele>55.7</ele>
        <time>2015-07-19T22:06:08Z</time>
      </trkpt>
      <trkpt lat="37.383204" lon="-122.12283">
        <ele>55.9</ele>
        <time>2015-07-19T22:06:09Z</time>
      </trkpt>
      <trkpt lat="37.383165" lon="-122.122801">
        <ele>55.9</ele>
        <time>2015-07-19T22:06:10Z</time>
      </trkpt>
      <trkpt lat="37.38314" lon="-122.12277">
        <ele>56</ele>
        <time>2015-07-19T22:06:11Z</time>
      </trkpt>
      <trkpt lat="37.383109" lon="-122.122742">
        <ele>56</ele>
        <time>2015-07-19T22:06:12Z</time>
      </trkpt>
      <trkpt lat="37.383077" lon="-122.122716">
        <ele>55.9</ele>
        <time>2015-07-19T22:06:13Z</time>
      </trkpt>
      <trkpt lat="37.383054" lon="-122.122692">
        <ele>56</ele>
        <time>2015-07-19T22:06:14Z</time>
      </trkpt>
      <trkpt lat="37.383016" lon="-122.122659">
        <ele>56.1</ele>
        <time>2015-07-19T22:06:15Z</time>
      </trkpt>
      <trkpt lat="37.382983" lon="-122.122631">
        <ele>56.1</ele>
        <time>2015-07-19T22:06:16Z</time>
      </trkpt>
      <trkpt lat="37.382948" lon="-122.122602">
        <ele>56.2</ele>
        <time>2015-07-19T22:06:17Z</time>
      </trkpt>
      <trkpt lat="37.382913" lon="-122.122574">
        <ele>56.2</ele>
        <time>2015-07-19T22:06:18Z</time>
      </trkpt>
      <trkpt lat="37.382878" lon="-122.122545">
        <ele>56.2</ele>
        <time>2015-07-19T22:06:19Z</time>
      </trkpt>
      <trkpt lat="37.382843" lon="-122.122515">
        <ele>56.3</ele>
        <time>2015-07-19T22:06:20Z</time>
      </trkpt>
      <trkpt lat="37.382804" lon="-122.122487">
        <ele>56.4</ele>
        <time>2015-07-19T22:06:21Z</time>
      </trkpt>
      <trkpt lat="37.382766" lon="-122.122458">
        <ele>56.4</ele>
        <time>2015-07-19T22:06:22Z</time>
      </trkpt>
      <trkpt lat="37.382706" lon="-122.122416">
        <ele>56.4</ele>
        <time>2015-07-19T22:06:23Z</time>
      </trkpt>
      <trkpt lat="37.382665" lon="-122.122384">
        <ele>56.4</ele>
        <time>2015-07-19T22:06:24Z</time>
      </trkpt>
      <trkpt lat="37.38262" lon="-122.122345">
        <ele>56.4</ele>
        <time>2015-07-19T22:06:25Z</time>
      </trkpt>
      <trkpt lat="37.382597" lon="-122.122322">
        <ele>56.4</ele>
        <time>2015-07-19T22:06:26Z</time>
      </trkpt>
      <trkpt lat="37.382553" lon="-122.122285">
        <ele>56.4</ele>
        <time>2015-07-19T22:06:27Z</time>
      </trkpt>
      <trkpt lat="37.382517" lon="-122.122254">
        <ele>56.5</ele>
        <time>2015-07-19T22:06:28Z</time>
      </trkpt>
      <trkpt lat="37.38247" lon="-122.122215">
        <ele>56.5</ele>
        <time>2015-07-19T22:06:29Z</time>
      </trkpt>
      <trkpt lat="37.38241" lon="-122.12217">
        <ele>56.6</ele>
        <time>2015-07-19T22:06:30Z</time>
      </trkpt>
      <trkpt lat="37.382369" lon="-122.122134">
        <ele>56.7</ele>
        <time>2015-07-19T22:06:31Z</time>
      </trkpt>
      <trkpt lat="37.382332" lon="-122.122095">
        <ele>56.6</ele>
        <time>2015-07-19T22:06:32Z</time>
      </trkpt>
      <trkpt lat="37.38229" lon="-122.122069">
        <ele>56.7</ele>
        <time>2015-07-19T22:06:33Z</time>
      </trkpt>
      <trkpt lat="37.382243" lon="-122.122033">
        <ele>56.7</ele>
        <time>2015-07-19T22:06:34Z</time>
      </trkpt>
      <trkpt lat="37.382207" lon="-122.122006">
        <ele>56.7</ele>
        <time>2015-07-19T22:06:35Z</time>
      </trkpt>
      <trkpt lat="37.38216" lon="-122.121972">
        <ele>56.7</ele>
        <time>2015-07-19T22:06:36Z</time>
      </trkpt>
      <trkpt lat="37.38211" lon="-122.121928">
        <ele>56.7</ele>
        <time>2015-07-19T22:06:37Z</time>
      </trkpt>
      <trkpt lat="37.382078" lon="-122.121904">
        <ele>56.8</ele>
        <time>2015-07-19T22:06:38Z</time>
      </trkpt>
      <trkpt lat="37.382035" lon="-122.121867">
        <ele>56.8</ele>
        <time>2015-07-19T22:06:39Z</time>
      </trkpt>
      <trkpt lat="37.381985" lon="-122.121825">
        <ele>56.9</ele>
        <time>2015-07-19T22:06:41Z</time>
      </trkpt>
      <trkpt lat="37.381964" lon="-122.121804">
        <ele>56.8</ele>
        <time>2015-07-19T22:06:42Z</time>
      </trkpt>
      <trkpt lat="37.38192" lon="-122.121792">
        <ele>56.9</ele>
        <time>2015-07-19T22:06:43Z</time>
      </trkpt>
      <trkpt lat="37.381862" lon="-122.121716">
        <ele>57</ele>
        <time>2015-07-19T22:06:44Z</time>
      </trkpt>
      <trkpt lat="37.38182" lon="-122.121695">
        <ele>57</ele>
        <time>2015-07-19T22:06:45Z</time>
      </trkpt>
      <trkpt lat="37.381791" lon="-122.121669">
        <ele>57</ele>
        <time>2015-07-19T22:06:46Z</time>
      </trkpt>
      <trkpt lat="37.381757" lon="-122.121669">
        <ele>57</ele>
        <time>2015-07-19T22:06:47Z</time>
      </trkpt>
      <trkpt lat="37.381727" lon="-122.121656">
        <ele>57</ele>
        <time>2015-07-19T22:06:48Z</time>
      </trkpt>
      <trkpt lat="37.381693" lon="-122.121657">
        <ele>56.9</ele>
        <time>2015-07-19T22:06:49Z</time>
      </trkpt>
      <trkpt lat="37.381648" lon="-122.12163">
        <ele>56.9</ele>
        <time>2015-07-19T22:06:55Z</time>
      </trkpt>
      <trkpt lat="37.381672" lon="-122.121635">
        <ele>57</ele>
        <time>2015-07-19T22:07:12Z</time>
      </trkpt>
      <trkpt lat="37.381695" lon="-122.121639">
        <ele>57</ele>
        <time>2015-07-19T22:07:13Z</time>
      </trkpt>
      <trkpt lat="37.381734" lon="-122.121649">
        <ele>57</ele>
        <time>2015-07-19T22:07:15Z</time>
      </trkpt>
      <trkpt lat="37.381781" lon="-122.121685">
        <ele>56.9</ele>
        <time>2015-07-19T22:07:16Z</time>
      </trkpt>
      <trkpt lat="37.3817" lon="-122.121623">
        <ele>57.1</ele>
        <time>2015-07-19T22:07:18Z</time>
      </trkpt>
      <trkpt lat="37.381664" lon="-122.121595">
        <ele>57.1</ele>
        <time>2015-07-19T22:07:24Z</time>
      </trkpt>
      <trkpt lat="37.381639" lon="-122.121576">
        <ele>57.1</ele>
        <time>2015-07-19T22:07:26Z</time>
      </trkpt>
      <trkpt lat="37.381616" lon="-122.121619">
        <ele>56.9</ele>
        <time>2015-07-19T22:07:28Z</time>
      </trkpt>
      <trkpt lat="37.381634" lon="-122.121577">
        <ele>57.1</ele>
        <time>2015-07-19T22:07:34Z</time>
      </trkpt>
      <trkpt lat="37.381669" lon="-122.121599">
        <ele>57</ele>
        <time>2015-07-19T22:07:48Z</time>
      </trkpt>
      <trkpt lat="37.38164" lon="-122.121576">
        <ele>57.1</ele>
        <time>2015-07-19T22:07:53Z</time>
      </trkpt>
      <trkpt lat="37.381553" lon="-122.121511">
        <ele>57.1</ele>
        <time>2015-07-19T22:07:57Z</time>
      </trkpt>
      <trkpt lat="37.381482" lon="-122.1216">
        <ele>56.9</ele>
        <time>2015-07-19T22:07:58Z</time>
      </trkpt>
      <trkpt lat="37.381448" lon="-122.121602">
        <ele>56.9</ele>
        <time>2015-07-19T22:07:59Z</time>
      </trkpt>
      <trkpt lat="37.381408" lon="-122.121614">
        <ele>57</ele>
        <time>2015-07-19T22:08:00Z</time>
      </trkpt>
      <trkpt lat="37.381363" lon="-122.121624">
        <ele>57.1</ele>
        <time>2015-07-19T22:08:01Z</time>
      </trkpt>
      <trkpt lat="37.381404" lon="-122.121607">
        <ele>57</ele>
        <time>2015-07-19T22:08:02Z</time>
      </trkpt>
      <trkpt lat="37.38137" lon="-122.121644">
        <ele>57</ele>
        <time>2015-07-19T22:08:03Z</time>
      </trkpt>
      <trkpt lat="37.381313" lon="-122.121709">
        <ele>57.4</ele>
        <time>2015-07-19T22:08:05Z</time>
      </trkpt>
      <trkpt lat="37.381265" lon="-122.121572">
        <ele>57.2</ele>
        <time>2015-07-19T22:08:06Z</time>
      </trkpt>
      <trkpt lat="37.381245" lon="-122.121522">
        <ele>57.1</ele>
        <time>2015-07-19T22:08:08Z</time>
      </trkpt>
      <trkpt lat="37.381228" lon="-122.121478">
        <ele>57.1</ele>
        <time>2015-07-19T22:08:10Z</time>
      </trkpt>
      <trkpt lat="37.381263" lon="-122.121458">
        <ele>57.1</ele>
        <time>2015-07-19T22:08:13Z</time>
      </trkpt>
      <trkpt lat="37.381289" lon="-122.121482">
        <ele>57.2</ele>
        <time>2015-07-19T22:08:18Z</time>
      </trkpt>
      <trkpt lat="37.381319" lon="-122.121464">
        <ele>57.2</ele>
        <time>2015-07-19T22:08:19Z</time>
      </trkpt>
      <trkpt lat="37.381345" lon="-122.121433">
        <ele>57.1</ele>
        <time>2015-07-19T22:08:21Z</time>
      </trkpt>
      <trkpt lat="37.381321" lon="-122.121407">
        <ele>57.2</ele>
        <time>2015-07-19T22:08:22Z</time>
      </trkpt>
      <trkpt lat="37.381322" lon="-122.121372">
        <ele>57.2</ele>
        <time>2015-07-19T22:08:23Z</time>
      </trkpt>
      <trkpt lat="37.381333" lon="-122.121174">
        <ele>57.3</ele>
        <time>2015-07-19T22:08:28Z</time>
      </trkpt>
      <trkpt lat="37.381337" lon="-122.121076">
        <ele>57.2</ele>
        <time>2015-07-19T22:08:29Z</time>
      </trkpt>
      <trkpt lat="37.381339" lon="-122.121023">
        <ele>57.1</ele>
        <time>2015-07-19T22:08:30Z</time>
      </trkpt>
      <trkpt lat="37.381341" lon="-122.120965">
        <ele>57.1</ele>
        <time>2015-07-19T22:08:31Z</time>
      </trkpt>
      <trkpt lat="37.381342" lon="-122.120911">
        <ele>57.1</ele>
        <time>2015-07-19T22:08:32Z</time>
      </trkpt>
      <trkpt lat="37.381347" lon="-122.120811">
        <ele>57</ele>
        <time>2015-07-19T22:08:34Z</time>
      </trkpt>
      <trkpt lat="37.381349" lon="-122.120776">
        <ele>57</ele>
        <time>2015-07-19T22:08:35Z</time>
      </trkpt>
      <trkpt lat="37.381352" lon="-122.120712">
        <ele>57</ele>
        <time>2015-07-19T22:08:37Z</time>
      </trkpt>
      <trkpt lat="37.381354" lon="-122.120653">
        <ele>57</ele>
        <time>2015-07-19T22:08:40Z</time>
      </trkpt>
      <trkpt lat="37.381353" lon="-122.120689">
        <ele>57</ele>
        <time>2015-07-19T22:08:52Z</time>
      </trkpt>
      <trkpt lat="37.381355" lon="-122.120644">
        <ele>57</ele>
        <time>2015-07-19T22:08:55Z</time>
      </trkpt>
      <trkpt lat="37.381468" lon="-122.120557">
        <ele>56.7</ele>
        <time>2015-07-19T22:08:57Z</time>
      </trkpt>
      <trkpt lat="37.381492" lon="-122.120573">
        <ele>56.6</ele>
        <time>2015-07-19T22:08:58Z</time>
      </trkpt>
      <trkpt lat="37.381522" lon="-122.120591">
        <ele>56.5</ele>
        <time>2015-07-19T22:08:59Z</time>
      </trkpt>
      <trkpt lat="37.381565" lon="-122.120618">
        <ele>56.4</ele>
        <time>2015-07-19T22:09:00Z</time>
      </trkpt>
      <trkpt lat="37.381605" lon="-122.120643">
        <ele>56.3</ele>
        <time>2015-07-19T22:09:01Z</time>
      </trkpt>
      <trkpt lat="37.38165" lon="-122.120671">
        <ele>56.2</ele>
        <time>2015-07-19T22:09:02Z</time>
      </trkpt>
      <trkpt lat="37.381802" lon="-122.120737">
        <ele>55.8</ele>
        <time>2015-07-19T22:09:06Z</time>
      </trkpt>
      <trkpt lat="37.381835" lon="-122.120749">
        <ele>55.7</ele>
        <time>2015-07-19T22:09:07Z</time>
      </trkpt>
      <trkpt lat="37.381864" lon="-122.120757">
        <ele>55.7</ele>
        <time>2015-07-19T22:09:08Z</time>
      </trkpt>
      <trkpt lat="37.381893" lon="-122.120765">
        <ele>55.6</ele>
        <time>2015-07-19T22:09:09Z</time>
      </trkpt>
      <trkpt lat="37.381926" lon="-122.120773">
        <ele>55.5</ele>
        <time>2015-07-19T22:09:10Z</time>
      </trkpt>
      <trkpt lat="37.38199" lon="-122.120779">
        <ele>55.5</ele>
        <time>2015-07-19T22:09:12Z</time>
      </trkpt>
      <trkpt lat="37.382018" lon="-122.12078">
        <ele>55.4</ele>
        <time>2015-07-19T22:09:13Z</time>
      </trkpt>
      <trkpt lat="37.382068" lon="-122.120781">
        <ele>55.2</ele>
        <time>2015-07-19T22:09:14Z</time>
      </trkpt>
      <trkpt lat="37.382121" lon="-122.120782">
        <ele>55</ele>
        <time>2015-07-19T22:09:15Z</time>
      </trkpt>
      <trkpt lat="37.382185" lon="-122.120784">
        <ele>54.9</ele>
        <time>2015-07-19T22:09:16Z</time>
      </trkpt>
      <trkpt lat="37.382243" lon="-122.120785">
        <ele>54.7</ele>
        <time>2015-07-19T22:09:17Z</time>
      </trkpt>
      <trkpt lat="37.382296" lon="-122.120786">
        <ele>54.5</ele>
        <time>2015-07-19T22:09:18Z</time>
      </trkpt>
      <trkpt lat="37.382351" lon="-122.120787">
        <ele>54.4</ele>
        <time>2015-07-19T22:09:19Z</time>
      </trkpt>
      <trkpt lat="37.382466" lon="-122.120789">
        <ele>54.2</ele>
        <time>2015-07-19T22:09:20Z</time>
      </trkpt>
      <trkpt lat="37.382755" lon="-122.120791">
        <ele>53.7</ele>
        <time>2015-07-19T22:09:24Z</time>
      </trkpt>
      <trkpt lat="37.382819" lon="-122.120792">
        <ele>53.5</ele>
        <time>2015-07-19T22:09:25Z</time>
      </trkpt>
      <trkpt lat="37.382877" lon="-122.120792">
        <ele>53.4</ele>
        <time>2015-07-19T22:09:26Z</time>
      </trkpt>
      <trkpt lat="37.382914" lon="-122.120793">
        <ele>53.3</ele>
        <time>2015-07-19T22:09:27Z</time>
      </trkpt>
      <trkpt lat="37.382943" lon="-122.120793">
        <ele>53.2</ele>
        <time>2015-07-19T22:09:28Z</time>
      </trkpt>
      <trkpt lat="37.382999" lon="-122.120793">
        <ele>53</ele>
        <time>2015-07-19T22:09:29Z</time>
      </trkpt>
      <trkpt lat="37.383081" lon="-122.120794">
        <ele>52.8</ele>
        <time>2015-07-19T22:09:30Z</time>
      </trkpt>
      <trkpt lat="37.383141" lon="-122.120794">
        <ele>52.7</ele>
        <time>2015-07-19T22:09:31Z</time>
      </trkpt>
      <trkpt lat="37.383198" lon="-122.120794">
        <ele>52.5</ele>
        <time>2015-07-19T22:09:32Z</time>
      </trkpt>
      <trkpt lat="37.383276" lon="-122.120795">
        <ele>52.3</ele>
        <time>2015-07-19T22:09:33Z</time>
      </trkpt>
      <trkpt lat="37.383497" lon="-122.120795">
        <ele>51.8</ele>
        <time>2015-07-19T22:09:37Z</time>
      </trkpt>
      <trkpt lat="37.383584" lon="-122.120796">
        <ele>51.5</ele>
        <time>2015-07-19T22:09:38Z</time>
      </trkpt>
      <trkpt lat="37.383664" lon="-122.120796">
        <ele>51.4</ele>
        <time>2015-07-19T22:09:39Z</time>
      </trkpt>
      <trkpt lat="37.383738" lon="-122.120796">
        <ele>51.2</ele>
        <time>2015-07-19T22:09:40Z</time>
      </trkpt>
      <trkpt lat="37.383835" lon="-122.120796">
        <ele>50.9</ele>
        <time>2015-07-19T22:09:41Z</time>
      </trkpt>
      <trkpt lat="37.383882" lon="-122.120796">
        <ele>50.9</ele>
        <time>2015-07-19T22:09:42Z</time>
      </trkpt>
      <trkpt lat="37.383943" lon="-122.120796">
        <ele>50.7</ele>
        <time>2015-07-19T22:09:43Z</time>
      </trkpt>
      <trkpt lat="37.383999" lon="-122.120797">
        <ele>50.6</ele>
        <time>2015-07-19T22:09:44Z</time>
      </trkpt>
      <trkpt lat="37.384056" lon="-122.120797">
        <ele>50.4</ele>
        <time>2015-07-19T22:09:45Z</time>
      </trkpt>
      <trkpt lat="37.384119" lon="-122.120797">
        <ele>50.3</ele>
        <time>2015-07-19T22:09:46Z</time>
      </trkpt>
      <trkpt lat="37.38419" lon="-122.120797">
        <ele>50.1</ele>
        <time>2015-07-19T22:09:47Z</time>
      </trkpt>
      <trkpt lat="37.384267" lon="-122.120797">
        <ele>50</ele>
        <time>2015-07-19T22:09:48Z</time>
      </trkpt>
      <trkpt lat="37.384335" lon="-122.120797">
        <ele>49.8</ele>
        <time>2015-07-19T22:09:49Z</time>
      </trkpt>
      <trkpt lat="37.384409" lon="-122.120797">
        <ele>49.5</ele>
        <time>2015-07-19T22:09:50Z</time>
      </trkpt>
      <trkpt lat="37.384495" lon="-122.120798">
        <ele>49.2</ele>
        <time>2015-07-19T22:09:51Z</time>
      </trkpt>
      <trkpt lat="37.384561" lon="-122.120798">
        <ele>49</ele>
        <time>2015-07-19T22:09:52Z</time>
      </trkpt>
      <trkpt lat="37.38479" lon="-122.120798">
        <ele>48.4</ele>
        <time>2015-07-19T22:09:55Z</time>
      </trkpt>
      <trkpt lat="37.384854" lon="-122.120798">
        <ele>48.2</ele>
        <time>2015-07-19T22:09:56Z</time>
      </trkpt>
      <trkpt lat="37.384914" lon="-122.120798">
        <ele>48.1</ele>
        <time>2015-07-19T22:09:57Z</time>
      </trkpt>
      <trkpt lat="37.385006" lon="-122.120798">
        <ele>47.8</ele>
        <time>2015-07-19T22:09:58Z</time>
      </trkpt>
      <trkpt lat="37.38508" lon="-122.120798">
        <ele>47.6</ele>
        <time>2015-07-19T22:09:59Z</time>
      </trkpt>
      <trkpt lat="37.385148" lon="-122.120799">
        <ele>47.3</ele>
        <time>2015-07-19T22:10:00Z</time>
      </trkpt>
      <trkpt lat="37.38524" lon="-122.120799">
        <ele>47.1</ele>
        <time>2015-07-19T22:10:01Z</time>
      </trkpt>
      <trkpt lat="37.385448" lon="-122.120802">
        <ele>46.5</ele>
        <time>2015-07-19T22:10:04Z</time>
      </trkpt>
      <trkpt lat="37.385509" lon="-122.120803">
        <ele>46.4</ele>
        <time>2015-07-19T22:10:05Z</time>
      </trkpt>
      <trkpt lat="37.38561" lon="-122.120805">
        <ele>46.1</ele>
        <time>2015-07-19T22:10:06Z</time>
      </trkpt>
      <trkpt lat="37.385687" lon="-122.120806">
        <ele>46</ele>
        <time>2015-07-19T22:10:07Z</time>
      </trkpt>
      <trkpt lat="37.385763" lon="-122.120808">
        <ele>45.8</ele>
        <time>2015-07-19T22:10:08Z</time>
      </trkpt>
      <trkpt lat="37.385836" lon="-122.120809">
        <ele>45.7</ele>
        <time>2015-07-19T22:10:09Z</time>
      </trkpt>
      <trkpt lat="37.385885" lon="-122.12081">
        <ele>45.6</ele>
        <time>2015-07-19T22:10:10Z</time>
      </trkpt>
      <trkpt lat="37.386103" lon="-122.12081">
        <ele>45.2</ele>
        <time>2015-07-19T22:10:13Z</time>
      </trkpt>
      <trkpt lat="37.386215" lon="-122.120807">
        <ele>45.1</ele>
        <time>2015-07-19T22:10:14Z</time>
      </trkpt>
      <trkpt lat="37.386264" lon="-122.120807">
        <ele>45</ele>
        <time>2015-07-19T22:10:15Z</time>
      </trkpt>
      <trkpt lat="37.386326" lon="-122.120807">
        <ele>44.9</ele>
        <time>2015-07-19T22:10:16Z</time>
      </trkpt>
      <trkpt lat="37.386384" lon="-122.120807">
        <ele>44.7</ele>
        <time>2015-07-19T22:10:17Z</time>
      </trkpt>
      <trkpt lat="37.386456" lon="-122.120808">
        <ele>44.6</ele>
        <time>2015-07-19T22:10:18Z</time>
      </trkpt>
      <trkpt lat="37.386581" lon="-122.120808">
        <ele>44.4</ele>
        <time>2015-07-19T22:10:19Z</time>
      </trkpt>
      <trkpt lat="37.38664" lon="-122.120808">
        <ele>44.3</ele>
        <time>2015-07-19T22:10:20Z</time>
      </trkpt>
      <trkpt lat="37.386711" lon="-122.120808">
        <ele>44.3</ele>
        <time>2015-07-19T22:10:21Z</time>
      </trkpt>
      <trkpt lat="37.386795" lon="-122.120808">
        <ele>44.1</ele>
        <time>2015-07-19T22:10:22Z</time>
      </trkpt>
      <trkpt lat="37.386858" lon="-122.120808">
        <ele>44</ele>
        <time>2015-07-19T22:10:23Z</time>
      </trkpt>
      <trkpt lat="37.387083" lon="-122.120807">
        <ele>43.9</ele>
        <time>2015-07-19T22:10:26Z</time>
      </trkpt>
      <trkpt lat="37.387148" lon="-122.120806">
        <ele>43.9</ele>
        <time>2015-07-19T22:10:27Z</time>
      </trkpt>
      <trkpt lat="37.387207" lon="-122.120806">
        <ele>43.9</ele>
        <time>2015-07-19T22:10:28Z</time>
      </trkpt>
      <trkpt lat="37.387294" lon="-122.120805">
        <ele>43.8</ele>
        <time>2015-07-19T22:10:29Z</time>
      </trkpt>
      <trkpt lat="37.387358" lon="-122.120805">
        <ele>43.7</ele>
        <time>2015-07-19T22:10:30Z</time>
      </trkpt>
      <trkpt lat="37.387419" lon="-122.120804">
        <ele>43.6</ele>
        <time>2015-07-19T22:10:31Z</time>
      </trkpt>
      <trkpt lat="37.387476" lon="-122.120804">
        <ele>43.5</ele>
        <time>2015-07-19T22:10:32Z</time>
      </trkpt>
      <trkpt lat="37.387544" lon="-122.120804">
        <ele>43.4</ele>
        <time>2015-07-19T22:10:33Z</time>
      </trkpt>
      <trkpt lat="37.387612" lon="-122.120803">
        <ele>43.4</ele>
        <time>2015-07-19T22:10:34Z</time>
      </trkpt>
      <trkpt lat="37.38768" lon="-122.120802">
        <ele>43.3</ele>
        <time>2015-07-19T22:10:35Z</time>
      </trkpt>
      <trkpt lat="37.387909" lon="-122.120799">
        <ele>43</ele>
        <time>2015-07-19T22:10:39Z</time>
      </trkpt>
      <trkpt lat="37.388105" lon="-122.120799">
        <ele>42.7</ele>
        <time>2015-07-19T22:10:42Z</time>
      </trkpt>
      <trkpt lat="37.38815" lon="-122.120799">
        <ele>42.7</ele>
        <time>2015-07-19T22:10:43Z</time>
      </trkpt>
      <trkpt lat="37.388207" lon="-122.120799">
        <ele>42.6</ele>
        <time>2015-07-19T22:10:44Z</time>
      </trkpt>
      <trkpt lat="37.388257" lon="-122.120799">
        <ele>42.5</ele>
        <time>2015-07-19T22:10:45Z</time>
      </trkpt>
      <trkpt lat="37.388322" lon="-122.120799">
        <ele>42.4</ele>
        <time>2015-07-19T22:10:46Z</time>
      </trkpt>
      <trkpt lat="37.388378" lon="-122.120799">
        <ele>42.4</ele>
        <time>2015-07-19T22:10:47Z</time>
      </trkpt>
      <trkpt lat="37.38843" lon="-122.120799">
        <ele>42.3</ele>
        <time>2015-07-19T22:10:48Z</time>
      </trkpt>
      <trkpt lat="37.388469" lon="-122.120799">
        <ele>42.3</ele>
        <time>2015-07-19T22:10:49Z</time>
      </trkpt>
      <trkpt lat="37.38853" lon="-122.120799">
        <ele>42.3</ele>
        <time>2015-07-19T22:10:50Z</time>
      </trkpt>
      <trkpt lat="37.388562" lon="-122.120799">
        <ele>42.3</ele>
        <time>2015-07-19T22:10:51Z</time>
      </trkpt>
      <trkpt lat="37.388736" lon="-122.120797">
        <ele>42</ele>
        <time>2015-07-19T22:10:54Z</time>
      </trkpt>
      <trkpt lat="37.388783" lon="-122.120797">
        <ele>42</ele>
        <time>2015-07-19T22:10:55Z</time>
      </trkpt>
      <trkpt lat="37.388869" lon="-122.120796">
        <ele>41.9</ele>
        <time>2015-07-19T22:10:56Z</time>
      </trkpt>
      <trkpt lat="37.388932" lon="-122.120795">
        <ele>41.9</ele>
        <time>2015-07-19T22:10:57Z</time>
      </trkpt>
      <trkpt lat="37.389017" lon="-122.120794">
        <ele>41.7</ele>
        <time>2015-07-19T22:10:58Z</time>
      </trkpt>
      <trkpt lat="37.389096" lon="-122.120792">
        <ele>41.7</ele>
        <time>2015-07-19T22:10:59Z</time>
      </trkpt>
      <trkpt lat="37.389148" lon="-122.120792">
        <ele>41.6</ele>
        <time>2015-07-19T22:11:00Z</time>
      </trkpt>
      <trkpt lat="37.389223" lon="-122.120791">
        <ele>41.5</ele>
        <time>2015-07-19T22:11:01Z</time>
      </trkpt>
      <trkpt lat="37.389266" lon="-122.12079">
        <ele>41.5</ele>
        <time>2015-07-19T22:11:02Z</time>
      </trkpt>
      <trkpt lat="37.389336" lon="-122.120789">
        <ele>41.5</ele>
        <time>2015-07-19T22:11:03Z</time>
      </trkpt>
      <trkpt lat="37.389379" lon="-122.120788">
        <ele>41.4</ele>
        <time>2015-07-19T22:11:04Z</time>
      </trkpt>
      <trkpt lat="37.389664" lon="-122.120788">
        <ele>41.1</ele>
        <time>2015-07-19T22:11:08Z</time>
      </trkpt>
      <trkpt lat="37.389726" lon="-122.120788">
        <ele>41</ele>
        <time>2015-07-19T22:11:09Z</time>
      </trkpt>
      <trkpt lat="37.389791" lon="-122.120788">
        <ele>41</ele>
        <time>2015-07-19T22:11:10Z</time>
      </trkpt>
      <trkpt lat="37.389862" lon="-122.120788">
        <ele>41</ele>
        <time>2015-07-19T22:11:11Z</time>
      </trkpt>
      <trkpt lat="37.389933" lon="-122.120788">
        <ele>40.9</ele>
        <time>2015-07-19T22:11:12Z</time>
      </trkpt>
      <trkpt lat="37.389997" lon="-122.120788">
        <ele>40.8</ele>
        <time>2015-07-19T22:11:13Z</time>
      </trkpt>
      <trkpt lat="37.390056" lon="-122.120788">
        <ele>40.8</ele>
        <time>2015-07-19T22:11:14Z</time>
      </trkpt>
      <trkpt lat="37.390129" lon="-122.120788">
        <ele>40.7</ele>
        <time>2015-07-19T22:11:15Z</time>
      </trkpt>
      <trkpt lat="37.390183" lon="-122.120788">
        <ele>40.6</ele>
        <time>2015-07-19T22:11:16Z</time>
      </trkpt>
      <trkpt lat="37.390221" lon="-122.120788">
        <ele>40.5</ele>
        <time>2015-07-19T22:11:17Z</time>
      </trkpt>
      <trkpt lat="37.390265" lon="-122.120788">
        <ele>40.4</ele>
        <time>2015-07-19T22:11:19Z</time>
      </trkpt>
      <trkpt lat="37.3903" lon="-122.120788">
        <ele>40.4</ele>
        <time>2015-07-19T22:11:21Z</time>
      </trkpt>
      <trkpt lat="37.390351" lon="-122.120788">
        <ele>40.3</ele>
        <time>2015-07-19T22:11:23Z</time>
      </trkpt>
      <trkpt lat="37.390386" lon="-122.120788">
        <ele>40.3</ele>
        <time>2015-07-19T22:11:24Z</time>
      </trkpt>
      <trkpt lat="37.390416" lon="-122.120788">
        <ele>40.2</ele>
        <time>2015-07-19T22:11:25Z</time>
      </trkpt>
      <trkpt lat="37.390461" lon="-122.120788">
        <ele>40.1</ele>
        <time>2015-07-19T22:11:27Z</time>
      </trkpt>
      <trkpt lat="37.39049" lon="-122.120793">
        <ele>40.1</ele>
        <time>2015-07-19T22:11:29Z</time>
      </trkpt>
      <trkpt lat="37.390484" lon="-122.121061">
        <ele>40.2</ele>
        <time>2015-07-19T22:11:32Z</time>
      </trkpt>
      <trkpt lat="37.390482" lon="-122.121133">
        <ele>40.3</ele>
        <time>2015-07-19T22:11:33Z</time>
      </trkpt>
      <trkpt lat="37.39048" lon="-122.121186">
        <ele>40.3</ele>
        <time>2015-07-19T22:11:34Z</time>
      </trkpt>
      <trkpt lat="37.390478" lon="-122.12126">
        <ele>40.2</ele>
        <time>2015-07-19T22:11:35Z</time>
      </trkpt>
      <trkpt lat="37.390477" lon="-122.121312">
        <ele>40.2</ele>
        <time>2015-07-19T22:11:36Z</time>
      </trkpt>
      <trkpt lat="37.390475" lon="-122.12137">
        <ele>40.2</ele>
        <time>2015-07-19T22:11:37Z</time>
      </trkpt>
      <trkpt lat="37.390473" lon="-122.121427">
        <ele>40.2</ele>
        <time>2015-07-19T22:11:38Z</time>
      </trkpt>
      <trkpt lat="37.390472" lon="-122.12149">
        <ele>40.2</ele>
        <time>2015-07-19T22:11:39Z</time>
      </trkpt>
      <trkpt lat="37.390469" lon="-122.121572">
        <ele>40.1</ele>
        <time>2015-07-19T22:11:40Z</time>
      </trkpt>
      <trkpt lat="37.390467" lon="-122.121639">
        <ele>40.1</ele>
        <time>2015-07-19T22:11:41Z</time>
      </trkpt>
      <trkpt lat="37.390465" lon="-122.121718">
        <ele>40.1</ele>
        <time>2015-07-19T22:11:42Z</time>
      </trkpt>
      <trkpt lat="37.390463" lon="-122.12178">
        <ele>40.2</ele>
        <time>2015-07-19T22:11:43Z</time>
      </trkpt>
      <trkpt lat="37.390448" lon="-122.12205">
        <ele>40.3</ele>
        <time>2015-07-19T22:11:47Z</time>
      </trkpt>
      <trkpt lat="37.390444" lon="-122.122117">
        <ele>40.4</ele>
        <time>2015-07-19T22:11:48Z</time>
      </trkpt>
      <trkpt lat="37.390438" lon="-122.12221">
        <ele>40.6</ele>
        <time>2015-07-19T22:11:49Z</time>
      </trkpt>
      <trkpt lat="37.390426" lon="-122.122255">
        <ele>40.7</ele>
        <time>2015-07-19T22:11:50Z</time>
      </trkpt>
      <trkpt lat="37.390392" lon="-122.122317">
        <ele>40.8</ele>
        <time>2015-07-19T22:11:52Z</time>
      </trkpt>
      <trkpt lat="37.390352" lon="-122.122381">
        <ele>40.9</ele>
        <time>2015-07-19T22:11:53Z</time>
      </trkpt>
      <trkpt lat="37.390324" lon="-122.122424">
        <ele>41</ele>
        <time>2015-07-19T22:11:54Z</time>
      </trkpt>
      <trkpt lat="37.390301" lon="-122.122461">
        <ele>41.1</ele>
        <time>2015-07-19T22:11:55Z</time>
      </trkpt>
      <trkpt lat="37.390271" lon="-122.122507">
        <ele>41.1</ele>
        <time>2015-07-19T22:11:56Z</time>
      </trkpt>
      <trkpt lat="37.390241" lon="-122.122554">
        <ele>41.2</ele>
        <time>2015-07-19T22:11:57Z</time>
      </trkpt>
      <trkpt lat="37.390205" lon="-122.122617">
        <ele>41.4</ele>
        <time>2015-07-19T22:11:58Z</time>
      </trkpt>
      <trkpt lat="37.390159" lon="-122.122715">
        <ele>41.6</ele>
        <time>2015-07-19T22:11:59Z</time>
      </trkpt>
      <trkpt lat="37.390127" lon="-122.122799">
        <ele>41.7</ele>
        <time>2015-07-19T22:12:01Z</time>
      </trkpt>
      <trkpt lat="37.390101" lon="-122.122872">
        <ele>41.8</ele>
        <time>2015-07-19T22:12:02Z</time>
      </trkpt>
      <trkpt lat="37.390046" lon="-122.123083">
        <ele>42.1</ele>
        <time>2015-07-19T22:12:06Z</time>
      </trkpt>
      <trkpt lat="37.390032" lon="-122.123141">
        <ele>42.2</ele>
        <time>2015-07-19T22:12:07Z</time>
      </trkpt>
      <trkpt lat="37.390019" lon="-122.123201">
        <ele>42.2</ele>
        <time>2015-07-19T22:12:08Z</time>
      </trkpt>
      <trkpt lat="37.390007" lon="-122.123251">
        <ele>42.3</ele>
        <time>2015-07-19T22:12:09Z</time>
      </trkpt>
      <trkpt lat="37.389996" lon="-122.123301">
        <ele>42.3</ele>
        <time>2015-07-19T22:12:10Z</time>
      </trkpt>
      <trkpt lat="37.389986" lon="-122.123344">
        <ele>42.4</ele>
        <time>2015-07-19T22:12:11Z</time>
      </trkpt>
      <trkpt lat="37.389974" lon="-122.123391">
        <ele>42.4</ele>
        <time>2015-07-19T22:12:12Z</time>
      </trkpt>
      <trkpt lat="37.390043" lon="-122.123455">
        <ele>42.6</ele>
        <time>2015-07-19T22:12:15Z</time>
      </trkpt>
      <trkpt lat="37.390099" lon="-122.123458">
        <ele>42.7</ele>
        <time>2015-07-19T22:12:16Z</time>
      </trkpt>
      <trkpt lat="37.390144" lon="-122.123465">
        <ele>42.7</ele>
        <time>2015-07-19T22:12:18Z</time>
      </trkpt>
      <trkpt lat="37.390118" lon="-122.123453">
        <ele>42.7</ele>
        <time>2015-07-19T22:12:23Z</time>
      </trkpt>
      <trkpt lat="37.390091" lon="-122.123447">
        <ele>42.7</ele>
        <time>2015-07-19T22:12:29Z</time>
      </trkpt>
      <trkpt lat="37.390108" lon="-122.123479">
        <ele>42.8</ele>
        <time>2015-07-19T22:12:33Z</time>
      </trkpt>
      <trkpt lat="37.390116" lon="-122.123513">
        <ele>42.8</ele>
        <time>2015-07-19T22:12:36Z</time>
      </trkpt>
      <trkpt lat="37.390148" lon="-122.123524">
        <ele>42.7</ele>
        <time>2015-07-19T22:12:41Z</time>
      </trkpt>
      <trkpt lat="37.390143" lon="-122.123477">
        <ele>42.7</ele>
        <time>2015-07-19T22:12:46Z</time>
      </trkpt>
      <trkpt lat="37.390119" lon="-122.123456">
        <ele>42.7</ele>
        <time>2015-07-19T22:12:50Z</time>
      </trkpt>
      <trkpt lat="37.390095" lon="-122.123471">
        <ele>42.7</ele>
        <time>2015-07-19T22:12:53Z</time>
      </trkpt>
    </trkseg>
  </trk>
</gpx>